﻿<?xml version="1.0" encoding="utf-8"?><gpx creator="Garmin Desktop App" version="1.1" xsi:schemaLocation="http://www.topografix.com/GPX/1/1 http://www.topografix.com/GPX/1/1/gpx.xsd http://www.garmin.com/xmlschemas/WaypointExtension/v1 http://www8.garmin.com/xmlschemas/WaypointExtensionv1.xsd http://www.garmin.com/xmlschemas/TrackPointExtension/v1 http://www.garmin.com/xmlschemas/TrackPointExtensionv1.xsd http://www.garmin.com/xmlschemas/GpxExtensions/v3 http://www8.garmin.com/xmlschemas/GpxExtensionsv3.xsd http://www.garmin.com/xmlschemas/ActivityExtension/v1 http://www8.garmin.com/xmlschemas/ActivityExtensionv1.xsd http://www.garmin.com/xmlschemas/AdventuresExtensions/v1 http://www8.garmin.com/xmlschemas/AdventuresExtensionv1.xsd http://www.garmin.com/xmlschemas/PressureExtension/v1 http://www.garmin.com/xmlschemas/PressureExtensionv1.xsd http://www.garmin.com/xmlschemas/TripExtensions/v1 http://www.garmin.com/xmlschemas/TripExtensionsv1.xsd http://www.garmin.com/xmlschemas/TripMetaDataExtensions/v1 http://www.garmin.com/xmlschemas/TripMetaDataExtensionsv1.xsd http://www.garmin.com/xmlschemas/ViaPointTransportationModeExtensions/v1 http://www.garmin.com/xmlschemas/ViaPointTransportationModeExtensionsv1.xsd http://www.garmin.com/xmlschemas/CreationTimeExtension/v1 http://www.garmin.com/xmlschemas/CreationTimeExtensionsv1.xsd http://www.garmin.com/xmlschemas/AccelerationExtension/v1 http://www.garmin.com/xmlschemas/AccelerationExtensionv1.xsd http://www.garmin.com/xmlschemas/PowerExtension/v1 http://www.garmin.com/xmlschemas/PowerExtensionv1.xsd http://www.garmin.com/xmlschemas/VideoExtension/v1 http://www.garmin.com/xmlschemas/VideoExtensionv1.xsd" xmlns="http://www.topografix.com/GPX/1/1" xmlns:xsi="http://www.w3.org/2001/XMLSchema-instance" xmlns:wptx1="http://www.garmin.com/xmlschemas/WaypointExtension/v1" xmlns:gpxtrx="http://www.garmin.com/xmlschemas/GpxExtensions/v3" xmlns:gpxtpx="http://www.garmin.com/xmlschemas/TrackPointExtension/v1" xmlns:gpxx="http://www.garmin.com/xmlschemas/GpxExtensions/v3" xmlns:trp="http://www.garmin.com/xmlschemas/TripExtensions/v1" xmlns:adv="http://www.garmin.com/xmlschemas/AdventuresExtensions/v1" xmlns:prs="http://www.garmin.com/xmlschemas/PressureExtension/v1" xmlns:tmd="http://www.garmin.com/xmlschemas/TripMetaDataExtensions/v1" xmlns:vptm="http://www.garmin.com/xmlschemas/ViaPointTransportationModeExtensions/v1" xmlns:ctx="http://www.garmin.com/xmlschemas/CreationTimeExtension/v1" xmlns:gpxacc="http://www.garmin.com/xmlschemas/AccelerationExtension/v1" xmlns:gpxpx="http://www.garmin.com/xmlschemas/PowerExtension/v1" xmlns:vidx1="http://www.garmin.com/xmlschemas/VideoExtension/v1">

  <metadata>
    <link href="http://www.garmin.com">
      <text>Garmin International</text>
    </link>
    <time>2019-05-09T14:31:14Z</time>
    <bounds maxlat="53.25328697450459" maxlon="10.421934016048908" minlat="50.068191010504961" minlon="8.478162037208676" />
  </metadata>

  <trk>
    <name>Track vom: 2019-05-09 07:32</name>
    <extensions>
      <gpxx:TrackExtension>
        <gpxx:DisplayColor>DarkGray</gpxx:DisplayColor>
      </gpxx:TrackExtension>
    </extensions>
    <trkseg>
      <trkpt lat="53.24909602291882" lon="10.402964008972049">
        <ele>3.98</ele>
        <time>2019-05-09T05:32:33Z</time>
      </trkpt>
      <trkpt lat="53.249097028747201" lon="10.402974989265203">
        <ele>3.02</ele>
        <time>2019-05-09T05:33:17Z</time>
      </trkpt>
      <trkpt lat="53.24909501709044" lon="10.402972977608442">
        <ele>3.02</ele>
        <time>2019-05-09T05:33:41Z</time>
      </trkpt>
      <trkpt lat="53.249097028747201" lon="10.402969960123301">
        <ele>3.5</ele>
        <time>2019-05-09T05:33:55Z</time>
      </trkpt>
      <trkpt lat="53.249097028747201" lon="10.402969960123301">
        <ele>3.5</ele>
        <time>2019-05-09T05:34:12Z</time>
      </trkpt>
      <trkpt lat="53.249097028747201" lon="10.402969960123301">
        <ele>3.5</ele>
        <time>2019-05-09T05:34:17Z</time>
      </trkpt>
      <trkpt lat="53.249199036508799" lon="10.402896031737328">
        <ele>3.02</ele>
        <time>2019-05-09T05:34:23Z</time>
      </trkpt>
      <trkpt lat="53.249448984861374" lon="10.402823025360703">
        <ele>3.5</ele>
        <time>2019-05-09T05:34:32Z</time>
      </trkpt>
      <trkpt lat="53.249424006789923" lon="10.402743984013796">
        <ele>3.5</ele>
        <time>2019-05-09T05:34:34Z</time>
      </trkpt>
      <trkpt lat="53.249415038153529" lon="10.402712970972061">
        <ele>3.5</ele>
        <time>2019-05-09T05:34:35Z</time>
      </trkpt>
      <trkpt lat="53.249399028718472" lon="10.402652034536004">
        <ele>3.98</ele>
        <time>2019-05-09T05:34:36Z</time>
      </trkpt>
      <trkpt lat="53.249381007626653" lon="10.402589002624154">
        <ele>4.46</ele>
        <time>2019-05-09T05:34:37Z</time>
      </trkpt>
      <trkpt lat="53.24924798682332" lon="10.402110982686281">
        <ele>8.789999999999999</ele>
        <time>2019-05-09T05:34:50Z</time>
      </trkpt>
      <trkpt lat="53.249236000701785" lon="10.402071001008153">
        <ele>10.710000000000001</ele>
        <time>2019-05-09T05:35:04Z</time>
      </trkpt>
      <trkpt lat="53.2495909743011" lon="10.402135960757732">
        <ele>11.19</ele>
        <time>2019-05-09T05:35:12Z</time>
      </trkpt>
      <trkpt lat="53.249866990372539" lon="10.402135960757732">
        <ele>13.6</ele>
        <time>2019-05-09T05:35:21Z</time>
      </trkpt>
      <trkpt lat="53.249929016456008" lon="10.402116011828184">
        <ele>14.08</ele>
        <time>2019-05-09T05:35:24Z</time>
      </trkpt>
      <trkpt lat="53.249948965385556" lon="10.402110982686281">
        <ele>14.08</ele>
        <time>2019-05-09T05:35:25Z</time>
      </trkpt>
      <trkpt lat="53.249996993690729" lon="10.402133027091622">
        <ele>14.08</ele>
        <time>2019-05-09T05:35:26Z</time>
      </trkpt>
      <trkpt lat="53.25001803226769" lon="10.402178959921002">
        <ele>14.08</ele>
        <time>2019-05-09T05:35:27Z</time>
      </trkpt>
      <trkpt lat="53.250038987025619" lon="10.402226988226175">
        <ele>13.6</ele>
        <time>2019-05-09T05:35:28Z</time>
      </trkpt>
      <trkpt lat="53.25006103143096" lon="10.402275016531348">
        <ele>13.6</ele>
        <time>2019-05-09T05:35:29Z</time>
      </trkpt>
      <trkpt lat="53.250307962298393" lon="10.402675000950694">
        <ele>9.75</ele>
        <time>2019-05-09T05:35:39Z</time>
      </trkpt>
      <trkpt lat="53.250625971704721" lon="10.403023017570376">
        <ele>9.27</ele>
        <time>2019-05-09T05:35:50Z</time>
      </trkpt>
      <trkpt lat="53.25087902136147" lon="10.403359970077872">
        <ele>9.75</ele>
        <time>2019-05-09T05:36:00Z</time>
      </trkpt>
      <trkpt lat="53.250960996374488" lon="10.403364999219775">
        <ele>12.15</ele>
        <time>2019-05-09T05:36:07Z</time>
      </trkpt>
      <trkpt lat="53.250966025516391" lon="10.403337003663182">
        <ele>12.630000000000001</ele>
        <time>2019-05-09T05:36:08Z</time>
      </trkpt>
      <trkpt lat="53.250969965010881" lon="10.403309008106589">
        <ele>13.119999999999999</ele>
        <time>2019-05-09T05:36:09Z</time>
      </trkpt>
      <trkpt lat="53.250969965010881" lon="10.403309008106589">
        <ele>13.6</ele>
        <time>2019-05-09T05:36:26Z</time>
      </trkpt>
      <trkpt lat="53.250969965010881" lon="10.403309008106589">
        <ele>14.08</ele>
        <time>2019-05-09T05:37:05Z</time>
      </trkpt>
      <trkpt lat="53.250969965010881" lon="10.403309008106589">
        <ele>14.08</ele>
        <time>2019-05-09T05:37:38Z</time>
      </trkpt>
      <trkpt lat="53.250969965010881" lon="10.403309008106589">
        <ele>14.08</ele>
        <time>2019-05-09T05:38:25Z</time>
      </trkpt>
      <trkpt lat="53.250969965010881" lon="10.403309008106589">
        <ele>14.08</ele>
        <time>2019-05-09T05:38:51Z</time>
      </trkpt>
      <trkpt lat="53.251146990805864" lon="10.40303198620677">
        <ele>12.630000000000001</ele>
        <time>2019-05-09T05:39:10Z</time>
      </trkpt>
      <trkpt lat="53.2514370046556" lon="10.402907012030482">
        <ele>9.75</ele>
        <time>2019-05-09T05:39:15Z</time>
      </trkpt>
      <trkpt lat="53.252127002924681" lon="10.402548015117645">
        <ele>8.310000000000001</ele>
        <time>2019-05-09T05:39:25Z</time>
      </trkpt>
      <trkpt lat="53.252191040664911" lon="10.40253896266222">
        <ele>8.310000000000001</ele>
        <time>2019-05-09T05:39:26Z</time>
      </trkpt>
      <trkpt lat="53.252306962385774" lon="10.402522031217813">
        <ele>8.310000000000001</ele>
        <time>2019-05-09T05:39:28Z</time>
      </trkpt>
      <trkpt lat="53.252363037317991" lon="10.402513984590769">
        <ele>8.310000000000001</ele>
        <time>2019-05-09T05:39:29Z</time>
      </trkpt>
      <trkpt lat="53.252418022602797" lon="10.402521025389433">
        <ele>8.310000000000001</ele>
        <time>2019-05-09T05:39:30Z</time>
      </trkpt>
      <trkpt lat="53.252461021766067" lon="10.402572993189096">
        <ele>8.789999999999999</ele>
        <time>2019-05-09T05:39:31Z</time>
      </trkpt>
      <trkpt lat="53.252503015100956" lon="10.402624038979411">
        <ele>8.789999999999999</ele>
        <time>2019-05-09T05:39:32Z</time>
      </trkpt>
      <trkpt lat="53.252739971503615" lon="10.402985969558358">
        <ele>9.27</ele>
        <time>2019-05-09T05:39:38Z</time>
      </trkpt>
      <trkpt lat="53.25289998203516" lon="10.403286963701248">
        <ele>8.789999999999999</ele>
        <time>2019-05-09T05:39:43Z</time>
      </trkpt>
      <trkpt lat="53.252948010340333" lon="10.403377991169691">
        <ele>9.27</ele>
        <time>2019-05-09T05:39:44Z</time>
      </trkpt>
      <trkpt lat="53.252998972311616" lon="10.403468012809753">
        <ele>9.27</ele>
        <time>2019-05-09T05:39:45Z</time>
      </trkpt>
      <trkpt lat="53.253054041415453" lon="10.403626011684537">
        <ele>8.789999999999999</ele>
        <time>2019-05-09T05:39:46Z</time>
      </trkpt>
      <trkpt lat="53.253060998395085" lon="10.403761966153979">
        <ele>8.789999999999999</ele>
        <time>2019-05-09T05:39:47Z</time>
      </trkpt>
      <trkpt lat="53.253068039193749" lon="10.403896998614073">
        <ele>8.789999999999999</ele>
        <time>2019-05-09T05:39:48Z</time>
      </trkpt>
      <trkpt lat="53.253073990345001" lon="10.404027001932263">
        <ele>8.789999999999999</ele>
        <time>2019-05-09T05:39:49Z</time>
      </trkpt>
      <trkpt lat="53.253086982294917" lon="10.404275022447109">
        <ele>8.789999999999999</ele>
        <time>2019-05-09T05:39:51Z</time>
      </trkpt>
      <trkpt lat="53.253093017265201" lon="10.404404019936919">
        <ele>8.310000000000001</ele>
        <time>2019-05-09T05:39:52Z</time>
      </trkpt>
      <trkpt lat="53.253099974244833" lon="10.404523964971304">
        <ele>8.310000000000001</ele>
        <time>2019-05-09T05:39:53Z</time>
      </trkpt>
      <trkpt lat="53.253105003386736" lon="10.404629996046424">
        <ele>7.83</ele>
        <time>2019-05-09T05:39:54Z</time>
      </trkpt>
      <trkpt lat="53.253110032528639" lon="10.404733009636402">
        <ele>7.35</ele>
        <time>2019-05-09T05:39:55Z</time>
      </trkpt>
      <trkpt lat="53.25311497785151" lon="10.404830994084477">
        <ele>7.35</ele>
        <time>2019-05-09T05:39:56Z</time>
      </trkpt>
      <trkpt lat="53.253121012821794" lon="10.404994022101164">
        <ele>6.87</ele>
        <time>2019-05-09T05:39:58Z</time>
      </trkpt>
      <trkpt lat="53.253125958144665" lon="10.405126037076116">
        <ele>5.91</ele>
        <time>2019-05-09T05:40:00Z</time>
      </trkpt>
      <trkpt lat="53.253127969801426" lon="10.405173981562257">
        <ele>5.42</ele>
        <time>2019-05-09T05:40:01Z</time>
      </trkpt>
      <trkpt lat="53.253129981458187" lon="10.40522301569581">
        <ele>4.46</ele>
        <time>2019-05-09T05:40:02Z</time>
      </trkpt>
      <trkpt lat="53.253130987286568" lon="10.4052650090307">
        <ele>3.5</ele>
        <time>2019-05-09T05:40:03Z</time>
      </trkpt>
      <trkpt lat="53.253132998943329" lon="10.405299039557576">
        <ele>2.54</ele>
        <time>2019-05-09T05:40:04Z</time>
      </trkpt>
      <trkpt lat="53.253134004771709" lon="10.405334997922182">
        <ele>2.06</ele>
        <time>2019-05-09T05:40:05Z</time>
      </trkpt>
      <trkpt lat="53.253138028085232" lon="10.405428037047386">
        <ele>0.14</ele>
        <time>2019-05-09T05:40:08Z</time>
      </trkpt>
      <trkpt lat="53.253139033913612" lon="10.405466007068753">
        <ele>-0.82</ele>
        <time>2019-05-09T05:40:09Z</time>
      </trkpt>
      <trkpt lat="53.253142973408103" lon="10.405571032315493">
        <ele>-3.23</ele>
        <time>2019-05-09T05:40:25Z</time>
      </trkpt>
      <trkpt lat="53.25315797701478" lon="10.405958024784923">
        <ele>-1.79</ele>
        <time>2019-05-09T05:40:45Z</time>
      </trkpt>
      <trkpt lat="53.253167029470205" lon="10.406172014772892">
        <ele>2.06</ele>
        <time>2019-05-09T05:40:49Z</time>
      </trkpt>
      <trkpt lat="53.253169963136315" lon="10.406252983957529">
        <ele>3.02</ele>
        <time>2019-05-09T05:40:50Z</time>
      </trkpt>
      <trkpt lat="53.253186978399754" lon="10.406648023054004">
        <ele>3.98</ele>
        <time>2019-05-09T05:40:54Z</time>
      </trkpt>
      <trkpt lat="53.253194019198418" lon="10.406810967251658">
        <ele>4.46</ele>
        <time>2019-05-09T05:40:56Z</time>
      </trkpt>
      <trkpt lat="53.253217991441488" lon="10.407407004386187">
        <ele>4.94</ele>
        <time>2019-05-09T05:41:01Z</time>
      </trkpt>
      <trkpt lat="53.253255961462855" lon="10.408308980986476">
        <ele>4.94</ele>
        <time>2019-05-09T05:41:11Z</time>
      </trkpt>
      <trkpt lat="53.253263002261519" lon="10.408500004559755">
        <ele>4.46</ele>
        <time>2019-05-09T05:41:20Z</time>
      </trkpt>
      <trkpt lat="53.253265013918281" lon="10.408548032864928">
        <ele>4.46</ele>
        <time>2019-05-09T05:41:24Z</time>
      </trkpt>
      <trkpt lat="53.253267025575042" lon="10.408607041463256">
        <ele>4.46</ele>
        <time>2019-05-09T05:41:25Z</time>
      </trkpt>
      <trkpt lat="53.25328697450459" lon="10.409236019477248">
        <ele>6.39</ele>
        <time>2019-05-09T05:41:33Z</time>
      </trkpt>
      <trkpt lat="53.253192007541656" lon="10.409920988604426">
        <ele>9.27</ele>
        <time>2019-05-09T05:41:43Z</time>
      </trkpt>
      <trkpt lat="53.253099974244833" lon="10.410227011889219">
        <ele>10.23</ele>
        <time>2019-05-09T05:41:49Z</time>
      </trkpt>
      <trkpt lat="53.25307197868824" lon="10.410318039357662">
        <ele>11.19</ele>
        <time>2019-05-09T05:41:59Z</time>
      </trkpt>
      <trkpt lat="53.25289998203516" lon="10.41083101183176">
        <ele>12.630000000000001</ele>
        <time>2019-05-09T05:42:07Z</time>
      </trkpt>
      <trkpt lat="53.252790011465549" lon="10.411215992644429">
        <ele>15.039999999999999</ele>
        <time>2019-05-09T05:42:15Z</time>
      </trkpt>
      <trkpt lat="53.252782970666885" lon="10.411306014284492">
        <ele>16.960000000000001</ele>
        <time>2019-05-09T05:42:20Z</time>
      </trkpt>
      <trkpt lat="53.252781964838505" lon="10.411327974870801">
        <ele>17.440000000000001</ele>
        <time>2019-05-09T05:42:21Z</time>
      </trkpt>
      <trkpt lat="53.252781964838505" lon="10.411327974870801">
        <ele>17.440000000000001</ele>
        <time>2019-05-09T05:42:35Z</time>
      </trkpt>
      <trkpt lat="53.252777019515634" lon="10.411396035924554">
        <ele>18.399999999999999</ele>
        <time>2019-05-09T05:43:18Z</time>
      </trkpt>
      <trkpt lat="53.252751035615802" lon="10.411984026432037">
        <ele>19.359999999999999</ele>
        <time>2019-05-09T05:43:27Z</time>
      </trkpt>
      <trkpt lat="53.252800991758704" lon="10.413436023518443">
        <ele>17.440000000000001</ele>
        <time>2019-05-09T05:43:35Z</time>
      </trkpt>
      <trkpt lat="53.25281398370862" lon="10.414154017344117">
        <ele>16.960000000000001</ele>
        <time>2019-05-09T05:43:40Z</time>
      </trkpt>
      <trkpt lat="53.25281398370862" lon="10.414516031742096">
        <ele>16.48</ele>
        <time>2019-05-09T05:43:47Z</time>
      </trkpt>
      <trkpt lat="53.252805015072227" lon="10.414704959839582">
        <ele>15.52</ele>
        <time>2019-05-09T05:44:01Z</time>
      </trkpt>
      <trkpt lat="53.252789005637169" lon="10.414925990626216">
        <ele>15.039999999999999</ele>
        <time>2019-05-09T05:44:04Z</time>
      </trkpt>
      <trkpt lat="53.252780959010124" lon="10.414993967860937">
        <ele>15.039999999999999</ele>
        <time>2019-05-09T05:44:05Z</time>
      </trkpt>
      <trkpt lat="53.252774002030492" lon="10.415054988116026">
        <ele>15.039999999999999</ele>
        <time>2019-05-09T05:44:06Z</time>
      </trkpt>
      <trkpt lat="53.252753969281912" lon="10.415223967283964">
        <ele>14.56</ele>
        <time>2019-05-09T05:44:11Z</time>
      </trkpt>
      <trkpt lat="53.252753969281912" lon="10.415223967283964">
        <ele>14.56</ele>
        <time>2019-05-09T05:44:23Z</time>
      </trkpt>
      <trkpt lat="53.252605022862554" lon="10.415293034166098">
        <ele>15.039999999999999</ele>
        <time>2019-05-09T05:44:45Z</time>
      </trkpt>
      <trkpt lat="53.252344010397792" lon="10.415365034714341">
        <ele>15.039999999999999</ele>
        <time>2019-05-09T05:44:51Z</time>
      </trkpt>
      <trkpt lat="53.252288019284606" lon="10.415380960330367">
        <ele>15.039999999999999</ele>
        <time>2019-05-09T05:44:52Z</time>
      </trkpt>
      <trkpt lat="53.251943020150065" lon="10.415475005283952">
        <ele>14.56</ele>
        <time>2019-05-09T05:45:00Z</time>
      </trkpt>
      <trkpt lat="53.251943020150065" lon="10.415475005283952">
        <ele>14.56</ele>
        <time>2019-05-09T05:45:20Z</time>
      </trkpt>
      <trkpt lat="53.251593997702003" lon="10.415490008890629">
        <ele>15.52</ele>
        <time>2019-05-09T05:45:26Z</time>
      </trkpt>
      <trkpt lat="53.250597976148129" lon="10.415551029145718">
        <ele>14.08</ele>
        <time>2019-05-09T05:45:38Z</time>
      </trkpt>
      <trkpt lat="53.250175025314093" lon="10.415625963360071">
        <ele>13.6</ele>
        <time>2019-05-09T05:45:43Z</time>
      </trkpt>
      <trkpt lat="53.250079974532127" lon="10.41564398445189">
        <ele>14.08</ele>
        <time>2019-05-09T05:45:44Z</time>
      </trkpt>
      <trkpt lat="53.249035002663732" lon="10.415842970833182">
        <ele>13.119999999999999</ele>
        <time>2019-05-09T05:45:54Z</time>
      </trkpt>
      <trkpt lat="53.248509038239717" lon="10.415952019393444">
        <ele>11.19</ele>
        <time>2019-05-09T05:46:00Z</time>
      </trkpt>
      <trkpt lat="53.247673027217388" lon="10.416124016046524">
        <ele>9.75</ele>
        <time>2019-05-09T05:46:07Z</time>
      </trkpt>
      <trkpt lat="53.246864005923271" lon="10.416290983557701">
        <ele>8.789999999999999</ele>
        <time>2019-05-09T05:46:15Z</time>
      </trkpt>
      <trkpt lat="53.246628977358341" lon="10.416339011862874">
        <ele>7.83</ele>
        <time>2019-05-09T05:46:18Z</time>
      </trkpt>
      <trkpt lat="53.246566029265523" lon="10.41635200381279">
        <ele>7.35</ele>
        <time>2019-05-09T05:46:19Z</time>
      </trkpt>
      <trkpt lat="53.246029000729322" lon="10.416418975219131">
        <ele>6.87</ele>
        <time>2019-05-09T05:46:27Z</time>
      </trkpt>
      <trkpt lat="53.245944008231163" lon="10.416426016017795">
        <ele>7.35</ele>
        <time>2019-05-09T05:46:28Z</time>
      </trkpt>
      <trkpt lat="53.245850969105959" lon="10.416432972997427">
        <ele>7.83</ele>
        <time>2019-05-09T05:46:29Z</time>
      </trkpt>
      <trkpt lat="53.245751978829503" lon="10.416393997147679">
        <ele>7.83</ele>
        <time>2019-05-09T05:46:30Z</time>
      </trkpt>
      <trkpt lat="53.245659023523331" lon="10.416353009641171">
        <ele>7.83</ele>
        <time>2019-05-09T05:46:31Z</time>
      </trkpt>
      <trkpt lat="53.245565984398127" lon="10.416292995214462">
        <ele>7.83</ele>
        <time>2019-05-09T05:46:32Z</time>
      </trkpt>
      <trkpt lat="53.245473029091954" lon="10.416229963302612">
        <ele>7.83</ele>
        <time>2019-05-09T05:46:33Z</time>
      </trkpt>
      <trkpt lat="53.244417998939753" lon="10.415533008053899">
        <ele>8.789999999999999</ele>
        <time>2019-05-09T05:46:43Z</time>
      </trkpt>
      <trkpt lat="53.243864038959146" lon="10.415144003927708">
        <ele>8.789999999999999</ele>
        <time>2019-05-09T05:46:50Z</time>
      </trkpt>
      <trkpt lat="53.243822967633605" lon="10.41510796174407">
        <ele>8.789999999999999</ele>
        <time>2019-05-09T05:46:51Z</time>
      </trkpt>
      <trkpt lat="53.243786003440619" lon="10.415076026692986">
        <ele>9.27</ele>
        <time>2019-05-09T05:46:52Z</time>
      </trkpt>
      <trkpt lat="53.243755996227264" lon="10.415049958974123">
        <ele>9.27</ele>
        <time>2019-05-09T05:46:53Z</time>
      </trkpt>
      <trkpt lat="53.243744010105729" lon="10.415039984509349">
        <ele>9.27</ele>
        <time>2019-05-09T05:46:54Z</time>
      </trkpt>
      <trkpt lat="53.243823973461986" lon="10.414867987856269">
        <ele>9.27</ele>
        <time>2019-05-09T05:46:55Z</time>
      </trkpt>
      <trkpt lat="53.243823973461986" lon="10.414867987856269">
        <ele>8.310000000000001</ele>
        <time>2019-05-09T05:47:06Z</time>
      </trkpt>
      <trkpt lat="53.243823973461986" lon="10.414867987856269">
        <ele>8.310000000000001</ele>
        <time>2019-05-09T05:47:27Z</time>
      </trkpt>
      <trkpt lat="53.243170017376542" lon="10.414580991491675">
        <ele>9.75</ele>
        <time>2019-05-09T05:47:35Z</time>
      </trkpt>
      <trkpt lat="53.241822039708495" lon="10.413651019334793">
        <ele>10.710000000000001</ele>
        <time>2019-05-09T05:47:46Z</time>
      </trkpt>
      <trkpt lat="53.240629965439439" lon="10.413136035203934">
        <ele>8.789999999999999</ele>
        <time>2019-05-09T05:47:55Z</time>
      </trkpt>
      <trkpt lat="53.240078017115593" lon="10.413074009120464">
        <ele>5.42</ele>
        <time>2019-05-09T05:47:59Z</time>
      </trkpt>
      <trkpt lat="53.238732973113656" lon="10.413078032433987">
        <ele>2.54</ele>
        <time>2019-05-09T05:48:09Z</time>
      </trkpt>
      <trkpt lat="53.237626980990171" lon="10.412768991664052">
        <ele>4.46</ele>
        <time>2019-05-09T05:48:19Z</time>
      </trkpt>
      <trkpt lat="53.237477028742433" lon="10.412724986672401">
        <ele>4.94</ele>
        <time>2019-05-09T05:48:22Z</time>
      </trkpt>
      <trkpt lat="53.237340990453959" lon="10.412685004994273">
        <ele>6.39</ele>
        <time>2019-05-09T05:48:24Z</time>
      </trkpt>
      <trkpt lat="53.236669013276696" lon="10.412373030558228">
        <ele>9.27</ele>
        <time>2019-05-09T05:48:30Z</time>
      </trkpt>
      <trkpt lat="53.235546005889773" lon="10.411736005917192">
        <ele>10.23</ele>
        <time>2019-05-09T05:48:39Z</time>
      </trkpt>
      <trkpt lat="53.234810996800661" lon="10.41119403205812">
        <ele>8.310000000000001</ele>
        <time>2019-05-09T05:48:47Z</time>
      </trkpt>
      <trkpt lat="53.234257958829403" lon="10.410667983815074">
        <ele>6.87</ele>
        <time>2019-05-09T05:48:54Z</time>
      </trkpt>
      <trkpt lat="53.233195971697569" lon="10.409407010301948">
        <ele>4.94</ele>
        <time>2019-05-09T05:49:04Z</time>
      </trkpt>
      <trkpt lat="53.232987010851502" lon="10.409181034192443">
        <ele>4.94</ele>
        <time>2019-05-09T05:49:06Z</time>
      </trkpt>
      <trkpt lat="53.232894977554679" lon="10.409087995067239">
        <ele>4.94</ele>
        <time>2019-05-09T05:49:07Z</time>
      </trkpt>
      <trkpt lat="53.232685010880232" lon="10.408821031451225">
        <ele>5.42</ele>
        <time>2019-05-09T05:49:10Z</time>
      </trkpt>
      <trkpt lat="53.23261502198875" lon="10.408728998154402">
        <ele>5.91</ele>
        <time>2019-05-09T05:49:11Z</time>
      </trkpt>
      <trkpt lat="53.232542015612125" lon="10.408634031191468">
        <ele>5.91</ele>
        <time>2019-05-09T05:49:12Z</time>
      </trkpt>
      <trkpt lat="53.23235996067524" lon="10.408294983208179">
        <ele>7.35</ele>
        <time>2019-05-09T05:49:15Z</time>
      </trkpt>
      <trkpt lat="53.232255019247532" lon="10.40803799405694">
        <ele>8.310000000000001</ele>
        <time>2019-05-09T05:49:17Z</time>
      </trkpt>
      <trkpt lat="53.232202967628837" lon="10.407912014052272">
        <ele>8.789999999999999</ele>
        <time>2019-05-09T05:49:18Z</time>
      </trkpt>
      <trkpt lat="53.231974979862571" lon="10.407355958595872">
        <ele>10.710000000000001</ele>
        <time>2019-05-09T05:49:23Z</time>
      </trkpt>
      <trkpt lat="53.231943966820836" lon="10.407280018553138">
        <ele>11.19</ele>
        <time>2019-05-09T05:49:24Z</time>
      </trkpt>
      <trkpt lat="53.231850005686283" lon="10.407050019130111">
        <ele>13.119999999999999</ele>
        <time>2019-05-09T05:49:27Z</time>
      </trkpt>
      <trkpt lat="53.23177800513804" lon="10.406873999163508">
        <ele>14.08</ele>
        <time>2019-05-09T05:49:29Z</time>
      </trkpt>
      <trkpt lat="53.23173601180315" lon="10.40677098557353">
        <ele>15.039999999999999</ele>
        <time>2019-05-09T05:49:30Z</time>
      </trkpt>
      <trkpt lat="53.231258997693658" lon="10.405861968174577">
        <ele>17.920000000000002</ele>
        <time>2019-05-09T05:49:38Z</time>
      </trkpt>
      <trkpt lat="53.231172999367118" lon="10.405765995383263">
        <ele>17.920000000000002</ele>
        <time>2019-05-09T05:49:39Z</time>
      </trkpt>
      <trkpt lat="53.230873011052608" lon="10.405513029545546">
        <ele>17.920000000000002</ele>
        <time>2019-05-09T05:49:42Z</time>
      </trkpt>
      <trkpt lat="53.230677964165807" lon="10.4054169729352">
        <ele>18.399999999999999</ele>
        <time>2019-05-09T05:49:44Z</time>
      </trkpt>
      <trkpt lat="53.230587020516396" lon="10.405384032055736">
        <ele>18.399999999999999</ele>
        <time>2019-05-09T05:49:45Z</time>
      </trkpt>
      <trkpt lat="53.230504039674997" lon="10.405387971550226">
        <ele>18.399999999999999</ele>
        <time>2019-05-09T05:49:46Z</time>
      </trkpt>
      <trkpt lat="53.229627963155508" lon="10.405471958220005">
        <ele>18.879999999999999</ele>
        <time>2019-05-09T05:49:54Z</time>
      </trkpt>
      <trkpt lat="53.229002002626657" lon="10.405530966818333">
        <ele>20.32</ele>
        <time>2019-05-09T05:49:59Z</time>
      </trkpt>
      <trkpt lat="53.22888096794486" lon="10.4055430367589">
        <ele>20.809999999999999</ele>
        <time>2019-05-09T05:50:00Z</time>
      </trkpt>
      <trkpt lat="53.228657003492117" lon="10.405563991516829">
        <ele>21.77</ele>
        <time>2019-05-09T05:50:02Z</time>
      </trkpt>
      <trkpt lat="53.228548960760236" lon="10.405573965981603">
        <ele>22.73</ele>
        <time>2019-05-09T05:50:03Z</time>
      </trkpt>
      <trkpt lat="53.227583030238748" lon="10.405636997893453">
        <ele>25.129999999999999</ele>
        <time>2019-05-09T05:50:11Z</time>
      </trkpt>
      <trkpt lat="53.226722041144967" lon="10.405641021206975">
        <ele>25.609999999999999</ele>
        <time>2019-05-09T05:50:18Z</time>
      </trkpt>
      <trkpt lat="53.22516200132668" lon="10.405635992065072">
        <ele>26.09</ele>
        <time>2019-05-09T05:50:31Z</time>
      </trkpt>
      <trkpt lat="53.224078975617886" lon="10.405623000115156">
        <ele>26.57</ele>
        <time>2019-05-09T05:50:40Z</time>
      </trkpt>
      <trkpt lat="53.222527988255024" lon="10.405577989295125">
        <ele>25.129999999999999</ele>
        <time>2019-05-09T05:50:53Z</time>
      </trkpt>
      <trkpt lat="53.222418017685413" lon="10.405583018437028">
        <ele>25.129999999999999</ele>
        <time>2019-05-09T05:50:54Z</time>
      </trkpt>
      <trkpt lat="53.222309974953532" lon="10.40558704175055">
        <ele>25.129999999999999</ele>
        <time>2019-05-09T05:50:55Z</time>
      </trkpt>
      <trkpt lat="53.221125025302172" lon="10.405598022043705">
        <ele>27.050000000000001</ele>
        <time>2019-05-09T05:51:05Z</time>
      </trkpt>
      <trkpt lat="53.220297982916236" lon="10.405569020658731">
        <ele>28.02</ele>
        <time>2019-05-09T05:51:12Z</time>
      </trkpt>
      <trkpt lat="53.219190984964371" lon="10.40554597042501">
        <ele>30.420000000000002</ele>
        <time>2019-05-09T05:51:21Z</time>
      </trkpt>
      <trkpt lat="53.218276016414165" lon="10.405535995960236">
        <ele>29.940000000000001</ele>
        <time>2019-05-09T05:51:28Z</time>
      </trkpt>
      <trkpt lat="53.217187961563468" lon="10.405511017888784">
        <ele>26.57</ele>
        <time>2019-05-09T05:51:34Z</time>
      </trkpt>
      <trkpt lat="53.215482998639345" lon="10.405463995411992">
        <ele>20.809999999999999</ele>
        <time>2019-05-09T05:51:43Z</time>
      </trkpt>
      <trkpt lat="53.213806031271815" lon="10.4054169729352">
        <ele>16</ele>
        <time>2019-05-09T05:51:52Z</time>
      </trkpt>
      <trkpt lat="53.212156975641847" lon="10.405383026227355">
        <ele>11.67</ele>
        <time>2019-05-09T05:52:01Z</time>
      </trkpt>
      <trkpt lat="53.210417982190847" lon="10.405382020398974">
        <ele>12.15</ele>
        <time>2019-05-09T05:52:11Z</time>
      </trkpt>
      <trkpt lat="53.208722993731499" lon="10.405361987650394">
        <ele>14.56</ele>
        <time>2019-05-09T05:52:22Z</time>
      </trkpt>
      <trkpt lat="53.207998964935541" lon="10.405313037335873">
        <ele>16.960000000000001</ele>
        <time>2019-05-09T05:52:28Z</time>
      </trkpt>
      <trkpt lat="53.207914978265762" lon="10.405299961566925">
        <ele>17.440000000000001</ele>
        <time>2019-05-09T05:52:29Z</time>
      </trkpt>
      <trkpt lat="53.207834009081125" lon="10.40528797544539">
        <ele>17.440000000000001</ele>
        <time>2019-05-09T05:52:30Z</time>
      </trkpt>
      <trkpt lat="53.207700988277793" lon="10.40507398545742">
        <ele>18.399999999999999</ele>
        <time>2019-05-09T05:52:32Z</time>
      </trkpt>
      <trkpt lat="53.207610966637731" lon="10.405061999335885">
        <ele>18.399999999999999</ele>
        <time>2019-05-09T05:52:33Z</time>
      </trkpt>
      <trkpt lat="53.207560004666448" lon="10.405083037912846">
        <ele>18.879999999999999</ele>
        <time>2019-05-09T05:52:34Z</time>
      </trkpt>
      <trkpt lat="53.207385996356606" lon="10.405274983495474">
        <ele>18.399999999999999</ele>
        <time>2019-05-09T05:52:36Z</time>
      </trkpt>
      <trkpt lat="53.20728600025177" lon="10.405290992930532">
        <ele>18.399999999999999</ele>
        <time>2019-05-09T05:52:37Z</time>
      </trkpt>
      <trkpt lat="53.207171000540257" lon="10.405310019850731">
        <ele>18.399999999999999</ele>
        <time>2019-05-09T05:52:38Z</time>
      </trkpt>
      <trkpt lat="53.205963000655174" lon="10.405295016244054">
        <ele>21.77</ele>
        <time>2019-05-09T05:52:46Z</time>
      </trkpt>
      <trkpt lat="53.203809019178152" lon="10.405218992382288">
        <ele>27.530000000000001</ele>
        <time>2019-05-09T05:52:58Z</time>
      </trkpt>
      <trkpt lat="53.201489998027682" lon="10.405189990997314">
        <ele>25.609999999999999</ele>
        <time>2019-05-09T05:53:10Z</time>
      </trkpt>
      <trkpt lat="53.199449004605412" lon="10.405126037076116">
        <ele>25.129999999999999</ele>
        <time>2019-05-09T05:53:18Z</time>
      </trkpt>
      <trkpt lat="53.196595972403884" lon="10.405107010155916">
        <ele>27.530000000000001</ele>
        <time>2019-05-09T05:53:29Z</time>
      </trkpt>
      <trkpt lat="53.192601995542645" lon="10.405092006549239">
        <ele>29.940000000000001</ele>
        <time>2019-05-09T05:53:44Z</time>
      </trkpt>
      <trkpt lat="53.190476009622216" lon="10.405131988227367">
        <ele>23.690000000000001</ele>
        <time>2019-05-09T05:53:52Z</time>
      </trkpt>
      <trkpt lat="53.186820996925235" lon="10.405214969068766">
        <ele>25.609999999999999</ele>
        <time>2019-05-09T05:54:06Z</time>
      </trkpt>
      <trkpt lat="53.185258023440838" lon="10.405256962403655">
        <ele>26.09</ele>
        <time>2019-05-09T05:54:13Z</time>
      </trkpt>
      <trkpt lat="53.183118961751461" lon="10.405400963500142">
        <ele>24.649999999999999</ele>
        <time>2019-05-09T05:54:24Z</time>
      </trkpt>
      <trkpt lat="53.181758997961879" lon="10.406336970627308">
        <ele>19.84</ele>
        <time>2019-05-09T05:54:34Z</time>
      </trkpt>
      <trkpt lat="53.181106969714165" lon="10.407251017168164">
        <ele>15.52</ele>
        <time>2019-05-09T05:54:41Z</time>
      </trkpt>
      <trkpt lat="53.181035974994302" lon="10.407366016879678">
        <ele>14.56</ele>
        <time>2019-05-09T05:54:42Z</time>
      </trkpt>
      <trkpt lat="53.180490983650088" lon="10.408257013186812">
        <ele>10.710000000000001</ele>
        <time>2019-05-09T05:54:50Z</time>
      </trkpt>
      <trkpt lat="53.180431975051761" lon="10.408362038433552">
        <ele>10.710000000000001</ele>
        <time>2019-05-09T05:54:51Z</time>
      </trkpt>
      <trkpt lat="53.180382018908858" lon="10.408449964597821">
        <ele>10.23</ele>
        <time>2019-05-09T05:54:52Z</time>
      </trkpt>
      <trkpt lat="53.180305995047092" lon="10.408582985401154">
        <ele>10.23</ele>
        <time>2019-05-09T05:54:54Z</time>
      </trkpt>
      <trkpt lat="53.180275987833738" lon="10.408637970685959">
        <ele>9.75</ele>
        <time>2019-05-09T05:54:55Z</time>
      </trkpt>
      <trkpt lat="53.18021496757865" lon="10.40874601341784">
        <ele>9.27</ele>
        <time>2019-05-09T05:54:59Z</time>
      </trkpt>
      <trkpt lat="53.18021496757865" lon="10.40874601341784">
        <ele>8.789999999999999</ele>
        <time>2019-05-09T05:55:11Z</time>
      </trkpt>
      <trkpt lat="53.180223014205694" lon="10.408731009811163">
        <ele>9.27</ele>
        <time>2019-05-09T05:55:12Z</time>
      </trkpt>
      <trkpt lat="53.180223014205694" lon="10.408731009811163">
        <ele>9.75</ele>
        <time>2019-05-09T05:55:13Z</time>
      </trkpt>
      <trkpt lat="53.180248998105526" lon="10.408684993162751">
        <ele>9.75</ele>
        <time>2019-05-09T05:55:14Z</time>
      </trkpt>
      <trkpt lat="53.180312030017376" lon="10.408573010936379">
        <ele>9.75</ele>
        <time>2019-05-09T05:55:15Z</time>
      </trkpt>
      <trkpt lat="53.180389981716871" lon="10.408434960991144">
        <ele>9.75</ele>
        <time>2019-05-09T05:55:16Z</time>
      </trkpt>
      <trkpt lat="53.180474974215031" lon="10.408285008743405">
        <ele>10.23</ele>
        <time>2019-05-09T05:55:17Z</time>
      </trkpt>
      <trkpt lat="53.181240996345878" lon="10.407037027180195">
        <ele>12.15</ele>
        <time>2019-05-09T05:55:25Z</time>
      </trkpt>
      <trkpt lat="53.181320959702134" lon="10.406910041347146">
        <ele>12.630000000000001</ele>
        <time>2019-05-09T05:55:26Z</time>
      </trkpt>
      <trkpt lat="53.181707030162215" lon="10.406373012810946">
        <ele>15.039999999999999</ele>
        <time>2019-05-09T05:55:33Z</time>
      </trkpt>
      <trkpt lat="53.181751035153866" lon="10.406343005597591">
        <ele>16</ele>
        <time>2019-05-09T05:55:41Z</time>
      </trkpt>
      <trkpt lat="53.181763021275401" lon="10.406334958970547">
        <ele>16</ele>
        <time>2019-05-09T05:56:01Z</time>
      </trkpt>
      <trkpt lat="53.181805014610291" lon="10.406306041404605">
        <ele>17.440000000000001</ele>
        <time>2019-05-09T05:56:02Z</time>
      </trkpt>
      <trkpt lat="53.181846002116799" lon="10.40627796202898">
        <ele>17.920000000000002</ele>
        <time>2019-05-09T05:56:03Z</time>
      </trkpt>
      <trkpt lat="53.181882966309786" lon="10.406251978129148">
        <ele>18.879999999999999</ele>
        <time>2019-05-09T05:56:04Z</time>
      </trkpt>
      <trkpt lat="53.181913979351521" lon="10.40623102337122">
        <ele>19.84</ele>
        <time>2019-05-09T05:56:05Z</time>
      </trkpt>
      <trkpt lat="53.181973993778229" lon="10.406187018379569">
        <ele>21.77</ele>
        <time>2019-05-09T05:56:09Z</time>
      </trkpt>
      <trkpt lat="53.181983968243003" lon="10.406177965924144">
        <ele>21.77</ele>
        <time>2019-05-09T05:56:10Z</time>
      </trkpt>
      <trkpt lat="53.181961001828313" lon="10.406199004501104">
        <ele>21.77</ele>
        <time>2019-05-09T05:56:11Z</time>
      </trkpt>
      <trkpt lat="53.181883972138166" lon="10.406093979254365">
        <ele>21.289999999999999</ele>
        <time>2019-05-09T05:56:12Z</time>
      </trkpt>
      <trkpt lat="53.181840972974896" lon="10.406036982312799">
        <ele>21.289999999999999</ele>
        <time>2019-05-09T05:56:13Z</time>
      </trkpt>
      <trkpt lat="53.181787999346852" lon="10.405964981764555">
        <ele>20.809999999999999</ele>
        <time>2019-05-09T05:56:14Z</time>
      </trkpt>
      <trkpt lat="53.181726979091763" lon="10.405882000923157">
        <ele>20.32</ele>
        <time>2019-05-09T05:56:15Z</time>
      </trkpt>
      <trkpt lat="53.181663025170565" lon="10.405794996768236">
        <ele>19.84</ele>
        <time>2019-05-09T05:56:16Z</time>
      </trkpt>
      <trkpt lat="53.181593958288431" lon="10.405702963471413">
        <ele>19.359999999999999</ele>
        <time>2019-05-09T05:56:17Z</time>
      </trkpt>
      <trkpt lat="53.181532016023993" lon="10.405618976801634">
        <ele>18.879999999999999</ele>
        <time>2019-05-09T05:56:18Z</time>
      </trkpt>
      <trkpt lat="53.181440988555551" lon="10.405558962374926">
        <ele>18.399999999999999</ele>
        <time>2019-05-09T05:56:19Z</time>
      </trkpt>
      <trkpt lat="53.181338980793953" lon="10.405490985140204">
        <ele>17.440000000000001</ele>
        <time>2019-05-09T05:56:20Z</time>
      </trkpt>
      <trkpt lat="53.181243008002639" lon="10.405482016503811">
        <ele>16.960000000000001</ele>
        <time>2019-05-09T05:56:21Z</time>
      </trkpt>
      <trkpt lat="53.181122979149222" lon="10.405471036210656">
        <ele>16</ele>
        <time>2019-05-09T05:56:22Z</time>
      </trkpt>
      <trkpt lat="53.179867034777999" lon="10.405410015955567">
        <ele>11.67</ele>
        <time>2019-05-09T05:56:33Z</time>
      </trkpt>
      <trkpt lat="53.179447017610073" lon="10.405328962951899">
        <ele>10.710000000000001</ele>
        <time>2019-05-09T05:56:38Z</time>
      </trkpt>
      <trkpt lat="53.179379962384701" lon="10.405312031507492">
        <ele>10.23</ele>
        <time>2019-05-09T05:56:39Z</time>
      </trkpt>
      <trkpt lat="53.17931299097836" lon="10.405283030122519">
        <ele>10.23</ele>
        <time>2019-05-09T05:56:40Z</time>
      </trkpt>
      <trkpt lat="53.179266974329948" lon="10.405210023745894">
        <ele>9.75</ele>
        <time>2019-05-09T05:56:41Z</time>
      </trkpt>
      <trkpt lat="53.179218024015427" lon="10.405131988227367">
        <ele>9.75</ele>
        <time>2019-05-09T05:56:42Z</time>
      </trkpt>
      <trkpt lat="53.179172007367015" lon="10.405056970193982">
        <ele>9.27</ele>
        <time>2019-05-09T05:56:43Z</time>
      </trkpt>
      <trkpt lat="53.179106963798404" lon="10.404954040423036">
        <ele>8.789999999999999</ele>
        <time>2019-05-09T05:56:44Z</time>
      </trkpt>
      <trkpt lat="53.179081985726953" lon="10.404867958277464">
        <ele>8.789999999999999</ele>
        <time>2019-05-09T05:56:45Z</time>
      </trkpt>
      <trkpt lat="53.179028006270528" lon="10.404684981331229">
        <ele>8.310000000000001</ele>
        <time>2019-05-09T05:56:47Z</time>
      </trkpt>
      <trkpt lat="53.179000010713935" lon="10.404586996883154">
        <ele>8.789999999999999</ele>
        <time>2019-05-09T05:56:48Z</time>
      </trkpt>
      <trkpt lat="53.178931027650833" lon="10.404270999133587">
        <ele>9.27</ele>
        <time>2019-05-09T05:56:51Z</time>
      </trkpt>
      <trkpt lat="53.178741009905934" lon="10.403394000604749">
        <ele>13.119999999999999</ele>
        <time>2019-05-09T05:56:59Z</time>
      </trkpt>
      <trkpt lat="53.178713014349341" lon="10.403277995064855">
        <ele>13.119999999999999</ele>
        <time>2019-05-09T05:57:00Z</time>
      </trkpt>
      <trkpt lat="53.17864797078073" lon="10.403185961768031">
        <ele>13.119999999999999</ele>
        <time>2019-05-09T05:57:01Z</time>
      </trkpt>
      <trkpt lat="53.17855903878808" lon="10.403153020888567">
        <ele>12.630000000000001</ele>
        <time>2019-05-09T05:57:02Z</time>
      </trkpt>
      <trkpt lat="53.178465999662876" lon="10.403156038373709">
        <ele>12.630000000000001</ele>
        <time>2019-05-09T05:57:03Z</time>
      </trkpt>
      <trkpt lat="53.178364997729659" lon="10.403159977868199">
        <ele>12.15</ele>
        <time>2019-05-09T05:57:04Z</time>
      </trkpt>
      <trkpt lat="53.178257960826159" lon="10.403162995353341">
        <ele>11.67</ele>
        <time>2019-05-09T05:57:05Z</time>
      </trkpt>
      <trkpt lat="53.177218018099666" lon="10.403265003114939">
        <ele>9.27</ele>
        <time>2019-05-09T05:57:13Z</time>
      </trkpt>
      <trkpt lat="53.176674032583833" lon="10.403488967567682">
        <ele>8.789999999999999</ele>
        <time>2019-05-09T05:57:17Z</time>
      </trkpt>
      <trkpt lat="53.175481036305428" lon="10.404031025245786">
        <ele>9.27</ele>
        <time>2019-05-09T05:57:25Z</time>
      </trkpt>
      <trkpt lat="53.175307027995586" lon="10.404038988053799">
        <ele>9.75</ele>
        <time>2019-05-09T05:57:26Z</time>
      </trkpt>
      <trkpt lat="53.175141988322139" lon="10.404047034680843">
        <ele>9.75</ele>
        <time>2019-05-09T05:57:27Z</time>
      </trkpt>
      <trkpt lat="53.174978038296103" lon="10.404044017195702">
        <ele>10.710000000000001</ele>
        <time>2019-05-09T05:57:28Z</time>
      </trkpt>
      <trkpt lat="53.174808975309134" lon="10.40399800054729">
        <ele>11.19</ele>
        <time>2019-05-09T05:57:29Z</time>
      </trkpt>
      <trkpt lat="53.174639996141195" lon="10.403950978070498">
        <ele>11.67</ele>
        <time>2019-05-09T05:57:30Z</time>
      </trkpt>
      <trkpt lat="53.172245034947991" lon="10.403153020888567">
        <ele>18.399999999999999</ele>
        <time>2019-05-09T05:57:44Z</time>
      </trkpt>
      <trkpt lat="53.171075005084276" lon="10.40275395847857">
        <ele>21.289999999999999</ele>
        <time>2019-05-09T05:57:52Z</time>
      </trkpt>
      <trkpt lat="53.170444015413523" lon="10.402529994025826">
        <ele>22.73</ele>
        <time>2019-05-09T05:57:57Z</time>
      </trkpt>
      <trkpt lat="53.170357011258602" lon="10.402498980984092">
        <ele>23.210000000000001</ele>
        <time>2019-05-09T05:57:58Z</time>
      </trkpt>
      <trkpt lat="53.169372975826263" lon="10.402219025418162">
        <ele>24.170000000000002</ele>
        <time>2019-05-09T05:58:08Z</time>
      </trkpt>
      <trkpt lat="53.169241966679692" lon="10.402263030409813">
        <ele>24.170000000000002</ele>
        <time>2019-05-09T05:58:09Z</time>
      </trkpt>
      <trkpt lat="53.169117998331785" lon="10.402334025129676">
        <ele>24.649999999999999</ele>
        <time>2019-05-09T05:58:10Z</time>
      </trkpt>
      <trkpt lat="53.169012973085046" lon="10.402462016791105">
        <ele>24.649999999999999</ele>
        <time>2019-05-09T05:58:11Z</time>
      </trkpt>
      <trkpt lat="53.168923035264015" lon="10.402615992352366">
        <ele>24.649999999999999</ele>
        <time>2019-05-09T05:58:12Z</time>
      </trkpt>
      <trkpt lat="53.168846005573869" lon="10.402802992612123">
        <ele>24.649999999999999</ele>
        <time>2019-05-09T05:58:13Z</time>
      </trkpt>
      <trkpt lat="53.168765036389232" lon="10.403000973165035">
        <ele>24.649999999999999</ele>
        <time>2019-05-09T05:58:14Z</time>
      </trkpt>
      <trkpt lat="53.168703010305762" lon="10.403200965374708">
        <ele>25.129999999999999</ele>
        <time>2019-05-09T05:58:15Z</time>
      </trkpt>
      <trkpt lat="53.168640984222293" lon="10.403401963412762">
        <ele>25.609999999999999</ele>
        <time>2019-05-09T05:58:16Z</time>
      </trkpt>
      <trkpt lat="53.168572001159191" lon="10.403624000027776">
        <ele>25.609999999999999</ele>
        <time>2019-05-09T05:58:17Z</time>
      </trkpt>
      <trkpt lat="53.168480973690748" lon="10.403755009174347">
        <ele>25.609999999999999</ele>
        <time>2019-05-09T05:58:18Z</time>
      </trkpt>
      <trkpt lat="53.168367985635996" lon="10.403908984735608">
        <ele>25.609999999999999</ele>
        <time>2019-05-09T05:58:19Z</time>
      </trkpt>
      <trkpt lat="53.168237982317805" lon="10.403995988890529">
        <ele>26.09</ele>
        <time>2019-05-09T05:58:20Z</time>
      </trkpt>
      <trkpt lat="53.168093981221318" lon="10.404076036065817">
        <ele>26.09</ele>
        <time>2019-05-09T05:58:21Z</time>
      </trkpt>
      <trkpt lat="53.16794503480196" lon="10.404082993045449">
        <ele>26.09</ele>
        <time>2019-05-09T05:58:22Z</time>
      </trkpt>
      <trkpt lat="53.167785024270415" lon="10.404091961681843">
        <ele>26.09</ele>
        <time>2019-05-09T05:58:23Z</time>
      </trkpt>
      <trkpt lat="53.167617972940207" lon="10.404101014137268">
        <ele>26.09</ele>
        <time>2019-05-09T05:58:24Z</time>
      </trkpt>
      <trkpt lat="53.166015017777681" lon="10.404090033844113">
        <ele>25.609999999999999</ele>
        <time>2019-05-09T05:58:32Z</time>
      </trkpt>
      <trkpt lat="53.164121964946389" lon="10.404074024409056">
        <ele>26.57</ele>
        <time>2019-05-09T05:58:41Z</time>
      </trkpt>
      <trkpt lat="53.1626380328089" lon="10.404444001615047">
        <ele>28.98</ele>
        <time>2019-05-09T05:58:48Z</time>
      </trkpt>
      <trkpt lat="53.160903984680772" lon="10.405468018725514">
        <ele>32.340000000000003</ele>
        <time>2019-05-09T05:58:56Z</time>
      </trkpt>
      <trkpt lat="53.160236030817032" lon="10.405712015926838">
        <ele>33.780000000000001</ele>
        <time>2019-05-09T05:58:59Z</time>
      </trkpt>
      <trkpt lat="53.158420007675886" lon="10.405819974839687">
        <ele>38.109999999999999</ele>
        <time>2019-05-09T05:59:07Z</time>
      </trkpt>
      <trkpt lat="53.156321011483669" lon="10.405989959836006">
        <ele>45.32</ele>
        <time>2019-05-09T05:59:16Z</time>
      </trkpt>
      <trkpt lat="53.154619988054037" lon="10.406409977003932">
        <ele>47.240000000000002</ele>
        <time>2019-05-09T05:59:23Z</time>
      </trkpt>
      <trkpt lat="53.152678990736604" lon="10.407643038779497">
        <ele>47.719999999999999</ele>
        <time>2019-05-09T05:59:31Z</time>
      </trkpt>
      <trkpt lat="53.150584017857909" lon="10.408977018669248">
        <ele>50.130000000000003</ele>
        <time>2019-05-09T05:59:40Z</time>
      </trkpt>
      <trkpt lat="53.149639964103699" lon="10.409576995298266">
        <ele>50.609999999999999</ele>
        <time>2019-05-09T05:59:44Z</time>
      </trkpt>
      <trkpt lat="53.149396972730756" lon="10.409705992788076">
        <ele>50.609999999999999</ele>
        <time>2019-05-09T05:59:45Z</time>
      </trkpt>
      <trkpt lat="53.148886011913419" lon="10.409760978072882">
        <ele>50.609999999999999</ele>
        <time>2019-05-09T05:59:47Z</time>
      </trkpt>
      <trkpt lat="53.148161983117461" lon="10.409642960876226">
        <ele>51.090000000000003</ele>
        <time>2019-05-09T05:59:50Z</time>
      </trkpt>
      <trkpt lat="53.146450985223055" lon="10.409124037250876">
        <ele>54.93</ele>
        <time>2019-05-09T05:59:57Z</time>
      </trkpt>
      <trkpt lat="53.144792038947344" lon="10.408406965434551">
        <ele>57.82</ele>
        <time>2019-05-09T06:00:05Z</time>
      </trkpt>
      <trkpt lat="53.144429018720984" lon="10.408059032633901">
        <ele>57.340000000000003</ele>
        <time>2019-05-09T06:00:07Z</time>
      </trkpt>
      <trkpt lat="53.143143989145756" lon="10.40674701333046">
        <ele>53.969999999999999</ele>
        <time>2019-05-09T06:00:14Z</time>
      </trkpt>
      <trkpt lat="53.141716970130801" lon="10.405572038143873">
        <ele>46.280000000000001</ele>
        <time>2019-05-09T06:00:21Z</time>
      </trkpt>
      <trkpt lat="53.140161037445068" lon="10.404284996911883">
        <ele>37.149999999999999</ele>
        <time>2019-05-09T06:00:28Z</time>
      </trkpt>
      <trkpt lat="53.137689968571067" lon="10.402754964306951">
        <ele>32.82</ele>
        <time>2019-05-09T06:00:39Z</time>
      </trkpt>
      <trkpt lat="53.137001981958747" lon="10.402440978214145">
        <ele>31.859999999999999</ele>
        <time>2019-05-09T06:00:43Z</time>
      </trkpt>
      <trkpt lat="53.136847000569105" lon="10.402410971000791">
        <ele>31.859999999999999</ele>
        <time>2019-05-09T06:00:44Z</time>
      </trkpt>
      <trkpt lat="53.136700987815857" lon="10.402462016791105">
        <ele>31.859999999999999</ele>
        <time>2019-05-09T06:00:45Z</time>
      </trkpt>
      <trkpt lat="53.136554975062609" lon="10.4025589954108">
        <ele>31.379999999999999</ele>
        <time>2019-05-09T06:00:46Z</time>
      </trkpt>
      <trkpt lat="53.136399993672967" lon="10.402662009000778">
        <ele>31.379999999999999</ele>
        <time>2019-05-09T06:00:47Z</time>
      </trkpt>
      <trkpt lat="53.13621299341321" lon="10.402786983177066">
        <ele>31.379999999999999</ele>
        <time>2019-05-09T06:00:48Z</time>
      </trkpt>
      <trkpt lat="53.136079972609878" lon="10.402927966788411">
        <ele>31.379999999999999</ele>
        <time>2019-05-09T06:00:49Z</time>
      </trkpt>
      <trkpt lat="53.134749010205269" lon="10.403871014714241">
        <ele>30.899999999999999</ele>
        <time>2019-05-09T06:00:57Z</time>
      </trkpt>
      <trkpt lat="53.133852984756231" lon="10.40432003326714">
        <ele>31.859999999999999</ele>
        <time>2019-05-09T06:01:02Z</time>
      </trkpt>
      <trkpt lat="53.133679982274771" lon="10.40445196442306">
        <ele>32.340000000000003</ele>
        <time>2019-05-09T06:01:03Z</time>
      </trkpt>
      <trkpt lat="53.132765013724566" lon="10.405199965462089">
        <ele>34.259999999999998</ele>
        <time>2019-05-09T06:01:08Z</time>
      </trkpt>
      <trkpt lat="53.132597040385008" lon="10.40528797544539">
        <ele>34.259999999999998</ele>
        <time>2019-05-09T06:01:09Z</time>
      </trkpt>
      <trkpt lat="53.132414985448122" lon="10.405356958508492">
        <ele>34.740000000000002</ele>
        <time>2019-05-09T06:01:10Z</time>
      </trkpt>
      <trkpt lat="53.1322399713099" lon="10.405336003750563">
        <ele>34.740000000000002</ele>
        <time>2019-05-09T06:01:11Z</time>
      </trkpt>
      <trkpt lat="53.132050959393382" lon="10.405299961566925">
        <ele>34.740000000000002</ele>
        <time>2019-05-09T06:01:12Z</time>
      </trkpt>
      <trkpt lat="53.131861025467515" lon="10.405216980725527">
        <ele>35.229999999999997</ele>
        <time>2019-05-09T06:01:13Z</time>
      </trkpt>
      <trkpt lat="53.131662039086223" lon="10.405128970742226">
        <ele>35.710000000000001</ele>
        <time>2019-05-09T06:01:14Z</time>
      </trkpt>
      <trkpt lat="53.129569999873638" lon="10.404211990535259">
        <ele>40.030000000000001</ele>
        <time>2019-05-09T06:01:23Z</time>
      </trkpt>
      <trkpt lat="53.127047969028354" lon="10.403126031160355">
        <ele>43.880000000000003</ele>
        <time>2019-05-09T06:01:33Z</time>
      </trkpt>
      <trkpt lat="53.124732971191406" lon="10.40232103317976">
        <ele>38.109999999999999</ele>
        <time>2019-05-09T06:01:42Z</time>
      </trkpt>
      <trkpt lat="53.122232984751463" lon="10.401733964681625">
        <ele>38.590000000000003</ele>
        <time>2019-05-09T06:01:52Z</time>
      </trkpt>
      <trkpt lat="53.119987975805998" lon="10.401391983032227">
        <ele>41.950000000000003</ele>
        <time>2019-05-09T06:02:01Z</time>
      </trkpt>
      <trkpt lat="53.118345960974693" lon="10.400854032486677">
        <ele>46.280000000000001</ele>
        <time>2019-05-09T06:02:08Z</time>
      </trkpt>
      <trkpt lat="53.117913035675883" lon="10.400511967018247">
        <ele>47.719999999999999</ele>
        <time>2019-05-09T06:02:10Z</time>
      </trkpt>
      <trkpt lat="53.115958040580153" lon="10.398967014625669">
        <ele>51.57</ele>
        <time>2019-05-09T06:02:19Z</time>
      </trkpt>
      <trkpt lat="53.114687008783221" lon="10.397962024435401">
        <ele>54.93</ele>
        <time>2019-05-09T06:02:26Z</time>
      </trkpt>
      <trkpt lat="53.114295993000269" lon="10.397652983665466">
        <ele>56.859999999999999</ele>
        <time>2019-05-09T06:02:31Z</time>
      </trkpt>
      <trkpt lat="53.114024000242352" lon="10.397426001727581">
        <ele>58.299999999999997</ele>
        <time>2019-05-09T06:02:36Z</time>
      </trkpt>
      <trkpt lat="53.113977983593941" lon="10.397383002564311">
        <ele>58.780000000000001</ele>
        <time>2019-05-09T06:02:37Z</time>
      </trkpt>
      <trkpt lat="53.113931966945529" lon="10.397341009229422">
        <ele>58.780000000000001</ele>
        <time>2019-05-09T06:02:38Z</time>
      </trkpt>
      <trkpt lat="53.113887961953878" lon="10.397300021722913">
        <ele>58.780000000000001</ele>
        <time>2019-05-09T06:02:39Z</time>
      </trkpt>
      <trkpt lat="53.11384798027575" lon="10.397262973710895">
        <ele>59.259999999999998</ele>
        <time>2019-05-09T06:02:40Z</time>
      </trkpt>
      <trkpt lat="53.113805986940861" lon="10.397222992032766">
        <ele>59.259999999999998</ele>
        <time>2019-05-09T06:02:41Z</time>
      </trkpt>
      <trkpt lat="53.113759970292449" lon="10.397179992869496">
        <ele>59.259999999999998</ele>
        <time>2019-05-09T06:02:42Z</time>
      </trkpt>
      <trkpt lat="53.113657962530851" lon="10.397086031734943">
        <ele>59.740000000000002</ele>
        <time>2019-05-09T06:02:44Z</time>
      </trkpt>
      <trkpt lat="53.113612029701471" lon="10.397043032571673">
        <ele>59.740000000000002</ele>
        <time>2019-05-09T06:02:45Z</time>
      </trkpt>
      <trkpt lat="53.11356601305306" lon="10.397000033408403">
        <ele>60.219999999999999</ele>
        <time>2019-05-09T06:02:46Z</time>
      </trkpt>
      <trkpt lat="53.113517984747887" lon="10.396955022588372">
        <ele>60.219999999999999</ele>
        <time>2019-05-09T06:02:47Z</time>
      </trkpt>
      <trkpt lat="53.113464005291462" lon="10.396900037303567">
        <ele>60.700000000000003</ele>
        <time>2019-05-09T06:02:48Z</time>
      </trkpt>
      <trkpt lat="53.113406002521515" lon="10.396835999563336">
        <ele>60.700000000000003</ele>
        <time>2019-05-09T06:02:49Z</time>
      </trkpt>
      <trkpt lat="53.113342970609665" lon="10.396763999015093">
        <ele>60.700000000000003</ele>
        <time>2019-05-09T06:02:50Z</time>
      </trkpt>
      <trkpt lat="53.113149013370275" lon="10.396546991541982">
        <ele>61.659999999999997</ele>
        <time>2019-05-09T06:02:52Z</time>
      </trkpt>
      <trkpt lat="53.112218035385013" lon="10.395563961938024">
        <ele>64.069999999999993</ele>
        <time>2019-05-09T06:02:58Z</time>
      </trkpt>
      <trkpt lat="53.110998971387744" lon="10.39505903609097">
        <ele>63.100000000000001</ele>
        <time>2019-05-09T06:03:04Z</time>
      </trkpt>
      <trkpt lat="53.110784981399775" lon="10.395019976422191">
        <ele>62.619999999999997</ele>
        <time>2019-05-09T06:03:05Z</time>
      </trkpt>
      <trkpt lat="53.10897096991539" lon="10.394742032513022">
        <ele>64.069999999999993</ele>
        <time>2019-05-09T06:03:13Z</time>
      </trkpt>
      <trkpt lat="53.107248991727829" lon="10.394604988396168">
        <ele>73.200000000000003</ele>
        <time>2019-05-09T06:03:21Z</time>
      </trkpt>
      <trkpt lat="53.105995981022716" lon="10.394505998119712">
        <ele>82.329999999999998</ele>
        <time>2019-05-09T06:03:27Z</time>
      </trkpt>
      <trkpt lat="53.105798000469804" lon="10.394490994513035">
        <ele>83.769999999999996</ele>
        <time>2019-05-09T06:03:28Z</time>
      </trkpt>
      <trkpt lat="53.104101000353694" lon="10.394878992810845">
        <ele>97.230000000000004</ele>
        <time>2019-05-09T06:03:36Z</time>
      </trkpt>
      <trkpt lat="53.102915966883302" lon="10.39579002186656">
        <ele>104.44</ele>
        <time>2019-05-09T06:03:42Z</time>
      </trkpt>
      <trkpt lat="53.101035989820957" lon="10.397204970940948">
        <ele>107.81</ele>
        <time>2019-05-09T06:03:51Z</time>
      </trkpt>
      <trkpt lat="53.098772959783673" lon="10.398451024666429">
        <ele>103</ele>
        <time>2019-05-09T06:04:01Z</time>
      </trkpt>
      <trkpt lat="53.095415001735091" lon="10.400154981762171">
        <ele>90.019999999999996</ele>
        <time>2019-05-09T06:04:16Z</time>
      </trkpt>
      <trkpt lat="53.093712972477078" lon="10.400953022763133">
        <ele>85.209999999999994</ele>
        <time>2019-05-09T06:04:24Z</time>
      </trkpt>
      <trkpt lat="53.092698007822037" lon="10.401804959401488">
        <ele>83.769999999999996</ele>
        <time>2019-05-09T06:04:31Z</time>
      </trkpt>
      <trkpt lat="53.091638032346964" lon="10.402075024321675">
        <ele>83.290000000000006</ele>
        <time>2019-05-09T06:04:39Z</time>
      </trkpt>
      <trkpt lat="53.090566992759705" lon="10.402569975703955">
        <ele>81.849999999999994</ele>
        <time>2019-05-09T06:04:48Z</time>
      </trkpt>
      <trkpt lat="53.090098025277257" lon="10.402875998988748">
        <ele>82.329999999999998</ele>
        <time>2019-05-09T06:04:52Z</time>
      </trkpt>
      <trkpt lat="53.089993000030518" lon="10.403024023398757">
        <ele>82.329999999999998</ele>
        <time>2019-05-09T06:04:53Z</time>
      </trkpt>
      <trkpt lat="53.089882023632526" lon="10.403179004788399">
        <ele>81.849999999999994</ele>
        <time>2019-05-09T06:04:54Z</time>
      </trkpt>
      <trkpt lat="53.089626040309668" lon="10.403532972559333">
        <ele>81.370000000000005</ele>
        <time>2019-05-09T06:04:56Z</time>
      </trkpt>
      <trkpt lat="53.089482961222529" lon="10.403718966990709">
        <ele>81.370000000000005</ele>
        <time>2019-05-09T06:04:57Z</time>
      </trkpt>
      <trkpt lat="53.089312976226211" lon="10.403857016935945">
        <ele>81.370000000000005</ele>
        <time>2019-05-09T06:04:58Z</time>
      </trkpt>
      <trkpt lat="53.089135028421879" lon="10.403985008597374">
        <ele>81.849999999999994</ele>
        <time>2019-05-09T06:04:59Z</time>
      </trkpt>
      <trkpt lat="53.088944004848599" lon="10.404102019965649">
        <ele>81.849999999999994</ele>
        <time>2019-05-09T06:05:00Z</time>
      </trkpt>
      <trkpt lat="53.086750041693449" lon="10.40533198043704">
        <ele>85.689999999999998</ele>
        <time>2019-05-09T06:05:10Z</time>
      </trkpt>
      <trkpt lat="53.086054008454084" lon="10.405615037307143">
        <ele>86.659999999999997</ele>
        <time>2019-05-09T06:05:13Z</time>
      </trkpt>
      <trkpt lat="53.084113011136651" lon="10.405684020370245">
        <ele>87.140000000000001</ele>
        <time>2019-05-09T06:05:21Z</time>
      </trkpt>
      <trkpt lat="53.081598021090031" lon="10.405769012868404">
        <ele>86.180000000000007</ele>
        <time>2019-05-09T06:05:31Z</time>
      </trkpt>
      <trkpt lat="53.0801369715482" lon="10.405543958768249">
        <ele>83.769999999999996</ele>
        <time>2019-05-09T06:05:37Z</time>
      </trkpt>
      <trkpt lat="53.079903032630682" lon="10.405508000403643">
        <ele>83.769999999999996</ele>
        <time>2019-05-09T06:05:38Z</time>
      </trkpt>
      <trkpt lat="53.07751796208322" lon="10.405135005712509">
        <ele>84.25</ele>
        <time>2019-05-09T06:05:48Z</time>
      </trkpt>
      <trkpt lat="53.07605498470366" lon="10.404907017946243">
        <ele>83.290000000000006</ele>
        <time>2019-05-09T06:05:54Z</time>
      </trkpt>
      <trkpt lat="53.074051039293408" lon="10.404594959691167">
        <ele>81.370000000000005</ele>
        <time>2019-05-09T06:06:02Z</time>
      </trkpt>
      <trkpt lat="53.071621963754296" lon="10.403945026919246">
        <ele>80.409999999999997</ele>
        <time>2019-05-09T06:06:12Z</time>
      </trkpt>
      <trkpt lat="53.069838965311646" lon="10.403472958132625">
        <ele>82.329999999999998</ele>
        <time>2019-05-09T06:06:20Z</time>
      </trkpt>
      <trkpt lat="53.068456035107374" lon="10.403472958132625">
        <ele>81.370000000000005</ele>
        <time>2019-05-09T06:06:26Z</time>
      </trkpt>
      <trkpt lat="53.066401965916157" lon="10.403610002249479">
        <ele>74.640000000000001</ele>
        <time>2019-05-09T06:06:34Z</time>
      </trkpt>
      <trkpt lat="53.064718041568995" lon="10.404155999422073">
        <ele>65.989999999999995</ele>
        <time>2019-05-09T06:06:41Z</time>
      </trkpt>
      <trkpt lat="53.062790958210826" lon="10.405256962403655">
        <ele>60.700000000000003</ele>
        <time>2019-05-09T06:06:49Z</time>
      </trkpt>
      <trkpt lat="53.060847027227283" lon="10.405946960672736">
        <ele>63.100000000000001</ele>
        <time>2019-05-09T06:06:57Z</time>
      </trkpt>
      <trkpt lat="53.059416990727186" lon="10.406237980350852">
        <ele>67.909999999999997</ele>
        <time>2019-05-09T06:07:04Z</time>
      </trkpt>
      <trkpt lat="53.058202033862472" lon="10.40651198476553">
        <ele>65.510000000000005</ele>
        <time>2019-05-09T06:07:13Z</time>
      </trkpt>
      <trkpt lat="53.056906023994088" lon="10.406692028045654">
        <ele>57.82</ele>
        <time>2019-05-09T06:07:23Z</time>
      </trkpt>
      <trkpt lat="53.055775975808501" lon="10.406847009435296">
        <ele>54.93</ele>
        <time>2019-05-09T06:07:30Z</time>
      </trkpt>
      <trkpt lat="53.053929023444653" lon="10.407092012465">
        <ele>54.450000000000003</ele>
        <time>2019-05-09T06:07:38Z</time>
      </trkpt>
      <trkpt lat="53.052623961120844" lon="10.407730964943767">
        <ele>55.890000000000001</ele>
        <time>2019-05-09T06:07:44Z</time>
      </trkpt>
      <trkpt lat="53.050949005410075" lon="10.409255968406796">
        <ele>53.969999999999999</ele>
        <time>2019-05-09T06:07:52Z</time>
      </trkpt>
      <trkpt lat="53.048727968707681" lon="10.411322023719549">
        <ele>54.93</ele>
        <time>2019-05-09T06:08:03Z</time>
      </trkpt>
      <trkpt lat="53.046636013314128" lon="10.413284981623292">
        <ele>55.890000000000001</ele>
        <time>2019-05-09T06:08:14Z</time>
      </trkpt>
      <trkpt lat="53.044894002377987" lon="10.414921967312694">
        <ele>52.530000000000001</ele>
        <time>2019-05-09T06:08:23Z</time>
      </trkpt>
      <trkpt lat="53.043125001713634" lon="10.416615027934313">
        <ele>50.609999999999999</ele>
        <time>2019-05-09T06:08:32Z</time>
      </trkpt>
      <trkpt lat="53.042130991816521" lon="10.417332015931606">
        <ele>50.609999999999999</ele>
        <time>2019-05-09T06:08:37Z</time>
      </trkpt>
      <trkpt lat="53.041920019313693" lon="10.41740502230823">
        <ele>51.090000000000003</ele>
        <time>2019-05-09T06:08:38Z</time>
      </trkpt>
      <trkpt lat="53.041713992133737" lon="10.417475011199713">
        <ele>51.090000000000003</ele>
        <time>2019-05-09T06:08:39Z</time>
      </trkpt>
      <trkpt lat="53.040203992277384" lon="10.417774999514222">
        <ele>51.090000000000003</ele>
        <time>2019-05-09T06:08:46Z</time>
      </trkpt>
      <trkpt lat="53.038141960278153" lon="10.418132990598679">
        <ele>52.049999999999997</ele>
        <time>2019-05-09T06:08:55Z</time>
      </trkpt>
      <trkpt lat="53.037739964202046" lon="10.418300963938236">
        <ele>52.049999999999997</ele>
        <time>2019-05-09T06:08:57Z</time>
      </trkpt>
      <trkpt lat="53.037549024447799" lon="10.418380005285144">
        <ele>52.049999999999997</ele>
        <time>2019-05-09T06:08:58Z</time>
      </trkpt>
      <trkpt lat="53.037344003096223" lon="10.418483018875122">
        <ele>52.530000000000001</ele>
        <time>2019-05-09T06:08:59Z</time>
      </trkpt>
      <trkpt lat="53.03716697730124" lon="10.418648980557919">
        <ele>52.530000000000001</ele>
        <time>2019-05-09T06:09:00Z</time>
      </trkpt>
      <trkpt lat="53.037008978426456" lon="10.418875962495804">
        <ele>52.530000000000001</ele>
        <time>2019-05-09T06:09:01Z</time>
      </trkpt>
      <trkpt lat="53.036899007856846" lon="10.419104034081101">
        <ele>52.530000000000001</ele>
        <time>2019-05-09T06:09:02Z</time>
      </trkpt>
      <trkpt lat="53.03680001758039" lon="10.419308971613646">
        <ele>52.530000000000001</ele>
        <time>2019-05-09T06:09:03Z</time>
      </trkpt>
      <trkpt lat="53.036700021475554" lon="10.419537965208292">
        <ele>52.049999999999997</ele>
        <time>2019-05-09T06:09:04Z</time>
      </trkpt>
      <trkpt lat="53.036613017320633" lon="10.419738963246346">
        <ele>51.57</ele>
        <time>2019-05-09T06:09:05Z</time>
      </trkpt>
      <trkpt lat="53.036292996257544" lon="10.420814026147127">
        <ele>51.57</ele>
        <time>2019-05-09T06:09:10Z</time>
      </trkpt>
      <trkpt lat="53.036201968789101" lon="10.420985016971827">
        <ele>51.57</ele>
        <time>2019-05-09T06:09:11Z</time>
      </trkpt>
      <trkpt lat="53.036111025139689" lon="10.421152990311384">
        <ele>51.57</ele>
        <time>2019-05-09T06:09:12Z</time>
      </trkpt>
      <trkpt lat="53.03600599989295" lon="10.421348037198186">
        <ele>51.57</ele>
        <time>2019-05-09T06:09:13Z</time>
      </trkpt>
      <trkpt lat="53.035910027101636" lon="10.421391958370805">
        <ele>52.049999999999997</ele>
        <time>2019-05-09T06:09:14Z</time>
      </trkpt>
      <trkpt lat="53.035786980763078" lon="10.421449039131403">
        <ele>52.049999999999997</ele>
        <time>2019-05-09T06:09:15Z</time>
      </trkpt>
      <trkpt lat="53.035654965788126" lon="10.421457001939416">
        <ele>52.049999999999997</ele>
        <time>2019-05-09T06:09:16Z</time>
      </trkpt>
      <trkpt lat="53.03553300909698" lon="10.421424983069301">
        <ele>51.57</ele>
        <time>2019-05-09T06:09:17Z</time>
      </trkpt>
      <trkpt lat="53.035396970808506" lon="10.421383995562792">
        <ele>51.57</ele>
        <time>2019-05-09T06:09:18Z</time>
      </trkpt>
      <trkpt lat="53.035284988582134" lon="10.421291040256619">
        <ele>51.57</ele>
        <time>2019-05-09T06:09:19Z</time>
      </trkpt>
      <trkpt lat="53.035169988870621" lon="10.421196995303035">
        <ele>51.57</ele>
        <time>2019-05-09T06:09:20Z</time>
      </trkpt>
      <trkpt lat="53.03493001498282" lon="10.420978982001543">
        <ele>51.090000000000003</ele>
        <time>2019-05-09T06:09:22Z</time>
      </trkpt>
      <trkpt lat="53.033928964287043" lon="10.419944990426302">
        <ele>51.090000000000003</ele>
        <time>2019-05-09T06:09:30Z</time>
      </trkpt>
      <trkpt lat="53.033183980733156" lon="10.419149966910481">
        <ele>49.649999999999999</ele>
        <time>2019-05-09T06:09:36Z</time>
      </trkpt>
      <trkpt lat="53.033068981021643" lon="10.419028010219336">
        <ele>49.649999999999999</ele>
        <time>2019-05-09T06:09:37Z</time>
      </trkpt>
      <trkpt lat="53.032952975481749" lon="10.418904041871428">
        <ele>49.649999999999999</ele>
        <time>2019-05-09T06:09:38Z</time>
      </trkpt>
      <trkpt lat="53.032133979722857" lon="10.418030982837081">
        <ele>49.649999999999999</ele>
        <time>2019-05-09T06:09:45Z</time>
      </trkpt>
      <trkpt lat="53.031195960938931" lon="10.417034961283207">
        <ele>50.609999999999999</ele>
        <time>2019-05-09T06:09:54Z</time>
      </trkpt>
      <trkpt lat="53.031132007017732" lon="10.416967989876866">
        <ele>51.090000000000003</ele>
        <time>2019-05-09T06:09:55Z</time>
      </trkpt>
      <trkpt lat="53.031060006469488" lon="10.416921973228455">
        <ele>51.090000000000003</ele>
        <time>2019-05-09T06:09:56Z</time>
      </trkpt>
      <trkpt lat="53.030951041728258" lon="10.416918033733964">
        <ele>51.57</ele>
        <time>2019-05-09T06:09:57Z</time>
      </trkpt>
      <trkpt lat="53.030890021473169" lon="10.416978970170021">
        <ele>52.049999999999997</ele>
        <time>2019-05-09T06:09:58Z</time>
      </trkpt>
      <trkpt lat="53.030835958197713" lon="10.4171699937433">
        <ele>52.530000000000001</ele>
        <time>2019-05-09T06:09:59Z</time>
      </trkpt>
      <trkpt lat="53.030818020924926" lon="10.417307959869504">
        <ele>53.490000000000002</ele>
        <time>2019-05-09T06:10:00Z</time>
      </trkpt>
      <trkpt lat="53.030798994004726" lon="10.417452966794372">
        <ele>53.490000000000002</ele>
        <time>2019-05-09T06:10:01Z</time>
      </trkpt>
      <trkpt lat="53.03076496347785" lon="10.417553968727589">
        <ele>53.969999999999999</ele>
        <time>2019-05-09T06:10:02Z</time>
      </trkpt>
      <trkpt lat="53.030701009556651" lon="10.417669974267483">
        <ele>53.969999999999999</ele>
        <time>2019-05-09T06:10:03Z</time>
      </trkpt>
      <trkpt lat="53.030629009008408" lon="10.417735017836094">
        <ele>53.969999999999999</ele>
        <time>2019-05-09T06:10:04Z</time>
      </trkpt>
      <trkpt lat="53.03052700124681" lon="10.417800983414054">
        <ele>54.450000000000003</ele>
        <time>2019-05-09T06:10:05Z</time>
      </trkpt>
      <trkpt lat="53.030416024848819" lon="10.417871978133917">
        <ele>54.450000000000003</ele>
        <time>2019-05-09T06:10:06Z</time>
      </trkpt>
      <trkpt lat="53.030297001823783" lon="10.417948001995683">
        <ele>54.450000000000003</ele>
        <time>2019-05-09T06:10:07Z</time>
      </trkpt>
      <trkpt lat="53.030179990455508" lon="10.418023020029068">
        <ele>53.969999999999999</ele>
        <time>2019-05-09T06:10:08Z</time>
      </trkpt>
      <trkpt lat="53.029349008575082" lon="10.418496010825038">
        <ele>53.009999999999998</ele>
        <time>2019-05-09T06:10:16Z</time>
      </trkpt>
      <trkpt lat="53.029271978884935" lon="10.418532975018024">
        <ele>53.009999999999998</ele>
        <time>2019-05-09T06:10:17Z</time>
      </trkpt>
      <trkpt lat="53.029202995821834" lon="10.418567005544901">
        <ele>53.490000000000002</ele>
        <time>2019-05-09T06:10:18Z</time>
      </trkpt>
      <trkpt lat="53.02902496419847" lon="10.418653003871441">
        <ele>54.93</ele>
        <time>2019-05-09T06:10:21Z</time>
      </trkpt>
      <trkpt lat="53.028931003063917" lon="10.418699020519853">
        <ele>55.890000000000001</ele>
        <time>2019-05-09T06:10:23Z</time>
      </trkpt>
      <trkpt lat="53.028894038870931" lon="10.418717041611671">
        <ele>56.369999999999997</ele>
        <time>2019-05-09T06:10:24Z</time>
      </trkpt>
      <trkpt lat="53.028836958110332" lon="10.418745037168264">
        <ele>56.859999999999999</ele>
        <time>2019-05-09T06:10:27Z</time>
      </trkpt>
      <trkpt lat="53.028805023059249" lon="10.41876096278429">
        <ele>57.82</ele>
        <time>2019-05-09T06:10:42Z</time>
      </trkpt>
      <trkpt lat="53.028725981712341" lon="10.418799016624689">
        <ele>58.299999999999997</ele>
        <time>2019-05-09T06:10:44Z</time>
      </trkpt>
      <trkpt lat="53.027983009815216" lon="10.419120965525508">
        <ele>60.700000000000003</ele>
        <time>2019-05-09T06:10:53Z</time>
      </trkpt>
      <trkpt lat="53.026912976056337" lon="10.419546011835337">
        <ele>65.989999999999995</ele>
        <time>2019-05-09T06:11:03Z</time>
      </trkpt>
      <trkpt lat="53.026136979460716" lon="10.419871984049678">
        <ele>68.870000000000005</ele>
        <time>2019-05-09T06:11:10Z</time>
      </trkpt>
      <trkpt lat="53.024603007361293" lon="10.420543039217591">
        <ele>73.200000000000003</ele>
        <time>2019-05-09T06:11:22Z</time>
      </trkpt>
      <trkpt lat="53.023140029981732" lon="10.421191966161132">
        <ele>72.239999999999995</ele>
        <time>2019-05-09T06:11:33Z</time>
      </trkpt>
      <trkpt lat="53.021948961541057" lon="10.421707034111023">
        <ele>68.390000000000001</ele>
        <time>2019-05-09T06:11:43Z</time>
      </trkpt>
      <trkpt lat="53.021315960213542" lon="10.421934016048908">
        <ele>67.909999999999997</ele>
        <time>2019-05-09T06:11:49Z</time>
      </trkpt>
      <trkpt lat="53.020856967195868" lon="10.421883976086974">
        <ele>65.989999999999995</ele>
        <time>2019-05-09T06:11:54Z</time>
      </trkpt>
      <trkpt lat="53.020757976919413" lon="10.421861009672284">
        <ele>65.510000000000005</ele>
        <time>2019-05-09T06:11:55Z</time>
      </trkpt>
      <trkpt lat="53.020700979977846" lon="10.421759001910686">
        <ele>64.549999999999997</ele>
        <time>2019-05-09T06:11:57Z</time>
      </trkpt>
      <trkpt lat="53.020639959722757" lon="10.421649031341076">
        <ele>64.549999999999997</ele>
        <time>2019-05-09T06:11:58Z</time>
      </trkpt>
      <trkpt lat="53.020501993596554" lon="10.421460019424558">
        <ele>64.549999999999997</ele>
        <time>2019-05-09T06:11:59Z</time>
      </trkpt>
      <trkpt lat="53.02040702663362" lon="10.421392964199185">
        <ele>64.549999999999997</ele>
        <time>2019-05-09T06:12:00Z</time>
      </trkpt>
      <trkpt lat="53.020306024700403" lon="10.421321969479322">
        <ele>64.549999999999997</ele>
        <time>2019-05-09T06:12:01Z</time>
      </trkpt>
      <trkpt lat="53.019025018438697" lon="10.420420998707414">
        <ele>60.219999999999999</ele>
        <time>2019-05-09T06:12:12Z</time>
      </trkpt>
      <trkpt lat="53.018786972388625" lon="10.420254031196237">
        <ele>60.700000000000003</ele>
        <time>2019-05-09T06:12:14Z</time>
      </trkpt>
      <trkpt lat="53.018668033182621" lon="10.420170966535807">
        <ele>60.700000000000003</ele>
        <time>2019-05-09T06:12:15Z</time>
      </trkpt>
      <trkpt lat="53.018543981015682" lon="10.420083962380886">
        <ele>60.700000000000003</ele>
        <time>2019-05-09T06:12:16Z</time>
      </trkpt>
      <trkpt lat="53.018424035981297" lon="10.419998969882727">
        <ele>60.700000000000003</ele>
        <time>2019-05-09T06:12:17Z</time>
      </trkpt>
      <trkpt lat="53.018309036269784" lon="10.41991900652647">
        <ele>60.700000000000003</ele>
        <time>2019-05-09T06:12:18Z</time>
      </trkpt>
      <trkpt lat="53.017985997721553" lon="10.419692024588585">
        <ele>60.700000000000003</ele>
        <time>2019-05-09T06:12:21Z</time>
      </trkpt>
      <trkpt lat="53.01787200383842" lon="10.419655982404947">
        <ele>60.219999999999999</ele>
        <time>2019-05-09T06:12:22Z</time>
      </trkpt>
      <trkpt lat="53.017760021612048" lon="10.419688001275063">
        <ele>59.740000000000002</ele>
        <time>2019-05-09T06:12:23Z</time>
      </trkpt>
      <trkpt lat="53.017645021900535" lon="10.419733012095094">
        <ele>59.740000000000002</ele>
        <time>2019-05-09T06:12:24Z</time>
      </trkpt>
      <trkpt lat="53.017529016360641" lon="10.419780034571886">
        <ele>59.740000000000002</ele>
        <time>2019-05-09T06:12:25Z</time>
      </trkpt>
      <trkpt lat="53.016626033931971" lon="10.420086979866028">
        <ele>56.859999999999999</ele>
        <time>2019-05-09T06:12:31Z</time>
      </trkpt>
      <trkpt lat="53.015655996277928" lon="10.420203991234303">
        <ele>54.93</ele>
        <time>2019-05-09T06:12:36Z</time>
      </trkpt>
      <trkpt lat="53.015463966876268" lon="10.420157974585891">
        <ele>54.93</ele>
        <time>2019-05-09T06:12:37Z</time>
      </trkpt>
      <trkpt lat="53.015270009636879" lon="10.420112041756511">
        <ele>55.409999999999997</ele>
        <time>2019-05-09T06:12:38Z</time>
      </trkpt>
      <trkpt lat="53.013314008712769" lon="10.41929597966373">
        <ele>57.82</ele>
        <time>2019-05-09T06:12:47Z</time>
      </trkpt>
      <trkpt lat="53.011178970336914" lon="10.418630037456751">
        <ele>59.259999999999998</ele>
        <time>2019-05-09T06:12:56Z</time>
      </trkpt>
      <trkpt lat="53.008878976106644" lon="10.418001981452107">
        <ele>60.219999999999999</ele>
        <time>2019-05-09T06:13:06Z</time>
      </trkpt>
      <trkpt lat="53.008016981184483" lon="10.417489008978009">
        <ele>58.299999999999997</ele>
        <time>2019-05-09T06:13:10Z</time>
      </trkpt>
      <trkpt lat="53.007826963439584" lon="10.417277030646801">
        <ele>58.299999999999997</ele>
        <time>2019-05-09T06:13:11Z</time>
      </trkpt>
      <trkpt lat="53.00599199719727" lon="10.415473999455571">
        <ele>55.890000000000001</ele>
        <time>2019-05-09T06:13:20Z</time>
      </trkpt>
      <trkpt lat="53.004780979827046" lon="10.414425004273653">
        <ele>56.859999999999999</ele>
        <time>2019-05-09T06:13:27Z</time>
      </trkpt>
      <trkpt lat="53.004447966814041" lon="10.414216965436935">
        <ele>56.859999999999999</ele>
        <time>2019-05-09T06:13:29Z</time>
      </trkpt>
      <trkpt lat="53.00300401635468" lon="10.413555968552828">
        <ele>55.890000000000001</ele>
        <time>2019-05-09T06:13:38Z</time>
      </trkpt>
      <trkpt lat="53.001225963234901" lon="10.412552990019321">
        <ele>52.049999999999997</ele>
        <time>2019-05-09T06:13:51Z</time>
      </trkpt>
      <trkpt lat="53.000479973852634" lon="10.412092991173267">
        <ele>52.049999999999997</ele>
        <time>2019-05-09T06:13:57Z</time>
      </trkpt>
      <trkpt lat="53.000108990818262" lon="10.411953013390303">
        <ele>52.049999999999997</ele>
        <time>2019-05-09T06:14:00Z</time>
      </trkpt>
      <trkpt lat="52.99958998337388" lon="10.411895010620356">
        <ele>51.57</ele>
        <time>2019-05-09T06:14:04Z</time>
      </trkpt>
      <trkpt lat="52.999462997540832" lon="10.411922000348568">
        <ele>51.57</ele>
        <time>2019-05-09T06:14:05Z</time>
      </trkpt>
      <trkpt lat="52.999336011707783" lon="10.411949995905161">
        <ele>51.57</ele>
        <time>2019-05-09T06:14:06Z</time>
      </trkpt>
      <trkpt lat="52.999205002561212" lon="10.411977991461754">
        <ele>51.090000000000003</ele>
        <time>2019-05-09T06:14:07Z</time>
      </trkpt>
      <trkpt lat="52.999070975929499" lon="10.412030965089798">
        <ele>50.609999999999999</ele>
        <time>2019-05-09T06:14:08Z</time>
      </trkpt>
      <trkpt lat="52.998938038945198" lon="10.412104977294803">
        <ele>50.609999999999999</ele>
        <time>2019-05-09T06:14:09Z</time>
      </trkpt>
      <trkpt lat="52.998545011505485" lon="10.412287032231688">
        <ele>48.68</ele>
        <time>2019-05-09T06:14:12Z</time>
      </trkpt>
      <trkpt lat="52.998421965166926" lon="10.412314021959901">
        <ele>48.200000000000003</ele>
        <time>2019-05-09T06:14:13Z</time>
      </trkpt>
      <trkpt lat="52.998281987383962" lon="10.41231201030314">
        <ele>47.719999999999999</ele>
        <time>2019-05-09T06:14:14Z</time>
      </trkpt>
      <trkpt lat="52.998176962137222" lon="10.412190975621343">
        <ele>47.240000000000002</ele>
        <time>2019-05-09T06:14:15Z</time>
      </trkpt>
      <trkpt lat="52.998065985739231" lon="10.412062983959913">
        <ele>47.240000000000002</ele>
        <time>2019-05-09T06:14:16Z</time>
      </trkpt>
      <trkpt lat="52.997954003512859" lon="10.411895010620356">
        <ele>47.240000000000002</ele>
        <time>2019-05-09T06:14:17Z</time>
      </trkpt>
      <trkpt lat="52.997851995751262" lon="10.411699041724205">
        <ele>47.719999999999999</ele>
        <time>2019-05-09T06:14:18Z</time>
      </trkpt>
      <trkpt lat="52.997006010264158" lon="10.41010002605617">
        <ele>46.759999999999998</ele>
        <time>2019-05-09T06:14:25Z</time>
      </trkpt>
      <trkpt lat="52.996671991422772" lon="10.40930500254035">
        <ele>45.799999999999997</ele>
        <time>2019-05-09T06:14:28Z</time>
      </trkpt>
      <trkpt lat="52.996530001983047" lon="10.408732015639544">
        <ele>45.32</ele>
        <time>2019-05-09T06:14:30Z</time>
      </trkpt>
      <trkpt lat="52.996465964242816" lon="10.408426998183131">
        <ele>44.840000000000003</ele>
        <time>2019-05-09T06:14:31Z</time>
      </trkpt>
      <trkpt lat="52.99585098400712" lon="10.405576983466744">
        <ele>40.990000000000002</ele>
        <time>2019-05-09T06:14:40Z</time>
      </trkpt>
      <trkpt lat="52.995144976302981" lon="10.403222003951669">
        <ele>41.469999999999999</ele>
        <time>2019-05-09T06:14:47Z</time>
      </trkpt>
      <trkpt lat="52.994224978610873" lon="10.400117011740804">
        <ele>43.880000000000003</ele>
        <time>2019-05-09T06:14:58Z</time>
      </trkpt>
      <trkpt lat="52.993944017216563" lon="10.399176981300116">
        <ele>43.399999999999999</ele>
        <time>2019-05-09T06:15:04Z</time>
      </trkpt>
      <trkpt lat="52.993905963376164" lon="10.399053012952209">
        <ele>43.399999999999999</ele>
        <time>2019-05-09T06:15:05Z</time>
      </trkpt>
      <trkpt lat="52.99337899312377" lon="10.397352995350957">
        <ele>46.280000000000001</ele>
        <time>2019-05-09T06:15:19Z</time>
      </trkpt>
      <trkpt lat="52.993180006742477" lon="10.396809009835124">
        <ele>47.240000000000002</ele>
        <time>2019-05-09T06:15:23Z</time>
      </trkpt>
      <trkpt lat="52.992438040673733" lon="10.395770994946361">
        <ele>47.240000000000002</ele>
        <time>2019-05-09T06:15:32Z</time>
      </trkpt>
      <trkpt lat="52.992354976013303" lon="10.395653983578086">
        <ele>46.759999999999998</ele>
        <time>2019-05-09T06:15:33Z</time>
      </trkpt>
      <trkpt lat="52.991714011877775" lon="10.394751001149416">
        <ele>44.359999999999999</ele>
        <time>2019-05-09T06:15:40Z</time>
      </trkpt>
      <trkpt lat="52.990932986140251" lon="10.393714997917414">
        <ele>44.840000000000003</ele>
        <time>2019-05-09T06:15:48Z</time>
      </trkpt>
      <trkpt lat="52.99052101559937" lon="10.393250975757837">
        <ele>44.840000000000003</ele>
        <time>2019-05-09T06:15:52Z</time>
      </trkpt>
      <trkpt lat="52.99041498452425" lon="10.39314997382462">
        <ele>44.840000000000003</ele>
        <time>2019-05-09T06:15:53Z</time>
      </trkpt>
      <trkpt lat="52.990308031439781" lon="10.393046960234642">
        <ele>44.359999999999999</ele>
        <time>2019-05-09T06:15:54Z</time>
      </trkpt>
      <trkpt lat="52.990194037556648" lon="10.392937995493412">
        <ele>44.840000000000003</ele>
        <time>2019-05-09T06:15:55Z</time>
      </trkpt>
      <trkpt lat="52.990061016753316" lon="10.392898013815284">
        <ele>44.840000000000003</ele>
        <time>2019-05-09T06:15:56Z</time>
      </trkpt>
      <trkpt lat="52.989915004000068" lon="10.392854008823633">
        <ele>45.32</ele>
        <time>2019-05-09T06:15:57Z</time>
      </trkpt>
      <trkpt lat="52.988370973616838" lon="10.392795000225306">
        <ele>47.240000000000002</ele>
        <time>2019-05-09T06:16:05Z</time>
      </trkpt>
      <trkpt lat="52.98671898432076" lon="10.392778990790248">
        <ele>51.57</ele>
        <time>2019-05-09T06:16:12Z</time>
      </trkpt>
      <trkpt lat="52.984166024252772" lon="10.392754012718797">
        <ele>52.049999999999997</ele>
        <time>2019-05-09T06:16:23Z</time>
      </trkpt>
      <trkpt lat="52.982359975576401" lon="10.392962973564863">
        <ele>50.130000000000003</ele>
        <time>2019-05-09T06:16:31Z</time>
      </trkpt>
      <trkpt lat="52.979783965274692" lon="10.393926976248622">
        <ele>45.32</ele>
        <time>2019-05-09T06:16:42Z</time>
      </trkpt>
      <trkpt lat="52.977420017123222" lon="10.394813027232885">
        <ele>43.399999999999999</ele>
        <time>2019-05-09T06:16:52Z</time>
      </trkpt>
      <trkpt lat="52.975555965676904" lon="10.395170012488961">
        <ele>44.840000000000003</ele>
        <time>2019-05-09T06:17:00Z</time>
      </trkpt>
      <trkpt lat="52.973113982006907" lon="10.395226003602147">
        <ele>47.240000000000002</ele>
        <time>2019-05-09T06:17:11Z</time>
      </trkpt>
      <trkpt lat="52.972325999289751" lon="10.395181998610497">
        <ele>47.240000000000002</ele>
        <time>2019-05-09T06:17:17Z</time>
      </trkpt>
      <trkpt lat="52.97223899513483" lon="10.395172024145722">
        <ele>47.240000000000002</ele>
        <time>2019-05-09T06:17:18Z</time>
      </trkpt>
      <trkpt lat="52.972158025950193" lon="10.39510496892035">
        <ele>46.759999999999998</ele>
        <time>2019-05-09T06:17:19Z</time>
      </trkpt>
      <trkpt lat="52.97208703123033" lon="10.395022993907332">
        <ele>45.799999999999997</ele>
        <time>2019-05-09T06:17:20Z</time>
      </trkpt>
      <trkpt lat="52.972010001540184" lon="10.39493297226727">
        <ele>44.840000000000003</ele>
        <time>2019-05-09T06:17:21Z</time>
      </trkpt>
      <trkpt lat="52.971932971850038" lon="10.394814033061266">
        <ele>43.880000000000003</ele>
        <time>2019-05-09T06:17:22Z</time>
      </trkpt>
      <trkpt lat="52.9718710295856" lon="10.394662991166115">
        <ele>43.399999999999999</ele>
        <time>2019-05-09T06:17:23Z</time>
      </trkpt>
      <trkpt lat="52.971232999116182" lon="10.393120972439647">
        <ele>36.189999999999998</ele>
        <time>2019-05-09T06:17:32Z</time>
      </trkpt>
      <trkpt lat="52.971141971647739" lon="10.392961967736483">
        <ele>35.710000000000001</ele>
        <time>2019-05-09T06:17:33Z</time>
      </trkpt>
      <trkpt lat="52.971032001078129" lon="10.392850991338491">
        <ele>35.229999999999997</ele>
        <time>2019-05-09T06:17:34Z</time>
      </trkpt>
      <trkpt lat="52.970919013023376" lon="10.39273900911212">
        <ele>34.740000000000002</ele>
        <time>2019-05-09T06:17:35Z</time>
      </trkpt>
      <trkpt lat="52.970791021361947" lon="10.392680000513792">
        <ele>34.259999999999998</ele>
        <time>2019-05-09T06:17:36Z</time>
      </trkpt>
      <trkpt lat="52.970662023872137" lon="10.392630966380239">
        <ele>33.780000000000001</ele>
        <time>2019-05-09T06:17:37Z</time>
      </trkpt>
      <trkpt lat="52.970531014725566" lon="10.392581010237336">
        <ele>33.299999999999997</ele>
        <time>2019-05-09T06:17:38Z</time>
      </trkpt>
      <trkpt lat="52.969022020697594" lon="10.392053034156561">
        <ele>36.189999999999998</ele>
        <time>2019-05-09T06:17:50Z</time>
      </trkpt>
      <trkpt lat="52.968849018216133" lon="10.391995031386614">
        <ele>36.670000000000002</ele>
        <time>2019-05-09T06:17:52Z</time>
      </trkpt>
      <trkpt lat="52.968783974647522" lon="10.391970975324512">
        <ele>37.149999999999999</ele>
        <time>2019-05-09T06:17:53Z</time>
      </trkpt>
      <trkpt lat="52.96873401850462" lon="10.391953960061073">
        <ele>37.149999999999999</ele>
        <time>2019-05-09T06:17:54Z</time>
      </trkpt>
      <trkpt lat="52.968694036826491" lon="10.391939962282777">
        <ele>37.149999999999999</ele>
        <time>2019-05-09T06:17:55Z</time>
      </trkpt>
      <trkpt lat="52.96854299493134" lon="10.391800990328193">
        <ele>37.630000000000003</ele>
        <time>2019-05-09T06:17:56Z</time>
      </trkpt>
      <trkpt lat="52.96854299493134" lon="10.391661012545228">
        <ele>37.630000000000003</ele>
        <time>2019-05-09T06:17:57Z</time>
      </trkpt>
      <trkpt lat="52.968538971617818" lon="10.391482980921865">
        <ele>38.109999999999999</ele>
        <time>2019-05-09T06:17:58Z</time>
      </trkpt>
      <trkpt lat="52.968528997153044" lon="10.391263039782643">
        <ele>38.109999999999999</ele>
        <time>2019-05-09T06:17:59Z</time>
      </trkpt>
      <trkpt lat="52.96834803186357" lon="10.389813976362348">
        <ele>40.030000000000001</ele>
        <time>2019-05-09T06:18:04Z</time>
      </trkpt>
      <trkpt lat="52.967654010280967" lon="10.387292029336095">
        <ele>44.359999999999999</ele>
        <time>2019-05-09T06:18:11Z</time>
      </trkpt>
      <trkpt lat="52.967362990602851" lon="10.384907964617014">
        <ele>47.719999999999999</ele>
        <time>2019-05-09T06:18:17Z</time>
      </trkpt>
      <trkpt lat="52.967634983360767" lon="10.382133973762393">
        <ele>51.57</ele>
        <time>2019-05-09T06:18:24Z</time>
      </trkpt>
      <trkpt lat="52.968397988006473" lon="10.376151977106929">
        <ele>55.409999999999997</ele>
        <time>2019-05-09T06:18:39Z</time>
      </trkpt>
      <trkpt lat="52.96841399744153" lon="10.373325012624264">
        <ele>57.340000000000003</ele>
        <time>2019-05-09T06:18:46Z</time>
      </trkpt>
      <trkpt lat="52.9681789688766" lon="10.369000034406781">
        <ele>58.780000000000001</ele>
        <time>2019-05-09T06:18:56Z</time>
      </trkpt>
      <trkpt lat="52.967895995825529" lon="10.364040965214372">
        <ele>56.369999999999997</ele>
        <time>2019-05-09T06:19:07Z</time>
      </trkpt>
      <trkpt lat="52.967614028602839" lon="10.359518006443977">
        <ele>52.049999999999997</ele>
        <time>2019-05-09T06:19:17Z</time>
      </trkpt>
      <trkpt lat="52.967198034748435" lon="10.356023004278541">
        <ele>53.009999999999998</ele>
        <time>2019-05-09T06:19:25Z</time>
      </trkpt>
      <trkpt lat="52.966638961806893" lon="10.351862981915474">
        <ele>57.340000000000003</ele>
        <time>2019-05-09T06:19:35Z</time>
      </trkpt>
      <trkpt lat="52.966440981253982" lon="10.348386000841856">
        <ele>58.780000000000001</ele>
        <time>2019-05-09T06:19:43Z</time>
      </trkpt>
      <trkpt lat="52.966520022600889" lon="10.343919033184648">
        <ele>57.340000000000003</ele>
        <time>2019-05-09T06:19:53Z</time>
      </trkpt>
      <trkpt lat="52.966634016484022" lon="10.339059038087726">
        <ele>52.530000000000001</ele>
        <time>2019-05-09T06:20:04Z</time>
      </trkpt>
      <trkpt lat="52.966763013973832" lon="10.332869002595544">
        <ele>56.859999999999999</ele>
        <time>2019-05-09T06:20:18Z</time>
      </trkpt>
      <trkpt lat="52.966840965673327" lon="10.329136038199067">
        <ele>54.450000000000003</ele>
        <time>2019-05-09T06:20:27Z</time>
      </trkpt>
      <trkpt lat="52.966891005635262" lon="10.32568696886301">
        <ele>54.450000000000003</ele>
        <time>2019-05-09T06:20:36Z</time>
      </trkpt>
      <trkpt lat="52.966732000932097" lon="10.322726983577013">
        <ele>50.609999999999999</ele>
        <time>2019-05-09T06:20:44Z</time>
      </trkpt>
      <trkpt lat="52.966633010655642" lon="10.320984972640872">
        <ele>51.090000000000003</ele>
        <time>2019-05-09T06:20:51Z</time>
      </trkpt>
      <trkpt lat="52.966714985668659" lon="10.319276992231607">
        <ele>52.530000000000001</ele>
        <time>2019-05-09T06:21:00Z</time>
      </trkpt>
      <trkpt lat="52.966841971501708" lon="10.317334989085793">
        <ele>55.409999999999997</ele>
        <time>2019-05-09T06:21:10Z</time>
      </trkpt>
      <trkpt lat="52.96691196039319" lon="10.315465992316604">
        <ele>57.340000000000003</ele>
        <time>2019-05-09T06:21:19Z</time>
      </trkpt>
      <trkpt lat="52.96680299565196" lon="10.31332902610302">
        <ele>56.859999999999999</ele>
        <time>2019-05-09T06:21:28Z</time>
      </trkpt>
      <trkpt lat="52.966571990400553" lon="10.310786040499806">
        <ele>54.93</ele>
        <time>2019-05-09T06:21:38Z</time>
      </trkpt>
      <trkpt lat="52.966359006240964" lon="10.308380015194416">
        <ele>55.890000000000001</ele>
        <time>2019-05-09T06:21:44Z</time>
      </trkpt>
      <trkpt lat="52.966074021533132" lon="10.30488702468574">
        <ele>57.340000000000003</ele>
        <time>2019-05-09T06:21:52Z</time>
      </trkpt>
      <trkpt lat="52.966047031804919" lon="10.303823025897145">
        <ele>57.82</ele>
        <time>2019-05-09T06:21:56Z</time>
      </trkpt>
      <trkpt lat="52.966046025976539" lon="10.303661003708839">
        <ele>57.82</ele>
        <time>2019-05-09T06:21:57Z</time>
      </trkpt>
      <trkpt lat="52.966042002663016" lon="10.303249033167958">
        <ele>57.82</ele>
        <time>2019-05-09T06:22:01Z</time>
      </trkpt>
      <trkpt lat="52.966033034026623" lon="10.302234990522265">
        <ele>57.340000000000003</ele>
        <time>2019-05-09T06:22:07Z</time>
      </trkpt>
      <trkpt lat="52.96602800488472" lon="10.30031000263989">
        <ele>58.299999999999997</ele>
        <time>2019-05-09T06:22:13Z</time>
      </trkpt>
      <trkpt lat="52.966019958257675" lon="10.296954978257418">
        <ele>64.069999999999993</ele>
        <time>2019-05-09T06:22:21Z</time>
      </trkpt>
      <trkpt lat="52.966010989621282" lon="10.291529959067702">
        <ele>70.310000000000002</ele>
        <time>2019-05-09T06:22:33Z</time>
      </trkpt>
      <trkpt lat="52.966044014319777" lon="10.287932027131319">
        <ele>76.079999999999998</ele>
        <time>2019-05-09T06:22:41Z</time>
      </trkpt>
      <trkpt lat="52.96643603593111" lon="10.285467999055982">
        <ele>80.409999999999997</ele>
        <time>2019-05-09T06:22:47Z</time>
      </trkpt>
      <trkpt lat="52.967227036133409" lon="10.283329021185637">
        <ele>84.730000000000004</ele>
        <time>2019-05-09T06:22:53Z</time>
      </trkpt>
      <trkpt lat="52.968421960249543" lon="10.280861975625157">
        <ele>89.540000000000006</ele>
        <time>2019-05-09T06:23:01Z</time>
      </trkpt>
      <trkpt lat="52.969123022630811" lon="10.27944702655077">
        <ele>92.900000000000006</ele>
        <time>2019-05-09T06:23:08Z</time>
      </trkpt>
      <trkpt lat="52.970275031402707" lon="10.277130017057061">
        <ele>94.349999999999994</ele>
        <time>2019-05-09T06:23:21Z</time>
      </trkpt>
      <trkpt lat="52.97126904129982" lon="10.275111990049481">
        <ele>94.829999999999998</ele>
        <time>2019-05-09T06:23:28Z</time>
      </trkpt>
      <trkpt lat="52.9733129683882" lon="10.270975017920136">
        <ele>97.709999999999994</ele>
        <time>2019-05-09T06:23:40Z</time>
      </trkpt>
      <trkpt lat="52.9755699634552" lon="10.266433032229543">
        <ele>97.230000000000004</ele>
        <time>2019-05-09T06:23:53Z</time>
      </trkpt>
      <trkpt lat="52.977594025433064" lon="10.262362025678158">
        <ele>94.349999999999994</ele>
        <time>2019-05-09T06:24:04Z</time>
      </trkpt>
      <trkpt lat="52.979389009997249" lon="10.258749006316066">
        <ele>91.459999999999994</ele>
        <time>2019-05-09T06:24:14Z</time>
      </trkpt>
      <trkpt lat="52.980628022924066" lon="10.256322026252747">
        <ele>89.540000000000006</ele>
        <time>2019-05-09T06:24:21Z</time>
      </trkpt>
      <trkpt lat="52.982136011123657" lon="10.253413002938032">
        <ele>87.620000000000005</ele>
        <time>2019-05-09T06:24:30Z</time>
      </trkpt>
      <trkpt lat="52.983753969892859" lon="10.250241039320827">
        <ele>83.290000000000006</ele>
        <time>2019-05-09T06:24:40Z</time>
      </trkpt>
      <trkpt lat="52.984547987580299" lon="10.248558036983013">
        <ele>81.849999999999994</ele>
        <time>2019-05-09T06:24:45Z</time>
      </trkpt>
      <trkpt lat="52.985227005556226" lon="10.245928969234228">
        <ele>82.329999999999998</ele>
        <time>2019-05-09T06:24:52Z</time>
      </trkpt>
      <trkpt lat="52.98538701608777" lon="10.24348103441298">
        <ele>83.290000000000006</ele>
        <time>2019-05-09T06:24:58Z</time>
      </trkpt>
      <trkpt lat="52.985142013058066" lon="10.240914998576045">
        <ele>84.25</ele>
        <time>2019-05-09T06:25:04Z</time>
      </trkpt>
      <trkpt lat="52.984329974278808" lon="10.237868009135127">
        <ele>84.730000000000004</ele>
        <time>2019-05-09T06:25:11Z</time>
      </trkpt>
      <trkpt lat="52.983048968017101" lon="10.233464995399117">
        <ele>87.620000000000005</ele>
        <time>2019-05-09T06:25:21Z</time>
      </trkpt>
      <trkpt lat="52.981668971478939" lon="10.22872201167047">
        <ele>89.060000000000002</ele>
        <time>2019-05-09T06:25:32Z</time>
      </trkpt>
      <trkpt lat="52.980419984087348" lon="10.224432991817594">
        <ele>89.060000000000002</ele>
        <time>2019-05-09T06:25:42Z</time>
      </trkpt>
      <trkpt lat="52.979124980047345" lon="10.220735985785723">
        <ele>86.659999999999997</ele>
        <time>2019-05-09T06:25:51Z</time>
      </trkpt>
      <trkpt lat="52.977392021566629" lon="10.216853991150856">
        <ele>84.25</ele>
        <time>2019-05-09T06:26:01Z</time>
      </trkpt>
      <trkpt lat="52.975689992308617" lon="10.2130370400846">
        <ele>86.180000000000007</ele>
        <time>2019-05-09T06:26:11Z</time>
      </trkpt>
      <trkpt lat="52.974262973293662" lon="10.209839008748531">
        <ele>84.25</ele>
        <time>2019-05-09T06:26:19Z</time>
      </trkpt>
      <trkpt lat="52.972605032846332" lon="10.206124987453222">
        <ele>82.810000000000002</ele>
        <time>2019-05-09T06:26:28Z</time>
      </trkpt>
      <trkpt lat="52.970913983881474" lon="10.202469974756241">
        <ele>81.849999999999994</ele>
        <time>2019-05-09T06:26:38Z</time>
      </trkpt>
      <trkpt lat="52.969201980158687" lon="10.200069984421134">
        <ele>80.890000000000001</ele>
        <time>2019-05-09T06:26:46Z</time>
      </trkpt>
      <trkpt lat="52.967174984514713" lon="10.197275960817933">
        <ele>77.519999999999996</ele>
        <time>2019-05-09T06:26:55Z</time>
      </trkpt>
      <trkpt lat="52.965153018012643" lon="10.194489983841777">
        <ele>73.680000000000007</ele>
        <time>2019-05-09T06:27:04Z</time>
      </trkpt>
      <trkpt lat="52.963393991813064" lon="10.192066021263599">
        <ele>71.760000000000005</ele>
        <time>2019-05-09T06:27:12Z</time>
      </trkpt>
      <trkpt lat="52.962342984974384" lon="10.190605977550149">
        <ele>71.269999999999996</ele>
        <time>2019-05-09T06:27:18Z</time>
      </trkpt>
      <trkpt lat="52.960947984829545" lon="10.188669003546238">
        <ele>71.760000000000005</ele>
        <time>2019-05-09T06:27:27Z</time>
      </trkpt>
      <trkpt lat="52.959811985492706" lon="10.187093960121274">
        <ele>69.829999999999998</ele>
        <time>2019-05-09T06:27:37Z</time>
      </trkpt>
      <trkpt lat="52.959170015528798" lon="10.186285022646189">
        <ele>67.909999999999997</ele>
        <time>2019-05-09T06:27:43Z</time>
      </trkpt>
      <trkpt lat="52.957984982058406" lon="10.18493696115911">
        <ele>68.870000000000005</ele>
        <time>2019-05-09T06:27:54Z</time>
      </trkpt>
      <trkpt lat="52.957229018211365" lon="10.184071026742458">
        <ele>72.239999999999995</ele>
        <time>2019-05-09T06:28:01Z</time>
      </trkpt>
      <trkpt lat="52.956906985491514" lon="10.183601975440979">
        <ele>74.159999999999997</ele>
        <time>2019-05-09T06:28:04Z</time>
      </trkpt>
      <trkpt lat="52.95648998580873" lon="10.182752972468734">
        <ele>75.599999999999994</ele>
        <time>2019-05-09T06:28:08Z</time>
      </trkpt>
      <trkpt lat="52.956413039937615" lon="10.182479973882437">
        <ele>76.079999999999998</ele>
        <time>2019-05-09T06:28:09Z</time>
      </trkpt>
      <trkpt lat="52.956335004419088" lon="10.182195995002985">
        <ele>76.560000000000002</ele>
        <time>2019-05-09T06:28:10Z</time>
      </trkpt>
      <trkpt lat="52.956255041062832" lon="10.18190698698163">
        <ele>76.560000000000002</ele>
        <time>2019-05-09T06:28:11Z</time>
      </trkpt>
      <trkpt lat="52.956183040514588" lon="10.18160599283874">
        <ele>77.040000000000006</ele>
        <time>2019-05-09T06:28:12Z</time>
      </trkpt>
      <trkpt lat="52.956149009987712" lon="10.181264011189342">
        <ele>77.040000000000006</ele>
        <time>2019-05-09T06:28:13Z</time>
      </trkpt>
      <trkpt lat="52.956174993887544" lon="10.178796965628862">
        <ele>76.079999999999998</ele>
        <time>2019-05-09T06:28:20Z</time>
      </trkpt>
      <trkpt lat="52.956162001937628" lon="10.17541503533721">
        <ele>75.120000000000005</ele>
        <time>2019-05-09T06:28:28Z</time>
      </trkpt>
      <trkpt lat="52.955925967544317" lon="10.170758971944451">
        <ele>77.519999999999996</ele>
        <time>2019-05-09T06:28:38Z</time>
      </trkpt>
      <trkpt lat="52.955653974786401" lon="10.165420034900308">
        <ele>77.040000000000006</ele>
        <time>2019-05-09T06:28:49Z</time>
      </trkpt>
      <trkpt lat="52.955439984798431" lon="10.161047028377652">
        <ele>75.599999999999994</ele>
        <time>2019-05-09T06:28:58Z</time>
      </trkpt>
      <trkpt lat="52.95530897565186" lon="10.155702978372574">
        <ele>74.640000000000001</ele>
        <time>2019-05-09T06:29:09Z</time>
      </trkpt>
      <trkpt lat="52.955237980931997" lon="10.150499995797873">
        <ele>74.159999999999997</ele>
        <time>2019-05-09T06:29:20Z</time>
      </trkpt>
      <trkpt lat="52.95517897233367" lon="10.146922012791038">
        <ele>73.680000000000007</ele>
        <time>2019-05-09T06:29:28Z</time>
      </trkpt>
      <trkpt lat="52.955110995098948" lon="10.142182968556881">
        <ele>74.640000000000001</ele>
        <time>2019-05-09T06:29:40Z</time>
      </trkpt>
      <trkpt lat="52.955030025914311" lon="10.137803005054593">
        <ele>73.200000000000003</ele>
        <time>2019-05-09T06:29:50Z</time>
      </trkpt>
      <trkpt lat="52.954960037022829" lon="10.131953023374081">
        <ele>68.390000000000001</ele>
        <time>2019-05-09T06:30:03Z</time>
      </trkpt>
      <trkpt lat="52.954960037022829" lon="10.129473991692066">
        <ele>65.030000000000001</ele>
        <time>2019-05-09T06:30:10Z</time>
      </trkpt>
      <trkpt lat="52.954981997609138" lon="10.128135988488793">
        <ele>64.069999999999993</ele>
        <time>2019-05-09T06:30:16Z</time>
      </trkpt>
      <trkpt lat="52.954981997609138" lon="10.128003973513842">
        <ele>63.579999999999998</ele>
        <time>2019-05-09T06:30:17Z</time>
      </trkpt>
      <trkpt lat="52.954981997609138" lon="10.127888973802328">
        <ele>63.579999999999998</ele>
        <time>2019-05-09T06:30:18Z</time>
      </trkpt>
      <trkpt lat="52.954882001504302" lon="10.127875981852412">
        <ele>63.579999999999998</ele>
        <time>2019-05-09T06:30:19Z</time>
      </trkpt>
      <trkpt lat="52.954814024269581" lon="10.127865001559258">
        <ele>63.579999999999998</ele>
        <time>2019-05-09T06:30:20Z</time>
      </trkpt>
      <trkpt lat="52.954729031771421" lon="10.127851003780961">
        <ele>63.579999999999998</ele>
        <time>2019-05-09T06:30:21Z</time>
      </trkpt>
      <trkpt lat="52.954623000696301" lon="10.127832982689142">
        <ele>63.579999999999998</ele>
        <time>2019-05-09T06:30:22Z</time>
      </trkpt>
      <trkpt lat="52.954499032348394" lon="10.127818984910846">
        <ele>63.579999999999998</ele>
        <time>2019-05-09T06:30:23Z</time>
      </trkpt>
      <trkpt lat="52.954357964918017" lon="10.127808004617691">
        <ele>64.069999999999993</ele>
        <time>2019-05-09T06:30:24Z</time>
      </trkpt>
      <trkpt lat="52.953205034136772" lon="10.128113022074103">
        <ele>64.549999999999997</ele>
        <time>2019-05-09T06:30:30Z</time>
      </trkpt>
      <trkpt lat="52.951448019593954" lon="10.128675028681755">
        <ele>65.030000000000001</ele>
        <time>2019-05-09T06:30:37Z</time>
      </trkpt>
      <trkpt lat="52.948937974870205" lon="10.129498969763517">
        <ele>65.030000000000001</ele>
        <time>2019-05-09T06:30:46Z</time>
      </trkpt>
      <trkpt lat="52.946656001731753" lon="10.130244037136436">
        <ele>57.82</ele>
        <time>2019-05-09T06:30:54Z</time>
      </trkpt>
      <trkpt lat="52.944392971694469" lon="10.13098600320518">
        <ele>56.859999999999999</ele>
        <time>2019-05-09T06:31:02Z</time>
      </trkpt>
      <trkpt lat="52.941068038344383" lon="10.132075985893607">
        <ele>56.859999999999999</ele>
        <time>2019-05-09T06:31:14Z</time>
      </trkpt>
      <trkpt lat="52.937747966498137" lon="10.133164962753654">
        <ele>57.82</ele>
        <time>2019-05-09T06:31:25Z</time>
      </trkpt>
      <trkpt lat="52.936219023540616" lon="10.133672989904881">
        <ele>59.259999999999998</ele>
        <time>2019-05-09T06:31:31Z</time>
      </trkpt>
      <trkpt lat="52.935171034187078" lon="10.13401698321104">
        <ele>62.140000000000001</ele>
        <time>2019-05-09T06:31:37Z</time>
      </trkpt>
      <trkpt lat="52.934387996792793" lon="10.134283024817705">
        <ele>63.579999999999998</ele>
        <time>2019-05-09T06:31:43Z</time>
      </trkpt>
      <trkpt lat="52.934268973767757" lon="10.134325018152595">
        <ele>63.579999999999998</ele>
        <time>2019-05-09T06:31:44Z</time>
      </trkpt>
      <trkpt lat="52.934147017076612" lon="10.134361982345581">
        <ele>64.069999999999993</ele>
        <time>2019-05-09T06:31:45Z</time>
      </trkpt>
      <trkpt lat="52.934026988223195" lon="10.134398024529219">
        <ele>64.549999999999997</ele>
        <time>2019-05-09T06:31:46Z</time>
      </trkpt>
      <trkpt lat="52.933905031532049" lon="10.134433982893825">
        <ele>65.030000000000001</ele>
        <time>2019-05-09T06:31:47Z</time>
      </trkpt>
      <trkpt lat="52.933776034042239" lon="10.134474970400333">
        <ele>65.030000000000001</ele>
        <time>2019-05-09T06:31:48Z</time>
      </trkpt>
      <trkpt lat="52.932742964476347" lon="10.134799014776945">
        <ele>65.989999999999995</ele>
        <time>2019-05-09T06:31:56Z</time>
      </trkpt>
      <trkpt lat="52.931191977113485" lon="10.135422963649035">
        <ele>65.510000000000005</ele>
        <time>2019-05-09T06:32:07Z</time>
      </trkpt>
      <trkpt lat="52.931053005158901" lon="10.135524971410632">
        <ele>65.030000000000001</ele>
        <time>2019-05-09T06:32:08Z</time>
      </trkpt>
      <trkpt lat="52.930920990183949" lon="10.135628990828991">
        <ele>65.030000000000001</ele>
        <time>2019-05-09T06:32:09Z</time>
      </trkpt>
      <trkpt lat="52.930831974372268" lon="10.135787995532155">
        <ele>64.549999999999997</ele>
        <time>2019-05-09T06:32:10Z</time>
      </trkpt>
      <trkpt lat="52.930745976045728" lon="10.135938031598926">
        <ele>64.549999999999997</ele>
        <time>2019-05-09T06:32:11Z</time>
      </trkpt>
      <trkpt lat="52.930665006861091" lon="10.136083038523793">
        <ele>64.549999999999997</ele>
        <time>2019-05-09T06:32:12Z</time>
      </trkpt>
      <trkpt lat="52.929833019152284" lon="10.137553978711367">
        <ele>62.140000000000001</ele>
        <time>2019-05-09T06:32:22Z</time>
      </trkpt>
      <trkpt lat="52.929746014997363" lon="10.137663027271628">
        <ele>61.659999999999997</ele>
        <time>2019-05-09T06:32:23Z</time>
      </trkpt>
      <trkpt lat="52.92965498752892" lon="10.137762017548084">
        <ele>61.659999999999997</ele>
        <time>2019-05-09T06:32:24Z</time>
      </trkpt>
      <trkpt lat="52.929554991424084" lon="10.137869976460934">
        <ele>61.18</ele>
        <time>2019-05-09T06:32:25Z</time>
      </trkpt>
      <trkpt lat="52.929446026682854" lon="10.137863019481301">
        <ele>60.700000000000003</ele>
        <time>2019-05-09T06:32:26Z</time>
      </trkpt>
      <trkpt lat="52.92933396063745" lon="10.137854972854257">
        <ele>60.700000000000003</ele>
        <time>2019-05-09T06:32:27Z</time>
      </trkpt>
      <trkpt lat="52.92922399006784" lon="10.13783703558147">
        <ele>60.219999999999999</ele>
        <time>2019-05-09T06:32:28Z</time>
      </trkpt>
      <trkpt lat="52.929113013669848" lon="10.137792024761438">
        <ele>60.219999999999999</ele>
        <time>2019-05-09T06:32:29Z</time>
      </trkpt>
      <trkpt lat="52.928786035627127" lon="10.137653974816203">
        <ele>59.259999999999998</ele>
        <time>2019-05-09T06:32:32Z</time>
      </trkpt>
      <trkpt lat="52.928684027865529" lon="10.137592032551765">
        <ele>58.780000000000001</ele>
        <time>2019-05-09T06:32:33Z</time>
      </trkpt>
      <trkpt lat="52.928112968802452" lon="10.137246027588844">
        <ele>56.369999999999997</ele>
        <time>2019-05-09T06:32:39Z</time>
      </trkpt>
      <trkpt lat="52.928010039031506" lon="10.137184001505375">
        <ele>56.369999999999997</ele>
        <time>2019-05-09T06:32:40Z</time>
      </trkpt>
      <trkpt lat="52.927936026826501" lon="10.13706598430872">
        <ele>55.890000000000001</ele>
        <time>2019-05-09T06:32:41Z</time>
      </trkpt>
      <trkpt lat="52.927853967994452" lon="10.136934975162148">
        <ele>55.890000000000001</ele>
        <time>2019-05-09T06:32:42Z</time>
      </trkpt>
      <trkpt lat="52.927770987153053" lon="10.136759961023927">
        <ele>55.890000000000001</ele>
        <time>2019-05-09T06:32:43Z</time>
      </trkpt>
      <trkpt lat="52.927709966897964" lon="10.136555023491383">
        <ele>55.890000000000001</ele>
        <time>2019-05-09T06:32:44Z</time>
      </trkpt>
      <trkpt lat="52.9271399974823" lon="10.134674040600657">
        <ele>53.969999999999999</ele>
        <time>2019-05-09T06:32:51Z</time>
      </trkpt>
      <trkpt lat="52.926567010581493" lon="10.132290981709957">
        <ele>53.009999999999998</ele>
        <time>2019-05-09T06:32:58Z</time>
      </trkpt>
      <trkpt lat="52.925971979275346" lon="10.130360964685678">
        <ele>56.369999999999997</ele>
        <time>2019-05-09T06:33:04Z</time>
      </trkpt>
      <trkpt lat="52.925825966522098" lon="10.130092995241284">
        <ele>56.369999999999997</ele>
        <time>2019-05-09T06:33:05Z</time>
      </trkpt>
      <trkpt lat="52.925654975697398" lon="10.129859978333116">
        <ele>56.859999999999999</ele>
        <time>2019-05-09T06:33:06Z</time>
      </trkpt>
      <trkpt lat="52.925482979044318" lon="10.129624027758837">
        <ele>56.859999999999999</ele>
        <time>2019-05-09T06:33:07Z</time>
      </trkpt>
      <trkpt lat="52.9252939671278" lon="10.129425041377544">
        <ele>56.859999999999999</ele>
        <time>2019-05-09T06:33:08Z</time>
      </trkpt>
      <trkpt lat="52.925089029595256" lon="10.12926796451211">
        <ele>56.859999999999999</ele>
        <time>2019-05-09T06:33:09Z</time>
      </trkpt>
      <trkpt lat="52.924876967445016" lon="10.129106026142836">
        <ele>56.369999999999997</ele>
        <time>2019-05-09T06:33:10Z</time>
      </trkpt>
      <trkpt lat="52.92464897967875" lon="10.128962025046349">
        <ele>55.890000000000001</ele>
        <time>2019-05-09T06:33:11Z</time>
      </trkpt>
      <trkpt lat="52.924402970820665" lon="10.128845013678074">
        <ele>55.409999999999997</ele>
        <time>2019-05-09T06:33:12Z</time>
      </trkpt>
      <trkpt lat="52.92155303992331" lon="10.127513967454433">
        <ele>52.049999999999997</ele>
        <time>2019-05-09T06:33:23Z</time>
      </trkpt>
      <trkpt lat="52.919798959046602" lon="10.126985991373658">
        <ele>49.649999999999999</ele>
        <time>2019-05-09T06:33:30Z</time>
      </trkpt>
      <trkpt lat="52.918763039633632" lon="10.127190006896853">
        <ele>47.719999999999999</ele>
        <time>2019-05-09T06:33:36Z</time>
      </trkpt>
      <trkpt lat="52.917271982878447" lon="10.127757964655757">
        <ele>49.649999999999999</ele>
        <time>2019-05-09T06:33:45Z</time>
      </trkpt>
      <trkpt lat="52.915542041882873" lon="10.128768989816308">
        <ele>52.530000000000001</ele>
        <time>2019-05-09T06:33:53Z</time>
      </trkpt>
      <trkpt lat="52.912818007171154" lon="10.130982985720038">
        <ele>56.859999999999999</ele>
        <time>2019-05-09T06:34:04Z</time>
      </trkpt>
      <trkpt lat="52.91134899482131" lon="10.132102975621819">
        <ele>60.700000000000003</ele>
        <time>2019-05-09T06:34:11Z</time>
      </trkpt>
      <trkpt lat="52.910844990983605" lon="10.132280001416802">
        <ele>60.700000000000003</ele>
        <time>2019-05-09T06:34:14Z</time>
      </trkpt>
      <trkpt lat="52.910678023472428" lon="10.132304979488254">
        <ele>60.700000000000003</ele>
        <time>2019-05-09T06:34:15Z</time>
      </trkpt>
      <trkpt lat="52.910508960485458" lon="10.132282013073564">
        <ele>60.219999999999999</ele>
        <time>2019-05-09T06:34:16Z</time>
      </trkpt>
      <trkpt lat="52.910325983539224" lon="10.132234990596771">
        <ele>60.219999999999999</ele>
        <time>2019-05-09T06:34:17Z</time>
      </trkpt>
      <trkpt lat="52.910132026299834" lon="10.132185034453869">
        <ele>60.219999999999999</ele>
        <time>2019-05-09T06:34:18Z</time>
      </trkpt>
      <trkpt lat="52.909923987463117" lon="10.132120996713638">
        <ele>59.740000000000002</ele>
        <time>2019-05-09T06:34:19Z</time>
      </trkpt>
      <trkpt lat="52.908230004832149" lon="10.131271993741393">
        <ele>59.259999999999998</ele>
        <time>2019-05-09T06:34:26Z</time>
      </trkpt>
      <trkpt lat="52.906110975891352" lon="10.130209000781178">
        <ele>57.82</ele>
        <time>2019-05-09T06:34:34Z</time>
      </trkpt>
      <trkpt lat="52.903500013053417" lon="10.128899998962879">
        <ele>59.740000000000002</ele>
        <time>2019-05-09T06:34:44Z</time>
      </trkpt>
      <trkpt lat="52.901657000184059" lon="10.127992993220687">
        <ele>57.340000000000003</ele>
        <time>2019-05-09T06:34:52Z</time>
      </trkpt>
      <trkpt lat="52.900398038327694" lon="10.127340964972973">
        <ele>57.82</ele>
        <time>2019-05-09T06:35:00Z</time>
      </trkpt>
      <trkpt lat="52.899060035124421" lon="10.126306973397732">
        <ele>55.890000000000001</ele>
        <time>2019-05-09T06:35:10Z</time>
      </trkpt>
      <trkpt lat="52.898359978571534" lon="10.125676989555359">
        <ele>53.009999999999998</ele>
        <time>2019-05-09T06:35:15Z</time>
      </trkpt>
      <trkpt lat="52.898251013830304" lon="10.125498035922647">
        <ele>52.530000000000001</ele>
        <time>2019-05-09T06:35:16Z</time>
      </trkpt>
      <trkpt lat="52.898132996633649" lon="10.125297959893942">
        <ele>52.530000000000001</ele>
        <time>2019-05-09T06:35:17Z</time>
      </trkpt>
      <trkpt lat="52.897284999489784" lon="10.123562989756465">
        <ele>52.049999999999997</ele>
        <time>2019-05-09T06:35:25Z</time>
      </trkpt>
      <trkpt lat="52.89669499732554" lon="10.12269202619791">
        <ele>52.530000000000001</ele>
        <time>2019-05-09T06:35:30Z</time>
      </trkpt>
      <trkpt lat="52.896578991785645" lon="10.12252296321094">
        <ele>53.009999999999998</ele>
        <time>2019-05-09T06:35:31Z</time>
      </trkpt>
      <trkpt lat="52.895360011607409" lon="10.120859993621707">
        <ele>58.299999999999997</ele>
        <time>2019-05-09T06:35:42Z</time>
      </trkpt>
      <trkpt lat="52.894831029698253" lon="10.120094977319241">
        <ele>60.219999999999999</ele>
        <time>2019-05-09T06:35:47Z</time>
      </trkpt>
      <trkpt lat="52.893895022571087" lon="10.118806008249521">
        <ele>62.619999999999997</ele>
        <time>2019-05-09T06:35:54Z</time>
      </trkpt>
      <trkpt lat="52.893270989879966" lon="10.117982989177108">
        <ele>64.069999999999993</ele>
        <time>2019-05-09T06:35:58Z</time>
      </trkpt>
      <trkpt lat="52.893101004883647" lon="10.117833958938718">
        <ele>64.069999999999993</ele>
        <time>2019-05-09T06:35:59Z</time>
      </trkpt>
      <trkpt lat="52.892923979088664" lon="10.117690963670611">
        <ele>64.069999999999993</ele>
        <time>2019-05-09T06:36:00Z</time>
      </trkpt>
      <trkpt lat="52.892722981050611" lon="10.117612006142735">
        <ele>64.069999999999993</ele>
        <time>2019-05-09T06:36:01Z</time>
      </trkpt>
      <trkpt lat="52.892509996891022" lon="10.117529025301337">
        <ele>64.069999999999993</ele>
        <time>2019-05-09T06:36:02Z</time>
      </trkpt>
      <trkpt lat="52.890977030619979" lon="10.117072965949774">
        <ele>62.619999999999997</ele>
        <time>2019-05-09T06:36:08Z</time>
      </trkpt>
      <trkpt lat="52.888075970113277" lon="10.116220023483038">
        <ele>61.659999999999997</ele>
        <time>2019-05-09T06:36:18Z</time>
      </trkpt>
      <trkpt lat="52.884941976517439" lon="10.115287033841014">
        <ele>63.100000000000001</ele>
        <time>2019-05-09T06:36:29Z</time>
      </trkpt>
      <trkpt lat="52.883552005514503" lon="10.114868022501469">
        <ele>64.069999999999993</ele>
        <time>2019-05-09T06:36:35Z</time>
      </trkpt>
      <trkpt lat="52.882614992558956" lon="10.114586977288127">
        <ele>64.069999999999993</ele>
        <time>2019-05-09T06:36:41Z</time>
      </trkpt>
      <trkpt lat="52.881680997088552" lon="10.114306015893817">
        <ele>61.659999999999997</ele>
        <time>2019-05-09T06:36:49Z</time>
      </trkpt>
      <trkpt lat="52.881579995155334" lon="10.114273997023702">
        <ele>61.18</ele>
        <time>2019-05-09T06:36:50Z</time>
      </trkpt>
      <trkpt lat="52.880831994116306" lon="10.11405598372221">
        <ele>56.859999999999999</ele>
        <time>2019-05-09T06:36:57Z</time>
      </trkpt>
      <trkpt lat="52.880713976919651" lon="10.114065036177635">
        <ele>56.369999999999997</ele>
        <time>2019-05-09T06:36:58Z</time>
      </trkpt>
      <trkpt lat="52.880587996914983" lon="10.114074004814029">
        <ele>56.369999999999997</ele>
        <time>2019-05-09T06:36:59Z</time>
      </trkpt>
      <trkpt lat="52.880477020516992" lon="10.114125972613692">
        <ele>55.890000000000001</ele>
        <time>2019-05-09T06:37:00Z</time>
      </trkpt>
      <trkpt lat="52.880356991663575" lon="10.114181963726878">
        <ele>55.409999999999997</ele>
        <time>2019-05-09T06:37:01Z</time>
      </trkpt>
      <trkpt lat="52.878913963213563" lon="10.114868022501469">
        <ele>48.68</ele>
        <time>2019-05-09T06:37:13Z</time>
      </trkpt>
      <trkpt lat="52.878810027614236" lon="10.114842038601637">
        <ele>47.719999999999999</ele>
        <time>2019-05-09T06:37:14Z</time>
      </trkpt>
      <trkpt lat="52.87871103733778" lon="10.114798033609986">
        <ele>47.240000000000002</ele>
        <time>2019-05-09T06:37:15Z</time>
      </trkpt>
      <trkpt lat="52.878611041232944" lon="10.114713041111827">
        <ele>46.759999999999998</ele>
        <time>2019-05-09T06:37:16Z</time>
      </trkpt>
      <trkpt lat="52.878506015986204" lon="10.114624025300145">
        <ele>46.280000000000001</ele>
        <time>2019-05-09T06:37:17Z</time>
      </trkpt>
      <trkpt lat="52.878400990739465" lon="10.114508019760251">
        <ele>46.280000000000001</ele>
        <time>2019-05-09T06:37:18Z</time>
      </trkpt>
      <trkpt lat="52.877536984160542" lon="10.113430023193359">
        <ele>47.719999999999999</ele>
        <time>2019-05-09T06:37:27Z</time>
      </trkpt>
      <trkpt lat="52.877445034682751" lon="10.113319968804717">
        <ele>47.719999999999999</ele>
        <time>2019-05-09T06:37:28Z</time>
      </trkpt>
      <trkpt lat="52.877364987507463" lon="10.113197006285191">
        <ele>47.719999999999999</ele>
        <time>2019-05-09T06:37:29Z</time>
      </trkpt>
      <trkpt lat="52.877269014716148" lon="10.112853012979031">
        <ele>47.719999999999999</ele>
        <time>2019-05-09T06:37:31Z</time>
      </trkpt>
      <trkpt lat="52.87723196670413" lon="10.112674981355667">
        <ele>47.240000000000002</ele>
        <time>2019-05-09T06:37:32Z</time>
      </trkpt>
      <trkpt lat="52.877204976975918" lon="10.112468032166362">
        <ele>47.240000000000002</ele>
        <time>2019-05-09T06:37:33Z</time>
      </trkpt>
      <trkpt lat="52.877178993076086" lon="10.112270973622799">
        <ele>47.240000000000002</ele>
        <time>2019-05-09T06:37:34Z</time>
      </trkpt>
      <trkpt lat="52.877149991691113" lon="10.112066036090255">
        <ele>47.240000000000002</ele>
        <time>2019-05-09T06:37:35Z</time>
      </trkpt>
      <trkpt lat="52.87682200782001" lon="10.11001599021256">
        <ele>49.159999999999997</ele>
        <time>2019-05-09T06:37:45Z</time>
      </trkpt>
      <trkpt lat="52.876783031970263" lon="10.109827984124422">
        <ele>49.649999999999999</ele>
        <time>2019-05-09T06:37:46Z</time>
      </trkpt>
      <trkpt lat="52.876655040308833" lon="10.10926497168839">
        <ele>51.090000000000003</ele>
        <time>2019-05-09T06:37:49Z</time>
      </trkpt>
      <trkpt lat="52.876437027007341" lon="10.108559969812632">
        <ele>52.530000000000001</ele>
        <time>2019-05-09T06:37:53Z</time>
      </trkpt>
      <trkpt lat="52.876373995095491" lon="10.108380010351539">
        <ele>52.530000000000001</ele>
        <time>2019-05-09T06:37:54Z</time>
      </trkpt>
      <trkpt lat="52.875399012118578" lon="10.106573961675167">
        <ele>56.859999999999999</ele>
        <time>2019-05-09T06:38:04Z</time>
      </trkpt>
      <trkpt lat="52.874085986986756" lon="10.10425703600049">
        <ele>60.219999999999999</ele>
        <time>2019-05-09T06:38:14Z</time>
      </trkpt>
      <trkpt lat="52.872863989323378" lon="10.102098025381565">
        <ele>60.700000000000003</ele>
        <time>2019-05-09T06:38:21Z</time>
      </trkpt>
      <trkpt lat="52.870252020657063" lon="10.097497031092644">
        <ele>63.100000000000001</ele>
        <time>2019-05-09T06:38:34Z</time>
      </trkpt>
      <trkpt lat="52.868500035256147" lon="10.094517013058066">
        <ele>65.989999999999995</ele>
        <time>2019-05-09T06:38:43Z</time>
      </trkpt>
      <trkpt lat="52.86601304076612" lon="10.090477019548416">
        <ele>67.430000000000007</ele>
        <time>2019-05-09T06:38:56Z</time>
      </trkpt>
      <trkpt lat="52.864172039553523" lon="10.087666986510158">
        <ele>67.909999999999997</ele>
        <time>2019-05-09T06:39:06Z</time>
      </trkpt>
      <trkpt lat="52.863812036812305" lon="10.087254010140896">
        <ele>67.909999999999997</ele>
        <time>2019-05-09T06:39:08Z</time>
      </trkpt>
      <trkpt lat="52.863625958561897" lon="10.087051000446081">
        <ele>68.390000000000001</ele>
        <time>2019-05-09T06:39:09Z</time>
      </trkpt>
      <trkpt lat="52.86341498605907" lon="10.086900964379311">
        <ele>68.390000000000001</ele>
        <time>2019-05-09T06:39:10Z</time>
      </trkpt>
      <trkpt lat="52.863193033263087" lon="10.086785964667797">
        <ele>68.870000000000005</ele>
        <time>2019-05-09T06:39:11Z</time>
      </trkpt>
      <trkpt lat="52.86296596750617" lon="10.086679011583328">
        <ele>68.870000000000005</ele>
        <time>2019-05-09T06:39:12Z</time>
      </trkpt>
      <trkpt lat="52.860220978036523" lon="10.085381995886564">
        <ele>66.950000000000003</ele>
        <time>2019-05-09T06:39:24Z</time>
      </trkpt>
      <trkpt lat="52.858862020075321" lon="10.085198013111949">
        <ele>66.950000000000003</ele>
        <time>2019-05-09T06:39:30Z</time>
      </trkpt>
      <trkpt lat="52.85761202685535" lon="10.084917973726988">
        <ele>67.430000000000007</ele>
        <time>2019-05-09T06:39:36Z</time>
      </trkpt>
      <trkpt lat="52.856361027806997" lon="10.084108030423522">
        <ele>65.510000000000005</ele>
        <time>2019-05-09T06:39:43Z</time>
      </trkpt>
      <trkpt lat="52.854505022987723" lon="10.082780001685023">
        <ele>60.700000000000003</ele>
        <time>2019-05-09T06:39:54Z</time>
      </trkpt>
      <trkpt lat="52.853185040876269" lon="10.082158986479044">
        <ele>59.259999999999998</ele>
        <time>2019-05-09T06:40:01Z</time>
      </trkpt>
      <trkpt lat="52.851016977801919" lon="10.081532020121813">
        <ele>63.100000000000001</ele>
        <time>2019-05-09T06:40:11Z</time>
      </trkpt>
      <trkpt lat="52.849372029304504" lon="10.081043019890785">
        <ele>65.030000000000001</ele>
        <time>2019-05-09T06:40:19Z</time>
      </trkpt>
      <trkpt lat="52.848250027745962" lon="10.080344974994659">
        <ele>64.549999999999997</ele>
        <time>2019-05-09T06:40:26Z</time>
      </trkpt>
      <trkpt lat="52.847352996468544" lon="10.079501001164317">
        <ele>64.549999999999997</ele>
        <time>2019-05-09T06:40:34Z</time>
      </trkpt>
      <trkpt lat="52.847255012020469" lon="10.079405028373003">
        <ele>64.549999999999997</ele>
        <time>2019-05-09T06:40:35Z</time>
      </trkpt>
      <trkpt lat="52.845896976068616" lon="10.07808999158442">
        <ele>63.100000000000001</ele>
        <time>2019-05-09T06:40:48Z</time>
      </trkpt>
      <trkpt lat="52.845809971913695" lon="10.078042969107628">
        <ele>63.100000000000001</ele>
        <time>2019-05-09T06:40:49Z</time>
      </trkpt>
      <trkpt lat="52.845733026042581" lon="10.078000975772738">
        <ele>63.579999999999998</ele>
        <time>2019-05-09T06:40:50Z</time>
      </trkpt>
      <trkpt lat="52.845662031322718" lon="10.078012961894274">
        <ele>63.579999999999998</ele>
        <time>2019-05-09T06:40:51Z</time>
      </trkpt>
      <trkpt lat="52.845593970268965" lon="10.078070964664221">
        <ele>63.579999999999998</ele>
        <time>2019-05-09T06:40:52Z</time>
      </trkpt>
      <trkpt lat="52.845522975549102" lon="10.078141959384084">
        <ele>63.579999999999998</ele>
        <time>2019-05-09T06:40:53Z</time>
      </trkpt>
      <trkpt lat="52.845443012192845" lon="10.078242039307952">
        <ele>63.579999999999998</ele>
        <time>2019-05-09T06:40:54Z</time>
      </trkpt>
      <trkpt lat="52.845352990552783" lon="10.078370030969381">
        <ele>63.579999999999998</ele>
        <time>2019-05-09T06:40:55Z</time>
      </trkpt>
      <trkpt lat="52.844801964238286" lon="10.079320035874844">
        <ele>61.659999999999997</ele>
        <time>2019-05-09T06:41:01Z</time>
      </trkpt>
      <trkpt lat="52.844215985387564" lon="10.080028977245092">
        <ele>59.740000000000002</ele>
        <time>2019-05-09T06:41:07Z</time>
      </trkpt>
      <trkpt lat="52.84412101842463" lon="10.080144982784986">
        <ele>59.259999999999998</ele>
        <time>2019-05-09T06:41:08Z</time>
      </trkpt>
      <trkpt lat="52.844028985127807" lon="10.080287978053093">
        <ele>58.780000000000001</ele>
        <time>2019-05-09T06:41:09Z</time>
      </trkpt>
      <trkpt lat="52.843977017328143" lon="10.080454023554921">
        <ele>58.299999999999997</ele>
        <time>2019-05-09T06:41:10Z</time>
      </trkpt>
      <trkpt lat="52.843923959881067" lon="10.080620991066098">
        <ele>58.780000000000001</ele>
        <time>2019-05-09T06:41:11Z</time>
      </trkpt>
      <trkpt lat="52.843870986253023" lon="10.080792987719178">
        <ele>58.780000000000001</ele>
        <time>2019-05-09T06:41:12Z</time>
      </trkpt>
      <trkpt lat="52.843816000968218" lon="10.080965990200639">
        <ele>58.780000000000001</ele>
        <time>2019-05-09T06:41:13Z</time>
      </trkpt>
      <trkpt lat="52.843599999323487" lon="10.081952959299088">
        <ele>58.299999999999997</ele>
        <time>2019-05-09T06:41:18Z</time>
      </trkpt>
      <trkpt lat="52.843085015192628" lon="10.083921030163765">
        <ele>55.890000000000001</ele>
        <time>2019-05-09T06:41:28Z</time>
      </trkpt>
      <trkpt lat="52.843019971624017" lon="10.084086991846561">
        <ele>55.409999999999997</ele>
        <time>2019-05-09T06:41:29Z</time>
      </trkpt>
      <trkpt lat="52.842926010489464" lon="10.08421003818512">
        <ele>55.409999999999997</ele>
        <time>2019-05-09T06:41:30Z</time>
      </trkpt>
      <trkpt lat="52.842829031869769" lon="10.084324032068253">
        <ele>55.409999999999997</ele>
        <time>2019-05-09T06:41:31Z</time>
      </trkpt>
      <trkpt lat="52.842717971652746" lon="10.084415981546044">
        <ele>55.409999999999997</ele>
        <time>2019-05-09T06:41:32Z</time>
      </trkpt>
      <trkpt lat="52.842603977769613" lon="10.08451103232801">
        <ele>55.409999999999997</ele>
        <time>2019-05-09T06:41:33Z</time>
      </trkpt>
      <trkpt lat="52.841163966804743" lon="10.085746021941304">
        <ele>54.93</ele>
        <time>2019-05-09T06:41:45Z</time>
      </trkpt>
      <trkpt lat="52.839437965303659" lon="10.087213022634387">
        <ele>53.490000000000002</ele>
        <time>2019-05-09T06:41:59Z</time>
      </trkpt>
      <trkpt lat="52.83795403316617" lon="10.088442983105779">
        <ele>52.049999999999997</ele>
        <time>2019-05-09T06:42:11Z</time>
      </trkpt>
      <trkpt lat="52.837104024365544" lon="10.089171035215259">
        <ele>49.649999999999999</ele>
        <time>2019-05-09T06:42:18Z</time>
      </trkpt>
      <trkpt lat="52.836390975862741" lon="10.089761959388852">
        <ele>49.159999999999997</ele>
        <time>2019-05-09T06:42:24Z</time>
      </trkpt>
      <trkpt lat="52.83627899363637" lon="10.089833037927747">
        <ele>49.649999999999999</ele>
        <time>2019-05-09T06:42:25Z</time>
      </trkpt>
      <trkpt lat="52.836040025576949" lon="10.089943008497357">
        <ele>50.130000000000003</ele>
        <time>2019-05-09T06:42:27Z</time>
      </trkpt>
      <trkpt lat="52.835928965359926" lon="10.089914007112384">
        <ele>50.130000000000003</ele>
        <time>2019-05-09T06:42:28Z</time>
      </trkpt>
      <trkpt lat="52.835711035877466" lon="10.089856004342437">
        <ele>49.159999999999997</ele>
        <time>2019-05-09T06:42:30Z</time>
      </trkpt>
      <trkpt lat="52.835491010919213" lon="10.089796995744109">
        <ele>48.68</ele>
        <time>2019-05-09T06:42:32Z</time>
      </trkpt>
      <trkpt lat="52.835381962358952" lon="10.089788027107716">
        <ele>48.68</ele>
        <time>2019-05-09T06:42:33Z</time>
      </trkpt>
      <trkpt lat="52.834524996578693" lon="10.089823985472322">
        <ele>47.719999999999999</ele>
        <time>2019-05-09T06:42:41Z</time>
      </trkpt>
      <trkpt lat="52.834423994645476" lon="10.089823985472322">
        <ele>47.719999999999999</ele>
        <time>2019-05-09T06:42:42Z</time>
      </trkpt>
      <trkpt lat="52.834115959703922" lon="10.089720971882343">
        <ele>47.719999999999999</ele>
        <time>2019-05-09T06:42:45Z</time>
      </trkpt>
      <trkpt lat="52.833899036049843" lon="10.0896489713341">
        <ele>48.200000000000003</ele>
        <time>2019-05-09T06:42:47Z</time>
      </trkpt>
      <trkpt lat="52.833685968071222" lon="10.089609995484352">
        <ele>48.200000000000003</ele>
        <time>2019-05-09T06:42:49Z</time>
      </trkpt>
      <trkpt lat="52.833467032760382" lon="10.089718960225582">
        <ele>48.68</ele>
        <time>2019-05-09T06:42:51Z</time>
      </trkpt>
      <trkpt lat="52.833384973928332" lon="10.089809987694025">
        <ele>48.68</ele>
        <time>2019-05-09T06:42:52Z</time>
      </trkpt>
      <trkpt lat="52.833298975601792" lon="10.089905960485339">
        <ele>49.159999999999997</ele>
        <time>2019-05-09T06:42:53Z</time>
      </trkpt>
      <trkpt lat="52.832982977852225" lon="10.090303011238575">
        <ele>49.649999999999999</ele>
        <time>2019-05-09T06:42:57Z</time>
      </trkpt>
      <trkpt lat="52.832907037809491" lon="10.090356990695">
        <ele>49.649999999999999</ele>
        <time>2019-05-09T06:42:58Z</time>
      </trkpt>
      <trkpt lat="52.832822967320681" lon="10.090384986251593">
        <ele>49.159999999999997</ele>
        <time>2019-05-09T06:42:59Z</time>
      </trkpt>
      <trkpt lat="52.832694975659251" lon="10.090427985414863">
        <ele>49.649999999999999</ele>
        <time>2019-05-09T06:43:00Z</time>
      </trkpt>
      <trkpt lat="52.832629010081291" lon="10.090409964323044">
        <ele>49.649999999999999</ele>
        <time>2019-05-09T06:43:01Z</time>
      </trkpt>
      <trkpt lat="52.832528008148074" lon="10.090382974594831">
        <ele>50.130000000000003</ele>
        <time>2019-05-09T06:43:02Z</time>
      </trkpt>
      <trkpt lat="52.832230031490326" lon="10.090303011238575">
        <ele>51.090000000000003</ele>
        <time>2019-05-09T06:43:05Z</time>
      </trkpt>
      <trkpt lat="52.832130035385489" lon="10.090276021510363">
        <ele>51.57</ele>
        <time>2019-05-09T06:43:06Z</time>
      </trkpt>
      <trkpt lat="52.832039007917047" lon="10.09025196544826">
        <ele>51.090000000000003</ele>
        <time>2019-05-09T06:43:07Z</time>
      </trkpt>
      <trkpt lat="52.83168001100421" lon="10.090155992656946">
        <ele>49.649999999999999</ele>
        <time>2019-05-09T06:43:15Z</time>
      </trkpt>
      <trkpt lat="52.831584038212895" lon="10.090130008757114">
        <ele>49.159999999999997</ele>
        <time>2019-05-09T06:43:21Z</time>
      </trkpt>
      <trkpt lat="52.831540033221245" lon="10.090118022635579">
        <ele>48.68</ele>
        <time>2019-05-09T06:43:22Z</time>
      </trkpt>
      <trkpt lat="52.831467026844621" lon="10.089960023760796">
        <ele>48.68</ele>
        <time>2019-05-09T06:43:23Z</time>
      </trkpt>
      <trkpt lat="52.831447999924421" lon="10.089858015999198">
        <ele>48.200000000000003</ele>
        <time>2019-05-09T06:43:24Z</time>
      </trkpt>
      <trkpt lat="52.831426039338112" lon="10.08973496966064">
        <ele>48.200000000000003</ele>
        <time>2019-05-09T06:43:25Z</time>
      </trkpt>
      <trkpt lat="52.831407012417912" lon="10.089633967727423">
        <ele>48.200000000000003</ele>
        <time>2019-05-09T06:43:26Z</time>
      </trkpt>
      <trkpt lat="52.831271979957819" lon="10.089147984981537">
        <ele>47.719999999999999</ele>
        <time>2019-05-09T06:43:29Z</time>
      </trkpt>
      <trkpt lat="52.831226969137788" lon="10.088985040783882">
        <ele>47.240000000000002</ele>
        <time>2019-05-09T06:43:30Z</time>
      </trkpt>
      <trkpt lat="52.830923963338137" lon="10.088197980076075">
        <ele>47.719999999999999</ele>
        <time>2019-05-09T06:43:35Z</time>
      </trkpt>
      <trkpt lat="52.83086302690208" lon="10.088048027828336">
        <ele>48.200000000000003</ele>
        <time>2019-05-09T06:43:36Z</time>
      </trkpt>
      <trkpt lat="52.830785997211933" lon="10.087932022288442">
        <ele>48.68</ele>
        <time>2019-05-09T06:43:37Z</time>
      </trkpt>
      <trkpt lat="52.830684995278716" lon="10.08786303922534">
        <ele>49.159999999999997</ele>
        <time>2019-05-09T06:43:38Z</time>
      </trkpt>
      <trkpt lat="52.83058499917388" lon="10.087794978171587">
        <ele>50.609999999999999</ele>
        <time>2019-05-09T06:43:40Z</time>
      </trkpt>
      <trkpt lat="52.829695008695126" lon="10.087300026789308">
        <ele>53.009999999999998</ele>
        <time>2019-05-09T06:43:48Z</time>
      </trkpt>
      <trkpt lat="52.82852103933692" lon="10.086574992164969">
        <ele>55.409999999999997</ele>
        <time>2019-05-09T06:43:59Z</time>
      </trkpt>
      <trkpt lat="52.828424982726574" lon="10.086466027423739">
        <ele>55.409999999999997</ele>
        <time>2019-05-09T06:44:00Z</time>
      </trkpt>
      <trkpt lat="52.827440025284886" lon="10.085252998396754">
        <ele>56.369999999999997</ele>
        <time>2019-05-09T06:44:11Z</time>
      </trkpt>
      <trkpt lat="52.826588004827499" lon="10.084157986566424">
        <ele>56.369999999999997</ele>
        <time>2019-05-09T06:44:20Z</time>
      </trkpt>
      <trkpt lat="52.825690973550081" lon="10.083003966137767">
        <ele>56.369999999999997</ele>
        <time>2019-05-09T06:44:29Z</time>
      </trkpt>
      <trkpt lat="52.825050009414554" lon="10.082072988152504">
        <ele>57.340000000000003</ele>
        <time>2019-05-09T06:44:37Z</time>
      </trkpt>
      <trkpt lat="52.82435598783195" lon="10.080702966079116">
        <ele>59.259999999999998</ele>
        <time>2019-05-09T06:44:46Z</time>
      </trkpt>
      <trkpt lat="52.823982993140817" lon="10.07980702444911">
        <ele>57.82</ele>
        <time>2019-05-09T06:44:51Z</time>
      </trkpt>
      <trkpt lat="52.823908980935812" lon="10.079611977562308">
        <ele>57.340000000000003</ele>
        <time>2019-05-09T06:44:52Z</time>
      </trkpt>
      <trkpt lat="52.822888987138867" lon="10.076974024996161">
        <ele>56.859999999999999</ele>
        <time>2019-05-09T06:45:05Z</time>
      </trkpt>
      <trkpt lat="52.822369979694486" lon="10.074920961633325">
        <ele>57.340000000000003</ele>
        <time>2019-05-09T06:45:13Z</time>
      </trkpt>
      <trkpt lat="52.821867987513542" lon="10.07235199213028">
        <ele>56.859999999999999</ele>
        <time>2019-05-09T06:45:22Z</time>
      </trkpt>
      <trkpt lat="52.821259964257479" lon="10.069335009902716">
        <ele>58.780000000000001</ele>
        <time>2019-05-09T06:45:32Z</time>
      </trkpt>
      <trkpt lat="52.820683959871531" lon="10.066579040139914">
        <ele>60.219999999999999</ele>
        <time>2019-05-09T06:45:42Z</time>
      </trkpt>
      <trkpt lat="52.819911986589432" lon="10.064684981480241">
        <ele>60.700000000000003</ele>
        <time>2019-05-09T06:45:48Z</time>
      </trkpt>
      <trkpt lat="52.818241976201534" lon="10.061307996511459">
        <ele>63.579999999999998</ele>
        <time>2019-05-09T06:45:59Z</time>
      </trkpt>
      <trkpt lat="52.817370006814599" lon="10.059836972504854">
        <ele>64.549999999999997</ele>
        <time>2019-05-09T06:46:06Z</time>
      </trkpt>
      <trkpt lat="52.81655503436923" lon="10.058640036731958">
        <ele>65.989999999999995</ele>
        <time>2019-05-09T06:46:14Z</time>
      </trkpt>
      <trkpt lat="52.816141974180937" lon="10.058132009580731">
        <ele>65.989999999999995</ele>
        <time>2019-05-09T06:46:18Z</time>
      </trkpt>
      <trkpt lat="52.816024962812662" lon="10.058045005425811">
        <ele>65.989999999999995</ele>
        <time>2019-05-09T06:46:19Z</time>
      </trkpt>
      <trkpt lat="52.815898982807994" lon="10.058008963242173">
        <ele>65.510000000000005</ele>
        <time>2019-05-09T06:46:20Z</time>
      </trkpt>
      <trkpt lat="52.815764034166932" lon="10.057984990999103">
        <ele>65.510000000000005</ele>
        <time>2019-05-09T06:46:21Z</time>
      </trkpt>
      <trkpt lat="52.815621960908175" lon="10.057963030412793">
        <ele>65.030000000000001</ele>
        <time>2019-05-09T06:46:22Z</time>
      </trkpt>
      <trkpt lat="52.815472008660436" lon="10.057973004877567">
        <ele>65.030000000000001</ele>
        <time>2019-05-09T06:46:23Z</time>
      </trkpt>
      <trkpt lat="52.813980029895902" lon="10.058110971003771">
        <ele>64.069999999999993</ele>
        <time>2019-05-09T06:46:33Z</time>
      </trkpt>
      <trkpt lat="52.813624972477555" lon="10.058154975995421">
        <ele>65.510000000000005</ele>
        <time>2019-05-09T06:46:36Z</time>
      </trkpt>
      <trkpt lat="52.813549032434821" lon="10.058164028450847">
        <ele>65.989999999999995</ele>
        <time>2019-05-09T06:46:37Z</time>
      </trkpt>
      <trkpt lat="52.813494969159365" lon="10.058170985430479">
        <ele>66.469999999999999</ele>
        <time>2019-05-09T06:46:38Z</time>
      </trkpt>
      <trkpt lat="52.813446018844843" lon="10.058177020400763">
        <ele>66.950000000000003</ele>
        <time>2019-05-09T06:46:39Z</time>
      </trkpt>
      <trkpt lat="52.813339987769723" lon="10.058197975158691">
        <ele>67.430000000000007</ele>
        <time>2019-05-09T06:46:40Z</time>
      </trkpt>
      <trkpt lat="52.813294976949692" lon="10.058176014572382">
        <ele>67.909999999999997</ele>
        <time>2019-05-09T06:46:41Z</time>
      </trkpt>
      <trkpt lat="52.813205039128661" lon="10.05812999792397">
        <ele>67.909999999999997</ele>
        <time>2019-05-09T06:46:42Z</time>
      </trkpt>
      <trkpt lat="52.813098002225161" lon="10.058075012639165">
        <ele>67.909999999999997</ele>
        <time>2019-05-09T06:46:43Z</time>
      </trkpt>
      <trkpt lat="52.812973028048873" lon="10.058011980727315">
        <ele>68.390000000000001</ele>
        <time>2019-05-09T06:46:44Z</time>
      </trkpt>
      <trkpt lat="52.811681963503361" lon="10.057320976629853">
        <ele>71.760000000000005</ele>
        <time>2019-05-09T06:46:52Z</time>
      </trkpt>
      <trkpt lat="52.810226026922464" lon="10.056491000577807">
        <ele>75.599999999999994</ele>
        <time>2019-05-09T06:46:59Z</time>
      </trkpt>
      <trkpt lat="52.807953022420406" lon="10.055211000144482">
        <ele>74.159999999999997</ele>
        <time>2019-05-09T06:47:08Z</time>
      </trkpt>
      <trkpt lat="52.805107031017542" lon="10.053602010011673">
        <ele>68.870000000000005</ele>
        <time>2019-05-09T06:47:19Z</time>
      </trkpt>
      <trkpt lat="52.802093988284469" lon="10.051881959661841">
        <ele>65.510000000000005</ele>
        <time>2019-05-09T06:47:31Z</time>
      </trkpt>
      <trkpt lat="52.799916034564376" lon="10.05035201087594">
        <ele>66.469999999999999</ele>
        <time>2019-05-09T06:47:40Z</time>
      </trkpt>
      <trkpt lat="52.79627300798893" lon="10.047456985339522">
        <ele>64.549999999999997</ele>
        <time>2019-05-09T06:47:55Z</time>
      </trkpt>
      <trkpt lat="52.794729983434081" lon="10.046229036524892">
        <ele>65.030000000000001</ele>
        <time>2019-05-09T06:48:02Z</time>
      </trkpt>
      <trkpt lat="52.793687023222446" lon="10.045390008017421">
        <ele>64.549999999999997</ele>
        <time>2019-05-09T06:48:09Z</time>
      </trkpt>
      <trkpt lat="52.792698964476585" lon="10.04476698115468">
        <ele>65.510000000000005</ele>
        <time>2019-05-09T06:48:17Z</time>
      </trkpt>
      <trkpt lat="52.791469004005194" lon="10.044028032571077">
        <ele>65.510000000000005</ele>
        <time>2019-05-09T06:48:25Z</time>
      </trkpt>
      <trkpt lat="52.789174038916826" lon="10.042658010497689">
        <ele>66.469999999999999</ele>
        <time>2019-05-09T06:48:39Z</time>
      </trkpt>
      <trkpt lat="52.787276040762663" lon="10.04154103808105">
        <ele>68.870000000000005</ele>
        <time>2019-05-09T06:48:51Z</time>
      </trkpt>
      <trkpt lat="52.786178011447191" lon="10.040424987673759">
        <ele>68.390000000000001</ele>
        <time>2019-05-09T06:48:59Z</time>
      </trkpt>
      <trkpt lat="52.784664994105697" lon="10.038812980055809">
        <ele>63.100000000000001</ele>
        <time>2019-05-09T06:49:09Z</time>
      </trkpt>
      <trkpt lat="52.783754970878363" lon="10.03814896568656">
        <ele>60.700000000000003</ele>
        <time>2019-05-09T06:49:16Z</time>
      </trkpt>
      <trkpt lat="52.783624967560172" lon="10.038120970129967">
        <ele>60.219999999999999</ele>
        <time>2019-05-09T06:49:17Z</time>
      </trkpt>
      <trkpt lat="52.782483017072082" lon="10.037927012890577">
        <ele>56.859999999999999</ele>
        <time>2019-05-09T06:49:25Z</time>
      </trkpt>
      <trkpt lat="52.781003024429083" lon="10.037672035396099">
        <ele>56.859999999999999</ele>
        <time>2019-05-09T06:49:35Z</time>
      </trkpt>
      <trkpt lat="52.77940702624619" lon="10.037184963002801">
        <ele>54.450000000000003</ele>
        <time>2019-05-09T06:49:43Z</time>
      </trkpt>
      <trkpt lat="52.777362009510398" lon="10.036556990817189">
        <ele>53.490000000000002</ele>
        <time>2019-05-09T06:49:52Z</time>
      </trkpt>
      <trkpt lat="52.776273032650352" lon="10.036268988624215">
        <ele>51.57</ele>
        <time>2019-05-09T06:49:59Z</time>
      </trkpt>
      <trkpt lat="52.775083975866437" lon="10.036160023882985">
        <ele>50.609999999999999</ele>
        <time>2019-05-09T06:50:08Z</time>
      </trkpt>
      <trkpt lat="52.773470962420106" lon="10.036096991971135">
        <ele>50.130000000000003</ele>
        <time>2019-05-09T06:50:20Z</time>
      </trkpt>
      <trkpt lat="52.773364009335637" lon="10.036102021113038">
        <ele>49.649999999999999</ele>
        <time>2019-05-09T06:50:21Z</time>
      </trkpt>
      <trkpt lat="52.772709969431162" lon="10.036135967820883">
        <ele>49.159999999999997</ele>
        <time>2019-05-09T06:50:26Z</time>
      </trkpt>
      <trkpt lat="52.772578960284591" lon="10.036163963377476">
        <ele>48.68</ele>
        <time>2019-05-09T06:50:27Z</time>
      </trkpt>
      <trkpt lat="52.772349966689944" lon="10.036265971139073">
        <ele>48.68</ele>
        <time>2019-05-09T06:50:29Z</time>
      </trkpt>
      <trkpt lat="52.771668015047908" lon="10.036806017160416">
        <ele>47.719999999999999</ele>
        <time>2019-05-09T06:50:35Z</time>
      </trkpt>
      <trkpt lat="52.771562989801168" lon="10.036910958588123">
        <ele>48.200000000000003</ele>
        <time>2019-05-09T06:50:36Z</time>
      </trkpt>
      <trkpt lat="52.770416010171175" lon="10.037730960175395">
        <ele>47.719999999999999</ele>
        <time>2019-05-09T06:50:46Z</time>
      </trkpt>
      <trkpt lat="52.769107008352876" lon="10.038021979853511">
        <ele>50.609999999999999</ele>
        <time>2019-05-09T06:50:57Z</time>
      </trkpt>
      <trkpt lat="52.768121967092156" lon="10.03782601095736">
        <ele>50.609999999999999</ele>
        <time>2019-05-09T06:51:06Z</time>
      </trkpt>
      <trkpt lat="52.767276987433434" lon="10.037259981036186">
        <ele>52.049999999999997</ele>
        <time>2019-05-09T06:51:17Z</time>
      </trkpt>
      <trkpt lat="52.767111025750637" lon="10.037190997973084">
        <ele>52.530000000000001</ele>
        <time>2019-05-09T06:51:19Z</time>
      </trkpt>
      <trkpt lat="52.767033996060491" lon="10.037190997973084">
        <ele>52.530000000000001</ele>
        <time>2019-05-09T06:51:20Z</time>
      </trkpt>
      <trkpt lat="52.766910027712584" lon="10.037244977429509">
        <ele>52.530000000000001</ele>
        <time>2019-05-09T06:51:21Z</time>
      </trkpt>
      <trkpt lat="52.766805002465844" lon="10.037290994077921">
        <ele>52.530000000000001</ele>
        <time>2019-05-09T06:51:22Z</time>
      </trkpt>
      <trkpt lat="52.766691008582711" lon="10.037341034039855">
        <ele>52.049999999999997</ele>
        <time>2019-05-09T06:51:23Z</time>
      </trkpt>
      <trkpt lat="52.7650579623878" lon="10.038486002013087">
        <ele>50.130000000000003</ele>
        <time>2019-05-09T06:51:36Z</time>
      </trkpt>
      <trkpt lat="52.764059007167816" lon="10.039187986403704">
        <ele>49.159999999999997</ele>
        <time>2019-05-09T06:51:42Z</time>
      </trkpt>
      <trkpt lat="52.762273997068405" lon="10.040453989058733">
        <ele>49.159999999999997</ele>
        <time>2019-05-09T06:51:50Z</time>
      </trkpt>
      <trkpt lat="52.760492004454136" lon="10.041624018922448">
        <ele>47.719999999999999</ele>
        <time>2019-05-09T06:51:58Z</time>
      </trkpt>
      <trkpt lat="52.759193982928991" lon="10.042475033551455">
        <ele>48.68</ele>
        <time>2019-05-09T06:52:05Z</time>
      </trkpt>
      <trkpt lat="52.757624974474311" lon="10.044334977865219">
        <ele>49.649999999999999</ele>
        <time>2019-05-09T06:52:13Z</time>
      </trkpt>
      <trkpt lat="52.756125032901764" lon="10.046655004844069">
        <ele>47.719999999999999</ele>
        <time>2019-05-09T06:52:21Z</time>
      </trkpt>
      <trkpt lat="52.755356999114156" lon="10.048729022964835">
        <ele>43.880000000000003</ele>
        <time>2019-05-09T06:52:27Z</time>
      </trkpt>
      <trkpt lat="52.754762973636389" lon="10.049953032284975">
        <ele>42.439999999999998</ele>
        <time>2019-05-09T06:52:32Z</time>
      </trkpt>
      <trkpt lat="52.753641977906227" lon="10.052115982398391">
        <ele>44.840000000000003</ele>
        <time>2019-05-09T06:52:43Z</time>
      </trkpt>
      <trkpt lat="52.752911997959018" lon="10.053591029718518">
        <ele>41.469999999999999</ele>
        <time>2019-05-09T06:52:51Z</time>
      </trkpt>
      <trkpt lat="52.7519700396806" lon="10.055668987333775">
        <ele>41.950000000000003</ele>
        <time>2019-05-09T06:53:03Z</time>
      </trkpt>
      <trkpt lat="52.751737022772431" lon="10.056169973686337">
        <ele>42.439999999999998</ele>
        <time>2019-05-09T06:53:06Z</time>
      </trkpt>
      <trkpt lat="52.751658987253904" lon="10.056338030844927">
        <ele>43.399999999999999</ele>
        <time>2019-05-09T06:53:07Z</time>
      </trkpt>
      <trkpt lat="52.750744018703699" lon="10.05830199457705">
        <ele>45.799999999999997</ele>
        <time>2019-05-09T06:53:18Z</time>
      </trkpt>
      <trkpt lat="52.749554039910436" lon="10.060930978506804">
        <ele>46.280000000000001</ele>
        <time>2019-05-09T06:53:31Z</time>
      </trkpt>
      <trkpt lat="52.748548965901136" lon="10.06298697553575">
        <ele>46.759999999999998</ele>
        <time>2019-05-09T06:53:39Z</time>
      </trkpt>
      <trkpt lat="52.747081965208054" lon="10.064920010045171">
        <ele>46.759999999999998</ele>
        <time>2019-05-09T06:53:47Z</time>
      </trkpt>
      <trkpt lat="52.745295027270913" lon="10.067458972334862">
        <ele>45.799999999999997</ele>
        <time>2019-05-09T06:53:56Z</time>
      </trkpt>
      <trkpt lat="52.743845041841269" lon="10.069996006786823">
        <ele>46.280000000000001</ele>
        <time>2019-05-09T06:54:04Z</time>
      </trkpt>
      <trkpt lat="52.74292403832078" lon="10.071688983589411">
        <ele>47.240000000000002</ele>
        <time>2019-05-09T06:54:11Z</time>
      </trkpt>
      <trkpt lat="52.742786994203925" lon="10.071898028254509">
        <ele>47.240000000000002</ele>
        <time>2019-05-09T06:54:12Z</time>
      </trkpt>
      <trkpt lat="52.741531971842051" lon="10.073125977069139">
        <ele>47.719999999999999</ele>
        <time>2019-05-09T06:54:20Z</time>
      </trkpt>
      <trkpt lat="52.740005040541291" lon="10.074449982494116">
        <ele>48.68</ele>
        <time>2019-05-09T06:54:29Z</time>
      </trkpt>
      <trkpt lat="52.738729985430837" lon="10.075568966567516">
        <ele>43.880000000000003</ele>
        <time>2019-05-09T06:54:37Z</time>
      </trkpt>
      <trkpt lat="52.738461010158062" lon="10.075879013165832">
        <ele>43.399999999999999</ele>
        <time>2019-05-09T06:54:39Z</time>
      </trkpt>
      <trkpt lat="52.738106036558747" lon="10.076436996459961">
        <ele>43.399999999999999</ele>
        <time>2019-05-09T06:54:44Z</time>
      </trkpt>
      <trkpt lat="52.737759025767446" lon="10.077118026092649">
        <ele>44.359999999999999</ele>
        <time>2019-05-09T06:54:52Z</time>
      </trkpt>
      <trkpt lat="52.737214034423232" lon="10.078340023756027">
        <ele>44.840000000000003</ele>
        <time>2019-05-09T06:54:58Z</time>
      </trkpt>
      <trkpt lat="52.736171996220946" lon="10.080669019371271">
        <ele>46.759999999999998</ele>
        <time>2019-05-09T06:55:07Z</time>
      </trkpt>
      <trkpt lat="52.734842961654067" lon="10.08328802883625">
        <ele>44.840000000000003</ele>
        <time>2019-05-09T06:55:18Z</time>
      </trkpt>
      <trkpt lat="52.73467599414289" lon="10.083496989682317">
        <ele>45.32</ele>
        <time>2019-05-09T06:55:19Z</time>
      </trkpt>
      <trkpt lat="52.734482958912849" lon="10.083682984113693">
        <ele>45.32</ele>
        <time>2019-05-09T06:55:20Z</time>
      </trkpt>
      <trkpt lat="52.734269974753261" lon="10.083886999636889">
        <ele>45.799999999999997</ele>
        <time>2019-05-09T06:55:21Z</time>
      </trkpt>
      <trkpt lat="52.732244990766048" lon="10.08545701391995">
        <ele>47.240000000000002</ele>
        <time>2019-05-09T06:55:29Z</time>
      </trkpt>
      <trkpt lat="52.72992798127234" lon="10.086816977709532">
        <ele>48.68</ele>
        <time>2019-05-09T06:55:38Z</time>
      </trkpt>
      <trkpt lat="52.728469027206302" lon="10.087272031232715">
        <ele>47.719999999999999</ele>
        <time>2019-05-09T06:55:45Z</time>
      </trkpt>
      <trkpt lat="52.728272974491119" lon="10.087302960455418">
        <ele>47.240000000000002</ele>
        <time>2019-05-09T06:55:46Z</time>
      </trkpt>
      <trkpt lat="52.727878019213676" lon="10.087359035387635">
        <ele>47.719999999999999</ele>
        <time>2019-05-09T06:55:48Z</time>
      </trkpt>
      <trkpt lat="52.726262994110584" lon="10.086925020441413">
        <ele>50.609999999999999</ele>
        <time>2019-05-09T06:55:55Z</time>
      </trkpt>
      <trkpt lat="52.724172966554761" lon="10.086219012737274">
        <ele>52.049999999999997</ele>
        <time>2019-05-09T06:56:03Z</time>
      </trkpt>
      <trkpt lat="52.721526967361569" lon="10.085357017815113">
        <ele>52.049999999999997</ele>
        <time>2019-05-09T06:56:13Z</time>
      </trkpt>
      <trkpt lat="52.71856002509594" lon="10.084408018738031">
        <ele>55.890000000000001</ele>
        <time>2019-05-09T06:56:24Z</time>
      </trkpt>
      <trkpt lat="52.716028019785881" lon="10.083578964695334">
        <ele>55.890000000000001</ele>
        <time>2019-05-09T06:56:33Z</time>
      </trkpt>
      <trkpt lat="52.713719978928566" lon="10.082826018333435">
        <ele>60.700000000000003</ele>
        <time>2019-05-09T06:56:41Z</time>
      </trkpt>
      <trkpt lat="52.710541980341077" lon="10.081797977909446">
        <ele>65.989999999999995</ele>
        <time>2019-05-09T06:56:52Z</time>
      </trkpt>
      <trkpt lat="52.708755964413285" lon="10.081218034029007">
        <ele>68.870000000000005</ele>
        <time>2019-05-09T06:56:59Z</time>
      </trkpt>
      <trkpt lat="52.707806965336204" lon="10.080906981602311">
        <ele>70.310000000000002</ele>
        <time>2019-05-09T06:57:05Z</time>
      </trkpt>
      <trkpt lat="52.706188000738621" lon="10.080389985814691">
        <ele>69.829999999999998</ele>
        <time>2019-05-09T06:57:18Z</time>
      </trkpt>
      <trkpt lat="52.704871036112309" lon="10.079956976696849">
        <ele>69.349999999999994</ele>
        <time>2019-05-09T06:57:27Z</time>
      </trkpt>
      <trkpt lat="52.70309398882091" lon="10.079372003674507">
        <ele>67.430000000000007</ele>
        <time>2019-05-09T06:57:37Z</time>
      </trkpt>
      <trkpt lat="52.701267991214991" lon="10.078791975975037">
        <ele>65.510000000000005</ele>
        <time>2019-05-09T06:57:44Z</time>
      </trkpt>
      <trkpt lat="52.698373971506953" lon="10.077827973291278">
        <ele>64.069999999999993</ele>
        <time>2019-05-09T06:57:54Z</time>
      </trkpt>
      <trkpt lat="52.696185959503055" lon="10.077130012214184">
        <ele>64.549999999999997</ele>
        <time>2019-05-09T06:58:02Z</time>
      </trkpt>
      <trkpt lat="52.69443497993052" lon="10.076555013656616">
        <ele>62.140000000000001</ele>
        <time>2019-05-09T06:58:10Z</time>
      </trkpt>
      <trkpt lat="52.692361967638135" lon="10.075846994295716">
        <ele>56.369999999999997</ele>
        <time>2019-05-09T06:58:19Z</time>
      </trkpt>
      <trkpt lat="52.69043899141252" lon="10.075304014608264">
        <ele>52.049999999999997</ele>
        <time>2019-05-09T06:58:26Z</time>
      </trkpt>
      <trkpt lat="52.68848299048841" lon="10.075410967692733">
        <ele>50.130000000000003</ele>
        <time>2019-05-09T06:58:33Z</time>
      </trkpt>
      <trkpt lat="52.685702964663506" lon="10.075845988467336">
        <ele>50.130000000000003</ele>
        <time>2019-05-09T06:58:43Z</time>
      </trkpt>
      <trkpt lat="52.684150971472263" lon="10.076430039480329">
        <ele>52.530000000000001</ele>
        <time>2019-05-09T06:58:49Z</time>
      </trkpt>
      <trkpt lat="52.682498982176185" lon="10.076961033046246">
        <ele>59.740000000000002</ele>
        <time>2019-05-09T06:58:57Z</time>
      </trkpt>
      <trkpt lat="52.680670972913504" lon="10.07703797891736">
        <ele>62.619999999999997</ele>
        <time>2019-05-09T06:59:05Z</time>
      </trkpt>
      <trkpt lat="52.678930973634124" lon="10.076943011954427">
        <ele>59.259999999999998</ele>
        <time>2019-05-09T06:59:13Z</time>
      </trkpt>
      <trkpt lat="52.677812995389104" lon="10.076874028891325">
        <ele>55.409999999999997</ele>
        <time>2019-05-09T06:59:21Z</time>
      </trkpt>
      <trkpt lat="52.676802976056933" lon="10.076758023351431">
        <ele>53.490000000000002</ele>
        <time>2019-05-09T06:59:28Z</time>
      </trkpt>
      <trkpt lat="52.676660986617208" lon="10.076687028631568">
        <ele>53.490000000000002</ele>
        <time>2019-05-09T06:59:29Z</time>
      </trkpt>
      <trkpt lat="52.675380986183882" lon="10.07604799233377">
        <ele>51.090000000000003</ele>
        <time>2019-05-09T06:59:38Z</time>
      </trkpt>
      <trkpt lat="52.673986991867423" lon="10.075236037373543">
        <ele>53.969999999999999</ele>
        <time>2019-05-09T06:59:47Z</time>
      </trkpt>
      <trkpt lat="52.672341959550977" lon="10.074290977790952">
        <ele>53.969999999999999</ele>
        <time>2019-05-09T06:59:56Z</time>
      </trkpt>
      <trkpt lat="52.671104036271572" lon="10.073579018935561">
        <ele>53.009999999999998</ele>
        <time>2019-05-09T07:00:02Z</time>
      </trkpt>
      <trkpt lat="52.669529998674989" lon="10.072711994871497">
        <ele>53.490000000000002</ele>
        <time>2019-05-09T07:00:10Z</time>
      </trkpt>
      <trkpt lat="52.667930983006954" lon="10.071828039363027">
        <ele>52.049999999999997</ele>
        <time>2019-05-09T07:00:17Z</time>
      </trkpt>
      <trkpt lat="52.666240017861128" lon="10.070871999487281">
        <ele>48.68</ele>
        <time>2019-05-09T07:00:23Z</time>
      </trkpt>
      <trkpt lat="52.664195001125336" lon="10.069714039564133">
        <ele>45.799999999999997</ele>
        <time>2019-05-09T07:00:31Z</time>
      </trkpt>
      <trkpt lat="52.663166038691998" lon="10.069132000207901">
        <ele>45.799999999999997</ele>
        <time>2019-05-09T07:00:35Z</time>
      </trkpt>
      <trkpt lat="52.661440959200263" lon="10.06814201362431">
        <ele>46.759999999999998</ele>
        <time>2019-05-09T07:00:42Z</time>
      </trkpt>
      <trkpt lat="52.660261960700154" lon="10.067486967891455">
        <ele>45.799999999999997</ele>
        <time>2019-05-09T07:00:48Z</time>
      </trkpt>
      <trkpt lat="52.659353027120233" lon="10.06698296405375">
        <ele>45.32</ele>
        <time>2019-05-09T07:00:54Z</time>
      </trkpt>
      <trkpt lat="52.657922990620136" lon="10.066190036013722">
        <ele>48.68</ele>
        <time>2019-05-09T07:01:04Z</time>
      </trkpt>
      <trkpt lat="52.657655021175742" lon="10.066034970805049">
        <ele>49.159999999999997</ele>
        <time>2019-05-09T07:01:06Z</time>
      </trkpt>
      <trkpt lat="52.657520994544029" lon="10.065957019105554">
        <ele>49.649999999999999</ele>
        <time>2019-05-09T07:01:07Z</time>
      </trkpt>
      <trkpt lat="52.656452972441912" lon="10.065342960879207">
        <ele>53.009999999999998</ele>
        <time>2019-05-09T07:01:15Z</time>
      </trkpt>
      <trkpt lat="52.654957976192236" lon="10.064504016190767">
        <ele>58.299999999999997</ele>
        <time>2019-05-09T07:01:26Z</time>
      </trkpt>
      <trkpt lat="52.653738996013999" lon="10.063837990164757">
        <ele>60.219999999999999</ele>
        <time>2019-05-09T07:01:36Z</time>
      </trkpt>
      <trkpt lat="52.653460968285799" lon="10.063603967428207">
        <ele>58.780000000000001</ele>
        <time>2019-05-09T07:01:41Z</time>
      </trkpt>
      <trkpt lat="52.653417969122529" lon="10.06356499157846">
        <ele>58.299999999999997</ele>
        <time>2019-05-09T07:01:42Z</time>
      </trkpt>
      <trkpt lat="52.6534160412848" lon="10.063562979921699">
        <ele>57.82</ele>
        <time>2019-05-09T07:01:43Z</time>
      </trkpt>
      <trkpt lat="52.6534160412848" lon="10.063562979921699">
        <ele>57.340000000000003</ele>
        <time>2019-05-09T07:01:44Z</time>
      </trkpt>
      <trkpt lat="52.653263993561268" lon="10.063504977151752">
        <ele>57.340000000000003</ele>
        <time>2019-05-09T07:01:45Z</time>
      </trkpt>
      <trkpt lat="52.653232980519533" lon="10.063559040427208">
        <ele>56.859999999999999</ele>
        <time>2019-05-09T07:01:46Z</time>
      </trkpt>
      <trkpt lat="52.653192998841405" lon="10.06362902931869">
        <ele>56.369999999999997</ele>
        <time>2019-05-09T07:01:47Z</time>
      </trkpt>
      <trkpt lat="52.653153017163277" lon="10.063698012381792">
        <ele>56.369999999999997</ele>
        <time>2019-05-09T07:01:48Z</time>
      </trkpt>
      <trkpt lat="52.653119992464781" lon="10.063755009323359">
        <ele>55.890000000000001</ele>
        <time>2019-05-09T07:01:49Z</time>
      </trkpt>
      <trkpt lat="52.65309501439333" lon="10.063799014315009">
        <ele>54.93</ele>
        <time>2019-05-09T07:01:50Z</time>
      </trkpt>
      <trkpt lat="52.652913965284824" lon="10.064116017892957">
        <ele>51.57</ele>
        <time>2019-05-09T07:02:00Z</time>
      </trkpt>
      <trkpt lat="52.652890998870134" lon="10.064162034541368">
        <ele>51.090000000000003</ele>
        <time>2019-05-09T07:02:01Z</time>
      </trkpt>
      <trkpt lat="52.652523033320904" lon="10.064841974526644">
        <ele>49.649999999999999</ele>
        <time>2019-05-09T07:02:08Z</time>
      </trkpt>
      <trkpt lat="52.65167998149991" lon="10.066400002688169">
        <ele>49.649999999999999</ele>
        <time>2019-05-09T07:02:17Z</time>
      </trkpt>
      <trkpt lat="52.651580991223454" lon="10.066578034311533">
        <ele>48.68</ele>
        <time>2019-05-09T07:02:18Z</time>
      </trkpt>
      <trkpt lat="52.650697035714984" lon="10.068187024444342">
        <ele>45.32</ele>
        <time>2019-05-09T07:02:27Z</time>
      </trkpt>
      <trkpt lat="52.649405971169472" lon="10.070513002574444">
        <ele>47.240000000000002</ele>
        <time>2019-05-09T07:02:38Z</time>
      </trkpt>
      <trkpt lat="52.648094035685062" lon="10.072339000180364">
        <ele>48.200000000000003</ele>
        <time>2019-05-09T07:02:47Z</time>
      </trkpt>
      <trkpt lat="52.646688977256417" lon="10.07340501062572">
        <ele>50.609999999999999</ele>
        <time>2019-05-09T07:02:56Z</time>
      </trkpt>
      <trkpt lat="52.645072024315596" lon="10.074546961113811">
        <ele>51.57</ele>
        <time>2019-05-09T07:03:06Z</time>
      </trkpt>
      <trkpt lat="52.643551966175437" lon="10.075882030650973">
        <ele>49.159999999999997</ele>
        <time>2019-05-09T07:03:14Z</time>
      </trkpt>
      <trkpt lat="52.642136011272669" lon="10.07703697308898">
        <ele>47.719999999999999</ele>
        <time>2019-05-09T07:03:23Z</time>
      </trkpt>
      <trkpt lat="52.640647972002625" lon="10.07778899744153">
        <ele>49.649999999999999</ele>
        <time>2019-05-09T07:03:33Z</time>
      </trkpt>
      <trkpt lat="52.639741972088814" lon="10.078222006559372">
        <ele>51.57</ele>
        <time>2019-05-09T07:03:42Z</time>
      </trkpt>
      <trkpt lat="52.639596965163946" lon="10.078299036249518">
        <ele>52.049999999999997</ele>
        <time>2019-05-09T07:03:44Z</time>
      </trkpt>
      <trkpt lat="52.638891041278839" lon="10.078779989853501">
        <ele>54.93</ele>
        <time>2019-05-09T07:03:53Z</time>
      </trkpt>
      <trkpt lat="52.637881021946669" lon="10.079387007281184">
        <ele>55.890000000000001</ele>
        <time>2019-05-09T07:04:03Z</time>
      </trkpt>
      <trkpt lat="52.636713003739715" lon="10.079820016399026">
        <ele>56.859999999999999</ele>
        <time>2019-05-09T07:04:13Z</time>
      </trkpt>
      <trkpt lat="52.635659985244274" lon="10.080086980015039">
        <ele>54.93</ele>
        <time>2019-05-09T07:04:23Z</time>
      </trkpt>
      <trkpt lat="52.634801007807255" lon="10.080287978053093">
        <ele>54.93</ele>
        <time>2019-05-09T07:04:32Z</time>
      </trkpt>
      <trkpt lat="52.63449096120894" lon="10.080369031056762">
        <ele>54.93</ele>
        <time>2019-05-09T07:04:37Z</time>
      </trkpt>
      <trkpt lat="52.634456008672714" lon="10.080377999693155">
        <ele>54.93</ele>
        <time>2019-05-09T07:04:38Z</time>
      </trkpt>
      <trkpt lat="52.634432036429644" lon="10.080384034663439">
        <ele>54.93</ele>
        <time>2019-05-09T07:04:46Z</time>
      </trkpt>
      <trkpt lat="52.634323993697762" lon="10.080413036048412">
        <ele>55.890000000000001</ele>
        <time>2019-05-09T07:05:16Z</time>
      </trkpt>
      <trkpt lat="52.633555959910154" lon="10.080599030479789">
        <ele>54.93</ele>
        <time>2019-05-09T07:05:25Z</time>
      </trkpt>
      <trkpt lat="52.632386013865471" lon="10.080874962732196">
        <ele>57.82</ele>
        <time>2019-05-09T07:05:37Z</time>
      </trkpt>
      <trkpt lat="52.631494011729956" lon="10.081084007397294">
        <ele>57.340000000000003</ele>
        <time>2019-05-09T07:05:46Z</time>
      </trkpt>
      <trkpt lat="52.631382029503584" lon="10.081113008782268">
        <ele>56.859999999999999</ele>
        <time>2019-05-09T07:05:47Z</time>
      </trkpt>
      <trkpt lat="52.630720026791096" lon="10.081252986565232">
        <ele>53.009999999999998</ele>
        <time>2019-05-09T07:05:53Z</time>
      </trkpt>
      <trkpt lat="52.630604021251202" lon="10.08124896325171">
        <ele>52.530000000000001</ele>
        <time>2019-05-09T07:05:54Z</time>
      </trkpt>
      <trkpt lat="52.630489021539688" lon="10.081207975745201">
        <ele>52.049999999999997</ele>
        <time>2019-05-09T07:05:55Z</time>
      </trkpt>
      <trkpt lat="52.629688968881965" lon="10.080794999375939">
        <ele>47.719999999999999</ele>
        <time>2019-05-09T07:06:02Z</time>
      </trkpt>
      <trkpt lat="52.629443965852261" lon="10.080672958865762">
        <ele>47.240000000000002</ele>
        <time>2019-05-09T07:06:04Z</time>
      </trkpt>
      <trkpt lat="52.629319997504354" lon="10.080640017986298">
        <ele>46.759999999999998</ele>
        <time>2019-05-09T07:06:05Z</time>
      </trkpt>
      <trkpt lat="52.628958988934755" lon="10.080611016601324">
        <ele>45.799999999999997</ele>
        <time>2019-05-09T07:06:08Z</time>
      </trkpt>
      <trkpt lat="52.62787202373147" lon="10.080862976610661">
        <ele>40.030000000000001</ele>
        <time>2019-05-09T07:06:17Z</time>
      </trkpt>
      <trkpt lat="52.626843983307481" lon="10.080969007685781">
        <ele>36.670000000000002</ele>
        <time>2019-05-09T07:06:26Z</time>
      </trkpt>
      <trkpt lat="52.626739963889122" lon="10.080926008522511">
        <ele>36.189999999999998</ele>
        <time>2019-05-09T07:06:27Z</time>
      </trkpt>
      <trkpt lat="52.626637034118176" lon="10.080847973003983">
        <ele>35.710000000000001</ele>
        <time>2019-05-09T07:06:28Z</time>
      </trkpt>
      <trkpt lat="52.626554975286126" lon="10.080744959414005">
        <ele>35.229999999999997</ele>
        <time>2019-05-09T07:06:29Z</time>
      </trkpt>
      <trkpt lat="52.62647601775825" lon="10.08064697496593">
        <ele>34.740000000000002</ele>
        <time>2019-05-09T07:06:30Z</time>
      </trkpt>
      <trkpt lat="52.626403011381626" lon="10.080500962212682">
        <ele>34.740000000000002</ele>
        <time>2019-05-09T07:06:31Z</time>
      </trkpt>
      <trkpt lat="52.626371998339891" lon="10.080370036885142">
        <ele>34.259999999999998</ele>
        <time>2019-05-09T07:06:32Z</time>
      </trkpt>
      <trkpt lat="52.626342996954918" lon="10.080252019688487">
        <ele>34.740000000000002</ele>
        <time>2019-05-09T07:06:33Z</time>
      </trkpt>
      <trkpt lat="52.626258004456758" lon="10.079901991412044">
        <ele>35.229999999999997</ele>
        <time>2019-05-09T07:06:39Z</time>
      </trkpt>
      <trkpt lat="52.626190027222037" lon="10.079409973695874">
        <ele>37.630000000000003</ele>
        <time>2019-05-09T07:06:49Z</time>
      </trkpt>
      <trkpt lat="52.626186003908515" lon="10.07937703281641">
        <ele>38.109999999999999</ele>
        <time>2019-05-09T07:06:50Z</time>
      </trkpt>
      <trkpt lat="52.626249035820365" lon="10.079200007021427">
        <ele>38.109999999999999</ele>
        <time>2019-05-09T07:06:51Z</time>
      </trkpt>
      <trkpt lat="52.626209976151586" lon="10.079090958461165">
        <ele>38.590000000000003</ele>
        <time>2019-05-09T07:06:52Z</time>
      </trkpt>
      <trkpt lat="52.626186003908515" lon="10.07905500009656">
        <ele>39.07</ele>
        <time>2019-05-09T07:06:53Z</time>
      </trkpt>
      <trkpt lat="52.626069998368621" lon="10.078990962356329">
        <ele>39.07</ele>
        <time>2019-05-09T07:06:54Z</time>
      </trkpt>
      <trkpt lat="52.626021970063448" lon="10.078889960423112">
        <ele>39.07</ele>
        <time>2019-05-09T07:06:55Z</time>
      </trkpt>
      <trkpt lat="52.625970002263784" lon="10.078778984025121">
        <ele>39.07</ele>
        <time>2019-05-09T07:06:56Z</time>
      </trkpt>
      <trkpt lat="52.625913005322218" lon="10.078661972656846">
        <ele>38.109999999999999</ele>
        <time>2019-05-09T07:06:57Z</time>
      </trkpt>
      <trkpt lat="52.625600025057793" lon="10.078075993806124">
        <ele>33.780000000000001</ele>
        <time>2019-05-09T07:07:02Z</time>
      </trkpt>
      <trkpt lat="52.62555199675262" lon="10.07798002101481">
        <ele>33.299999999999997</ele>
        <time>2019-05-09T07:07:03Z</time>
      </trkpt>
      <trkpt lat="52.625504974275827" lon="10.077885976061225">
        <ele>31.859999999999999</ele>
        <time>2019-05-09T07:07:04Z</time>
      </trkpt>
      <trkpt lat="52.625276986509562" lon="10.077398987486959">
        <ele>26.57</ele>
        <time>2019-05-09T07:07:10Z</time>
      </trkpt>
      <trkpt lat="52.625234993174672" lon="10.07729203440249">
        <ele>24.649999999999999</ele>
        <time>2019-05-09T07:07:12Z</time>
      </trkpt>
      <trkpt lat="52.625214038416743" lon="10.077239982783794">
        <ele>23.690000000000001</ele>
        <time>2019-05-09T07:07:13Z</time>
      </trkpt>
      <trkpt lat="52.625195011496544" lon="10.077192038297653">
        <ele>22.73</ele>
        <time>2019-05-09T07:07:14Z</time>
      </trkpt>
      <trkpt lat="52.625153018161654" lon="10.077083995565772">
        <ele>21.77</ele>
        <time>2019-05-09T07:07:16Z</time>
      </trkpt>
      <trkpt lat="52.625108007341623" lon="10.076961033046246">
        <ele>20.809999999999999</ele>
        <time>2019-05-09T07:07:18Z</time>
      </trkpt>
      <trkpt lat="52.625084035098553" lon="10.076889032498002">
        <ele>20.809999999999999</ele>
        <time>2019-05-09T07:07:19Z</time>
      </trkpt>
      <trkpt lat="52.625055033713579" lon="10.076805967837572">
        <ele>20.32</ele>
        <time>2019-05-09T07:07:20Z</time>
      </trkpt>
      <trkpt lat="52.625025026500225" lon="10.076716030016541">
        <ele>19.359999999999999</ele>
        <time>2019-05-09T07:07:21Z</time>
      </trkpt>
      <trkpt lat="52.624990995973349" lon="10.076616033911705">
        <ele>18.879999999999999</ele>
        <time>2019-05-09T07:07:22Z</time>
      </trkpt>
      <trkpt lat="52.624953025951982" lon="10.076504973694682">
        <ele>18.399999999999999</ele>
        <time>2019-05-09T07:07:23Z</time>
      </trkpt>
      <trkpt lat="52.624774994328618" lon="10.075997030362487">
        <ele>16.48</ele>
        <time>2019-05-09T07:07:27Z</time>
      </trkpt>
      <trkpt lat="52.624727971851826" lon="10.075868032872677">
        <ele>16.48</ele>
        <time>2019-05-09T07:07:28Z</time>
      </trkpt>
      <trkpt lat="52.62450098991394" lon="10.075250035151839">
        <ele>18.399999999999999</ele>
        <time>2019-05-09T07:07:33Z</time>
      </trkpt>
      <trkpt lat="52.624320024624467" lon="10.074947029352188">
        <ele>20.809999999999999</ele>
        <time>2019-05-09T07:07:36Z</time>
      </trkpt>
      <trkpt lat="52.624193960800767" lon="10.074789030477405">
        <ele>22.25</ele>
        <time>2019-05-09T07:07:38Z</time>
      </trkpt>
      <trkpt lat="52.62413403019309" lon="10.074714012444019">
        <ele>23.210000000000001</ele>
        <time>2019-05-09T07:07:39Z</time>
      </trkpt>
      <trkpt lat="52.624065969139338" lon="10.074643017724156">
        <ele>24.170000000000002</ele>
        <time>2019-05-09T07:07:40Z</time>
      </trkpt>
      <trkpt lat="52.623993968591094" lon="10.074575962498784">
        <ele>24.649999999999999</ele>
        <time>2019-05-09T07:07:41Z</time>
      </trkpt>
      <trkpt lat="52.62391802854836" lon="10.074506979435682">
        <ele>25.129999999999999</ele>
        <time>2019-05-09T07:07:42Z</time>
      </trkpt>
      <trkpt lat="52.623762041330338" lon="10.074364989995956">
        <ele>26.57</ele>
        <time>2019-05-09T07:07:44Z</time>
      </trkpt>
      <trkpt lat="52.623529024422169" lon="10.074157034978271">
        <ele>28.02</ele>
        <time>2019-05-09T07:07:47Z</time>
      </trkpt>
      <trkpt lat="52.623455012217164" lon="10.074097020551562">
        <ele>28.98</ele>
        <time>2019-05-09T07:07:48Z</time>
      </trkpt>
      <trkpt lat="52.623377982527018" lon="10.074074976146221">
        <ele>29.460000000000001</ele>
        <time>2019-05-09T07:07:49Z</time>
      </trkpt>
      <trkpt lat="52.623305981978774" lon="10.074057038873434">
        <ele>30.420000000000002</ele>
        <time>2019-05-09T07:07:50Z</time>
      </trkpt>
      <trkpt lat="52.623238004744053" lon="10.074077993631363">
        <ele>30.899999999999999</ele>
        <time>2019-05-09T07:07:51Z</time>
      </trkpt>
      <trkpt lat="52.623188970610499" lon="10.07409299723804">
        <ele>31.379999999999999</ele>
        <time>2019-05-09T07:07:52Z</time>
      </trkpt>
      <trkpt lat="52.623101966455579" lon="10.074118981137872">
        <ele>34.259999999999998</ele>
        <time>2019-05-09T07:07:56Z</time>
      </trkpt>
      <trkpt lat="52.622812036424875" lon="10.074270023033023">
        <ele>38.590000000000003</ele>
        <time>2019-05-09T07:08:05Z</time>
      </trkpt>
      <trkpt lat="52.622430995106697" lon="10.074505973607302">
        <ele>40.509999999999998</ele>
        <time>2019-05-09T07:08:14Z</time>
      </trkpt>
      <trkpt lat="52.622430995106697" lon="10.074505973607302">
        <ele>40.990000000000002</ele>
        <time>2019-05-09T07:08:24Z</time>
      </trkpt>
      <trkpt lat="52.622430995106697" lon="10.074505973607302">
        <ele>41.469999999999999</ele>
        <time>2019-05-09T07:08:56Z</time>
      </trkpt>
      <trkpt lat="52.622228991240263" lon="10.074606975540519">
        <ele>42.439999999999998</ele>
        <time>2019-05-09T07:09:05Z</time>
      </trkpt>
      <trkpt lat="52.622167970985174" lon="10.074636982753873">
        <ele>42.439999999999998</ele>
        <time>2019-05-09T07:09:06Z</time>
      </trkpt>
      <trkpt lat="52.622118014842272" lon="10.074695991352201">
        <ele>41.950000000000003</ele>
        <time>2019-05-09T07:09:07Z</time>
      </trkpt>
      <trkpt lat="52.622082978487015" lon="10.074805039912462">
        <ele>41.469999999999999</ele>
        <time>2019-05-09T07:09:08Z</time>
      </trkpt>
      <trkpt lat="52.622047020122409" lon="10.074918027967215">
        <ele>41.469999999999999</ele>
        <time>2019-05-09T07:09:09Z</time>
      </trkpt>
      <trkpt lat="52.622010977938771" lon="10.075033027678728">
        <ele>40.990000000000002</ele>
        <time>2019-05-09T07:09:10Z</time>
      </trkpt>
      <trkpt lat="52.621959010139108" lon="10.075282976031303">
        <ele>40.509999999999998</ele>
        <time>2019-05-09T07:09:12Z</time>
      </trkpt>
      <trkpt lat="52.621947024017572" lon="10.075414991006255">
        <ele>40.509999999999998</ele>
        <time>2019-05-09T07:09:13Z</time>
      </trkpt>
      <trkpt lat="52.621935959905386" lon="10.075550023466349">
        <ele>40.509999999999998</ele>
        <time>2019-05-09T07:09:14Z</time>
      </trkpt>
      <trkpt lat="52.621916010975838" lon="10.075935004279017">
        <ele>39.07</ele>
        <time>2019-05-09T07:09:17Z</time>
      </trkpt>
      <trkpt lat="52.621916010975838" lon="10.076057966798544">
        <ele>38.590000000000003</ele>
        <time>2019-05-09T07:09:18Z</time>
      </trkpt>
      <trkpt lat="52.621916010975838" lon="10.076168021187186">
        <ele>38.109999999999999</ele>
        <time>2019-05-09T07:09:19Z</time>
      </trkpt>
      <trkpt lat="52.621916010975838" lon="10.076269023120403">
        <ele>37.630000000000003</ele>
        <time>2019-05-09T07:09:20Z</time>
      </trkpt>
      <trkpt lat="52.621806962415576" lon="10.076393997296691">
        <ele>37.149999999999999</ele>
        <time>2019-05-09T07:09:21Z</time>
      </trkpt>
      <trkpt lat="52.621731022372842" lon="10.076393997296691">
        <ele>36.670000000000002</ele>
        <time>2019-05-09T07:09:22Z</time>
      </trkpt>
      <trkpt lat="52.621644018217921" lon="10.076384022831917">
        <ele>36.189999999999998</ele>
        <time>2019-05-09T07:09:23Z</time>
      </trkpt>
      <trkpt lat="52.621550979092717" lon="10.076357033103704">
        <ele>35.710000000000001</ele>
        <time>2019-05-09T07:09:24Z</time>
      </trkpt>
      <trkpt lat="52.621452994644642" lon="10.076329037547112">
        <ele>35.229999999999997</ele>
        <time>2019-05-09T07:09:25Z</time>
      </trkpt>
      <trkpt lat="52.620464013889432" lon="10.076056038960814">
        <ele>32.82</ele>
        <time>2019-05-09T07:09:35Z</time>
      </trkpt>
      <trkpt lat="52.619550973176956" lon="10.07579100318253">
        <ele>33.780000000000001</ele>
        <time>2019-05-09T07:09:45Z</time>
      </trkpt>
      <trkpt lat="52.618609014898539" lon="10.075599979609251">
        <ele>23.690000000000001</ele>
        <time>2019-05-09T07:09:54Z</time>
      </trkpt>
      <trkpt lat="52.618254963308573" lon="10.075615989044309">
        <ele>16.48</ele>
        <time>2019-05-09T07:10:01Z</time>
      </trkpt>
      <trkpt lat="52.618105011060834" lon="10.075645996257663">
        <ele>13.6</ele>
        <time>2019-05-09T07:10:07Z</time>
      </trkpt>
      <trkpt lat="52.618013983592391" lon="10.07572403177619">
        <ele>13.119999999999999</ele>
        <time>2019-05-09T07:10:08Z</time>
      </trkpt>
      <trkpt lat="52.618020018562675" lon="10.075796032324433">
        <ele>12.630000000000001</ele>
        <time>2019-05-09T07:10:09Z</time>
      </trkpt>
      <trkpt lat="52.618027981370687" lon="10.075884964317083">
        <ele>13.119999999999999</ele>
        <time>2019-05-09T07:10:10Z</time>
      </trkpt>
      <trkpt lat="52.618038039654493" lon="10.075993007048965">
        <ele>12.630000000000001</ele>
        <time>2019-05-09T07:10:11Z</time>
      </trkpt>
      <trkpt lat="52.618049019947648" lon="10.076120998710394">
        <ele>12.630000000000001</ele>
        <time>2019-05-09T07:10:12Z</time>
      </trkpt>
      <trkpt lat="52.618078021332622" lon="10.076443031430244">
        <ele>13.119999999999999</ele>
        <time>2019-05-09T07:10:14Z</time>
      </trkpt>
      <trkpt lat="52.618095958605409" lon="10.076651992276311">
        <ele>13.119999999999999</ele>
        <time>2019-05-09T07:10:15Z</time>
      </trkpt>
      <trkpt lat="52.618179023265839" lon="10.078215971589088">
        <ele>17.440000000000001</ele>
        <time>2019-05-09T07:10:24Z</time>
      </trkpt>
      <trkpt lat="52.618263009935617" lon="10.078763980418444">
        <ele>19.359999999999999</ele>
        <time>2019-05-09T07:10:32Z</time>
      </trkpt>
      <trkpt lat="52.618295028805733" lon="10.078960033133626">
        <ele>19.359999999999999</ele>
        <time>2019-05-09T07:10:44Z</time>
      </trkpt>
      <trkpt lat="52.618368035182357" lon="10.080150011926889">
        <ele>21.289999999999999</ele>
        <time>2019-05-09T07:10:53Z</time>
      </trkpt>
      <trkpt lat="52.618374992161989" lon="10.080677988007665">
        <ele>22.25</ele>
        <time>2019-05-09T07:10:57Z</time>
      </trkpt>
      <trkpt lat="52.618374992161989" lon="10.080774966627359">
        <ele>22.73</ele>
        <time>2019-05-09T07:10:58Z</time>
      </trkpt>
      <trkpt lat="52.618374992161989" lon="10.081093981862068">
        <ele>22.73</ele>
        <time>2019-05-09T07:11:03Z</time>
      </trkpt>
      <trkpt lat="52.618374992161989" lon="10.081175034865737">
        <ele>22.73</ele>
        <time>2019-05-09T07:11:04Z</time>
      </trkpt>
      <trkpt lat="52.618374992161989" lon="10.081291040405631">
        <ele>24.170000000000002</ele>
        <time>2019-05-09T07:11:11Z</time>
      </trkpt>
      <trkpt lat="52.618374992161989" lon="10.081466976553202">
        <ele>24.649999999999999</ele>
        <time>2019-05-09T07:11:17Z</time>
      </trkpt>
      <trkpt lat="52.618369041010737" lon="10.082039041444659">
        <ele>25.129999999999999</ele>
        <time>2019-05-09T07:11:21Z</time>
      </trkpt>
      <trkpt lat="52.618341967463493" lon="10.082606999203563">
        <ele>25.129999999999999</ele>
        <time>2019-05-09T07:11:24Z</time>
      </trkpt>
      <trkpt lat="52.618053965270519" lon="10.084309028461576">
        <ele>27.050000000000001</ele>
        <time>2019-05-09T07:11:33Z</time>
      </trkpt>
      <trkpt lat="52.617995040491223" lon="10.084603987634182">
        <ele>28.5</ele>
        <time>2019-05-09T07:11:35Z</time>
      </trkpt>
      <trkpt lat="52.617841986939311" lon="10.085231959819794">
        <ele>28.98</ele>
        <time>2019-05-09T07:11:42Z</time>
      </trkpt>
      <trkpt lat="52.617833018302917" lon="10.08526599034667">
        <ele>29.460000000000001</ele>
        <time>2019-05-09T07:11:43Z</time>
      </trkpt>
      <trkpt lat="52.617825977504253" lon="10.085293985903263">
        <ele>29.460000000000001</ele>
        <time>2019-05-09T07:11:44Z</time>
      </trkpt>
      <trkpt lat="52.617805022746325" lon="10.085373027250171">
        <ele>29.460000000000001</ele>
        <time>2019-05-09T07:11:56Z</time>
      </trkpt>
      <trkpt lat="52.617589021101594" lon="10.086157992482185">
        <ele>29.460000000000001</ele>
        <time>2019-05-09T07:12:02Z</time>
      </trkpt>
      <trkpt lat="52.617103038355708" lon="10.087522985413671">
        <ele>30.420000000000002</ele>
        <time>2019-05-09T07:12:10Z</time>
      </trkpt>
      <trkpt lat="52.617026008665562" lon="10.087684001773596">
        <ele>29.940000000000001</ele>
        <time>2019-05-09T07:12:11Z</time>
      </trkpt>
      <trkpt lat="52.616797015070915" lon="10.088136959820986">
        <ele>30.899999999999999</ele>
        <time>2019-05-09T07:12:14Z</time>
      </trkpt>
      <trkpt lat="52.616513958200812" lon="10.088825030252337">
        <ele>33.299999999999997</ele>
        <time>2019-05-09T07:12:19Z</time>
      </trkpt>
      <trkpt lat="52.616476994007826" lon="10.088928965851665">
        <ele>34.740000000000002</ele>
        <time>2019-05-09T07:12:20Z</time>
      </trkpt>
      <trkpt lat="52.616290999576449" lon="10.089449984952807">
        <ele>39.549999999999997</ele>
        <time>2019-05-09T07:12:27Z</time>
      </trkpt>
      <trkpt lat="52.616171976551414" lon="10.089854998514056">
        <ele>39.549999999999997</ele>
        <time>2019-05-09T07:12:30Z</time>
      </trkpt>
      <trkpt lat="52.616125959903002" lon="10.090006962418556">
        <ele>39.07</ele>
        <time>2019-05-09T07:12:31Z</time>
      </trkpt>
      <trkpt lat="52.616116991266608" lon="10.090168984606862">
        <ele>38.590000000000003</ele>
        <time>2019-05-09T07:12:32Z</time>
      </trkpt>
      <trkpt lat="52.616111040115356" lon="10.090321032330394">
        <ele>38.109999999999999</ele>
        <time>2019-05-09T07:12:33Z</time>
      </trkpt>
      <trkpt lat="52.616105005145073" lon="10.090475007891655">
        <ele>38.109999999999999</ele>
        <time>2019-05-09T07:12:34Z</time>
      </trkpt>
      <trkpt lat="52.616096036508679" lon="10.091037014499307">
        <ele>37.149999999999999</ele>
        <time>2019-05-09T07:12:38Z</time>
      </trkpt>
      <trkpt lat="52.616095030680299" lon="10.091162994503975">
        <ele>37.149999999999999</ele>
        <time>2019-05-09T07:12:39Z</time>
      </trkpt>
      <trkpt lat="52.616093019023538" lon="10.091288974508643">
        <ele>36.670000000000002</ele>
        <time>2019-05-09T07:12:40Z</time>
      </trkpt>
      <trkpt lat="52.616090001538396" lon="10.091533977538347">
        <ele>37.149999999999999</ele>
        <time>2019-05-09T07:12:42Z</time>
      </trkpt>
      <trkpt lat="52.616088995710015" lon="10.091649983078241">
        <ele>37.149999999999999</ele>
        <time>2019-05-09T07:12:43Z</time>
      </trkpt>
      <trkpt lat="52.616086984053254" lon="10.091875959187746">
        <ele>37.149999999999999</ele>
        <time>2019-05-09T07:12:45Z</time>
      </trkpt>
      <trkpt lat="52.616059994325042" lon="10.093336002901196">
        <ele>40.030000000000001</ele>
        <time>2019-05-09T07:12:57Z</time>
      </trkpt>
      <trkpt lat="52.616040967404842" lon="10.094306040555239">
        <ele>39.549999999999997</ele>
        <time>2019-05-09T07:13:05Z</time>
      </trkpt>
      <trkpt lat="52.616038033738732" lon="10.094387009739876">
        <ele>39.549999999999997</ele>
        <time>2019-05-09T07:13:06Z</time>
      </trkpt>
      <trkpt lat="52.616037027910352" lon="10.094445012509823">
        <ele>39.549999999999997</ele>
        <time>2019-05-09T07:13:07Z</time>
      </trkpt>
      <trkpt lat="52.616037027910352" lon="10.094490023329854">
        <ele>39.549999999999997</ele>
        <time>2019-05-09T07:13:08Z</time>
      </trkpt>
      <trkpt lat="52.616037027910352" lon="10.094521958380938">
        <ele>39.549999999999997</ele>
        <time>2019-05-09T07:13:09Z</time>
      </trkpt>
      <trkpt lat="52.616037027910352" lon="10.094521958380938">
        <ele>39.07</ele>
        <time>2019-05-09T07:13:10Z</time>
      </trkpt>
      <trkpt lat="52.616037027910352" lon="10.094521958380938">
        <ele>39.07</ele>
        <time>2019-05-09T07:13:27Z</time>
      </trkpt>
      <trkpt lat="52.616037027910352" lon="10.09471801109612">
        <ele>38.590000000000003</ele>
        <time>2019-05-09T07:13:39Z</time>
      </trkpt>
      <trkpt lat="52.615953041240573" lon="10.094870980829">
        <ele>39.07</ele>
        <time>2019-05-09T07:13:40Z</time>
      </trkpt>
      <trkpt lat="52.615886991843581" lon="10.094906017184258">
        <ele>39.07</ele>
        <time>2019-05-09T07:13:41Z</time>
      </trkpt>
      <trkpt lat="52.615803005173802" lon="10.094951028004289">
        <ele>39.07</ele>
        <time>2019-05-09T07:13:42Z</time>
      </trkpt>
      <trkpt lat="52.615705020725727" lon="10.095004001632333">
        <ele>39.549999999999997</ele>
        <time>2019-05-09T07:13:43Z</time>
      </trkpt>
      <trkpt lat="52.615607036277652" lon="10.095065021887422">
        <ele>39.549999999999997</ele>
        <time>2019-05-09T07:13:44Z</time>
      </trkpt>
      <trkpt lat="52.615507040172815" lon="10.095135010778904">
        <ele>39.549999999999997</ele>
        <time>2019-05-09T07:13:45Z</time>
      </trkpt>
      <trkpt lat="52.615404026582837" lon="10.095221009105444">
        <ele>40.030000000000001</ele>
        <time>2019-05-09T07:13:46Z</time>
      </trkpt>
      <trkpt lat="52.614225028082728" lon="10.096192974597216">
        <ele>39.07</ele>
        <time>2019-05-09T07:13:57Z</time>
      </trkpt>
      <trkpt lat="52.612762972712517" lon="10.097328973934054">
        <ele>37.630000000000003</ele>
        <time>2019-05-09T07:14:11Z</time>
      </trkpt>
      <trkpt lat="52.611519014462829" lon="10.098293982446194">
        <ele>36.189999999999998</ele>
        <time>2019-05-09T07:14:22Z</time>
      </trkpt>
      <trkpt lat="52.609713971614838" lon="10.099719995632768">
        <ele>34.259999999999998</ele>
        <time>2019-05-09T07:14:37Z</time>
      </trkpt>
      <trkpt lat="52.608581995591521" lon="10.100594982504845">
        <ele>35.229999999999997</ele>
        <time>2019-05-09T07:14:46Z</time>
      </trkpt>
      <trkpt lat="52.607408026233315" lon="10.101506011560559">
        <ele>34.740000000000002</ele>
        <time>2019-05-09T07:14:56Z</time>
      </trkpt>
      <trkpt lat="52.606921959668398" lon="10.101905995979905">
        <ele>36.670000000000002</ele>
        <time>2019-05-09T07:15:04Z</time>
      </trkpt>
      <trkpt lat="52.606898993253708" lon="10.101922005414963">
        <ele>36.670000000000002</ele>
        <time>2019-05-09T07:15:13Z</time>
      </trkpt>
      <trkpt lat="52.606675028800964" lon="10.102080004289746">
        <ele>37.630000000000003</ele>
        <time>2019-05-09T07:15:25Z</time>
      </trkpt>
      <trkpt lat="52.605941025540233" lon="10.102660031989217">
        <ele>39.07</ele>
        <time>2019-05-09T07:15:31Z</time>
      </trkpt>
      <trkpt lat="52.604721039533615" lon="10.103577012196183">
        <ele>41.469999999999999</ele>
        <time>2019-05-09T07:15:40Z</time>
      </trkpt>
      <trkpt lat="52.604588018730283" lon="10.103648006916046">
        <ele>41.469999999999999</ele>
        <time>2019-05-09T07:15:41Z</time>
      </trkpt>
      <trkpt lat="52.60445499792695" lon="10.103717995807528">
        <ele>41.469999999999999</ele>
        <time>2019-05-09T07:15:42Z</time>
      </trkpt>
      <trkpt lat="52.604323988780379" lon="10.103792008012533">
        <ele>41.469999999999999</ele>
        <time>2019-05-09T07:15:43Z</time>
      </trkpt>
      <trkpt lat="52.604205971583724" lon="10.10391497053206">
        <ele>41.950000000000003</ele>
        <time>2019-05-09T07:15:44Z</time>
      </trkpt>
      <trkpt lat="52.60408703237772" lon="10.104037011042237">
        <ele>41.950000000000003</ele>
        <time>2019-05-09T07:15:45Z</time>
      </trkpt>
      <trkpt lat="52.602911973372102" lon="10.104925995692611">
        <ele>41.950000000000003</ele>
        <time>2019-05-09T07:15:54Z</time>
      </trkpt>
      <trkpt lat="52.601841017603874" lon="10.105858985334635">
        <ele>41.469999999999999</ele>
        <time>2019-05-09T07:16:02Z</time>
      </trkpt>
      <trkpt lat="52.600750029087067" lon="10.106736989691854">
        <ele>41.469999999999999</ele>
        <time>2019-05-09T07:16:11Z</time>
      </trkpt>
      <trkpt lat="52.600379968062043" lon="10.107019040733576">
        <ele>40.509999999999998</ele>
        <time>2019-05-09T07:16:17Z</time>
      </trkpt>
      <trkpt lat="52.600379968062043" lon="10.107019040733576">
        <ele>40.509999999999998</ele>
        <time>2019-05-09T07:16:27Z</time>
      </trkpt>
      <trkpt lat="52.60028600692749" lon="10.107084000483155">
        <ele>40.509999999999998</ele>
        <time>2019-05-09T07:16:58Z</time>
      </trkpt>
      <trkpt lat="52.599644958972931" lon="10.107603007927537">
        <ele>40.990000000000002</ele>
        <time>2019-05-09T07:17:05Z</time>
      </trkpt>
      <trkpt lat="52.598521029576659" lon="10.108470031991601">
        <ele>41.469999999999999</ele>
        <time>2019-05-09T07:17:14Z</time>
      </trkpt>
      <trkpt lat="52.596854036673903" lon="10.109776016324759">
        <ele>41.950000000000003</ele>
        <time>2019-05-09T07:17:26Z</time>
      </trkpt>
      <trkpt lat="52.595384018495679" lon="10.110905980691314">
        <ele>42.439999999999998</ele>
        <time>2019-05-09T07:17:35Z</time>
      </trkpt>
      <trkpt lat="52.593858009204268" lon="10.112097971141338">
        <ele>40.990000000000002</ele>
        <time>2019-05-09T07:17:44Z</time>
      </trkpt>
      <trkpt lat="52.591707967221737" lon="10.113792959600687">
        <ele>38.590000000000003</ele>
        <time>2019-05-09T07:17:58Z</time>
      </trkpt>
      <trkpt lat="52.590498961508274" lon="10.114729972556233">
        <ele>40.990000000000002</ele>
        <time>2019-05-09T07:18:06Z</time>
      </trkpt>
      <trkpt lat="52.58889801800251" lon="10.115990024060011">
        <ele>38.590000000000003</ele>
        <time>2019-05-09T07:18:16Z</time>
      </trkpt>
      <trkpt lat="52.587096998468041" lon="10.117392987012863">
        <ele>37.149999999999999</ele>
        <time>2019-05-09T07:18:27Z</time>
      </trkpt>
      <trkpt lat="52.585623040795326" lon="10.118547007441521">
        <ele>37.149999999999999</ele>
        <time>2019-05-09T07:18:36Z</time>
      </trkpt>
      <trkpt lat="52.583917994052172" lon="10.119896996766329">
        <ele>39.549999999999997</ele>
        <time>2019-05-09T07:18:47Z</time>
      </trkpt>
      <trkpt lat="52.582479994744062" lon="10.121003994718194">
        <ele>40.509999999999998</ele>
        <time>2019-05-09T07:18:55Z</time>
      </trkpt>
      <trkpt lat="52.580791041254997" lon="10.122312996536493">
        <ele>41.950000000000003</ele>
        <time>2019-05-09T07:19:04Z</time>
      </trkpt>
      <trkpt lat="52.579228989779949" lon="10.123546980321407">
        <ele>41.469999999999999</ele>
        <time>2019-05-09T07:19:13Z</time>
      </trkpt>
      <trkpt lat="52.57826498709619" lon="10.124317025765777">
        <ele>41.469999999999999</ele>
        <time>2019-05-09T07:19:20Z</time>
      </trkpt>
      <trkpt lat="52.577341971918941" lon="10.125041976571083">
        <ele>41.950000000000003</ele>
        <time>2019-05-09T07:19:28Z</time>
      </trkpt>
      <trkpt lat="52.57718900218606" lon="10.1251620054245">
        <ele>42.439999999999998</ele>
        <time>2019-05-09T07:19:30Z</time>
      </trkpt>
      <trkpt lat="52.577167963609099" lon="10.125297959893942">
        <ele>42.920000000000002</ele>
        <time>2019-05-09T07:19:31Z</time>
      </trkpt>
      <trkpt lat="52.577181039378047" lon="10.125411031767726">
        <ele>42.920000000000002</ele>
        <time>2019-05-09T07:19:32Z</time>
      </trkpt>
      <trkpt lat="52.577197970822453" lon="10.125560984015465">
        <ele>43.399999999999999</ele>
        <time>2019-05-09T07:19:33Z</time>
      </trkpt>
      <trkpt lat="52.577221021056175" lon="10.125753013417125">
        <ele>43.399999999999999</ele>
        <time>2019-05-09T07:19:34Z</time>
      </trkpt>
      <trkpt lat="52.577245999127626" lon="10.125971026718616">
        <ele>43.880000000000003</ele>
        <time>2019-05-09T07:19:35Z</time>
      </trkpt>
      <trkpt lat="52.577270977199078" lon="10.126189962029457">
        <ele>43.880000000000003</ele>
        <time>2019-05-09T07:19:36Z</time>
      </trkpt>
      <trkpt lat="52.577296039089561" lon="10.126405041664839">
        <ele>43.880000000000003</ele>
        <time>2019-05-09T07:19:37Z</time>
      </trkpt>
      <trkpt lat="52.577353036031127" lon="10.126856993883848">
        <ele>44.359999999999999</ele>
        <time>2019-05-09T07:19:39Z</time>
      </trkpt>
      <trkpt lat="52.577586974948645" lon="10.128519041463733">
        <ele>44.359999999999999</ele>
        <time>2019-05-09T07:19:44Z</time>
      </trkpt>
      <trkpt lat="52.578101959079504" lon="10.132390977814794">
        <ele>44.359999999999999</ele>
        <time>2019-05-09T07:19:53Z</time>
      </trkpt>
      <trkpt lat="52.578682992607355" lon="10.136820981279016">
        <ele>44.359999999999999</ele>
        <time>2019-05-09T07:20:03Z</time>
      </trkpt>
      <trkpt lat="52.579241981729865" lon="10.14108401723206">
        <ele>45.32</ele>
        <time>2019-05-09T07:20:13Z</time>
      </trkpt>
      <trkpt lat="52.579442979767919" lon="10.143329026177526">
        <ele>45.32</ele>
        <time>2019-05-09T07:20:19Z</time>
      </trkpt>
      <trkpt lat="52.579180039465427" lon="10.145040024071932">
        <ele>45.32</ele>
        <time>2019-05-09T07:20:25Z</time>
      </trkpt>
      <trkpt lat="52.578891031444073" lon="10.146103017032146">
        <ele>44.840000000000003</ele>
        <time>2019-05-09T07:20:31Z</time>
      </trkpt>
      <trkpt lat="52.578879967331886" lon="10.146273002028465">
        <ele>44.359999999999999</ele>
        <time>2019-05-09T07:20:32Z</time>
      </trkpt>
      <trkpt lat="52.578874016180634" lon="10.146451033651829">
        <ele>44.359999999999999</ele>
        <time>2019-05-09T07:20:33Z</time>
      </trkpt>
      <trkpt lat="52.578870998695493" lon="10.147404978051782">
        <ele>44.359999999999999</ele>
        <time>2019-05-09T07:20:38Z</time>
      </trkpt>
      <trkpt lat="52.578860018402338" lon="10.147599019110203">
        <ele>44.359999999999999</ele>
        <time>2019-05-09T07:20:39Z</time>
      </trkpt>
      <trkpt lat="52.578645022585988" lon="10.149809997528791">
        <ele>42.920000000000002</ele>
        <time>2019-05-09T07:20:50Z</time>
      </trkpt>
      <trkpt lat="52.578708976507187" lon="10.151820983737707">
        <ele>40.990000000000002</ele>
        <time>2019-05-09T07:20:59Z</time>
      </trkpt>
      <trkpt lat="52.578790029510856" lon="10.154171017929912">
        <ele>40.509999999999998</ele>
        <time>2019-05-09T07:21:08Z</time>
      </trkpt>
      <trkpt lat="52.578901005908847" lon="10.157224964350462">
        <ele>40.509999999999998</ele>
        <time>2019-05-09T07:21:17Z</time>
      </trkpt>
      <trkpt lat="52.57903503254056" lon="10.161124980077147">
        <ele>43.399999999999999</ele>
        <time>2019-05-09T07:21:28Z</time>
      </trkpt>
      <trkpt lat="52.578982980921865" lon="10.164034003391862">
        <ele>46.280000000000001</ele>
        <time>2019-05-09T07:21:35Z</time>
      </trkpt>
      <trkpt lat="52.578958002850413" lon="10.166678996756673">
        <ele>48.200000000000003</ele>
        <time>2019-05-09T07:21:42Z</time>
      </trkpt>
      <trkpt lat="52.57903796620667" lon="10.167996967211366">
        <ele>47.240000000000002</ele>
        <time>2019-05-09T07:21:46Z</time>
      </trkpt>
      <trkpt lat="52.579499976709485" lon="10.170505000278354">
        <ele>44.840000000000003</ele>
        <time>2019-05-09T07:21:53Z</time>
      </trkpt>
      <trkpt lat="52.580012027174234" lon="10.173084028065205">
        <ele>44.840000000000003</ele>
        <time>2019-05-09T07:22:00Z</time>
      </trkpt>
      <trkpt lat="52.580052008852363" lon="10.173772014677525">
        <ele>44.840000000000003</ele>
        <time>2019-05-09T07:22:02Z</time>
      </trkpt>
      <trkpt lat="52.580035999417305" lon="10.175730027258396">
        <ele>45.799999999999997</ele>
        <time>2019-05-09T07:22:09Z</time>
      </trkpt>
      <trkpt lat="52.579950001090765" lon="10.177981993183494">
        <ele>43.880000000000003</ele>
        <time>2019-05-09T07:22:18Z</time>
      </trkpt>
      <trkpt lat="52.579669039696455" lon="10.17958402633667">
        <ele>44.359999999999999</ele>
        <time>2019-05-09T07:22:25Z</time>
      </trkpt>
      <trkpt lat="52.579418001696467" lon="10.18147699534893">
        <ele>46.759999999999998</ele>
        <time>2019-05-09T07:22:35Z</time>
      </trkpt>
      <trkpt lat="52.579527972266078" lon="10.183057989925146">
        <ele>46.759999999999998</ele>
        <time>2019-05-09T07:22:42Z</time>
      </trkpt>
      <trkpt lat="52.579549010843039" lon="10.183284971863031">
        <ele>46.759999999999998</ele>
        <time>2019-05-09T07:22:43Z</time>
      </trkpt>
      <trkpt lat="52.579577006399632" lon="10.183509020134807">
        <ele>46.759999999999998</ele>
        <time>2019-05-09T07:22:44Z</time>
      </trkpt>
      <trkpt lat="52.5797029864043" lon="10.184516021981835">
        <ele>45.799999999999997</ele>
        <time>2019-05-09T07:22:49Z</time>
      </trkpt>
      <trkpt lat="52.579709021374583" lon="10.184695981442928">
        <ele>45.32</ele>
        <time>2019-05-09T07:22:50Z</time>
      </trkpt>
      <trkpt lat="52.579709021374583" lon="10.184868983924389">
        <ele>45.32</ele>
        <time>2019-05-09T07:22:51Z</time>
      </trkpt>
      <trkpt lat="52.579709021374583" lon="10.185030000284314">
        <ele>45.32</ele>
        <time>2019-05-09T07:22:52Z</time>
      </trkpt>
      <trkpt lat="52.579709021374583" lon="10.185184981673956">
        <ele>44.840000000000003</ele>
        <time>2019-05-09T07:22:53Z</time>
      </trkpt>
      <trkpt lat="52.579709021374583" lon="10.185335017740726">
        <ele>44.840000000000003</ele>
        <time>2019-05-09T07:22:54Z</time>
      </trkpt>
      <trkpt lat="52.57968001998961" lon="10.185444988310337">
        <ele>44.359999999999999</ele>
        <time>2019-05-09T07:22:55Z</time>
      </trkpt>
      <trkpt lat="52.579654036089778" lon="10.185540961101651">
        <ele>44.359999999999999</ele>
        <time>2019-05-09T07:22:56Z</time>
      </trkpt>
      <trkpt lat="52.579632997512817" lon="10.185621008276939">
        <ele>43.880000000000003</ele>
        <time>2019-05-09T07:22:57Z</time>
      </trkpt>
      <trkpt lat="52.579542975872755" lon="10.185709018260241">
        <ele>43.399999999999999</ele>
        <time>2019-05-09T07:22:58Z</time>
      </trkpt>
      <trkpt lat="52.579492013901472" lon="10.185680016875267">
        <ele>43.399999999999999</ele>
        <time>2019-05-09T07:22:59Z</time>
      </trkpt>
      <trkpt lat="52.579430993646383" lon="10.185647998005152">
        <ele>43.399999999999999</ele>
        <time>2019-05-09T07:23:00Z</time>
      </trkpt>
      <trkpt lat="52.57878097705543" lon="10.185374999418855">
        <ele>44.840000000000003</ele>
        <time>2019-05-09T07:23:06Z</time>
      </trkpt>
      <trkpt lat="52.578661032021046" lon="10.185324037447572">
        <ele>45.32</ele>
        <time>2019-05-09T07:23:07Z</time>
      </trkpt>
      <trkpt lat="52.578535974025726" lon="10.185305010527372">
        <ele>46.759999999999998</ele>
        <time>2019-05-09T07:23:08Z</time>
      </trkpt>
      <trkpt lat="52.578409994021058" lon="10.185295036062598">
        <ele>47.240000000000002</ele>
        <time>2019-05-09T07:23:09Z</time>
      </trkpt>
      <trkpt lat="52.577337026596069" lon="10.185425039380789">
        <ele>49.649999999999999</ele>
        <time>2019-05-09T07:23:17Z</time>
      </trkpt>
      <trkpt lat="52.575853010639548" lon="10.186024010181427">
        <ele>44.840000000000003</ele>
        <time>2019-05-09T07:23:28Z</time>
      </trkpt>
      <trkpt lat="52.574725979939103" lon="10.186523990705609">
        <ele>43.880000000000003</ele>
        <time>2019-05-09T07:23:37Z</time>
      </trkpt>
      <trkpt lat="52.573268031701446" lon="10.187181970104575">
        <ele>44.359999999999999</ele>
        <time>2019-05-09T07:23:48Z</time>
      </trkpt>
      <trkpt lat="52.572266981005669" lon="10.18787900917232">
        <ele>42.439999999999998</ele>
        <time>2019-05-09T07:23:55Z</time>
      </trkpt>
      <trkpt lat="52.571653006598353" lon="10.188302965834737">
        <ele>40.990000000000002</ele>
        <time>2019-05-09T07:23:59Z</time>
      </trkpt>
      <trkpt lat="52.571341032162309" lon="10.188463982194662">
        <ele>41.469999999999999</ele>
        <time>2019-05-09T07:24:01Z</time>
      </trkpt>
      <trkpt lat="52.570061031728983" lon="10.188488960266113">
        <ele>43.880000000000003</ele>
        <time>2019-05-09T07:24:09Z</time>
      </trkpt>
      <trkpt lat="52.568303011357784" lon="10.188407991081476">
        <ele>42.920000000000002</ele>
        <time>2019-05-09T07:24:19Z</time>
      </trkpt>
      <trkpt lat="52.566444994881749" lon="10.18832802772522">
        <ele>42.439999999999998</ele>
        <time>2019-05-09T07:24:29Z</time>
      </trkpt>
    </trkseg>
  </trk>

  <trk>
    <name>Track vom: 2019-05-09 09:25</name>
    <extensions>
      <gpxx:TrackExtension>
        <gpxx:DisplayColor>DarkGray</gpxx:DisplayColor>
      </gpxx:TrackExtension>
    </extensions>
    <trkseg>
      <trkpt lat="52.561534037813544" lon="10.185936000198126">
        <ele>43.399999999999999</ele>
        <time>2019-05-09T07:25:02Z</time>
      </trkpt>
      <trkpt lat="52.560472972691059" lon="10.184965040534735">
        <ele>42.439999999999998</ele>
        <time>2019-05-09T07:25:12Z</time>
      </trkpt>
      <trkpt lat="52.560427039861679" lon="10.184924975037575">
        <ele>42.439999999999998</ele>
        <time>2019-05-09T07:25:13Z</time>
      </trkpt>
      <trkpt lat="52.560398960486054" lon="10.184899996966124">
        <ele>42.439999999999998</ele>
        <time>2019-05-09T07:25:14Z</time>
      </trkpt>
      <trkpt lat="52.560383034870028" lon="10.184885999187827">
        <ele>41.950000000000003</ele>
        <time>2019-05-09T07:25:15Z</time>
      </trkpt>
      <trkpt lat="52.560331989079714" lon="10.184840988367796">
        <ele>41.950000000000003</ele>
        <time>2019-05-09T07:25:27Z</time>
      </trkpt>
      <trkpt lat="52.560202991589904" lon="10.184650970622897">
        <ele>41.950000000000003</ele>
        <time>2019-05-09T07:25:29Z</time>
      </trkpt>
      <trkpt lat="52.560131996870041" lon="10.1845489628613">
        <ele>41.950000000000003</ele>
        <time>2019-05-09T07:25:30Z</time>
      </trkpt>
      <trkpt lat="52.560051027685404" lon="10.184429017826915">
        <ele>41.469999999999999</ele>
        <time>2019-05-09T07:25:31Z</time>
      </trkpt>
      <trkpt lat="52.559709968045354" lon="10.183597030118108">
        <ele>41.469999999999999</ele>
        <time>2019-05-09T07:25:36Z</time>
      </trkpt>
      <trkpt lat="52.55961500108242" lon="10.183467026799917">
        <ele>41.469999999999999</ele>
        <time>2019-05-09T07:25:37Z</time>
      </trkpt>
      <trkpt lat="52.559518022462726" lon="10.183335011824965">
        <ele>41.950000000000003</ele>
        <time>2019-05-09T07:25:38Z</time>
      </trkpt>
      <trkpt lat="52.559411991387606" lon="10.183221017941833">
        <ele>42.920000000000002</ele>
        <time>2019-05-09T07:25:39Z</time>
      </trkpt>
      <trkpt lat="52.559299003332853" lon="10.183122027665377">
        <ele>43.399999999999999</ele>
        <time>2019-05-09T07:25:40Z</time>
      </trkpt>
      <trkpt lat="52.55918400362134" lon="10.183037035167217">
        <ele>43.880000000000003</ele>
        <time>2019-05-09T07:25:41Z</time>
      </trkpt>
      <trkpt lat="52.558014979586005" lon="10.182002037763596">
        <ele>44.359999999999999</ele>
        <time>2019-05-09T07:25:51Z</time>
      </trkpt>
      <trkpt lat="52.556697009131312" lon="10.180705022066832">
        <ele>45.32</ele>
        <time>2019-05-09T07:26:02Z</time>
      </trkpt>
      <trkpt lat="52.555224979296327" lon="10.179360983893275">
        <ele>44.359999999999999</ele>
        <time>2019-05-09T07:26:13Z</time>
      </trkpt>
      <trkpt lat="52.55443699657917" lon="10.178743992000818">
        <ele>42.920000000000002</ele>
        <time>2019-05-09T07:26:19Z</time>
      </trkpt>
      <trkpt lat="52.554290983825922" lon="10.178736029192805">
        <ele>43.399999999999999</ele>
        <time>2019-05-09T07:26:22Z</time>
      </trkpt>
      <trkpt lat="52.552661960944533" lon="10.1791110355407">
        <ele>44.840000000000003</ele>
        <time>2019-05-09T07:26:31Z</time>
      </trkpt>
      <trkpt lat="52.551607014611363" lon="10.179486041888595">
        <ele>47.719999999999999</ele>
        <time>2019-05-09T07:26:39Z</time>
      </trkpt>
      <trkpt lat="52.55048300139606" lon="10.180228007957339">
        <ele>47.240000000000002</ele>
        <time>2019-05-09T07:26:48Z</time>
      </trkpt>
      <trkpt lat="52.550370013341308" lon="10.180213004350662">
        <ele>47.240000000000002</ele>
        <time>2019-05-09T07:26:49Z</time>
      </trkpt>
      <trkpt lat="52.549710022285581" lon="10.180159024894238">
        <ele>49.159999999999997</ele>
        <time>2019-05-09T07:26:54Z</time>
      </trkpt>
      <trkpt lat="52.549567027017474" lon="10.180180985480547">
        <ele>49.649999999999999</ele>
        <time>2019-05-09T07:26:55Z</time>
      </trkpt>
      <trkpt lat="52.548523982986808" lon="10.180339990183711">
        <ele>50.609999999999999</ele>
        <time>2019-05-09T07:27:03Z</time>
      </trkpt>
      <trkpt lat="52.548437984660268" lon="10.180351976305246">
        <ele>50.609999999999999</ele>
        <time>2019-05-09T07:27:04Z</time>
      </trkpt>
      <trkpt lat="52.548364978283644" lon="10.180584993213415">
        <ele>51.090000000000003</ele>
        <time>2019-05-09T07:27:05Z</time>
      </trkpt>
      <trkpt lat="52.548340000212193" lon="10.180740980431437">
        <ele>51.090000000000003</ele>
        <time>2019-05-09T07:27:06Z</time>
      </trkpt>
      <trkpt lat="52.548309992998838" lon="10.180924963206053">
        <ele>51.57</ele>
        <time>2019-05-09T07:27:07Z</time>
      </trkpt>
      <trkpt lat="52.548271017149091" lon="10.18111003562808">
        <ele>51.57</ele>
        <time>2019-05-09T07:27:08Z</time>
      </trkpt>
      <trkpt lat="52.547827027738094" lon="10.182965034618974">
        <ele>53.009999999999998</ele>
        <time>2019-05-09T07:27:16Z</time>
      </trkpt>
      <trkpt lat="52.547336015850306" lon="10.185105018317699">
        <ele>54.93</ele>
        <time>2019-05-09T07:27:24Z</time>
      </trkpt>
      <trkpt lat="52.546669989824295" lon="10.187500985339284">
        <ele>52.530000000000001</ele>
        <time>2019-05-09T07:27:34Z</time>
      </trkpt>
      <trkpt lat="52.54590698517859" lon="10.189567040652037">
        <ele>49.649999999999999</ele>
        <time>2019-05-09T07:27:44Z</time>
      </trkpt>
      <trkpt lat="52.545082960277796" lon="10.191823029890656">
        <ele>50.609999999999999</ele>
        <time>2019-05-09T07:27:54Z</time>
      </trkpt>
      <trkpt lat="52.544185006991029" lon="10.194273982197046">
        <ele>44.359999999999999</ele>
        <time>2019-05-09T07:28:04Z</time>
      </trkpt>
      <trkpt lat="52.543278001248837" lon="10.196740021929145">
        <ele>44.359999999999999</ele>
        <time>2019-05-09T07:28:12Z</time>
      </trkpt>
      <trkpt lat="52.542056003585458" lon="10.200069984421134">
        <ele>44.359999999999999</ele>
        <time>2019-05-09T07:28:21Z</time>
      </trkpt>
      <trkpt lat="52.540624961256981" lon="10.203929012641311">
        <ele>44.840000000000003</ele>
        <time>2019-05-09T07:28:31Z</time>
      </trkpt>
      <trkpt lat="52.538830982521176" lon="10.208560014143586">
        <ele>43.880000000000003</ele>
        <time>2019-05-09T07:28:44Z</time>
      </trkpt>
      <trkpt lat="52.537340009585023" lon="10.211259992793202">
        <ele>42.439999999999998</ele>
        <time>2019-05-09T07:28:53Z</time>
      </trkpt>
      <trkpt lat="52.535702018067241" lon="10.213371980935335">
        <ele>38.590000000000003</ele>
        <time>2019-05-09T07:29:02Z</time>
      </trkpt>
      <trkpt lat="52.534013986587524" lon="10.214996980503201">
        <ele>38.590000000000003</ele>
        <time>2019-05-09T07:29:10Z</time>
      </trkpt>
      <trkpt lat="52.531982967630029" lon="10.21651997230947">
        <ele>37.630000000000003</ele>
        <time>2019-05-09T07:29:18Z</time>
      </trkpt>
      <trkpt lat="52.529460014775395" lon="10.218163998797536">
        <ele>40.030000000000001</ele>
        <time>2019-05-09T07:29:28Z</time>
      </trkpt>
      <trkpt lat="52.52674100920558" lon="10.219692019745708">
        <ele>40.509999999999998</ele>
        <time>2019-05-09T07:29:39Z</time>
      </trkpt>
      <trkpt lat="52.523964000865817" lon="10.220937989652157">
        <ele>42.439999999999998</ele>
        <time>2019-05-09T07:29:50Z</time>
      </trkpt>
      <trkpt lat="52.520691035315394" lon="10.222183037549257">
        <ele>48.200000000000003</ele>
        <time>2019-05-09T07:30:03Z</time>
      </trkpt>
      <trkpt lat="52.517259987071157" lon="10.223352983593941">
        <ele>48.200000000000003</ele>
        <time>2019-05-09T07:30:16Z</time>
      </trkpt>
      <trkpt lat="52.514325985684991" lon="10.224414970725775">
        <ele>47.240000000000002</ele>
        <time>2019-05-09T07:30:27Z</time>
      </trkpt>
      <trkpt lat="52.511736983433366" lon="10.225649960339069">
        <ele>47.240000000000002</ele>
        <time>2019-05-09T07:30:37Z</time>
      </trkpt>
      <trkpt lat="52.509891036897898" lon="10.22676601074636">
        <ele>47.719999999999999</ele>
        <time>2019-05-09T07:30:46Z</time>
      </trkpt>
      <trkpt lat="52.509353002533317" lon="10.227125007659197">
        <ele>49.159999999999997</ele>
        <time>2019-05-09T07:30:50Z</time>
      </trkpt>
      <trkpt lat="52.509257029742002" lon="10.227189967408776">
        <ele>49.159999999999997</ele>
        <time>2019-05-09T07:30:51Z</time>
      </trkpt>
      <trkpt lat="52.509185029193759" lon="10.227241013199091">
        <ele>49.159999999999997</ele>
        <time>2019-05-09T07:30:52Z</time>
      </trkpt>
      <trkpt lat="52.509010015055537" lon="10.227061975747347">
        <ele>49.159999999999997</ele>
        <time>2019-05-09T07:30:53Z</time>
      </trkpt>
      <trkpt lat="52.508962992578745" lon="10.226929038763046">
        <ele>49.159999999999997</ele>
        <time>2019-05-09T07:30:54Z</time>
      </trkpt>
      <trkpt lat="52.508898032829165" lon="10.226759975776076">
        <ele>49.159999999999997</ele>
        <time>2019-05-09T07:30:55Z</time>
      </trkpt>
      <trkpt lat="52.508824020624161" lon="10.226569036021829">
        <ele>49.159999999999997</ele>
        <time>2019-05-09T07:30:56Z</time>
      </trkpt>
      <trkpt lat="52.508105020970106" lon="10.225160960108042">
        <ele>47.719999999999999</ele>
        <time>2019-05-09T07:31:02Z</time>
      </trkpt>
      <trkpt lat="52.506646988913417" lon="10.22371499799192">
        <ele>47.719999999999999</ele>
        <time>2019-05-09T07:31:09Z</time>
      </trkpt>
      <trkpt lat="52.504373984411359" lon="10.22146001458168">
        <ele>49.649999999999999</ele>
        <time>2019-05-09T07:31:20Z</time>
      </trkpt>
      <trkpt lat="52.502571037039161" lon="10.219681039452553">
        <ele>47.719999999999999</ele>
        <time>2019-05-09T07:31:30Z</time>
      </trkpt>
      <trkpt lat="52.500826008617878" lon="10.218244967982173">
        <ele>47.719999999999999</ele>
        <time>2019-05-09T07:31:39Z</time>
      </trkpt>
      <trkpt lat="52.497998038306832" lon="10.216919034719467">
        <ele>49.649999999999999</ele>
        <time>2019-05-09T07:31:50Z</time>
      </trkpt>
      <trkpt lat="52.494414020329714" lon="10.215368969365954">
        <ele>51.090000000000003</ele>
        <time>2019-05-09T07:32:03Z</time>
      </trkpt>
      <trkpt lat="52.490989007055759" lon="10.213844971731305">
        <ele>52.049999999999997</ele>
        <time>2019-05-09T07:32:15Z</time>
      </trkpt>
      <trkpt lat="52.488165982067585" lon="10.212587015703321">
        <ele>52.530000000000001</ele>
        <time>2019-05-09T07:32:25Z</time>
      </trkpt>
      <trkpt lat="52.484537959098816" lon="10.21095396950841">
        <ele>54.450000000000003</ele>
        <time>2019-05-09T07:32:38Z</time>
      </trkpt>
      <trkpt lat="52.481874022632837" lon="10.20977002568543">
        <ele>53.969999999999999</ele>
        <time>2019-05-09T07:32:48Z</time>
      </trkpt>
      <trkpt lat="52.478515980765224" lon="10.208282992243767">
        <ele>50.130000000000003</ele>
        <time>2019-05-09T07:33:01Z</time>
      </trkpt>
      <trkpt lat="52.476861979812384" lon="10.207571033388376">
        <ele>50.130000000000003</ele>
        <time>2019-05-09T07:33:10Z</time>
      </trkpt>
      <trkpt lat="52.475060960277915" lon="10.206930991262197">
        <ele>51.090000000000003</ele>
        <time>2019-05-09T07:33:22Z</time>
      </trkpt>
      <trkpt lat="52.473900988698006" lon="10.206555984914303">
        <ele>52.530000000000001</ele>
        <time>2019-05-09T07:33:32Z</time>
      </trkpt>
      <trkpt lat="52.473793029785156" lon="10.206520026549697">
        <ele>53.009999999999998</ele>
        <time>2019-05-09T07:33:38Z</time>
      </trkpt>
      <trkpt lat="52.473498992621899" lon="10.206421036273241">
        <ele>53.009999999999998</ele>
        <time>2019-05-09T07:33:47Z</time>
      </trkpt>
      <trkpt lat="52.472466006875038" lon="10.206038989126682">
        <ele>53.009999999999998</ele>
        <time>2019-05-09T07:33:55Z</time>
      </trkpt>
      <trkpt lat="52.471283990889788" lon="10.205627018585801">
        <ele>49.649999999999999</ele>
        <time>2019-05-09T07:34:04Z</time>
      </trkpt>
      <trkpt lat="52.4704509973526" lon="10.205335998907685">
        <ele>48.68</ele>
        <time>2019-05-09T07:34:12Z</time>
      </trkpt>
      <trkpt lat="52.470199959352612" lon="10.205241031944752">
        <ele>48.68</ele>
        <time>2019-05-09T07:34:15Z</time>
      </trkpt>
      <trkpt lat="52.46946101076901" lon="10.20500298589468">
        <ele>49.159999999999997</ele>
        <time>2019-05-09T07:34:24Z</time>
      </trkpt>
      <trkpt lat="52.46868702583015" lon="10.204730993136764">
        <ele>49.159999999999997</ele>
        <time>2019-05-09T07:34:33Z</time>
      </trkpt>
      <trkpt lat="52.467430997639894" lon="10.204352969303727">
        <ele>49.649999999999999</ele>
        <time>2019-05-09T07:34:46Z</time>
      </trkpt>
      <trkpt lat="52.46733795851469" lon="10.204350035637617">
        <ele>49.649999999999999</ele>
        <time>2019-05-09T07:34:47Z</time>
      </trkpt>
      <trkpt lat="52.466130964457989" lon="10.204643988981843">
        <ele>48.68</ele>
        <time>2019-05-09T07:35:00Z</time>
      </trkpt>
      <trkpt lat="52.46598201803863" lon="10.204682964831591">
        <ele>49.159999999999997</ele>
        <time>2019-05-09T07:35:02Z</time>
      </trkpt>
      <trkpt lat="52.465923009440303" lon="10.204698974266648">
        <ele>49.159999999999997</ele>
        <time>2019-05-09T07:35:03Z</time>
      </trkpt>
      <trkpt lat="52.465751012787223" lon="10.204757982864976">
        <ele>50.130000000000003</ele>
        <time>2019-05-09T07:35:07Z</time>
      </trkpt>
      <trkpt lat="52.465683035552502" lon="10.204676007851958">
        <ele>50.130000000000003</ele>
        <time>2019-05-09T07:35:08Z</time>
      </trkpt>
      <trkpt lat="52.465667026117444" lon="10.204600989818573">
        <ele>50.609999999999999</ele>
        <time>2019-05-09T07:35:09Z</time>
      </trkpt>
      <trkpt lat="52.465647999197245" lon="10.204511974006891">
        <ele>50.609999999999999</ele>
        <time>2019-05-09T07:35:10Z</time>
      </trkpt>
      <trkpt lat="52.465626038610935" lon="10.204409966245294">
        <ele>50.609999999999999</ele>
        <time>2019-05-09T07:35:11Z</time>
      </trkpt>
      <trkpt lat="52.465602988377213" lon="10.204301001504064">
        <ele>50.609999999999999</ele>
        <time>2019-05-09T07:35:12Z</time>
      </trkpt>
      <trkpt lat="52.465578010305762" lon="10.204183990135789">
        <ele>51.090000000000003</ele>
        <time>2019-05-09T07:35:13Z</time>
      </trkpt>
      <trkpt lat="52.465434009209275" lon="10.203622989356518">
        <ele>51.57</ele>
        <time>2019-05-09T07:35:18Z</time>
      </trkpt>
      <trkpt lat="52.465396961197257" lon="10.203527016565204">
        <ele>51.57</ele>
        <time>2019-05-09T07:35:19Z</time>
      </trkpt>
      <trkpt lat="52.465357985347509" lon="10.203474964946508">
        <ele>51.57</ele>
        <time>2019-05-09T07:35:20Z</time>
      </trkpt>
      <trkpt lat="52.465298976749182" lon="10.203442024067044">
        <ele>51.57</ele>
        <time>2019-05-09T07:35:21Z</time>
      </trkpt>
      <trkpt lat="52.465240973979235" lon="10.203410005196929">
        <ele>52.049999999999997</ele>
        <time>2019-05-09T07:35:22Z</time>
      </trkpt>
      <trkpt lat="52.465179031714797" lon="10.203381003811955">
        <ele>52.049999999999997</ele>
        <time>2019-05-09T07:35:23Z</time>
      </trkpt>
      <trkpt lat="52.464859010651708" lon="10.203344961628318">
        <ele>52.530000000000001</ele>
        <time>2019-05-09T07:35:28Z</time>
      </trkpt>
      <trkpt lat="52.464743005111814" lon="10.203286036849022">
        <ele>53.009999999999998</ele>
        <time>2019-05-09T07:35:30Z</time>
      </trkpt>
      <trkpt lat="52.464682990685105" lon="10.203256029635668">
        <ele>53.009999999999998</ele>
        <time>2019-05-09T07:35:31Z</time>
      </trkpt>
      <trkpt lat="52.464620964601636" lon="10.203220993280411">
        <ele>53.009999999999998</ele>
        <time>2019-05-09T07:35:32Z</time>
      </trkpt>
      <trkpt lat="52.464356012642384" lon="10.202993005514145">
        <ele>53.490000000000002</ele>
        <time>2019-05-09T07:35:37Z</time>
      </trkpt>
      <trkpt lat="52.464312007650733" lon="10.202956041321158">
        <ele>53.490000000000002</ele>
        <time>2019-05-09T07:35:38Z</time>
      </trkpt>
      <trkpt lat="52.464271020144224" lon="10.202921004965901">
        <ele>53.490000000000002</ele>
        <time>2019-05-09T07:35:39Z</time>
      </trkpt>
      <trkpt lat="52.464073039591312" lon="10.202757976949215">
        <ele>54.450000000000003</ele>
        <time>2019-05-09T07:35:49Z</time>
      </trkpt>
      <trkpt lat="52.463999027386308" lon="10.202642977237701">
        <ele>54.93</ele>
        <time>2019-05-09T07:35:55Z</time>
      </trkpt>
      <trkpt lat="52.463974971324205" lon="10.202556978911161">
        <ele>54.450000000000003</ele>
        <time>2019-05-09T07:35:56Z</time>
      </trkpt>
      <trkpt lat="52.463930966332555" lon="10.202527977526188">
        <ele>54.93</ele>
        <time>2019-05-09T07:35:57Z</time>
      </trkpt>
      <trkpt lat="52.463923003524542" lon="10.202522026374936">
        <ele>54.450000000000003</ele>
        <time>2019-05-09T07:35:58Z</time>
      </trkpt>
      <trkpt lat="52.46381001546979" lon="10.202588997781277">
        <ele>54.450000000000003</ele>
        <time>2019-05-09T07:35:59Z</time>
      </trkpt>
      <trkpt lat="52.463743966072798" lon="10.202540969476104">
        <ele>54.450000000000003</ele>
        <time>2019-05-09T07:36:00Z</time>
      </trkpt>
      <trkpt lat="52.463669031858444" lon="10.202490007504821">
        <ele>54.450000000000003</ele>
        <time>2019-05-09T07:36:01Z</time>
      </trkpt>
      <trkpt lat="52.463259994983673" lon="10.202245004475117">
        <ele>54.450000000000003</ele>
        <time>2019-05-09T07:36:09Z</time>
      </trkpt>
      <trkpt lat="52.463089004158974" lon="10.202141990885139">
        <ele>54.450000000000003</ele>
        <time>2019-05-09T07:36:13Z</time>
      </trkpt>
      <trkpt lat="52.463042987510562" lon="10.202115001156926">
        <ele>54.450000000000003</ele>
        <time>2019-05-09T07:36:14Z</time>
      </trkpt>
      <trkpt lat="52.462934022769332" lon="10.202049035578966">
        <ele>54.450000000000003</ele>
        <time>2019-05-09T07:36:16Z</time>
      </trkpt>
      <trkpt lat="52.462774012237787" lon="10.201968988403678">
        <ele>54.93</ele>
        <time>2019-05-09T07:36:18Z</time>
      </trkpt>
      <trkpt lat="52.461803974583745" lon="10.201474037021399">
        <ele>55.409999999999997</ele>
        <time>2019-05-09T07:36:26Z</time>
      </trkpt>
      <trkpt lat="52.460549036040902" lon="10.200825026258826">
        <ele>58.780000000000001</ele>
        <time>2019-05-09T07:36:36Z</time>
      </trkpt>
      <trkpt lat="52.459208015352488" lon="10.2001269813627">
        <ele>63.579999999999998</ele>
        <time>2019-05-09T07:36:47Z</time>
      </trkpt>
      <trkpt lat="52.45775300078094" lon="10.199349978938699">
        <ele>66.469999999999999</ele>
        <time>2019-05-09T07:36:58Z</time>
      </trkpt>
      <trkpt lat="52.456307960674167" lon="10.198576999828219">
        <ele>62.140000000000001</ele>
        <time>2019-05-09T07:37:07Z</time>
      </trkpt>
      <trkpt lat="52.454826040193439" lon="10.197838973253965">
        <ele>60.219999999999999</ele>
        <time>2019-05-09T07:37:17Z</time>
      </trkpt>
      <trkpt lat="52.454731995239854" lon="10.197788011282682">
        <ele>60.219999999999999</ele>
        <time>2019-05-09T07:37:18Z</time>
      </trkpt>
      <trkpt lat="52.454696036875248" lon="10.197565974667668">
        <ele>59.740000000000002</ele>
        <time>2019-05-09T07:37:19Z</time>
      </trkpt>
      <trkpt lat="52.454631999135017" lon="10.197485005483031">
        <ele>59.740000000000002</ele>
        <time>2019-05-09T07:37:20Z</time>
      </trkpt>
      <trkpt lat="52.454532003030181" lon="10.197471007704735">
        <ele>59.740000000000002</ele>
        <time>2019-05-09T07:37:21Z</time>
      </trkpt>
      <trkpt lat="52.454481963068247" lon="10.197479976341128">
        <ele>59.740000000000002</ele>
        <time>2019-05-09T07:37:22Z</time>
      </trkpt>
      <trkpt lat="52.454341985285282" lon="10.197591036558151">
        <ele>60.219999999999999</ele>
        <time>2019-05-09T07:37:23Z</time>
      </trkpt>
      <trkpt lat="52.454232014715672" lon="10.197534039616585">
        <ele>60.219999999999999</ele>
        <time>2019-05-09T07:37:24Z</time>
      </trkpt>
      <trkpt lat="52.4541010055691" lon="10.197464972734451">
        <ele>60.219999999999999</ele>
        <time>2019-05-09T07:37:25Z</time>
      </trkpt>
      <trkpt lat="52.45395197533071" lon="10.197387021034956">
        <ele>60.219999999999999</ele>
        <time>2019-05-09T07:37:26Z</time>
      </trkpt>
      <trkpt lat="52.452651020139456" lon="10.196720995008945">
        <ele>59.740000000000002</ele>
        <time>2019-05-09T07:37:33Z</time>
      </trkpt>
      <trkpt lat="52.450768025591969" lon="10.195753974840045">
        <ele>58.299999999999997</ele>
        <time>2019-05-09T07:37:40Z</time>
      </trkpt>
      <trkpt lat="52.447510985657573" lon="10.194058986380696">
        <ele>60.219999999999999</ele>
        <time>2019-05-09T07:37:51Z</time>
      </trkpt>
      <trkpt lat="52.444366011768579" lon="10.192424012348056">
        <ele>62.619999999999997</ele>
        <time>2019-05-09T07:38:02Z</time>
      </trkpt>
      <trkpt lat="52.440765984356403" lon="10.190567001700401">
        <ele>67.430000000000007</ele>
        <time>2019-05-09T07:38:15Z</time>
      </trkpt>
      <trkpt lat="52.437464017421007" lon="10.188803030177951">
        <ele>67.909999999999997</ele>
        <time>2019-05-09T07:38:27Z</time>
      </trkpt>
      <trkpt lat="52.43519595824182" lon="10.187583966180682">
        <ele>68.390000000000001</ele>
        <time>2019-05-09T07:38:36Z</time>
      </trkpt>
      <trkpt lat="52.432689014822245" lon="10.1862240023911">
        <ele>66.950000000000003</ele>
        <time>2019-05-09T07:38:46Z</time>
      </trkpt>
      <trkpt lat="52.430180981755257" lon="10.184835959225893">
        <ele>63.579999999999998</ele>
        <time>2019-05-09T07:38:56Z</time>
      </trkpt>
      <trkpt lat="52.427852991968393" lon="10.183680010959506">
        <ele>65.989999999999995</ele>
        <time>2019-05-09T07:39:05Z</time>
      </trkpt>
      <trkpt lat="52.425435986369848" lon="10.182779040187597">
        <ele>69.349999999999994</ele>
        <time>2019-05-09T07:39:14Z</time>
      </trkpt>
      <trkpt lat="52.422957960516214" lon="10.181793998926878">
        <ele>68.870000000000005</ele>
        <time>2019-05-09T07:39:24Z</time>
      </trkpt>
      <trkpt lat="52.421554997563362" lon="10.180693035945296">
        <ele>68.390000000000001</ele>
        <time>2019-05-09T07:39:31Z</time>
      </trkpt>
      <trkpt lat="52.421402027830482" lon="10.180434035137296">
        <ele>67.909999999999997</ele>
        <time>2019-05-09T07:39:32Z</time>
      </trkpt>
      <trkpt lat="52.421252997592092" lon="10.180163970217109">
        <ele>67.909999999999997</ele>
        <time>2019-05-09T07:39:33Z</time>
      </trkpt>
      <trkpt lat="52.421102039515972" lon="10.179890971630812">
        <ele>67.909999999999997</ele>
        <time>2019-05-09T07:39:34Z</time>
      </trkpt>
      <trkpt lat="52.420981004834175" lon="10.179574973881245">
        <ele>67.909999999999997</ele>
        <time>2019-05-09T07:39:35Z</time>
      </trkpt>
      <trkpt lat="52.420875979587436" lon="10.179241038858891">
        <ele>67.430000000000007</ele>
        <time>2019-05-09T07:39:36Z</time>
      </trkpt>
      <trkpt lat="52.420770032331347" lon="10.178904002532363">
        <ele>67.430000000000007</ele>
        <time>2019-05-09T07:39:37Z</time>
      </trkpt>
      <trkpt lat="52.420665007084608" lon="10.178568977862597">
        <ele>66.950000000000003</ele>
        <time>2019-05-09T07:39:38Z</time>
      </trkpt>
      <trkpt lat="52.420565010979772" lon="10.178221967071295">
        <ele>66.950000000000003</ele>
        <time>2019-05-09T07:39:39Z</time>
      </trkpt>
      <trkpt lat="52.419993029907346" lon="10.174711961299181">
        <ele>67.430000000000007</ele>
        <time>2019-05-09T07:39:48Z</time>
      </trkpt>
      <trkpt lat="52.419253997504711" lon="10.172108961269259">
        <ele>66.469999999999999</ele>
        <time>2019-05-09T07:39:55Z</time>
      </trkpt>
      <trkpt lat="52.418115986511111" lon="10.170359993353486">
        <ele>65.989999999999995</ele>
        <time>2019-05-09T07:40:01Z</time>
      </trkpt>
      <trkpt lat="52.416661977767944" lon="10.169333964586258">
        <ele>66.950000000000003</ele>
        <time>2019-05-09T07:40:07Z</time>
      </trkpt>
      <trkpt lat="52.415110990405083" lon="10.169132966548204">
        <ele>71.760000000000005</ele>
        <time>2019-05-09T07:40:13Z</time>
      </trkpt>
      <trkpt lat="52.412773026153445" lon="10.169908963143826">
        <ele>76.560000000000002</ele>
        <time>2019-05-09T07:40:22Z</time>
      </trkpt>
      <trkpt lat="52.41119597107172" lon="10.170477004721761">
        <ele>74.159999999999997</ele>
        <time>2019-05-09T07:40:29Z</time>
      </trkpt>
      <trkpt lat="52.409031009301543" lon="10.171237997710705">
        <ele>72.719999999999999</ele>
        <time>2019-05-09T07:40:39Z</time>
      </trkpt>
      <trkpt lat="52.407498965039849" lon="10.171297006309032">
        <ele>74.159999999999997</ele>
        <time>2019-05-09T07:40:45Z</time>
      </trkpt>
      <trkpt lat="52.406334970146418" lon="10.171492975205183">
        <ele>71.760000000000005</ele>
        <time>2019-05-09T07:40:50Z</time>
      </trkpt>
      <trkpt lat="52.405680008232594" lon="10.171942999586463">
        <ele>71.269999999999996</ele>
        <time>2019-05-09T07:40:53Z</time>
      </trkpt>
      <trkpt lat="52.40414896979928" lon="10.173143036663532">
        <ele>68.390000000000001</ele>
        <time>2019-05-09T07:41:00Z</time>
      </trkpt>
      <trkpt lat="52.403515968471766" lon="10.173326013609767">
        <ele>67.430000000000007</ele>
        <time>2019-05-09T07:41:03Z</time>
      </trkpt>
      <trkpt lat="52.403311030939221" lon="10.17333397641778">
        <ele>66.950000000000003</ele>
        <time>2019-05-09T07:41:04Z</time>
      </trkpt>
      <trkpt lat="52.403111038729548" lon="10.173325007781386">
        <ele>66.950000000000003</ele>
        <time>2019-05-09T07:41:05Z</time>
      </trkpt>
      <trkpt lat="52.402907023206353" lon="10.173255018889904">
        <ele>66.950000000000003</ele>
        <time>2019-05-09T07:41:06Z</time>
      </trkpt>
      <trkpt lat="52.402694039046764" lon="10.17318201251328">
        <ele>66.469999999999999</ele>
        <time>2019-05-09T07:41:07Z</time>
      </trkpt>
      <trkpt lat="52.402469990774989" lon="10.173104982823133">
        <ele>66.469999999999999</ele>
        <time>2019-05-09T07:41:08Z</time>
      </trkpt>
      <trkpt lat="52.40019497461617" lon="10.172161012887955">
        <ele>64.549999999999997</ele>
        <time>2019-05-09T07:41:17Z</time>
      </trkpt>
      <trkpt lat="52.397948959842324" lon="10.171211007982492">
        <ele>65.510000000000005</ele>
        <time>2019-05-09T07:41:26Z</time>
      </trkpt>
      <trkpt lat="52.397446967661381" lon="10.171064995229244">
        <ele>65.510000000000005</ele>
        <time>2019-05-09T07:41:29Z</time>
      </trkpt>
      <trkpt lat="52.397264996543527" lon="10.171146970242262">
        <ele>65.510000000000005</ele>
        <time>2019-05-09T07:41:30Z</time>
      </trkpt>
      <trkpt lat="52.397106997668743" lon="10.171217964962125">
        <ele>65.510000000000005</ele>
        <time>2019-05-09T07:41:31Z</time>
      </trkpt>
      <trkpt lat="52.396945981308818" lon="10.171309998258948">
        <ele>65.510000000000005</ele>
        <time>2019-05-09T07:41:32Z</time>
      </trkpt>
      <trkpt lat="52.396773984655738" lon="10.171434972435236">
        <ele>65.510000000000005</ele>
        <time>2019-05-09T07:41:33Z</time>
      </trkpt>
      <trkpt lat="52.396009974181652" lon="10.171927995979786">
        <ele>64.069999999999993</ele>
        <time>2019-05-09T07:41:37Z</time>
      </trkpt>
      <trkpt lat="52.395818028599024" lon="10.172010976821184">
        <ele>63.579999999999998</ele>
        <time>2019-05-09T07:41:38Z</time>
      </trkpt>
      <trkpt lat="52.394246002659202" lon="10.172097980976105">
        <ele>63.579999999999998</ele>
        <time>2019-05-09T07:41:45Z</time>
      </trkpt>
      <trkpt lat="52.392143988981843" lon="10.172377014532685">
        <ele>66.950000000000003</ele>
        <time>2019-05-09T07:41:54Z</time>
      </trkpt>
      <trkpt lat="52.389809964224696" lon="10.173188969492912">
        <ele>69.829999999999998</ele>
        <time>2019-05-09T07:42:05Z</time>
      </trkpt>
      <trkpt lat="52.388626020401716" lon="10.173595994710922">
        <ele>68.390000000000001</ele>
        <time>2019-05-09T07:42:14Z</time>
      </trkpt>
      <trkpt lat="52.38788103684783" lon="10.173791041597724">
        <ele>65.989999999999995</ele>
        <time>2019-05-09T07:42:20Z</time>
      </trkpt>
      <trkpt lat="52.387748016044497" lon="10.173791041597724">
        <ele>65.510000000000005</ele>
        <time>2019-05-09T07:42:21Z</time>
      </trkpt>
      <trkpt lat="52.387608960270882" lon="10.173791041597724">
        <ele>65.030000000000001</ele>
        <time>2019-05-09T07:42:22Z</time>
      </trkpt>
      <trkpt lat="52.387476023286581" lon="10.173737984150648">
        <ele>65.030000000000001</ele>
        <time>2019-05-09T07:42:23Z</time>
      </trkpt>
      <trkpt lat="52.387340990826488" lon="10.173666989430785">
        <ele>64.549999999999997</ele>
        <time>2019-05-09T07:42:24Z</time>
      </trkpt>
      <trkpt lat="52.385996030643582" lon="10.172988977283239">
        <ele>66.469999999999999</ele>
        <time>2019-05-09T07:42:34Z</time>
      </trkpt>
      <trkpt lat="52.385868038982153" lon="10.172968022525311">
        <ele>66.950000000000003</ele>
        <time>2019-05-09T07:42:35Z</time>
      </trkpt>
      <trkpt lat="52.38573401235044" lon="10.172958970069885">
        <ele>66.950000000000003</ele>
        <time>2019-05-09T07:42:36Z</time>
      </trkpt>
      <trkpt lat="52.385212993249297" lon="10.172897027805448">
        <ele>66.469999999999999</ele>
        <time>2019-05-09T07:42:40Z</time>
      </trkpt>
      <trkpt lat="52.38508902490139" lon="10.172864003106952">
        <ele>66.469999999999999</ele>
        <time>2019-05-09T07:42:41Z</time>
      </trkpt>
      <trkpt lat="52.384968996047974" lon="10.172782028093934">
        <ele>65.989999999999995</ele>
        <time>2019-05-09T07:42:42Z</time>
      </trkpt>
      <trkpt lat="52.384868999943137" lon="10.172663005068898">
        <ele>65.989999999999995</ele>
        <time>2019-05-09T07:42:43Z</time>
      </trkpt>
      <trkpt lat="52.384764980524778" lon="10.17253995873034">
        <ele>65.989999999999995</ele>
        <time>2019-05-09T07:42:44Z</time>
      </trkpt>
      <trkpt lat="52.38466096110642" lon="10.172410039231181">
        <ele>65.510000000000005</ele>
        <time>2019-05-09T07:42:45Z</time>
      </trkpt>
      <trkpt lat="52.384563982486725" lon="10.172264026477933">
        <ele>65.510000000000005</ele>
        <time>2019-05-09T07:42:46Z</time>
      </trkpt>
      <trkpt lat="52.384484019130468" lon="10.172057999297976">
        <ele>65.030000000000001</ele>
        <time>2019-05-09T07:42:47Z</time>
      </trkpt>
      <trkpt lat="52.384441019967198" lon="10.171846020966768">
        <ele>65.030000000000001</ele>
        <time>2019-05-09T07:42:48Z</time>
      </trkpt>
      <trkpt lat="52.384044975042343" lon="10.169863030314445">
        <ele>66.469999999999999</ele>
        <time>2019-05-09T07:42:56Z</time>
      </trkpt>
      <trkpt lat="52.3835429828614" lon="10.167085016146302">
        <ele>66.469999999999999</ele>
        <time>2019-05-09T07:43:06Z</time>
      </trkpt>
      <trkpt lat="52.38345698453486" lon="10.166600039228797">
        <ele>65.030000000000001</ele>
        <time>2019-05-09T07:43:10Z</time>
      </trkpt>
      <trkpt lat="52.38341398537159" lon="10.166364004835486">
        <ele>65.030000000000001</ele>
        <time>2019-05-09T07:43:13Z</time>
      </trkpt>
      <trkpt lat="52.383365035057068" lon="10.166090000420809">
        <ele>64.549999999999997</ele>
        <time>2019-05-09T07:43:16Z</time>
      </trkpt>
      <trkpt lat="52.383278030902147" lon="10.165599994361401">
        <ele>64.549999999999997</ele>
        <time>2019-05-09T07:43:19Z</time>
      </trkpt>
      <trkpt lat="52.383235031738877" lon="10.165362032130361">
        <ele>65.030000000000001</ele>
        <time>2019-05-09T07:43:20Z</time>
      </trkpt>
      <trkpt lat="52.382892966270447" lon="10.163450036197901">
        <ele>66.469999999999999</ele>
        <time>2019-05-09T07:43:26Z</time>
      </trkpt>
      <trkpt lat="52.382170027121902" lon="10.159414988011122">
        <ele>68.390000000000001</ele>
        <time>2019-05-09T07:43:36Z</time>
      </trkpt>
      <trkpt lat="52.381059005856514" lon="10.153242973610759">
        <ele>67.430000000000007</ele>
        <time>2019-05-09T07:43:51Z</time>
      </trkpt>
      <trkpt lat="52.379880007356405" lon="10.146813970059156">
        <ele>65.510000000000005</ele>
        <time>2019-05-09T07:44:07Z</time>
      </trkpt>
      <trkpt lat="52.379153966903687" lon="10.142954019829631">
        <ele>65.030000000000001</ele>
        <time>2019-05-09T07:44:17Z</time>
      </trkpt>
      <trkpt lat="52.378206979483366" lon="10.140627035871148">
        <ele>63.579999999999998</ele>
        <time>2019-05-09T07:44:24Z</time>
      </trkpt>
      <trkpt lat="52.376537974923849" lon="10.136704975739121">
        <ele>63.100000000000001</ele>
        <time>2019-05-09T07:44:35Z</time>
      </trkpt>
      <trkpt lat="52.375588975846767" lon="10.134474970400333">
        <ele>63.579999999999998</ele>
        <time>2019-05-09T07:44:43Z</time>
      </trkpt>
      <trkpt lat="52.374919010326266" lon="10.133017022162676">
        <ele>65.030000000000001</ele>
        <time>2019-05-09T07:44:51Z</time>
      </trkpt>
      <trkpt lat="52.374080987647176" lon="10.131678013131022">
        <ele>64.549999999999997</ele>
        <time>2019-05-09T07:45:01Z</time>
      </trkpt>
      <trkpt lat="52.373689971864223" lon="10.130892964079976">
        <ele>63.579999999999998</ele>
        <time>2019-05-09T07:45:06Z</time>
      </trkpt>
      <trkpt lat="52.373511018231511" lon="10.130356019362807">
        <ele>62.619999999999997</ele>
        <time>2019-05-09T07:45:09Z</time>
      </trkpt>
      <trkpt lat="52.373476987704635" lon="10.130163989961147">
        <ele>62.140000000000001</ele>
        <time>2019-05-09T07:45:10Z</time>
      </trkpt>
      <trkpt lat="52.373448992148042" lon="10.129971038550138">
        <ele>61.659999999999997</ele>
        <time>2019-05-09T07:45:11Z</time>
      </trkpt>
      <trkpt lat="52.373373974114656" lon="10.129206022247672">
        <ele>61.18</ele>
        <time>2019-05-09T07:45:15Z</time>
      </trkpt>
      <trkpt lat="52.373356036841869" lon="10.129025978967547">
        <ele>60.700000000000003</ele>
        <time>2019-05-09T07:45:16Z</time>
      </trkpt>
      <trkpt lat="52.373328963294625" lon="10.128848031163216">
        <ele>61.18</ele>
        <time>2019-05-09T07:45:17Z</time>
      </trkpt>
      <trkpt lat="52.373227961361408" lon="10.12851401232183">
        <ele>61.18</ele>
        <time>2019-05-09T07:45:19Z</time>
      </trkpt>
      <trkpt lat="52.372983964160085" lon="10.127882016822696">
        <ele>61.18</ele>
        <time>2019-05-09T07:45:23Z</time>
      </trkpt>
      <trkpt lat="52.372292960062623" lon="10.126263974234462">
        <ele>60.700000000000003</ele>
        <time>2019-05-09T07:45:33Z</time>
      </trkpt>
      <trkpt lat="52.372017027810216" lon="10.125617980957031">
        <ele>60.700000000000003</ele>
        <time>2019-05-09T07:45:40Z</time>
      </trkpt>
      <trkpt lat="52.371966987848282" lon="10.125501975417137">
        <ele>61.659999999999997</ele>
        <time>2019-05-09T07:45:47Z</time>
      </trkpt>
      <trkpt lat="52.371881995350122" lon="10.125295026227832">
        <ele>62.140000000000001</ele>
        <time>2019-05-09T07:45:49Z</time>
      </trkpt>
      <trkpt lat="52.371397018432617" lon="10.124175036326051">
        <ele>62.619999999999997</ele>
        <time>2019-05-09T07:45:56Z</time>
      </trkpt>
      <trkpt lat="52.370735015720129" lon="10.122689008712769">
        <ele>61.659999999999997</ele>
        <time>2019-05-09T07:46:04Z</time>
      </trkpt>
      <trkpt lat="52.37063099630177" lon="10.122513994574547">
        <ele>61.659999999999997</ele>
        <time>2019-05-09T07:46:05Z</time>
      </trkpt>
      <trkpt lat="52.369628017768264" lon="10.121476985514164">
        <ele>60.219999999999999</ele>
        <time>2019-05-09T07:46:13Z</time>
      </trkpt>
      <trkpt lat="52.368395961821079" lon="10.121225025504827">
        <ele>61.18</ele>
        <time>2019-05-09T07:46:20Z</time>
      </trkpt>
      <trkpt lat="52.367140017449856" lon="10.121170040220022">
        <ele>61.18</ele>
        <time>2019-05-09T07:46:28Z</time>
      </trkpt>
      <trkpt lat="52.367058964446187" lon="10.121159981936216">
        <ele>61.18</ele>
        <time>2019-05-09T07:46:29Z</time>
      </trkpt>
      <trkpt lat="52.36695502884686" lon="10.121143972501159">
        <ele>61.659999999999997</ele>
        <time>2019-05-09T07:46:35Z</time>
      </trkpt>
      <trkpt lat="52.36695502884686" lon="10.121143972501159">
        <ele>61.659999999999997</ele>
        <time>2019-05-09T07:47:21Z</time>
      </trkpt>
      <trkpt lat="52.366714971140027" lon="10.121116982772946">
        <ele>62.619999999999997</ele>
        <time>2019-05-09T07:47:26Z</time>
      </trkpt>
      <trkpt lat="52.365695983171463" lon="10.120980022475123">
        <ele>63.579999999999998</ele>
        <time>2019-05-09T07:47:33Z</time>
      </trkpt>
      <trkpt lat="52.364822002127767" lon="10.120857981964946">
        <ele>67.430000000000007</ele>
        <time>2019-05-09T07:47:40Z</time>
      </trkpt>
      <trkpt lat="52.364065032452345" lon="10.120752034708858">
        <ele>72.719999999999999</ele>
        <time>2019-05-09T07:47:48Z</time>
      </trkpt>
      <trkpt lat="52.362375995144248" lon="10.120474006980658">
        <ele>73.200000000000003</ele>
        <time>2019-05-09T07:48:02Z</time>
      </trkpt>
      <trkpt lat="52.361170006915927" lon="10.120030017569661">
        <ele>69.829999999999998</ele>
        <time>2019-05-09T07:48:12Z</time>
      </trkpt>
      <trkpt lat="52.360913017764688" lon="10.11987897567451">
        <ele>68.870000000000005</ele>
        <time>2019-05-09T07:48:14Z</time>
      </trkpt>
      <trkpt lat="52.359811970964074" lon="10.118941962718964">
        <ele>66.950000000000003</ele>
        <time>2019-05-09T07:48:25Z</time>
      </trkpt>
      <trkpt lat="52.359067993238568" lon="10.118282977491617">
        <ele>67.909999999999997</ele>
        <time>2019-05-09T07:48:35Z</time>
      </trkpt>
      <trkpt lat="52.359032034873962" lon="10.118249030783772">
        <ele>67.909999999999997</ele>
        <time>2019-05-09T07:48:36Z</time>
      </trkpt>
      <trkpt lat="52.359000016003847" lon="10.118219023570418">
        <ele>67.909999999999997</ele>
        <time>2019-05-09T07:48:37Z</time>
      </trkpt>
      <trkpt lat="52.358913011848927" lon="10.11813897639513">
        <ele>67.909999999999997</ele>
        <time>2019-05-09T07:48:39Z</time>
      </trkpt>
      <trkpt lat="52.358859032392502" lon="10.118090026080608">
        <ele>68.390000000000001</ele>
        <time>2019-05-09T07:48:40Z</time>
      </trkpt>
      <trkpt lat="52.358808992430568" lon="10.118045015260577">
        <ele>68.390000000000001</ele>
        <time>2019-05-09T07:48:41Z</time>
      </trkpt>
      <trkpt lat="52.358773034065962" lon="10.118011990562081">
        <ele>68.390000000000001</ele>
        <time>2019-05-09T07:48:42Z</time>
      </trkpt>
      <trkpt lat="52.358745960518718" lon="10.117988018319011">
        <ele>68.390000000000001</ele>
        <time>2019-05-09T07:48:43Z</time>
      </trkpt>
      <trkpt lat="52.358725005760789" lon="10.117968991398811">
        <ele>67.909999999999997</ele>
        <time>2019-05-09T07:48:44Z</time>
      </trkpt>
      <trkpt lat="52.358643030747771" lon="10.117894979193807">
        <ele>67.909999999999997</ele>
        <time>2019-05-09T07:48:51Z</time>
      </trkpt>
      <trkpt lat="52.358098039403558" lon="10.117360968142748">
        <ele>69.829999999999998</ele>
        <time>2019-05-09T07:48:57Z</time>
      </trkpt>
      <trkpt lat="52.356972014531493" lon="10.116301998496056">
        <ele>70.790000000000006</ele>
        <time>2019-05-09T07:49:06Z</time>
      </trkpt>
      <trkpt lat="52.35520301386714" lon="10.114671969786286">
        <ele>68.870000000000005</ele>
        <time>2019-05-09T07:49:20Z</time>
      </trkpt>
      <trkpt lat="52.354399021714926" lon="10.113931009545922">
        <ele>65.510000000000005</ele>
        <time>2019-05-09T07:49:26Z</time>
      </trkpt>
      <trkpt lat="52.354235993698239" lon="10.113793965429068">
        <ele>65.030000000000001</ele>
        <time>2019-05-09T07:49:27Z</time>
      </trkpt>
      <trkpt lat="52.354094004258513" lon="10.113688018172979">
        <ele>64.549999999999997</ele>
        <time>2019-05-09T07:49:28Z</time>
      </trkpt>
      <trkpt lat="52.353003015741706" lon="10.113187031820416">
        <ele>68.390000000000001</ele>
        <time>2019-05-09T07:49:36Z</time>
      </trkpt>
      <trkpt lat="52.352866977453232" lon="10.11317596770823">
        <ele>68.870000000000005</ele>
        <time>2019-05-09T07:49:37Z</time>
      </trkpt>
      <trkpt lat="52.352729011327028" lon="10.113189965486526">
        <ele>69.829999999999998</ele>
        <time>2019-05-09T07:49:38Z</time>
      </trkpt>
      <trkpt lat="52.352599008008838" lon="10.113244028761983">
        <ele>70.310000000000002</ele>
        <time>2019-05-09T07:49:39Z</time>
      </trkpt>
      <trkpt lat="52.352466993033886" lon="10.113319968804717">
        <ele>70.310000000000002</ele>
        <time>2019-05-09T07:49:40Z</time>
      </trkpt>
      <trkpt lat="52.352344030514359" lon="10.113407978788018">
        <ele>70.790000000000006</ele>
        <time>2019-05-09T07:49:41Z</time>
      </trkpt>
      <trkpt lat="52.352221990004182" lon="10.113529013469815">
        <ele>71.269999999999996</ele>
        <time>2019-05-09T07:49:42Z</time>
      </trkpt>
      <trkpt lat="52.352099027484655" lon="10.1136489585042">
        <ele>71.269999999999996</ele>
        <time>2019-05-09T07:49:43Z</time>
      </trkpt>
      <trkpt lat="52.351273996755481" lon="10.114388996735215">
        <ele>73.680000000000007</ele>
        <time>2019-05-09T07:49:50Z</time>
      </trkpt>
      <trkpt lat="52.351154973730445" lon="10.114453034475446">
        <ele>73.680000000000007</ele>
        <time>2019-05-09T07:49:51Z</time>
      </trkpt>
      <trkpt lat="52.351026982069016" lon="10.114457979798317">
        <ele>73.200000000000003</ele>
        <time>2019-05-09T07:49:52Z</time>
      </trkpt>
      <trkpt lat="52.350893039256334" lon="10.114454962313175">
        <ele>73.200000000000003</ele>
        <time>2019-05-09T07:49:53Z</time>
      </trkpt>
      <trkpt lat="52.350753983482718" lon="10.114452028647065">
        <ele>73.200000000000003</ele>
        <time>2019-05-09T07:49:54Z</time>
      </trkpt>
      <trkpt lat="52.348917005583644" lon="10.114381033927202">
        <ele>69.829999999999998</ele>
        <time>2019-05-09T07:50:07Z</time>
      </trkpt>
      <trkpt lat="52.347544971853495" lon="10.114301992580295">
        <ele>72.239999999999995</ele>
        <time>2019-05-09T07:50:17Z</time>
      </trkpt>
      <trkpt lat="52.346215015277267" lon="10.114209959283471">
        <ele>73.200000000000003</ele>
        <time>2019-05-09T07:50:26Z</time>
      </trkpt>
      <trkpt lat="52.344883969053626" lon="10.114136030897498">
        <ele>74.159999999999997</ele>
        <time>2019-05-09T07:50:34Z</time>
      </trkpt>
      <trkpt lat="52.343294005841017" lon="10.114050032570958">
        <ele>78.969999999999999</ele>
        <time>2019-05-09T07:50:44Z</time>
      </trkpt>
      <trkpt lat="52.341508995741606" lon="10.113970991224051">
        <ele>83.290000000000006</ele>
        <time>2019-05-09T07:50:55Z</time>
      </trkpt>
      <trkpt lat="52.340003019198775" lon="10.113887004554272">
        <ele>87.620000000000005</ele>
        <time>2019-05-09T07:51:04Z</time>
      </trkpt>
      <trkpt lat="52.338282968848944" lon="10.113803017884493">
        <ele>83.769999999999996</ele>
        <time>2019-05-09T07:51:12Z</time>
      </trkpt>
      <trkpt lat="52.335108993574977" lon="10.113639989867806">
        <ele>75.599999999999994</ele>
        <time>2019-05-09T07:51:28Z</time>
      </trkpt>
      <trkpt lat="52.3322360124439" lon="10.113508980721235">
        <ele>73.680000000000007</ele>
        <time>2019-05-09T07:51:43Z</time>
      </trkpt>
      <trkpt lat="52.329603005200624" lon="10.113398004323244">
        <ele>72.719999999999999</ele>
        <time>2019-05-09T07:51:56Z</time>
      </trkpt>
      <trkpt lat="52.327797040343285" lon="10.113303037360311">
        <ele>72.719999999999999</ele>
        <time>2019-05-09T07:52:05Z</time>
      </trkpt>
      <trkpt lat="52.325479025021195" lon="10.113209998235106">
        <ele>71.269999999999996</ele>
        <time>2019-05-09T07:52:19Z</time>
      </trkpt>
      <trkpt lat="52.32394496910274" lon="10.11326196603477">
        <ele>72.239999999999995</ele>
        <time>2019-05-09T07:52:27Z</time>
      </trkpt>
      <trkpt lat="52.32183700427413" lon="10.113425999879837">
        <ele>72.719999999999999</ele>
        <time>2019-05-09T07:52:35Z</time>
      </trkpt>
      <trkpt lat="52.318774005398154" lon="10.113623980432749">
        <ele>74.640000000000001</ele>
        <time>2019-05-09T07:52:46Z</time>
      </trkpt>
      <trkpt lat="52.317357966676354" lon="10.113378977403045">
        <ele>74.640000000000001</ele>
        <time>2019-05-09T07:52:52Z</time>
      </trkpt>
      <trkpt lat="52.316084001213312" lon="10.112613961100578">
        <ele>75.599999999999994</ele>
        <time>2019-05-09T07:52:58Z</time>
      </trkpt>
      <trkpt lat="52.315863976255059" lon="10.112556964159012">
        <ele>75.599999999999994</ele>
        <time>2019-05-09T07:52:59Z</time>
      </trkpt>
      <trkpt lat="52.315639005973935" lon="10.112512037158012">
        <ele>76.079999999999998</ele>
        <time>2019-05-09T07:53:00Z</time>
      </trkpt>
      <trkpt lat="52.313951980322599" lon="10.112871034070849">
        <ele>77.040000000000006</ele>
        <time>2019-05-09T07:53:07Z</time>
      </trkpt>
      <trkpt lat="52.310976991429925" lon="10.113739985972643">
        <ele>75.599999999999994</ele>
        <time>2019-05-09T07:53:19Z</time>
      </trkpt>
      <trkpt lat="52.308154972270131" lon="10.114535009488463">
        <ele>74.159999999999997</ele>
        <time>2019-05-09T07:53:30Z</time>
      </trkpt>
      <trkpt lat="52.30626099742949" lon="10.114663001149893">
        <ele>74.640000000000001</ele>
        <time>2019-05-09T07:53:38Z</time>
      </trkpt>
      <trkpt lat="52.303677024319768" lon="10.114566022530198">
        <ele>70.790000000000006</ele>
        <time>2019-05-09T07:53:50Z</time>
      </trkpt>
      <trkpt lat="52.302411021664739" lon="10.114459991455078">
        <ele>69.349999999999994</ele>
        <time>2019-05-09T07:53:58Z</time>
      </trkpt>
      <trkpt lat="52.302137017250061" lon="10.114438030868769">
        <ele>68.390000000000001</ele>
        <time>2019-05-09T07:54:05Z</time>
      </trkpt>
      <trkpt lat="52.301945993676782" lon="10.114423027262092">
        <ele>68.390000000000001</ele>
        <time>2019-05-09T07:54:10Z</time>
      </trkpt>
      <trkpt lat="52.301863012835383" lon="10.114397965371609">
        <ele>68.390000000000001</ele>
        <time>2019-05-09T07:54:11Z</time>
      </trkpt>
      <trkpt lat="52.301785983145237" lon="10.114275002852082">
        <ele>68.390000000000001</ele>
        <time>2019-05-09T07:54:13Z</time>
      </trkpt>
      <trkpt lat="52.301750024780631" lon="10.114258993417025">
        <ele>67.909999999999997</ele>
        <time>2019-05-09T07:54:15Z</time>
      </trkpt>
      <trkpt lat="52.301681963726878" lon="10.114310039207339">
        <ele>67.909999999999997</ele>
        <time>2019-05-09T07:54:16Z</time>
      </trkpt>
      <trkpt lat="52.301594959571958" lon="10.114398971199989">
        <ele>67.909999999999997</ele>
        <time>2019-05-09T07:54:18Z</time>
      </trkpt>
      <trkpt lat="52.301456993445754" lon="10.114407017827034">
        <ele>67.909999999999997</ele>
        <time>2019-05-09T07:54:19Z</time>
      </trkpt>
      <trkpt lat="52.300665993243456" lon="10.114452028647065">
        <ele>68.870000000000005</ele>
        <time>2019-05-09T07:54:26Z</time>
      </trkpt>
      <trkpt lat="52.29932002723217" lon="10.114540038630366">
        <ele>69.349999999999994</ele>
        <time>2019-05-09T07:54:34Z</time>
      </trkpt>
      <trkpt lat="52.29771195910871" lon="10.114651015028358">
        <ele>71.269999999999996</ele>
        <time>2019-05-09T07:54:45Z</time>
      </trkpt>
      <trkpt lat="52.297126986086369" lon="10.114780012518167">
        <ele>72.239999999999995</ele>
        <time>2019-05-09T07:54:48Z</time>
      </trkpt>
      <trkpt lat="52.296926993876696" lon="10.114895012229681">
        <ele>72.719999999999999</ele>
        <time>2019-05-09T07:54:49Z</time>
      </trkpt>
      <trkpt lat="52.295834999531507" lon="10.115659022703767">
        <ele>71.760000000000005</ele>
        <time>2019-05-09T07:54:55Z</time>
      </trkpt>
      <trkpt lat="52.295706002041698" lon="10.115736974403262">
        <ele>71.760000000000005</ele>
        <time>2019-05-09T07:54:56Z</time>
      </trkpt>
      <trkpt lat="52.295578010380268" lon="10.115781985223293">
        <ele>71.760000000000005</ele>
        <time>2019-05-09T07:54:57Z</time>
      </trkpt>
      <trkpt lat="52.294645020738244" lon="10.115845017135143">
        <ele>70.790000000000006</ele>
        <time>2019-05-09T07:55:06Z</time>
      </trkpt>
      <trkpt lat="52.294459026306868" lon="10.115954987704754">
        <ele>71.269999999999996</ele>
        <time>2019-05-09T07:55:08Z</time>
      </trkpt>
      <trkpt lat="52.294373027980328" lon="10.116050038486719">
        <ele>71.269999999999996</ele>
        <time>2019-05-09T07:55:09Z</time>
      </trkpt>
      <trkpt lat="52.294287029653788" lon="10.116143999621272">
        <ele>71.269999999999996</ele>
        <time>2019-05-09T07:55:10Z</time>
      </trkpt>
      <trkpt lat="52.294214023277164" lon="10.116252964362502">
        <ele>70.310000000000002</ele>
        <time>2019-05-09T07:55:11Z</time>
      </trkpt>
      <trkpt lat="52.294143028557301" lon="10.116386990994215">
        <ele>69.829999999999998</ele>
        <time>2019-05-09T07:55:12Z</time>
      </trkpt>
      <trkpt lat="52.294076979160309" lon="10.11652504093945">
        <ele>69.349999999999994</ele>
        <time>2019-05-09T07:55:13Z</time>
      </trkpt>
      <trkpt lat="52.294014031067491" lon="10.11665697209537">
        <ele>69.349999999999994</ele>
        <time>2019-05-09T07:55:14Z</time>
      </trkpt>
      <trkpt lat="52.293900959193707" lon="10.116895018145442">
        <ele>68.870000000000005</ele>
        <time>2019-05-09T07:55:16Z</time>
      </trkpt>
      <trkpt lat="52.293845973908901" lon="10.117011023685336">
        <ele>68.390000000000001</ele>
        <time>2019-05-09T07:55:17Z</time>
      </trkpt>
      <trkpt lat="52.293791994452477" lon="10.117125017568469">
        <ele>68.870000000000005</ele>
        <time>2019-05-09T07:55:18Z</time>
      </trkpt>
      <trkpt lat="52.293313974514604" lon="10.117520978674293">
        <ele>70.310000000000002</ele>
        <time>2019-05-09T07:55:24Z</time>
      </trkpt>
      <trkpt lat="52.293236022815108" lon="10.117574958130717">
        <ele>70.790000000000006</ele>
        <time>2019-05-09T07:55:25Z</time>
      </trkpt>
      <trkpt lat="52.292219968512654" lon="10.118337962776423">
        <ele>73.200000000000003</ele>
        <time>2019-05-09T07:55:36Z</time>
      </trkpt>
      <trkpt lat="52.291470961645246" lon="10.118904998525977">
        <ele>74.640000000000001</ele>
        <time>2019-05-09T07:55:44Z</time>
      </trkpt>
      <trkpt lat="52.29139200411737" lon="10.119008012115955">
        <ele>74.159999999999997</ele>
        <time>2019-05-09T07:55:45Z</time>
      </trkpt>
      <trkpt lat="52.291314974427223" lon="10.119128962978721">
        <ele>73.680000000000007</ele>
        <time>2019-05-09T07:55:46Z</time>
      </trkpt>
      <trkpt lat="52.291149012744427" lon="10.119387963786721">
        <ele>73.680000000000007</ele>
        <time>2019-05-09T07:55:48Z</time>
      </trkpt>
      <trkpt lat="52.290343008935452" lon="10.120755974203348">
        <ele>72.719999999999999</ele>
        <time>2019-05-09T07:55:57Z</time>
      </trkpt>
      <trkpt lat="52.29023102670908" lon="10.120868962258101">
        <ele>72.239999999999995</ele>
        <time>2019-05-09T07:55:58Z</time>
      </trkpt>
      <trkpt lat="52.290119966492057" lon="10.120979016646743">
        <ele>72.239999999999995</ele>
        <time>2019-05-09T07:55:59Z</time>
      </trkpt>
      <trkpt lat="52.290003960952163" lon="10.121075995266438">
        <ele>71.760000000000005</ele>
        <time>2019-05-09T07:56:00Z</time>
      </trkpt>
      <trkpt lat="52.289880998432636" lon="10.121150007471442">
        <ele>71.269999999999996</ele>
        <time>2019-05-09T07:56:01Z</time>
      </trkpt>
      <trkpt lat="52.289755018427968" lon="10.121226031333208">
        <ele>70.790000000000006</ele>
        <time>2019-05-09T07:56:02Z</time>
      </trkpt>
      <trkpt lat="52.288734018802643" lon="10.121439015492797">
        <ele>67.430000000000007</ele>
        <time>2019-05-09T07:56:09Z</time>
      </trkpt>
      <trkpt lat="52.287347987294197" lon="10.121548986062407">
        <ele>70.790000000000006</ele>
        <time>2019-05-09T07:56:15Z</time>
      </trkpt>
      <trkpt lat="52.284524962306023" lon="10.121774040162563">
        <ele>74.640000000000001</ele>
        <time>2019-05-09T07:56:26Z</time>
      </trkpt>
      <trkpt lat="52.28310196660459" lon="10.121891973540187">
        <ele>76.560000000000002</ele>
        <time>2019-05-09T07:56:34Z</time>
      </trkpt>
      <trkpt lat="52.282096976414323" lon="10.121986018493772">
        <ele>78.480000000000004</ele>
        <time>2019-05-09T07:56:42Z</time>
      </trkpt>
      <trkpt lat="52.282045008614659" lon="10.121993981301785">
        <ele>78.480000000000004</ele>
        <time>2019-05-09T07:56:43Z</time>
      </trkpt>
      <trkpt lat="52.281661033630371" lon="10.122066987678409">
        <ele>77.519999999999996</ele>
        <time>2019-05-09T07:56:49Z</time>
      </trkpt>
      <trkpt lat="52.281596995890141" lon="10.122082997113466">
        <ele>77.519999999999996</ele>
        <time>2019-05-09T07:56:50Z</time>
      </trkpt>
      <trkpt lat="52.28153295814991" lon="10.122099006548524">
        <ele>77.519999999999996</ele>
        <time>2019-05-09T07:56:51Z</time>
      </trkpt>
      <trkpt lat="52.280929964035749" lon="10.122392037883401">
        <ele>79.450000000000003</ele>
        <time>2019-05-09T07:57:00Z</time>
      </trkpt>
      <trkpt lat="52.280803984031081" lon="10.122317019850016">
        <ele>79.930000000000007</ele>
        <time>2019-05-09T07:57:01Z</time>
      </trkpt>
      <trkpt lat="52.280718991532922" lon="10.122211994603276">
        <ele>79.930000000000007</ele>
        <time>2019-05-09T07:57:02Z</time>
      </trkpt>
      <trkpt lat="52.280620001256466" lon="10.12208903208375">
        <ele>80.409999999999997</ele>
        <time>2019-05-09T07:57:03Z</time>
      </trkpt>
      <trkpt lat="52.280511036515236" lon="10.121944025158882">
        <ele>80.890000000000001</ele>
        <time>2019-05-09T07:57:04Z</time>
      </trkpt>
      <trkpt lat="52.279612999409437" lon="10.120756980031729">
        <ele>84.730000000000004</ele>
        <time>2019-05-09T07:57:11Z</time>
      </trkpt>
      <trkpt lat="52.278688978403807" lon="10.119545040652156">
        <ele>86.659999999999997</ele>
        <time>2019-05-09T07:57:17Z</time>
      </trkpt>
      <trkpt lat="52.27686800993979" lon="10.117157958447933">
        <ele>85.209999999999994</ele>
        <time>2019-05-09T07:57:26Z</time>
      </trkpt>
      <trkpt lat="52.275123987346888" lon="10.114862993359566">
        <ele>82.329999999999998</ele>
        <time>2019-05-09T07:57:35Z</time>
      </trkpt>
      <trkpt lat="52.273900983855128" lon="10.113272024318576">
        <ele>84.25</ele>
        <time>2019-05-09T07:57:43Z</time>
      </trkpt>
      <trkpt lat="52.273014010861516" lon="10.111975008621812">
        <ele>87.140000000000001</ele>
        <time>2019-05-09T07:57:50Z</time>
      </trkpt>
      <trkpt lat="52.272942010313272" lon="10.111768981441855">
        <ele>87.140000000000001</ele>
        <time>2019-05-09T07:57:51Z</time>
      </trkpt>
      <trkpt lat="52.272889958694577" lon="10.111553985625505">
        <ele>87.620000000000005</ele>
        <time>2019-05-09T07:57:52Z</time>
      </trkpt>
      <trkpt lat="52.272859029471874" lon="10.11134896427393">
        <ele>87.620000000000005</ele>
        <time>2019-05-09T07:57:53Z</time>
      </trkpt>
      <trkpt lat="52.27282902225852" lon="10.111146960407495">
        <ele>88.099999999999994</ele>
        <time>2019-05-09T07:57:54Z</time>
      </trkpt>
      <trkpt lat="52.272816030308604" lon="10.110934982076287">
        <ele>88.099999999999994</ele>
        <time>2019-05-09T07:57:55Z</time>
      </trkpt>
      <trkpt lat="52.272773031145334" lon="10.109152989462018">
        <ele>87.140000000000001</ele>
        <time>2019-05-09T07:58:03Z</time>
      </trkpt>
      <trkpt lat="52.272734977304935" lon="10.106385033577681">
        <ele>83.290000000000006</ele>
        <time>2019-05-09T07:58:15Z</time>
      </trkpt>
      <trkpt lat="52.272512018680573" lon="10.103637026622891">
        <ele>82.329999999999998</ele>
        <time>2019-05-09T07:58:27Z</time>
      </trkpt>
      <trkpt lat="52.272295011207461" lon="10.101598966866732">
        <ele>81.849999999999994</ele>
        <time>2019-05-09T07:58:37Z</time>
      </trkpt>
      <trkpt lat="52.272237008437514" lon="10.101407021284103">
        <ele>82.329999999999998</ele>
        <time>2019-05-09T07:58:38Z</time>
      </trkpt>
      <trkpt lat="52.272175988182425" lon="10.101209040731192">
        <ele>82.329999999999998</ele>
        <time>2019-05-09T07:58:39Z</time>
      </trkpt>
      <trkpt lat="52.272094013169408" lon="10.101019022986293">
        <ele>82.810000000000002</ele>
        <time>2019-05-09T07:58:40Z</time>
      </trkpt>
      <trkpt lat="52.271982030943036" lon="10.100878039374948">
        <ele>83.290000000000006</ele>
        <time>2019-05-09T07:58:41Z</time>
      </trkpt>
      <trkpt lat="52.271868959069252" lon="10.100734038278461">
        <ele>83.769999999999996</ele>
        <time>2019-05-09T07:58:42Z</time>
      </trkpt>
      <trkpt lat="52.27175697684288" lon="10.100596994161606">
        <ele>83.769999999999996</ele>
        <time>2019-05-09T07:58:43Z</time>
      </trkpt>
      <trkpt lat="52.271083993837237" lon="10.099670961499214">
        <ele>86.180000000000007</ele>
        <time>2019-05-09T07:58:50Z</time>
      </trkpt>
      <trkpt lat="52.270825998857617" lon="10.098981969058514">
        <ele>87.140000000000001</ele>
        <time>2019-05-09T07:58:54Z</time>
      </trkpt>
      <trkpt lat="52.27048703469336" lon="10.097733987495303">
        <ele>88.579999999999998</ele>
        <time>2019-05-09T07:59:00Z</time>
      </trkpt>
      <trkpt lat="52.270075986161828" lon="10.0960280187428">
        <ele>90.019999999999996</ele>
        <time>2019-05-09T07:59:05Z</time>
      </trkpt>
      <trkpt lat="52.269403003156185" lon="10.093366010114551">
        <ele>90.019999999999996</ele>
        <time>2019-05-09T07:59:12Z</time>
      </trkpt>
      <trkpt lat="52.268332969397306" lon="10.089354012161493">
        <ele>90.019999999999996</ele>
        <time>2019-05-09T07:59:21Z</time>
      </trkpt>
      <trkpt lat="52.267149025574327" lon="10.086002005264163">
        <ele>91.459999999999994</ele>
        <time>2019-05-09T07:59:30Z</time>
      </trkpt>
      <trkpt lat="52.26530903019011" lon="10.081893028691411">
        <ele>91.939999999999998</ele>
        <time>2019-05-09T07:59:42Z</time>
      </trkpt>
      <trkpt lat="52.263815039768815" lon="10.078620985150337">
        <ele>87.140000000000001</ele>
        <time>2019-05-09T07:59:52Z</time>
      </trkpt>
      <trkpt lat="52.262757997959852" lon="10.076276985928416">
        <ele>87.620000000000005</ele>
        <time>2019-05-09T08:00:01Z</time>
      </trkpt>
      <trkpt lat="52.261988958343863" lon="10.074546961113811">
        <ele>87.620000000000005</ele>
        <time>2019-05-09T08:00:09Z</time>
      </trkpt>
      <trkpt lat="52.261245986446738" lon="10.072935037314892">
        <ele>90.019999999999996</ele>
        <time>2019-05-09T08:00:18Z</time>
      </trkpt>
      <trkpt lat="52.260597981512547" lon="10.071540959179401">
        <ele>90.5</ele>
        <time>2019-05-09T08:00:27Z</time>
      </trkpt>
      <trkpt lat="52.260219035670161" lon="10.07071802392602">
        <ele>91.939999999999998</ele>
        <time>2019-05-09T08:00:33Z</time>
      </trkpt>
      <trkpt lat="52.259989958256483" lon="10.070246960967779">
        <ele>93.390000000000001</ele>
        <time>2019-05-09T08:00:37Z</time>
      </trkpt>
      <trkpt lat="52.259860038757324" lon="10.069977985695004">
        <ele>94.349999999999994</ele>
        <time>2019-05-09T08:00:39Z</time>
      </trkpt>
      <trkpt lat="52.259803041815758" lon="10.069814035668969">
        <ele>93.870000000000005</ele>
        <time>2019-05-09T08:00:40Z</time>
      </trkpt>
      <trkpt lat="52.25974403321743" lon="10.069642961025238">
        <ele>94.349999999999994</ele>
        <time>2019-05-09T08:00:41Z</time>
      </trkpt>
      <trkpt lat="52.259646970778704" lon="10.069265021011233">
        <ele>94.349999999999994</ele>
        <time>2019-05-09T08:00:43Z</time>
      </trkpt>
      <trkpt lat="52.259564995765686" lon="10.068662026897073">
        <ele>94.349999999999994</ele>
        <time>2019-05-09T08:00:46Z</time>
      </trkpt>
      <trkpt lat="52.259542029350996" lon="10.06846304051578">
        <ele>94.829999999999998</ele>
        <time>2019-05-09T08:00:47Z</time>
      </trkpt>
      <trkpt lat="52.259189989417791" lon="10.066041005775332">
        <ele>95.790000000000006</ele>
        <time>2019-05-09T08:00:59Z</time>
      </trkpt>
      <trkpt lat="52.258962001651525" lon="10.064894026145339">
        <ele>96.269999999999996</ele>
        <time>2019-05-09T08:01:05Z</time>
      </trkpt>
      <trkpt lat="52.258920008316636" lon="10.064707025885582">
        <ele>96.269999999999996</ele>
        <time>2019-05-09T08:01:06Z</time>
      </trkpt>
      <trkpt lat="52.258615996688604" lon="10.063218986615539">
        <ele>98.189999999999998</ele>
        <time>2019-05-09T08:01:14Z</time>
      </trkpt>
      <trkpt lat="52.258552964776754" lon="10.063083032146096">
        <ele>98.670000000000002</ele>
        <time>2019-05-09T08:01:15Z</time>
      </trkpt>
      <trkpt lat="52.258488005027175" lon="10.062941964715719">
        <ele>98.670000000000002</ele>
        <time>2019-05-09T08:01:16Z</time>
      </trkpt>
      <trkpt lat="52.258394965901971" lon="10.062860995531082">
        <ele>99.150000000000006</ele>
        <time>2019-05-09T08:01:17Z</time>
      </trkpt>
      <trkpt lat="52.258297987282276" lon="10.062797041609883">
        <ele>100.11</ele>
        <time>2019-05-09T08:01:18Z</time>
      </trkpt>
      <trkpt lat="52.258182987570763" lon="10.062753036618233">
        <ele>100.59999999999999</ele>
        <time>2019-05-09T08:01:19Z</time>
      </trkpt>
      <trkpt lat="52.258061030879617" lon="10.06270601414144">
        <ele>101.08</ele>
        <time>2019-05-09T08:01:20Z</time>
      </trkpt>
      <trkpt lat="52.257947959005833" lon="10.06266301497817">
        <ele>101.56</ele>
        <time>2019-05-09T08:01:21Z</time>
      </trkpt>
      <trkpt lat="52.257887022569776" lon="10.062639964744449">
        <ele>102.04000000000001</ele>
        <time>2019-05-09T08:01:22Z</time>
      </trkpt>
      <trkpt lat="52.257786020636559" lon="10.062524965032935">
        <ele>102.52</ele>
        <time>2019-05-09T08:01:23Z</time>
      </trkpt>
      <trkpt lat="52.257735980674624" lon="10.062467968091369">
        <ele>103</ele>
        <time>2019-05-09T08:01:29Z</time>
      </trkpt>
      <trkpt lat="52.25770203396678" lon="10.062510967254639">
        <ele>103.48</ele>
        <time>2019-05-09T08:01:30Z</time>
      </trkpt>
      <trkpt lat="52.257650988176465" lon="10.062575004994869">
        <ele>103.95999999999999</ele>
        <time>2019-05-09T08:01:31Z</time>
      </trkpt>
      <trkpt lat="52.25759700872004" lon="10.062610963359475">
        <ele>103.95999999999999</ele>
        <time>2019-05-09T08:01:32Z</time>
      </trkpt>
      <trkpt lat="52.257421994581819" lon="10.062661003321409">
        <ele>103.95999999999999</ele>
        <time>2019-05-09T08:01:34Z</time>
      </trkpt>
      <trkpt lat="52.257347982376814" lon="10.062661003321409">
        <ele>103.95999999999999</ele>
        <time>2019-05-09T08:01:35Z</time>
      </trkpt>
      <trkpt lat="52.256900975480676" lon="10.062688998878002">
        <ele>103</ele>
        <time>2019-05-09T08:01:41Z</time>
      </trkpt>
      <trkpt lat="52.256498979404569" lon="10.062763011083007">
        <ele>100.59999999999999</ele>
        <time>2019-05-09T08:01:46Z</time>
      </trkpt>
      <trkpt lat="52.256410969421268" lon="10.062779020518064">
        <ele>99.629999999999995</ele>
        <time>2019-05-09T08:01:47Z</time>
      </trkpt>
      <trkpt lat="52.255440009757876" lon="10.063169030472636">
        <ele>92.420000000000002</ele>
        <time>2019-05-09T08:01:57Z</time>
      </trkpt>
      <trkpt lat="52.255221996456385" lon="10.06324203684926">
        <ele>91.459999999999994</ele>
        <time>2019-05-09T08:02:00Z</time>
      </trkpt>
      <trkpt lat="52.255160976201296" lon="10.063261985778809">
        <ele>90.980000000000004</ele>
        <time>2019-05-09T08:02:01Z</time>
      </trkpt>
      <trkpt lat="52.255117977038026" lon="10.063269026577473">
        <ele>90.5</ele>
        <time>2019-05-09T08:02:02Z</time>
      </trkpt>
      <trkpt lat="52.255053017288446" lon="10.063279001042247">
        <ele>90.019999999999996</ele>
        <time>2019-05-09T08:02:03Z</time>
      </trkpt>
      <trkpt lat="52.254970036447048" lon="10.063291992992163">
        <ele>90.019999999999996</ele>
        <time>2019-05-09T08:02:04Z</time>
      </trkpt>
      <trkpt lat="52.254055989906192" lon="10.063403975218534">
        <ele>86.659999999999997</ele>
        <time>2019-05-09T08:02:11Z</time>
      </trkpt>
      <trkpt lat="52.253904026001692" lon="10.063386959955096">
        <ele>86.180000000000007</ele>
        <time>2019-05-09T08:02:12Z</time>
      </trkpt>
      <trkpt lat="52.253743009641767" lon="10.063332980498672">
        <ele>85.689999999999998</ele>
        <time>2019-05-09T08:02:13Z</time>
      </trkpt>
      <trkpt lat="52.253575036302209" lon="10.063211023807526">
        <ele>85.209999999999994</ele>
        <time>2019-05-09T08:02:14Z</time>
      </trkpt>
      <trkpt lat="52.252316996455193" lon="10.062188012525439">
        <ele>81.849999999999994</ele>
        <time>2019-05-09T08:02:20Z</time>
      </trkpt>
      <trkpt lat="52.250628964975476" lon="10.060867024585605">
        <ele>78.969999999999999</ele>
        <time>2019-05-09T08:02:28Z</time>
      </trkpt>
      <trkpt lat="52.249171016737819" lon="10.059730019420385">
        <ele>77.040000000000006</ele>
        <time>2019-05-09T08:02:35Z</time>
      </trkpt>
      <trkpt lat="52.247922029346228" lon="10.058809015899897">
        <ele>75.120000000000005</ele>
        <time>2019-05-09T08:02:41Z</time>
      </trkpt>
      <trkpt lat="52.246241960674524" lon="10.058142989873886">
        <ele>74.159999999999997</ele>
        <time>2019-05-09T08:02:50Z</time>
      </trkpt>
      <trkpt lat="52.245233030989766" lon="10.057695982977748">
        <ele>76.560000000000002</ele>
        <time>2019-05-09T08:02:57Z</time>
      </trkpt>
      <trkpt lat="52.244678987190127" lon="10.057400017976761">
        <ele>79.450000000000003</ele>
        <time>2019-05-09T08:03:05Z</time>
      </trkpt>
      <trkpt lat="52.24459801800549" lon="10.057475036010146">
        <ele>79.450000000000003</ele>
        <time>2019-05-09T08:03:08Z</time>
      </trkpt>
      <trkpt lat="52.24455401301384" lon="10.057558016851544">
        <ele>79.930000000000007</ele>
        <time>2019-05-09T08:03:09Z</time>
      </trkpt>
      <trkpt lat="52.244501961395144" lon="10.057654995471239">
        <ele>79.930000000000007</ele>
        <time>2019-05-09T08:03:10Z</time>
      </trkpt>
      <trkpt lat="52.244036011397839" lon="10.058281039819121">
        <ele>80.409999999999997</ele>
        <time>2019-05-09T08:03:16Z</time>
      </trkpt>
      <trkpt lat="52.242948040366173" lon="10.059028035029769">
        <ele>78.969999999999999</ele>
        <time>2019-05-09T08:03:25Z</time>
      </trkpt>
      <trkpt lat="52.242008009925485" lon="10.059791961684823">
        <ele>77.519999999999996</ele>
        <time>2019-05-09T08:03:33Z</time>
      </trkpt>
      <trkpt lat="52.241893010213971" lon="10.059891035780311">
        <ele>77.519999999999996</ele>
        <time>2019-05-09T08:03:34Z</time>
      </trkpt>
      <trkpt lat="52.241774993017316" lon="10.059992959722877">
        <ele>77.519999999999996</ele>
        <time>2019-05-09T08:03:35Z</time>
      </trkpt>
      <trkpt lat="52.241652030497789" lon="10.060099996626377">
        <ele>78</ele>
        <time>2019-05-09T08:03:36Z</time>
      </trkpt>
      <trkpt lat="52.24152697250247" lon="10.060207033529878">
        <ele>78</ele>
        <time>2019-05-09T08:03:37Z</time>
      </trkpt>
      <trkpt lat="52.241385988891125" lon="10.060274004936218">
        <ele>78</ele>
        <time>2019-05-09T08:03:38Z</time>
      </trkpt>
      <trkpt lat="52.241238970309496" lon="10.060325972735882">
        <ele>78</ele>
        <time>2019-05-09T08:03:39Z</time>
      </trkpt>
      <trkpt lat="52.239601984620094" lon="10.060820002108812">
        <ele>73.680000000000007</ele>
        <time>2019-05-09T08:03:50Z</time>
      </trkpt>
      <trkpt lat="52.23811000585556" lon="10.061146980151534">
        <ele>72.719999999999999</ele>
        <time>2019-05-09T08:03:57Z</time>
      </trkpt>
      <trkpt lat="52.235858961939812" lon="10.061646038666368">
        <ele>72.239999999999995</ele>
        <time>2019-05-09T08:04:06Z</time>
      </trkpt>
      <trkpt lat="52.233095029368997" lon="10.062258001416922">
        <ele>74.159999999999997</ele>
        <time>2019-05-09T08:04:17Z</time>
      </trkpt>
      <trkpt lat="52.230043010786176" lon="10.062934001907706">
        <ele>69.349999999999994</ele>
        <time>2019-05-09T08:04:29Z</time>
      </trkpt>
      <trkpt lat="52.228164961561561" lon="10.063374973833561">
        <ele>66.950000000000003</ele>
        <time>2019-05-09T08:04:37Z</time>
      </trkpt>
      <trkpt lat="52.227977039292455" lon="10.063460972160101">
        <ele>66.469999999999999</ele>
        <time>2019-05-09T08:04:38Z</time>
      </trkpt>
      <trkpt lat="52.227792972698808" lon="10.063618971034884">
        <ele>66.469999999999999</ele>
        <time>2019-05-09T08:04:39Z</time>
      </trkpt>
      <trkpt lat="52.226303005591035" lon="10.065159983932972">
        <ele>66.950000000000003</ele>
        <time>2019-05-09T08:04:46Z</time>
      </trkpt>
      <trkpt lat="52.224602987989783" lon="10.066953040659428">
        <ele>65.989999999999995</ele>
        <time>2019-05-09T08:04:54Z</time>
      </trkpt>
      <trkpt lat="52.223141016438603" lon="10.06786298006773">
        <ele>66.950000000000003</ele>
        <time>2019-05-09T08:05:01Z</time>
      </trkpt>
      <trkpt lat="52.222980000078678" lon="10.067979991436005">
        <ele>67.430000000000007</ele>
        <time>2019-05-09T08:05:02Z</time>
      </trkpt>
      <trkpt lat="52.222842033952475" lon="10.068095996975899">
        <ele>67.430000000000007</ele>
        <time>2019-05-09T08:05:03Z</time>
      </trkpt>
      <trkpt lat="52.222736002877355" lon="10.068273022770882">
        <ele>67.430000000000007</ele>
        <time>2019-05-09T08:05:04Z</time>
      </trkpt>
      <trkpt lat="52.222622008994222" lon="10.068461028859019">
        <ele>67.909999999999997</ele>
        <time>2019-05-09T08:05:05Z</time>
      </trkpt>
      <trkpt lat="52.222503991797566" lon="10.06865699775517">
        <ele>67.909999999999997</ele>
        <time>2019-05-09T08:05:06Z</time>
      </trkpt>
      <trkpt lat="52.22175900824368" lon="10.069844964891672">
        <ele>69.829999999999998</ele>
        <time>2019-05-09T08:05:13Z</time>
      </trkpt>
      <trkpt lat="52.221665969118476" lon="10.069977985695004">
        <ele>69.829999999999998</ele>
        <time>2019-05-09T08:05:14Z</time>
      </trkpt>
      <trkpt lat="52.221560021862388" lon="10.069999024271965">
        <ele>70.310000000000002</ele>
        <time>2019-05-09T08:05:15Z</time>
      </trkpt>
      <trkpt lat="52.221440998837352" lon="10.070019979029894">
        <ele>70.310000000000002</ele>
        <time>2019-05-09T08:05:16Z</time>
      </trkpt>
      <trkpt lat="52.221310995519161" lon="10.069998018443584">
        <ele>70.310000000000002</ele>
        <time>2019-05-09T08:05:17Z</time>
      </trkpt>
      <trkpt lat="52.221165988594294" lon="10.06996801123023">
        <ele>70.790000000000006</ele>
        <time>2019-05-09T08:05:18Z</time>
      </trkpt>
      <trkpt lat="52.21980401314795" lon="10.069536007940769">
        <ele>71.269999999999996</ele>
        <time>2019-05-09T08:05:26Z</time>
      </trkpt>
      <trkpt lat="52.217749021947384" lon="10.06906796246767">
        <ele>69.349999999999994</ele>
        <time>2019-05-09T08:05:37Z</time>
      </trkpt>
      <trkpt lat="52.216425016522408" lon="10.0687659624964">
        <ele>71.269999999999996</ele>
        <time>2019-05-09T08:05:45Z</time>
      </trkpt>
      <trkpt lat="52.215365041047335" lon="10.068510985001922">
        <ele>72.719999999999999</ele>
        <time>2019-05-09T08:05:54Z</time>
      </trkpt>
      <trkpt lat="52.214585021138191" lon="10.068391961976886">
        <ele>71.269999999999996</ele>
        <time>2019-05-09T08:06:02Z</time>
      </trkpt>
      <trkpt lat="52.214490976184607" lon="10.068402020260692">
        <ele>71.269999999999996</ele>
        <time>2019-05-09T08:06:03Z</time>
      </trkpt>
      <trkpt lat="52.214391985908151" lon="10.068411994725466">
        <ele>71.269999999999996</ele>
        <time>2019-05-09T08:06:04Z</time>
      </trkpt>
      <trkpt lat="52.214300958439708" lon="10.068453988060355">
        <ele>71.760000000000005</ele>
        <time>2019-05-09T08:06:05Z</time>
      </trkpt>
      <trkpt lat="52.214211020618677" lon="10.068494975566864">
        <ele>71.760000000000005</ele>
        <time>2019-05-09T08:06:06Z</time>
      </trkpt>
      <trkpt lat="52.214029971510172" lon="10.06855096668005">
        <ele>72.239999999999995</ele>
        <time>2019-05-09T08:06:08Z</time>
      </trkpt>
      <trkpt lat="52.213936010375619" lon="10.068561024963856">
        <ele>72.239999999999995</ele>
        <time>2019-05-09T08:06:09Z</time>
      </trkpt>
      <trkpt lat="52.213841965422034" lon="10.068536968901753">
        <ele>72.239999999999995</ele>
        <time>2019-05-09T08:06:10Z</time>
      </trkpt>
      <trkpt lat="52.21374599263072" lon="10.068496987223625">
        <ele>72.239999999999995</ele>
        <time>2019-05-09T08:06:11Z</time>
      </trkpt>
      <trkpt lat="52.2136589884758" lon="10.068415012210608">
        <ele>72.239999999999995</ele>
        <time>2019-05-09T08:06:12Z</time>
      </trkpt>
      <trkpt lat="52.213568966835737" lon="10.068332031369209">
        <ele>72.239999999999995</ele>
        <time>2019-05-09T08:06:13Z</time>
      </trkpt>
      <trkpt lat="52.213480034843087" lon="10.068247960880399">
        <ele>72.239999999999995</ele>
        <time>2019-05-09T08:06:14Z</time>
      </trkpt>
      <trkpt lat="52.213129000738263" lon="10.067838001996279">
        <ele>72.239999999999995</ele>
        <time>2019-05-09T08:06:18Z</time>
      </trkpt>
      <trkpt lat="52.213041996583343" lon="10.067732976749539">
        <ele>72.239999999999995</ele>
        <time>2019-05-09T08:06:19Z</time>
      </trkpt>
      <trkpt lat="52.212678976356983" lon="10.067360987886786">
        <ele>71.760000000000005</ele>
        <time>2019-05-09T08:06:23Z</time>
      </trkpt>
      <trkpt lat="52.212580991908908" lon="10.067312037572265">
        <ele>71.760000000000005</ele>
        <time>2019-05-09T08:06:24Z</time>
      </trkpt>
      <trkpt lat="52.212474038824439" lon="10.067298961803317">
        <ele>71.269999999999996</ele>
        <time>2019-05-09T08:06:25Z</time>
      </trkpt>
      <trkpt lat="52.212368007749319" lon="10.067286975681782">
        <ele>71.269999999999996</ele>
        <time>2019-05-09T08:06:26Z</time>
      </trkpt>
      <trkpt lat="52.212264994159341" lon="10.067274989560246">
        <ele>70.790000000000006</ele>
        <time>2019-05-09T08:06:27Z</time>
      </trkpt>
      <trkpt lat="52.212159968912601" lon="10.067304996773601">
        <ele>70.310000000000002</ele>
        <time>2019-05-09T08:06:28Z</time>
      </trkpt>
      <trkpt lat="52.211601985618472" lon="10.067511023953557">
        <ele>68.870000000000005</ele>
        <time>2019-05-09T08:06:36Z</time>
      </trkpt>
      <trkpt lat="52.211600979790092" lon="10.067545976489782">
        <ele>68.870000000000005</ele>
        <time>2019-05-09T08:06:45Z</time>
      </trkpt>
      <trkpt lat="52.21159896813333" lon="10.06762501783669">
        <ele>68.870000000000005</ele>
        <time>2019-05-09T08:06:46Z</time>
      </trkpt>
      <trkpt lat="52.21159502863884" lon="10.067735994234681">
        <ele>68.870000000000005</ele>
        <time>2019-05-09T08:06:47Z</time>
      </trkpt>
      <trkpt lat="52.211589999496937" lon="10.067872032523155">
        <ele>68.870000000000005</ele>
        <time>2019-05-09T08:06:48Z</time>
      </trkpt>
      <trkpt lat="52.211584970355034" lon="10.068027013912797">
        <ele>68.870000000000005</ele>
        <time>2019-05-09T08:06:49Z</time>
      </trkpt>
      <trkpt lat="52.211669040843844" lon="10.069548999890685">
        <ele>68.870000000000005</ele>
        <time>2019-05-09T08:06:56Z</time>
      </trkpt>
      <trkpt lat="52.211867021396756" lon="10.072806961834431">
        <ele>68.390000000000001</ele>
        <time>2019-05-09T08:07:09Z</time>
      </trkpt>
      <trkpt lat="52.21202602609992" lon="10.075376015156507">
        <ele>68.390000000000001</ele>
        <time>2019-05-09T08:07:17Z</time>
      </trkpt>
      <trkpt lat="52.212273040786386" lon="10.079128006473184">
        <ele>70.790000000000006</ele>
        <time>2019-05-09T08:07:26Z</time>
      </trkpt>
      <trkpt lat="52.212503962218761" lon="10.083068003877997">
        <ele>75.120000000000005</ele>
        <time>2019-05-09T08:07:36Z</time>
      </trkpt>
      <trkpt lat="52.21258400939405" lon="10.084510026499629">
        <ele>76.079999999999998</ele>
        <time>2019-05-09T08:07:42Z</time>
      </trkpt>
      <trkpt lat="52.212643017992377" lon="10.08556698448956">
        <ele>77.040000000000006</ele>
        <time>2019-05-09T08:07:48Z</time>
      </trkpt>
      <trkpt lat="52.212653998285532" lon="10.085749961435795">
        <ele>77.040000000000006</ele>
        <time>2019-05-09T08:07:49Z</time>
      </trkpt>
      <trkpt lat="52.212597001343966" lon="10.085908966138959">
        <ele>76.560000000000002</ele>
        <time>2019-05-09T08:07:50Z</time>
      </trkpt>
      <trkpt lat="52.212522989138961" lon="10.086076017469168">
        <ele>77.040000000000006</ele>
        <time>2019-05-09T08:07:51Z</time>
      </trkpt>
      <trkpt lat="52.212415030226111" lon="10.086197974160314">
        <ele>77.040000000000006</ele>
        <time>2019-05-09T08:07:52Z</time>
      </trkpt>
      <trkpt lat="52.212301036342978" lon="10.086325965821743">
        <ele>77.519999999999996</ele>
        <time>2019-05-09T08:07:53Z</time>
      </trkpt>
      <trkpt lat="52.21217698417604" lon="10.086466027423739">
        <ele>78</ele>
        <time>2019-05-09T08:07:54Z</time>
      </trkpt>
      <trkpt lat="52.210790030658245" lon="10.088024977594614">
        <ele>79.930000000000007</ele>
        <time>2019-05-09T08:08:03Z</time>
      </trkpt>
      <trkpt lat="52.208794970065355" lon="10.090258000418544">
        <ele>79.450000000000003</ele>
        <time>2019-05-09T08:08:13Z</time>
      </trkpt>
      <trkpt lat="52.20650402829051" lon="10.092823030427098">
        <ele>82.329999999999998</ele>
        <time>2019-05-09T08:08:25Z</time>
      </trkpt>
      <trkpt lat="52.205198965966702" lon="10.094308974221349">
        <ele>84.730000000000004</ele>
        <time>2019-05-09T08:08:34Z</time>
      </trkpt>
      <trkpt lat="52.205131994560361" lon="10.094455992802978">
        <ele>85.209999999999994</ele>
        <time>2019-05-09T08:08:35Z</time>
      </trkpt>
      <trkpt lat="52.205100981518626" lon="10.094603011384606">
        <ele>85.209999999999994</ele>
        <time>2019-05-09T08:08:36Z</time>
      </trkpt>
      <trkpt lat="52.205100981518626" lon="10.09476201608777">
        <ele>85.689999999999998</ele>
        <time>2019-05-09T08:08:37Z</time>
      </trkpt>
      <trkpt lat="52.205138029530644" lon="10.094921020790935">
        <ele>85.689999999999998</ele>
        <time>2019-05-09T08:08:38Z</time>
      </trkpt>
      <trkpt lat="52.205185974016786" lon="10.095126964151859">
        <ele>85.689999999999998</ele>
        <time>2019-05-09T08:08:39Z</time>
      </trkpt>
      <trkpt lat="52.205244982615113" lon="10.095336008816957">
        <ele>86.180000000000007</ele>
        <time>2019-05-09T08:08:40Z</time>
      </trkpt>
      <trkpt lat="52.205719985067844" lon="10.097038960084319">
        <ele>86.659999999999997</ele>
        <time>2019-05-09T08:08:46Z</time>
      </trkpt>
      <trkpt lat="52.206597989425063" lon="10.100169014185667">
        <ele>84.730000000000004</ele>
        <time>2019-05-09T08:08:55Z</time>
      </trkpt>
      <trkpt lat="52.207240965217352" lon="10.102449981495738">
        <ele>80.409999999999997</ele>
        <time>2019-05-09T08:09:03Z</time>
      </trkpt>
      <trkpt lat="52.207374991849065" lon="10.10307502001524">
        <ele>78.480000000000004</ele>
        <time>2019-05-09T08:09:06Z</time>
      </trkpt>
      <trkpt lat="52.207374991849065" lon="10.103223966434598">
        <ele>78</ele>
        <time>2019-05-09T08:09:07Z</time>
      </trkpt>
      <trkpt lat="52.207359988242388" lon="10.103348018601537">
        <ele>77.519999999999996</ele>
        <time>2019-05-09T08:09:08Z</time>
      </trkpt>
      <trkpt lat="52.207309026271105" lon="10.103429993614554">
        <ele>76.560000000000002</ele>
        <time>2019-05-09T08:09:09Z</time>
      </trkpt>
      <trkpt lat="52.207245994359255" lon="10.103519009426236">
        <ele>76.079999999999998</ele>
        <time>2019-05-09T08:09:10Z</time>
      </trkpt>
      <trkpt lat="52.207161001861095" lon="10.103609031066298">
        <ele>75.599999999999994</ele>
        <time>2019-05-09T08:09:11Z</time>
      </trkpt>
      <trkpt lat="52.207070980221033" lon="10.103706009685993">
        <ele>75.120000000000005</ele>
        <time>2019-05-09T08:09:12Z</time>
      </trkpt>
      <trkpt lat="52.206388022750616" lon="10.104436995461583">
        <ele>74.159999999999997</ele>
        <time>2019-05-09T08:09:19Z</time>
      </trkpt>
      <trkpt lat="52.20628802664578" lon="10.104539003223181">
        <ele>74.159999999999997</ele>
        <time>2019-05-09T08:09:20Z</time>
      </trkpt>
      <trkpt lat="52.20545100979507" lon="10.10511701926589">
        <ele>75.120000000000005</ele>
        <time>2019-05-09T08:09:29Z</time>
      </trkpt>
      <trkpt lat="52.204609969630837" lon="10.105466963723302">
        <ele>79.450000000000003</ele>
        <time>2019-05-09T08:09:37Z</time>
      </trkpt>
      <trkpt lat="52.204145025461912" lon="10.105629991739988">
        <ele>81.849999999999994</ele>
        <time>2019-05-09T08:09:41Z</time>
      </trkpt>
      <trkpt lat="52.204033965244889" lon="10.10561297647655">
        <ele>82.329999999999998</ele>
        <time>2019-05-09T08:09:42Z</time>
      </trkpt>
      <trkpt lat="52.20381997525692" lon="10.105581041425467">
        <ele>84.25</ele>
        <time>2019-05-09T08:09:44Z</time>
      </trkpt>
      <trkpt lat="52.203720984980464" lon="10.105506023392081">
        <ele>85.209999999999994</ele>
        <time>2019-05-09T08:09:45Z</time>
      </trkpt>
      <trkpt lat="52.203630041331053" lon="10.105414995923638">
        <ele>86.180000000000007</ele>
        <time>2019-05-09T08:09:46Z</time>
      </trkpt>
      <trkpt lat="52.202714988961816" lon="10.104740001261234">
        <ele>89.060000000000002</ele>
        <time>2019-05-09T08:09:55Z</time>
      </trkpt>
      <trkpt lat="52.20250996761024" lon="10.104650985449553">
        <ele>89.060000000000002</ele>
        <time>2019-05-09T08:09:57Z</time>
      </trkpt>
      <trkpt lat="52.202407037839293" lon="10.104612009599805">
        <ele>89.060000000000002</ele>
        <time>2019-05-09T08:09:58Z</time>
      </trkpt>
      <trkpt lat="52.202295977622271" lon="10.104621984064579">
        <ele>89.060000000000002</ele>
        <time>2019-05-09T08:09:59Z</time>
      </trkpt>
      <trkpt lat="52.202179972082376" lon="10.104632964357734">
        <ele>88.579999999999998</ele>
        <time>2019-05-09T08:10:00Z</time>
      </trkpt>
      <trkpt lat="52.202062960714102" lon="10.10464402846992">
        <ele>89.060000000000002</ele>
        <time>2019-05-09T08:10:01Z</time>
      </trkpt>
      <trkpt lat="52.201941004022956" lon="10.104656014591455">
        <ele>89.060000000000002</ele>
        <time>2019-05-09T08:10:02Z</time>
      </trkpt>
      <trkpt lat="52.201816029846668" lon="10.10466699488461">
        <ele>89.540000000000006</ele>
        <time>2019-05-09T08:10:03Z</time>
      </trkpt>
      <trkpt lat="52.201691977679729" lon="10.104654002934694">
        <ele>89.540000000000006</ele>
        <time>2019-05-09T08:10:04Z</time>
      </trkpt>
      <trkpt lat="52.201573960483074" lon="10.104590971022844">
        <ele>89.540000000000006</ele>
        <time>2019-05-09T08:10:05Z</time>
      </trkpt>
      <trkpt lat="52.201452003791928" lon="10.104526011273265">
        <ele>89.540000000000006</ele>
        <time>2019-05-09T08:10:06Z</time>
      </trkpt>
      <trkpt lat="52.201343961060047" lon="10.104401959106326">
        <ele>90.019999999999996</ele>
        <time>2019-05-09T08:10:07Z</time>
      </trkpt>
      <trkpt lat="52.201247988268733" lon="10.104254018515348">
        <ele>90.019999999999996</ele>
        <time>2019-05-09T08:10:08Z</time>
      </trkpt>
      <trkpt lat="52.201148997992277" lon="10.104100964963436">
        <ele>90.019999999999996</ele>
        <time>2019-05-09T08:10:09Z</time>
      </trkpt>
      <trkpt lat="52.200036970898509" lon="10.102379992604256">
        <ele>89.060000000000002</ele>
        <time>2019-05-09T08:10:19Z</time>
      </trkpt>
      <trkpt lat="52.199160978198051" lon="10.101080965250731">
        <ele>88.099999999999994</ele>
        <time>2019-05-09T08:10:26Z</time>
      </trkpt>
      <trkpt lat="52.199015971273184" lon="10.100925983861089">
        <ele>88.579999999999998</ele>
        <time>2019-05-09T08:10:27Z</time>
      </trkpt>
      <trkpt lat="52.198851015418768" lon="10.10079899802804">
        <ele>89.060000000000002</ele>
        <time>2019-05-09T08:10:28Z</time>
      </trkpt>
      <trkpt lat="52.198668038472533" lon="10.100731020793319">
        <ele>89.060000000000002</ele>
        <time>2019-05-09T08:10:29Z</time>
      </trkpt>
      <trkpt lat="52.198479026556015" lon="10.100686009973288">
        <ele>89.060000000000002</ele>
        <time>2019-05-09T08:10:30Z</time>
      </trkpt>
      <trkpt lat="52.198289008811116" lon="10.100718028843403">
        <ele>89.540000000000006</ele>
        <time>2019-05-09T08:10:31Z</time>
      </trkpt>
      <trkpt lat="52.198105026036501" lon="10.100789023563266">
        <ele>89.540000000000006</ele>
        <time>2019-05-09T08:10:32Z</time>
      </trkpt>
      <trkpt lat="52.197912996634841" lon="10.100878961384296">
        <ele>89.060000000000002</ele>
        <time>2019-05-09T08:10:33Z</time>
      </trkpt>
      <trkpt lat="52.196006029844284" lon="10.101790996268392">
        <ele>90.019999999999996</ele>
        <time>2019-05-09T08:10:43Z</time>
      </trkpt>
      <trkpt lat="52.195031968876719" lon="10.102267004549503">
        <ele>91.459999999999994</ele>
        <time>2019-05-09T08:10:49Z</time>
      </trkpt>
      <trkpt lat="52.193926982581615" lon="10.102833034470677">
        <ele>91.939999999999998</ele>
        <time>2019-05-09T08:10:57Z</time>
      </trkpt>
      <trkpt lat="52.192670032382011" lon="10.103483973070979">
        <ele>92.900000000000006</ele>
        <time>2019-05-09T08:11:07Z</time>
      </trkpt>
      <trkpt lat="52.191277965903282" lon="10.104177994653583">
        <ele>92.420000000000002</ele>
        <time>2019-05-09T08:11:19Z</time>
      </trkpt>
      <trkpt lat="52.189883971586823" lon="10.104873022064567">
        <ele>91.939999999999998</ele>
        <time>2019-05-09T08:11:32Z</time>
      </trkpt>
      <trkpt lat="52.188955005258322" lon="10.105422036722302">
        <ele>91.459999999999994</ele>
        <time>2019-05-09T08:11:42Z</time>
      </trkpt>
      <trkpt lat="52.188855009153485" lon="10.105500994250178">
        <ele>90.980000000000004</ele>
        <time>2019-05-09T08:11:44Z</time>
      </trkpt>
      <trkpt lat="52.188750989735126" lon="10.105451038107276">
        <ele>90.980000000000004</ele>
        <time>2019-05-09T08:11:45Z</time>
      </trkpt>
      <trkpt lat="52.188699021935463" lon="10.105382977053523">
        <ele>90.5</ele>
        <time>2019-05-09T08:11:46Z</time>
      </trkpt>
      <trkpt lat="52.188634984195232" lon="10.105301002040505">
        <ele>90.5</ele>
        <time>2019-05-09T08:11:47Z</time>
      </trkpt>
      <trkpt lat="52.188569018617272" lon="10.105194970965385">
        <ele>90.5</ele>
        <time>2019-05-09T08:11:48Z</time>
      </trkpt>
      <trkpt lat="52.188509004190564" lon="10.105078965425491">
        <ele>90.5</ele>
        <time>2019-05-09T08:11:49Z</time>
      </trkpt>
      <trkpt lat="52.188446978107095" lon="10.104960026219487">
        <ele>90.5</ele>
        <time>2019-05-09T08:11:50Z</time>
      </trkpt>
      <trkpt lat="52.188192000612617" lon="10.10440799407661">
        <ele>89.540000000000006</ele>
        <time>2019-05-09T08:11:54Z</time>
      </trkpt>
      <trkpt lat="52.187776006758213" lon="10.102542014792562">
        <ele>88.579999999999998</ele>
        <time>2019-05-09T08:12:03Z</time>
      </trkpt>
      <trkpt lat="52.187097994610667" lon="10.099932979792356">
        <ele>87.140000000000001</ele>
        <time>2019-05-09T08:12:15Z</time>
      </trkpt>
      <trkpt lat="52.186728017404675" lon="10.098719028756022">
        <ele>87.620000000000005</ele>
        <time>2019-05-09T08:12:22Z</time>
      </trkpt>
      <trkpt lat="52.186692981049418" lon="10.098598999902606">
        <ele>87.620000000000005</ele>
        <time>2019-05-09T08:12:23Z</time>
      </trkpt>
      <trkpt lat="52.186591979116201" lon="10.098524987697601">
        <ele>87.620000000000005</ele>
        <time>2019-05-09T08:12:24Z</time>
      </trkpt>
      <trkpt lat="52.186506986618042" lon="10.098534962162375">
        <ele>88.099999999999994</ele>
        <time>2019-05-09T08:12:25Z</time>
      </trkpt>
      <trkpt lat="52.186410007998347" lon="10.098546026274562">
        <ele>88.579999999999998</ele>
        <time>2019-05-09T08:12:26Z</time>
      </trkpt>
      <trkpt lat="52.185353972017765" lon="10.098661025986075">
        <ele>91.459999999999994</ele>
        <time>2019-05-09T08:12:35Z</time>
      </trkpt>
      <trkpt lat="52.184992963448167" lon="10.098798992112279">
        <ele>91.459999999999994</ele>
        <time>2019-05-09T08:12:38Z</time>
      </trkpt>
      <trkpt lat="52.184882992878556" lon="10.098879039287567">
        <ele>91.459999999999994</ele>
        <time>2019-05-09T08:12:39Z</time>
      </trkpt>
      <trkpt lat="52.183725032955408" lon="10.099963992834091">
        <ele>89.540000000000006</ele>
        <time>2019-05-09T08:12:50Z</time>
      </trkpt>
      <trkpt lat="52.182612000033259" lon="10.100613003596663">
        <ele>88.579999999999998</ele>
        <time>2019-05-09T08:13:00Z</time>
      </trkpt>
      <trkpt lat="52.182232970371842" lon="10.100721968337893">
        <ele>89.540000000000006</ele>
        <time>2019-05-09T08:13:04Z</time>
      </trkpt>
      <trkpt lat="52.182149989530444" lon="10.100745018571615">
        <ele>90.019999999999996</ele>
        <time>2019-05-09T08:13:05Z</time>
      </trkpt>
      <trkpt lat="52.181269973516464" lon="10.101009970530868">
        <ele>90.5</ele>
        <time>2019-05-09T08:13:13Z</time>
      </trkpt>
      <trkpt lat="52.179984021931887" lon="10.101096974685788">
        <ele>92.420000000000002</ele>
        <time>2019-05-09T08:13:20Z</time>
      </trkpt>
      <trkpt lat="52.178460024297237" lon="10.100360959768295">
        <ele>96.269999999999996</ele>
        <time>2019-05-09T08:13:27Z</time>
      </trkpt>
      <trkpt lat="52.175194015726447" lon="10.097807999700308">
        <ele>102.04000000000001</ele>
        <time>2019-05-09T08:13:42Z</time>
      </trkpt>
      <trkpt lat="52.174609964713454" lon="10.097377002239227">
        <ele>102.52</ele>
        <time>2019-05-09T08:13:45Z</time>
      </trkpt>
      <trkpt lat="52.174403015524149" lon="10.09729796089232">
        <ele>102.52</ele>
        <time>2019-05-09T08:13:46Z</time>
      </trkpt>
      <trkpt lat="52.173006003722548" lon="10.096506038680673">
        <ele>103.48</ele>
        <time>2019-05-09T08:13:53Z</time>
      </trkpt>
      <trkpt lat="52.170765018090606" lon="10.094522964209318">
        <ele>100.11</ele>
        <time>2019-05-09T08:14:05Z</time>
      </trkpt>
      <trkpt lat="52.169402958825231" lon="10.093251010403037">
        <ele>96.75</ele>
        <time>2019-05-09T08:14:15Z</time>
      </trkpt>
      <trkpt lat="52.168928040191531" lon="10.092825964093208">
        <ele>96.269999999999996</ele>
        <time>2019-05-09T08:14:20Z</time>
      </trkpt>
      <trkpt lat="52.168860984966159" lon="10.092766033485532">
        <ele>95.790000000000006</ele>
        <time>2019-05-09T08:14:21Z</time>
      </trkpt>
      <trkpt lat="52.168837012723088" lon="10.092547014355659">
        <ele>95.310000000000002</ele>
        <time>2019-05-09T08:14:22Z</time>
      </trkpt>
      <trkpt lat="52.168837012723088" lon="10.092379963025451">
        <ele>95.310000000000002</ele>
        <time>2019-05-09T08:14:23Z</time>
      </trkpt>
      <trkpt lat="52.168830977752805" lon="10.092252977192402">
        <ele>95.310000000000002</ele>
        <time>2019-05-09T08:14:24Z</time>
      </trkpt>
      <trkpt lat="52.168823014944792" lon="10.092088021337986">
        <ele>94.829999999999998</ele>
        <time>2019-05-09T08:14:25Z</time>
      </trkpt>
      <trkpt lat="52.168813962489367" lon="10.091909989714622">
        <ele>94.829999999999998</ele>
        <time>2019-05-09T08:14:26Z</time>
      </trkpt>
      <trkpt lat="52.168911024928093" lon="10.090489005669951">
        <ele>90.019999999999996</ele>
        <time>2019-05-09T08:14:35Z</time>
      </trkpt>
      <trkpt lat="52.168894009664655" lon="10.09024802595377">
        <ele>89.540000000000006</ele>
        <time>2019-05-09T08:14:37Z</time>
      </trkpt>
      <trkpt lat="52.168752020224929" lon="10.090048033744097">
        <ele>89.540000000000006</ele>
        <time>2019-05-09T08:14:38Z</time>
      </trkpt>
      <trkpt lat="52.16866803355515" lon="10.089930016547441">
        <ele>89.060000000000002</ele>
        <time>2019-05-09T08:14:39Z</time>
      </trkpt>
      <trkpt lat="52.168564014136791" lon="10.089796995744109">
        <ele>89.060000000000002</ele>
        <time>2019-05-09T08:14:40Z</time>
      </trkpt>
      <trkpt lat="52.168451026082039" lon="10.089741004630923">
        <ele>88.579999999999998</ele>
        <time>2019-05-09T08:14:41Z</time>
      </trkpt>
      <trkpt lat="52.168309036642313" lon="10.089751984924078">
        <ele>88.099999999999994</ele>
        <time>2019-05-09T08:14:42Z</time>
      </trkpt>
      <trkpt lat="52.168177021667361" lon="10.089762965217233">
        <ele>88.099999999999994</ele>
        <time>2019-05-09T08:14:43Z</time>
      </trkpt>
      <trkpt lat="52.168041989207268" lon="10.089774029329419">
        <ele>87.620000000000005</ele>
        <time>2019-05-09T08:14:44Z</time>
      </trkpt>
      <trkpt lat="52.166955024003983" lon="10.089802024886012">
        <ele>89.060000000000002</ele>
        <time>2019-05-09T08:14:52Z</time>
      </trkpt>
      <trkpt lat="52.165767978876829" lon="10.089426012709737">
        <ele>90.019999999999996</ele>
        <time>2019-05-09T08:15:00Z</time>
      </trkpt>
      <trkpt lat="52.164172986522317" lon="10.088845985010266">
        <ele>91.939999999999998</ele>
        <time>2019-05-09T08:15:07Z</time>
      </trkpt>
      <trkpt lat="52.162437010556459" lon="10.088213989511132">
        <ele>97.709999999999994</ele>
        <time>2019-05-09T08:15:15Z</time>
      </trkpt>
      <trkpt lat="52.16069801710546" lon="10.087620969861746">
        <ele>103</ele>
        <time>2019-05-09T08:15:25Z</time>
      </trkpt>
      <trkpt lat="52.158343959599733" lon="10.086848996579647">
        <ele>107.81</ele>
        <time>2019-05-09T08:15:36Z</time>
      </trkpt>
      <trkpt lat="52.155500985682011" lon="10.085917012766004">
        <ele>113.56999999999999</ele>
        <time>2019-05-09T08:15:50Z</time>
      </trkpt>
      <trkpt lat="52.154816016554832" lon="10.085545023903251">
        <ele>115.5</ele>
        <time>2019-05-09T08:15:55Z</time>
      </trkpt>
      <trkpt lat="52.154707973822951" lon="10.085416026413441">
        <ele>115.5</ele>
        <time>2019-05-09T08:15:56Z</time>
      </trkpt>
      <trkpt lat="52.154598003253341" lon="10.085273031145334">
        <ele>115.98</ele>
        <time>2019-05-09T08:15:57Z</time>
      </trkpt>
      <trkpt lat="52.154513010755181" lon="10.085087958723307">
        <ele>115.98</ele>
        <time>2019-05-09T08:15:58Z</time>
      </trkpt>
      <trkpt lat="52.154429024085402" lon="10.084896013140678">
        <ele>115.98</ele>
        <time>2019-05-09T08:15:59Z</time>
      </trkpt>
      <trkpt lat="52.154345037415624" lon="10.084704989567399">
        <ele>115.98</ele>
        <time>2019-05-09T08:16:00Z</time>
      </trkpt>
      <trkpt lat="52.154263984411955" lon="10.084520000964403">
        <ele>115.98</ele>
        <time>2019-05-09T08:16:01Z</time>
      </trkpt>
      <trkpt lat="52.15418896637857" lon="10.084349010139704">
        <ele>115.98</ele>
        <time>2019-05-09T08:16:02Z</time>
      </trkpt>
      <trkpt lat="52.154043959453702" lon="10.08401800878346">
        <ele>116.45999999999999</ele>
        <time>2019-05-09T08:16:04Z</time>
      </trkpt>
      <trkpt lat="52.153958966955543" lon="10.083880964666605">
        <ele>116.45999999999999</ele>
        <time>2019-05-09T08:16:05Z</time>
      </trkpt>
      <trkpt lat="52.15386601164937" lon="10.083741992712021">
        <ele>115.98</ele>
        <time>2019-05-09T08:16:06Z</time>
      </trkpt>
      <trkpt lat="52.153773978352547" lon="10.083604026585817">
        <ele>115.98</ele>
        <time>2019-05-09T08:16:07Z</time>
      </trkpt>
      <trkpt lat="52.153666019439697" lon="10.083528002724051">
        <ele>115.98</ele>
        <time>2019-05-09T08:16:08Z</time>
      </trkpt>
      <trkpt lat="52.153546996414661" lon="10.083450973033905">
        <ele>115.98</ele>
        <time>2019-05-09T08:16:09Z</time>
      </trkpt>
      <trkpt lat="52.15341598726809" lon="10.083418032154441">
        <ele>115.98</ele>
        <time>2019-05-09T08:16:10Z</time>
      </trkpt>
      <trkpt lat="52.153297970071435" lon="10.0833959877491">
        <ele>115.98</ele>
        <time>2019-05-09T08:16:11Z</time>
      </trkpt>
      <trkpt lat="52.153190011158586" lon="10.083377966657281">
        <ele>115.98</ele>
        <time>2019-05-09T08:16:12Z</time>
      </trkpt>
      <trkpt lat="52.152796983718872" lon="10.083274031057954">
        <ele>117.90000000000001</ele>
        <time>2019-05-09T08:16:16Z</time>
      </trkpt>
      <trkpt lat="52.152613000944257" lon="10.083151990547776">
        <ele>118.86</ele>
        <time>2019-05-09T08:16:18Z</time>
      </trkpt>
      <trkpt lat="52.151897018775344" lon="10.082873040810227">
        <ele>121.73999999999999</ele>
        <time>2019-05-09T08:16:25Z</time>
      </trkpt>
      <trkpt lat="52.151256976649165" lon="10.082801040261984">
        <ele>122.70999999999999</ele>
        <time>2019-05-09T08:16:31Z</time>
      </trkpt>
      <trkpt lat="52.151141976937652" lon="10.082777990028262">
        <ele>123.19</ele>
        <time>2019-05-09T08:16:32Z</time>
      </trkpt>
      <trkpt lat="52.15102999471128" lon="10.082691991701722">
        <ele>123.67</ele>
        <time>2019-05-09T08:16:33Z</time>
      </trkpt>
      <trkpt lat="52.149793999269605" lon="10.081558004021645">
        <ele>128.47</ele>
        <time>2019-05-09T08:16:44Z</time>
      </trkpt>
      <trkpt lat="52.149685034528375" lon="10.081477034837008">
        <ele>128.94999999999999</ele>
        <time>2019-05-09T08:16:45Z</time>
      </trkpt>
      <trkpt lat="52.149565005674958" lon="10.081453984603286">
        <ele>128.94999999999999</ele>
        <time>2019-05-09T08:16:46Z</time>
      </trkpt>
      <trkpt lat="52.14836698025465" lon="10.081103034317493">
        <ele>133.75999999999999</ele>
        <time>2019-05-09T08:16:55Z</time>
      </trkpt>
      <trkpt lat="52.147160992026329" lon="10.080553013831377">
        <ele>135.19999999999999</ele>
        <time>2019-05-09T08:17:01Z</time>
      </trkpt>
      <trkpt lat="52.146146027371287" lon="10.079914983361959">
        <ele>134.72</ele>
        <time>2019-05-09T08:17:06Z</time>
      </trkpt>
      <trkpt lat="52.145961038768291" lon="10.079738963395357">
        <ele>133.75999999999999</ele>
        <time>2019-05-09T08:17:07Z</time>
      </trkpt>
      <trkpt lat="52.145793987438083" lon="10.079487003386021">
        <ele>132.80000000000001</ele>
        <time>2019-05-09T08:17:08Z</time>
      </trkpt>
      <trkpt lat="52.14563699439168" lon="10.079202018678188">
        <ele>132.31999999999999</ele>
        <time>2019-05-09T08:17:09Z</time>
      </trkpt>
      <trkpt lat="52.145501039922237" lon="10.078885015100241">
        <ele>131.36000000000001</ele>
        <time>2019-05-09T08:17:10Z</time>
      </trkpt>
      <trkpt lat="52.145365001633763" lon="10.078568011522293">
        <ele>130.40000000000001</ele>
        <time>2019-05-09T08:17:11Z</time>
      </trkpt>
      <trkpt lat="52.145081022754312" lon="10.077989995479584">
        <ele>129.43000000000001</ele>
        <time>2019-05-09T08:17:13Z</time>
      </trkpt>
      <trkpt lat="52.144899973645806" lon="10.077754966914654">
        <ele>128.94999999999999</ele>
        <time>2019-05-09T08:17:14Z</time>
      </trkpt>
      <trkpt lat="52.144695958122611" lon="10.077547011896968">
        <ele>128.47</ele>
        <time>2019-05-09T08:17:15Z</time>
      </trkpt>
      <trkpt lat="52.142698969691992" lon="10.075643984600902">
        <ele>127.98999999999999</ele>
        <time>2019-05-09T08:17:24Z</time>
      </trkpt>
      <trkpt lat="52.140752021223307" lon="10.073800971731544">
        <ele>131.84</ele>
        <time>2019-05-09T08:17:34Z</time>
      </trkpt>
      <trkpt lat="52.138388995081186" lon="10.071563003584743">
        <ele>134.72</ele>
        <time>2019-05-09T08:17:48Z</time>
      </trkpt>
      <trkpt lat="52.138248011469841" lon="10.071395030245185">
        <ele>134.24000000000001</ele>
        <time>2019-05-09T08:17:49Z</time>
      </trkpt>
      <trkpt lat="52.138114990666509" lon="10.071209035813808">
        <ele>133.75999999999999</ele>
        <time>2019-05-09T08:17:50Z</time>
      </trkpt>
      <trkpt lat="52.137984987348318" lon="10.071010971441865">
        <ele>133.28</ele>
        <time>2019-05-09T08:17:51Z</time>
      </trkpt>
      <trkpt lat="52.137880967929959" lon="10.070774015039206">
        <ele>132.80000000000001</ele>
        <time>2019-05-09T08:17:52Z</time>
      </trkpt>
      <trkpt lat="52.13777401484549" lon="10.070531023666263">
        <ele>132.31999999999999</ele>
        <time>2019-05-09T08:17:53Z</time>
      </trkpt>
      <trkpt lat="52.136821998283267" lon="10.068325996398926">
        <ele>128.94999999999999</ele>
        <time>2019-05-09T08:18:03Z</time>
      </trkpt>
      <trkpt lat="52.136343978345394" lon="10.067312959581614">
        <ele>128.94999999999999</ele>
        <time>2019-05-09T08:18:09Z</time>
      </trkpt>
      <trkpt lat="52.136246999725699" lon="10.067180022597313">
        <ele>128.94999999999999</ele>
        <time>2019-05-09T08:18:10Z</time>
      </trkpt>
      <trkpt lat="52.136138034984469" lon="10.067065022885799">
        <ele>129.43000000000001</ele>
        <time>2019-05-09T08:18:11Z</time>
      </trkpt>
      <trkpt lat="52.136014988645911" lon="10.067028980702162">
        <ele>129.91999999999999</ele>
        <time>2019-05-09T08:18:12Z</time>
      </trkpt>
      <trkpt lat="52.135894037783146" lon="10.067009031772614">
        <ele>129.91999999999999</ele>
        <time>2019-05-09T08:18:13Z</time>
      </trkpt>
      <trkpt lat="52.135774008929729" lon="10.067005008459091">
        <ele>130.40000000000001</ele>
        <time>2019-05-09T08:18:14Z</time>
      </trkpt>
      <trkpt lat="52.135652974247932" lon="10.067034009844065">
        <ele>130.40000000000001</ele>
        <time>2019-05-09T08:18:15Z</time>
      </trkpt>
      <trkpt lat="52.135530011728406" lon="10.067064017057419">
        <ele>130.40000000000001</ele>
        <time>2019-05-09T08:18:16Z</time>
      </trkpt>
      <trkpt lat="52.134771030396223" lon="10.067160995677114">
        <ele>130.88</ele>
        <time>2019-05-09T08:18:22Z</time>
      </trkpt>
      <trkpt lat="52.134652007371187" lon="10.067134005948901">
        <ele>131.36000000000001</ele>
        <time>2019-05-09T08:18:23Z</time>
      </trkpt>
      <trkpt lat="52.134541030973196" lon="10.067084971815348">
        <ele>131.36000000000001</ele>
        <time>2019-05-09T08:18:24Z</time>
      </trkpt>
      <trkpt lat="52.134434999898076" lon="10.067025041207671">
        <ele>131.36000000000001</ele>
        <time>2019-05-09T08:18:25Z</time>
      </trkpt>
      <trkpt lat="52.134328968822956" lon="10.066965026780963">
        <ele>131.84</ele>
        <time>2019-05-09T08:18:26Z</time>
      </trkpt>
      <trkpt lat="52.133248960599303" lon="10.066361026838422">
        <ele>133.28</ele>
        <time>2019-05-09T08:18:36Z</time>
      </trkpt>
      <trkpt lat="52.132213963195682" lon="10.066124992445111">
        <ele>136.63999999999999</ele>
        <time>2019-05-09T08:18:45Z</time>
      </trkpt>
      <trkpt lat="52.132096029818058" lon="10.066107977181673">
        <ele>137.13</ele>
        <time>2019-05-09T08:18:46Z</time>
      </trkpt>
      <trkpt lat="52.131512984633446" lon="10.066114012151957">
        <ele>140.00999999999999</ele>
        <time>2019-05-09T08:18:53Z</time>
      </trkpt>
      <trkpt lat="52.131422040984035" lon="10.066166985780001">
        <ele>142.41</ele>
        <time>2019-05-09T08:19:01Z</time>
      </trkpt>
      <trkpt lat="52.131407959386706" lon="10.066236974671483">
        <ele>142.88999999999999</ele>
        <time>2019-05-09T08:19:02Z</time>
      </trkpt>
      <trkpt lat="52.131384992972016" lon="10.066352980211377">
        <ele>142.88999999999999</ele>
        <time>2019-05-09T08:19:03Z</time>
      </trkpt>
      <trkpt lat="52.131360014900565" lon="10.066504022106528">
        <ele>143.37</ele>
        <time>2019-05-09T08:19:04Z</time>
      </trkpt>
      <trkpt lat="52.131100008264184" lon="10.067945038899779">
        <ele>143.84999999999999</ele>
        <time>2019-05-09T08:19:10Z</time>
      </trkpt>
      <trkpt lat="52.130519980564713" lon="10.070067001506686">
        <ele>144.81999999999999</ele>
        <time>2019-05-09T08:19:17Z</time>
      </trkpt>
      <trkpt lat="52.129684975370765" lon="10.072748037055135">
        <ele>148.66</ele>
        <time>2019-05-09T08:19:25Z</time>
      </trkpt>
      <trkpt lat="52.128686020150781" lon="10.076018990948796">
        <ele>156.83000000000001</ele>
        <time>2019-05-09T08:19:33Z</time>
      </trkpt>
      <trkpt lat="52.127767028287053" lon="10.07871201261878">
        <ele>165</ele>
        <time>2019-05-09T08:19:41Z</time>
      </trkpt>
      <trkpt lat="52.127639036625624" lon="10.079404022544622">
        <ele>166.44999999999999</ele>
        <time>2019-05-09T08:19:43Z</time>
      </trkpt>
      <trkpt lat="52.127577010542154" lon="10.079737035557628">
        <ele>167.41</ele>
        <time>2019-05-09T08:19:44Z</time>
      </trkpt>
      <trkpt lat="52.127541974186897" lon="10.080081028863788">
        <ele>168.37</ele>
        <time>2019-05-09T08:19:45Z</time>
      </trkpt>
      <trkpt lat="52.12752303108573" lon="10.08043197914958">
        <ele>169.33000000000001</ele>
        <time>2019-05-09T08:19:46Z</time>
      </trkpt>
      <trkpt lat="52.127519007772207" lon="10.080794999375939">
        <ele>170.28999999999999</ele>
        <time>2019-05-09T08:19:47Z</time>
      </trkpt>
      <trkpt lat="52.127550020813942" lon="10.081151984632015">
        <ele>171.25</ele>
        <time>2019-05-09T08:19:48Z</time>
      </trkpt>
      <trkpt lat="52.127581033855677" lon="10.081509975716472">
        <ele>172.21000000000001</ele>
        <time>2019-05-09T08:19:49Z</time>
      </trkpt>
      <trkpt lat="52.127636019140482" lon="10.081862015649676">
        <ele>172.69</ele>
        <time>2019-05-09T08:19:50Z</time>
      </trkpt>
      <trkpt lat="52.128246976062655" lon="10.084639023989439">
        <ele>177.02000000000001</ele>
        <time>2019-05-09T08:19:58Z</time>
      </trkpt>
      <trkpt lat="52.128479992970824" lon="10.087080001831055">
        <ele>179.41999999999999</ele>
        <time>2019-05-09T08:20:05Z</time>
      </trkpt>
      <trkpt lat="52.128468006849289" lon="10.089059974998236">
        <ele>180.38</ele>
        <time>2019-05-09T08:20:10Z</time>
      </trkpt>
      <trkpt lat="52.128210011869669" lon="10.090739959850907">
        <ele>180.38</ele>
        <time>2019-05-09T08:20:14Z</time>
      </trkpt>
      <trkpt lat="52.128109009936452" lon="10.091127958148718">
        <ele>180.38</ele>
        <time>2019-05-09T08:20:15Z</time>
      </trkpt>
      <trkpt lat="52.127967020496726" lon="10.091483015567064">
        <ele>179.90000000000001</ele>
        <time>2019-05-09T08:20:16Z</time>
      </trkpt>
      <trkpt lat="52.127769961953163" lon="10.091787027195096">
        <ele>179.41999999999999</ele>
        <time>2019-05-09T08:20:17Z</time>
      </trkpt>
      <trkpt lat="52.127557983621955" lon="10.092044016346335">
        <ele>179.41999999999999</ele>
        <time>2019-05-09T08:20:18Z</time>
      </trkpt>
      <trkpt lat="52.127344999462366" lon="10.092303017154336">
        <ele>178.94</ele>
        <time>2019-05-09T08:20:19Z</time>
      </trkpt>
      <trkpt lat="52.12709303945303" lon="10.092469984665513">
        <ele>178.94</ele>
        <time>2019-05-09T08:20:20Z</time>
      </trkpt>
      <trkpt lat="52.126578977331519" lon="10.092776007950306">
        <ele>178.46000000000001</ele>
        <time>2019-05-09T08:20:22Z</time>
      </trkpt>
      <trkpt lat="52.126316959038377" lon="10.0928920134902">
        <ele>178.46000000000001</ele>
        <time>2019-05-09T08:20:23Z</time>
      </trkpt>
      <trkpt lat="52.12604102678597" lon="10.092942975461483">
        <ele>178.46000000000001</ele>
        <time>2019-05-09T08:20:24Z</time>
      </trkpt>
      <trkpt lat="52.123596025630832" lon="10.093502970412374">
        <ele>173.16999999999999</ele>
        <time>2019-05-09T08:20:33Z</time>
      </trkpt>
      <trkpt lat="52.123356973752379" lon="10.093628028407693">
        <ele>172.69</ele>
        <time>2019-05-09T08:20:34Z</time>
      </trkpt>
      <trkpt lat="52.121758041903377" lon="10.095021016895771">
        <ele>171.25</ele>
        <time>2019-05-09T08:20:41Z</time>
      </trkpt>
      <trkpt lat="52.119957022368908" lon="10.097135016694665">
        <ele>166.93000000000001</ele>
        <time>2019-05-09T08:20:50Z</time>
      </trkpt>
      <trkpt lat="52.117932038381696" lon="10.100171025842428">
        <ele>157.78999999999999</ele>
        <time>2019-05-09T08:21:01Z</time>
      </trkpt>
      <trkpt lat="52.116540977731347" lon="10.101942038163543">
        <ele>151.06</ele>
        <time>2019-05-09T08:21:08Z</time>
      </trkpt>
      <trkpt lat="52.114495038986206" lon="10.104200961068273">
        <ele>140.97</ele>
        <time>2019-05-09T08:21:18Z</time>
      </trkpt>
      <trkpt lat="52.112756967544556" lon="10.106130978092551">
        <ele>136.16</ele>
        <time>2019-05-09T08:21:28Z</time>
      </trkpt>
      <trkpt lat="52.111366996541619" lon="10.107031026855111">
        <ele>132.31999999999999</ele>
        <time>2019-05-09T08:21:36Z</time>
      </trkpt>
      <trkpt lat="52.110055983066559" lon="10.10778003372252">
        <ele>125.59</ele>
        <time>2019-05-09T08:21:44Z</time>
      </trkpt>
      <trkpt lat="52.108513964340091" lon="10.108781000599265">
        <ele>114.05</ele>
        <time>2019-05-09T08:21:54Z</time>
      </trkpt>
      <trkpt lat="52.108379015699029" lon="10.108923995867372">
        <ele>112.61</ele>
        <time>2019-05-09T08:21:55Z</time>
      </trkpt>
      <trkpt lat="52.107516014948487" lon="10.11014599353075">
        <ele>103</ele>
        <time>2019-05-09T08:22:03Z</time>
      </trkpt>
      <trkpt lat="52.10687798447907" lon="10.111758001148701">
        <ele>100.11</ele>
        <time>2019-05-09T08:22:11Z</time>
      </trkpt>
      <trkpt lat="52.106368029490113" lon="10.114151034504175">
        <ele>101.56</ele>
        <time>2019-05-09T08:22:19Z</time>
      </trkpt>
      <trkpt lat="52.105771992355585" lon="10.117758018895984">
        <ele>105.88</ele>
        <time>2019-05-09T08:22:30Z</time>
      </trkpt>
      <trkpt lat="52.105315010994673" lon="10.120495967566967">
        <ele>103.95999999999999</ele>
        <time>2019-05-09T08:22:40Z</time>
      </trkpt>
      <trkpt lat="52.104995995759964" lon="10.122474012896419">
        <ele>97.709999999999994</ele>
        <time>2019-05-09T08:22:49Z</time>
      </trkpt>
      <trkpt lat="52.104980992153287" lon="10.122593035921454">
        <ele>97.230000000000004</ele>
        <time>2019-05-09T08:22:50Z</time>
      </trkpt>
      <trkpt lat="52.104849983006716" lon="10.122721027582884">
        <ele>96.269999999999996</ele>
        <time>2019-05-09T08:22:51Z</time>
      </trkpt>
      <trkpt lat="52.104839002713561" lon="10.122720021754503">
        <ele>95.790000000000006</ele>
        <time>2019-05-09T08:22:52Z</time>
      </trkpt>
      <trkpt lat="52.104753004387021" lon="10.122712980955839">
        <ele>94.829999999999998</ele>
        <time>2019-05-09T08:22:53Z</time>
      </trkpt>
      <trkpt lat="52.104647979140282" lon="10.122703006491065">
        <ele>94.349999999999994</ele>
        <time>2019-05-09T08:22:54Z</time>
      </trkpt>
      <trkpt lat="52.104528034105897" lon="10.122693032026291">
        <ele>92.420000000000002</ele>
        <time>2019-05-09T08:22:55Z</time>
      </trkpt>
      <trkpt lat="52.103536035865545" lon="10.122646009549499">
        <ele>84.730000000000004</ele>
        <time>2019-05-09T08:23:02Z</time>
      </trkpt>
      <trkpt lat="52.103255996480584" lon="10.122654978185892">
        <ele>83.769999999999996</ele>
        <time>2019-05-09T08:23:04Z</time>
      </trkpt>
      <trkpt lat="52.10311995819211" lon="10.122688002884388">
        <ele>83.290000000000006</ele>
        <time>2019-05-09T08:23:05Z</time>
      </trkpt>
      <trkpt lat="52.102981992065907" lon="10.122743993997574">
        <ele>83.290000000000006</ele>
        <time>2019-05-09T08:23:06Z</time>
      </trkpt>
      <trkpt lat="52.101967027410865" lon="10.12344497255981">
        <ele>81.370000000000005</ele>
        <time>2019-05-09T08:23:13Z</time>
      </trkpt>
      <trkpt lat="52.101855967193842" lon="10.123572964221239">
        <ele>81.370000000000005</ele>
        <time>2019-05-09T08:23:14Z</time>
      </trkpt>
      <trkpt lat="52.101767035201192" lon="10.123729035258293">
        <ele>81.370000000000005</ele>
        <time>2019-05-09T08:23:15Z</time>
      </trkpt>
      <trkpt lat="52.10167801938951" lon="10.123886028304696">
        <ele>81.370000000000005</ele>
        <time>2019-05-09T08:23:16Z</time>
      </trkpt>
      <trkpt lat="52.101595960557461" lon="10.124049978330731">
        <ele>81.370000000000005</ele>
        <time>2019-05-09T08:23:17Z</time>
      </trkpt>
      <trkpt lat="52.101552961394191" lon="10.12426296249032">
        <ele>81.370000000000005</ele>
        <time>2019-05-09T08:23:18Z</time>
      </trkpt>
      <trkpt lat="52.10152898915112" lon="10.124503020197153">
        <ele>81.370000000000005</ele>
        <time>2019-05-09T08:23:19Z</time>
      </trkpt>
      <trkpt lat="52.101503005251288" lon="10.124764032661915">
        <ele>81.370000000000005</ele>
        <time>2019-05-09T08:23:20Z</time>
      </trkpt>
      <trkpt lat="52.101511973887682" lon="10.125039964914322">
        <ele>81.370000000000005</ele>
        <time>2019-05-09T08:23:21Z</time>
      </trkpt>
      <trkpt lat="52.101513985544443" lon="10.127653023228049">
        <ele>81.370000000000005</ele>
        <time>2019-05-09T08:23:30Z</time>
      </trkpt>
      <trkpt lat="52.101429998874664" lon="10.128196002915502">
        <ele>81.370000000000005</ele>
        <time>2019-05-09T08:23:32Z</time>
      </trkpt>
      <trkpt lat="52.101389011368155" lon="10.128462966531515">
        <ele>81.370000000000005</ele>
        <time>2019-05-09T08:23:33Z</time>
      </trkpt>
      <trkpt lat="52.101319022476673" lon="10.128710987046361">
        <ele>81.370000000000005</ele>
        <time>2019-05-09T08:23:34Z</time>
      </trkpt>
      <trkpt lat="52.100353008136153" lon="10.131363021209836">
        <ele>82.810000000000002</ele>
        <time>2019-05-09T08:23:45Z</time>
      </trkpt>
      <trkpt lat="52.09959302097559" lon="10.133450031280518">
        <ele>84.730000000000004</ele>
        <time>2019-05-09T08:23:54Z</time>
      </trkpt>
      <trkpt lat="52.099006958305836" lon="10.135778021067381">
        <ele>85.689999999999998</ele>
        <time>2019-05-09T08:24:02Z</time>
      </trkpt>
      <trkpt lat="52.098531033843756" lon="10.138057982549071">
        <ele>87.140000000000001</ele>
        <time>2019-05-09T08:24:11Z</time>
      </trkpt>
      <trkpt lat="52.098063994199038" lon="10.140526033937931">
        <ele>86.659999999999997</ele>
        <time>2019-05-09T08:24:20Z</time>
      </trkpt>
      <trkpt lat="52.097611036151648" lon="10.142484968528152">
        <ele>89.060000000000002</ele>
        <time>2019-05-09T08:24:29Z</time>
      </trkpt>
      <trkpt lat="52.097180960699916" lon="10.144138969480991">
        <ele>91.459999999999994</ele>
        <time>2019-05-09T08:24:38Z</time>
      </trkpt>
      <trkpt lat="52.097079958766699" lon="10.144544988870621">
        <ele>91.939999999999998</ele>
        <time>2019-05-09T08:24:43Z</time>
      </trkpt>
      <trkpt lat="52.097070990130305" lon="10.144581031054258">
        <ele>91.939999999999998</ele>
        <time>2019-05-09T08:24:44Z</time>
      </trkpt>
      <trkpt lat="52.097065038979053" lon="10.144609026610851">
        <ele>91.939999999999998</ele>
        <time>2019-05-09T08:24:45Z</time>
      </trkpt>
      <trkpt lat="52.097055986523628" lon="10.144645990803838">
        <ele>91.939999999999998</ele>
        <time>2019-05-09T08:24:46Z</time>
      </trkpt>
      <trkpt lat="52.097042994573712" lon="10.144702987745404">
        <ele>92.420000000000002</ele>
        <time>2019-05-09T08:24:47Z</time>
      </trkpt>
      <trkpt lat="52.097024973481894" lon="10.144776999950409">
        <ele>92.420000000000002</ele>
        <time>2019-05-09T08:24:48Z</time>
      </trkpt>
      <trkpt lat="52.096806038171053" lon="10.145707977935672">
        <ele>92.900000000000006</ele>
        <time>2019-05-09T08:24:55Z</time>
      </trkpt>
      <trkpt lat="52.096343021839857" lon="10.147575968876481">
        <ele>93.870000000000005</ele>
        <time>2019-05-09T08:25:05Z</time>
      </trkpt>
      <trkpt lat="52.096306979656219" lon="10.147724999114871">
        <ele>93.870000000000005</ele>
        <time>2019-05-09T08:25:06Z</time>
      </trkpt>
      <trkpt lat="52.096274960786104" lon="10.147861959412694">
        <ele>93.870000000000005</ele>
        <time>2019-05-09T08:25:07Z</time>
      </trkpt>
      <trkpt lat="52.096013026311994" lon="10.148854963481426">
        <ele>95.790000000000006</ele>
        <time>2019-05-09T08:25:16Z</time>
      </trkpt>
      <trkpt lat="52.095906995236874" lon="10.149170039221644">
        <ele>96.269999999999996</ele>
        <time>2019-05-09T08:25:23Z</time>
      </trkpt>
      <trkpt lat="52.095789983868599" lon="10.149402972310781">
        <ele>96.269999999999996</ele>
        <time>2019-05-09T08:25:28Z</time>
      </trkpt>
      <trkpt lat="52.095779003575444" lon="10.149426022544503">
        <ele>96.269999999999996</ele>
        <time>2019-05-09T08:25:29Z</time>
      </trkpt>
      <trkpt lat="52.095779003575444" lon="10.149426022544503">
        <ele>96.269999999999996</ele>
        <time>2019-05-09T08:25:43Z</time>
      </trkpt>
      <trkpt lat="52.095779003575444" lon="10.149426022544503">
        <ele>95.790000000000006</ele>
        <time>2019-05-09T08:26:34Z</time>
      </trkpt>
      <trkpt lat="52.095779003575444" lon="10.149426022544503">
        <ele>95.790000000000006</ele>
        <time>2019-05-09T08:27:34Z</time>
      </trkpt>
      <trkpt lat="52.095779003575444" lon="10.149426022544503">
        <ele>95.790000000000006</ele>
        <time>2019-05-09T08:28:36Z</time>
      </trkpt>
      <trkpt lat="52.095664003863931" lon="10.149653004482388">
        <ele>95.310000000000002</ele>
        <time>2019-05-09T08:28:57Z</time>
      </trkpt>
      <trkpt lat="52.094969982281327" lon="10.150307966396213">
        <ele>94.829999999999998</ele>
        <time>2019-05-09T08:29:05Z</time>
      </trkpt>
      <trkpt lat="52.094804020598531" lon="10.150522040203214">
        <ele>94.829999999999998</ele>
        <time>2019-05-09T08:29:07Z</time>
      </trkpt>
      <trkpt lat="52.094720033928752" lon="10.150653971359134">
        <ele>94.829999999999998</ele>
        <time>2019-05-09T08:29:08Z</time>
      </trkpt>
      <trkpt lat="52.094635041430593" lon="10.150787997990847">
        <ele>94.829999999999998</ele>
        <time>2019-05-09T08:29:09Z</time>
      </trkpt>
      <trkpt lat="52.09456698037684" lon="10.150938034057617">
        <ele>94.829999999999998</ele>
        <time>2019-05-09T08:29:10Z</time>
      </trkpt>
      <trkpt lat="52.094510989263654" lon="10.151121011003852">
        <ele>95.310000000000002</ele>
        <time>2019-05-09T08:29:11Z</time>
      </trkpt>
      <trkpt lat="52.094456003978848" lon="10.151300970464945">
        <ele>95.310000000000002</ele>
        <time>2019-05-09T08:29:12Z</time>
      </trkpt>
      <trkpt lat="52.094406969845295" lon="10.151488976553082">
        <ele>96.269999999999996</ele>
        <time>2019-05-09T08:29:13Z</time>
      </trkpt>
      <trkpt lat="52.093896009027958" lon="10.153797017410398">
        <ele>98.189999999999998</ele>
        <time>2019-05-09T08:29:24Z</time>
      </trkpt>
      <trkpt lat="52.093809004873037" lon="10.153983011841774">
        <ele>98.189999999999998</ele>
        <time>2019-05-09T08:29:25Z</time>
      </trkpt>
      <trkpt lat="52.093306006863713" lon="10.154801001772285">
        <ele>99.629999999999995</ele>
        <time>2019-05-09T08:29:30Z</time>
      </trkpt>
      <trkpt lat="52.093180026859045" lon="10.15489999204874">
        <ele>99.629999999999995</ele>
        <time>2019-05-09T08:29:31Z</time>
      </trkpt>
      <trkpt lat="52.092953966930509" lon="10.155079029500484">
        <ele>100.59999999999999</ele>
        <time>2019-05-09T08:29:33Z</time>
      </trkpt>
      <trkpt lat="52.091707997024059" lon="10.155849996954203">
        <ele>101.56</ele>
        <time>2019-05-09T08:29:44Z</time>
      </trkpt>
      <trkpt lat="52.090593036264181" lon="10.156557010486722">
        <ele>104.92</ele>
        <time>2019-05-09T08:29:54Z</time>
      </trkpt>
      <trkpt lat="52.090483987703919" lon="10.156625993549824">
        <ele>105.40000000000001</ele>
        <time>2019-05-09T08:29:55Z</time>
      </trkpt>
      <trkpt lat="52.089319992810488" lon="10.157336024567485">
        <ele>107.31999999999999</ele>
        <time>2019-05-09T08:30:05Z</time>
      </trkpt>
      <trkpt lat="52.08799296990037" lon="10.158136999234557">
        <ele>104.92</ele>
        <time>2019-05-09T08:30:16Z</time>
      </trkpt>
      <trkpt lat="52.08771301433444" lon="10.158383008092642">
        <ele>104.44</ele>
        <time>2019-05-09T08:30:19Z</time>
      </trkpt>
      <trkpt lat="52.087633972987533" lon="10.158462971448898">
        <ele>104.44</ele>
        <time>2019-05-09T08:30:20Z</time>
      </trkpt>
      <trkpt lat="52.087564989924431" lon="10.158567996695638">
        <ele>104.44</ele>
        <time>2019-05-09T08:30:21Z</time>
      </trkpt>
      <trkpt lat="52.087516039609909" lon="10.158711997792125">
        <ele>104.44</ele>
        <time>2019-05-09T08:30:22Z</time>
      </trkpt>
      <trkpt lat="52.087468011304736" lon="10.158851975575089">
        <ele>104.44</ele>
        <time>2019-05-09T08:30:23Z</time>
      </trkpt>
      <trkpt lat="52.087423000484705" lon="10.15898197889328">
        <ele>104.44</ele>
        <time>2019-05-09T08:30:24Z</time>
      </trkpt>
      <trkpt lat="52.087384024634957" lon="10.159095972776413">
        <ele>104.44</ele>
        <time>2019-05-09T08:30:25Z</time>
      </trkpt>
      <trkpt lat="52.087350999936461" lon="10.159192029386759">
        <ele>104.44</ele>
        <time>2019-05-09T08:30:26Z</time>
      </trkpt>
      <trkpt lat="52.087273970246315" lon="10.159222958609462">
        <ele>104.44</ele>
        <time>2019-05-09T08:30:27Z</time>
      </trkpt>
      <trkpt lat="52.087199036031961" lon="10.159225976094604">
        <ele>104.44</ele>
        <time>2019-05-09T08:30:28Z</time>
      </trkpt>
      <trkpt lat="52.087115971371531" lon="10.159228993579745">
        <ele>104.92</ele>
        <time>2019-05-09T08:30:29Z</time>
      </trkpt>
      <trkpt lat="52.086722021922469" lon="10.159248020499945">
        <ele>104.44</ele>
        <time>2019-05-09T08:30:33Z</time>
      </trkpt>
      <trkpt lat="52.085989024490118" lon="10.159284984692931">
        <ele>103.48</ele>
        <time>2019-05-09T08:30:40Z</time>
      </trkpt>
      <trkpt lat="52.085583005100489" lon="10.159136960282922">
        <ele>103</ele>
        <time>2019-05-09T08:30:44Z</time>
      </trkpt>
      <trkpt lat="52.085470017045736" lon="10.159113993868232">
        <ele>103.48</ele>
        <time>2019-05-09T08:30:45Z</time>
      </trkpt>
      <trkpt lat="52.085387036204338" lon="10.159113993868232">
        <ele>103.48</ele>
        <time>2019-05-09T08:30:46Z</time>
      </trkpt>
      <trkpt lat="52.085303971543908" lon="10.159113993868232">
        <ele>103</ele>
        <time>2019-05-09T08:30:47Z</time>
      </trkpt>
      <trkpt lat="52.085173968225718" lon="10.159006034955382">
        <ele>103</ele>
        <time>2019-05-09T08:30:48Z</time>
      </trkpt>
      <trkpt lat="52.085137004032731" lon="10.158994970843196">
        <ele>102.52</ele>
        <time>2019-05-09T08:30:49Z</time>
      </trkpt>
      <trkpt lat="52.084950003772974" lon="10.158936968073249">
        <ele>102.04000000000001</ele>
        <time>2019-05-09T08:30:51Z</time>
      </trkpt>
      <trkpt lat="52.084853025153279" lon="10.158912995830178">
        <ele>101.56</ele>
        <time>2019-05-09T08:30:52Z</time>
      </trkpt>
      <trkpt lat="52.084755962714553" lon="10.158894974738359">
        <ele>101.56</ele>
        <time>2019-05-09T08:30:53Z</time>
      </trkpt>
      <trkpt lat="52.084365030750632" lon="10.158822974190116">
        <ele>101.08</ele>
        <time>2019-05-09T08:30:57Z</time>
      </trkpt>
      <trkpt lat="52.084112986922264" lon="10.158776035532355">
        <ele>100.11</ele>
        <time>2019-05-09T08:31:00Z</time>
      </trkpt>
      <trkpt lat="52.084048027172685" lon="10.15874401666224">
        <ele>99.629999999999995</ele>
        <time>2019-05-09T08:31:01Z</time>
      </trkpt>
      <trkpt lat="52.084003016352654" lon="10.158705962821841">
        <ele>99.150000000000006</ele>
        <time>2019-05-09T08:31:02Z</time>
      </trkpt>
      <trkpt lat="52.083970997482538" lon="10.158679978922009">
        <ele>98.670000000000002</ele>
        <time>2019-05-09T08:31:03Z</time>
      </trkpt>
      <trkpt lat="52.083950964733958" lon="10.158662963658571">
        <ele>98.189999999999998</ele>
        <time>2019-05-09T08:31:04Z</time>
      </trkpt>
      <trkpt lat="52.083939984440804" lon="10.158578976988792">
        <ele>97.709999999999994</ele>
        <time>2019-05-09T08:31:05Z</time>
      </trkpt>
      <trkpt lat="52.083927998319268" lon="10.158495996147394">
        <ele>97.230000000000004</ele>
        <time>2019-05-09T08:31:06Z</time>
      </trkpt>
      <trkpt lat="52.083915006369352" lon="10.158392982557416">
        <ele>96.75</ele>
        <time>2019-05-09T08:31:07Z</time>
      </trkpt>
      <trkpt lat="52.083917018026114" lon="10.158282006159425">
        <ele>96.269999999999996</ele>
        <time>2019-05-09T08:31:08Z</time>
      </trkpt>
      <trkpt lat="52.083938978612423" lon="10.15814496204257">
        <ele>95.790000000000006</ele>
        <time>2019-05-09T08:31:09Z</time>
      </trkpt>
      <trkpt lat="52.083964962512255" lon="10.157984029501677">
        <ele>95.310000000000002</ele>
        <time>2019-05-09T08:31:10Z</time>
      </trkpt>
      <trkpt lat="52.083993041887879" lon="10.157812032848597">
        <ele>94.829999999999998</ele>
        <time>2019-05-09T08:31:11Z</time>
      </trkpt>
      <trkpt lat="52.084053978323936" lon="10.15743400901556">
        <ele>94.349999999999994</ele>
        <time>2019-05-09T08:31:13Z</time>
      </trkpt>
      <trkpt lat="52.084087003022432" lon="10.157227981835604">
        <ele>93.870000000000005</ele>
        <time>2019-05-09T08:31:14Z</time>
      </trkpt>
      <trkpt lat="52.084213988855481" lon="10.156204970553517">
        <ele>92.420000000000002</ele>
        <time>2019-05-09T08:31:19Z</time>
      </trkpt>
      <trkpt lat="52.084226980805397" lon="10.15601403079927">
        <ele>91.939999999999998</ele>
        <time>2019-05-09T08:31:20Z</time>
      </trkpt>
      <trkpt lat="52.084202002733946" lon="10.155831975862384">
        <ele>91.939999999999998</ele>
        <time>2019-05-09T08:31:21Z</time>
      </trkpt>
      <trkpt lat="52.084165038540959" lon="10.155637012794614">
        <ele>91.939999999999998</ele>
        <time>2019-05-09T08:31:22Z</time>
      </trkpt>
      <trkpt lat="52.084105024114251" lon="10.15543500892818">
        <ele>91.939999999999998</ele>
        <time>2019-05-09T08:31:23Z</time>
      </trkpt>
      <trkpt lat="52.08403998054564" lon="10.15522001311183">
        <ele>92.420000000000002</ele>
        <time>2019-05-09T08:31:24Z</time>
      </trkpt>
      <trkpt lat="52.083456013351679" lon="10.153385968878865">
        <ele>93.870000000000005</ele>
        <time>2019-05-09T08:31:31Z</time>
      </trkpt>
      <trkpt lat="52.08244901150465" lon="10.1508819591254">
        <ele>93.870000000000005</ele>
        <time>2019-05-09T08:31:40Z</time>
      </trkpt>
      <trkpt lat="52.082340968772769" lon="10.15027997083962">
        <ele>93.870000000000005</ele>
        <time>2019-05-09T08:31:42Z</time>
      </trkpt>
      <trkpt lat="52.082305010408163" lon="10.149983000010252">
        <ele>93.870000000000005</ele>
        <time>2019-05-09T08:31:43Z</time>
      </trkpt>
      <trkpt lat="52.082269974052906" lon="10.149694997817278">
        <ele>94.349999999999994</ele>
        <time>2019-05-09T08:31:44Z</time>
      </trkpt>
      <trkpt lat="52.082136031240225" lon="10.148237971588969">
        <ele>95.310000000000002</ele>
        <time>2019-05-09T08:31:49Z</time>
      </trkpt>
      <trkpt lat="52.082079034298658" lon="10.147953992709517">
        <ele>95.310000000000002</ele>
        <time>2019-05-09T08:31:50Z</time>
      </trkpt>
      <trkpt lat="52.082007033750415" lon="10.147674959152937">
        <ele>94.829999999999998</ele>
        <time>2019-05-09T08:31:51Z</time>
      </trkpt>
      <trkpt lat="52.081909971311688" lon="10.147420987486839">
        <ele>94.829999999999998</ele>
        <time>2019-05-09T08:31:52Z</time>
      </trkpt>
      <trkpt lat="52.08182598464191" lon="10.147204985842109">
        <ele>94.349999999999994</ele>
        <time>2019-05-09T08:31:53Z</time>
      </trkpt>
      <trkpt lat="52.081679971888661" lon="10.146980015560985">
        <ele>94.349999999999994</ele>
        <time>2019-05-09T08:31:54Z</time>
      </trkpt>
      <trkpt lat="52.081550974398851" lon="10.146783040836453">
        <ele>93.870000000000005</ele>
        <time>2019-05-09T08:31:55Z</time>
      </trkpt>
      <trkpt lat="52.081420971080661" lon="10.146618001163006">
        <ele>93.870000000000005</ele>
        <time>2019-05-09T08:31:56Z</time>
      </trkpt>
      <trkpt lat="52.081289039924741" lon="10.146471988409758">
        <ele>93.870000000000005</ele>
        <time>2019-05-09T08:31:57Z</time>
      </trkpt>
      <trkpt lat="52.081163981929421" lon="10.146333016455173">
        <ele>93.870000000000005</ele>
        <time>2019-05-09T08:31:58Z</time>
      </trkpt>
      <trkpt lat="52.08103196695447" lon="10.14624098315835">
        <ele>93.870000000000005</ele>
        <time>2019-05-09T08:31:59Z</time>
      </trkpt>
      <trkpt lat="52.080892994999886" lon="10.14617501758039">
        <ele>93.870000000000005</ele>
        <time>2019-05-09T08:32:00Z</time>
      </trkpt>
      <trkpt lat="52.079793037846684" lon="10.145647963508964">
        <ele>93.870000000000005</ele>
        <time>2019-05-09T08:32:09Z</time>
      </trkpt>
      <trkpt lat="52.079690024256706" lon="10.145550984889269">
        <ele>93.870000000000005</ele>
        <time>2019-05-09T08:32:10Z</time>
      </trkpt>
      <trkpt lat="52.079584999009967" lon="10.145451994612813">
        <ele>93.870000000000005</ele>
        <time>2019-05-09T08:32:11Z</time>
      </trkpt>
      <trkpt lat="52.079477040097117" lon="10.145346969366074">
        <ele>94.349999999999994</ele>
        <time>2019-05-09T08:32:12Z</time>
      </trkpt>
      <trkpt lat="52.0793760381639" lon="10.145230041816831">
        <ele>94.349999999999994</ele>
        <time>2019-05-09T08:32:13Z</time>
      </trkpt>
      <trkpt lat="52.078400971367955" lon="10.14405095949769">
        <ele>96.269999999999996</ele>
        <time>2019-05-09T08:32:23Z</time>
      </trkpt>
      <trkpt lat="52.077889004722238" lon="10.143401026725769">
        <ele>97.230000000000004</ele>
        <time>2019-05-09T08:32:28Z</time>
      </trkpt>
      <trkpt lat="52.077808035537601" lon="10.143227018415928">
        <ele>97.709999999999994</ele>
        <time>2019-05-09T08:32:29Z</time>
      </trkpt>
      <trkpt lat="52.077726982533932" lon="10.143053010106087">
        <ele>97.709999999999994</ele>
        <time>2019-05-09T08:32:30Z</time>
      </trkpt>
      <trkpt lat="52.077641990035772" lon="10.142870033159852">
        <ele>98.189999999999998</ele>
        <time>2019-05-09T08:32:31Z</time>
      </trkpt>
      <trkpt lat="52.077620029449463" lon="10.142669035121799">
        <ele>98.189999999999998</ele>
        <time>2019-05-09T08:32:32Z</time>
      </trkpt>
      <trkpt lat="52.077595973387361" lon="10.142454961314797">
        <ele>98.189999999999998</ele>
        <time>2019-05-09T08:32:33Z</time>
      </trkpt>
      <trkpt lat="52.077576024457812" lon="10.142241977155209">
        <ele>98.670000000000002</ele>
        <time>2019-05-09T08:32:34Z</time>
      </trkpt>
      <trkpt lat="52.077570995315909" lon="10.142036033794284">
        <ele>98.670000000000002</ele>
        <time>2019-05-09T08:32:35Z</time>
      </trkpt>
      <trkpt lat="52.077517015859485" lon="10.14129800722003">
        <ele>99.629999999999995</ele>
        <time>2019-05-09T08:32:39Z</time>
      </trkpt>
      <trkpt lat="52.077482985332608" lon="10.141142020002007">
        <ele>100.11</ele>
        <time>2019-05-09T08:32:40Z</time>
      </trkpt>
      <trkpt lat="52.077406039461493" lon="10.141045963391662">
        <ele>100.11</ele>
        <time>2019-05-09T08:32:41Z</time>
      </trkpt>
      <trkpt lat="52.077330015599728" lon="10.140989972278476">
        <ele>100.11</ele>
        <time>2019-05-09T08:32:42Z</time>
      </trkpt>
      <trkpt lat="52.077234964817762" lon="10.140987038612366">
        <ele>100.11</ele>
        <time>2019-05-09T08:32:43Z</time>
      </trkpt>
      <trkpt lat="52.077129017561674" lon="10.140993995591998">
        <ele>100.11</ele>
        <time>2019-05-09T08:32:44Z</time>
      </trkpt>
      <trkpt lat="52.077017035335302" lon="10.141001958400011">
        <ele>99.629999999999995</ele>
        <time>2019-05-09T08:32:45Z</time>
      </trkpt>
      <trkpt lat="52.076213965192437" lon="10.141527000814676">
        <ele>97.709999999999994</ele>
        <time>2019-05-09T08:32:53Z</time>
      </trkpt>
      <trkpt lat="52.076054038479924" lon="10.141647029668093">
        <ele>97.709999999999994</ele>
        <time>2019-05-09T08:32:55Z</time>
      </trkpt>
      <trkpt lat="52.075995029881597" lon="10.141667984426022">
        <ele>97.709999999999994</ele>
        <time>2019-05-09T08:32:56Z</time>
      </trkpt>
      <trkpt lat="52.075181985273957" lon="10.141747025772929">
        <ele>98.670000000000002</ele>
        <time>2019-05-09T08:33:03Z</time>
      </trkpt>
      <trkpt lat="52.073809029534459" lon="10.141117963939905">
        <ele>96.75</ele>
        <time>2019-05-09T08:33:12Z</time>
      </trkpt>
      <trkpt lat="52.072820970788598" lon="10.140063017606735">
        <ele>95.310000000000002</ele>
        <time>2019-05-09T08:33:19Z</time>
      </trkpt>
      <trkpt lat="52.072681998834014" lon="10.139912981539965">
        <ele>94.829999999999998</ele>
        <time>2019-05-09T08:33:20Z</time>
      </trkpt>
      <trkpt lat="52.071199994534254" lon="10.138310026377439">
        <ele>94.349999999999994</ele>
        <time>2019-05-09T08:33:30Z</time>
      </trkpt>
      <trkpt lat="52.069583963602781" lon="10.136586036533117">
        <ele>95.310000000000002</ele>
        <time>2019-05-09T08:33:39Z</time>
      </trkpt>
      <trkpt lat="52.067697029560804" lon="10.134341027587652">
        <ele>98.189999999999998</ele>
        <time>2019-05-09T08:33:50Z</time>
      </trkpt>
      <trkpt lat="52.066425997763872" lon="10.131940031424165">
        <ele>102.04000000000001</ele>
        <time>2019-05-09T08:34:00Z</time>
      </trkpt>
      <trkpt lat="52.065186984837055" lon="10.130281001329422">
        <ele>104.44</ele>
        <time>2019-05-09T08:34:07Z</time>
      </trkpt>
      <trkpt lat="52.06336903385818" lon="10.129057997837663">
        <ele>106.84</ele>
        <time>2019-05-09T08:34:15Z</time>
      </trkpt>
      <trkpt lat="52.061859034001827" lon="10.128104975447059">
        <ele>107.31999999999999</ele>
        <time>2019-05-09T08:34:23Z</time>
      </trkpt>
      <trkpt lat="52.061208011582494" lon="10.127430986613035">
        <ele>107.81</ele>
        <time>2019-05-09T08:34:28Z</time>
      </trkpt>
      <trkpt lat="52.060925038531423" lon="10.127090010792017">
        <ele>108.29000000000001</ele>
        <time>2019-05-09T08:34:31Z</time>
      </trkpt>
      <trkpt lat="52.06031902693212" lon="10.126482993364334">
        <ele>108.29000000000001</ele>
        <time>2019-05-09T08:34:37Z</time>
      </trkpt>
      <trkpt lat="52.060208972543478" lon="10.126410992816091">
        <ele>108.29000000000001</ele>
        <time>2019-05-09T08:34:38Z</time>
      </trkpt>
      <trkpt lat="52.060110988095403" lon="10.126347960904241">
        <ele>107.81</ele>
        <time>2019-05-09T08:34:39Z</time>
      </trkpt>
      <trkpt lat="52.059991965070367" lon="10.126347960904241">
        <ele>107.81</ele>
        <time>2019-05-09T08:34:40Z</time>
      </trkpt>
      <trkpt lat="52.059885011985898" lon="10.126347960904241">
        <ele>107.31999999999999</ele>
        <time>2019-05-09T08:34:41Z</time>
      </trkpt>
      <trkpt lat="52.059778980910778" lon="10.12636698782444">
        <ele>106.84</ele>
        <time>2019-05-09T08:34:42Z</time>
      </trkpt>
      <trkpt lat="52.05967697314918" lon="10.126428008079529">
        <ele>106.36</ele>
        <time>2019-05-09T08:34:43Z</time>
      </trkpt>
      <trkpt lat="52.059574965387583" lon="10.126489028334618">
        <ele>106.36</ele>
        <time>2019-05-09T08:34:44Z</time>
      </trkpt>
      <trkpt lat="52.059478992596269" lon="10.126549964770675">
        <ele>105.88</ele>
        <time>2019-05-09T08:34:45Z</time>
      </trkpt>
      <trkpt lat="52.059238012880087" lon="10.126770995557308">
        <ele>105.40000000000001</ele>
        <time>2019-05-09T08:34:48Z</time>
      </trkpt>
      <trkpt lat="52.059144973754883" lon="10.126788010820746">
        <ele>105.40000000000001</ele>
        <time>2019-05-09T08:34:49Z</time>
      </trkpt>
      <trkpt lat="52.059068027883768" lon="10.12679697945714">
        <ele>105.40000000000001</ele>
        <time>2019-05-09T08:34:50Z</time>
      </trkpt>
      <trkpt lat="52.059002984315157" lon="10.126683991402388">
        <ele>105.88</ele>
        <time>2019-05-09T08:34:51Z</time>
      </trkpt>
      <trkpt lat="52.058957973495126" lon="10.126593969762325">
        <ele>105.88</ele>
        <time>2019-05-09T08:34:52Z</time>
      </trkpt>
      <trkpt lat="52.058910029008985" lon="10.126497996971011">
        <ele>106.36</ele>
        <time>2019-05-09T08:34:53Z</time>
      </trkpt>
      <trkpt lat="52.058903994038701" lon="10.126370005309582">
        <ele>106.84</ele>
        <time>2019-05-09T08:34:54Z</time>
      </trkpt>
      <trkpt lat="52.058897037059069" lon="10.126218963414431">
        <ele>107.31999999999999</ele>
        <time>2019-05-09T08:34:55Z</time>
      </trkpt>
      <trkpt lat="52.058759992942214" lon="10.124726984649897">
        <ele>112.13</ele>
        <time>2019-05-09T08:35:02Z</time>
      </trkpt>
      <trkpt lat="52.058312986046076" lon="10.123062003403902">
        <ele>116.94</ele>
        <time>2019-05-09T08:35:08Z</time>
      </trkpt>
      <trkpt lat="52.058192035183311" lon="10.122795961797237">
        <ele>117.90000000000001</ele>
        <time>2019-05-09T08:35:09Z</time>
      </trkpt>
      <trkpt lat="52.058039987459779" lon="10.122555987909436">
        <ele>118.86</ele>
        <time>2019-05-09T08:35:10Z</time>
      </trkpt>
      <trkpt lat="52.057876037433743" lon="10.12234702706337">
        <ele>119.81999999999999</ele>
        <time>2019-05-09T08:35:11Z</time>
      </trkpt>
      <trkpt lat="52.057694988325238" lon="10.122149968519807">
        <ele>120.78</ele>
        <time>2019-05-09T08:35:12Z</time>
      </trkpt>
      <trkpt lat="52.056209966540337" lon="10.120525974780321">
        <ele>127.98999999999999</ele>
        <time>2019-05-09T08:35:20Z</time>
      </trkpt>
      <trkpt lat="52.055621976032853" lon="10.119866989552975">
        <ele>128.94999999999999</ele>
        <time>2019-05-09T08:35:24Z</time>
      </trkpt>
      <trkpt lat="52.055546035990119" lon="10.119698010385036">
        <ele>128.94999999999999</ele>
        <time>2019-05-09T08:35:25Z</time>
      </trkpt>
      <trkpt lat="52.055492978543043" lon="10.119516039267182">
        <ele>128.94999999999999</ele>
        <time>2019-05-09T08:35:26Z</time>
      </trkpt>
      <trkpt lat="52.055483004078269" lon="10.119327027350664">
        <ele>129.43000000000001</ele>
        <time>2019-05-09T08:35:27Z</time>
      </trkpt>
      <trkpt lat="52.055491972714663" lon="10.119128962978721">
        <ele>129.43000000000001</ele>
        <time>2019-05-09T08:35:28Z</time>
      </trkpt>
      <trkpt lat="52.055479986593127" lon="10.118920002132654">
        <ele>129.43000000000001</ele>
        <time>2019-05-09T08:35:29Z</time>
      </trkpt>
      <trkpt lat="52.05544201657176" lon="10.118731996044517">
        <ele>129.43000000000001</ele>
        <time>2019-05-09T08:35:30Z</time>
      </trkpt>
      <trkpt lat="52.055403040722013" lon="10.118538038805127">
        <ele>128.94999999999999</ele>
        <time>2019-05-09T08:35:31Z</time>
      </trkpt>
      <trkpt lat="52.055369010195136" lon="10.118365036323667">
        <ele>128.94999999999999</ele>
        <time>2019-05-09T08:35:32Z</time>
      </trkpt>
      <trkpt lat="52.055261973291636" lon="10.118183987215161">
        <ele>128.94999999999999</ele>
        <time>2019-05-09T08:35:33Z</time>
      </trkpt>
      <trkpt lat="52.055160971358418" lon="10.118010984733701">
        <ele>128.47</ele>
        <time>2019-05-09T08:35:34Z</time>
      </trkpt>
      <trkpt lat="52.055058041587472" lon="10.117834964767098">
        <ele>128.47</ele>
        <time>2019-05-09T08:35:35Z</time>
      </trkpt>
      <trkpt lat="52.054960979148746" lon="10.117641007527709">
        <ele>128.47</ele>
        <time>2019-05-09T08:35:36Z</time>
      </trkpt>
      <trkpt lat="52.054875986650586" lon="10.117439003661275">
        <ele>128.47</ele>
        <time>2019-05-09T08:35:37Z</time>
      </trkpt>
      <trkpt lat="52.054786970838904" lon="10.117229036986828">
        <ele>127.98999999999999</ele>
        <time>2019-05-09T08:35:38Z</time>
      </trkpt>
      <trkpt lat="52.054768027737737" lon="10.117185031995177">
        <ele>127.51000000000001</ele>
        <time>2019-05-09T08:35:39Z</time>
      </trkpt>
      <trkpt lat="52.05468999221921" lon="10.11678596958518">
        <ele>127.51000000000001</ele>
        <time>2019-05-09T08:35:40Z</time>
      </trkpt>
      <trkpt lat="52.054649004712701" lon="10.116574997082353">
        <ele>127.03</ele>
        <time>2019-05-09T08:35:41Z</time>
      </trkpt>
      <trkpt lat="52.054610028862953" lon="10.116380034014583">
        <ele>126.55</ele>
        <time>2019-05-09T08:35:42Z</time>
      </trkpt>
      <trkpt lat="52.054575998336077" lon="10.116202002391219">
        <ele>126.55</ele>
        <time>2019-05-09T08:35:43Z</time>
      </trkpt>
      <trkpt lat="52.054528975859284" lon="10.116056995466352">
        <ele>126.06999999999999</ele>
        <time>2019-05-09T08:35:44Z</time>
      </trkpt>
      <trkpt lat="52.05445496365428" lon="10.115959011018276">
        <ele>126.06999999999999</ele>
        <time>2019-05-09T08:35:45Z</time>
      </trkpt>
      <trkpt lat="52.054364020004869" lon="10.115912994369864">
        <ele>125.59</ele>
        <time>2019-05-09T08:35:46Z</time>
      </trkpt>
      <trkpt lat="52.054252959787846" lon="10.115901008248329">
        <ele>125.59</ele>
        <time>2019-05-09T08:35:47Z</time>
      </trkpt>
      <trkpt lat="52.054133014753461" lon="10.115889022126794">
        <ele>125.59</ele>
        <time>2019-05-09T08:35:48Z</time>
      </trkpt>
      <trkpt lat="52.054017009213567" lon="10.115876030176878">
        <ele>125.59</ele>
        <time>2019-05-09T08:35:49Z</time>
      </trkpt>
      <trkpt lat="52.053883988410234" lon="10.115787014365196">
        <ele>125.11</ele>
        <time>2019-05-09T08:35:50Z</time>
      </trkpt>
      <trkpt lat="52.053806958720088" lon="10.115695986896753">
        <ele>125.11</ele>
        <time>2019-05-09T08:35:51Z</time>
      </trkpt>
      <trkpt lat="52.053750967606902" lon="10.115527007728815">
        <ele>125.11</ele>
        <time>2019-05-09T08:35:52Z</time>
      </trkpt>
      <trkpt lat="52.053689025342464" lon="10.115342019125819">
        <ele>124.63</ele>
        <time>2019-05-09T08:35:53Z</time>
      </trkpt>
      <trkpt lat="52.053367998450994" lon="10.11437801644206">
        <ele>123.67</ele>
        <time>2019-05-09T08:35:58Z</time>
      </trkpt>
      <trkpt lat="52.053261967375875" lon="10.114223035052419">
        <ele>123.19</ele>
        <time>2019-05-09T08:35:59Z</time>
      </trkpt>
      <trkpt lat="52.053136993199587" lon="10.114074004814029">
        <ele>123.19</ele>
        <time>2019-05-09T08:36:00Z</time>
      </trkpt>
      <trkpt lat="52.053012019023299" lon="10.113973002880812">
        <ele>123.19</ele>
        <time>2019-05-09T08:36:01Z</time>
      </trkpt>
      <trkpt lat="52.052874974906445" lon="10.113862026482821">
        <ele>123.67</ele>
        <time>2019-05-09T08:36:02Z</time>
      </trkpt>
      <trkpt lat="52.052743965759873" lon="10.113755995407701">
        <ele>123.19</ele>
        <time>2019-05-09T08:36:03Z</time>
      </trkpt>
      <trkpt lat="52.052615974098444" lon="10.113651975989342">
        <ele>122.70999999999999</ele>
        <time>2019-05-09T08:36:04Z</time>
      </trkpt>
      <trkpt lat="52.052512038499117" lon="10.113455001264811">
        <ele>122.70999999999999</ele>
        <time>2019-05-09T08:36:05Z</time>
      </trkpt>
      <trkpt lat="52.052440959960222" lon="10.113276969641447">
        <ele>122.70999999999999</ele>
        <time>2019-05-09T08:36:06Z</time>
      </trkpt>
      <trkpt lat="52.052380023524165" lon="10.113123999908566">
        <ele>122.70999999999999</ele>
        <time>2019-05-09T08:36:07Z</time>
      </trkpt>
      <trkpt lat="52.052331995218992" lon="10.11300397105515">
        <ele>122.22</ele>
        <time>2019-05-09T08:36:08Z</time>
      </trkpt>
      <trkpt lat="52.052293019369245" lon="10.112929036840796">
        <ele>122.22</ele>
        <time>2019-05-09T08:36:09Z</time>
      </trkpt>
      <trkpt lat="52.052259994670749" lon="10.11287203989923">
        <ele>122.22</ele>
        <time>2019-05-09T08:36:10Z</time>
      </trkpt>
      <trkpt lat="52.052226969972253" lon="10.112813031300902">
        <ele>122.22</ele>
        <time>2019-05-09T08:36:11Z</time>
      </trkpt>
      <trkpt lat="52.052185982465744" lon="10.112741030752659">
        <ele>122.22</ele>
        <time>2019-05-09T08:36:12Z</time>
      </trkpt>
      <trkpt lat="52.052150024101138" lon="10.112679004669189">
        <ele>122.22</ele>
        <time>2019-05-09T08:36:13Z</time>
      </trkpt>
      <trkpt lat="52.052064025774598" lon="10.112636005505919">
        <ele>122.22</ele>
        <time>2019-05-09T08:36:14Z</time>
      </trkpt>
      <trkpt lat="52.051936034113169" lon="10.112571967765689">
        <ele>122.22</ele>
        <time>2019-05-09T08:36:15Z</time>
      </trkpt>
      <trkpt lat="52.051860010251403" lon="10.112613961100578">
        <ele>122.22</ele>
        <time>2019-05-09T08:36:16Z</time>
      </trkpt>
      <trkpt lat="52.051753979176283" lon="10.112673975527287">
        <ele>122.22</ele>
        <time>2019-05-09T08:36:17Z</time>
      </trkpt>
      <trkpt lat="52.051636967808008" lon="10.112739019095898">
        <ele>122.22</ele>
        <time>2019-05-09T08:36:18Z</time>
      </trkpt>
      <trkpt lat="52.05151098780334" lon="10.11280900798738">
        <ele>122.70999999999999</ele>
        <time>2019-05-09T08:36:19Z</time>
      </trkpt>
      <trkpt lat="52.051387019455433" lon="10.112877991050482">
        <ele>123.67</ele>
        <time>2019-05-09T08:36:20Z</time>
      </trkpt>
      <trkpt lat="52.051205970346928" lon="10.112979998812079">
        <ele>124.15000000000001</ele>
        <time>2019-05-09T08:36:21Z</time>
      </trkpt>
      <trkpt lat="52.051138998940587" lon="10.112979998812079">
        <ele>125.11</ele>
        <time>2019-05-09T08:36:22Z</time>
      </trkpt>
      <trkpt lat="52.05088896676898" lon="10.112979998812079">
        <ele>126.55</ele>
        <time>2019-05-09T08:36:24Z</time>
      </trkpt>
      <trkpt lat="52.050768015906215" lon="10.112930964678526">
        <ele>127.51000000000001</ele>
        <time>2019-05-09T08:36:25Z</time>
      </trkpt>
      <trkpt lat="52.050652010366321" lon="10.112853012979031">
        <ele>127.98999999999999</ele>
        <time>2019-05-09T08:36:26Z</time>
      </trkpt>
      <trkpt lat="52.050542961806059" lon="10.112722003832459">
        <ele>128.47</ele>
        <time>2019-05-09T08:36:27Z</time>
      </trkpt>
      <trkpt lat="52.050460986793041" lon="10.112552018836141">
        <ele>128.94999999999999</ele>
        <time>2019-05-09T08:36:28Z</time>
      </trkpt>
      <trkpt lat="52.050375994294882" lon="10.112374993041158">
        <ele>128.94999999999999</ele>
        <time>2019-05-09T08:36:29Z</time>
      </trkpt>
      <trkpt lat="52.050311034545302" lon="10.112124038860202">
        <ele>129.43000000000001</ele>
        <time>2019-05-09T08:36:30Z</time>
      </trkpt>
      <trkpt lat="52.050287984311581" lon="10.111900996416807">
        <ele>129.43000000000001</ele>
        <time>2019-05-09T08:36:31Z</time>
      </trkpt>
      <trkpt lat="52.050287984311581" lon="10.111680971458554">
        <ele>128.94999999999999</ele>
        <time>2019-05-09T08:36:32Z</time>
      </trkpt>
      <trkpt lat="52.050293013453484" lon="10.11147796176374">
        <ele>128.94999999999999</ele>
        <time>2019-05-09T08:36:33Z</time>
      </trkpt>
      <trkpt lat="52.050297036767006" lon="10.111289033666253">
        <ele>128.94999999999999</ele>
        <time>2019-05-09T08:36:34Z</time>
      </trkpt>
      <trkpt lat="52.050300976261497" lon="10.111121982336044">
        <ele>128.47</ele>
        <time>2019-05-09T08:36:35Z</time>
      </trkpt>
      <trkpt lat="52.050304999575019" lon="10.11096297763288">
        <ele>127.98999999999999</ele>
        <time>2019-05-09T08:36:36Z</time>
      </trkpt>
      <trkpt lat="52.050271974876523" lon="10.11085300706327">
        <ele>127.51000000000001</ele>
        <time>2019-05-09T08:36:37Z</time>
      </trkpt>
      <trkpt lat="52.050215983763337" lon="10.110740019008517">
        <ele>126.55</ele>
        <time>2019-05-09T08:36:38Z</time>
      </trkpt>
      <trkpt lat="52.050134008750319" lon="10.110712023451924">
        <ele>126.55</ele>
        <time>2019-05-09T08:36:39Z</time>
      </trkpt>
      <trkpt lat="52.050039963796735" lon="10.110686039552093">
        <ele>126.06999999999999</ele>
        <time>2019-05-09T08:36:40Z</time>
      </trkpt>
      <trkpt lat="52.049938961863518" lon="10.110716968774796">
        <ele>125.59</ele>
        <time>2019-05-09T08:36:41Z</time>
      </trkpt>
      <trkpt lat="52.04983402043581" lon="10.110748987644911">
        <ele>125.11</ele>
        <time>2019-05-09T08:36:42Z</time>
      </trkpt>
      <trkpt lat="52.049768976867199" lon="10.110769020393491">
        <ele>124.63</ele>
        <time>2019-05-09T08:36:43Z</time>
      </trkpt>
      <trkpt lat="52.049617012962699" lon="10.110731972381473">
        <ele>124.63</ele>
        <time>2019-05-09T08:36:44Z</time>
      </trkpt>
      <trkpt lat="52.049547024071217" lon="10.110672041773796">
        <ele>124.15000000000001</ele>
        <time>2019-05-09T08:36:45Z</time>
      </trkpt>
      <trkpt lat="52.049460019916296" lon="10.110576990991831">
        <ele>124.15000000000001</ele>
        <time>2019-05-09T08:36:46Z</time>
      </trkpt>
      <trkpt lat="52.04936102963984" lon="10.110469032078981">
        <ele>124.15000000000001</ele>
        <time>2019-05-09T08:36:47Z</time>
      </trkpt>
      <trkpt lat="52.049288023263216" lon="10.11029401794076">
        <ele>124.15000000000001</ele>
        <time>2019-05-09T08:36:48Z</time>
      </trkpt>
      <trkpt lat="52.049221973866224" lon="10.110100982710719">
        <ele>123.67</ele>
        <time>2019-05-09T08:36:49Z</time>
      </trkpt>
      <trkpt lat="52.049160031601787" lon="10.109877018257976">
        <ele>123.67</ele>
        <time>2019-05-09T08:36:50Z</time>
      </trkpt>
      <trkpt lat="52.049094988033175" lon="10.109647018834949">
        <ele>123.67</ele>
        <time>2019-05-09T08:36:51Z</time>
      </trkpt>
      <trkpt lat="52.049055006355047" lon="10.109397992491722">
        <ele>124.15000000000001</ele>
        <time>2019-05-09T08:36:52Z</time>
      </trkpt>
      <trkpt lat="52.049045031890273" lon="10.109149971976876">
        <ele>124.15000000000001</ele>
        <time>2019-05-09T08:36:53Z</time>
      </trkpt>
      <trkpt lat="52.048986023291945" lon="10.107844993472099">
        <ele>125.59</ele>
        <time>2019-05-09T08:36:58Z</time>
      </trkpt>
      <trkpt lat="52.04895400442183" lon="10.107568977400661">
        <ele>126.06999999999999</ele>
        <time>2019-05-09T08:36:59Z</time>
      </trkpt>
      <trkpt lat="52.048922991380095" lon="10.107294972985983">
        <ele>126.55</ele>
        <time>2019-05-09T08:37:00Z</time>
      </trkpt>
      <trkpt lat="52.048850990831852" lon="10.107041001319885">
        <ele>127.03</ele>
        <time>2019-05-09T08:37:01Z</time>
      </trkpt>
      <trkpt lat="52.048762980848551" lon="10.106827011331916">
        <ele>127.51000000000001</ele>
        <time>2019-05-09T08:37:02Z</time>
      </trkpt>
      <trkpt lat="52.048638006672263" lon="10.106693990528584">
        <ele>127.51000000000001</ele>
        <time>2019-05-09T08:37:03Z</time>
      </trkpt>
      <trkpt lat="52.048533987253904" lon="10.106586031615734">
        <ele>127.98999999999999</ele>
        <time>2019-05-09T08:37:04Z</time>
      </trkpt>
      <trkpt lat="52.048446983098984" lon="10.106497015804052">
        <ele>128.47</ele>
        <time>2019-05-09T08:37:05Z</time>
      </trkpt>
      <trkpt lat="52.048289990052581" lon="10.106332981958985">
        <ele>133.28</ele>
        <time>2019-05-09T08:37:08Z</time>
      </trkpt>
      <trkpt lat="52.048251014202833" lon="10.106293000280857">
        <ele>135.19999999999999</ele>
        <time>2019-05-09T08:37:09Z</time>
      </trkpt>
      <trkpt lat="52.048220001161098" lon="10.106260981410742">
        <ele>136.63999999999999</ele>
        <time>2019-05-09T08:37:10Z</time>
      </trkpt>
      <trkpt lat="52.048197034746408" lon="10.106238014996052">
        <ele>138.09</ele>
        <time>2019-05-09T08:37:11Z</time>
      </trkpt>
      <trkpt lat="52.048197034746408" lon="10.106238014996052">
        <ele>139.05000000000001</ele>
        <time>2019-05-09T08:37:23Z</time>
      </trkpt>
      <trkpt lat="52.048197034746408" lon="10.106238014996052">
        <ele>140.97</ele>
        <time>2019-05-09T08:38:20Z</time>
      </trkpt>
      <trkpt lat="52.048197034746408" lon="10.106238014996052">
        <ele>143.37</ele>
        <time>2019-05-09T08:39:21Z</time>
      </trkpt>
      <trkpt lat="52.048099972307682" lon="10.106101976707578">
        <ele>149.13999999999999</ele>
        <time>2019-05-09T08:39:28Z</time>
      </trkpt>
      <trkpt lat="52.048041969537735" lon="10.106015978381038">
        <ele>149.13999999999999</ele>
        <time>2019-05-09T08:39:29Z</time>
      </trkpt>
      <trkpt lat="52.047466970980167" lon="10.105166975408792">
        <ele>152.50999999999999</ele>
        <time>2019-05-09T08:39:35Z</time>
      </trkpt>
      <trkpt lat="52.046444965526462" lon="10.103652030229568">
        <ele>153.94999999999999</ele>
        <time>2019-05-09T08:39:42Z</time>
      </trkpt>
      <trkpt lat="52.044660039246082" lon="10.100975017994642">
        <ele>151.06</ele>
        <time>2019-05-09T08:39:54Z</time>
      </trkpt>
      <trkpt lat="52.043717997148633" lon="10.099440040066838">
        <ele>151.06</ele>
        <time>2019-05-09T08:40:01Z</time>
      </trkpt>
      <trkpt lat="52.042853990569711" lon="10.097182039171457">
        <ele>153.47</ele>
        <time>2019-05-09T08:40:09Z</time>
      </trkpt>
      <trkpt lat="52.041508024558425" lon="10.093483021482825">
        <ele>150.58000000000001</ele>
        <time>2019-05-09T08:40:21Z</time>
      </trkpt>
      <trkpt lat="52.040268005803227" lon="10.09012003429234">
        <ele>144.81999999999999</ele>
        <time>2019-05-09T08:40:32Z</time>
      </trkpt>
      <trkpt lat="52.039338033646345" lon="10.087616024538875">
        <ele>140.49000000000001</ele>
        <time>2019-05-09T08:40:41Z</time>
      </trkpt>
      <trkpt lat="52.038649963214993" lon="10.085736969485879">
        <ele>139.05000000000001</ele>
        <time>2019-05-09T08:40:49Z</time>
      </trkpt>
      <trkpt lat="52.038436979055405" lon="10.085153002291918">
        <ele>140.00999999999999</ele>
        <time>2019-05-09T08:40:55Z</time>
      </trkpt>
      <trkpt lat="52.038414012640715" lon="10.085090976208448">
        <ele>140.49000000000001</ele>
        <time>2019-05-09T08:41:05Z</time>
      </trkpt>
      <trkpt lat="52.038378976285458" lon="10.085047977045178">
        <ele>140.49000000000001</ele>
        <time>2019-05-09T08:41:06Z</time>
      </trkpt>
      <trkpt lat="52.038328014314175" lon="10.085069015622139">
        <ele>140.49000000000001</ele>
        <time>2019-05-09T08:41:07Z</time>
      </trkpt>
      <trkpt lat="52.038258025422692" lon="10.085097011178732">
        <ele>140.49000000000001</ele>
        <time>2019-05-09T08:41:08Z</time>
      </trkpt>
      <trkpt lat="52.038169009611011" lon="10.085131963714957">
        <ele>140.00999999999999</ele>
        <time>2019-05-09T08:41:09Z</time>
      </trkpt>
      <trkpt lat="52.038063984364271" lon="10.085175968706608">
        <ele>139.53</ele>
        <time>2019-05-09T08:41:10Z</time>
      </trkpt>
      <trkpt lat="52.037071986123919" lon="10.085796983912587">
        <ele>135.68000000000001</ele>
        <time>2019-05-09T08:41:17Z</time>
      </trkpt>
      <trkpt lat="52.035519992932677" lon="10.086754029616714">
        <ele>130.88</ele>
        <time>2019-05-09T08:41:27Z</time>
      </trkpt>
      <trkpt lat="52.034121975302696" lon="10.087505970150232">
        <ele>130.40000000000001</ele>
        <time>2019-05-09T08:41:34Z</time>
      </trkpt>
      <trkpt lat="52.031643027439713" lon="10.089194001629949">
        <ele>124.15000000000001</ele>
        <time>2019-05-09T08:41:45Z</time>
      </trkpt>
      <trkpt lat="52.030034037306905" lon="10.090727973729372">
        <ele>117.90000000000001</ele>
        <time>2019-05-09T08:41:52Z</time>
      </trkpt>
      <trkpt lat="52.027990026399493" lon="10.091657023876905">
        <ele>120.3</ele>
        <time>2019-05-09T08:42:00Z</time>
      </trkpt>
      <trkpt lat="52.024492006748915" lon="10.092954961583018">
        <ele>122.70999999999999</ele>
        <time>2019-05-09T08:42:13Z</time>
      </trkpt>
      <trkpt lat="52.022388987243176" lon="10.093485033139586">
        <ele>122.70999999999999</ele>
        <time>2019-05-09T08:42:21Z</time>
      </trkpt>
      <trkpt lat="52.020568018779159" lon="10.094664031639695">
        <ele>127.98999999999999</ele>
        <time>2019-05-09T08:42:29Z</time>
      </trkpt>
      <trkpt lat="52.017975999042392" lon="10.096682980656624">
        <ele>132.31999999999999</ele>
        <time>2019-05-09T08:42:41Z</time>
      </trkpt>
      <trkpt lat="52.016701027750969" lon="10.097909001633525">
        <ele>134.72</ele>
        <time>2019-05-09T08:42:49Z</time>
      </trkpt>
      <trkpt lat="52.01561096124351" lon="10.099372984841466">
        <ele>132.80000000000001</ele>
        <time>2019-05-09T08:42:56Z</time>
      </trkpt>
      <trkpt lat="52.014414025470614" lon="10.101720001548529">
        <ele>128.94999999999999</ele>
        <time>2019-05-09T08:43:03Z</time>
      </trkpt>
      <trkpt lat="52.013989984989166" lon="10.10324701666832">
        <ele>127.98999999999999</ele>
        <time>2019-05-09T08:43:07Z</time>
      </trkpt>
      <trkpt lat="52.013705000281334" lon="10.105963004752994">
        <ele>126.55</ele>
        <time>2019-05-09T08:43:14Z</time>
      </trkpt>
      <trkpt lat="52.013284983113408" lon="10.109388018026948">
        <ele>125.11</ele>
        <time>2019-05-09T08:43:23Z</time>
      </trkpt>
      <trkpt lat="52.012530025094748" lon="10.113451983779669">
        <ele>125.59</ele>
        <time>2019-05-09T08:43:34Z</time>
      </trkpt>
      <trkpt lat="52.011881014332175" lon="10.117200035601854">
        <ele>121.26000000000001</ele>
        <time>2019-05-09T08:43:45Z</time>
      </trkpt>
      <trkpt lat="52.011406011879444" lon="10.119690969586372">
        <ele>117.42</ele>
        <time>2019-05-09T08:43:53Z</time>
      </trkpt>
      <trkpt lat="52.010719031095505" lon="10.121528031304479">
        <ele>114.05</ele>
        <time>2019-05-09T08:44:00Z</time>
      </trkpt>
      <trkpt lat="52.009825017303228" lon="10.123070972040296">
        <ele>110.20999999999999</ele>
        <time>2019-05-09T08:44:08Z</time>
      </trkpt>
      <trkpt lat="52.009336017072201" lon="10.123706990852952">
        <ele>110.20999999999999</ele>
        <time>2019-05-09T08:44:14Z</time>
      </trkpt>
      <trkpt lat="52.00905597768724" lon="10.12398099526763">
        <ele>113.56999999999999</ele>
        <time>2019-05-09T08:44:23Z</time>
      </trkpt>
      <trkpt lat="52.009015996009111" lon="10.124018965288997">
        <ele>113.56999999999999</ele>
        <time>2019-05-09T08:44:24Z</time>
      </trkpt>
      <trkpt lat="52.008908959105611" lon="10.123983006924391">
        <ele>114.05</ele>
        <time>2019-05-09T08:44:25Z</time>
      </trkpt>
      <trkpt lat="52.008888004347682" lon="10.123893991112709">
        <ele>114.05</ele>
        <time>2019-05-09T08:44:26Z</time>
      </trkpt>
      <trkpt lat="52.008855985477567" lon="10.123782008886337">
        <ele>113.56999999999999</ele>
        <time>2019-05-09T08:44:27Z</time>
      </trkpt>
      <trkpt lat="52.008798988536" lon="10.123649993911386">
        <ele>113.56999999999999</ele>
        <time>2019-05-09T08:44:28Z</time>
      </trkpt>
      <trkpt lat="52.008731011301279" lon="10.123489983379841">
        <ele>113.09</ele>
        <time>2019-05-09T08:44:29Z</time>
      </trkpt>
      <trkpt lat="52.008653981611133" lon="10.123312035575509">
        <ele>112.61</ele>
        <time>2019-05-09T08:44:30Z</time>
      </trkpt>
      <trkpt lat="52.008567983284593" lon="10.123111037537456">
        <ele>112.61</ele>
        <time>2019-05-09T08:44:31Z</time>
      </trkpt>
      <trkpt lat="52.007471965625882" lon="10.121644958853722">
        <ele>111.65000000000001</ele>
        <time>2019-05-09T08:44:39Z</time>
      </trkpt>
      <trkpt lat="52.005866998806596" lon="10.119871012866497">
        <ele>112.61</ele>
        <time>2019-05-09T08:44:50Z</time>
      </trkpt>
      <trkpt lat="52.00572500936687" lon="10.119757018983364">
        <ele>113.09</ele>
        <time>2019-05-09T08:44:51Z</time>
      </trkpt>
      <trkpt lat="52.005587965250015" lon="10.119674960151315">
        <ele>113.56999999999999</ele>
        <time>2019-05-09T08:44:52Z</time>
      </trkpt>
      <trkpt lat="52.005469026044011" lon="10.119606982916594">
        <ele>113.56999999999999</ele>
        <time>2019-05-09T08:44:53Z</time>
      </trkpt>
      <trkpt lat="52.005361989140511" lon="10.119576975703239">
        <ele>114.05</ele>
        <time>2019-05-09T08:44:54Z</time>
      </trkpt>
      <trkpt lat="52.005264004692435" lon="10.119549985975027">
        <ele>113.56999999999999</ele>
        <time>2019-05-09T08:44:55Z</time>
      </trkpt>
      <trkpt lat="52.005094019696116" lon="10.119502963498235">
        <ele>113.56999999999999</ele>
        <time>2019-05-09T08:44:56Z</time>
      </trkpt>
      <trkpt lat="52.004943983629346" lon="10.119511010125279">
        <ele>112.61</ele>
        <time>2019-05-09T08:44:58Z</time>
      </trkpt>
      <trkpt lat="52.004728987812996" lon="10.119524002075195">
        <ele>111.65000000000001</ele>
        <time>2019-05-09T08:44:59Z</time>
      </trkpt>
      <trkpt lat="52.004660004749894" lon="10.119545962661505">
        <ele>110.69</ele>
        <time>2019-05-09T08:45:00Z</time>
      </trkpt>
      <trkpt lat="52.003467008471489" lon="10.119932033121586">
        <ele>107.81</ele>
        <time>2019-05-09T08:45:06Z</time>
      </trkpt>
      <trkpt lat="52.001638999208808" lon="10.120128002017736">
        <ele>106.84</ele>
        <time>2019-05-09T08:45:13Z</time>
      </trkpt>
      <trkpt lat="51.999174971133471" lon="10.120401000604033">
        <ele>106.36</ele>
        <time>2019-05-09T08:45:22Z</time>
      </trkpt>
      <trkpt lat="51.997385015711188" lon="10.121011035516858">
        <ele>107.81</ele>
        <time>2019-05-09T08:45:29Z</time>
      </trkpt>
      <trkpt lat="51.995839979499578" lon="10.121090998873115">
        <ele>110.69</ele>
        <time>2019-05-09T08:45:35Z</time>
      </trkpt>
      <trkpt lat="51.993310991674662" lon="10.120896035805345">
        <ele>115.01000000000001</ele>
        <time>2019-05-09T08:45:45Z</time>
      </trkpt>
      <trkpt lat="51.993100019171834" lon="10.120813976973295">
        <ele>115.5</ele>
        <time>2019-05-09T08:45:46Z</time>
      </trkpt>
      <trkpt lat="51.992912013083696" lon="10.120642986148596">
        <ele>115.98</ele>
        <time>2019-05-09T08:45:47Z</time>
      </trkpt>
      <trkpt lat="51.992716966196895" lon="10.120464032515883">
        <ele>116.45999999999999</ele>
        <time>2019-05-09T08:45:48Z</time>
      </trkpt>
      <trkpt lat="51.99251102283597" lon="10.120276026427746">
        <ele>116.45999999999999</ele>
        <time>2019-05-09T08:45:49Z</time>
      </trkpt>
      <trkpt lat="51.992303989827633" lon="10.120074022561312">
        <ele>116.94</ele>
        <time>2019-05-09T08:45:50Z</time>
      </trkpt>
      <trkpt lat="51.990175992250443" lon="10.117700016126037">
        <ele>117.42</ele>
        <time>2019-05-09T08:46:00Z</time>
      </trkpt>
      <trkpt lat="51.988806976005435" lon="10.116082979366183">
        <ele>115.98</ele>
        <time>2019-05-09T08:46:07Z</time>
      </trkpt>
      <trkpt lat="51.988614024594426" lon="10.115854991599917">
        <ele>115.98</ele>
        <time>2019-05-09T08:46:08Z</time>
      </trkpt>
      <trkpt lat="51.986750978976488" lon="10.114647997543216">
        <ele>115.98</ele>
        <time>2019-05-09T08:46:17Z</time>
      </trkpt>
      <trkpt lat="51.986537994816899" lon="10.11461497284472">
        <ele>115.98</ele>
        <time>2019-05-09T08:46:18Z</time>
      </trkpt>
      <trkpt lat="51.985524035990238" lon="10.114492010325193">
        <ele>116.94</ele>
        <time>2019-05-09T08:46:24Z</time>
      </trkpt>
      <trkpt lat="51.985410964116454" lon="10.114520005881786">
        <ele>117.42</ele>
        <time>2019-05-09T08:46:25Z</time>
      </trkpt>
      <trkpt lat="51.985303005203605" lon="10.114548001438379">
        <ele>116.94</ele>
        <time>2019-05-09T08:46:26Z</time>
      </trkpt>
      <trkpt lat="51.983986962586641" lon="10.115149989724159">
        <ele>116.94</ele>
        <time>2019-05-09T08:46:38Z</time>
      </trkpt>
      <trkpt lat="51.982838977128267" lon="10.115791037678719">
        <ele>120.78</ele>
        <time>2019-05-09T08:46:48Z</time>
      </trkpt>
      <trkpt lat="51.982390964403749" lon="10.116048026829958">
        <ele>121.26000000000001</ele>
        <time>2019-05-09T08:46:52Z</time>
      </trkpt>
      <trkpt lat="51.981929959729314" lon="10.116391014307737">
        <ele>121.73999999999999</ele>
        <time>2019-05-09T08:46:57Z</time>
      </trkpt>
      <trkpt lat="51.981432996690273" lon="10.116682033985853">
        <ele>122.70999999999999</ele>
        <time>2019-05-09T08:47:02Z</time>
      </trkpt>
      <trkpt lat="51.981027983129025" lon="10.116889989003539">
        <ele>124.15000000000001</ele>
        <time>2019-05-09T08:47:06Z</time>
      </trkpt>
      <trkpt lat="51.98099697008729" lon="10.116905998438597">
        <ele>124.63</ele>
        <time>2019-05-09T08:47:07Z</time>
      </trkpt>
      <trkpt lat="51.980895968154073" lon="10.117031978443265">
        <ele>125.11</ele>
        <time>2019-05-09T08:47:08Z</time>
      </trkpt>
      <trkpt lat="51.98082497343421" lon="10.117120994254947">
        <ele>126.06999999999999</ele>
        <time>2019-05-09T08:47:09Z</time>
      </trkpt>
      <trkpt lat="51.980821033939719" lon="10.117275975644588">
        <ele>127.03</ele>
        <time>2019-05-09T08:47:10Z</time>
      </trkpt>
      <trkpt lat="51.980816004797816" lon="10.11747102253139">
        <ele>127.98999999999999</ele>
        <time>2019-05-09T08:47:11Z</time>
      </trkpt>
      <trkpt lat="51.980754984542727" lon="10.118130007758737">
        <ele>129.91999999999999</ele>
        <time>2019-05-09T08:47:14Z</time>
      </trkpt>
      <trkpt lat="51.980708967894316" lon="10.11833100579679">
        <ele>129.91999999999999</ele>
        <time>2019-05-09T08:47:15Z</time>
      </trkpt>
      <trkpt lat="51.980627998709679" lon="10.11850300244987">
        <ele>129.91999999999999</ele>
        <time>2019-05-09T08:47:16Z</time>
      </trkpt>
      <trkpt lat="51.980538982897997" lon="10.11865203268826">
        <ele>129.91999999999999</ele>
        <time>2019-05-09T08:47:17Z</time>
      </trkpt>
      <trkpt lat="51.980421971529722" lon="10.118778012692928">
        <ele>129.91999999999999</ele>
        <time>2019-05-09T08:47:18Z</time>
      </trkpt>
      <trkpt lat="51.980304960161448" lon="10.118902986869216">
        <ele>129.91999999999999</ele>
        <time>2019-05-09T08:47:19Z</time>
      </trkpt>
      <trkpt lat="51.979698026552796" lon="10.119313029572368">
        <ele>132.31999999999999</ele>
        <time>2019-05-09T08:47:23Z</time>
      </trkpt>
      <trkpt lat="51.979517983272672" lon="10.119397016242146">
        <ele>133.28</ele>
        <time>2019-05-09T08:47:24Z</time>
      </trkpt>
      <trkpt lat="51.979326037690043" lon="10.119450995698571">
        <ele>134.24000000000001</ele>
        <time>2019-05-09T08:47:25Z</time>
      </trkpt>
      <trkpt lat="51.979129984974861" lon="10.119505980983377">
        <ele>135.19999999999999</ele>
        <time>2019-05-09T08:47:26Z</time>
      </trkpt>
      <trkpt lat="51.978918006643653" lon="10.119531964883208">
        <ele>136.16</ele>
        <time>2019-05-09T08:47:27Z</time>
      </trkpt>
      <trkpt lat="51.97704297490418" lon="10.119639001786709">
        <ele>144.34</ele>
        <time>2019-05-09T08:47:35Z</time>
      </trkpt>
      <trkpt lat="51.975144976750016" lon="10.120147028937936">
        <ele>150.58000000000001</ele>
        <time>2019-05-09T08:47:43Z</time>
      </trkpt>
      <trkpt lat="51.974667040631175" lon="10.120275020599365">
        <ele>152.99000000000001</ele>
        <time>2019-05-09T08:47:47Z</time>
      </trkpt>
      <trkpt lat="51.974624041467905" lon="10.120387002825737">
        <ele>153.47</ele>
        <time>2019-05-09T08:47:48Z</time>
      </trkpt>
      <trkpt lat="51.974580036476254" lon="10.120503008365631">
        <ele>153.94999999999999</ele>
        <time>2019-05-09T08:47:49Z</time>
      </trkpt>
      <trkpt lat="51.974527984857559" lon="10.120639968663454">
        <ele>153.94999999999999</ele>
        <time>2019-05-09T08:47:50Z</time>
      </trkpt>
      <trkpt lat="51.974479034543037" lon="10.120825041085482">
        <ele>154.43000000000001</ele>
        <time>2019-05-09T08:47:51Z</time>
      </trkpt>
      <trkpt lat="51.974207041785121" lon="10.122493961825967">
        <ele>154.43000000000001</ele>
        <time>2019-05-09T08:47:57Z</time>
      </trkpt>
      <trkpt lat="51.973608992993832" lon="10.124291041865945">
        <ele>153.94999999999999</ele>
        <time>2019-05-09T08:48:03Z</time>
      </trkpt>
      <trkpt lat="51.973140025511384" lon="10.125331990420818">
        <ele>152.99000000000001</ele>
        <time>2019-05-09T08:48:07Z</time>
      </trkpt>
      <trkpt lat="51.973027959465981" lon="10.12548403814435">
        <ele>152.50999999999999</ele>
        <time>2019-05-09T08:48:08Z</time>
      </trkpt>
      <trkpt lat="51.972894016653299" lon="10.125610018149018">
        <ele>152.03</ele>
        <time>2019-05-09T08:48:09Z</time>
      </trkpt>
      <trkpt lat="51.972734006121755" lon="10.125734992325306">
        <ele>151.53999999999999</ele>
        <time>2019-05-09T08:48:10Z</time>
      </trkpt>
      <trkpt lat="51.972556980326772" lon="10.125872958451509">
        <ele>150.58000000000001</ele>
        <time>2019-05-09T08:48:11Z</time>
      </trkpt>
      <trkpt lat="51.971080005168915" lon="10.127004012465477">
        <ele>141.93000000000001</ele>
        <time>2019-05-09T08:48:18Z</time>
      </trkpt>
      <trkpt lat="51.969989016652107" lon="10.12784999795258">
        <ele>135.68000000000001</ele>
        <time>2019-05-09T08:48:23Z</time>
      </trkpt>
      <trkpt lat="51.969752982258797" lon="10.127897020429373">
        <ele>135.19999999999999</ele>
        <time>2019-05-09T08:48:24Z</time>
      </trkpt>
      <trkpt lat="51.967233968898654" lon="10.128317959606647">
        <ele>136.63999999999999</ele>
        <time>2019-05-09T08:48:35Z</time>
      </trkpt>
      <trkpt lat="51.967038000002503" lon="10.128434970974922">
        <ele>136.63999999999999</ele>
        <time>2019-05-09T08:48:36Z</time>
      </trkpt>
      <trkpt lat="51.965416017919779" lon="10.129405008628964">
        <ele>133.75999999999999</ele>
        <time>2019-05-09T08:48:43Z</time>
      </trkpt>
      <trkpt lat="51.963673001155257" lon="10.130389966070652">
        <ele>131.36000000000001</ele>
        <time>2019-05-09T08:48:50Z</time>
      </trkpt>
      <trkpt lat="51.962189991027117" lon="10.13171598315239">
        <ele>129.43000000000001</ele>
        <time>2019-05-09T08:48:57Z</time>
      </trkpt>
      <trkpt lat="51.961675006896257" lon="10.132090989500284">
        <ele>128.47</ele>
        <time>2019-05-09T08:49:00Z</time>
      </trkpt>
      <trkpt lat="51.96150803938508" lon="10.132119990885258">
        <ele>127.98999999999999</ele>
        <time>2019-05-09T08:49:01Z</time>
      </trkpt>
      <trkpt lat="51.961351968348026" lon="10.132143041118979">
        <ele>127.98999999999999</ele>
        <time>2019-05-09T08:49:02Z</time>
      </trkpt>
      <trkpt lat="51.961212996393442" lon="10.132162990048528">
        <ele>127.51000000000001</ele>
        <time>2019-05-09T08:49:03Z</time>
      </trkpt>
      <trkpt lat="51.961097996681929" lon="10.132099958136678">
        <ele>127.03</ele>
        <time>2019-05-09T08:49:04Z</time>
      </trkpt>
      <trkpt lat="51.960976962000132" lon="10.132033992558718">
        <ele>126.55</ele>
        <time>2019-05-09T08:49:05Z</time>
      </trkpt>
      <trkpt lat="51.960866991430521" lon="10.131899965927005">
        <ele>126.06999999999999</ele>
        <time>2019-05-09T08:49:06Z</time>
      </trkpt>
      <trkpt lat="51.960745034739375" lon="10.131751019507647">
        <ele>125.11</ele>
        <time>2019-05-09T08:49:07Z</time>
      </trkpt>
      <trkpt lat="51.960613019764423" lon="10.131588997319341">
        <ele>124.63</ele>
        <time>2019-05-09T08:49:08Z</time>
      </trkpt>
      <trkpt lat="51.960472036153078" lon="10.131418006494641">
        <ele>124.15000000000001</ele>
        <time>2019-05-09T08:49:09Z</time>
      </trkpt>
      <trkpt lat="51.959335030987859" lon="10.130100036039948">
        <ele>119.34</ele>
        <time>2019-05-09T08:49:16Z</time>
      </trkpt>
      <trkpt lat="51.959131015464664" lon="10.129930973052979">
        <ele>118.86</ele>
        <time>2019-05-09T08:49:17Z</time>
      </trkpt>
      <trkpt lat="51.958755003288388" lon="10.129701979458332">
        <ele>117.42</ele>
        <time>2019-05-09T08:49:19Z</time>
      </trkpt>
      <trkpt lat="51.958559034392238" lon="10.129623021930456">
        <ele>116.94</ele>
        <time>2019-05-09T08:49:20Z</time>
      </trkpt>
      <trkpt lat="51.958144968375564" lon="10.129580022767186">
        <ele>115.98</ele>
        <time>2019-05-09T08:49:22Z</time>
      </trkpt>
      <trkpt lat="51.957156993448734" lon="10.129339965060353">
        <ele>115.01000000000001</ele>
        <time>2019-05-09T08:49:27Z</time>
      </trkpt>
      <trkpt lat="51.956983990967274" lon="10.129184983670712">
        <ele>115.01000000000001</ele>
        <time>2019-05-09T08:49:28Z</time>
      </trkpt>
      <trkpt lat="51.956810988485813" lon="10.129021033644676">
        <ele>115.5</ele>
        <time>2019-05-09T08:49:29Z</time>
      </trkpt>
      <trkpt lat="51.955410037189722" lon="10.128001039847732">
        <ele>119.34</ele>
        <time>2019-05-09T08:49:36Z</time>
      </trkpt>
      <trkpt lat="51.953940019011497" lon="10.127196963876486">
        <ele>122.70999999999999</ele>
        <time>2019-05-09T08:49:43Z</time>
      </trkpt>
      <trkpt lat="51.952118966728449" lon="10.126421973109245">
        <ele>127.51000000000001</ele>
        <time>2019-05-09T08:49:52Z</time>
      </trkpt>
      <trkpt lat="51.950288023799658" lon="10.125541035085917">
        <ele>128.47</ele>
        <time>2019-05-09T08:50:01Z</time>
      </trkpt>
      <trkpt lat="51.949193011969328" lon="10.124794961884618">
        <ele>128.94999999999999</ele>
        <time>2019-05-09T08:50:08Z</time>
      </trkpt>
      <trkpt lat="51.948417015373707" lon="10.124273020774126">
        <ele>127.98999999999999</ele>
        <time>2019-05-09T08:50:14Z</time>
      </trkpt>
      <trkpt lat="51.94829598069191" lon="10.124188028275967">
        <ele>127.51000000000001</ele>
        <time>2019-05-09T08:50:15Z</time>
      </trkpt>
      <trkpt lat="51.947593996301293" lon="10.123697016388178">
        <ele>125.59</ele>
        <time>2019-05-09T08:50:21Z</time>
      </trkpt>
      <trkpt lat="51.947473967447877" lon="10.123615963384509">
        <ele>125.59</ele>
        <time>2019-05-09T08:50:22Z</time>
      </trkpt>
      <trkpt lat="51.946101011708379" lon="10.122811971232295">
        <ele>124.15000000000001</ele>
        <time>2019-05-09T08:50:33Z</time>
      </trkpt>
      <trkpt lat="51.945625003427267" lon="10.122525980696082">
        <ele>124.15000000000001</ele>
        <time>2019-05-09T08:50:38Z</time>
      </trkpt>
      <trkpt lat="51.945512015372515" lon="10.122441994026303">
        <ele>124.15000000000001</ele>
        <time>2019-05-09T08:50:41Z</time>
      </trkpt>
      <trkpt lat="51.945425011217594" lon="10.12249899096787">
        <ele>124.15000000000001</ele>
        <time>2019-05-09T08:50:42Z</time>
      </trkpt>
      <trkpt lat="51.945377988740802" lon="10.122561017051339">
        <ele>124.15000000000001</ele>
        <time>2019-05-09T08:50:43Z</time>
      </trkpt>
      <trkpt lat="51.945319985970855" lon="10.122636035084724">
        <ele>124.15000000000001</ele>
        <time>2019-05-09T08:50:44Z</time>
      </trkpt>
      <trkpt lat="51.945248991250992" lon="10.122729996219277">
        <ele>124.15000000000001</ele>
        <time>2019-05-09T08:50:45Z</time>
      </trkpt>
      <trkpt lat="51.945052016526461" lon="10.122939040884376">
        <ele>124.15000000000001</ele>
        <time>2019-05-09T08:50:47Z</time>
      </trkpt>
      <trkpt lat="51.944939028471708" lon="10.123025039210916">
        <ele>124.15000000000001</ele>
        <time>2019-05-09T08:50:48Z</time>
      </trkpt>
      <trkpt lat="51.944335028529167" lon="10.123261995613575">
        <ele>123.19</ele>
        <time>2019-05-09T08:50:53Z</time>
      </trkpt>
      <trkpt lat="51.94339600391686" lon="10.123343970626593">
        <ele>124.15000000000001</ele>
        <time>2019-05-09T08:51:02Z</time>
      </trkpt>
      <trkpt lat="51.942760990932584" lon="10.123343970626593">
        <ele>125.59</ele>
        <time>2019-05-09T08:51:09Z</time>
      </trkpt>
      <trkpt lat="51.941972002387047" lon="10.123343970626593">
        <ele>127.03</ele>
        <time>2019-05-09T08:51:16Z</time>
      </trkpt>
      <trkpt lat="51.94185197353363" lon="10.123343970626593">
        <ele>127.03</ele>
        <time>2019-05-09T08:51:17Z</time>
      </trkpt>
      <trkpt lat="51.941386023536325" lon="10.123383030295372">
        <ele>128.47</ele>
        <time>2019-05-09T08:51:21Z</time>
      </trkpt>
      <trkpt lat="51.940441969782114" lon="10.123580005019903">
        <ele>129.91999999999999</ele>
        <time>2019-05-09T08:51:29Z</time>
      </trkpt>
      <trkpt lat="51.940081967040896" lon="10.123824002221227">
        <ele>130.88</ele>
        <time>2019-05-09T08:51:32Z</time>
      </trkpt>
      <trkpt lat="51.939195999875665" lon="10.124556999653578">
        <ele>131.84</ele>
        <time>2019-05-09T08:51:40Z</time>
      </trkpt>
      <trkpt lat="51.938302991911769" lon="10.125164017081261">
        <ele>131.84</ele>
        <time>2019-05-09T08:51:47Z</time>
      </trkpt>
      <trkpt lat="51.937356004491448" lon="10.12580799870193">
        <ele>133.75999999999999</ele>
        <time>2019-05-09T08:51:54Z</time>
      </trkpt>
      <trkpt lat="51.937215020880103" lon="10.125823002308607">
        <ele>133.75999999999999</ele>
        <time>2019-05-09T08:51:55Z</time>
      </trkpt>
      <trkpt lat="51.937074037268758" lon="10.125834988430142">
        <ele>133.75999999999999</ele>
        <time>2019-05-09T08:51:56Z</time>
      </trkpt>
      <trkpt lat="51.936933975666761" lon="10.125846974551678">
        <ele>134.24000000000001</ele>
        <time>2019-05-09T08:51:57Z</time>
      </trkpt>
      <trkpt lat="51.936798021197319" lon="10.125858038663864">
        <ele>134.24000000000001</ele>
        <time>2019-05-09T08:51:58Z</time>
      </trkpt>
      <trkpt lat="51.935881040990353" lon="10.12593699619174">
        <ele>135.19999999999999</ele>
        <time>2019-05-09T08:52:05Z</time>
      </trkpt>
      <trkpt lat="51.935741985216737" lon="10.125948982313275">
        <ele>135.68000000000001</ele>
        <time>2019-05-09T08:52:06Z</time>
      </trkpt>
      <trkpt lat="51.934484029188752" lon="10.126185016706586">
        <ele>136.16</ele>
        <time>2019-05-09T08:52:14Z</time>
      </trkpt>
      <trkpt lat="51.93390098400414" lon="10.126247964799404">
        <ele>136.16</ele>
        <time>2019-05-09T08:52:17Z</time>
      </trkpt>
      <trkpt lat="51.933483984321356" lon="10.126152997836471">
        <ele>135.68000000000001</ele>
        <time>2019-05-09T08:52:19Z</time>
      </trkpt>
      <trkpt lat="51.931780027225614" lon="10.125759970396757">
        <ele>135.68000000000001</ele>
        <time>2019-05-09T08:52:26Z</time>
      </trkpt>
      <trkpt lat="51.929015005007386" lon="10.125057986006141">
        <ele>135.68000000000001</ele>
        <time>2019-05-09T08:52:37Z</time>
      </trkpt>
      <trkpt lat="51.926572015509009" lon="10.124802002683282">
        <ele>137.13</ele>
        <time>2019-05-09T08:52:47Z</time>
      </trkpt>
      <trkpt lat="51.922932006418705" lon="10.125201987102628">
        <ele>142.88999999999999</ele>
        <time>2019-05-09T08:53:02Z</time>
      </trkpt>
      <trkpt lat="51.920797973871231" lon="10.125665003433824">
        <ele>146.25999999999999</ele>
        <time>2019-05-09T08:53:11Z</time>
      </trkpt>
      <trkpt lat="51.919048000127077" lon="10.126174036413431">
        <ele>148.66</ele>
        <time>2019-05-09T08:53:18Z</time>
      </trkpt>
      <trkpt lat="51.918106963858008" lon="10.126327006146312">
        <ele>148.18000000000001</ele>
        <time>2019-05-09T08:53:22Z</time>
      </trkpt>
      <trkpt lat="51.916098995134234" lon="10.126168001443148">
        <ele>151.53999999999999</ele>
        <time>2019-05-09T08:53:30Z</time>
      </trkpt>
      <trkpt lat="51.913486020639539" lon="10.125689981505275">
        <ele>151.06</ele>
        <time>2019-05-09T08:53:40Z</time>
      </trkpt>
      <trkpt lat="51.910636005923152" lon="10.125312963500619">
        <ele>149.62</ele>
        <time>2019-05-09T08:53:51Z</time>
      </trkpt>
      <trkpt lat="51.908530974760652" lon="10.125061003491282">
        <ele>148.18000000000001</ele>
        <time>2019-05-09T08:53:59Z</time>
      </trkpt>
      <trkpt lat="51.908272979781032" lon="10.125047005712986">
        <ele>148.66</ele>
        <time>2019-05-09T08:54:00Z</time>
      </trkpt>
      <trkpt lat="51.90800903365016" lon="10.125062009319663">
        <ele>148.66</ele>
        <time>2019-05-09T08:54:01Z</time>
      </trkpt>
      <trkpt lat="51.906186975538731" lon="10.125412037596107">
        <ele>150.09999999999999</ele>
        <time>2019-05-09T08:54:08Z</time>
      </trkpt>
      <trkpt lat="51.904533980414271" lon="10.125719988718629">
        <ele>154.91</ele>
        <time>2019-05-09T08:54:15Z</time>
      </trkpt>
      <trkpt lat="51.902722986415029" lon="10.125536005944014">
        <ele>157.78999999999999</ele>
        <time>2019-05-09T08:54:23Z</time>
      </trkpt>
      <trkpt lat="51.900396002456546" lon="10.125188995152712">
        <ele>156.83000000000001</ele>
        <time>2019-05-09T08:54:35Z</time>
      </trkpt>
      <trkpt lat="51.898604035377502" lon="10.125168962404132">
        <ele>155.38999999999999</ele>
        <time>2019-05-09T08:54:44Z</time>
      </trkpt>
      <trkpt lat="51.897594016045332" lon="10.125341964885592">
        <ele>155.38999999999999</ele>
        <time>2019-05-09T08:54:49Z</time>
      </trkpt>
      <trkpt lat="51.89739796333015" lon="10.125451013445854">
        <ele>155.38999999999999</ele>
        <time>2019-05-09T08:54:50Z</time>
      </trkpt>
      <trkpt lat="51.895853010937572" lon="10.126220975071192">
        <ele>154.91</ele>
        <time>2019-05-09T08:54:57Z</time>
      </trkpt>
      <trkpt lat="51.895622005686164" lon="10.126216029748321">
        <ele>155.38999999999999</ele>
        <time>2019-05-09T08:54:58Z</time>
      </trkpt>
      <trkpt lat="51.895414972677827" lon="10.126150986179709">
        <ele>155.38999999999999</ele>
        <time>2019-05-09T08:54:59Z</time>
      </trkpt>
      <trkpt lat="51.89522797241807" lon="10.126092983409762">
        <ele>155.87</ele>
        <time>2019-05-09T08:55:00Z</time>
      </trkpt>
      <trkpt lat="51.894451975822449" lon="10.125732980668545">
        <ele>157.78999999999999</ele>
        <time>2019-05-09T08:55:06Z</time>
      </trkpt>
      <trkpt lat="51.893870020285249" lon="10.125473979860544">
        <ele>158.27000000000001</ele>
        <time>2019-05-09T08:55:11Z</time>
      </trkpt>
      <trkpt lat="51.893749991431832" lon="10.125490995123982">
        <ele>158.27000000000001</ele>
        <time>2019-05-09T08:55:12Z</time>
      </trkpt>
      <trkpt lat="51.89363700337708" lon="10.125516979023814">
        <ele>158.75</ele>
        <time>2019-05-09T08:55:13Z</time>
      </trkpt>
      <trkpt lat="51.893518986180425" lon="10.125542962923646">
        <ele>159.72</ele>
        <time>2019-05-09T08:55:14Z</time>
      </trkpt>
      <trkpt lat="51.893397029489279" lon="10.125587973743677">
        <ele>160.19999999999999</ele>
        <time>2019-05-09T08:55:15Z</time>
      </trkpt>
      <trkpt lat="51.892464039847255" lon="10.126035986468196">
        <ele>163.56</ele>
        <time>2019-05-09T08:55:23Z</time>
      </trkpt>
      <trkpt lat="51.892355997115374" lon="10.126085020601749">
        <ele>164.03999999999999</ele>
        <time>2019-05-09T08:55:24Z</time>
      </trkpt>
      <trkpt lat="51.892248038202524" lon="10.126127013936639">
        <ele>164.52000000000001</ele>
        <time>2019-05-09T08:55:25Z</time>
      </trkpt>
      <trkpt lat="51.891112960875034" lon="10.126565974205732">
        <ele>164.03999999999999</ele>
        <time>2019-05-09T08:55:34Z</time>
      </trkpt>
      <trkpt lat="51.890195980668068" lon="10.126949027180672">
        <ele>159.24000000000001</ele>
        <time>2019-05-09T08:55:42Z</time>
      </trkpt>
      <trkpt lat="51.889458037912846" lon="10.127454958856106">
        <ele>156.34999999999999</ele>
        <time>2019-05-09T08:55:50Z</time>
      </trkpt>
      <trkpt lat="51.889055036008358" lon="10.128067005425692">
        <ele>155.38999999999999</ele>
        <time>2019-05-09T08:55:55Z</time>
      </trkpt>
      <trkpt lat="51.888462016358972" lon="10.129272993654013">
        <ele>156.83000000000001</ele>
        <time>2019-05-09T08:56:03Z</time>
      </trkpt>
      <trkpt lat="51.888347016647458" lon="10.129616986960173">
        <ele>158.27000000000001</ele>
        <time>2019-05-09T08:56:06Z</time>
      </trkpt>
      <trkpt lat="51.888278033584356" lon="10.12982401996851">
        <ele>158.27000000000001</ele>
        <time>2019-05-09T08:56:07Z</time>
      </trkpt>
      <trkpt lat="51.888256995007396" lon="10.13012601993978">
        <ele>158.27000000000001</ele>
        <time>2019-05-09T08:56:08Z</time>
      </trkpt>
      <trkpt lat="51.888256995007396" lon="10.130503959953785">
        <ele>158.27000000000001</ele>
        <time>2019-05-09T08:56:11Z</time>
      </trkpt>
      <trkpt lat="51.888256995007396" lon="10.130832027643919">
        <ele>157.78999999999999</ele>
        <time>2019-05-09T08:56:12Z</time>
      </trkpt>
      <trkpt lat="51.888256995007396" lon="10.131060015410185">
        <ele>157.31</ele>
        <time>2019-05-09T08:56:13Z</time>
      </trkpt>
      <trkpt lat="51.888262024149299" lon="10.131211979314685">
        <ele>156.34999999999999</ele>
        <time>2019-05-09T08:56:14Z</time>
      </trkpt>
    </trkseg>
  </trk>

  <trk>
    <name>Track vom: 2019-05-09 10:56</name>
    <extensions>
      <gpxx:TrackExtension>
        <gpxx:DisplayColor>DarkGray</gpxx:DisplayColor>
      </gpxx:TrackExtension>
    </extensions>
    <trkseg>
      <trkpt lat="51.888278033584356" lon="10.131623027846217">
        <ele>152.99000000000001</ele>
        <time>2019-05-09T08:56:16Z</time>
      </trkpt>
      <trkpt lat="51.888254983350635" lon="10.132171958684921">
        <ele>150.58000000000001</ele>
        <time>2019-05-09T08:56:19Z</time>
      </trkpt>
      <trkpt lat="51.888215001672506" lon="10.132347978651524">
        <ele>150.09999999999999</ele>
        <time>2019-05-09T08:56:20Z</time>
      </trkpt>
      <trkpt lat="51.888111988082528" lon="10.132710998877883">
        <ele>150.58000000000001</ele>
        <time>2019-05-09T08:56:22Z</time>
      </trkpt>
      <trkpt lat="51.887637991458178" lon="10.133722024038434">
        <ele>153.94999999999999</ele>
        <time>2019-05-09T08:56:28Z</time>
      </trkpt>
      <trkpt lat="51.887525003403425" lon="10.133830988779664">
        <ele>154.43000000000001</ele>
        <time>2019-05-09T08:56:29Z</time>
      </trkpt>
      <trkpt lat="51.887404974550009" lon="10.133942971006036">
        <ele>154.43000000000001</ele>
        <time>2019-05-09T08:56:30Z</time>
      </trkpt>
      <trkpt lat="51.887282012030482" lon="10.134057970717549">
        <ele>154.43000000000001</ele>
        <time>2019-05-09T08:56:31Z</time>
      </trkpt>
      <trkpt lat="51.887157959863544" lon="10.134173976257443">
        <ele>154.91</ele>
        <time>2019-05-09T08:56:32Z</time>
      </trkpt>
      <trkpt lat="51.886188006028533" lon="10.13476699590683">
        <ele>156.83000000000001</ele>
        <time>2019-05-09T08:56:39Z</time>
      </trkpt>
      <trkpt lat="51.884730979800224" lon="10.135502004995942">
        <ele>157.31</ele>
        <time>2019-05-09T08:56:48Z</time>
      </trkpt>
      <trkpt lat="51.883059963583946" lon="10.136141963303089">
        <ele>157.31</ele>
        <time>2019-05-09T08:56:56Z</time>
      </trkpt>
      <trkpt lat="51.881732018664479" lon="10.135939959436655">
        <ele>158.27000000000001</ele>
        <time>2019-05-09T08:57:02Z</time>
      </trkpt>
      <trkpt lat="51.879416014999151" lon="10.135009987279773">
        <ele>164.03999999999999</ele>
        <time>2019-05-09T08:57:13Z</time>
      </trkpt>
      <trkpt lat="51.8788349814713" lon="10.13487302698195">
        <ele>166.44999999999999</ele>
        <time>2019-05-09T08:57:18Z</time>
      </trkpt>
      <trkpt lat="51.878760969266295" lon="10.13487403281033">
        <ele>166.93000000000001</ele>
        <time>2019-05-09T08:57:19Z</time>
      </trkpt>
      <trkpt lat="51.878607999533415" lon="10.134878978133202">
        <ele>167.41</ele>
        <time>2019-05-09T08:57:21Z</time>
      </trkpt>
      <trkpt lat="51.878519989550114" lon="10.134880989789963">
        <ele>167.41</ele>
        <time>2019-05-09T08:57:22Z</time>
      </trkpt>
      <trkpt lat="51.878327038139105" lon="10.134886018931866">
        <ele>166.93000000000001</ele>
        <time>2019-05-09T08:57:24Z</time>
      </trkpt>
      <trkpt lat="51.878224024549127" lon="10.134888030588627">
        <ele>166.93000000000001</ele>
        <time>2019-05-09T08:57:25Z</time>
      </trkpt>
      <trkpt lat="51.877796966582537" lon="10.134806977584958">
        <ele>166.44999999999999</ele>
        <time>2019-05-09T08:57:29Z</time>
      </trkpt>
      <trkpt lat="51.877691019326448" lon="10.1348099950701">
        <ele>165.96000000000001</ele>
        <time>2019-05-09T08:57:30Z</time>
      </trkpt>
      <trkpt lat="51.87758800573647" lon="10.134813012555242">
        <ele>165.47999999999999</ele>
        <time>2019-05-09T08:57:31Z</time>
      </trkpt>
      <trkpt lat="51.877488009631634" lon="10.134816030040383">
        <ele>165</ele>
        <time>2019-05-09T08:57:32Z</time>
      </trkpt>
      <trkpt lat="51.877391031011939" lon="10.134818041697145">
        <ele>164.52000000000001</ele>
        <time>2019-05-09T08:57:33Z</time>
      </trkpt>
      <trkpt lat="51.877148039638996" lon="10.13483002781868">
        <ele>163.56</ele>
        <time>2019-05-09T08:57:36Z</time>
      </trkpt>
      <trkpt lat="51.877021975815296" lon="10.134841008111835">
        <ele>163.08000000000001</ele>
        <time>2019-05-09T08:57:38Z</time>
      </trkpt>
      <trkpt lat="51.876933965831995" lon="10.134798008948565">
        <ele>162.59999999999999</ele>
        <time>2019-05-09T08:57:39Z</time>
      </trkpt>
      <trkpt lat="51.876868000254035" lon="10.134711004793644">
        <ele>162.59999999999999</ele>
        <time>2019-05-09T08:57:40Z</time>
      </trkpt>
      <trkpt lat="51.876627020537853" lon="10.134394001215696">
        <ele>161.16</ele>
        <time>2019-05-09T08:57:43Z</time>
      </trkpt>
      <trkpt lat="51.876583015546203" lon="10.134276989847422">
        <ele>160.68000000000001</ele>
        <time>2019-05-09T08:57:44Z</time>
      </trkpt>
      <trkpt lat="51.87655501998961" lon="10.134127037599683">
        <ele>160.68000000000001</ele>
        <time>2019-05-09T08:57:45Z</time>
      </trkpt>
      <trkpt lat="51.876543033868074" lon="10.133952023461461">
        <ele>160.19999999999999</ele>
        <time>2019-05-09T08:57:46Z</time>
      </trkpt>
      <trkpt lat="51.876529036089778" lon="10.133763011544943">
        <ele>160.19999999999999</ele>
        <time>2019-05-09T08:57:47Z</time>
      </trkpt>
      <trkpt lat="51.876485031098127" lon="10.133139984682202">
        <ele>159.24000000000001</ele>
        <time>2019-05-09T08:57:50Z</time>
      </trkpt>
      <trkpt lat="51.876355027779937" lon="10.13134902343154">
        <ele>157.31</ele>
        <time>2019-05-09T08:57:59Z</time>
      </trkpt>
      <trkpt lat="51.8762550316751" lon="10.130173964425921">
        <ele>159.72</ele>
        <time>2019-05-09T08:58:07Z</time>
      </trkpt>
      <trkpt lat="51.876253020018339" lon="10.130124008283019">
        <ele>160.68000000000001</ele>
        <time>2019-05-09T08:58:14Z</time>
      </trkpt>
      <trkpt lat="51.876252014189959" lon="10.130091989412904">
        <ele>160.68000000000001</ele>
        <time>2019-05-09T08:58:19Z</time>
      </trkpt>
      <trkpt lat="51.876245979219675" lon="10.129959974437952">
        <ele>162.12</ele>
        <time>2019-05-09T08:58:21Z</time>
      </trkpt>
      <trkpt lat="51.876242039725184" lon="10.129859978333116">
        <ele>162.59999999999999</ele>
        <time>2019-05-09T08:58:22Z</time>
      </trkpt>
      <trkpt lat="51.876181019470096" lon="10.129660991951823">
        <ele>163.08000000000001</ele>
        <time>2019-05-09T08:58:23Z</time>
      </trkpt>
      <trkpt lat="51.876111030578613" lon="10.129671972244978">
        <ele>163.08000000000001</ele>
        <time>2019-05-09T08:58:24Z</time>
      </trkpt>
      <trkpt lat="51.876017991453409" lon="10.129685970023274">
        <ele>163.08000000000001</ele>
        <time>2019-05-09T08:58:25Z</time>
      </trkpt>
      <trkpt lat="51.875909026712179" lon="10.129702985286713">
        <ele>163.08000000000001</ele>
        <time>2019-05-09T08:58:26Z</time>
      </trkpt>
      <trkpt lat="51.875790003687143" lon="10.129721006378531">
        <ele>163.08000000000001</ele>
        <time>2019-05-09T08:58:27Z</time>
      </trkpt>
      <trkpt lat="51.874363990500569" lon="10.129749001935124">
        <ele>162.12</ele>
        <time>2019-05-09T08:58:38Z</time>
      </trkpt>
      <trkpt lat="51.872651986777782" lon="10.129434010013938">
        <ele>164.52000000000001</ele>
        <time>2019-05-09T08:58:50Z</time>
      </trkpt>
      <trkpt lat="51.871365029364824" lon="10.129137961193919">
        <ele>165.96000000000001</ele>
        <time>2019-05-09T08:59:09Z</time>
      </trkpt>
      <trkpt lat="51.868852972984314" lon="10.128435976803303">
        <ele>166.93000000000001</ele>
        <time>2019-05-09T08:59:16Z</time>
      </trkpt>
      <trkpt lat="51.868748031556606" lon="10.128403035923839">
        <ele>167.41</ele>
        <time>2019-05-09T08:59:30Z</time>
      </trkpt>
      <trkpt lat="51.866618022322655" lon="10.125692998990417">
        <ele>172.21000000000001</ele>
        <time>2019-05-09T08:59:40Z</time>
      </trkpt>
      <trkpt lat="51.8654690310359" lon="10.123783014714718">
        <ele>180.87</ele>
        <time>2019-05-09T08:59:49Z</time>
      </trkpt>
      <trkpt lat="51.86529896222055" lon="10.12361696921289">
        <ele>181.83000000000001</ele>
        <time>2019-05-09T08:59:50Z</time>
      </trkpt>
      <trkpt lat="51.864553978666663" lon="10.123066026717424">
        <ele>186.63</ele>
        <time>2019-05-09T08:59:54Z</time>
      </trkpt>
      <trkpt lat="51.864342000335455" lon="10.122986985370517">
        <ele>187.59</ele>
        <time>2019-05-09T08:59:55Z</time>
      </trkpt>
      <trkpt lat="51.864127004519105" lon="10.12290702201426">
        <ele>189.03999999999999</ele>
        <time>2019-05-09T08:59:56Z</time>
      </trkpt>
      <trkpt lat="51.863913014531136" lon="10.122871985659003">
        <ele>190.47999999999999</ele>
        <time>2019-05-09T08:59:57Z</time>
      </trkpt>
      <trkpt lat="51.863693995401263" lon="10.122871985659003">
        <ele>191.44</ele>
        <time>2019-05-09T08:59:58Z</time>
      </trkpt>
      <trkpt lat="51.862270999699831" lon="10.12284298427403">
        <ele>199.61000000000001</ele>
        <time>2019-05-09T09:00:05Z</time>
      </trkpt>
      <trkpt lat="51.861849976703525" lon="10.122724967077374">
        <ele>202.49000000000001</ele>
        <time>2019-05-09T09:00:08Z</time>
      </trkpt>
      <trkpt lat="51.86173003166914" lon="10.122641986235976">
        <ele>202.97999999999999</ele>
        <time>2019-05-09T09:00:09Z</time>
      </trkpt>
      <trkpt lat="51.861613020300865" lon="10.122550958767533">
        <ele>203.94</ele>
        <time>2019-05-09T09:00:10Z</time>
      </trkpt>
      <trkpt lat="51.861516963690519" lon="10.122422967106104">
        <ele>204.90000000000001</ele>
        <time>2019-05-09T09:00:11Z</time>
      </trkpt>
      <trkpt lat="51.861428031697869" lon="10.12230503372848">
        <ele>205.38</ele>
        <time>2019-05-09T09:00:12Z</time>
      </trkpt>
      <trkpt lat="51.861351002007723" lon="10.122168995440006">
        <ele>205.86000000000001</ele>
        <time>2019-05-09T09:00:13Z</time>
      </trkpt>
      <trkpt lat="51.861303979530931" lon="10.122030023485422">
        <ele>206.81999999999999</ele>
        <time>2019-05-09T09:00:14Z</time>
      </trkpt>
      <trkpt lat="51.86125704087317" lon="10.121858026832342">
        <ele>207.30000000000001</ele>
        <time>2019-05-09T09:00:15Z</time>
      </trkpt>
      <trkpt lat="51.861236002296209" lon="10.121699022129178">
        <ele>207.78</ele>
        <time>2019-05-09T09:00:16Z</time>
      </trkpt>
      <trkpt lat="51.861215969547629" lon="10.121542029082775">
        <ele>208.74000000000001</ele>
        <time>2019-05-09T09:00:17Z</time>
      </trkpt>
      <trkpt lat="51.861196020618081" lon="10.121384030207992">
        <ele>209.22</ele>
        <time>2019-05-09T09:00:18Z</time>
      </trkpt>
      <trkpt lat="51.861189985647798" lon="10.121098039671779">
        <ele>209.69999999999999</ele>
        <time>2019-05-09T09:00:19Z</time>
      </trkpt>
      <trkpt lat="51.861284030601382" lon="10.12073703110218">
        <ele>210.66999999999999</ele>
        <time>2019-05-09T09:00:21Z</time>
      </trkpt>
      <trkpt lat="51.861335998401046" lon="10.120576014742255">
        <ele>211.15000000000001</ele>
        <time>2019-05-09T09:00:22Z</time>
      </trkpt>
      <trkpt lat="51.861402969807386" lon="10.120408963412046">
        <ele>211.15000000000001</ele>
        <time>2019-05-09T09:00:23Z</time>
      </trkpt>
      <trkpt lat="51.861477987840772" lon="10.120275020599365">
        <ele>211.63</ele>
        <time>2019-05-09T09:00:24Z</time>
      </trkpt>
      <trkpt lat="51.861597010865808" lon="10.120163038372993">
        <ele>212.11000000000001</ele>
        <time>2019-05-09T09:00:25Z</time>
      </trkpt>
      <trkpt lat="51.861713016405702" lon="10.120051978155971">
        <ele>212.11000000000001</ele>
        <time>2019-05-09T09:00:26Z</time>
      </trkpt>
      <trkpt lat="51.861863974481821" lon="10.119909988716245">
        <ele>212.59</ele>
        <time>2019-05-09T09:00:27Z</time>
      </trkpt>
      <trkpt lat="51.86199196614325" lon="10.11987897567451">
        <ele>213.06999999999999</ele>
        <time>2019-05-09T09:00:28Z</time>
      </trkpt>
      <trkpt lat="51.8622069619596" lon="10.119824996218085">
        <ele>213.55000000000001</ele>
        <time>2019-05-09T09:00:29Z</time>
      </trkpt>
      <trkpt lat="51.862339982762933" lon="10.11983597651124">
        <ele>214.50999999999999</ele>
        <time>2019-05-09T09:00:30Z</time>
      </trkpt>
      <trkpt lat="51.863949978724122" lon="10.119818039238453">
        <ele>218.84</ele>
        <time>2019-05-09T09:00:38Z</time>
      </trkpt>
      <trkpt lat="51.864155000075698" lon="10.119754001498222">
        <ele>219.80000000000001</ele>
        <time>2019-05-09T09:00:39Z</time>
      </trkpt>
      <trkpt lat="51.86437401920557" lon="10.119652999565005">
        <ele>220.75999999999999</ele>
        <time>2019-05-09T09:00:40Z</time>
      </trkpt>
      <trkpt lat="51.864559007808566" lon="10.119530037045479">
        <ele>221.72</ele>
        <time>2019-05-09T09:00:41Z</time>
      </trkpt>
      <trkpt lat="51.864752965047956" lon="10.119378995150328">
        <ele>222.68000000000001</ele>
        <time>2019-05-09T09:00:42Z</time>
      </trkpt>
      <trkpt lat="51.86493300832808" lon="10.119187971577048">
        <ele>223.63999999999999</ele>
        <time>2019-05-09T09:00:43Z</time>
      </trkpt>
      <trkpt lat="51.865109028294683" lon="10.118982028216124">
        <ele>224.61000000000001</ele>
        <time>2019-05-09T09:00:44Z</time>
      </trkpt>
      <trkpt lat="51.865270966663957" lon="10.118745993822813">
        <ele>225.56999999999999</ele>
        <time>2019-05-09T09:00:45Z</time>
      </trkpt>
      <trkpt lat="51.866986993700266" lon="10.115832025185227">
        <ele>236.62</ele>
        <time>2019-05-09T09:00:56Z</time>
      </trkpt>
      <trkpt lat="51.867401981726289" lon="10.114508019760251">
        <ele>240.47</ele>
        <time>2019-05-09T09:01:00Z</time>
      </trkpt>
      <trkpt lat="51.867481023073196" lon="10.114160003140569">
        <ele>240.94999999999999</ele>
        <time>2019-05-09T09:01:01Z</time>
      </trkpt>
      <trkpt lat="51.867552017793059" lon="10.113808969035745">
        <ele>241.43000000000001</ele>
        <time>2019-05-09T09:01:02Z</time>
      </trkpt>
      <trkpt lat="51.867562998086214" lon="10.113442009314895">
        <ele>241.91</ele>
        <time>2019-05-09T09:01:03Z</time>
      </trkpt>
      <trkpt lat="51.867574984207749" lon="10.113072032108903">
        <ele>241.91</ele>
        <time>2019-05-09T09:01:04Z</time>
      </trkpt>
      <trkpt lat="51.867611026391387" lon="10.108643034473062">
        <ele>234.69999999999999</ele>
        <time>2019-05-09T09:01:16Z</time>
      </trkpt>
      <trkpt lat="51.867872038856149" lon="10.105583975091577">
        <ele>223.63999999999999</ele>
        <time>2019-05-09T09:01:25Z</time>
      </trkpt>
      <trkpt lat="51.867693001404405" lon="10.103492019698024">
        <ele>216.91</ele>
        <time>2019-05-09T09:01:31Z</time>
      </trkpt>
      <trkpt lat="51.867041978985071" lon="10.101499976590276">
        <ele>209.22</ele>
        <time>2019-05-09T09:01:37Z</time>
      </trkpt>
      <trkpt lat="51.865697018802166" lon="10.099310958757997">
        <ele>199.13</ele>
        <time>2019-05-09T09:01:45Z</time>
      </trkpt>
      <trkpt lat="51.864144019782543" lon="10.09661098010838">
        <ele>190.96000000000001</ele>
        <time>2019-05-09T09:01:55Z</time>
      </trkpt>
      <trkpt lat="51.863317983224988" lon="10.094133038073778">
        <ele>186.63</ele>
        <time>2019-05-09T09:02:03Z</time>
      </trkpt>
      <trkpt lat="51.86300097964704" lon="10.091403974220157">
        <ele>184.71000000000001</ele>
        <time>2019-05-09T09:02:11Z</time>
      </trkpt>
      <trkpt lat="51.86314900405705" lon="10.088774990290403">
        <ele>182.31</ele>
        <time>2019-05-09T09:02:19Z</time>
      </trkpt>
      <trkpt lat="51.863436000421643" lon="10.086581027135253">
        <ele>179.41999999999999</ele>
        <time>2019-05-09T09:02:25Z</time>
      </trkpt>
      <trkpt lat="51.86368502676487" lon="10.083990013226867">
        <ele>176.53999999999999</ele>
        <time>2019-05-09T09:02:32Z</time>
      </trkpt>
      <trkpt lat="51.863918965682387" lon="10.080571034923196">
        <ele>172.69</ele>
        <time>2019-05-09T09:02:43Z</time>
      </trkpt>
      <trkpt lat="51.864143013954163" lon="10.077039990574121">
        <ele>165.47999999999999</ele>
        <time>2019-05-09T09:02:55Z</time>
      </trkpt>
      <trkpt lat="51.864410983398557" lon="10.072477972134948">
        <ele>157.78999999999999</ele>
        <time>2019-05-09T09:03:10Z</time>
      </trkpt>
      <trkpt lat="51.864565964788198" lon="10.069499965757132">
        <ele>153.47</ele>
        <time>2019-05-09T09:03:18Z</time>
      </trkpt>
      <trkpt lat="51.864679036661983" lon="10.066372007131577">
        <ele>148.66</ele>
        <time>2019-05-09T09:03:27Z</time>
      </trkpt>
      <trkpt lat="51.864741984754801" lon="10.064841974526644">
        <ele>143.84999999999999</ele>
        <time>2019-05-09T09:03:33Z</time>
      </trkpt>
    </trkseg>
  </trk>

  <trk>
    <name>Track vom: 2019-05-09 11:03</name>
    <extensions>
      <gpxx:TrackExtension>
        <gpxx:DisplayColor>DarkGray</gpxx:DisplayColor>
      </gpxx:TrackExtension>
    </extensions>
    <trkseg>
      <trkpt lat="51.864704014733434" lon="10.062498981133103">
        <ele>139.05000000000001</ele>
        <time>2019-05-09T09:03:44Z</time>
      </trkpt>
      <trkpt lat="51.86439698562026" lon="10.060181971639395">
        <ele>135.68000000000001</ele>
        <time>2019-05-09T09:03:55Z</time>
      </trkpt>
      <trkpt lat="51.864344011992216" lon="10.058174002915621">
        <ele>135.68000000000001</ele>
        <time>2019-05-09T09:04:03Z</time>
      </trkpt>
      <trkpt lat="51.864723963662982" lon="10.056223031133413">
        <ele>136.16</ele>
        <time>2019-05-09T09:04:11Z</time>
      </trkpt>
      <trkpt lat="51.865280019119382" lon="10.054109031334519">
        <ele>133.75999999999999</ele>
        <time>2019-05-09T09:04:19Z</time>
      </trkpt>
      <trkpt lat="51.865666005760431" lon="10.050865989178419">
        <ele>130.88</ele>
        <time>2019-05-09T09:04:29Z</time>
      </trkpt>
      <trkpt lat="51.866003964096308" lon="10.047766026109457">
        <ele>133.75999999999999</ele>
        <time>2019-05-09T09:04:38Z</time>
      </trkpt>
      <trkpt lat="51.866434961557388" lon="10.042902007699013">
        <ele>149.62</ele>
        <time>2019-05-09T09:04:51Z</time>
      </trkpt>
      <trkpt lat="51.866376036778092" lon="10.040138997137547">
        <ele>153.47</ele>
        <time>2019-05-09T09:04:58Z</time>
      </trkpt>
      <trkpt lat="51.865901034325361" lon="10.037355031818151">
        <ele>156.83000000000001</ele>
        <time>2019-05-09T09:05:05Z</time>
      </trkpt>
      <trkpt lat="51.86480300500989" lon="10.034124981611967">
        <ele>159.72</ele>
        <time>2019-05-09T09:05:14Z</time>
      </trkpt>
      <trkpt lat="51.863500038161874" lon="10.030665015801787">
        <ele>162.59999999999999</ele>
        <time>2019-05-09T09:05:24Z</time>
      </trkpt>
      <trkpt lat="51.862855972722173" lon="10.028072996065021">
        <ele>164.52000000000001</ele>
        <time>2019-05-09T09:05:31Z</time>
      </trkpt>
      <trkpt lat="51.862790007144213" lon="10.025736959651113">
        <ele>166.44999999999999</ele>
        <time>2019-05-09T09:05:37Z</time>
      </trkpt>
      <trkpt lat="51.863231984898448" lon="10.023231022059917">
        <ele>167.88999999999999</ele>
        <time>2019-05-09T09:05:44Z</time>
      </trkpt>
      <trkpt lat="51.8633449729532" lon="10.02291502431035">
        <ele>168.37</ele>
        <time>2019-05-09T09:05:46Z</time>
      </trkpt>
      <trkpt lat="51.864630002528429" lon="10.019860994070768">
        <ele>168.84999999999999</ele>
        <time>2019-05-09T09:05:55Z</time>
      </trkpt>
      <trkpt lat="51.865526027977467" lon="10.016854992136359">
        <ele>168.37</ele>
        <time>2019-05-09T09:06:04Z</time>
      </trkpt>
      <trkpt lat="51.865875972434878" lon="10.01359099522233">
        <ele>164.52000000000001</ele>
        <time>2019-05-09T09:06:13Z</time>
      </trkpt>
      <trkpt lat="51.865922994911671" lon="10.008741980418563">
        <ele>158.27000000000001</ele>
        <time>2019-05-09T09:06:26Z</time>
      </trkpt>
      <trkpt lat="51.866315016523004" lon="10.005589965730906">
        <ele>151.06</ele>
        <time>2019-05-09T09:06:35Z</time>
      </trkpt>
      <trkpt lat="51.867081960663199" lon="10.002887975424528">
        <ele>144.81999999999999</ele>
        <time>2019-05-09T09:06:43Z</time>
      </trkpt>
      <trkpt lat="51.868430022150278" lon="9.999448964372277">
        <ele>136.16</ele>
        <time>2019-05-09T09:06:53Z</time>
      </trkpt>
      <trkpt lat="51.86925002373755" lon="9.996674973517656">
        <ele>132.31999999999999</ele>
        <time>2019-05-09T09:07:00Z</time>
      </trkpt>
      <trkpt lat="51.869630981236696" lon="9.993727980181575">
        <ele>129.91999999999999</ele>
        <time>2019-05-09T09:07:07Z</time>
      </trkpt>
      <trkpt lat="51.869676997885108" lon="9.991643987596035">
        <ele>126.06999999999999</ele>
        <time>2019-05-09T09:07:13Z</time>
      </trkpt>
      <trkpt lat="51.869570966809988" lon="9.99021302908659">
        <ele>123.19</ele>
        <time>2019-05-09T09:07:17Z</time>
      </trkpt>
      <trkpt lat="51.869515981525183" lon="9.989812960848212">
        <ele>122.22</ele>
        <time>2019-05-09T09:07:18Z</time>
      </trkpt>
      <trkpt lat="51.869459990411997" lon="9.989392021670938">
        <ele>120.78</ele>
        <time>2019-05-09T09:07:19Z</time>
      </trkpt>
      <trkpt lat="51.86931699514389" lon="9.98684098944068">
        <ele>115.98</ele>
        <time>2019-05-09T09:07:25Z</time>
      </trkpt>
      <trkpt lat="51.869441969320178" lon="9.985889978706837">
        <ele>114.53</ele>
        <time>2019-05-09T09:07:28Z</time>
      </trkpt>
      <trkpt lat="51.869581025093794" lon="9.985028989613056">
        <ele>113.56999999999999</ele>
        <time>2019-05-09T09:07:31Z</time>
      </trkpt>
      <trkpt lat="51.869636010378599" lon="9.984740987420082">
        <ele>113.09</ele>
        <time>2019-05-09T09:07:32Z</time>
      </trkpt>
      <trkpt lat="51.870084023103118" lon="9.982063975185156">
        <ele>110.20999999999999</ele>
        <time>2019-05-09T09:07:42Z</time>
      </trkpt>
      <trkpt lat="51.86998100951314" lon="9.980118032544851">
        <ele>111.17</ele>
        <time>2019-05-09T09:07:49Z</time>
      </trkpt>
      <trkpt lat="51.869847988709807" lon="9.979399032890797">
        <ele>112.61</ele>
        <time>2019-05-09T09:07:51Z</time>
      </trkpt>
      <trkpt lat="51.869756961241364" lon="9.97902000322938">
        <ele>113.56999999999999</ele>
        <time>2019-05-09T09:07:52Z</time>
      </trkpt>
      <trkpt lat="51.869373992085457" lon="9.976116009056568">
        <ele>119.81999999999999</ele>
        <time>2019-05-09T09:07:59Z</time>
      </trkpt>
      <trkpt lat="51.869641039520502" lon="9.973313016816974">
        <ele>121.73999999999999</ele>
        <time>2019-05-09T09:08:06Z</time>
      </trkpt>
      <trkpt lat="51.869997018948197" lon="9.971511997282505">
        <ele>118.86</ele>
        <time>2019-05-09T09:08:12Z</time>
      </trkpt>
      <trkpt lat="51.870531029999256" lon="9.969529006630182">
        <ele>113.09</ele>
        <time>2019-05-09T09:08:20Z</time>
      </trkpt>
      <trkpt lat="51.871332004666328" lon="9.96758901514113">
        <ele>107.31999999999999</ele>
        <time>2019-05-09T09:08:28Z</time>
      </trkpt>
      <trkpt lat="51.871628975495696" lon="9.966878984123468">
        <ele>105.88</ele>
        <time>2019-05-09T09:08:31Z</time>
      </trkpt>
      <trkpt lat="51.871691001579165" lon="9.966613026335836">
        <ele>105.88</ele>
        <time>2019-05-09T09:08:32Z</time>
      </trkpt>
      <trkpt lat="51.871734000742435" lon="9.966333992779255">
        <ele>105.88</ele>
        <time>2019-05-09T09:08:33Z</time>
      </trkpt>
      <trkpt lat="51.871734000742435" lon="9.966046996414661">
        <ele>105.88</ele>
        <time>2019-05-09T09:08:34Z</time>
      </trkpt>
      <trkpt lat="51.871712040156126" lon="9.965760000050068">
        <ele>105.88</ele>
        <time>2019-05-09T09:08:35Z</time>
      </trkpt>
      <trkpt lat="51.871659988537431" lon="9.965494964271784">
        <ele>105.40000000000001</ele>
        <time>2019-05-09T09:08:36Z</time>
      </trkpt>
      <trkpt lat="51.871576001867652" lon="9.965266976505518">
        <ele>105.88</ele>
        <time>2019-05-09T09:08:37Z</time>
      </trkpt>
      <trkpt lat="51.871482040733099" lon="9.965047035366297">
        <ele>105.40000000000001</ele>
        <time>2019-05-09T09:08:38Z</time>
      </trkpt>
      <trkpt lat="51.871364023536444" lon="9.964852994307876">
        <ele>105.40000000000001</ele>
        <time>2019-05-09T09:08:39Z</time>
      </trkpt>
      <trkpt lat="51.871213987469673" lon="9.964708993211389">
        <ele>104.92</ele>
        <time>2019-05-09T09:08:40Z</time>
      </trkpt>
      <trkpt lat="51.87105699442327" lon="9.964558035135269">
        <ele>104.92</ele>
        <time>2019-05-09T09:08:41Z</time>
      </trkpt>
      <trkpt lat="51.870892960578203" lon="9.964400958269835">
        <ele>104.92</ele>
        <time>2019-05-09T09:08:42Z</time>
      </trkpt>
      <trkpt lat="51.870714006945491" lon="9.964270032942295">
        <ele>104.92</ele>
        <time>2019-05-09T09:08:43Z</time>
      </trkpt>
      <trkpt lat="51.869088001549244" lon="9.963233023881912">
        <ele>102.52</ele>
        <time>2019-05-09T09:08:51Z</time>
      </trkpt>
      <trkpt lat="51.866567982360721" lon="9.961732998490334">
        <ele>102.04000000000001</ele>
        <time>2019-05-09T09:09:02Z</time>
      </trkpt>
      <trkpt lat="51.866330020129681" lon="9.961702991276979">
        <ele>101.56</ele>
        <time>2019-05-09T09:09:03Z</time>
      </trkpt>
      <trkpt lat="51.866097003221512" lon="9.961697040125728">
        <ele>101.08</ele>
        <time>2019-05-09T09:09:04Z</time>
      </trkpt>
      <trkpt lat="51.865853006020188" lon="9.961761999875307">
        <ele>101.08</ele>
        <time>2019-05-09T09:09:05Z</time>
      </trkpt>
      <trkpt lat="51.865605991333723" lon="9.961827965453267">
        <ele>100.59999999999999</ele>
        <time>2019-05-09T09:09:06Z</time>
      </trkpt>
      <trkpt lat="51.865367023274302" lon="9.961931984871626">
        <ele>100.59999999999999</ele>
        <time>2019-05-09T09:09:07Z</time>
      </trkpt>
      <trkpt lat="51.865128977224231" lon="9.962061988189817">
        <ele>100.11</ele>
        <time>2019-05-09T09:09:08Z</time>
      </trkpt>
      <trkpt lat="51.863313037902117" lon="9.962702030315995">
        <ele>99.629999999999995</ele>
        <time>2019-05-09T09:09:15Z</time>
      </trkpt>
      <trkpt lat="51.86072101816535" lon="9.963381970301271">
        <ele>99.150000000000006</ele>
        <time>2019-05-09T09:09:25Z</time>
      </trkpt>
      <trkpt lat="51.859339009970427" lon="9.963446008041501">
        <ele>100.11</ele>
        <time>2019-05-09T09:09:32Z</time>
      </trkpt>
      <trkpt lat="51.858739033341408" lon="9.963278034701943">
        <ele>100.11</ele>
        <time>2019-05-09T09:09:36Z</time>
      </trkpt>
      <trkpt lat="51.858614981174469" lon="9.963197987526655">
        <ele>100.11</ele>
        <time>2019-05-09T09:09:37Z</time>
      </trkpt>
      <trkpt lat="51.858504004776478" lon="9.963121041655541">
        <ele>99.629999999999995</ele>
        <time>2019-05-09T09:09:38Z</time>
      </trkpt>
      <trkpt lat="51.857963036745787" lon="9.962600022554398">
        <ele>98.670000000000002</ele>
        <time>2019-05-09T09:09:43Z</time>
      </trkpt>
      <trkpt lat="51.85786597430706" lon="9.962454009801149">
        <ele>98.189999999999998</ele>
        <time>2019-05-09T09:09:44Z</time>
      </trkpt>
      <trkpt lat="51.857791962102056" lon="9.962286036461592">
        <ele>98.189999999999998</ele>
        <time>2019-05-09T09:09:45Z</time>
      </trkpt>
      <trkpt lat="51.857732031494379" lon="9.962109010666609">
        <ele>98.189999999999998</ele>
        <time>2019-05-09T09:09:46Z</time>
      </trkpt>
      <trkpt lat="51.857700012624264" lon="9.961927961558104">
        <ele>98.189999999999998</ele>
        <time>2019-05-09T09:09:47Z</time>
      </trkpt>
      <trkpt lat="51.857678974047303" lon="9.961765017360449">
        <ele>98.189999999999998</ele>
        <time>2019-05-09T09:09:48Z</time>
      </trkpt>
      <trkpt lat="51.857678974047303" lon="9.961594026535749">
        <ele>98.189999999999998</ele>
        <time>2019-05-09T09:09:49Z</time>
      </trkpt>
      <trkpt lat="51.857678974047303" lon="9.961415994912386">
        <ele>98.670000000000002</ele>
        <time>2019-05-09T09:09:50Z</time>
      </trkpt>
      <trkpt lat="51.857690960168839" lon="9.961237041279674">
        <ele>98.670000000000002</ele>
        <time>2019-05-09T09:09:51Z</time>
      </trkpt>
      <trkpt lat="51.857711998745799" lon="9.96105900965631">
        <ele>98.670000000000002</ele>
        <time>2019-05-09T09:09:52Z</time>
      </trkpt>
      <trkpt lat="51.857734965160489" lon="9.960891958326101">
        <ele>98.670000000000002</ele>
        <time>2019-05-09T09:09:53Z</time>
      </trkpt>
      <trkpt lat="51.857925988733768" lon="9.959453037008643">
        <ele>102.52</ele>
        <time>2019-05-09T09:10:02Z</time>
      </trkpt>
      <trkpt lat="51.858024979010224" lon="9.958242019638419">
        <ele>103.48</ele>
        <time>2019-05-09T09:10:08Z</time>
      </trkpt>
      <trkpt lat="51.858019027858973" lon="9.955930961295962">
        <ele>106.36</ele>
        <time>2019-05-09T09:10:19Z</time>
      </trkpt>
      <trkpt lat="51.858049035072327" lon="9.953757030889392">
        <ele>111.65000000000001</ele>
        <time>2019-05-09T09:10:29Z</time>
      </trkpt>
      <trkpt lat="51.858341982588172" lon="9.950865022838116">
        <ele>110.20999999999999</ele>
        <time>2019-05-09T09:10:41Z</time>
      </trkpt>
      <trkpt lat="51.858568964526057" lon="9.94879100471735">
        <ele>107.31999999999999</ele>
        <time>2019-05-09T09:10:48Z</time>
      </trkpt>
      <trkpt lat="51.858797958120704" lon="9.946816982701421">
        <ele>104.92</ele>
        <time>2019-05-09T09:10:54Z</time>
      </trkpt>
      <trkpt lat="51.859015971422195" lon="9.944524029269815">
        <ele>103.48</ele>
        <time>2019-05-09T09:11:03Z</time>
      </trkpt>
      <trkpt lat="51.859053019434214" lon="9.943850040435791">
        <ele>103.48</ele>
        <time>2019-05-09T09:11:06Z</time>
      </trkpt>
      <trkpt lat="51.858965009450912" lon="9.943085024133325">
        <ele>102.04000000000001</ele>
        <time>2019-05-09T09:11:10Z</time>
      </trkpt>
      <trkpt lat="51.858903989195824" lon="9.942886959761381">
        <ele>102.04000000000001</ele>
        <time>2019-05-09T09:11:11Z</time>
      </trkpt>
      <trkpt lat="51.858841963112354" lon="9.942681016400456">
        <ele>102.04000000000001</ele>
        <time>2019-05-09T09:11:12Z</time>
      </trkpt>
      <trkpt lat="51.858655968680978" lon="9.942003004252911">
        <ele>102.52</ele>
        <time>2019-05-09T09:11:15Z</time>
      </trkpt>
      <trkpt lat="51.858609030023217" lon="9.941748026758432">
        <ele>102.52</ele>
        <time>2019-05-09T09:11:16Z</time>
      </trkpt>
      <trkpt lat="51.858577011153102" lon="9.941480979323387">
        <ele>102.52</ele>
        <time>2019-05-09T09:11:17Z</time>
      </trkpt>
      <trkpt lat="51.858568964526057" lon="9.941199012100697">
        <ele>103</ele>
        <time>2019-05-09T09:11:18Z</time>
      </trkpt>
      <trkpt lat="51.858558990061283" lon="9.940888965502381">
        <ele>103.48</ele>
        <time>2019-05-09T09:11:19Z</time>
      </trkpt>
      <trkpt lat="51.858586985617876" lon="9.94062602519989">
        <ele>103.48</ele>
        <time>2019-05-09T09:11:20Z</time>
      </trkpt>
      <trkpt lat="51.85861598700285" lon="9.940345985814929">
        <ele>104.44</ele>
        <time>2019-05-09T09:11:21Z</time>
      </trkpt>
      <trkpt lat="51.85870299115777" lon="9.93951098062098">
        <ele>105.88</ele>
        <time>2019-05-09T09:11:25Z</time>
      </trkpt>
      <trkpt lat="51.858681030571461" lon="9.939094986766577">
        <ele>107.31999999999999</ele>
        <time>2019-05-09T09:11:29Z</time>
      </trkpt>
      <trkpt lat="51.858665021136403" lon="9.938897006213665">
        <ele>109.73</ele>
        <time>2019-05-09T09:11:37Z</time>
      </trkpt>
      <trkpt lat="51.858623027801514" lon="9.938555024564266">
        <ele>111.65000000000001</ele>
        <time>2019-05-09T09:11:50Z</time>
      </trkpt>
      <trkpt lat="51.858290014788508" lon="9.937279969453812">
        <ele>113.56999999999999</ele>
        <time>2019-05-09T09:11:57Z</time>
      </trkpt>
      <trkpt lat="51.858004024252295" lon="9.936556024476886">
        <ele>114.05</ele>
        <time>2019-05-09T09:12:00Z</time>
      </trkpt>
      <trkpt lat="51.857359036803246" lon="9.934746958315373">
        <ele>119.81999999999999</ele>
        <time>2019-05-09T09:12:08Z</time>
      </trkpt>
      <trkpt lat="51.856665015220642" lon="9.933006037026644">
        <ele>127.03</ele>
        <time>2019-05-09T09:12:16Z</time>
      </trkpt>
      <trkpt lat="51.856505004689097" lon="9.932547966018319">
        <ele>128.94999999999999</ele>
        <time>2019-05-09T09:12:18Z</time>
      </trkpt>
      <trkpt lat="51.856441972777247" lon="9.932321989908814">
        <ele>129.91999999999999</ele>
        <time>2019-05-09T09:12:19Z</time>
      </trkpt>
      <trkpt lat="51.856421018019319" lon="9.932038011029363">
        <ele>131.36000000000001</ele>
        <time>2019-05-09T09:12:20Z</time>
      </trkpt>
      <trkpt lat="51.856430992484093" lon="9.931773981079459">
        <ele>132.31999999999999</ele>
        <time>2019-05-09T09:12:21Z</time>
      </trkpt>
      <trkpt lat="51.856484971940517" lon="9.931500982493162">
        <ele>133.75999999999999</ele>
        <time>2019-05-09T09:12:22Z</time>
      </trkpt>
      <trkpt lat="51.856556972488761" lon="9.9312399700284">
        <ele>134.72</ele>
        <time>2019-05-09T09:12:23Z</time>
      </trkpt>
      <trkpt lat="51.856631990522146" lon="9.930967977270484">
        <ele>135.19999999999999</ele>
        <time>2019-05-09T09:12:24Z</time>
      </trkpt>
      <trkpt lat="51.856726035475731" lon="9.930687015876174">
        <ele>136.16</ele>
        <time>2019-05-09T09:12:25Z</time>
      </trkpt>
      <trkpt lat="51.857795985415578" lon="9.927881006151438">
        <ele>144.34</ele>
        <time>2019-05-09T09:12:34Z</time>
      </trkpt>
      <trkpt lat="51.858818996697664" lon="9.925106009468436">
        <ele>152.50999999999999</ele>
        <time>2019-05-09T09:12:42Z</time>
      </trkpt>
      <trkpt lat="51.85898001305759" lon="9.924846002832055">
        <ele>153.47</ele>
        <time>2019-05-09T09:12:43Z</time>
      </trkpt>
      <trkpt lat="51.859166007488966" lon="9.924640981480479">
        <ele>154.43000000000001</ele>
        <time>2019-05-09T09:12:44Z</time>
      </trkpt>
      <trkpt lat="51.859361976385117" lon="9.92449396289885">
        <ele>155.38999999999999</ele>
        <time>2019-05-09T09:12:45Z</time>
      </trkpt>
      <trkpt lat="51.859574038535357" lon="9.924349961802363">
        <ele>156.34999999999999</ele>
        <time>2019-05-09T09:12:46Z</time>
      </trkpt>
      <trkpt lat="51.8597980029881" lon="9.924231022596359">
        <ele>157.78999999999999</ele>
        <time>2019-05-09T09:12:47Z</time>
      </trkpt>
      <trkpt lat="51.860882034525275" lon="9.923314964398742">
        <ele>163.56</ele>
        <time>2019-05-09T09:12:52Z</time>
      </trkpt>
      <trkpt lat="51.861050007864833" lon="9.923031991347671">
        <ele>165</ele>
        <time>2019-05-09T09:12:53Z</time>
      </trkpt>
      <trkpt lat="51.861204989254475" lon="9.922723034396768">
        <ele>166.44999999999999</ele>
        <time>2019-05-09T09:12:54Z</time>
      </trkpt>
      <trkpt lat="51.862093973904848" lon="9.920197986066341">
        <ele>177.5</ele>
        <time>2019-05-09T09:13:01Z</time>
      </trkpt>
      <trkpt lat="51.862804004922509" lon="9.916832987219095">
        <ele>191.44</ele>
        <time>2019-05-09T09:13:09Z</time>
      </trkpt>
      <trkpt lat="51.86359902843833" lon="9.911481980234385">
        <ele>209.22</ele>
        <time>2019-05-09T09:13:21Z</time>
      </trkpt>
      <trkpt lat="51.864445013925433" lon="9.908184036612511">
        <ele>218.84</ele>
        <time>2019-05-09T09:13:29Z</time>
      </trkpt>
      <trkpt lat="51.865206006914377" lon="9.904793975874782">
        <ele>229.41</ele>
        <time>2019-05-09T09:13:37Z</time>
      </trkpt>
      <trkpt lat="51.865285970270634" lon="9.902071030810475">
        <ele>237.58000000000001</ele>
        <time>2019-05-09T09:13:43Z</time>
      </trkpt>
      <trkpt lat="51.86506099998951" lon="9.896961003541946">
        <ele>247.68000000000001</ele>
        <time>2019-05-09T09:13:54Z</time>
      </trkpt>
      <trkpt lat="51.865205001085997" lon="9.894381975755096">
        <ele>248.16</ele>
        <time>2019-05-09T09:14:00Z</time>
      </trkpt>
      <trkpt lat="51.865744041278958" lon="9.891215041279793">
        <ele>247.19999999999999</ele>
        <time>2019-05-09T09:14:10Z</time>
      </trkpt>
      <trkpt lat="51.866121981292963" lon="9.888193029910326">
        <ele>240.47</ele>
        <time>2019-05-09T09:14:19Z</time>
      </trkpt>
      <trkpt lat="51.866141008213162" lon="9.885150985792279">
        <ele>230.37</ele>
        <time>2019-05-09T09:14:28Z</time>
      </trkpt>
      <trkpt lat="51.866074958816171" lon="9.882476991042495">
        <ele>217.40000000000001</ele>
        <time>2019-05-09T09:14:37Z</time>
      </trkpt>
      <trkpt lat="51.866099014878273" lon="9.880399033427239">
        <ele>207.78</ele>
        <time>2019-05-09T09:14:45Z</time>
      </trkpt>
      <trkpt lat="51.866299007087946" lon="9.876986006274819">
        <ele>195.77000000000001</ele>
        <time>2019-05-09T09:14:56Z</time>
      </trkpt>
      <trkpt lat="51.866304958239198" lon="9.874219978228211">
        <ele>188.56</ele>
        <time>2019-05-09T09:15:05Z</time>
      </trkpt>
      <trkpt lat="51.866276962682605" lon="9.87391596660018">
        <ele>187.59</ele>
        <time>2019-05-09T09:15:07Z</time>
      </trkpt>
      <trkpt lat="51.86626598238945" lon="9.873799039050937">
        <ele>187.11000000000001</ele>
        <time>2019-05-09T09:15:08Z</time>
      </trkpt>
      <trkpt lat="51.866405960172415" lon="9.873532997444272">
        <ele>186.15000000000001</ele>
        <time>2019-05-09T09:15:09Z</time>
      </trkpt>
      <trkpt lat="51.866468992084265" lon="9.873532997444272">
        <ele>185.66999999999999</ele>
        <time>2019-05-09T09:15:10Z</time>
      </trkpt>
      <trkpt lat="51.866520037874579" lon="9.873532997444272">
        <ele>184.71000000000001</ele>
        <time>2019-05-09T09:15:11Z</time>
      </trkpt>
      <trkpt lat="51.866624979302287" lon="9.873638022691011">
        <ele>183.75</ele>
        <time>2019-05-09T09:15:12Z</time>
      </trkpt>
      <trkpt lat="51.866702008992434" lon="9.873714968562126">
        <ele>183.27000000000001</ele>
        <time>2019-05-09T09:15:13Z</time>
      </trkpt>
      <trkpt lat="51.866750959306955" lon="9.873846983537078">
        <ele>182.31</ele>
        <time>2019-05-09T09:15:14Z</time>
      </trkpt>
      <trkpt lat="51.866797981783748" lon="9.87399903126061">
        <ele>181.34999999999999</ele>
        <time>2019-05-09T09:15:15Z</time>
      </trkpt>
      <trkpt lat="51.866820026189089" lon="9.874133979901671">
        <ele>180.87</ele>
        <time>2019-05-09T09:15:16Z</time>
      </trkpt>
      <trkpt lat="51.866820026189089" lon="9.874253002926707">
        <ele>180.38</ele>
        <time>2019-05-09T09:15:17Z</time>
      </trkpt>
      <trkpt lat="51.866820026189089" lon="9.874342018738389">
        <ele>179.90000000000001</ele>
        <time>2019-05-09T09:15:18Z</time>
      </trkpt>
      <trkpt lat="51.866820026189089" lon="9.874421982094646">
        <ele>179.41999999999999</ele>
        <time>2019-05-09T09:15:19Z</time>
      </trkpt>
      <trkpt lat="51.866820026189089" lon="9.874500017613173">
        <ele>178.94</ele>
        <time>2019-05-09T09:15:20Z</time>
      </trkpt>
      <trkpt lat="51.866603018715978" lon="9.875237960368395">
        <ele>176.53999999999999</ele>
        <time>2019-05-09T09:15:30Z</time>
      </trkpt>
      <trkpt lat="51.866559013724327" lon="9.875222034752369">
        <ele>176.53999999999999</ele>
        <time>2019-05-09T09:15:31Z</time>
      </trkpt>
      <trkpt lat="51.866488019004464" lon="9.875194961205125">
        <ele>176.53999999999999</ele>
        <time>2019-05-09T09:15:32Z</time>
      </trkpt>
      <trkpt lat="51.866390034556389" lon="9.875157997012138">
        <ele>176.06</ele>
        <time>2019-05-09T09:15:33Z</time>
      </trkpt>
      <trkpt lat="51.866272017359734" lon="9.87509697675705">
        <ele>175.58000000000001</ele>
        <time>2019-05-09T09:15:34Z</time>
      </trkpt>
      <trkpt lat="51.866161962971091" lon="9.87503201700747">
        <ele>174.62</ele>
        <time>2019-05-09T09:15:35Z</time>
      </trkpt>
      <trkpt lat="51.865218998864293" lon="9.874444026499987">
        <ele>174.62</ele>
        <time>2019-05-09T09:15:42Z</time>
      </trkpt>
      <trkpt lat="51.863976968452334" lon="9.873259998857975">
        <ele>179.90000000000001</ele>
        <time>2019-05-09T09:15:51Z</time>
      </trkpt>
      <trkpt lat="51.86259102076292" lon="9.872011011466384">
        <ele>183.75</ele>
        <time>2019-05-09T09:16:00Z</time>
      </trkpt>
      <trkpt lat="51.861170958727598" lon="9.870782978832722">
        <ele>186.63</ele>
        <time>2019-05-09T09:16:10Z</time>
      </trkpt>
      <trkpt lat="51.860237969085574" lon="9.869465008378029">
        <ele>190.96000000000001</ele>
        <time>2019-05-09T09:16:18Z</time>
      </trkpt>
      <trkpt lat="51.859138011932373" lon="9.867391996085644">
        <ele>196.25</ele>
        <time>2019-05-09T09:16:28Z</time>
      </trkpt>
      <trkpt lat="51.858395040035248" lon="9.8652149643749">
        <ele>198.65000000000001</ele>
        <time>2019-05-09T09:16:36Z</time>
      </trkpt>
      <trkpt lat="51.857742005959153" lon="9.862243998795748">
        <ele>198.65000000000001</ele>
        <time>2019-05-09T09:16:46Z</time>
      </trkpt>
      <trkpt lat="51.857359036803246" lon="9.859106987714768">
        <ele>198.65000000000001</ele>
        <time>2019-05-09T09:16:56Z</time>
      </trkpt>
      <trkpt lat="51.856866013258696" lon="9.857025006785989">
        <ele>198.16999999999999</ele>
        <time>2019-05-09T09:17:03Z</time>
      </trkpt>
      <trkpt lat="51.85625497251749" lon="9.854968003928661">
        <ele>197.69</ele>
        <time>2019-05-09T09:17:09Z</time>
      </trkpt>
      <trkpt lat="51.856151958927512" lon="9.854676984250546">
        <ele>197.21000000000001</ele>
        <time>2019-05-09T09:17:10Z</time>
      </trkpt>
      <trkpt lat="51.856020027771592" lon="9.85442703589797">
        <ele>196.72999999999999</ele>
        <time>2019-05-09T09:17:11Z</time>
      </trkpt>
      <trkpt lat="51.85588700696826" lon="9.85419100150466">
        <ele>196.25</ele>
        <time>2019-05-09T09:17:12Z</time>
      </trkpt>
      <trkpt lat="51.855734959244728" lon="9.854009030386806">
        <ele>195.77000000000001</ele>
        <time>2019-05-09T09:17:13Z</time>
      </trkpt>
      <trkpt lat="51.855584001168609" lon="9.853849019855261">
        <ele>195.28</ele>
        <time>2019-05-09T09:17:14Z</time>
      </trkpt>
      <trkpt lat="51.855438994243741" lon="9.853699989616871">
        <ele>195.28</ele>
        <time>2019-05-09T09:17:15Z</time>
      </trkpt>
      <trkpt lat="51.85528501868248" lon="9.85358901321888">
        <ele>194.80000000000001</ele>
        <time>2019-05-09T09:17:16Z</time>
      </trkpt>
      <trkpt lat="51.855133976787329" lon="9.853479964658618">
        <ele>194.31999999999999</ele>
        <time>2019-05-09T09:17:17Z</time>
      </trkpt>
      <trkpt lat="51.854500975459814" lon="9.853007979691029">
        <ele>192.40000000000001</ele>
        <time>2019-05-09T09:17:21Z</time>
      </trkpt>
      <trkpt lat="51.854366026818752" lon="9.852823996916413">
        <ele>191.91999999999999</ele>
        <time>2019-05-09T09:17:22Z</time>
      </trkpt>
      <trkpt lat="51.854234011843801" lon="9.85264403745532">
        <ele>191.44</ele>
        <time>2019-05-09T09:17:23Z</time>
      </trkpt>
      <trkpt lat="51.854103002697229" lon="9.852465000003576">
        <ele>190.96000000000001</ele>
        <time>2019-05-09T09:17:24Z</time>
      </trkpt>
      <trkpt lat="51.853992026299238" lon="9.852242963388562">
        <ele>190.47999999999999</ele>
        <time>2019-05-09T09:17:25Z</time>
      </trkpt>
      <trkpt lat="51.853899993002415" lon="9.852007012814283">
        <ele>190.47999999999999</ele>
        <time>2019-05-09T09:17:26Z</time>
      </trkpt>
      <trkpt lat="51.853805026039481" lon="9.851767960935831">
        <ele>189.52000000000001</ele>
        <time>2019-05-09T09:17:27Z</time>
      </trkpt>
      <trkpt lat="51.853748029097915" lon="9.851493034511805">
        <ele>189.03999999999999</ele>
        <time>2019-05-09T09:17:28Z</time>
      </trkpt>
      <trkpt lat="51.853710981085896" lon="9.851221041753888">
        <ele>188.08000000000001</ele>
        <time>2019-05-09T09:17:29Z</time>
      </trkpt>
      <trkpt lat="51.853675022721291" lon="9.850951982662082">
        <ele>187.59</ele>
        <time>2019-05-09T09:17:30Z</time>
      </trkpt>
      <trkpt lat="51.853661024942994" lon="9.850679989904165">
        <ele>187.11000000000001</ele>
        <time>2019-05-09T09:17:31Z</time>
      </trkpt>
      <trkpt lat="51.853652978315949" lon="9.850396011024714">
        <ele>186.63</ele>
        <time>2019-05-09T09:17:32Z</time>
      </trkpt>
      <trkpt lat="51.853586006909609" lon="9.847500985488296">
        <ele>185.19</ele>
        <time>2019-05-09T09:17:41Z</time>
      </trkpt>
      <trkpt lat="51.853716010227799" lon="9.844108996912837">
        <ele>183.27000000000001</ele>
        <time>2019-05-09T09:17:51Z</time>
      </trkpt>
      <trkpt lat="51.853890018537641" lon="9.841134008020163">
        <ele>181.34999999999999</ele>
        <time>2019-05-09T09:18:00Z</time>
      </trkpt>
      <trkpt lat="51.853857999667525" lon="9.840842988342047">
        <ele>181.34999999999999</ele>
        <time>2019-05-09T09:18:01Z</time>
      </trkpt>
      <trkpt lat="51.853802008554339" lon="9.840564960613847">
        <ele>181.34999999999999</ele>
        <time>2019-05-09T09:18:02Z</time>
      </trkpt>
      <trkpt lat="51.853745011612773" lon="9.840293973684311">
        <ele>180.87</ele>
        <time>2019-05-09T09:18:03Z</time>
      </trkpt>
      <trkpt lat="51.853663958609104" lon="9.840050982311368">
        <ele>180.87</ele>
        <time>2019-05-09T09:18:04Z</time>
      </trkpt>
      <trkpt lat="51.853573014959693" lon="9.83983900398016">
        <ele>180.38</ele>
        <time>2019-05-09T09:18:05Z</time>
      </trkpt>
      <trkpt lat="51.853474024683237" lon="9.839660972356796">
        <ele>179.90000000000001</ele>
        <time>2019-05-09T09:18:06Z</time>
      </trkpt>
      <trkpt lat="51.853363970294595" lon="9.839509008452296">
        <ele>179.41999999999999</ele>
        <time>2019-05-09T09:18:07Z</time>
      </trkpt>
      <trkpt lat="51.853233966976404" lon="9.83941001817584">
        <ele>178.94</ele>
        <time>2019-05-09T09:18:08Z</time>
      </trkpt>
      <trkpt lat="51.853103041648865" lon="9.839310022071004">
        <ele>178.46000000000001</ele>
        <time>2019-05-09T09:18:09Z</time>
      </trkpt>
      <trkpt lat="51.85296599753201" lon="9.839252019301057">
        <ele>178.46000000000001</ele>
        <time>2019-05-09T09:18:10Z</time>
      </trkpt>
      <trkpt lat="51.85281403362751" lon="9.839225029572845">
        <ele>177.97999999999999</ele>
        <time>2019-05-09T09:18:11Z</time>
      </trkpt>
      <trkpt lat="51.852660980075598" lon="9.839207008481026">
        <ele>177.5</ele>
        <time>2019-05-09T09:18:12Z</time>
      </trkpt>
      <trkpt lat="51.852501975372434" lon="9.839254030957818">
        <ele>177.02000000000001</ele>
        <time>2019-05-09T09:18:13Z</time>
      </trkpt>
      <trkpt lat="51.852361997589469" lon="9.839361989870668">
        <ele>176.53999999999999</ele>
        <time>2019-05-09T09:18:14Z</time>
      </trkpt>
      <trkpt lat="51.852225959300995" lon="9.839488975703716">
        <ele>176.06</ele>
        <time>2019-05-09T09:18:15Z</time>
      </trkpt>
      <trkpt lat="51.852142978459597" lon="9.839566005393863">
        <ele>175.58000000000001</ele>
        <time>2019-05-09T09:18:16Z</time>
      </trkpt>
      <trkpt lat="51.851994032040238" lon="9.839794998988509">
        <ele>174.62</ele>
        <time>2019-05-09T09:18:17Z</time>
      </trkpt>
      <trkpt lat="51.851878026500344" lon="9.839971018955112">
        <ele>173.66</ele>
        <time>2019-05-09T09:18:18Z</time>
      </trkpt>
      <trkpt lat="51.851756991818547" lon="9.840157013386488">
        <ele>173.16999999999999</ele>
        <time>2019-05-09T09:18:19Z</time>
      </trkpt>
      <trkpt lat="51.850488977506757" lon="9.842014024034143">
        <ele>167.41</ele>
        <time>2019-05-09T09:18:29Z</time>
      </trkpt>
      <trkpt lat="51.84929296374321" lon="9.84276001341641">
        <ele>164.03999999999999</ele>
        <time>2019-05-09T09:18:36Z</time>
      </trkpt>
      <trkpt lat="51.847775001078844" lon="9.843202996999025">
        <ele>160.19999999999999</ele>
        <time>2019-05-09T09:18:45Z</time>
      </trkpt>
      <trkpt lat="51.846306994557381" lon="9.843396032229066">
        <ele>156.83000000000001</ele>
        <time>2019-05-09T09:18:56Z</time>
      </trkpt>
      <trkpt lat="51.844781991094351" lon="9.843588983640075">
        <ele>157.31</ele>
        <time>2019-05-09T09:19:06Z</time>
      </trkpt>
      <trkpt lat="51.8433409743011" lon="9.843337023630738">
        <ele>156.34999999999999</ele>
        <time>2019-05-09T09:19:14Z</time>
      </trkpt>
      <trkpt lat="51.841733995825052" lon="9.842361034825444">
        <ele>152.03</ele>
        <time>2019-05-09T09:19:23Z</time>
      </trkpt>
      <trkpt lat="51.841566022485495" lon="9.842248968780041">
        <ele>152.50999999999999</ele>
        <time>2019-05-09T09:19:24Z</time>
      </trkpt>
      <trkpt lat="51.839866004884243" lon="9.840928986668587">
        <ele>148.18000000000001</ele>
        <time>2019-05-09T09:19:35Z</time>
      </trkpt>
      <trkpt lat="51.838668985292315" lon="9.839802961796522">
        <ele>144.81999999999999</ele>
        <time>2019-05-09T09:19:43Z</time>
      </trkpt>
      <trkpt lat="51.837304998189211" lon="9.838247029110789">
        <ele>140.97</ele>
        <time>2019-05-09T09:19:50Z</time>
      </trkpt>
      <trkpt lat="51.836290033534169" lon="9.836761001497507">
        <ele>138.56999999999999</ele>
        <time>2019-05-09T09:19:56Z</time>
      </trkpt>
      <trkpt lat="51.836144020780921" lon="9.836523039266467">
        <ele>137.61000000000001</ele>
        <time>2019-05-09T09:19:57Z</time>
      </trkpt>
      <trkpt lat="51.835184041410685" lon="9.8349619936198">
        <ele>134.24000000000001</ele>
        <time>2019-05-09T09:20:05Z</time>
      </trkpt>
      <trkpt lat="51.834335960447788" lon="9.833681993186474">
        <ele>131.84</ele>
        <time>2019-05-09T09:20:14Z</time>
      </trkpt>
      <trkpt lat="51.833270033821464" lon="9.832553034648299">
        <ele>130.40000000000001</ele>
        <time>2019-05-09T09:20:22Z</time>
      </trkpt>
      <trkpt lat="51.831986010074615" lon="9.831548966467381">
        <ele>129.43000000000001</ele>
        <time>2019-05-09T09:20:29Z</time>
      </trkpt>
      <trkpt lat="51.830580029636621" lon="9.830884030088782">
        <ele>130.40000000000001</ele>
        <time>2019-05-09T09:20:35Z</time>
      </trkpt>
      <trkpt lat="51.828799964860082" lon="9.83049301430583">
        <ele>133.28</ele>
        <time>2019-05-09T09:20:43Z</time>
      </trkpt>
      <trkpt lat="51.826789984479547" lon="9.830526961013675">
        <ele>134.72</ele>
        <time>2019-05-09T09:20:50Z</time>
      </trkpt>
      <trkpt lat="51.825240002945065" lon="9.830915965139866">
        <ele>134.72</ele>
        <time>2019-05-09T09:20:55Z</time>
      </trkpt>
      <trkpt lat="51.823167996481061" lon="9.83178298920393">
        <ele>134.24000000000001</ele>
        <time>2019-05-09T09:21:03Z</time>
      </trkpt>
      <trkpt lat="51.82185597717762" lon="9.832482961937785">
        <ele>132.31999999999999</ele>
        <time>2019-05-09T09:21:10Z</time>
      </trkpt>
      <trkpt lat="51.821073023602366" lon="9.83298503793776">
        <ele>130.88</ele>
        <time>2019-05-09T09:21:16Z</time>
      </trkpt>
      <trkpt lat="51.820883005857468" lon="9.833112023770809">
        <ele>130.40000000000001</ele>
        <time>2019-05-09T09:21:19Z</time>
      </trkpt>
      <trkpt lat="51.820858027786016" lon="9.833129039034247">
        <ele>130.40000000000001</ele>
        <time>2019-05-09T09:21:20Z</time>
      </trkpt>
      <trkpt lat="51.820876970887184" lon="9.8332230001688">
        <ele>130.40000000000001</ele>
        <time>2019-05-09T09:21:21Z</time>
      </trkpt>
      <trkpt lat="51.820894991979003" lon="9.833315033465624">
        <ele>130.40000000000001</ele>
        <time>2019-05-09T09:21:23Z</time>
      </trkpt>
      <trkpt lat="51.821007980033755" lon="9.833902018144727">
        <ele>130.88</ele>
        <time>2019-05-09T09:21:26Z</time>
      </trkpt>
      <trkpt lat="51.821050979197025" lon="9.835167014971376">
        <ele>133.75999999999999</ele>
        <time>2019-05-09T09:21:33Z</time>
      </trkpt>
      <trkpt lat="51.821033963933587" lon="9.835379999130964">
        <ele>134.72</ele>
        <time>2019-05-09T09:21:34Z</time>
      </trkpt>
      <trkpt lat="51.820965986698866" lon="9.835889032110572">
        <ele>136.16</ele>
        <time>2019-05-09T09:21:37Z</time>
      </trkpt>
      <trkpt lat="51.820931034162641" lon="9.836044013500214">
        <ele>136.63999999999999</ele>
        <time>2019-05-09T09:21:38Z</time>
      </trkpt>
      <trkpt lat="51.820901026949286" lon="9.836176028475165">
        <ele>137.13</ele>
        <time>2019-05-09T09:21:39Z</time>
      </trkpt>
      <trkpt lat="51.820846041664481" lon="9.836262026801705">
        <ele>137.61000000000001</ele>
        <time>2019-05-09T09:21:40Z</time>
      </trkpt>
      <trkpt lat="51.820796001702547" lon="9.836340984329581">
        <ele>137.61000000000001</ele>
        <time>2019-05-09T09:21:41Z</time>
      </trkpt>
      <trkpt lat="51.820749985054135" lon="9.836411979049444">
        <ele>138.09</ele>
        <time>2019-05-09T09:21:42Z</time>
      </trkpt>
      <trkpt lat="51.82069499976933" lon="9.83646696433425">
        <ele>137.61000000000001</ele>
        <time>2019-05-09T09:21:43Z</time>
      </trkpt>
      <trkpt lat="51.820630962029099" lon="9.83650803565979">
        <ele>137.61000000000001</ele>
        <time>2019-05-09T09:21:44Z</time>
      </trkpt>
      <trkpt lat="51.820580000057817" lon="9.836525972932577">
        <ele>138.09</ele>
        <time>2019-05-09T09:21:45Z</time>
      </trkpt>
      <trkpt lat="51.820492995902896" lon="9.836411979049444">
        <ele>138.09</ele>
        <time>2019-05-09T09:21:46Z</time>
      </trkpt>
      <trkpt lat="51.820469023659825" lon="9.836393035948277">
        <ele>138.56999999999999</ele>
        <time>2019-05-09T09:21:47Z</time>
      </trkpt>
      <trkpt lat="51.820404985919595" lon="9.836281975731254">
        <ele>138.56999999999999</ele>
        <time>2019-05-09T09:21:48Z</time>
      </trkpt>
      <trkpt lat="51.820400040596724" lon="9.836137974634767">
        <ele>138.56999999999999</ele>
        <time>2019-05-09T09:21:49Z</time>
      </trkpt>
      <trkpt lat="51.820392999798059" lon="9.835961032658815">
        <ele>138.56999999999999</ele>
        <time>2019-05-09T09:21:50Z</time>
      </trkpt>
      <trkpt lat="51.820385036990047" lon="9.835761040449143">
        <ele>139.05000000000001</ele>
        <time>2019-05-09T09:21:51Z</time>
      </trkpt>
      <trkpt lat="51.820324016734958" lon="9.834126988425851">
        <ele>137.61000000000001</ele>
        <time>2019-05-09T09:21:57Z</time>
      </trkpt>
      <trkpt lat="51.820189990103245" lon="9.830856034532189">
        <ele>140.00999999999999</ele>
        <time>2019-05-09T09:22:06Z</time>
      </trkpt>
      <trkpt lat="51.820081025362015" lon="9.828765001147986">
        <ele>142.41</ele>
        <time>2019-05-09T09:22:11Z</time>
      </trkpt>
      <trkpt lat="51.819893019273877" lon="9.825002029538155">
        <ele>146.25999999999999</ele>
        <time>2019-05-09T09:22:21Z</time>
      </trkpt>
      <trkpt lat="51.819722028449178" lon="9.821566035971046">
        <ele>148.66</ele>
        <time>2019-05-09T09:22:30Z</time>
      </trkpt>
      <trkpt lat="51.819800985977054" lon="9.818735970184207">
        <ele>147.69999999999999</ele>
        <time>2019-05-09T09:22:37Z</time>
      </trkpt>
      <trkpt lat="51.819946998730302" lon="9.815805992111564">
        <ele>147.69999999999999</ele>
        <time>2019-05-09T09:22:44Z</time>
      </trkpt>
      <trkpt lat="51.820309013128281" lon="9.811276998370886">
        <ele>149.62</ele>
        <time>2019-05-09T09:22:56Z</time>
      </trkpt>
      <trkpt lat="51.820408003404737" lon="9.806824028491974">
        <ele>149.13999999999999</ele>
        <time>2019-05-09T09:23:07Z</time>
      </trkpt>
      <trkpt lat="51.820370033383369" lon="9.801130034029484">
        <ele>137.61000000000001</ele>
        <time>2019-05-09T09:23:21Z</time>
      </trkpt>
      <trkpt lat="51.820328962057829" lon="9.795999974012375">
        <ele>128.94999999999999</ele>
        <time>2019-05-09T09:23:33Z</time>
      </trkpt>
      <trkpt lat="51.820303983986378" lon="9.792694989591837">
        <ele>125.11</ele>
        <time>2019-05-09T09:23:42Z</time>
      </trkpt>
      <trkpt lat="51.820299960672855" lon="9.792087972164154">
        <ele>125.11</ele>
        <time>2019-05-09T09:23:46Z</time>
      </trkpt>
      <trkpt lat="51.820299960672855" lon="9.790888018906117">
        <ele>126.55</ele>
        <time>2019-05-09T09:23:53Z</time>
      </trkpt>
      <trkpt lat="51.820198036730289" lon="9.788742000237107">
        <ele>127.03</ele>
        <time>2019-05-09T09:24:04Z</time>
      </trkpt>
      <trkpt lat="51.82015897706151" lon="9.788552988320589">
        <ele>126.55</ele>
        <time>2019-05-09T09:24:05Z</time>
      </trkpt>
      <trkpt lat="51.819698978215456" lon="9.786479976028204">
        <ele>125.59</ele>
        <time>2019-05-09T09:24:16Z</time>
      </trkpt>
      <trkpt lat="51.819196986034513" lon="9.784706030040979">
        <ele>127.98999999999999</ele>
        <time>2019-05-09T09:24:23Z</time>
      </trkpt>
      <trkpt lat="51.818096023052931" lon="9.781070966273546">
        <ele>129.43000000000001</ele>
        <time>2019-05-09T09:24:34Z</time>
      </trkpt>
      <trkpt lat="51.816747961565852" lon="9.776904992759228">
        <ele>131.36000000000001</ele>
        <time>2019-05-09T09:24:46Z</time>
      </trkpt>
      <trkpt lat="51.816231971606612" lon="9.774556970223784">
        <ele>131.84</ele>
        <time>2019-05-09T09:24:53Z</time>
      </trkpt>
      <trkpt lat="51.815921002998948" lon="9.772901963442564">
        <ele>131.84</ele>
        <time>2019-05-09T09:25:00Z</time>
      </trkpt>
      <trkpt lat="51.81556100025773" lon="9.771413002163172">
        <ele>134.72</ele>
        <time>2019-05-09T09:25:09Z</time>
      </trkpt>
      <trkpt lat="51.815198985859752" lon="9.770471965894103">
        <ele>136.16</ele>
        <time>2019-05-09T09:25:17Z</time>
      </trkpt>
      <trkpt lat="51.815148023888469" lon="9.770341962575913">
        <ele>135.68000000000001</ele>
        <time>2019-05-09T09:25:18Z</time>
      </trkpt>
      <trkpt lat="51.814857004210353" lon="9.769585998728871">
        <ele>134.72</ele>
        <time>2019-05-09T09:25:23Z</time>
      </trkpt>
      <trkpt lat="51.814802018925548" lon="9.769405033439398">
        <ele>135.19999999999999</ele>
        <time>2019-05-09T09:25:24Z</time>
      </trkpt>
      <trkpt lat="51.814729012548923" lon="9.768988033756614">
        <ele>134.72</ele>
        <time>2019-05-09T09:25:26Z</time>
      </trkpt>
      <trkpt lat="51.814618036150932" lon="9.767294973134995">
        <ele>135.19999999999999</ele>
        <time>2019-05-09T09:25:34Z</time>
      </trkpt>
      <trkpt lat="51.814615018665791" lon="9.767142003402114">
        <ele>135.19999999999999</ele>
        <time>2019-05-09T09:25:35Z</time>
      </trkpt>
      <trkpt lat="51.814632033929229" lon="9.767018035054207">
        <ele>135.19999999999999</ele>
        <time>2019-05-09T09:25:36Z</time>
      </trkpt>
      <trkpt lat="51.814781986176968" lon="9.766684016212821">
        <ele>135.68000000000001</ele>
        <time>2019-05-09T09:25:40Z</time>
      </trkpt>
      <trkpt lat="51.814677966758609" lon="9.766544960439205">
        <ele>135.68000000000001</ele>
        <time>2019-05-09T09:25:41Z</time>
      </trkpt>
      <trkpt lat="51.814675033092499" lon="9.766430966556072">
        <ele>135.68000000000001</ele>
        <time>2019-05-09T09:25:42Z</time>
      </trkpt>
      <trkpt lat="51.814658017829061" lon="9.766271961852908">
        <ele>136.16</ele>
        <time>2019-05-09T09:25:43Z</time>
      </trkpt>
      <trkpt lat="51.814638990908861" lon="9.766090996563435">
        <ele>136.16</ele>
        <time>2019-05-09T09:25:44Z</time>
      </trkpt>
      <trkpt lat="51.814617030322552" lon="9.765889998525381">
        <ele>136.63999999999999</ele>
        <time>2019-05-09T09:25:45Z</time>
      </trkpt>
      <trkpt lat="51.814452996477485" lon="9.764262987300754">
        <ele>137.13</ele>
        <time>2019-05-09T09:25:51Z</time>
      </trkpt>
      <trkpt lat="51.814131969586015" lon="9.761300990357995">
        <ele>140.00999999999999</ele>
        <time>2019-05-09T09:25:59Z</time>
      </trkpt>
      <trkpt lat="51.813757969066501" lon="9.759428976103663">
        <ele>143.37</ele>
        <time>2019-05-09T09:26:05Z</time>
      </trkpt>
      <trkpt lat="51.813598964363337" lon="9.758845008909702">
        <ele>143.84999999999999</ele>
        <time>2019-05-09T09:26:08Z</time>
      </trkpt>
      <trkpt lat="51.813563005998731" lon="9.758712993934751">
        <ele>143.84999999999999</ele>
        <time>2019-05-09T09:26:09Z</time>
      </trkpt>
      <trkpt lat="51.813618997111917" lon="9.75845399312675">
        <ele>143.84999999999999</ele>
        <time>2019-05-09T09:26:10Z</time>
      </trkpt>
      <trkpt lat="51.813563005998731" lon="9.758284008130431">
        <ele>143.37</ele>
        <time>2019-05-09T09:26:11Z</time>
      </trkpt>
      <trkpt lat="51.813447000458837" lon="9.758284008130431">
        <ele>143.37</ele>
        <time>2019-05-09T09:26:12Z</time>
      </trkpt>
      <trkpt lat="51.813355972990394" lon="9.758145958185196">
        <ele>143.37</ele>
        <time>2019-05-09T09:26:13Z</time>
      </trkpt>
      <trkpt lat="51.813320014625788" lon="9.757999023422599">
        <ele>143.37</ele>
        <time>2019-05-09T09:26:14Z</time>
      </trkpt>
      <trkpt lat="51.813276009634137" lon="9.757825015112758">
        <ele>143.37</ele>
        <time>2019-05-09T09:26:15Z</time>
      </trkpt>
      <trkpt lat="51.8132399674505" lon="9.757624017074704">
        <ele>143.37</ele>
        <time>2019-05-09T09:26:16Z</time>
      </trkpt>
      <trkpt lat="51.813205014914274" lon="9.757392005994916">
        <ele>143.37</ele>
        <time>2019-05-09T09:26:17Z</time>
      </trkpt>
      <trkpt lat="51.812899997457862" lon="9.755261996760964">
        <ele>146.25999999999999</ele>
        <time>2019-05-09T09:26:24Z</time>
      </trkpt>
      <trkpt lat="51.812352994456887" lon="9.751973021775484">
        <ele>147.69999999999999</ele>
        <time>2019-05-09T09:26:34Z</time>
      </trkpt>
      <trkpt lat="51.81167003698647" lon="9.748840034008026">
        <ele>148.18000000000001</ele>
        <time>2019-05-09T09:26:43Z</time>
      </trkpt>
      <trkpt lat="51.811202997341752" lon="9.745967974886298">
        <ele>148.66</ele>
        <time>2019-05-09T09:26:51Z</time>
      </trkpt>
      <trkpt lat="51.811191011220217" lon="9.743163976818323">
        <ele>149.13999999999999</ele>
        <time>2019-05-09T09:26:58Z</time>
      </trkpt>
      <trkpt lat="51.811266029253602" lon="9.739732006564736">
        <ele>150.09999999999999</ele>
        <time>2019-05-09T09:27:06Z</time>
      </trkpt>
      <trkpt lat="51.81132503785193" lon="9.736995985731483">
        <ele>151.53999999999999</ele>
        <time>2019-05-09T09:27:14Z</time>
      </trkpt>
      <trkpt lat="51.811368959024549" lon="9.735594028607011">
        <ele>153.94999999999999</ele>
        <time>2019-05-09T09:27:20Z</time>
      </trkpt>
      <trkpt lat="51.811502985656261" lon="9.733437029644847">
        <ele>155.87</ele>
        <time>2019-05-09T09:27:32Z</time>
      </trkpt>
      <trkpt lat="51.811422016471624" lon="9.732729010283947">
        <ele>155.38999999999999</ele>
        <time>2019-05-09T09:27:36Z</time>
      </trkpt>
      <trkpt lat="51.811378011479974" lon="9.732563970610499">
        <ele>154.91</ele>
        <time>2019-05-09T09:27:37Z</time>
      </trkpt>
      <trkpt lat="51.811324032023549" lon="9.732391973957419">
        <ele>154.91</ele>
        <time>2019-05-09T09:27:38Z</time>
      </trkpt>
      <trkpt lat="51.811268962919712" lon="9.732216037809849">
        <ele>155.38999999999999</ele>
        <time>2019-05-09T09:27:39Z</time>
      </trkpt>
      <trkpt lat="51.811210960149765" lon="9.732034988701344">
        <ele>154.91</ele>
        <time>2019-05-09T09:27:40Z</time>
      </trkpt>
      <trkpt lat="51.811149017885327" lon="9.731848994269967">
        <ele>154.91</ele>
        <time>2019-05-09T09:27:41Z</time>
      </trkpt>
      <trkpt lat="51.811067964881659" lon="9.731678003445268">
        <ele>154.91</ele>
        <time>2019-05-09T09:27:42Z</time>
      </trkpt>
      <trkpt lat="51.810549041256309" lon="9.730520965531468">
        <ele>153.94999999999999</ele>
        <time>2019-05-09T09:27:48Z</time>
      </trkpt>
      <trkpt lat="51.810006983578205" lon="9.728721035644412">
        <ele>153.47</ele>
        <time>2019-05-09T09:27:55Z</time>
      </trkpt>
      <trkpt lat="51.809226963669062" lon="9.726463034749031">
        <ele>153.47</ele>
        <time>2019-05-09T09:28:02Z</time>
      </trkpt>
      <trkpt lat="51.806962005794048" lon="9.722091034054756">
        <ele>153.47</ele>
        <time>2019-05-09T09:28:16Z</time>
      </trkpt>
      <trkpt lat="51.805079011246562" lon="9.718420011922717">
        <ele>158.75</ele>
        <time>2019-05-09T09:28:29Z</time>
      </trkpt>
      <trkpt lat="51.803986011072993" lon="9.716008035466075">
        <ele>166.93000000000001</ele>
        <time>2019-05-09T09:28:37Z</time>
      </trkpt>
      <trkpt lat="51.802881024777889" lon="9.712955011054874">
        <ele>172.21000000000001</ele>
        <time>2019-05-09T09:28:46Z</time>
      </trkpt>
      <trkpt lat="51.802106034010649" lon="9.710782002657652">
        <ele>173.66</ele>
        <time>2019-05-09T09:28:52Z</time>
      </trkpt>
      <trkpt lat="51.801214031875134" lon="9.708382012322545">
        <ele>172.69</ele>
        <time>2019-05-09T09:29:00Z</time>
      </trkpt>
      <trkpt lat="51.800366034731269" lon="9.706048993393779">
        <ele>168.37</ele>
        <time>2019-05-09T09:29:07Z</time>
      </trkpt>
      <trkpt lat="51.800006031990051" lon="9.70402903854847">
        <ele>164.03999999999999</ele>
        <time>2019-05-09T09:29:13Z</time>
      </trkpt>
      <trkpt lat="51.799989016726613" lon="9.702173033729196">
        <ele>161.63999999999999</ele>
        <time>2019-05-09T09:29:20Z</time>
      </trkpt>
      <trkpt lat="51.800053976476192" lon="9.701239038258791">
        <ele>161.63999999999999</ele>
        <time>2019-05-09T09:29:26Z</time>
      </trkpt>
      <trkpt lat="51.800062023103237" lon="9.701172988861799">
        <ele>161.63999999999999</ele>
        <time>2019-05-09T09:29:27Z</time>
      </trkpt>
      <trkpt lat="51.800151038914919" lon="9.701121021062136">
        <ele>161.63999999999999</ele>
        <time>2019-05-09T09:29:28Z</time>
      </trkpt>
      <trkpt lat="51.800168976187706" lon="9.701052037999034">
        <ele>162.12</ele>
        <time>2019-05-09T09:29:29Z</time>
      </trkpt>
      <trkpt lat="51.800193032249808" lon="9.700954975560308">
        <ele>162.12</ele>
        <time>2019-05-09T09:29:30Z</time>
      </trkpt>
      <trkpt lat="51.800152966752648" lon="9.700866965577006">
        <ele>162.12</ele>
        <time>2019-05-09T09:29:31Z</time>
      </trkpt>
      <trkpt lat="51.800119020044804" lon="9.700679965317249">
        <ele>161.63999999999999</ele>
        <time>2019-05-09T09:29:32Z</time>
      </trkpt>
      <trkpt lat="51.800134023651481" lon="9.700532024726272">
        <ele>161.63999999999999</ele>
        <time>2019-05-09T09:29:33Z</time>
      </trkpt>
      <trkpt lat="51.800151960924268" lon="9.700363967567682">
        <ele>161.16</ele>
        <time>2019-05-09T09:29:34Z</time>
      </trkpt>
      <trkpt lat="51.800351031124592" lon="9.698792025446892">
        <ele>159.24000000000001</ele>
        <time>2019-05-09T09:29:43Z</time>
      </trkpt>
      <trkpt lat="51.800661999732256" lon="9.69721999950707">
        <ele>159.72</ele>
        <time>2019-05-09T09:29:53Z</time>
      </trkpt>
      <trkpt lat="51.801183018833399" lon="9.695789963006973">
        <ele>160.19999999999999</ele>
        <time>2019-05-09T09:30:05Z</time>
      </trkpt>
      <trkpt lat="51.801402037963271" lon="9.695366006344557">
        <ele>159.72</ele>
        <time>2019-05-09T09:30:13Z</time>
      </trkpt>
      <trkpt lat="51.801760029047728" lon="9.694768041372299">
        <ele>159.72</ele>
        <time>2019-05-09T09:30:19Z</time>
      </trkpt>
      <trkpt lat="51.80238900706172" lon="9.693672023713589">
        <ele>159.72</ele>
        <time>2019-05-09T09:30:26Z</time>
      </trkpt>
      <trkpt lat="51.803275980055332" lon="9.692312981933355">
        <ele>161.63999999999999</ele>
        <time>2019-05-09T09:30:35Z</time>
      </trkpt>
      <trkpt lat="51.80333498865366" lon="9.692117013037205">
        <ele>161.63999999999999</ele>
        <time>2019-05-09T09:30:36Z</time>
      </trkpt>
      <trkpt lat="51.80337798781693" lon="9.691910985857248">
        <ele>162.12</ele>
        <time>2019-05-09T09:30:37Z</time>
      </trkpt>
      <trkpt lat="51.8034209869802" lon="9.691703030839562">
        <ele>162.12</ele>
        <time>2019-05-09T09:30:38Z</time>
      </trkpt>
      <trkpt lat="51.80346398614347" lon="9.691494992002845">
        <ele>162.59999999999999</ele>
        <time>2019-05-09T09:30:39Z</time>
      </trkpt>
      <trkpt lat="51.80350799113512" lon="9.691284019500017">
        <ele>162.59999999999999</ele>
        <time>2019-05-09T09:30:40Z</time>
      </trkpt>
      <trkpt lat="51.8036799877882" lon="9.689504960551858">
        <ele>166.44999999999999</ele>
        <time>2019-05-09T09:30:48Z</time>
      </trkpt>
      <trkpt lat="51.803644029423594" lon="9.689290970563889">
        <ele>166.93000000000001</ele>
        <time>2019-05-09T09:30:49Z</time>
      </trkpt>
      <trkpt lat="51.803609998896718" lon="9.689084021374583">
        <ele>167.41</ele>
        <time>2019-05-09T09:30:50Z</time>
      </trkpt>
      <trkpt lat="51.80354998447001" lon="9.688918981701136">
        <ele>167.88999999999999</ele>
        <time>2019-05-09T09:30:51Z</time>
      </trkpt>
      <trkpt lat="51.80348401889205" lon="9.688752014189959">
        <ele>167.88999999999999</ele>
        <time>2019-05-09T09:30:52Z</time>
      </trkpt>
      <trkpt lat="51.803424004465342" lon="9.688598038628697">
        <ele>168.37</ele>
        <time>2019-05-09T09:30:53Z</time>
      </trkpt>
      <trkpt lat="51.803370025008917" lon="9.688462000340223">
        <ele>168.84999999999999</ele>
        <time>2019-05-09T09:30:54Z</time>
      </trkpt>
      <trkpt lat="51.803324008360505" lon="9.688349012285471">
        <ele>168.84999999999999</ele>
        <time>2019-05-09T09:30:55Z</time>
      </trkpt>
      <trkpt lat="51.802984038367867" lon="9.687830004841089">
        <ele>169.81</ele>
        <time>2019-05-09T09:31:02Z</time>
      </trkpt>
      <trkpt lat="51.802468970417976" lon="9.687161967158318">
        <ele>172.69</ele>
        <time>2019-05-09T09:31:08Z</time>
      </trkpt>
      <trkpt lat="51.802197983488441" lon="9.686546986922622">
        <ele>175.09999999999999</ele>
        <time>2019-05-09T09:31:12Z</time>
      </trkpt>
      <trkpt lat="51.802145009860396" lon="9.686363004148006">
        <ele>175.09999999999999</ele>
        <time>2019-05-09T09:31:13Z</time>
      </trkpt>
      <trkpt lat="51.802064962685108" lon="9.685957990586758">
        <ele>175.58000000000001</ele>
        <time>2019-05-09T09:31:15Z</time>
      </trkpt>
      <trkpt lat="51.801733961328864" lon="9.683815995231271">
        <ele>176.53999999999999</ele>
        <time>2019-05-09T09:31:26Z</time>
      </trkpt>
      <trkpt lat="51.801522988826036" lon="9.682235000655055">
        <ele>178.46000000000001</ele>
        <time>2019-05-09T09:31:34Z</time>
      </trkpt>
      <trkpt lat="51.801504967734218" lon="9.68183602206409">
        <ele>178.94</ele>
        <time>2019-05-09T09:31:36Z</time>
      </trkpt>
      <trkpt lat="51.801567999646068" lon="9.680629028007388">
        <ele>180.38</ele>
        <time>2019-05-09T09:31:42Z</time>
      </trkpt>
      <trkpt lat="51.801575040444732" lon="9.680448984727264">
        <ele>180.38</ele>
        <time>2019-05-09T09:31:43Z</time>
      </trkpt>
      <trkpt lat="51.801640000194311" lon="9.678315035998821">
        <ele>181.83000000000001</ele>
        <time>2019-05-09T09:31:54Z</time>
      </trkpt>
      <trkpt lat="51.801617033779621" lon="9.67792603187263">
        <ele>181.83000000000001</ele>
        <time>2019-05-09T09:31:56Z</time>
      </trkpt>
      <trkpt lat="51.801518965512514" lon="9.67736997641623">
        <ele>183.27000000000001</ele>
        <time>2019-05-09T09:31:59Z</time>
      </trkpt>
      <trkpt lat="51.801464986056089" lon="9.677203008905053">
        <ele>183.27000000000001</ele>
        <time>2019-05-09T09:32:00Z</time>
      </trkpt>
      <trkpt lat="51.801411006599665" lon="9.677036963403225">
        <ele>183.75</ele>
        <time>2019-05-09T09:32:01Z</time>
      </trkpt>
      <trkpt lat="51.801301036030054" lon="9.676695987582207">
        <ele>183.27000000000001</ele>
        <time>2019-05-09T09:32:03Z</time>
      </trkpt>
      <trkpt lat="51.801244961097836" lon="9.676523990929127">
        <ele>182.78999999999999</ele>
        <time>2019-05-09T09:32:04Z</time>
      </trkpt>
      <trkpt lat="51.800655964761972" lon="9.674626998603344">
        <ele>184.71000000000001</ele>
        <time>2019-05-09T09:32:14Z</time>
      </trkpt>
      <trkpt lat="51.800222033634782" lon="9.672458013519645">
        <ele>190</ele>
        <time>2019-05-09T09:32:22Z</time>
      </trkpt>
      <trkpt lat="51.799845015630126" lon="9.669753005728126">
        <ele>199.13</ele>
        <time>2019-05-09T09:32:30Z</time>
      </trkpt>
      <trkpt lat="51.799555001780391" lon="9.665546966716647">
        <ele>215.94999999999999</ele>
        <time>2019-05-09T09:32:41Z</time>
      </trkpt>
      <trkpt lat="51.799162980169058" lon="9.661495992913842">
        <ele>227.97</ele>
        <time>2019-05-09T09:32:51Z</time>
      </trkpt>
      <trkpt lat="51.799134984612465" lon="9.658252028748393">
        <ele>238.06</ele>
        <time>2019-05-09T09:32:59Z</time>
      </trkpt>
      <trkpt lat="51.798976985737681" lon="9.656648989766836">
        <ele>242.87</ele>
        <time>2019-05-09T09:33:03Z</time>
      </trkpt>
      <trkpt lat="51.798916971310973" lon="9.65624900534749">
        <ele>244.31</ele>
        <time>2019-05-09T09:33:04Z</time>
      </trkpt>
      <trkpt lat="51.79830702021718" lon="9.651885973289609">
        <ele>257.76999999999998</ele>
        <time>2019-05-09T09:33:15Z</time>
      </trkpt>
      <trkpt lat="51.797681981697679" lon="9.647937007248402">
        <ele>273.63</ele>
        <time>2019-05-09T09:33:25Z</time>
      </trkpt>
      <trkpt lat="51.79684697650373" lon="9.64395702816546">
        <ele>291.42000000000002</ele>
        <time>2019-05-09T09:33:35Z</time>
      </trkpt>
      <trkpt lat="51.796296034008265" lon="9.638975998386741">
        <ele>314.00999999999999</ele>
        <time>2019-05-09T09:33:47Z</time>
      </trkpt>
      <trkpt lat="51.796252029016614" lon="9.636540971696377">
        <ele>324.10000000000002</ele>
        <time>2019-05-09T09:33:53Z</time>
      </trkpt>
      <trkpt lat="51.7962889932096" lon="9.635258037596941">
        <ele>328.43000000000001</ele>
        <time>2019-05-09T09:33:56Z</time>
      </trkpt>
      <trkpt lat="51.795992022380233" lon="9.630762990564108">
        <ele>345.25</ele>
        <time>2019-05-09T09:34:06Z</time>
      </trkpt>
      <trkpt lat="51.795731009915471" lon="9.62705098092556">
        <ele>362.06999999999999</ele>
        <time>2019-05-09T09:34:14Z</time>
      </trkpt>
      <trkpt lat="51.795540992170572" lon="9.623454976826906">
        <ele>381.77999999999997</ele>
        <time>2019-05-09T09:34:22Z</time>
      </trkpt>
      <trkpt lat="51.795394979417324" lon="9.622618965804577">
        <ele>386.58999999999997</ele>
        <time>2019-05-09T09:34:24Z</time>
      </trkpt>
      <trkpt lat="51.795290037989616" lon="9.622219987213612">
        <ele>389.47000000000003</ele>
        <time>2019-05-09T09:34:25Z</time>
      </trkpt>
      <trkpt lat="51.794111961498857" lon="9.618486016988754">
        <ele>414.47000000000003</ele>
        <time>2019-05-09T09:34:34Z</time>
      </trkpt>
      <trkpt lat="51.792576983571053" lon="9.613416977226734">
        <ele>446.19</ele>
        <time>2019-05-09T09:34:46Z</time>
      </trkpt>
      <trkpt lat="51.791391028091311" lon="9.608906004577875">
        <ele>468.77999999999997</ele>
        <time>2019-05-09T09:34:56Z</time>
      </trkpt>
      <trkpt lat="51.790161989629269" lon="9.605986000970006">
        <ele>482.24000000000001</ele>
        <time>2019-05-09T09:35:03Z</time>
      </trkpt>
      <trkpt lat="51.788746034726501" lon="9.603663962334395">
        <ele>493.76999999999998</ele>
        <time>2019-05-09T09:35:10Z</time>
      </trkpt>
      <trkpt lat="51.786882989108562" lon="9.601529007777572">
        <ele>501.94999999999999</ele>
        <time>2019-05-09T09:35:18Z</time>
      </trkpt>
      <trkpt lat="51.784975016489625" lon="9.600144987925887">
        <ele>507.70999999999998</ele>
        <time>2019-05-09T09:35:25Z</time>
      </trkpt>
      <trkpt lat="51.782857999205589" lon="9.598537003621459">
        <ele>516.37</ele>
        <time>2019-05-09T09:35:33Z</time>
      </trkpt>
      <trkpt lat="51.781332995742559" lon="9.596424009650946">
        <ele>525.5</ele>
        <time>2019-05-09T09:35:40Z</time>
      </trkpt>
      <trkpt lat="51.779354028403759" lon="9.593475004658103">
        <ele>532.23000000000002</ele>
        <time>2019-05-09T09:35:49Z</time>
      </trkpt>
      <trkpt lat="51.777693992480636" lon="9.591132011264563">
        <ele>534.63</ele>
        <time>2019-05-09T09:35:57Z</time>
      </trkpt>
      <trkpt lat="51.775674959644675" lon="9.58831200376153">
        <ele>531.75</ele>
        <time>2019-05-09T09:36:06Z</time>
      </trkpt>
      <trkpt lat="51.77413696423173" lon="9.58616497926414">
        <ele>528.38</ele>
        <time>2019-05-09T09:36:13Z</time>
      </trkpt>
      <trkpt lat="51.772902980446815" lon="9.583626016974449">
        <ele>523.09000000000003</ele>
        <time>2019-05-09T09:36:20Z</time>
      </trkpt>
      <trkpt lat="51.772252963855863" lon="9.581142039969564">
        <ele>518.28999999999996</ele>
        <time>2019-05-09T09:36:26Z</time>
      </trkpt>
      <trkpt lat="51.771620968356729" lon="9.578144000843167">
        <ele>514.91999999999996</ele>
        <time>2019-05-09T09:36:34Z</time>
      </trkpt>
      <trkpt lat="51.771371020004153" lon="9.57589203491807">
        <ele>512.03999999999996</ele>
        <time>2019-05-09T09:36:41Z</time>
      </trkpt>
      <trkpt lat="51.771185025572777" lon="9.574397960677743">
        <ele>509.63999999999999</ele>
        <time>2019-05-09T09:36:47Z</time>
      </trkpt>
      <trkpt lat="51.771124005317688" lon="9.574196040630341">
        <ele>509.63999999999999</ele>
        <time>2019-05-09T09:36:48Z</time>
      </trkpt>
      <trkpt lat="51.771026020869613" lon="9.574048016220331">
        <ele>509.63999999999999</ele>
        <time>2019-05-09T09:36:49Z</time>
      </trkpt>
      <trkpt lat="51.770885959267616" lon="9.573968974873424">
        <ele>509.16000000000003</ele>
        <time>2019-05-09T09:36:50Z</time>
      </trkpt>
      <trkpt lat="51.770746987313032" lon="9.573905020952225">
        <ele>509.16000000000003</ele>
        <time>2019-05-09T09:36:51Z</time>
      </trkpt>
      <trkpt lat="51.770588988438249" lon="9.573911977931857">
        <ele>508.67000000000002</ele>
        <time>2019-05-09T09:36:52Z</time>
      </trkpt>
      <trkpt lat="51.770416991785169" lon="9.573927987366915">
        <ele>508.67000000000002</ele>
        <time>2019-05-09T09:36:53Z</time>
      </trkpt>
      <trkpt lat="51.768966000527143" lon="9.574006022885442">
        <ele>508.19</ele>
        <time>2019-05-09T09:37:00Z</time>
      </trkpt>
      <trkpt lat="51.767567982897162" lon="9.573568990454078">
        <ele>510.12</ele>
        <time>2019-05-09T09:37:06Z</time>
      </trkpt>
      <trkpt lat="51.767338989302516" lon="9.573440998792648">
        <ele>510.60000000000002</ele>
        <time>2019-05-09T09:37:07Z</time>
      </trkpt>
      <trkpt lat="51.76586301997304" lon="9.572057984769344">
        <ele>512.03999999999996</ele>
        <time>2019-05-09T09:37:14Z</time>
      </trkpt>
      <trkpt lat="51.76496297121048" lon="9.570876974612474">
        <ele>513</ele>
        <time>2019-05-09T09:37:19Z</time>
      </trkpt>
      <trkpt lat="51.764837997034192" lon="9.570562988519669">
        <ele>513</ele>
        <time>2019-05-09T09:37:20Z</time>
      </trkpt>
      <trkpt lat="51.764711011201143" lon="9.570241961628199">
        <ele>513</ele>
        <time>2019-05-09T09:37:21Z</time>
      </trkpt>
      <trkpt lat="51.764207007363439" lon="9.56895399838686">
        <ele>512.51999999999998</ele>
        <time>2019-05-09T09:37:26Z</time>
      </trkpt>
      <trkpt lat="51.764024030417204" lon="9.568472038954496">
        <ele>511.56</ele>
        <time>2019-05-09T09:37:29Z</time>
      </trkpt>
      <trkpt lat="51.763528995215893" lon="9.56716999411583">
        <ele>509.63999999999999</ele>
        <time>2019-05-09T09:37:35Z</time>
      </trkpt>
      <trkpt lat="51.762933041900396" lon="9.565413985401392">
        <ele>506.26999999999998</ele>
        <time>2019-05-09T09:37:41Z</time>
      </trkpt>
      <trkpt lat="51.762898005545139" lon="9.565115002915263">
        <ele>505.79000000000002</ele>
        <time>2019-05-09T09:37:42Z</time>
      </trkpt>
      <trkpt lat="51.762784011662006" lon="9.563606008887291">
        <ele>500.98000000000002</ele>
        <time>2019-05-09T09:37:48Z</time>
      </trkpt>
      <trkpt lat="51.762811001390219" lon="9.563435018062592">
        <ele>500.5</ele>
        <time>2019-05-09T09:37:49Z</time>
      </trkpt>
      <trkpt lat="51.762872021645308" lon="9.563324963673949">
        <ele>499.54000000000002</ele>
        <time>2019-05-09T09:37:50Z</time>
      </trkpt>
      <trkpt lat="51.762961959466338" lon="9.563199989497662">
        <ele>499.06</ele>
        <time>2019-05-09T09:37:51Z</time>
      </trkpt>
      <trkpt lat="51.763064973056316" lon="9.563055988401175">
        <ele>498.57999999999998</ele>
        <time>2019-05-09T09:37:52Z</time>
      </trkpt>
      <trkpt lat="51.763181984424591" lon="9.562905030325055">
        <ele>498.10000000000002</ele>
        <time>2019-05-09T09:37:53Z</time>
      </trkpt>
      <trkpt lat="51.763957981020212" lon="9.562129033729434">
        <ele>494.25999999999999</ele>
        <time>2019-05-09T09:37:58Z</time>
      </trkpt>
      <trkpt lat="51.764155961573124" lon="9.562049992382526">
        <ele>493.76999999999998</ele>
        <time>2019-05-09T09:37:59Z</time>
      </trkpt>
      <trkpt lat="51.764359977096319" lon="9.561968017369509">
        <ele>492.81</ele>
        <time>2019-05-09T09:38:00Z</time>
      </trkpt>
      <trkpt lat="51.764566004276276" lon="9.561943961307406">
        <ele>492.32999999999998</ele>
        <time>2019-05-09T09:38:01Z</time>
      </trkpt>
      <trkpt lat="51.764779994264245" lon="9.561925018206239">
        <ele>491.37</ele>
        <time>2019-05-09T09:38:02Z</time>
      </trkpt>
      <trkpt lat="51.766145993024111" lon="9.561742963269353">
        <ele>488.00999999999999</ele>
        <time>2019-05-09T09:38:09Z</time>
      </trkpt>
      <trkpt lat="51.766312038525939" lon="9.561612959951162">
        <ele>487.52999999999997</ele>
        <time>2019-05-09T09:38:10Z</time>
      </trkpt>
      <trkpt lat="51.766486968845129" lon="9.561471976339817">
        <ele>486.56</ele>
        <time>2019-05-09T09:38:11Z</time>
      </trkpt>
      <trkpt lat="51.766656031832099" lon="9.561264021322131">
        <ele>486.07999999999998</ele>
        <time>2019-05-09T09:38:12Z</time>
      </trkpt>
      <trkpt lat="51.766840014606714" lon="9.561038967221975">
        <ele>485.12</ele>
        <time>2019-05-09T09:38:13Z</time>
      </trkpt>
      <trkpt lat="51.768340039998293" lon="9.559219004586339">
        <ele>478.87</ele>
        <time>2019-05-09T09:38:20Z</time>
      </trkpt>
      <trkpt lat="51.76910899579525" lon="9.558177972212434">
        <ele>475.02999999999997</ele>
        <time>2019-05-09T09:38:24Z</time>
      </trkpt>
      <trkpt lat="51.76925903186202" lon="9.557877983897924">
        <ele>474.06999999999999</ele>
        <time>2019-05-09T09:38:25Z</time>
      </trkpt>
      <trkpt lat="51.769390963017941" lon="9.557554023340344">
        <ele>473.11000000000001</ele>
        <time>2019-05-09T09:38:26Z</time>
      </trkpt>
      <trkpt lat="51.76951602101326" lon="9.557224027812481">
        <ele>472.13999999999999</ele>
        <time>2019-05-09T09:38:27Z</time>
      </trkpt>
      <trkpt lat="51.769605036824942" lon="9.556883974000812">
        <ele>471.18000000000001</ele>
        <time>2019-05-09T09:38:28Z</time>
      </trkpt>
      <trkpt lat="51.769691035151482" lon="9.5565340295434">
        <ele>470.22000000000003</ele>
        <time>2019-05-09T09:38:29Z</time>
      </trkpt>
      <trkpt lat="51.769778039306402" lon="9.556178972125053">
        <ele>469.25999999999999</ele>
        <time>2019-05-09T09:38:30Z</time>
      </trkpt>
      <trkpt lat="51.769846016541123" lon="9.555821986868978">
        <ele>468.30000000000001</ele>
        <time>2019-05-09T09:38:31Z</time>
      </trkpt>
      <trkpt lat="51.770253041759133" lon="9.55333499237895">
        <ele>458.69</ele>
        <time>2019-05-09T09:38:39Z</time>
      </trkpt>
      <trkpt lat="51.77052796818316" lon="9.55144302919507">
        <ele>449.55000000000001</ele>
        <time>2019-05-09T09:38:48Z</time>
      </trkpt>
      <trkpt lat="51.770489998161793" lon="9.550860989838839">
        <ele>447.63</ele>
        <time>2019-05-09T09:38:50Z</time>
      </trkpt>
      <trkpt lat="51.770449010655284" lon="9.550672983750701">
        <ele>447.14999999999998</ele>
        <time>2019-05-09T09:38:51Z</time>
      </trkpt>
      <trkpt lat="51.770408023148775" lon="9.550489000976086">
        <ele>446.19</ele>
        <time>2019-05-09T09:38:52Z</time>
      </trkpt>
      <trkpt lat="51.770326970145106" lon="9.550126986578107">
        <ele>445.23000000000002</ele>
        <time>2019-05-09T09:38:54Z</time>
      </trkpt>
      <trkpt lat="51.769910976290703" lon="9.548445995897055">
        <ele>441.86000000000001</ele>
        <time>2019-05-09T09:39:04Z</time>
      </trkpt>
      <trkpt lat="51.769572012126446" lon="9.546862989664078">
        <ele>438.01999999999998</ele>
        <time>2019-05-09T09:39:13Z</time>
      </trkpt>
      <trkpt lat="51.769531024619937" lon="9.546669032424688">
        <ele>437.06</ele>
        <time>2019-05-09T09:39:14Z</time>
      </trkpt>
      <trkpt lat="51.769497999921441" lon="9.54654498025775">
        <ele>436.57999999999998</ele>
        <time>2019-05-09T09:39:15Z</time>
      </trkpt>
      <trkpt lat="51.769446032121778" lon="9.546406008303165">
        <ele>436.10000000000002</ele>
        <time>2019-05-09T09:39:16Z</time>
      </trkpt>
      <trkpt lat="51.769371014088392" lon="9.546309029683471">
        <ele>435.13</ele>
        <time>2019-05-09T09:39:17Z</time>
      </trkpt>
      <trkpt lat="51.769289961084723" lon="9.546211967244744">
        <ele>434.64999999999998</ele>
        <time>2019-05-09T09:39:18Z</time>
      </trkpt>
      <trkpt lat="51.769192982465029" lon="9.546144995838404">
        <ele>434.64999999999998</ele>
        <time>2019-05-09T09:39:19Z</time>
      </trkpt>
      <trkpt lat="51.769094998016953" lon="9.546081963926554">
        <ele>434.17000000000002</ele>
        <time>2019-05-09T09:39:20Z</time>
      </trkpt>
      <trkpt lat="51.76900003105402" lon="9.546022033318877">
        <ele>433.69</ele>
        <time>2019-05-09T09:39:21Z</time>
      </trkpt>
      <trkpt lat="51.768907997757196" lon="9.54596302472055">
        <ele>433.20999999999998</ele>
        <time>2019-05-09T09:39:22Z</time>
      </trkpt>
      <trkpt lat="51.768269967287779" lon="9.545551976189017">
        <ele>430.32999999999998</ele>
        <time>2019-05-09T09:39:30Z</time>
      </trkpt>
      <trkpt lat="51.767290960997343" lon="9.544867007061839">
        <ele>429.85000000000002</ele>
        <time>2019-05-09T09:39:40Z</time>
      </trkpt>
      <trkpt lat="51.767183002084494" lon="9.544792994856834">
        <ele>429.85000000000002</ele>
        <time>2019-05-09T09:39:41Z</time>
      </trkpt>
      <trkpt lat="51.767078982666135" lon="9.544720994308591">
        <ele>429.85000000000002</ele>
        <time>2019-05-09T09:39:42Z</time>
      </trkpt>
      <trkpt lat="51.766501972451806" lon="9.544256972149015">
        <ele>429.37</ele>
        <time>2019-05-09T09:39:47Z</time>
      </trkpt>
      <trkpt lat="51.765665039420128" lon="9.543486004695296">
        <ele>432.25</ele>
        <time>2019-05-09T09:39:54Z</time>
      </trkpt>
      <trkpt lat="51.765561020001769" lon="9.543376034125686">
        <ele>432.73000000000002</ele>
        <time>2019-05-09T09:39:55Z</time>
      </trkpt>
      <trkpt lat="51.765458006411791" lon="9.543265979737043">
        <ele>433.20999999999998</ele>
        <time>2019-05-09T09:39:56Z</time>
      </trkpt>
      <trkpt lat="51.765351975336671" lon="9.543153997510672">
        <ele>433.20999999999998</ele>
        <time>2019-05-09T09:39:57Z</time>
      </trkpt>
      <trkpt lat="51.76524099893868" lon="9.543040003627539">
        <ele>433.69</ele>
        <time>2019-05-09T09:39:58Z</time>
      </trkpt>
      <trkpt lat="51.764062000438571" lon="9.541865028440952">
        <ele>436.10000000000002</ele>
        <time>2019-05-09T09:40:08Z</time>
      </trkpt>
      <trkpt lat="51.762896999716759" lon="9.540926003828645">
        <ele>430.81</ele>
        <time>2019-05-09T09:40:16Z</time>
      </trkpt>
      <trkpt lat="51.761524965986609" lon="9.54003500752151">
        <ele>432.25</ele>
        <time>2019-05-09T09:40:23Z</time>
      </trkpt>
      <trkpt lat="51.759358998388052" lon="9.538859026506543">
        <ele>433.20999999999998</ele>
        <time>2019-05-09T09:40:32Z</time>
      </trkpt>
      <trkpt lat="51.757707009091973" lon="9.538052016869187">
        <ele>436.10000000000002</ele>
        <time>2019-05-09T09:40:39Z</time>
      </trkpt>
      <trkpt lat="51.757516991347075" lon="9.537928970530629">
        <ele>436.57999999999998</ele>
        <time>2019-05-09T09:40:40Z</time>
      </trkpt>
      <trkpt lat="51.757312975823879" lon="9.537781029939652">
        <ele>437.06</ele>
        <time>2019-05-09T09:40:41Z</time>
      </trkpt>
      <trkpt lat="51.756892958655953" lon="9.537420021370053">
        <ele>437.54000000000002</ele>
        <time>2019-05-09T09:40:43Z</time>
      </trkpt>
      <trkpt lat="51.756716016680002" lon="9.537142999470234">
        <ele>438.01999999999998</ele>
        <time>2019-05-09T09:40:44Z</time>
      </trkpt>
      <trkpt lat="51.756545025855303" lon="9.536874024197459">
        <ele>438.01999999999998</ele>
        <time>2019-05-09T09:40:45Z</time>
      </trkpt>
      <trkpt lat="51.756387026980519" lon="9.53657403588295">
        <ele>438.01999999999998</ele>
        <time>2019-05-09T09:40:46Z</time>
      </trkpt>
      <trkpt lat="51.756256017833948" lon="9.536242028698325">
        <ele>437.54000000000002</ele>
        <time>2019-05-09T09:40:47Z</time>
      </trkpt>
      <trkpt lat="51.756119979545474" lon="9.535899963229895">
        <ele>437.06</ele>
        <time>2019-05-09T09:40:48Z</time>
      </trkpt>
      <trkpt lat="51.755982013419271" lon="9.535545995458961">
        <ele>436.10000000000002</ele>
        <time>2019-05-09T09:40:49Z</time>
      </trkpt>
      <trkpt lat="51.7546939663589" lon="9.531613038852811">
        <ele>415.91000000000003</ele>
        <time>2019-05-09T09:40:59Z</time>
      </trkpt>
      <trkpt lat="51.753698028624058" lon="9.528570994734764">
        <ele>397.16000000000003</ele>
        <time>2019-05-09T09:41:07Z</time>
      </trkpt>
      <trkpt lat="51.753168040886521" lon="9.526368984952569">
        <ele>383.69999999999999</ele>
        <time>2019-05-09T09:41:13Z</time>
      </trkpt>
      <trkpt lat="51.753003001213074" lon="9.524856973439455">
        <ele>373.13</ele>
        <time>2019-05-09T09:41:19Z</time>
      </trkpt>
      <trkpt lat="51.752839973196387" lon="9.523741006851196">
        <ele>365.44</ele>
        <time>2019-05-09T09:41:25Z</time>
      </trkpt>
      <trkpt lat="51.752796974033117" lon="9.523544032126665">
        <ele>364.48000000000002</ele>
        <time>2019-05-09T09:41:26Z</time>
      </trkpt>
      <trkpt lat="51.752531016245484" lon="9.521856000646949">
        <ele>357.26999999999998</ele>
        <time>2019-05-09T09:41:35Z</time>
      </trkpt>
      <trkpt lat="51.75252104178071" lon="9.521724991500378">
        <ele>356.79000000000002</ele>
        <time>2019-05-09T09:41:36Z</time>
      </trkpt>
      <trkpt lat="51.752443006262183" lon="9.521408993750811">
        <ele>354.38</ele>
        <time>2019-05-09T09:41:41Z</time>
      </trkpt>
      <trkpt lat="51.752400007098913" lon="9.521423997357488">
        <ele>354.38</ele>
        <time>2019-05-09T09:41:42Z</time>
      </trkpt>
      <trkpt lat="51.752342004328966" lon="9.521445035934448">
        <ele>353.89999999999998</ele>
        <time>2019-05-09T09:41:43Z</time>
      </trkpt>
      <trkpt lat="51.752262962982059" lon="9.521472025662661">
        <ele>353.42000000000002</ele>
        <time>2019-05-09T09:41:44Z</time>
      </trkpt>
      <trkpt lat="51.752171013504267" lon="9.521503960713744">
        <ele>352.94</ele>
        <time>2019-05-09T09:41:45Z</time>
      </trkpt>
      <trkpt lat="51.752073029056191" lon="9.521538997069001">
        <ele>352.45999999999998</ele>
        <time>2019-05-09T09:41:46Z</time>
      </trkpt>
      <trkpt lat="51.751357968896627" lon="9.521546959877014">
        <ele>350.54000000000002</ele>
        <time>2019-05-09T09:41:52Z</time>
      </trkpt>
      <trkpt lat="51.750405030325055" lon="9.52116901986301">
        <ele>350.06</ele>
        <time>2019-05-09T09:42:00Z</time>
      </trkpt>
      <trkpt lat="51.749005001038313" lon="9.520141985267401">
        <ele>346.69</ele>
        <time>2019-05-09T09:42:11Z</time>
      </trkpt>
      <trkpt lat="51.747512016445398" lon="9.519103970378637">
        <ele>342.37</ele>
        <time>2019-05-09T09:42:19Z</time>
      </trkpt>
      <trkpt lat="51.746014002710581" lon="9.518409026786685">
        <ele>338.04000000000002</ele>
        <time>2019-05-09T09:42:26Z</time>
      </trkpt>
      <trkpt lat="51.74343598075211" lon="9.5171769708395">
        <ele>335.16000000000003</ele>
        <time>2019-05-09T09:42:37Z</time>
      </trkpt>
      <trkpt lat="51.741721965372562" lon="9.516196958720684">
        <ele>331.79000000000002</ele>
        <time>2019-05-09T09:42:45Z</time>
      </trkpt>
      <trkpt lat="51.739288028329611" lon="9.514839006587863">
        <ele>326.99000000000001</ele>
        <time>2019-05-09T09:42:56Z</time>
      </trkpt>
      <trkpt lat="51.737603014335036" lon="9.514189995825291">
        <ele>322.18000000000001</ele>
        <time>2019-05-09T09:43:04Z</time>
      </trkpt>
      <trkpt lat="51.735937027260661" lon="9.51369496062398">
        <ele>318.32999999999998</ele>
        <time>2019-05-09T09:43:12Z</time>
      </trkpt>
      <trkpt lat="51.734501039609313" lon="9.513267986476421">
        <ele>316.88999999999999</ele>
        <time>2019-05-09T09:43:19Z</time>
      </trkpt>
      <trkpt lat="51.732697002589703" lon="9.512940002605319">
        <ele>313.52999999999997</ele>
        <time>2019-05-09T09:43:28Z</time>
      </trkpt>
      <trkpt lat="51.731835007667542" lon="9.512849980965257">
        <ele>312.56999999999999</ele>
        <time>2019-05-09T09:43:33Z</time>
      </trkpt>
      <trkpt lat="51.730835968628526" lon="9.512566002085805">
        <ele>312.56999999999999</ele>
        <time>2019-05-09T09:43:39Z</time>
      </trkpt>
      <trkpt lat="51.729655964300036" lon="9.512140033766627">
        <ele>312.08999999999997</ele>
        <time>2019-05-09T09:43:46Z</time>
      </trkpt>
      <trkpt lat="51.728311004117131" lon="9.511821018531919">
        <ele>308.72000000000003</ele>
        <time>2019-05-09T09:43:55Z</time>
      </trkpt>
      <trkpt lat="51.728164991363883" lon="9.511821018531919">
        <ele>308.24000000000001</ele>
        <time>2019-05-09T09:43:56Z</time>
      </trkpt>
      <trkpt lat="51.727243987843394" lon="9.512209016829729">
        <ele>306.31999999999999</ele>
        <time>2019-05-09T09:44:02Z</time>
      </trkpt>
      <trkpt lat="51.727101998403668" lon="9.512326028198004">
        <ele>306.31999999999999</ele>
        <time>2019-05-09T09:44:03Z</time>
      </trkpt>
      <trkpt lat="51.726084016263485" lon="9.513765033334494">
        <ele>303.43000000000001</ele>
        <time>2019-05-09T09:44:12Z</time>
      </trkpt>
      <trkpt lat="51.725233001634479" lon="9.515029024332762">
        <ele>301.99000000000001</ele>
        <time>2019-05-09T09:44:20Z</time>
      </trkpt>
      <trkpt lat="51.72394797205925" lon="9.516340959817171">
        <ele>299.58999999999997</ele>
        <time>2019-05-09T09:44:29Z</time>
      </trkpt>
      <trkpt lat="51.72227100469172" lon="9.518452025949955">
        <ele>296.69999999999999</ele>
        <time>2019-05-09T09:44:39Z</time>
      </trkpt>
      <trkpt lat="51.721135005354881" lon="9.520170986652374">
        <ele>293.33999999999997</ele>
        <time>2019-05-09T09:44:45Z</time>
      </trkpt>
      <trkpt lat="51.719376984983683" lon="9.522662004455924">
        <ele>288.52999999999997</ele>
        <time>2019-05-09T09:44:53Z</time>
      </trkpt>
      <trkpt lat="51.717477981001139" lon="9.525492992252111">
        <ele>284.20999999999998</ele>
        <time>2019-05-09T09:45:02Z</time>
      </trkpt>
      <trkpt lat="51.716453963890672" lon="9.528249967843294">
        <ele>280.83999999999997</ele>
        <time>2019-05-09T09:45:09Z</time>
      </trkpt>
      <trkpt lat="51.716308034956455" lon="9.528646012768149">
        <ele>280.36000000000001</ele>
        <time>2019-05-09T09:45:10Z</time>
      </trkpt>
      <trkpt lat="51.716165039688349" lon="9.529031999409199">
        <ele>279.88</ele>
        <time>2019-05-09T09:45:11Z</time>
      </trkpt>
      <trkpt lat="51.715973010286689" lon="9.529370041564107">
        <ele>279.39999999999998</ele>
        <time>2019-05-09T09:45:12Z</time>
      </trkpt>
      <trkpt lat="51.71576295979321" lon="9.529643040150404">
        <ele>278.92000000000002</ele>
        <time>2019-05-09T09:45:13Z</time>
      </trkpt>
      <trkpt lat="51.715550981462002" lon="9.529917966574431">
        <ele>278.44</ele>
        <time>2019-05-09T09:45:14Z</time>
      </trkpt>
      <trkpt lat="51.715342020615935" lon="9.530189959332347">
        <ele>277.95999999999998</ele>
        <time>2019-05-09T09:45:15Z</time>
      </trkpt>
      <trkpt lat="51.715119984000921" lon="9.530414007604122">
        <ele>277.48000000000002</ele>
        <time>2019-05-09T09:45:16Z</time>
      </trkpt>
      <trkpt lat="51.714879004284739" lon="9.53060301952064">
        <ele>277.48000000000002</ele>
        <time>2019-05-09T09:45:17Z</time>
      </trkpt>
      <trkpt lat="51.714631989598274" lon="9.530795970931649">
        <ele>277.48000000000002</ele>
        <time>2019-05-09T09:45:18Z</time>
      </trkpt>
      <trkpt lat="51.71343999914825" lon="9.531789980828762">
        <ele>276.51999999999998</ele>
        <time>2019-05-09T09:45:23Z</time>
      </trkpt>
      <trkpt lat="51.713244030252099" lon="9.532033978030086">
        <ele>276.51999999999998</ele>
        <time>2019-05-09T09:45:24Z</time>
      </trkpt>
      <trkpt lat="51.713064992800355" lon="9.532305970788002">
        <ele>276.51999999999998</ele>
        <time>2019-05-09T09:45:25Z</time>
      </trkpt>
      <trkpt lat="51.711384002119303" lon="9.534754995256662">
        <ele>274.58999999999997</ele>
        <time>2019-05-09T09:45:34Z</time>
      </trkpt>
      <trkpt lat="51.710298964753747" lon="9.537146016955376">
        <ele>273.14999999999998</ele>
        <time>2019-05-09T09:45:41Z</time>
      </trkpt>
      <trkpt lat="51.709494972601533" lon="9.540437003597617">
        <ele>272.19</ele>
        <time>2019-05-09T09:45:49Z</time>
      </trkpt>
      <trkpt lat="51.708553014323115" lon="9.544082041829824">
        <ele>269.79000000000002</ele>
        <time>2019-05-09T09:45:58Z</time>
      </trkpt>
      <trkpt lat="51.707507036626339" lon="9.545874008908868">
        <ele>266.89999999999998</ele>
        <time>2019-05-09T09:46:04Z</time>
      </trkpt>
      <trkpt lat="51.707304026931524" lon="9.546077018603683">
        <ele>266.42000000000002</ele>
        <time>2019-05-09T09:46:05Z</time>
      </trkpt>
      <trkpt lat="51.707090036943555" lon="9.546253038570285">
        <ele>265.94</ele>
        <time>2019-05-09T09:46:06Z</time>
      </trkpt>
      <trkpt lat="51.705378033220768" lon="9.547266997396946">
        <ele>261.13999999999999</ele>
        <time>2019-05-09T09:46:13Z</time>
      </trkpt>
      <trkpt lat="51.703469976782799" lon="9.547667987644672">
        <ele>257.76999999999998</ele>
        <time>2019-05-09T09:46:20Z</time>
      </trkpt>
      <trkpt lat="51.70132203027606" lon="9.548592008650303">
        <ele>253.44</ele>
        <time>2019-05-09T09:46:28Z</time>
      </trkpt>
      <trkpt lat="51.699468959122896" lon="9.549577971920371">
        <ele>248.16</ele>
        <time>2019-05-09T09:46:35Z</time>
      </trkpt>
      <trkpt lat="51.698145037516952" lon="9.550772979855537">
        <ele>239.99000000000001</ele>
        <time>2019-05-09T09:46:41Z</time>
      </trkpt>
      <trkpt lat="51.695934981107712" lon="9.552944982424378">
        <ele>228.44999999999999</ele>
        <time>2019-05-09T09:46:52Z</time>
      </trkpt>
      <trkpt lat="51.694088028743863" lon="9.554747007787228">
        <ele>223.63999999999999</ele>
        <time>2019-05-09T09:47:02Z</time>
      </trkpt>
      <trkpt lat="51.693091001361609" lon="9.555595004931092">
        <ele>220.28</ele>
        <time>2019-05-09T09:47:08Z</time>
      </trkpt>
      <trkpt lat="51.692960998043418" lon="9.555687038227916">
        <ele>220.28</ele>
        <time>2019-05-09T09:47:09Z</time>
      </trkpt>
      <trkpt lat="51.692287009209394" lon="9.556065984070301">
        <ele>218.84</ele>
        <time>2019-05-09T09:47:14Z</time>
      </trkpt>
      <trkpt lat="51.692001018673182" lon="9.556157011538744">
        <ele>218.84</ele>
        <time>2019-05-09T09:47:16Z</time>
      </trkpt>
      <trkpt lat="51.691858023405075" lon="9.556164974346757">
        <ele>218.84</ele>
        <time>2019-05-09T09:47:17Z</time>
      </trkpt>
      <trkpt lat="51.691716033965349" lon="9.556172015145421">
        <ele>218.84</ele>
        <time>2019-05-09T09:47:18Z</time>
      </trkpt>
      <trkpt lat="51.69094598852098" lon="9.55621300265193">
        <ele>221.24000000000001</ele>
        <time>2019-05-09T09:47:25Z</time>
      </trkpt>
      <trkpt lat="51.690895026549697" lon="9.556216020137072">
        <ele>221.24000000000001</ele>
        <time>2019-05-09T09:47:26Z</time>
      </trkpt>
      <trkpt lat="51.690852027386427" lon="9.55619003623724">
        <ele>221.72</ele>
        <time>2019-05-09T09:47:27Z</time>
      </trkpt>
      <trkpt lat="51.690828977152705" lon="9.556148964911699">
        <ele>222.19999999999999</ele>
        <time>2019-05-09T09:47:28Z</time>
      </trkpt>
      <trkpt lat="51.690782038494945" lon="9.556066989898682">
        <ele>222.68000000000001</ele>
        <time>2019-05-09T09:47:29Z</time>
      </trkpt>
      <trkpt lat="51.690780026838183" lon="9.556044023483992">
        <ele>223.16</ele>
        <time>2019-05-09T09:47:30Z</time>
      </trkpt>
      <trkpt lat="51.690863007679582" lon="9.555989038199186">
        <ele>223.16</ele>
        <time>2019-05-09T09:47:31Z</time>
      </trkpt>
      <trkpt lat="51.690921010449529" lon="9.55593204125762">
        <ele>223.63999999999999</ele>
        <time>2019-05-09T09:47:32Z</time>
      </trkpt>
      <trkpt lat="51.690990999341011" lon="9.555863980203867">
        <ele>223.63999999999999</ele>
        <time>2019-05-09T09:47:33Z</time>
      </trkpt>
      <trkpt lat="51.691389977931976" lon="9.555477993562818">
        <ele>226.05000000000001</ele>
        <time>2019-05-09T09:47:37Z</time>
      </trkpt>
      <trkpt lat="51.691520987078547" lon="9.555368022993207">
        <ele>226.53</ele>
        <time>2019-05-09T09:47:38Z</time>
      </trkpt>
      <trkpt lat="51.691669011488557" lon="9.555308008566499">
        <ele>227.00999999999999</ele>
        <time>2019-05-09T09:47:39Z</time>
      </trkpt>
      <trkpt lat="51.691823992878199" lon="9.555244976654649">
        <ele>227.49000000000001</ele>
        <time>2019-05-09T09:47:40Z</time>
      </trkpt>
      <trkpt lat="51.691982997581363" lon="9.555180016905069">
        <ele>227.97</ele>
        <time>2019-05-09T09:47:41Z</time>
      </trkpt>
      <trkpt lat="51.69255699031055" lon="9.554870976135135">
        <ele>231.33000000000001</ele>
        <time>2019-05-09T09:47:45Z</time>
      </trkpt>
      <trkpt lat="51.692896038293839" lon="9.554479038342834">
        <ele>233.74000000000001</ele>
        <time>2019-05-09T09:47:48Z</time>
      </trkpt>
      <trkpt lat="51.692983964458108" lon="9.55430100671947">
        <ele>234.69999999999999</ele>
        <time>2019-05-09T09:47:49Z</time>
      </trkpt>
      <trkpt lat="51.69307298026979" lon="9.554124986752868">
        <ele>235.66</ele>
        <time>2019-05-09T09:47:50Z</time>
      </trkpt>
      <trkpt lat="51.693120002746582" lon="9.553910996764898">
        <ele>236.13999999999999</ele>
        <time>2019-05-09T09:47:51Z</time>
      </trkpt>
      <trkpt lat="51.693169036880136" lon="9.55367797985673">
        <ele>237.09999999999999</ele>
        <time>2019-05-09T09:47:52Z</time>
      </trkpt>
      <trkpt lat="51.693219998851418" lon="9.553434988483787">
        <ele>237.58000000000001</ele>
        <time>2019-05-09T09:47:53Z</time>
      </trkpt>
      <trkpt lat="51.693270960822701" lon="9.553177999332547">
        <ele>238.53999999999999</ele>
        <time>2019-05-09T09:47:54Z</time>
      </trkpt>
      <trkpt lat="51.693270960822701" lon="9.552894020453095">
        <ele>239.50999999999999</ele>
        <time>2019-05-09T09:47:55Z</time>
      </trkpt>
      <trkpt lat="51.693270960822701" lon="9.552593026310206">
        <ele>240.47</ele>
        <time>2019-05-09T09:47:56Z</time>
      </trkpt>
      <trkpt lat="51.693270960822701" lon="9.55228197388351">
        <ele>241.43000000000001</ele>
        <time>2019-05-09T09:47:57Z</time>
      </trkpt>
      <trkpt lat="51.693270960822701" lon="9.551969999447465">
        <ele>242.38999999999999</ele>
        <time>2019-05-09T09:47:58Z</time>
      </trkpt>
      <trkpt lat="51.693293005228043" lon="9.551672022789717">
        <ele>243.34999999999999</ele>
        <time>2019-05-09T09:47:59Z</time>
      </trkpt>
      <trkpt lat="51.693336004391313" lon="9.551387038081884">
        <ele>244.31</ele>
        <time>2019-05-09T09:48:00Z</time>
      </trkpt>
      <trkpt lat="51.69343801215291" lon="9.551152009516954">
        <ele>244.78999999999999</ele>
        <time>2019-05-09T09:48:01Z</time>
      </trkpt>
      <trkpt lat="51.693549994379282" lon="9.550896026194096">
        <ele>245.27000000000001</ele>
        <time>2019-05-09T09:48:02Z</time>
      </trkpt>
      <trkpt lat="51.69371897354722" lon="9.550759987905622">
        <ele>246.22999999999999</ele>
        <time>2019-05-09T09:48:03Z</time>
      </trkpt>
      <trkpt lat="51.693903040140867" lon="9.550611963495612">
        <ele>246.72</ele>
        <time>2019-05-09T09:48:04Z</time>
      </trkpt>
      <trkpt lat="51.694090962409973" lon="9.550459999591112">
        <ele>247.68000000000001</ele>
        <time>2019-05-09T09:48:05Z</time>
      </trkpt>
      <trkpt lat="51.694449037313461" lon="9.550163028761745">
        <ele>249.12</ele>
        <time>2019-05-09T09:48:07Z</time>
      </trkpt>
      <trkpt lat="51.694607036188245" lon="9.54996395856142">
        <ele>250.08000000000001</ele>
        <time>2019-05-09T09:48:08Z</time>
      </trkpt>
      <trkpt lat="51.694752965122461" lon="9.549719039350748">
        <ele>251.03999999999999</ele>
        <time>2019-05-09T09:48:09Z</time>
      </trkpt>
      <trkpt lat="51.694905012845993" lon="9.54946699552238">
        <ele>252</ele>
        <time>2019-05-09T09:48:10Z</time>
      </trkpt>
      <trkpt lat="51.695011965930462" lon="9.549152003601193">
        <ele>252.96000000000001</ele>
        <time>2019-05-09T09:48:11Z</time>
      </trkpt>
      <trkpt lat="51.695112967863679" lon="9.548827037215233">
        <ele>253.93000000000001</ele>
        <time>2019-05-09T09:48:12Z</time>
      </trkpt>
      <trkpt lat="51.695223022252321" lon="9.548470973968506">
        <ele>254.88999999999999</ele>
        <time>2019-05-09T09:48:13Z</time>
      </trkpt>
      <trkpt lat="51.695270966738462" lon="9.548137960955501">
        <ele>256.32999999999998</ele>
        <time>2019-05-09T09:48:14Z</time>
      </trkpt>
      <trkpt lat="51.695326035842299" lon="9.547762032598257">
        <ele>257.29000000000002</ele>
        <time>2019-05-09T09:48:15Z</time>
      </trkpt>
      <trkpt lat="51.695879995822906" lon="9.543695971369743">
        <ele>269.79000000000002</ele>
        <time>2019-05-09T09:48:25Z</time>
      </trkpt>
      <trkpt lat="51.69593196362257" lon="9.542584028095007">
        <ele>272.67000000000002</ele>
        <time>2019-05-09T09:48:28Z</time>
      </trkpt>
      <trkpt lat="51.695901034399867" lon="9.542241040617228">
        <ele>273.14999999999998</ele>
        <time>2019-05-09T09:48:29Z</time>
      </trkpt>
      <trkpt lat="51.695642033591866" lon="9.540532976388931">
        <ele>273.14999999999998</ele>
        <time>2019-05-09T09:48:35Z</time>
      </trkpt>
      <trkpt lat="51.695455033332109" lon="9.539353977888823">
        <ele>272.19</ele>
        <time>2019-05-09T09:48:40Z</time>
      </trkpt>
      <trkpt lat="51.695417985320091" lon="9.539117021486163">
        <ele>271.70999999999998</ele>
        <time>2019-05-09T09:48:41Z</time>
      </trkpt>
      <trkpt lat="51.695266021415591" lon="9.537209970876575">
        <ele>272.67000000000002</ele>
        <time>2019-05-09T09:48:49Z</time>
      </trkpt>
      <trkpt lat="51.695171976462007" lon="9.535087002441287">
        <ele>272.67000000000002</ele>
        <time>2019-05-09T09:48:58Z</time>
      </trkpt>
      <trkpt lat="51.695009032264352" lon="9.534373031929135">
        <ele>271.23000000000002</ele>
        <time>2019-05-09T09:49:01Z</time>
      </trkpt>
      <trkpt lat="51.694937031716108" lon="9.534144038334489">
        <ele>271.23000000000002</ele>
        <time>2019-05-09T09:49:02Z</time>
      </trkpt>
      <trkpt lat="51.694365972653031" lon="9.532769992947578">
        <ele>268.35000000000002</ele>
        <time>2019-05-09T09:49:08Z</time>
      </trkpt>
      <trkpt lat="51.693788962438703" lon="9.532053004950285">
        <ele>266.89999999999998</ele>
        <time>2019-05-09T09:49:13Z</time>
      </trkpt>
      <trkpt lat="51.693657031282783" lon="9.531927024945617">
        <ele>266.42000000000002</ele>
        <time>2019-05-09T09:49:14Z</time>
      </trkpt>
      <trkpt lat="51.693509006872773" lon="9.531873967498541">
        <ele>265.94</ele>
        <time>2019-05-09T09:49:15Z</time>
      </trkpt>
      <trkpt lat="51.693361988291144" lon="9.531819988042116">
        <ele>265.45999999999998</ele>
        <time>2019-05-09T09:49:16Z</time>
      </trkpt>
      <trkpt lat="51.693213041871786" lon="9.531766008585692">
        <ele>264.98000000000002</ele>
        <time>2019-05-09T09:49:17Z</time>
      </trkpt>
      <trkpt lat="51.693066023290157" lon="9.531765002757311">
        <ele>264.5</ele>
        <time>2019-05-09T09:49:18Z</time>
      </trkpt>
      <trkpt lat="51.692914981395006" lon="9.531777994707227">
        <ele>264.5</ele>
        <time>2019-05-09T09:49:19Z</time>
      </trkpt>
      <trkpt lat="51.692737033590674" lon="9.531792998313904">
        <ele>264.5</ele>
        <time>2019-05-09T09:49:20Z</time>
      </trkpt>
      <trkpt lat="51.692508039996028" lon="9.531884025782347">
        <ele>264.5</ele>
        <time>2019-05-09T09:49:21Z</time>
      </trkpt>
      <trkpt lat="51.691787028685212" lon="9.532241011038423">
        <ele>263.54000000000002</ele>
        <time>2019-05-09T09:49:24Z</time>
      </trkpt>
      <trkpt lat="51.691559962928295" lon="9.532286021858454">
        <ele>263.06</ele>
        <time>2019-05-09T09:49:25Z</time>
      </trkpt>
      <trkpt lat="51.69133398681879" lon="9.532247968018055">
        <ele>263.06</ele>
        <time>2019-05-09T09:49:26Z</time>
      </trkpt>
      <trkpt lat="51.691125025972724" lon="9.532201029360294">
        <ele>262.57999999999998</ele>
        <time>2019-05-09T09:49:27Z</time>
      </trkpt>
      <trkpt lat="51.690912963822484" lon="9.532135985791683">
        <ele>262.57999999999998</ele>
        <time>2019-05-09T09:49:28Z</time>
      </trkpt>
      <trkpt lat="51.690724035724998" lon="9.532004976645112">
        <ele>262.10000000000002</ele>
        <time>2019-05-09T09:49:29Z</time>
      </trkpt>
      <trkpt lat="51.690526977181435" lon="9.531868016347289">
        <ele>262.10000000000002</ele>
        <time>2019-05-09T09:49:30Z</time>
      </trkpt>
      <trkpt lat="51.690317010506988" lon="9.531659977510572">
        <ele>261.62</ele>
        <time>2019-05-09T09:49:31Z</time>
      </trkpt>
      <trkpt lat="51.690147025510669" lon="9.531405000016093">
        <ele>261.62</ele>
        <time>2019-05-09T09:49:32Z</time>
      </trkpt>
      <trkpt lat="51.689965976402164" lon="9.531133007258177">
        <ele>261.13999999999999</ele>
        <time>2019-05-09T09:49:33Z</time>
      </trkpt>
      <trkpt lat="51.689832033589482" lon="9.530878029763699">
        <ele>260.64999999999998</ele>
        <time>2019-05-09T09:49:34Z</time>
      </trkpt>
      <trkpt lat="51.68969901278615" lon="9.530574018135667">
        <ele>260.17000000000002</ele>
        <time>2019-05-09T09:49:35Z</time>
      </trkpt>
      <trkpt lat="51.689602034166455" lon="9.530295990407467">
        <ele>259.69</ele>
        <time>2019-05-09T09:49:36Z</time>
      </trkpt>
      <trkpt lat="51.689531961455941" lon="9.529890976846218">
        <ele>259.69</ele>
        <time>2019-05-09T09:49:37Z</time>
      </trkpt>
      <trkpt lat="51.689471025019884" lon="9.529536003246903">
        <ele>259.20999999999998</ele>
        <time>2019-05-09T09:49:38Z</time>
      </trkpt>
      <trkpt lat="51.689408998936415" lon="9.529173988848925">
        <ele>258.73000000000002</ele>
        <time>2019-05-09T09:49:39Z</time>
      </trkpt>
      <trkpt lat="51.68935501947999" lon="9.528817003592849">
        <ele>258.25</ele>
        <time>2019-05-09T09:49:40Z</time>
      </trkpt>
      <trkpt lat="51.689301040023565" lon="9.528079982846975">
        <ele>256.81</ele>
        <time>2019-05-09T09:49:42Z</time>
      </trkpt>
      <trkpt lat="51.689636986702681" lon="9.525006003677845">
        <ele>250.56</ele>
        <time>2019-05-09T09:49:50Z</time>
      </trkpt>
      <trkpt lat="51.690107965841889" lon="9.522547004744411">
        <ele>241.91</ele>
        <time>2019-05-09T09:49:57Z</time>
      </trkpt>
      <trkpt lat="51.690562013536692" lon="9.519794974476099">
        <ele>234.22</ele>
        <time>2019-05-09T09:50:06Z</time>
      </trkpt>
      <trkpt lat="51.690935008227825" lon="9.517102036625147">
        <ele>223.63999999999999</ele>
        <time>2019-05-09T09:50:16Z</time>
      </trkpt>
      <trkpt lat="51.690971972420812" lon="9.516566013917327">
        <ele>222.68000000000001</ele>
        <time>2019-05-09T09:50:18Z</time>
      </trkpt>
      <trkpt lat="51.690961997956038" lon="9.516289997845888">
        <ele>222.19999999999999</ele>
        <time>2019-05-09T09:50:19Z</time>
      </trkpt>
      <trkpt lat="51.690939031541348" lon="9.516009036451578">
        <ele>222.19999999999999</ele>
        <time>2019-05-09T09:50:20Z</time>
      </trkpt>
      <trkpt lat="51.690875999629498" lon="9.515746012330055">
        <ele>222.19999999999999</ele>
        <time>2019-05-09T09:50:21Z</time>
      </trkpt>
      <trkpt lat="51.690779021009803" lon="9.515508972108364">
        <ele>221.72</ele>
        <time>2019-05-09T09:50:22Z</time>
      </trkpt>
      <trkpt lat="51.690658992156386" lon="9.515313003212214">
        <ele>221.72</ele>
        <time>2019-05-09T09:50:23Z</time>
      </trkpt>
      <trkpt lat="51.690521026030183" lon="9.515156010165811">
        <ele>221.72</ele>
        <time>2019-05-09T09:50:24Z</time>
      </trkpt>
      <trkpt lat="51.690363027155399" lon="9.515056014060974">
        <ele>221.72</ele>
        <time>2019-05-09T09:50:25Z</time>
      </trkpt>
      <trkpt lat="51.690202010795474" lon="9.514997005462647">
        <ele>221.72</ele>
        <time>2019-05-09T09:50:26Z</time>
      </trkpt>
      <trkpt lat="51.690023979172111" lon="9.515042016282678">
        <ele>221.72</ele>
        <time>2019-05-09T09:50:27Z</time>
      </trkpt>
      <trkpt lat="51.689848965033889" lon="9.515089960768819">
        <ele>221.72</ele>
        <time>2019-05-09T09:50:28Z</time>
      </trkpt>
      <trkpt lat="51.689684009179473" lon="9.515216024592519">
        <ele>221.72</ele>
        <time>2019-05-09T09:50:29Z</time>
      </trkpt>
      <trkpt lat="51.689508995041251" lon="9.515348039567471">
        <ele>222.19999999999999</ele>
        <time>2019-05-09T09:50:30Z</time>
      </trkpt>
      <trkpt lat="51.687936969101429" lon="9.51644497923553">
        <ele>227.00999999999999</ele>
        <time>2019-05-09T09:50:38Z</time>
      </trkpt>
      <trkpt lat="51.685892036184669" lon="9.517013020813465">
        <ele>233.74000000000001</ele>
        <time>2019-05-09T09:50:47Z</time>
      </trkpt>
      <trkpt lat="51.685692965984344" lon="9.51700204052031">
        <ele>234.69999999999999</ele>
        <time>2019-05-09T09:50:48Z</time>
      </trkpt>
      <trkpt lat="51.685546031221747" lon="9.516992988064885">
        <ele>235.18000000000001</ele>
        <time>2019-05-09T09:50:49Z</time>
      </trkpt>
      <trkpt lat="51.68529599905014" lon="9.516884023323655">
        <ele>236.13999999999999</ele>
        <time>2019-05-09T09:50:50Z</time>
      </trkpt>
      <trkpt lat="51.685104975476861" lon="9.516800958663225">
        <ele>236.62</ele>
        <time>2019-05-09T09:50:51Z</time>
      </trkpt>
      <trkpt lat="51.684945970773697" lon="9.516653018072248">
        <ele>237.09999999999999</ele>
        <time>2019-05-09T09:50:52Z</time>
      </trkpt>
      <trkpt lat="51.68480004183948" lon="9.516484038904309">
        <ele>237.58000000000001</ele>
        <time>2019-05-09T09:50:53Z</time>
      </trkpt>
      <trkpt lat="51.684701973572373" lon="9.516257978975773">
        <ele>238.53999999999999</ele>
        <time>2019-05-09T09:50:54Z</time>
      </trkpt>
      <trkpt lat="51.684602983295918" lon="9.516024962067604">
        <ele>239.02000000000001</ele>
        <time>2019-05-09T09:50:55Z</time>
      </trkpt>
      <trkpt lat="51.684528971090913" lon="9.515759004279971">
        <ele>239.50999999999999</ele>
        <time>2019-05-09T09:50:56Z</time>
      </trkpt>
      <trkpt lat="51.684472979977727" lon="9.515459015965462">
        <ele>239.99000000000001</ele>
        <time>2019-05-09T09:50:57Z</time>
      </trkpt>
      <trkpt lat="51.684413971379399" lon="9.515145029872656">
        <ele>239.99000000000001</ele>
        <time>2019-05-09T09:50:58Z</time>
      </trkpt>
      <trkpt lat="51.684026978909969" lon="9.512647977098823">
        <ele>238.53999999999999</ele>
        <time>2019-05-09T09:51:05Z</time>
      </trkpt>
      <trkpt lat="51.684009963646531" lon="9.512266013771296">
        <ele>238.06</ele>
        <time>2019-05-09T09:51:06Z</time>
      </trkpt>
      <trkpt lat="51.684247003868222" lon="9.510227032005787">
        <ele>233.74000000000001</ele>
        <time>2019-05-09T09:51:11Z</time>
      </trkpt>
      <trkpt lat="51.684896014630795" lon="9.507403001189232">
        <ele>227.97</ele>
        <time>2019-05-09T09:51:18Z</time>
      </trkpt>
      <trkpt lat="51.686034025624394" lon="9.505079034715891">
        <ele>227.49000000000001</ele>
        <time>2019-05-09T09:51:25Z</time>
      </trkpt>
      <trkpt lat="51.686790995299816" lon="9.503924008458853">
        <ele>228.93000000000001</ele>
        <time>2019-05-09T09:51:29Z</time>
      </trkpt>
      <trkpt lat="51.688107959926128" lon="9.501053038984537">
        <ele>233.25999999999999</ele>
        <time>2019-05-09T09:51:37Z</time>
      </trkpt>
      <trkpt lat="51.688991999253631" lon="9.499539015814662">
        <ele>237.09999999999999</ele>
        <time>2019-05-09T09:51:42Z</time>
      </trkpt>
      <trkpt lat="51.689146980643272" lon="9.499240033328533">
        <ele>237.58000000000001</ele>
        <time>2019-05-09T09:51:43Z</time>
      </trkpt>
      <trkpt lat="51.689283018931746" lon="9.49893401004374">
        <ele>238.06</ele>
        <time>2019-05-09T09:51:44Z</time>
      </trkpt>
      <trkpt lat="51.689387960359454" lon="9.498597979545593">
        <ele>238.53999999999999</ele>
        <time>2019-05-09T09:51:45Z</time>
      </trkpt>
      <trkpt lat="51.68944101780653" lon="9.498253986239433">
        <ele>239.50999999999999</ele>
        <time>2019-05-09T09:51:46Z</time>
      </trkpt>
      <trkpt lat="51.68946398422122" lon="9.497913010418415">
        <ele>239.99000000000001</ele>
        <time>2019-05-09T09:51:47Z</time>
      </trkpt>
      <trkpt lat="51.689488040283322" lon="9.4975580368191">
        <ele>240.94999999999999</ele>
        <time>2019-05-09T09:51:48Z</time>
      </trkpt>
      <trkpt lat="51.689475970342755" lon="9.497191999107599">
        <ele>241.43000000000001</ele>
        <time>2019-05-09T09:51:49Z</time>
      </trkpt>
      <trkpt lat="51.689451998099685" lon="9.496812969446182">
        <ele>242.38999999999999</ele>
        <time>2019-05-09T09:51:50Z</time>
      </trkpt>
      <trkpt lat="51.689365999773145" lon="9.495286960154772">
        <ele>245.27000000000001</ele>
        <time>2019-05-09T09:51:54Z</time>
      </trkpt>
      <trkpt lat="51.689383015036583" lon="9.494890999048948">
        <ele>246.22999999999999</ele>
        <time>2019-05-09T09:51:55Z</time>
      </trkpt>
      <trkpt lat="51.689430959522724" lon="9.494481040164828">
        <ele>247.19999999999999</ele>
        <time>2019-05-09T09:51:56Z</time>
      </trkpt>
      <trkpt lat="51.689740000292659" lon="9.491832023486495">
        <ele>250.08000000000001</ele>
        <time>2019-05-09T09:52:02Z</time>
      </trkpt>
      <trkpt lat="51.690148031339049" lon="9.488630974665284">
        <ele>255.37</ele>
        <time>2019-05-09T09:52:09Z</time>
      </trkpt>
      <trkpt lat="51.690640971064568" lon="9.48471000418067">
        <ele>265.45999999999998</ele>
        <time>2019-05-09T09:52:18Z</time>
      </trkpt>
      <trkpt lat="51.690686987712979" lon="9.483948005363345">
        <ele>265.94</ele>
        <time>2019-05-09T09:52:20Z</time>
      </trkpt>
      <trkpt lat="51.690662009641528" lon="9.483208972960711">
        <ele>264.98000000000002</ele>
        <time>2019-05-09T09:52:22Z</time>
      </trkpt>
      <trkpt lat="51.690630996599793" lon="9.482860034331679">
        <ele>264.5</ele>
        <time>2019-05-09T09:52:23Z</time>
      </trkpt>
      <trkpt lat="51.690555978566408" lon="9.482510006055236">
        <ele>264.01999999999998</ele>
        <time>2019-05-09T09:52:24Z</time>
      </trkpt>
      <trkpt lat="51.690483978018165" lon="9.482171041890979">
        <ele>263.06</ele>
        <time>2019-05-09T09:52:25Z</time>
      </trkpt>
      <trkpt lat="51.690394040197134" lon="9.481864012777805">
        <ele>262.10000000000002</ele>
        <time>2019-05-09T09:52:26Z</time>
      </trkpt>
      <trkpt lat="51.690111989155412" lon="9.481031019240618">
        <ele>260.17000000000002</ele>
        <time>2019-05-09T09:52:29Z</time>
      </trkpt>
      <trkpt lat="51.690026996657252" lon="9.480781992897391">
        <ele>259.20999999999998</ele>
        <time>2019-05-09T09:52:30Z</time>
      </trkpt>
      <trkpt lat="51.689990032464266" lon="9.480510000139475">
        <ele>258.25</ele>
        <time>2019-05-09T09:52:31Z</time>
      </trkpt>
      <trkpt lat="51.689968993887305" lon="9.480260973796248">
        <ele>257.76999999999998</ele>
        <time>2019-05-09T09:52:32Z</time>
      </trkpt>
      <trkpt lat="51.689965976402164" lon="9.480009013786912">
        <ele>256.81</ele>
        <time>2019-05-09T09:52:33Z</time>
      </trkpt>
      <trkpt lat="51.689965976402164" lon="9.479761999100447">
        <ele>255.84999999999999</ele>
        <time>2019-05-09T09:52:34Z</time>
      </trkpt>
      <trkpt lat="51.689965976402164" lon="9.478748962283135">
        <ele>252.96000000000001</ele>
        <time>2019-05-09T09:52:38Z</time>
      </trkpt>
      <trkpt lat="51.689938986673951" lon="9.47850395925343">
        <ele>252.47999999999999</ele>
        <time>2019-05-09T09:52:39Z</time>
      </trkpt>
      <trkpt lat="51.689904034137726" lon="9.478255016729236">
        <ele>252</ele>
        <time>2019-05-09T09:52:40Z</time>
      </trkpt>
      <trkpt lat="51.689860029146075" lon="9.478000961244106">
        <ele>251.03999999999999</ele>
        <time>2019-05-09T09:52:41Z</time>
      </trkpt>
      <trkpt lat="51.689816024154425" lon="9.477746989578009">
        <ele>250.56</ele>
        <time>2019-05-09T09:52:42Z</time>
      </trkpt>
      <trkpt lat="51.689722985029221" lon="9.477516990154982">
        <ele>250.08000000000001</ele>
        <time>2019-05-09T09:52:43Z</time>
      </trkpt>
      <trkpt lat="51.689628018066287" lon="9.477281961590052">
        <ele>249.59999999999999</ele>
        <time>2019-05-09T09:52:44Z</time>
      </trkpt>
      <trkpt lat="51.689531039446592" lon="9.47704098187387">
        <ele>249.12</ele>
        <time>2019-05-09T09:52:45Z</time>
      </trkpt>
      <trkpt lat="51.689219987019897" lon="9.476343020796776">
        <ele>248.16</ele>
        <time>2019-05-09T09:52:48Z</time>
      </trkpt>
      <trkpt lat="51.689029969274998" lon="9.475894002243877">
        <ele>247.68000000000001</ele>
        <time>2019-05-09T09:52:50Z</time>
      </trkpt>
      <trkpt lat="51.688954029232264" lon="9.475647993385792">
        <ele>247.68000000000001</ele>
        <time>2019-05-09T09:52:51Z</time>
      </trkpt>
      <trkpt lat="51.688885968178511" lon="9.475380023941398">
        <ele>247.19999999999999</ele>
        <time>2019-05-09T09:52:52Z</time>
      </trkpt>
      <trkpt lat="51.688857972621918" lon="9.475100990384817">
        <ele>247.19999999999999</ele>
        <time>2019-05-09T09:52:53Z</time>
      </trkpt>
      <trkpt lat="51.688828971236944" lon="9.47480401955545">
        <ele>246.72</ele>
        <time>2019-05-09T09:52:54Z</time>
      </trkpt>
      <trkpt lat="51.68866703286767" lon="9.472891017794609">
        <ele>245.75</ele>
        <time>2019-05-09T09:52:59Z</time>
      </trkpt>
      <trkpt lat="51.68855999596417" lon="9.471342964097858">
        <ele>246.22999999999999</ele>
        <time>2019-05-09T09:53:04Z</time>
      </trkpt>
      <trkpt lat="51.688407026231289" lon="9.4690250325948">
        <ele>248.63999999999999</ele>
        <time>2019-05-09T09:53:10Z</time>
      </trkpt>
      <trkpt lat="51.688103014603257" lon="9.464333010837436">
        <ele>252.47999999999999</ele>
        <time>2019-05-09T09:53:20Z</time>
      </trkpt>
      <trkpt lat="51.687791040167212" lon="9.459472009912133">
        <ele>258.25</ele>
        <time>2019-05-09T09:53:31Z</time>
      </trkpt>
      <trkpt lat="51.687575960531831" lon="9.455401003360748">
        <ele>268.35000000000002</ele>
        <time>2019-05-09T09:53:41Z</time>
      </trkpt>
      <trkpt lat="51.687504965811968" lon="9.45443800650537">
        <ele>272.19</ele>
        <time>2019-05-09T09:53:44Z</time>
      </trkpt>
      <trkpt lat="51.687444029375911" lon="9.454165007919073">
        <ele>273.14999999999998</ele>
        <time>2019-05-09T09:53:45Z</time>
      </trkpt>
      <trkpt lat="51.687366999685764" lon="9.453899972140789">
        <ele>274.11000000000001</ele>
        <time>2019-05-09T09:53:46Z</time>
      </trkpt>
      <trkpt lat="51.687257029116154" lon="9.453648012131453">
        <ele>275.06999999999999</ele>
        <time>2019-05-09T09:53:47Z</time>
      </trkpt>
      <trkpt lat="51.687106993049383" lon="9.453426981344819">
        <ele>276.04000000000002</ele>
        <time>2019-05-09T09:53:48Z</time>
      </trkpt>
      <trkpt lat="51.686939019709826" lon="9.453223971650004">
        <ele>277</ele>
        <time>2019-05-09T09:53:49Z</time>
      </trkpt>
      <trkpt lat="51.686760988086462" lon="9.453009981662035">
        <ele>278.44</ele>
        <time>2019-05-09T09:53:50Z</time>
      </trkpt>
      <trkpt lat="51.686550015583634" lon="9.452835973352194">
        <ele>279.39999999999998</ele>
        <time>2019-05-09T09:53:51Z</time>
      </trkpt>
      <trkpt lat="51.686332002282143" lon="9.452686021104455">
        <ele>280.36000000000001</ele>
        <time>2019-05-09T09:53:52Z</time>
      </trkpt>
      <trkpt lat="51.684860978275537" lon="9.451520014554262">
        <ele>287.08999999999997</ele>
        <time>2019-05-09T09:53:59Z</time>
      </trkpt>
      <trkpt lat="51.684520002454519" lon="9.451090022921562">
        <ele>288.52999999999997</ele>
        <time>2019-05-09T09:54:01Z</time>
      </trkpt>
      <trkpt lat="51.684338031336665" lon="9.450963959097862">
        <ele>289.49000000000001</ele>
        <time>2019-05-09T09:54:02Z</time>
      </trkpt>
      <trkpt lat="51.684149019420147" lon="9.450869997963309">
        <ele>289.97000000000003</ele>
        <time>2019-05-09T09:54:03Z</time>
      </trkpt>
      <trkpt lat="51.683952966704965" lon="9.450780982151628">
        <ele>290.45999999999998</ele>
        <time>2019-05-09T09:54:04Z</time>
      </trkpt>
      <trkpt lat="51.683740988373756" lon="9.450715016573668">
        <ele>290.94</ele>
        <time>2019-05-09T09:54:05Z</time>
      </trkpt>
      <trkpt lat="51.682599037885666" lon="9.450282007455826">
        <ele>290.94</ele>
        <time>2019-05-09T09:54:10Z</time>
      </trkpt>
      <trkpt lat="51.682407008484006" lon="9.450127026066184">
        <ele>290.94</ele>
        <time>2019-05-09T09:54:11Z</time>
      </trkpt>
      <trkpt lat="51.682229982689023" lon="9.449956035241485">
        <ele>290.94</ele>
        <time>2019-05-09T09:54:12Z</time>
      </trkpt>
      <trkpt lat="51.682069972157478" lon="9.449766017496586">
        <ele>290.94</ele>
        <time>2019-05-09T09:54:13Z</time>
      </trkpt>
      <trkpt lat="51.681932006031275" lon="9.449490001425147">
        <ele>290.45999999999998</ele>
        <time>2019-05-09T09:54:14Z</time>
      </trkpt>
      <trkpt lat="51.681793034076691" lon="9.449212979525328">
        <ele>290.45999999999998</ele>
        <time>2019-05-09T09:54:15Z</time>
      </trkpt>
      <trkpt lat="51.681349966675043" lon="9.448344027623534">
        <ele>289.97000000000003</ele>
        <time>2019-05-09T09:54:18Z</time>
      </trkpt>
      <trkpt lat="51.68117000721395" lon="9.448082009330392">
        <ele>289.97000000000003</ele>
        <time>2019-05-09T09:54:19Z</time>
      </trkpt>
      <trkpt lat="51.680964985862374" lon="9.447856033220887">
        <ele>289.49000000000001</ele>
        <time>2019-05-09T09:54:20Z</time>
      </trkpt>
      <trkpt lat="51.680381018668413" lon="9.447194030508399">
        <ele>289.49000000000001</ele>
        <time>2019-05-09T09:54:23Z</time>
      </trkpt>
      <trkpt lat="51.680227965116501" lon="9.446951961144805">
        <ele>289.49000000000001</ele>
        <time>2019-05-09T09:54:24Z</time>
      </trkpt>
      <trkpt lat="51.680131992325187" lon="9.446676028892398">
        <ele>289.49000000000001</ele>
        <time>2019-05-09T09:54:25Z</time>
      </trkpt>
      <trkpt lat="51.680064015090466" lon="9.446394983679056">
        <ele>289.49000000000001</ele>
        <time>2019-05-09T09:54:26Z</time>
      </trkpt>
      <trkpt lat="51.680025961250067" lon="9.446082003414631">
        <ele>289.49000000000001</ele>
        <time>2019-05-09T09:54:27Z</time>
      </trkpt>
      <trkpt lat="51.679985979571939" lon="9.445753013715148">
        <ele>289.00999999999999</ele>
        <time>2019-05-09T09:54:28Z</time>
      </trkpt>
      <trkpt lat="51.67990199290216" lon="9.445067038759589">
        <ele>288.52999999999997</ele>
        <time>2019-05-09T09:54:30Z</time>
      </trkpt>
      <trkpt lat="51.67983703315258" lon="9.444739976897836">
        <ele>288.52999999999997</ele>
        <time>2019-05-09T09:54:31Z</time>
      </trkpt>
      <trkpt lat="51.679724967107177" lon="9.444461027160287">
        <ele>288.05000000000001</ele>
        <time>2019-05-09T09:54:32Z</time>
      </trkpt>
      <trkpt lat="51.679585995152593" lon="9.444201020523906">
        <ele>288.05000000000001</ele>
        <time>2019-05-09T09:54:33Z</time>
      </trkpt>
      <trkpt lat="51.679440988227725" lon="9.443926010280848">
        <ele>288.05000000000001</ele>
        <time>2019-05-09T09:54:34Z</time>
      </trkpt>
      <trkpt lat="51.679276032373309" lon="9.443655023351312">
        <ele>288.05000000000001</ele>
        <time>2019-05-09T09:54:35Z</time>
      </trkpt>
      <trkpt lat="51.67861302383244" lon="9.442651038989425">
        <ele>287.08999999999997</ele>
        <time>2019-05-09T09:54:39Z</time>
      </trkpt>
      <trkpt lat="51.678437003865838" lon="9.442501002922654">
        <ele>287.08999999999997</ele>
        <time>2019-05-09T09:54:40Z</time>
      </trkpt>
      <trkpt lat="51.678254026919603" lon="9.442378962412477">
        <ele>287.08999999999997</ele>
        <time>2019-05-09T09:54:41Z</time>
      </trkpt>
      <trkpt lat="51.678060991689563" lon="9.442354990169406">
        <ele>287.08999999999997</ele>
        <time>2019-05-09T09:54:42Z</time>
      </trkpt>
      <trkpt lat="51.67786099947989" lon="9.442345015704632">
        <ele>287.08999999999997</ele>
        <time>2019-05-09T09:54:43Z</time>
      </trkpt>
      <trkpt lat="51.677663018926978" lon="9.442330012097955">
        <ele>287.08999999999997</ele>
        <time>2019-05-09T09:54:44Z</time>
      </trkpt>
      <trkpt lat="51.677456991747022" lon="9.442307967692614">
        <ele>287.56999999999999</ele>
        <time>2019-05-09T09:54:45Z</time>
      </trkpt>
      <trkpt lat="51.677243001759052" lon="9.442286007106304">
        <ele>287.56999999999999</ele>
        <time>2019-05-09T09:54:46Z</time>
      </trkpt>
      <trkpt lat="51.677034040912986" lon="9.442197997123003">
        <ele>287.56999999999999</ele>
        <time>2019-05-09T09:54:47Z</time>
      </trkpt>
      <trkpt lat="51.67682901956141" lon="9.44206397049129">
        <ele>287.56999999999999</ele>
        <time>2019-05-09T09:54:48Z</time>
      </trkpt>
      <trkpt lat="51.676623998209834" lon="9.44193103350699">
        <ele>288.05000000000001</ele>
        <time>2019-05-09T09:54:49Z</time>
      </trkpt>
      <trkpt lat="51.676431968808174" lon="9.44180597551167">
        <ele>288.52999999999997</ele>
        <time>2019-05-09T09:54:50Z</time>
      </trkpt>
      <trkpt lat="51.676253015175462" lon="9.441688964143395">
        <ele>288.52999999999997</ele>
        <time>2019-05-09T09:54:51Z</time>
      </trkpt>
      <trkpt lat="51.676067020744085" lon="9.44165300577879">
        <ele>289.00999999999999</ele>
        <time>2019-05-09T09:54:52Z</time>
      </trkpt>
      <trkpt lat="51.675871973857284" lon="9.441644037142396">
        <ele>289.00999999999999</ele>
        <time>2019-05-09T09:54:53Z</time>
      </trkpt>
      <trkpt lat="51.675487998872995" lon="9.441690975800157">
        <ele>288.52999999999997</ele>
        <time>2019-05-09T09:54:55Z</time>
      </trkpt>
      <trkpt lat="51.675297981128097" lon="9.441669015213847">
        <ele>288.52999999999997</ele>
        <time>2019-05-09T09:54:56Z</time>
      </trkpt>
      <trkpt lat="51.67511198669672" lon="9.441562984138727">
        <ele>288.52999999999997</ele>
        <time>2019-05-09T09:54:57Z</time>
      </trkpt>
      <trkpt lat="51.674860026687384" lon="9.44141898304224">
        <ele>288.52999999999997</ele>
        <time>2019-05-09T09:54:58Z</time>
      </trkpt>
      <trkpt lat="51.674738992005587" lon="9.441293003037572">
        <ele>288.05000000000001</ele>
        <time>2019-05-09T09:54:59Z</time>
      </trkpt>
      <trkpt lat="51.674367003142834" lon="9.440903998911381">
        <ele>288.05000000000001</ele>
        <time>2019-05-09T09:55:01Z</time>
      </trkpt>
      <trkpt lat="51.674226019531488" lon="9.440615996718407">
        <ele>287.56999999999999</ele>
        <time>2019-05-09T09:55:02Z</time>
      </trkpt>
      <trkpt lat="51.674114037305117" lon="9.440317014232278">
        <ele>287.08999999999997</ele>
        <time>2019-05-09T09:55:03Z</time>
      </trkpt>
      <trkpt lat="51.674005994573236" lon="9.439990958198905">
        <ele>287.08999999999997</ele>
        <time>2019-05-09T09:55:04Z</time>
      </trkpt>
      <trkpt lat="51.673913039267063" lon="9.439651994034648">
        <ele>287.08999999999997</ele>
        <time>2019-05-09T09:55:05Z</time>
      </trkpt>
      <trkpt lat="51.673308033496141" lon="9.437643019482493">
        <ele>286.13</ele>
        <time>2019-05-09T09:55:11Z</time>
      </trkpt>
      <trkpt lat="51.673165960237384" lon="9.437348982319236">
        <ele>286.13</ele>
        <time>2019-05-09T09:55:12Z</time>
      </trkpt>
      <trkpt lat="51.67197598144412" lon="9.435026021674275">
        <ele>283.73000000000002</ele>
        <time>2019-05-09T09:55:19Z</time>
      </trkpt>
      <trkpt lat="51.670316029340029" lon="9.431812986731529">
        <ele>277.48000000000002</ele>
        <time>2019-05-09T09:55:28Z</time>
      </trkpt>
      <trkpt lat="51.669550007209182" lon="9.430087991058826">
        <ele>272.19</ele>
        <time>2019-05-09T09:55:33Z</time>
      </trkpt>
      <trkpt lat="51.669452022761106" lon="9.429727988317609">
        <ele>271.23000000000002</ele>
        <time>2019-05-09T09:55:34Z</time>
      </trkpt>
      <trkpt lat="51.66939502581954" lon="9.429339990019798">
        <ele>270.26999999999998</ele>
        <time>2019-05-09T09:55:35Z</time>
      </trkpt>
      <trkpt lat="51.668938966467977" lon="9.426400037482381">
        <ele>259.20999999999998</ele>
        <time>2019-05-09T09:55:42Z</time>
      </trkpt>
      <trkpt lat="51.66868700645864" lon="9.423915976658464">
        <ele>249.12</ele>
        <time>2019-05-09T09:55:48Z</time>
      </trkpt>
      <trkpt lat="51.668636966496706" lon="9.423566032201052">
        <ele>247.68000000000001</ele>
        <time>2019-05-09T09:55:49Z</time>
      </trkpt>
      <trkpt lat="51.668544011190534" lon="9.423245005309582">
        <ele>246.22999999999999</ele>
        <time>2019-05-09T09:55:50Z</time>
      </trkpt>
      <trkpt lat="51.668444015085697" lon="9.422901012003422">
        <ele>244.31</ele>
        <time>2019-05-09T09:55:51Z</time>
      </trkpt>
      <trkpt lat="51.66832197457552" lon="9.422650979831815">
        <ele>242.87</ele>
        <time>2019-05-09T09:55:52Z</time>
      </trkpt>
      <trkpt lat="51.668184008449316" lon="9.422368006780744">
        <ele>241.43000000000001</ele>
        <time>2019-05-09T09:55:53Z</time>
      </trkpt>
      <trkpt lat="51.668049981817603" lon="9.422094002366066">
        <ele>239.50999999999999</ele>
        <time>2019-05-09T09:55:54Z</time>
      </trkpt>
      <trkpt lat="51.667940011247993" lon="9.421809017658234">
        <ele>238.06</ele>
        <time>2019-05-09T09:55:55Z</time>
      </trkpt>
      <trkpt lat="51.667844960466027" lon="9.421509029343724">
        <ele>236.62</ele>
        <time>2019-05-09T09:55:56Z</time>
      </trkpt>
      <trkpt lat="51.667804978787899" lon="9.421166963875294">
        <ele>235.18000000000001</ele>
        <time>2019-05-09T09:55:57Z</time>
      </trkpt>
      <trkpt lat="51.667764997109771" lon="9.42081299610436">
        <ele>233.74000000000001</ele>
        <time>2019-05-09T09:55:58Z</time>
      </trkpt>
      <trkpt lat="51.66763499379158" lon="9.419748997315764">
        <ele>228.44999999999999</ele>
        <time>2019-05-09T09:56:01Z</time>
      </trkpt>
      <trkpt lat="51.667559975758195" lon="9.41943702287972">
        <ele>227.00999999999999</ele>
        <time>2019-05-09T09:56:02Z</time>
      </trkpt>
      <trkpt lat="51.667485041543841" lon="9.419128987938166">
        <ele>225.09</ele>
        <time>2019-05-09T09:56:03Z</time>
      </trkpt>
      <trkpt lat="51.667342968285084" lon="9.418883984908462">
        <ele>223.63999999999999</ele>
        <time>2019-05-09T09:56:04Z</time>
      </trkpt>
      <trkpt lat="51.66720500215888" lon="9.418661026284099">
        <ele>222.19999999999999</ele>
        <time>2019-05-09T09:56:05Z</time>
      </trkpt>
      <trkpt lat="51.667047003284097" lon="9.418459022417665">
        <ele>220.75999999999999</ele>
        <time>2019-05-09T09:56:06Z</time>
      </trkpt>
      <trkpt lat="51.666858997195959" lon="9.418370006605983">
        <ele>219.80000000000001</ele>
        <time>2019-05-09T09:56:07Z</time>
      </trkpt>
      <trkpt lat="51.666665961965919" lon="9.41827897913754">
        <ele>218.36000000000001</ele>
        <time>2019-05-09T09:56:08Z</time>
      </trkpt>
      <trkpt lat="51.666478961706161" lon="9.418189963325858">
        <ele>217.40000000000001</ele>
        <time>2019-05-09T09:56:09Z</time>
      </trkpt>
      <trkpt lat="51.66630201973021" lon="9.418105976656079">
        <ele>215.94999999999999</ele>
        <time>2019-05-09T09:56:10Z</time>
      </trkpt>
      <trkpt lat="51.666176961734891" lon="9.417921993881464">
        <ele>214.99000000000001</ele>
        <time>2019-05-09T09:56:11Z</time>
      </trkpt>
      <trkpt lat="51.666069002822042" lon="9.417734993621707">
        <ele>213.55000000000001</ele>
        <time>2019-05-09T09:56:12Z</time>
      </trkpt>
      <trkpt lat="51.666004965081811" lon="9.417516980320215">
        <ele>212.59</ele>
        <time>2019-05-09T09:56:13Z</time>
      </trkpt>
      <trkpt lat="51.665966995060444" lon="9.417258985340595">
        <ele>211.63</ele>
        <time>2019-05-09T09:56:14Z</time>
      </trkpt>
      <trkpt lat="51.665944028645754" lon="9.416967965662479">
        <ele>210.66999999999999</ele>
        <time>2019-05-09T09:56:15Z</time>
      </trkpt>
      <trkpt lat="51.665918966755271" lon="9.416658002883196">
        <ele>209.69999999999999</ele>
        <time>2019-05-09T09:56:16Z</time>
      </trkpt>
      <trkpt lat="51.665582014247775" lon="9.413989959284663">
        <ele>199.61000000000001</ele>
        <time>2019-05-09T09:56:25Z</time>
      </trkpt>
      <trkpt lat="51.665539015084505" lon="9.413729030638933">
        <ele>198.65000000000001</ele>
        <time>2019-05-09T09:56:26Z</time>
      </trkpt>
      <trkpt lat="51.665449999272823" lon="9.413491990417242">
        <ele>197.21000000000001</ele>
        <time>2019-05-09T09:56:27Z</time>
      </trkpt>
      <trkpt lat="51.665353020653129" lon="9.413287974894047">
        <ele>196.25</ele>
        <time>2019-05-09T09:56:28Z</time>
      </trkpt>
      <trkpt lat="51.665217988193035" lon="9.413138022646308">
        <ele>195.28</ele>
        <time>2019-05-09T09:56:29Z</time>
      </trkpt>
      <trkpt lat="51.665080022066832" lon="9.413010030984879">
        <ele>194.31999999999999</ele>
        <time>2019-05-09T09:56:30Z</time>
      </trkpt>
      <trkpt lat="51.664923029020429" lon="9.412911040708423">
        <ele>193.84</ele>
        <time>2019-05-09T09:56:31Z</time>
      </trkpt>
      <trkpt lat="51.664746003225446" lon="9.412857983261347">
        <ele>192.88</ele>
        <time>2019-05-09T09:56:32Z</time>
      </trkpt>
      <trkpt lat="51.664555985480547" lon="9.412822024896741">
        <ele>191.91999999999999</ele>
        <time>2019-05-09T09:56:33Z</time>
      </trkpt>
      <trkpt lat="51.664356999099255" lon="9.4127999804914">
        <ele>190.96000000000001</ele>
        <time>2019-05-09T09:56:34Z</time>
      </trkpt>
      <trkpt lat="51.664161030203104" lon="9.412822024896741">
        <ele>190</ele>
        <time>2019-05-09T09:56:35Z</time>
      </trkpt>
      <trkpt lat="51.663980986922979" lon="9.412869969382882">
        <ele>189.03999999999999</ele>
        <time>2019-05-09T09:56:36Z</time>
      </trkpt>
      <trkpt lat="51.663834974169731" lon="9.412983963266015">
        <ele>188.08000000000001</ele>
        <time>2019-05-09T09:56:37Z</time>
      </trkpt>
      <trkpt lat="51.663708994165063" lon="9.413154032081366">
        <ele>187.59</ele>
        <time>2019-05-09T09:56:38Z</time>
      </trkpt>
      <trkpt lat="51.663575973361731" lon="9.41333600319922">
        <ele>186.63</ele>
        <time>2019-05-09T09:56:39Z</time>
      </trkpt>
      <trkpt lat="51.663443958386779" lon="9.413515962660313">
        <ele>185.66999999999999</ele>
        <time>2019-05-09T09:56:40Z</time>
      </trkpt>
      <trkpt lat="51.663303980603814" lon="9.413663987070322">
        <ele>184.22999999999999</ele>
        <time>2019-05-09T09:56:41Z</time>
      </trkpt>
      <trkpt lat="51.663166014477611" lon="9.41374403424561">
        <ele>183.27000000000001</ele>
        <time>2019-05-09T09:56:42Z</time>
      </trkpt>
      <trkpt lat="51.663037016987801" lon="9.413754008710384">
        <ele>182.31</ele>
        <time>2019-05-09T09:56:43Z</time>
      </trkpt>
      <trkpt lat="51.662930985912681" lon="9.41372299566865">
        <ele>180.87</ele>
        <time>2019-05-09T09:56:44Z</time>
      </trkpt>
      <trkpt lat="51.662826966494322" lon="9.413630040362477">
        <ele>179.90000000000001</ele>
        <time>2019-05-09T09:56:45Z</time>
      </trkpt>
      <trkpt lat="51.662737028673291" lon="9.413514034822583">
        <ele>178.94</ele>
        <time>2019-05-09T09:56:46Z</time>
      </trkpt>
      <trkpt lat="51.662676008418202" lon="9.413325022906065">
        <ele>177.5</ele>
        <time>2019-05-09T09:56:47Z</time>
      </trkpt>
      <trkpt lat="51.662640972062945" lon="9.413104997947812">
        <ele>177.02000000000001</ele>
        <time>2019-05-09T09:56:48Z</time>
      </trkpt>
      <trkpt lat="51.662613982334733" lon="9.41286301240325">
        <ele>176.53999999999999</ele>
        <time>2019-05-09T09:56:49Z</time>
      </trkpt>
      <trkpt lat="51.662589004263282" lon="9.412595964968205">
        <ele>176.06</ele>
        <time>2019-05-09T09:56:50Z</time>
      </trkpt>
      <trkpt lat="51.662436034530401" lon="9.410926960408688">
        <ele>171.25</ele>
        <time>2019-05-09T09:56:56Z</time>
      </trkpt>
      <trkpt lat="51.662377025932074" lon="9.410690004006028">
        <ele>169.81</ele>
        <time>2019-05-09T09:56:57Z</time>
      </trkpt>
      <trkpt lat="51.662310976535082" lon="9.410453969612718">
        <ele>169.33000000000001</ele>
        <time>2019-05-09T09:56:58Z</time>
      </trkpt>
      <trkpt lat="51.662130011245608" lon="9.410009980201721">
        <ele>167.41</ele>
        <time>2019-05-09T09:57:00Z</time>
      </trkpt>
      <trkpt lat="51.66206899099052" lon="9.409757014364004">
        <ele>166.44999999999999</ele>
        <time>2019-05-09T09:57:01Z</time>
      </trkpt>
      <trkpt lat="51.662032026797533" lon="9.409461971372366">
        <ele>165</ele>
        <time>2019-05-09T09:57:02Z</time>
      </trkpt>
      <trkpt lat="51.662067985162139" lon="9.40919098444283">
        <ele>164.03999999999999</ele>
        <time>2019-05-09T09:57:03Z</time>
      </trkpt>
      <trkpt lat="51.662102015689015" lon="9.408911028876901">
        <ele>163.56</ele>
        <time>2019-05-09T09:57:04Z</time>
      </trkpt>
      <trkpt lat="51.662136968225241" lon="9.408614980056882">
        <ele>162.12</ele>
        <time>2019-05-09T09:57:05Z</time>
      </trkpt>
      <trkpt lat="51.662450032308698" lon="9.405960012227297">
        <ele>154.43000000000001</ele>
        <time>2019-05-09T09:57:14Z</time>
      </trkpt>
      <trkpt lat="51.662590010091662" lon="9.405009001493454">
        <ele>152.03</ele>
        <time>2019-05-09T09:57:19Z</time>
      </trkpt>
      <trkpt lat="51.662672990933061" lon="9.404593007639051">
        <ele>150.58000000000001</ele>
        <time>2019-05-09T09:57:21Z</time>
      </trkpt>
      <trkpt lat="51.663286965340376" lon="9.402864994481206">
        <ele>145.78</ele>
        <time>2019-05-09T09:57:29Z</time>
      </trkpt>
      <trkpt lat="51.663332981988788" lon="9.402648992836475">
        <ele>145.30000000000001</ele>
        <time>2019-05-09T09:57:30Z</time>
      </trkpt>
      <trkpt lat="51.663366006687284" lon="9.402412036433816">
        <ele>144.34</ele>
        <time>2019-05-09T09:57:31Z</time>
      </trkpt>
      <trkpt lat="51.663415962830186" lon="9.401912977918983">
        <ele>142.88999999999999</ele>
        <time>2019-05-09T09:57:33Z</time>
      </trkpt>
      <trkpt lat="51.663430966436863" lon="9.401645008474588">
        <ele>141.93000000000001</ele>
        <time>2019-05-09T09:57:34Z</time>
      </trkpt>
      <trkpt lat="51.663441024720669" lon="9.40136999823153">
        <ele>140.49000000000001</ele>
        <time>2019-05-09T09:57:35Z</time>
      </trkpt>
      <trkpt lat="51.663237009197474" lon="9.398762974888086">
        <ele>131.36000000000001</ele>
        <time>2019-05-09T09:57:44Z</time>
      </trkpt>
      <trkpt lat="51.662681037560105" lon="9.396592983976007">
        <ele>123.19</ele>
        <time>2019-05-09T09:57:52Z</time>
      </trkpt>
      <trkpt lat="51.661881990730762" lon="9.394863964989781">
        <ele>115.01000000000001</ele>
        <time>2019-05-09T09:58:00Z</time>
      </trkpt>
      <trkpt lat="51.661772020161152" lon="9.394721975550056">
        <ele>114.05</ele>
        <time>2019-05-09T09:58:01Z</time>
      </trkpt>
      <trkpt lat="51.66166196577251" lon="9.394578980281949">
        <ele>113.56999999999999</ele>
        <time>2019-05-09T09:58:02Z</time>
      </trkpt>
      <trkpt lat="51.661543026566505" lon="9.394458029419184">
        <ele>112.61</ele>
        <time>2019-05-09T09:58:03Z</time>
      </trkpt>
      <trkpt lat="51.66140497662127" lon="9.394415030255914">
        <ele>111.65000000000001</ele>
        <time>2019-05-09T09:58:04Z</time>
      </trkpt>
      <trkpt lat="51.661268016323447" lon="9.394371025264263">
        <ele>110.69</ele>
        <time>2019-05-09T09:58:05Z</time>
      </trkpt>
      <trkpt lat="51.661133989691734" lon="9.39434302970767">
        <ele>109.73</ele>
        <time>2019-05-09T09:58:06Z</time>
      </trkpt>
      <trkpt lat="51.661007003858685" lon="9.394354010000825">
        <ele>109.25</ele>
        <time>2019-05-09T09:58:07Z</time>
      </trkpt>
      <trkpt lat="51.660886975005269" lon="9.394362978637219">
        <ele>108.29000000000001</ele>
        <time>2019-05-09T09:58:08Z</time>
      </trkpt>
      <trkpt lat="51.660654963925481" lon="9.394382005557418">
        <ele>106.84</ele>
        <time>2019-05-09T09:58:10Z</time>
      </trkpt>
      <trkpt lat="51.660141991451383" lon="9.394328026100993">
        <ele>103.95999999999999</ele>
        <time>2019-05-09T09:58:15Z</time>
      </trkpt>
      <trkpt lat="51.660052975639701" lon="9.39427999779582">
        <ele>103</ele>
        <time>2019-05-09T09:58:16Z</time>
      </trkpt>
      <trkpt lat="51.659968988969922" lon="9.394233981147409">
        <ele>102.52</ele>
        <time>2019-05-09T09:58:17Z</time>
      </trkpt>
      <trkpt lat="51.65991903282702" lon="9.394133985042572">
        <ele>101.56</ele>
        <time>2019-05-09T09:58:18Z</time>
      </trkpt>
      <trkpt lat="51.659871004521847" lon="9.394038012251258">
        <ele>100.59999999999999</ele>
        <time>2019-05-09T09:58:19Z</time>
      </trkpt>
      <trkpt lat="51.659861030057073" lon="9.393908008933067">
        <ele>99.629999999999995</ele>
        <time>2019-05-09T09:58:20Z</time>
      </trkpt>
      <trkpt lat="51.659863963723183" lon="9.393735006451607">
        <ele>98.670000000000002</ele>
        <time>2019-05-09T09:58:21Z</time>
      </trkpt>
      <trkpt lat="51.659925989806652" lon="9.393622018396854">
        <ele>97.709999999999994</ele>
        <time>2019-05-09T09:58:22Z</time>
      </trkpt>
      <trkpt lat="51.660021040588617" lon="9.393490003421903">
        <ele>96.75</ele>
        <time>2019-05-09T09:58:23Z</time>
      </trkpt>
      <trkpt lat="51.660123970359564" lon="9.393445998430252">
        <ele>95.790000000000006</ele>
        <time>2019-05-09T09:58:24Z</time>
      </trkpt>
      <trkpt lat="51.6602429933846" lon="9.393447004258633">
        <ele>94.829999999999998</ele>
        <time>2019-05-09T09:58:25Z</time>
      </trkpt>
      <trkpt lat="51.660358998924494" lon="9.393454967066646">
        <ele>94.349999999999994</ele>
        <time>2019-05-09T09:58:26Z</time>
      </trkpt>
      <trkpt lat="51.660463018342853" lon="9.393454967066646">
        <ele>93.390000000000001</ele>
        <time>2019-05-09T09:58:27Z</time>
      </trkpt>
      <trkpt lat="51.66056402027607" lon="9.393429988995194">
        <ele>92.420000000000002</ele>
        <time>2019-05-09T09:58:28Z</time>
      </trkpt>
      <trkpt lat="51.660637026652694" lon="9.393365029245615">
        <ele>91.939999999999998</ele>
        <time>2019-05-09T09:58:29Z</time>
      </trkpt>
      <trkpt lat="51.660695029422641" lon="9.393240977078676">
        <ele>91.459999999999994</ele>
        <time>2019-05-09T09:58:30Z</time>
      </trkpt>
      <trkpt lat="51.660783961415291" lon="9.393052970990539">
        <ele>90.5</ele>
        <time>2019-05-09T09:58:31Z</time>
      </trkpt>
      <trkpt lat="51.660783961415291" lon="9.392955992370844">
        <ele>90.5</ele>
        <time>2019-05-09T09:58:32Z</time>
      </trkpt>
      <trkpt lat="51.660781027749181" lon="9.392773015424609">
        <ele>90.980000000000004</ele>
        <time>2019-05-09T09:58:33Z</time>
      </trkpt>
      <trkpt lat="51.660768035799265" lon="9.392595989629626">
        <ele>91.459999999999994</ele>
        <time>2019-05-09T09:58:34Z</time>
      </trkpt>
      <trkpt lat="51.660721013322473" lon="9.392414018511772">
        <ele>91.939999999999998</ele>
        <time>2019-05-09T09:58:35Z</time>
      </trkpt>
      <trkpt lat="51.660656975582242" lon="9.392262976616621">
        <ele>92.420000000000002</ele>
        <time>2019-05-09T09:58:36Z</time>
      </trkpt>
      <trkpt lat="51.66058698669076" lon="9.392121993005276">
        <ele>92.420000000000002</ele>
        <time>2019-05-09T09:58:37Z</time>
      </trkpt>
      <trkpt lat="51.660520015284419" lon="9.391989978030324">
        <ele>92.900000000000006</ele>
        <time>2019-05-09T09:58:38Z</time>
      </trkpt>
      <trkpt lat="51.660305019468069" lon="9.391451021656394">
        <ele>93.870000000000005</ele>
        <time>2019-05-09T09:58:42Z</time>
      </trkpt>
      <trkpt lat="51.66026595979929" lon="9.391304003074765">
        <ele>93.870000000000005</ele>
        <time>2019-05-09T09:58:43Z</time>
      </trkpt>
      <trkpt lat="51.66024399921298" lon="9.391158996149898">
        <ele>93.870000000000005</ele>
        <time>2019-05-09T09:58:44Z</time>
      </trkpt>
      <trkpt lat="51.660236036404967" lon="9.390992028638721">
        <ele>94.349999999999994</ele>
        <time>2019-05-09T09:58:45Z</time>
      </trkpt>
      <trkpt lat="51.660225978121161" lon="9.390799999237061">
        <ele>94.349999999999994</ele>
        <time>2019-05-09T09:58:46Z</time>
      </trkpt>
      <trkpt lat="51.660239975899458" lon="9.390654992312193">
        <ele>94.829999999999998</ele>
        <time>2019-05-09T09:58:47Z</time>
      </trkpt>
      <trkpt lat="51.660257996991277" lon="9.390480984002352">
        <ele>94.829999999999998</ele>
        <time>2019-05-09T09:58:48Z</time>
      </trkpt>
      <trkpt lat="51.660429993644357" lon="9.38875799998641">
        <ele>95.790000000000006</ele>
        <time>2019-05-09T09:58:58Z</time>
      </trkpt>
      <trkpt lat="51.660596961155534" lon="9.387053037062287">
        <ele>97.230000000000004</ele>
        <time>2019-05-09T09:59:08Z</time>
      </trkpt>
      <trkpt lat="51.660770969465375" lon="9.385122014209628">
        <ele>98.670000000000002</ele>
        <time>2019-05-09T09:59:19Z</time>
      </trkpt>
      <trkpt lat="51.660783039405942" lon="9.384956974536181">
        <ele>98.670000000000002</ele>
        <time>2019-05-09T09:59:20Z</time>
      </trkpt>
      <trkpt lat="51.660970961675048" lon="9.383245976641774">
        <ele>99.629999999999995</ele>
        <time>2019-05-09T09:59:30Z</time>
      </trkpt>
      <trkpt lat="51.661212025210261" lon="9.38136599957943">
        <ele>98.189999999999998</ele>
        <time>2019-05-09T09:59:40Z</time>
      </trkpt>
      <trkpt lat="51.661267010495067" lon="9.381208000704646">
        <ele>98.189999999999998</ele>
        <time>2019-05-09T09:59:41Z</time>
      </trkpt>
      <trkpt lat="51.661319984123111" lon="9.381055030971766">
        <ele>97.709999999999994</ele>
        <time>2019-05-09T09:59:42Z</time>
      </trkpt>
      <trkpt lat="51.661396007984877" lon="9.380929972976446">
        <ele>97.709999999999994</ele>
        <time>2019-05-09T09:59:43Z</time>
      </trkpt>
      <trkpt lat="51.661473959684372" lon="9.380838023498654">
        <ele>97.230000000000004</ele>
        <time>2019-05-09T09:59:44Z</time>
      </trkpt>
      <trkpt lat="51.66155300103128" lon="9.380745990201831">
        <ele>97.230000000000004</ele>
        <time>2019-05-09T09:59:45Z</time>
      </trkpt>
      <trkpt lat="51.661632964387536" lon="9.380652029067278">
        <ele>96.75</ele>
        <time>2019-05-09T09:59:46Z</time>
      </trkpt>
      <trkpt lat="51.661710999906063" lon="9.380561001598835">
        <ele>95.790000000000006</ele>
        <time>2019-05-09T09:59:47Z</time>
      </trkpt>
      <trkpt lat="51.66178903542459" lon="9.380468968302012">
        <ele>95.310000000000002</ele>
        <time>2019-05-09T09:59:48Z</time>
      </trkpt>
      <trkpt lat="51.66183496825397" lon="9.380414988845587">
        <ele>94.829999999999998</ele>
        <time>2019-05-09T09:59:49Z</time>
      </trkpt>
      <trkpt lat="51.661907974630594" lon="9.380276016891003">
        <ele>94.349999999999994</ele>
        <time>2019-05-09T09:59:50Z</time>
      </trkpt>
      <trkpt lat="51.66196002624929" lon="9.380177026614547">
        <ele>93.870000000000005</ele>
        <time>2019-05-09T09:59:51Z</time>
      </trkpt>
      <trkpt lat="51.661999002099037" lon="9.380102008581162">
        <ele>93.390000000000001</ele>
        <time>2019-05-09T09:59:52Z</time>
      </trkpt>
      <trkpt lat="51.66202599182725" lon="9.380050962790847">
        <ele>93.390000000000001</ele>
        <time>2019-05-09T09:59:53Z</time>
      </trkpt>
      <trkpt lat="51.662076031789184" lon="9.379892041906714">
        <ele>92.420000000000002</ele>
        <time>2019-05-09T09:59:57Z</time>
      </trkpt>
      <trkpt lat="51.66209002956748" lon="9.379672016948462">
        <ele>92.420000000000002</ele>
        <time>2019-05-09T10:00:00Z</time>
      </trkpt>
      <trkpt lat="51.662093969061971" lon="9.37960596755147">
        <ele>91.939999999999998</ele>
        <time>2019-05-09T10:00:01Z</time>
      </trkpt>
      <trkpt lat="51.662098998203874" lon="9.37954000197351">
        <ele>91.939999999999998</ele>
        <time>2019-05-09T10:00:02Z</time>
      </trkpt>
      <trkpt lat="51.662103021517396" lon="9.379474958404899">
        <ele>91.939999999999998</ele>
        <time>2019-05-09T10:00:03Z</time>
      </trkpt>
      <trkpt lat="51.662106961011887" lon="9.379408992826939">
        <ele>92.420000000000002</ele>
        <time>2019-05-09T10:00:04Z</time>
      </trkpt>
      <trkpt lat="51.662143003195524" lon="9.37874598428607">
        <ele>93.870000000000005</ele>
        <time>2019-05-09T10:00:12Z</time>
      </trkpt>
      <trkpt lat="51.662149960175157" lon="9.378645988181233">
        <ele>93.870000000000005</ele>
        <time>2019-05-09T10:00:13Z</time>
      </trkpt>
      <trkpt lat="51.662157000973821" lon="9.378543980419636">
        <ele>93.390000000000001</ele>
        <time>2019-05-09T10:00:14Z</time>
      </trkpt>
      <trkpt lat="51.662164041772485" lon="9.378438033163548">
        <ele>93.390000000000001</ele>
        <time>2019-05-09T10:00:15Z</time>
      </trkpt>
      <trkpt lat="51.662172004580498" lon="9.378323033452034">
        <ele>92.900000000000006</ele>
        <time>2019-05-09T10:00:16Z</time>
      </trkpt>
      <trkpt lat="51.662179967388511" lon="9.378203004598618">
        <ele>92.420000000000002</ele>
        <time>2019-05-09T10:00:17Z</time>
      </trkpt>
      <trkpt lat="51.662250962108374" lon="9.376676995307207">
        <ele>93.870000000000005</ele>
        <time>2019-05-09T10:00:29Z</time>
      </trkpt>
      <trkpt lat="51.662316005676985" lon="9.37606000341475">
        <ele>94.349999999999994</ele>
        <time>2019-05-09T10:00:34Z</time>
      </trkpt>
      <trkpt lat="51.662439974024892" lon="9.375309990718961">
        <ele>93.390000000000001</ele>
        <time>2019-05-09T10:00:41Z</time>
      </trkpt>
      <trkpt lat="51.662446008995175" lon="9.375125002115965">
        <ele>92.900000000000006</ele>
        <time>2019-05-09T10:00:43Z</time>
      </trkpt>
      <trkpt lat="51.662455983459949" lon="9.374827025458217">
        <ele>92.420000000000002</ele>
        <time>2019-05-09T10:00:46Z</time>
      </trkpt>
      <trkpt lat="51.662474004551768" lon="9.374644970521331">
        <ele>91.939999999999998</ele>
        <time>2019-05-09T10:00:48Z</time>
      </trkpt>
      <trkpt lat="51.662483979016542" lon="9.374552015215159">
        <ele>91.939999999999998</ele>
        <time>2019-05-09T10:00:49Z</time>
      </trkpt>
      <trkpt lat="51.662494959309697" lon="9.374457970261574">
        <ele>91.459999999999994</ele>
        <time>2019-05-09T10:00:50Z</time>
      </trkpt>
      <trkpt lat="51.662608031183481" lon="9.373479969799519">
        <ele>90.980000000000004</ele>
        <time>2019-05-09T10:01:00Z</time>
      </trkpt>
      <trkpt lat="51.662616999819875" lon="9.373401012271643">
        <ele>90.980000000000004</ele>
        <time>2019-05-09T10:01:01Z</time>
      </trkpt>
      <trkpt lat="51.662646001204848" lon="9.3731580208987">
        <ele>90.019999999999996</ele>
        <time>2019-05-09T10:01:04Z</time>
      </trkpt>
      <trkpt lat="51.662712972611189" lon="9.372582016512752">
        <ele>88.579999999999998</ele>
        <time>2019-05-09T10:01:11Z</time>
      </trkpt>
      <trkpt lat="51.662637032568455" lon="9.372526025399566">
        <ele>88.579999999999998</ele>
        <time>2019-05-09T10:01:12Z</time>
      </trkpt>
      <trkpt lat="51.662603002041578" lon="9.372512027621269">
        <ele>88.579999999999998</ele>
        <time>2019-05-09T10:01:13Z</time>
      </trkpt>
      <trkpt lat="51.662571988999844" lon="9.372497024014592">
        <ele>88.579999999999998</ele>
        <time>2019-05-09T10:01:14Z</time>
      </trkpt>
      <trkpt lat="51.662544999271631" lon="9.372485037893057">
        <ele>89.060000000000002</ele>
        <time>2019-05-09T10:01:15Z</time>
      </trkpt>
      <trkpt lat="51.662512980401516" lon="9.37247104011476">
        <ele>89.540000000000006</ele>
        <time>2019-05-09T10:01:16Z</time>
      </trkpt>
      <trkpt lat="51.662472998723388" lon="9.372454024851322">
        <ele>89.060000000000002</ele>
        <time>2019-05-09T10:01:17Z</time>
      </trkpt>
      <trkpt lat="51.662433017045259" lon="9.372436003759503">
        <ele>89.060000000000002</ele>
        <time>2019-05-09T10:01:18Z</time>
      </trkpt>
      <trkpt lat="51.662375014275312" lon="9.372410019859672">
        <ele>88.579999999999998</ele>
        <time>2019-05-09T10:01:20Z</time>
      </trkpt>
      <trkpt lat="51.662345007061958" lon="9.372396022081375">
        <ele>88.579999999999998</ele>
        <time>2019-05-09T10:01:21Z</time>
      </trkpt>
      <trkpt lat="51.662322962656617" lon="9.37238696962595">
        <ele>88.099999999999994</ele>
        <time>2019-05-09T10:01:22Z</time>
      </trkpt>
      <trkpt lat="51.66230502538383" lon="9.372379006817937">
        <ele>88.099999999999994</ele>
        <time>2019-05-09T10:01:23Z</time>
      </trkpt>
      <trkpt lat="51.662282980978489" lon="9.372370038181543">
        <ele>87.620000000000005</ele>
        <time>2019-05-09T10:01:24Z</time>
      </trkpt>
      <trkpt lat="51.662260014563799" lon="9.372359979897738">
        <ele>87.620000000000005</ele>
        <time>2019-05-09T10:01:25Z</time>
      </trkpt>
      <trkpt lat="51.662234030663967" lon="9.372348999604583">
        <ele>87.140000000000001</ele>
        <time>2019-05-09T10:01:26Z</time>
      </trkpt>
      <trkpt lat="51.662190025672317" lon="9.372173985466361">
        <ele>87.140000000000001</ele>
        <time>2019-05-09T10:01:27Z</time>
      </trkpt>
      <trkpt lat="51.662193965166807" lon="9.372119000181556">
        <ele>86.659999999999997</ele>
        <time>2019-05-09T10:01:28Z</time>
      </trkpt>
      <trkpt lat="51.662200000137091" lon="9.372052028775215">
        <ele>86.180000000000007</ele>
        <time>2019-05-09T10:01:29Z</time>
      </trkpt>
      <trkpt lat="51.662205029278994" lon="9.371976004913449">
        <ele>86.180000000000007</ele>
        <time>2019-05-09T10:01:30Z</time>
      </trkpt>
      <trkpt lat="51.662222966551781" lon="9.370958022773266">
        <ele>88.099999999999994</ele>
        <time>2019-05-09T10:01:39Z</time>
      </trkpt>
      <trkpt lat="51.661919038742781" lon="9.369375016540289">
        <ele>90.5</ele>
        <time>2019-05-09T10:01:49Z</time>
      </trkpt>
      <trkpt lat="51.661803033202887" lon="9.368881992995739">
        <ele>91.939999999999998</ele>
        <time>2019-05-09T10:01:52Z</time>
      </trkpt>
      <trkpt lat="51.661763973534107" lon="9.368715025484562">
        <ele>92.420000000000002</ele>
        <time>2019-05-09T10:01:53Z</time>
      </trkpt>
      <trkpt lat="51.661359965801239" lon="9.366987012326717">
        <ele>97.709999999999994</ele>
        <time>2019-05-09T10:02:03Z</time>
      </trkpt>
      <trkpt lat="51.66131797246635" lon="9.366807974874973">
        <ele>97.709999999999994</ele>
        <time>2019-05-09T10:02:04Z</time>
      </trkpt>
      <trkpt lat="51.660847999155521" lon="9.364769998937845">
        <ele>98.670000000000002</ele>
        <time>2019-05-09T10:02:16Z</time>
      </trkpt>
      <trkpt lat="51.660713972523808" lon="9.364064997062087">
        <ele>98.189999999999998</ele>
        <time>2019-05-09T10:02:20Z</time>
      </trkpt>
      <trkpt lat="51.660679019987583" lon="9.363876990973949">
        <ele>98.189999999999998</ele>
        <time>2019-05-09T10:02:21Z</time>
      </trkpt>
      <trkpt lat="51.660408033058047" lon="9.361967006698251">
        <ele>98.189999999999998</ele>
        <time>2019-05-09T10:02:31Z</time>
      </trkpt>
      <trkpt lat="51.660064961761236" lon="9.359424021095038">
        <ele>100.11</ele>
        <time>2019-05-09T10:02:44Z</time>
      </trkpt>
      <trkpt lat="51.65979104116559" lon="9.35721798799932">
        <ele>101.08</ele>
        <time>2019-05-09T10:02:52Z</time>
      </trkpt>
      <trkpt lat="51.659333975985646" lon="9.354665027931333">
        <ele>103.48</ele>
        <time>2019-05-09T10:03:01Z</time>
      </trkpt>
      <trkpt lat="51.658714972436428" lon="9.352120030671358">
        <ele>104.92</ele>
        <time>2019-05-09T10:03:11Z</time>
      </trkpt>
      <trkpt lat="51.658508023247123" lon="9.35128603130579">
        <ele>105.88</ele>
        <time>2019-05-09T10:03:15Z</time>
      </trkpt>
      <trkpt lat="51.658479021862149" lon="9.35115996748209">
        <ele>105.88</ele>
        <time>2019-05-09T10:03:16Z</time>
      </trkpt>
      <trkpt lat="51.658400986343622" lon="9.351135995239019">
        <ele>106.36</ele>
        <time>2019-05-09T10:03:17Z</time>
      </trkpt>
      <trkpt lat="51.658342983573675" lon="9.351164996623993">
        <ele>106.84</ele>
        <time>2019-05-09T10:03:18Z</time>
      </trkpt>
      <trkpt lat="51.65826603770256" lon="9.35120296664536">
        <ele>106.84</ele>
        <time>2019-05-09T10:03:19Z</time>
      </trkpt>
      <trkpt lat="51.65816000662744" lon="9.35124303214252">
        <ele>106.84</ele>
        <time>2019-05-09T10:03:20Z</time>
      </trkpt>
      <trkpt lat="51.657202960923314" lon="9.35158995911479">
        <ele>106.36</ele>
        <time>2019-05-09T10:03:26Z</time>
      </trkpt>
      <trkpt lat="51.655678041279316" lon="9.352321028709412">
        <ele>109.73</ele>
        <time>2019-05-09T10:03:34Z</time>
      </trkpt>
      <trkpt lat="51.655289037153125" lon="9.352485984563828">
        <ele>111.17</ele>
        <time>2019-05-09T10:03:36Z</time>
      </trkpt>
      <trkpt lat="51.655096001923084" lon="9.352530995383859">
        <ele>112.13</ele>
        <time>2019-05-09T10:03:37Z</time>
      </trkpt>
      <trkpt lat="51.654899027198553" lon="9.352497970685363">
        <ele>112.61</ele>
        <time>2019-05-09T10:03:38Z</time>
      </trkpt>
      <trkpt lat="51.65470096282661" lon="9.352442985400558">
        <ele>113.56999999999999</ele>
        <time>2019-05-09T10:03:39Z</time>
      </trkpt>
      <trkpt lat="51.654501976445317" lon="9.352348018437624">
        <ele>114.53</ele>
        <time>2019-05-09T10:03:40Z</time>
      </trkpt>
      <trkpt lat="51.654298966750503" lon="9.352242993190885">
        <ele>115.01000000000001</ele>
        <time>2019-05-09T10:03:41Z</time>
      </trkpt>
      <trkpt lat="51.65184298530221" lon="9.350983025506139">
        <ele>125.59</ele>
        <time>2019-05-09T10:03:52Z</time>
      </trkpt>
      <trkpt lat="51.650998005643487" lon="9.350503999739885">
        <ele>131.36000000000001</ele>
        <time>2019-05-09T10:03:56Z</time>
      </trkpt>
      <trkpt lat="51.650809999555349" lon="9.350335020571947">
        <ele>133.28</ele>
        <time>2019-05-09T10:03:57Z</time>
      </trkpt>
      <trkpt lat="51.650627022609115" lon="9.350131005048752">
        <ele>134.72</ele>
        <time>2019-05-09T10:03:58Z</time>
      </trkpt>
      <trkpt lat="51.650457037612796" lon="9.34988901950419">
        <ele>136.63999999999999</ele>
        <time>2019-05-09T10:03:59Z</time>
      </trkpt>
      <trkpt lat="51.650285040959716" lon="9.349646028131247">
        <ele>139.05000000000001</ele>
        <time>2019-05-09T10:04:00Z</time>
      </trkpt>
      <trkpt lat="51.650112960487604" lon="9.349402030929923">
        <ele>140.97</ele>
        <time>2019-05-09T10:04:01Z</time>
      </trkpt>
      <trkpt lat="51.648531965911388" lon="9.347525993362069">
        <ele>152.50999999999999</ele>
        <time>2019-05-09T10:04:09Z</time>
      </trkpt>
      <trkpt lat="51.648059980943799" lon="9.347257018089294">
        <ele>155.38999999999999</ele>
        <time>2019-05-09T10:04:11Z</time>
      </trkpt>
      <trkpt lat="51.647816989570856" lon="9.347161967307329">
        <ele>157.31</ele>
        <time>2019-05-09T10:04:12Z</time>
      </trkpt>
      <trkpt lat="51.645837016403675" lon="9.346687970682979">
        <ele>171.25</ele>
        <time>2019-05-09T10:04:20Z</time>
      </trkpt>
      <trkpt lat="51.64561397396028" lon="9.346745973452926">
        <ele>172.69</ele>
        <time>2019-05-09T10:04:21Z</time>
      </trkpt>
      <trkpt lat="51.645403001457453" lon="9.346814034506679">
        <ele>174.13999999999999</ele>
        <time>2019-05-09T10:04:22Z</time>
      </trkpt>
      <trkpt lat="51.645191023126245" lon="9.346940014511347">
        <ele>175.58000000000001</ele>
        <time>2019-05-09T10:04:23Z</time>
      </trkpt>
      <trkpt lat="51.644976027309895" lon="9.347068006172776">
        <ele>177.02000000000001</ele>
        <time>2019-05-09T10:04:24Z</time>
      </trkpt>
      <trkpt lat="51.64329101331532" lon="9.34812898747623">
        <ele>190</ele>
        <time>2019-05-09T10:04:32Z</time>
      </trkpt>
      <trkpt lat="51.642755996435881" lon="9.348435010761023">
        <ele>195.77000000000001</ele>
        <time>2019-05-09T10:04:35Z</time>
      </trkpt>
      <trkpt lat="51.642572013661265" lon="9.348464012145996">
        <ele>197.69</ele>
        <time>2019-05-09T10:04:36Z</time>
      </trkpt>
      <trkpt lat="51.641130996868014" lon="9.348506005480886">
        <ele>210.66999999999999</ele>
        <time>2019-05-09T10:04:43Z</time>
      </trkpt>
      <trkpt lat="51.640968974679708" lon="9.348590997979045">
        <ele>212.59</ele>
        <time>2019-05-09T10:04:44Z</time>
      </trkpt>
      <trkpt lat="51.640635039657354" lon="9.348765006288886">
        <ele>217.40000000000001</ele>
        <time>2019-05-09T10:04:47Z</time>
      </trkpt>
      <trkpt lat="51.640460025519133" lon="9.348802976310253">
        <ele>218.84</ele>
        <time>2019-05-09T10:04:48Z</time>
      </trkpt>
      <trkpt lat="51.640387019142509" lon="9.348764000460506">
        <ele>219.80000000000001</ele>
        <time>2019-05-09T10:04:49Z</time>
      </trkpt>
      <trkpt lat="51.640334967523813" lon="9.348722007125616">
        <ele>220.75999999999999</ele>
        <time>2019-05-09T10:04:50Z</time>
      </trkpt>
      <trkpt lat="51.64032599888742" lon="9.348626034334302">
        <ele>221.24000000000001</ele>
        <time>2019-05-09T10:04:51Z</time>
      </trkpt>
      <trkpt lat="51.640316024422646" lon="9.348518997430801">
        <ele>222.19999999999999</ele>
        <time>2019-05-09T10:04:52Z</time>
      </trkpt>
      <trkpt lat="51.640313006937504" lon="9.348485972732306">
        <ele>222.68000000000001</ele>
        <time>2019-05-09T10:04:53Z</time>
      </trkpt>
      <trkpt lat="51.640393976122141" lon="9.348324034363031">
        <ele>223.16</ele>
        <time>2019-05-09T10:04:54Z</time>
      </trkpt>
      <trkpt lat="51.640469999983907" lon="9.348285980522633">
        <ele>224.12</ele>
        <time>2019-05-09T10:04:55Z</time>
      </trkpt>
      <trkpt lat="51.640580976381898" lon="9.348240969702601">
        <ele>224.61000000000001</ele>
        <time>2019-05-09T10:04:56Z</time>
      </trkpt>
      <trkpt lat="51.640710979700089" lon="9.348187996074557">
        <ele>225.09</ele>
        <time>2019-05-09T10:04:57Z</time>
      </trkpt>
      <trkpt lat="51.640851041302085" lon="9.348130999132991">
        <ele>226.05000000000001</ele>
        <time>2019-05-09T10:04:58Z</time>
      </trkpt>
      <trkpt lat="51.642075972631574" lon="9.34763596393168">
        <ele>231.81</ele>
        <time>2019-05-09T10:05:05Z</time>
      </trkpt>
      <trkpt lat="51.642381995916367" lon="9.347460027784109">
        <ele>233.74000000000001</ele>
        <time>2019-05-09T10:05:07Z</time>
      </trkpt>
      <trkpt lat="51.642493978142738" lon="9.34733597561717">
        <ele>234.69999999999999</ele>
        <time>2019-05-09T10:05:08Z</time>
      </trkpt>
      <trkpt lat="51.642531026154757" lon="9.347204966470599">
        <ele>235.66</ele>
        <time>2019-05-09T10:05:09Z</time>
      </trkpt>
      <trkpt lat="51.642572013661265" lon="9.347030036151409">
        <ele>237.09999999999999</ele>
        <time>2019-05-09T10:05:10Z</time>
      </trkpt>
      <trkpt lat="51.642574025318027" lon="9.346872037276626">
        <ele>238.06</ele>
        <time>2019-05-09T10:05:11Z</time>
      </trkpt>
      <trkpt lat="51.642542006447911" lon="9.346652012318373">
        <ele>239.02000000000001</ele>
        <time>2019-05-09T10:05:12Z</time>
      </trkpt>
      <trkpt lat="51.642505964264274" lon="9.346411032602191">
        <ele>239.99000000000001</ele>
        <time>2019-05-09T10:05:13Z</time>
      </trkpt>
      <trkpt lat="51.642466988414526" lon="9.346141973510385">
        <ele>241.43000000000001</ele>
        <time>2019-05-09T10:05:14Z</time>
      </trkpt>
      <trkpt lat="51.642365986481309" lon="9.345222981646657">
        <ele>245.27000000000001</ele>
        <time>2019-05-09T10:05:17Z</time>
      </trkpt>
      <trkpt lat="51.642365986481309" lon="9.344880999997258">
        <ele>246.22999999999999</ele>
        <time>2019-05-09T10:05:18Z</time>
      </trkpt>
      <trkpt lat="51.642404040321708" lon="9.344549998641014">
        <ele>247.68000000000001</ele>
        <time>2019-05-09T10:05:19Z</time>
      </trkpt>
      <trkpt lat="51.642448967322707" lon="9.344210028648377">
        <ele>248.63999999999999</ele>
        <time>2019-05-09T10:05:20Z</time>
      </trkpt>
      <trkpt lat="51.642523985356092" lon="9.343900987878442">
        <ele>250.08000000000001</ele>
        <time>2019-05-09T10:05:21Z</time>
      </trkpt>
      <trkpt lat="51.642657006159425" lon="9.343345016241074">
        <ele>252.47999999999999</ele>
        <time>2019-05-09T10:05:23Z</time>
      </trkpt>
      <trkpt lat="51.642717020586133" lon="9.34310001321137">
        <ele>253.44</ele>
        <time>2019-05-09T10:05:24Z</time>
      </trkpt>
      <trkpt lat="51.642796983942389" lon="9.342978978529573">
        <ele>254.41</ele>
        <time>2019-05-09T10:05:25Z</time>
      </trkpt>
      <trkpt lat="51.642893040552735" lon="9.3428860232234">
        <ele>255.37</ele>
        <time>2019-05-09T10:05:26Z</time>
      </trkpt>
      <trkpt lat="51.642994964495301" lon="9.34284201823175">
        <ele>256.32999999999998</ele>
        <time>2019-05-09T10:05:27Z</time>
      </trkpt>
      <trkpt lat="51.64311901666224" lon="9.342903960496187">
        <ele>257.29000000000002</ele>
        <time>2019-05-09T10:05:28Z</time>
      </trkpt>
      <trkpt lat="51.643241979181767" lon="9.342988030984998">
        <ele>257.76999999999998</ele>
        <time>2019-05-09T10:05:29Z</time>
      </trkpt>
      <trkpt lat="51.643358990550041" lon="9.343127002939582">
        <ele>258.73000000000002</ele>
        <time>2019-05-09T10:05:30Z</time>
      </trkpt>
      <trkpt lat="51.643480025231838" lon="9.343271004036069">
        <ele>259.20999999999998</ele>
        <time>2019-05-09T10:05:31Z</time>
      </trkpt>
      <trkpt lat="51.643593013286591" lon="9.343406036496162">
        <ele>260.17000000000002</ele>
        <time>2019-05-09T10:05:32Z</time>
      </trkpt>
      <trkpt lat="51.643699966371059" lon="9.343491028994322">
        <ele>261.13999999999999</ele>
        <time>2019-05-09T10:05:33Z</time>
      </trkpt>
      <trkpt lat="51.643813960254192" lon="9.343505026772618">
        <ele>261.62</ele>
        <time>2019-05-09T10:05:34Z</time>
      </trkpt>
      <trkpt lat="51.643902976065874" lon="9.343436965718865">
        <ele>262.57999999999998</ele>
        <time>2019-05-09T10:05:35Z</time>
      </trkpt>
      <trkpt lat="51.643983023241162" lon="9.343357002362609">
        <ele>263.54000000000002</ele>
        <time>2019-05-09T10:05:36Z</time>
      </trkpt>
      <trkpt lat="51.644015964120626" lon="9.343180982396007">
        <ele>264.5</ele>
        <time>2019-05-09T10:05:37Z</time>
      </trkpt>
      <trkpt lat="51.644046977162361" lon="9.34301401488483">
        <ele>264.98000000000002</ele>
        <time>2019-05-09T10:05:38Z</time>
      </trkpt>
      <trkpt lat="51.643998026847839" lon="9.342866996303201">
        <ele>265.45999999999998</ele>
        <time>2019-05-09T10:05:39Z</time>
      </trkpt>
      <trkpt lat="51.643932983279228" lon="9.342728024348617">
        <ele>265.94</ele>
        <time>2019-05-09T10:05:40Z</time>
      </trkpt>
      <trkpt lat="51.643814966082573" lon="9.342610007151961">
        <ele>266.42000000000002</ele>
        <time>2019-05-09T10:05:41Z</time>
      </trkpt>
      <trkpt lat="51.643660990521312" lon="9.3424560315907">
        <ele>267.38</ele>
        <time>2019-05-09T10:05:42Z</time>
      </trkpt>
      <trkpt lat="51.64352604188025" lon="9.342382019385696">
        <ele>267.86000000000001</ele>
        <time>2019-05-09T10:05:43Z</time>
      </trkpt>
      <trkpt lat="51.643352033570409" lon="9.342287974432111">
        <ele>268.35000000000002</ele>
        <time>2019-05-09T10:05:44Z</time>
      </trkpt>
      <trkpt lat="51.643165033310652" lon="9.342194013297558">
        <ele>269.31</ele>
        <time>2019-05-09T10:05:45Z</time>
      </trkpt>
      <trkpt lat="51.642962023615837" lon="9.342158976942301">
        <ele>270.26999999999998</ele>
        <time>2019-05-09T10:05:46Z</time>
      </trkpt>
      <trkpt lat="51.642744010314345" lon="9.342121006920934">
        <ele>271.23000000000002</ele>
        <time>2019-05-09T10:05:47Z</time>
      </trkpt>
      <trkpt lat="51.642516022548079" lon="9.342150008305907">
        <ele>272.19</ele>
        <time>2019-05-09T10:05:48Z</time>
      </trkpt>
      <trkpt lat="51.64228099398315" lon="9.342198958620429">
        <ele>273.14999999999998</ele>
        <time>2019-05-09T10:05:49Z</time>
      </trkpt>
      <trkpt lat="51.642041020095348" lon="9.342248998582363">
        <ele>274.11000000000001</ele>
        <time>2019-05-09T10:05:50Z</time>
      </trkpt>
      <trkpt lat="51.639516977593303" lon="9.342774040997028">
        <ele>287.08999999999997</ele>
        <time>2019-05-09T10:06:00Z</time>
      </trkpt>
      <trkpt lat="51.638549035415053" lon="9.342625010758638">
        <ele>290.94</ele>
        <time>2019-05-09T10:06:04Z</time>
      </trkpt>
      <trkpt lat="51.638311995193362" lon="9.342506993561983">
        <ele>291.89999999999998</ele>
        <time>2019-05-09T10:06:05Z</time>
      </trkpt>
      <trkpt lat="51.638079984113574" lon="9.342341031879187">
        <ele>292.38</ele>
        <time>2019-05-09T10:06:06Z</time>
      </trkpt>
      <trkpt lat="51.635931031778455" lon="9.34048100374639">
        <ele>299.11000000000001</ele>
        <time>2019-05-09T10:06:15Z</time>
      </trkpt>
      <trkpt lat="51.633908981457353" lon="9.338199030607939">
        <ele>314.00999999999999</ele>
        <time>2019-05-09T10:06:24Z</time>
      </trkpt>
      <trkpt lat="51.632544994354248" lon="9.336466994136572">
        <ele>326.99000000000001</ele>
        <time>2019-05-09T10:06:31Z</time>
      </trkpt>
      <trkpt lat="51.632375009357929" lon="9.336332967504859">
        <ele>328.91000000000003</ele>
        <time>2019-05-09T10:06:32Z</time>
      </trkpt>
      <trkpt lat="51.632203012704849" lon="9.336261972784996">
        <ele>329.87</ele>
        <time>2019-05-09T10:06:33Z</time>
      </trkpt>
      <trkpt lat="51.632024981081486" lon="9.336213022470474">
        <ele>331.31</ele>
        <time>2019-05-09T10:06:34Z</time>
      </trkpt>
      <trkpt lat="51.631852984428406" lon="9.33622601442039">
        <ele>332.26999999999998</ele>
        <time>2019-05-09T10:06:35Z</time>
      </trkpt>
      <trkpt lat="51.631672019138932" lon="9.336298014968634">
        <ele>333.23000000000002</ele>
        <time>2019-05-09T10:06:36Z</time>
      </trkpt>
      <trkpt lat="51.631486024707556" lon="9.336371021345258">
        <ele>334.19999999999999</ele>
        <time>2019-05-09T10:06:37Z</time>
      </trkpt>
      <trkpt lat="51.631300030276179" lon="9.336469005793333">
        <ele>335.16000000000003</ele>
        <time>2019-05-09T10:06:38Z</time>
      </trkpt>
      <trkpt lat="51.631113030016422" lon="9.336647959426045">
        <ele>336.12</ele>
        <time>2019-05-09T10:06:39Z</time>
      </trkpt>
      <trkpt lat="51.630919994786382" lon="9.336834037676454">
        <ele>337.07999999999998</ele>
        <time>2019-05-09T10:06:40Z</time>
      </trkpt>
      <trkpt lat="51.629815008491278" lon="9.338129041716456">
        <ele>341.88999999999999</ele>
        <time>2019-05-09T10:06:46Z</time>
      </trkpt>
      <trkpt lat="51.629679976031184" lon="9.338389970362186">
        <ele>342.85000000000002</ele>
        <time>2019-05-09T10:06:47Z</time>
      </trkpt>
      <trkpt lat="51.62956397049129" lon="9.338698005303741">
        <ele>343.81</ele>
        <time>2019-05-09T10:06:48Z</time>
      </trkpt>
      <trkpt lat="51.629466991871595" lon="9.339035963639617">
        <ele>344.29000000000002</ele>
        <time>2019-05-09T10:06:49Z</time>
      </trkpt>
      <trkpt lat="51.629385016858578" lon="9.339400995522738">
        <ele>344.76999999999998</ele>
        <time>2019-05-09T10:06:50Z</time>
      </trkpt>
      <trkpt lat="51.629308992996812" lon="9.339786982163787">
        <ele>345.25</ele>
        <time>2019-05-09T10:06:51Z</time>
      </trkpt>
      <trkpt lat="51.628781016916037" lon="9.342379001900554">
        <ele>347.64999999999998</ele>
        <time>2019-05-09T10:06:58Z</time>
      </trkpt>
      <trkpt lat="51.628694012761116" lon="9.342653006315231">
        <ele>347.64999999999998</ele>
        <time>2019-05-09T10:06:59Z</time>
      </trkpt>
      <trkpt lat="51.628584964200854" lon="9.342880994081497">
        <ele>348.13</ele>
        <time>2019-05-09T10:07:00Z</time>
      </trkpt>
      <trkpt lat="51.628463007509708" lon="9.343078974634409">
        <ele>348.62</ele>
        <time>2019-05-09T10:07:01Z</time>
      </trkpt>
      <trkpt lat="51.628319006413221" lon="9.34320998378098">
        <ele>349.10000000000002</ele>
        <time>2019-05-09T10:07:02Z</time>
      </trkpt>
      <trkpt lat="51.62816503085196" lon="9.343298999592662">
        <ele>349.10000000000002</ele>
        <time>2019-05-09T10:07:03Z</time>
      </trkpt>
      <trkpt lat="51.628002002835274" lon="9.343372005969286">
        <ele>350.06</ele>
        <time>2019-05-09T10:07:04Z</time>
      </trkpt>
      <trkpt lat="51.627833023667336" lon="9.34342104010284">
        <ele>350.54000000000002</ele>
        <time>2019-05-09T10:07:05Z</time>
      </trkpt>
      <trkpt lat="51.627654992043972" lon="9.343417016789317">
        <ele>351.5</ele>
        <time>2019-05-09T10:07:06Z</time>
      </trkpt>
      <trkpt lat="51.626259991899133" lon="9.343220964074135">
        <ele>357.75</ele>
        <time>2019-05-09T10:07:13Z</time>
      </trkpt>
      <trkpt lat="51.625039000064135" lon="9.34247899800539">
        <ele>359.19</ele>
        <time>2019-05-09T10:07:20Z</time>
      </trkpt>
      <trkpt lat="51.624109027907252" lon="9.34198597446084">
        <ele>359.67000000000002</ele>
        <time>2019-05-09T10:07:28Z</time>
      </trkpt>
      <trkpt lat="51.622960036620498" lon="9.341451041400433">
        <ele>358.70999999999998</ele>
        <time>2019-05-09T10:07:40Z</time>
      </trkpt>
      <trkpt lat="51.622783010825515" lon="9.341330006718636">
        <ele>358.23000000000002</ele>
        <time>2019-05-09T10:07:41Z</time>
      </trkpt>
      <trkpt lat="51.622712016105652" lon="9.341240990906954">
        <ele>358.23000000000002</ele>
        <time>2019-05-09T10:07:42Z</time>
      </trkpt>
      <trkpt lat="51.622644038870931" lon="9.341155998408794">
        <ele>357.26999999999998</ele>
        <time>2019-05-09T10:07:43Z</time>
      </trkpt>
      <trkpt lat="51.622458966448903" lon="9.340914012864232">
        <ele>355.33999999999997</ele>
        <time>2019-05-09T10:07:46Z</time>
      </trkpt>
      <trkpt lat="51.622402975335717" lon="9.340818962082267">
        <ele>354.86000000000001</ele>
        <time>2019-05-09T10:07:47Z</time>
      </trkpt>
      <trkpt lat="51.622282024472952" lon="9.340612012892962">
        <ele>353.42000000000002</ele>
        <time>2019-05-09T10:07:49Z</time>
      </trkpt>
      <trkpt lat="51.6220429725945" lon="9.340231977403164">
        <ele>351.98000000000002</ele>
        <time>2019-05-09T10:07:54Z</time>
      </trkpt>
      <trkpt lat="51.622012965381145" lon="9.340186966583133">
        <ele>351.5</ele>
        <time>2019-05-09T10:07:55Z</time>
      </trkpt>
      <trkpt lat="51.621989998966455" lon="9.340124018490315">
        <ele>351.01999999999998</ele>
        <time>2019-05-09T10:07:56Z</time>
      </trkpt>
      <trkpt lat="51.621966026723385" lon="9.340054029598832">
        <ele>351.01999999999998</ele>
        <time>2019-05-09T10:07:57Z</time>
      </trkpt>
      <trkpt lat="51.621936019510031" lon="9.339966019615531">
        <ele>351.01999999999998</ele>
        <time>2019-05-09T10:07:58Z</time>
      </trkpt>
      <trkpt lat="51.621867036446929" lon="9.339765021577478">
        <ele>350.54000000000002</ele>
        <time>2019-05-09T10:08:00Z</time>
      </trkpt>
      <trkpt lat="51.621829988434911" lon="9.339654967188835">
        <ele>350.54000000000002</ele>
        <time>2019-05-09T10:08:01Z</time>
      </trkpt>
      <trkpt lat="51.621792018413544" lon="9.339544996619225">
        <ele>350.54000000000002</ele>
        <time>2019-05-09T10:08:02Z</time>
      </trkpt>
      <trkpt lat="51.621752958744764" lon="9.339429996907711">
        <ele>350.06</ele>
        <time>2019-05-09T10:08:03Z</time>
      </trkpt>
      <trkpt lat="51.621718006208539" lon="9.339305022731423">
        <ele>350.54000000000002</ele>
        <time>2019-05-09T10:08:04Z</time>
      </trkpt>
      <trkpt lat="51.621690010651946" lon="9.339178958907723">
        <ele>350.54000000000002</ele>
        <time>2019-05-09T10:08:05Z</time>
      </trkpt>
      <trkpt lat="51.621664026752114" lon="9.339057002216578">
        <ele>350.54000000000002</ele>
        <time>2019-05-09T10:08:06Z</time>
      </trkpt>
      <trkpt lat="51.621640976518393" lon="9.338949965313077">
        <ele>351.01999999999998</ele>
        <time>2019-05-09T10:08:07Z</time>
      </trkpt>
      <trkpt lat="51.621583979576826" lon="9.338684007525444">
        <ele>351.5</ele>
        <time>2019-05-09T10:08:10Z</time>
      </trkpt>
      <trkpt lat="51.621559001505375" lon="9.338572025299072">
        <ele>351.5</ele>
        <time>2019-05-09T10:08:11Z</time>
      </trkpt>
      <trkpt lat="51.621537040919065" lon="9.338520979508758">
        <ele>351.5</ele>
        <time>2019-05-09T10:08:12Z</time>
      </trkpt>
      <trkpt lat="51.621503010392189" lon="9.338442021980882">
        <ele>351.5</ele>
        <time>2019-05-09T10:08:13Z</time>
      </trkpt>
      <trkpt lat="51.621450036764145" lon="9.338376978412271">
        <ele>351.98000000000002</ele>
        <time>2019-05-09T10:08:14Z</time>
      </trkpt>
      <trkpt lat="51.621390022337437" lon="9.338316963985562">
        <ele>351.98000000000002</ele>
        <time>2019-05-09T10:08:15Z</time>
      </trkpt>
      <trkpt lat="51.621321961283684" lon="9.338248986750841">
        <ele>351.5</ele>
        <time>2019-05-09T10:08:17Z</time>
      </trkpt>
      <trkpt lat="51.621216014027596" lon="9.338143039494753">
        <ele>351.01999999999998</ele>
        <time>2019-05-09T10:08:18Z</time>
      </trkpt>
      <trkpt lat="51.621135966852307" lon="9.338010018691421">
        <ele>351.01999999999998</ele>
        <time>2019-05-09T10:08:19Z</time>
      </trkpt>
      <trkpt lat="51.621078969910741" lon="9.337913962081075">
        <ele>351.01999999999998</ele>
        <time>2019-05-09T10:08:20Z</time>
      </trkpt>
      <trkpt lat="51.621021972969174" lon="9.337818995118141">
        <ele>350.54000000000002</ele>
        <time>2019-05-09T10:08:21Z</time>
      </trkpt>
      <trkpt lat="51.62099196575582" lon="9.337681028991938">
        <ele>350.54000000000002</ele>
        <time>2019-05-09T10:08:22Z</time>
      </trkpt>
      <trkpt lat="51.620961958542466" lon="9.337540967389941">
        <ele>350.06</ele>
        <time>2019-05-09T10:08:23Z</time>
      </trkpt>
      <trkpt lat="51.620930023491383" lon="9.337396966293454">
        <ele>350.06</ele>
        <time>2019-05-09T10:08:24Z</time>
      </trkpt>
      <trkpt lat="51.620599022135139" lon="9.336395999416709">
        <ele>351.01999999999998</ele>
        <time>2019-05-09T10:08:31Z</time>
      </trkpt>
      <trkpt lat="51.62051796913147" lon="9.336289968341589">
        <ele>351.01999999999998</ele>
        <time>2019-05-09T10:08:32Z</time>
      </trkpt>
      <trkpt lat="51.620439011603594" lon="9.336191983893514">
        <ele>351.01999999999998</ele>
        <time>2019-05-09T10:08:33Z</time>
      </trkpt>
      <trkpt lat="51.620358964428306" lon="9.336091987788677">
        <ele>351.5</ele>
        <time>2019-05-09T10:08:34Z</time>
      </trkpt>
      <trkpt lat="51.620273971930146" lon="9.335985034704208">
        <ele>351.98000000000002</ele>
        <time>2019-05-09T10:08:36Z</time>
      </trkpt>
      <trkpt lat="51.619222965091467" lon="9.334676032885909">
        <ele>351.98000000000002</ele>
        <time>2019-05-09T10:08:46Z</time>
      </trkpt>
      <trkpt lat="51.618000967428088" lon="9.333288995549083">
        <ele>348.13</ele>
        <time>2019-05-09T10:08:54Z</time>
      </trkpt>
      <trkpt lat="51.616335986182094" lon="9.331591995432973">
        <ele>336.12</ele>
        <time>2019-05-09T10:09:02Z</time>
      </trkpt>
      <trkpt lat="51.61521197296679" lon="9.330592034384608">
        <ele>328.43000000000001</ele>
        <time>2019-05-09T10:09:07Z</time>
      </trkpt>
      <trkpt lat="51.614977028220892" lon="9.330477034673095">
        <ele>326.99000000000001</ele>
        <time>2019-05-09T10:09:08Z</time>
      </trkpt>
      <trkpt lat="51.61293301731348" lon="9.329925002530217">
        <ele>316.41000000000003</ele>
        <time>2019-05-09T10:09:16Z</time>
      </trkpt>
      <trkpt lat="51.612691031768918" lon="9.329979987815023">
        <ele>315.44999999999999</ele>
        <time>2019-05-09T10:09:17Z</time>
      </trkpt>
      <trkpt lat="51.609934978187084" lon="9.33051098138094">
        <ele>311.12</ele>
        <time>2019-05-09T10:09:28Z</time>
      </trkpt>
      <trkpt lat="51.609341036528349" lon="9.330521039664745">
        <ele>310.16000000000003</ele>
        <time>2019-05-09T10:09:31Z</time>
      </trkpt>
      <trkpt lat="51.60915001295507" lon="9.330439986661077">
        <ele>309.68000000000001</ele>
        <time>2019-05-09T10:09:32Z</time>
      </trkpt>
      <trkpt lat="51.607763981446624" lon="9.329845039173961">
        <ele>305.36000000000001</ele>
        <time>2019-05-09T10:09:38Z</time>
      </trkpt>
      <trkpt lat="51.605115970596671" lon="9.328711973503232">
        <ele>299.58999999999997</ele>
        <time>2019-05-09T10:09:48Z</time>
      </trkpt>
      <trkpt lat="51.602656971663237" lon="9.327728021889925">
        <ele>292.86000000000001</ele>
        <time>2019-05-09T10:09:57Z</time>
      </trkpt>
      <trkpt lat="51.601000959053636" lon="9.327044980600476">
        <ele>281.80000000000001</ele>
        <time>2019-05-09T10:10:04Z</time>
      </trkpt>
      <trkpt lat="51.598599962890148" lon="9.326088018715382">
        <ele>274.58999999999997</ele>
        <time>2019-05-09T10:10:14Z</time>
      </trkpt>
      <trkpt lat="51.595933008939028" lon="9.325026031583548">
        <ele>272.67000000000002</ele>
        <time>2019-05-09T10:10:24Z</time>
      </trkpt>
      <trkpt lat="51.593173015862703" lon="9.323905035853386">
        <ele>265.94</ele>
        <time>2019-05-09T10:10:34Z</time>
      </trkpt>
      <trkpt lat="51.592148998752236" lon="9.323308998718858">
        <ele>267.38</ele>
        <time>2019-05-09T10:10:39Z</time>
      </trkpt>
      <trkpt lat="51.591972978785634" lon="9.323104983195663">
        <ele>267.38</ele>
        <time>2019-05-09T10:10:40Z</time>
      </trkpt>
      <trkpt lat="51.591799976304173" lon="9.322870038449764">
        <ele>267.86000000000001</ele>
        <time>2019-05-09T10:10:41Z</time>
      </trkpt>
      <trkpt lat="51.59007104113698" lon="9.320508018136025">
        <ele>270.26999999999998</ele>
        <time>2019-05-09T10:10:50Z</time>
      </trkpt>
      <trkpt lat="51.588106993585825" lon="9.318040972575545">
        <ele>267.86000000000001</ele>
        <time>2019-05-09T10:10:59Z</time>
      </trkpt>
      <trkpt lat="51.585187995806336" lon="9.31523596867919">
        <ele>253.93000000000001</ele>
        <time>2019-05-09T10:11:11Z</time>
      </trkpt>
      <trkpt lat="51.581795001402497" lon="9.311993010342121">
        <ele>240.47</ele>
        <time>2019-05-09T10:11:25Z</time>
      </trkpt>
      <trkpt lat="51.58010495826602" lon="9.310266003012657">
        <ele>237.58000000000001</ele>
        <time>2019-05-09T10:11:33Z</time>
      </trkpt>
      <trkpt lat="51.578795034438372" lon="9.308411004021764">
        <ele>234.69999999999999</ele>
        <time>2019-05-09T10:11:40Z</time>
      </trkpt>
      <trkpt lat="51.578081985935569" lon="9.307428980246186">
        <ele>231.81</ele>
        <time>2019-05-09T10:11:45Z</time>
      </trkpt>
      <trkpt lat="51.577933961525559" lon="9.307289002463222">
        <ele>231.33000000000001</ele>
        <time>2019-05-09T10:11:46Z</time>
      </trkpt>
      <trkpt lat="51.577778980135918" lon="9.307195041328669">
        <ele>230.37</ele>
        <time>2019-05-09T10:11:47Z</time>
      </trkpt>
      <trkpt lat="51.577248992398381" lon="9.306872002780438">
        <ele>229.88999999999999</ele>
        <time>2019-05-09T10:11:51Z</time>
      </trkpt>
      <trkpt lat="51.577137010172009" lon="9.306803019717336">
        <ele>230.37</ele>
        <time>2019-05-09T10:11:52Z</time>
      </trkpt>
      <trkpt lat="51.577032990753651" lon="9.306763038039208">
        <ele>230.37</ele>
        <time>2019-05-09T10:11:53Z</time>
      </trkpt>
      <trkpt lat="51.576931988820434" lon="9.30672800168395">
        <ele>230.37</ele>
        <time>2019-05-09T10:11:54Z</time>
      </trkpt>
      <trkpt lat="51.576832998543978" lon="9.306693971157074">
        <ele>230.37</ele>
        <time>2019-05-09T10:11:55Z</time>
      </trkpt>
      <trkpt lat="51.576180970296264" lon="9.306481992825866">
        <ele>228.44999999999999</ele>
        <time>2019-05-09T10:12:03Z</time>
      </trkpt>
      <trkpt lat="51.575940996408463" lon="9.306328017264605">
        <ele>228.44999999999999</ele>
        <time>2019-05-09T10:12:06Z</time>
      </trkpt>
      <trkpt lat="51.575861033052206" lon="9.3062540050596">
        <ele>227.97</ele>
        <time>2019-05-09T10:12:07Z</time>
      </trkpt>
      <trkpt lat="51.57559297978878" lon="9.305915962904692">
        <ele>227.00999999999999</ele>
        <time>2019-05-09T10:12:10Z</time>
      </trkpt>
      <trkpt lat="51.575489966198802" lon="9.305785037577152">
        <ele>227.00999999999999</ele>
        <time>2019-05-09T10:12:11Z</time>
      </trkpt>
      <trkpt lat="51.575434980913997" lon="9.305640030652285">
        <ele>226.53</ele>
        <time>2019-05-09T10:12:12Z</time>
      </trkpt>
      <trkpt lat="51.57537697814405" lon="9.305484965443611">
        <ele>226.53</ele>
        <time>2019-05-09T10:12:13Z</time>
      </trkpt>
      <trkpt lat="51.575353005900979" lon="9.305297965183854">
        <ele>226.05000000000001</ele>
        <time>2019-05-09T10:12:14Z</time>
      </trkpt>
      <trkpt lat="51.575344037264585" lon="9.305126974359155">
        <ele>226.05000000000001</ele>
        <time>2019-05-09T10:12:15Z</time>
      </trkpt>
      <trkpt lat="51.575361974537373" lon="9.304937962442637">
        <ele>226.05000000000001</ele>
        <time>2019-05-09T10:12:16Z</time>
      </trkpt>
      <trkpt lat="51.575402040034533" lon="9.304768983274698">
        <ele>226.05000000000001</ele>
        <time>2019-05-09T10:12:17Z</time>
      </trkpt>
      <trkpt lat="51.575446967035532" lon="9.304582988843322">
        <ele>226.53</ele>
        <time>2019-05-09T10:12:18Z</time>
      </trkpt>
      <trkpt lat="51.575504969805479" lon="9.304413003847003">
        <ele>227.00999999999999</ele>
        <time>2019-05-09T10:12:19Z</time>
      </trkpt>
      <trkpt lat="51.575624998658895" lon="9.304064987227321">
        <ele>227.49000000000001</ele>
        <time>2019-05-09T10:12:21Z</time>
      </trkpt>
      <trkpt lat="51.575687024742365" lon="9.303886033594608">
        <ele>227.97</ele>
        <time>2019-05-09T10:12:22Z</time>
      </trkpt>
      <trkpt lat="51.575752990320325" lon="9.303712025284767">
        <ele>228.44999999999999</ele>
        <time>2019-05-09T10:12:23Z</time>
      </trkpt>
      <trkpt lat="51.575975026935339" lon="9.302967041730881">
        <ele>230.37</ele>
        <time>2019-05-09T10:12:27Z</time>
      </trkpt>
      <trkpt lat="51.576005034148693" lon="9.302765959873796">
        <ele>230.84999999999999</ele>
        <time>2019-05-09T10:12:28Z</time>
      </trkpt>
      <trkpt lat="51.576007967814803" lon="9.302544007077813">
        <ele>231.33000000000001</ele>
        <time>2019-05-09T10:12:29Z</time>
      </trkpt>
      <trkpt lat="51.57604199834168" lon="9.299946036189795">
        <ele>236.13999999999999</ele>
        <time>2019-05-09T10:12:40Z</time>
      </trkpt>
      <trkpt lat="51.576058007776737" lon="9.297617040574551">
        <ele>239.50999999999999</ele>
        <time>2019-05-09T10:12:47Z</time>
      </trkpt>
      <trkpt lat="51.57608600333333" lon="9.294547000899911">
        <ele>239.99000000000001</ele>
        <time>2019-05-09T10:12:54Z</time>
      </trkpt>
      <trkpt lat="51.576113998889923" lon="9.29020500741899">
        <ele>237.09999999999999</ele>
        <time>2019-05-09T10:13:03Z</time>
      </trkpt>
      <trkpt lat="51.576136965304613" lon="9.284568009898067">
        <ele>236.13999999999999</ele>
        <time>2019-05-09T10:13:15Z</time>
      </trkpt>
      <trkpt lat="51.575853992253542" lon="9.280305979773402">
        <ele>231.33000000000001</ele>
        <time>2019-05-09T10:13:24Z</time>
      </trkpt>
      <trkpt lat="51.575153013691306" lon="9.273466011509299">
        <ele>215.47</ele>
        <time>2019-05-09T10:13:38Z</time>
      </trkpt>
      <trkpt lat="51.574686979874969" lon="9.268724033609033">
        <ele>207.30000000000001</ele>
        <time>2019-05-09T10:13:48Z</time>
      </trkpt>
      <trkpt lat="51.574104018509388" lon="9.263079995289445">
        <ele>209.22</ele>
        <time>2019-05-09T10:14:00Z</time>
      </trkpt>
      <trkpt lat="51.57378600910306" lon="9.260045997798443">
        <ele>211.15000000000001</ele>
        <time>2019-05-09T10:14:08Z</time>
      </trkpt>
      <trkpt lat="51.573347970843315" lon="9.255860997363925">
        <ele>209.69999999999999</ele>
        <time>2019-05-09T10:14:19Z</time>
      </trkpt>
      <trkpt lat="51.573116965591908" lon="9.253573995083571">
        <ele>207.30000000000001</ele>
        <time>2019-05-09T10:14:26Z</time>
      </trkpt>
      <trkpt lat="51.572925020009279" lon="9.252019990235567">
        <ele>207.78</ele>
        <time>2019-05-09T10:14:32Z</time>
      </trkpt>
      <trkpt lat="51.572868023067713" lon="9.251841958612204">
        <ele>207.78</ele>
        <time>2019-05-09T10:14:33Z</time>
      </trkpt>
      <trkpt lat="51.572746988385916" lon="9.251414984464645">
        <ele>208.74000000000001</ele>
        <time>2019-05-09T10:14:38Z</time>
      </trkpt>
      <trkpt lat="51.572744976729155" lon="9.251399980857968">
        <ele>209.22</ele>
        <time>2019-05-09T10:14:49Z</time>
      </trkpt>
      <trkpt lat="51.572639029473066" lon="9.251022040843964">
        <ele>211.15000000000001</ele>
        <time>2019-05-09T10:14:57Z</time>
      </trkpt>
      <trkpt lat="51.572583960369229" lon="9.251047018915415">
        <ele>211.15000000000001</ele>
        <time>2019-05-09T10:14:58Z</time>
      </trkpt>
      <trkpt lat="51.572514977306128" lon="9.25107903778553">
        <ele>210.66999999999999</ele>
        <time>2019-05-09T10:14:59Z</time>
      </trkpt>
      <trkpt lat="51.572439959272742" lon="9.251113990321755">
        <ele>210.66999999999999</ele>
        <time>2019-05-09T10:15:00Z</time>
      </trkpt>
      <trkpt lat="51.572353960946202" lon="9.251151038333774">
        <ele>210.66999999999999</ele>
        <time>2019-05-09T10:15:01Z</time>
      </trkpt>
      <trkpt lat="51.571881975978613" lon="9.25131700001657">
        <ele>210.66999999999999</ele>
        <time>2019-05-09T10:15:06Z</time>
      </trkpt>
      <trkpt lat="51.571772005409002" lon="9.251356981694698">
        <ele>211.15000000000001</ele>
        <time>2019-05-09T10:15:07Z</time>
      </trkpt>
      <trkpt lat="51.57165901735425" lon="9.251398975029588">
        <ele>211.63</ele>
        <time>2019-05-09T10:15:08Z</time>
      </trkpt>
      <trkpt lat="51.570595018565655" lon="9.251630986109376">
        <ele>214.03</ele>
        <time>2019-05-09T10:15:16Z</time>
      </trkpt>
      <trkpt lat="51.570303998887539" lon="9.251683037728071">
        <ele>213.55000000000001</ele>
        <time>2019-05-09T10:15:18Z</time>
      </trkpt>
      <trkpt lat="51.570147005841136" lon="9.251711033284664">
        <ele>213.55000000000001</ele>
        <time>2019-05-09T10:15:19Z</time>
      </trkpt>
      <trkpt lat="51.56849903985858" lon="9.251556973904371">
        <ele>212.59</ele>
        <time>2019-05-09T10:15:30Z</time>
      </trkpt>
      <trkpt lat="51.566760968416929" lon="9.250749964267016">
        <ele>212.11000000000001</ele>
        <time>2019-05-09T10:15:41Z</time>
      </trkpt>
      <trkpt lat="51.565181985497475" lon="9.249366028234363">
        <ele>214.03</ele>
        <time>2019-05-09T10:15:52Z</time>
      </trkpt>
      <trkpt lat="51.563905002549291" lon="9.247609013691545">
        <ele>216.91</ele>
        <time>2019-05-09T10:16:02Z</time>
      </trkpt>
      <trkpt lat="51.562726004049182" lon="9.245274988934398">
        <ele>218.84</ele>
        <time>2019-05-09T10:16:13Z</time>
      </trkpt>
      <trkpt lat="51.561868032440543" lon="9.243160989135504">
        <ele>217.40000000000001</ele>
        <time>2019-05-09T10:16:22Z</time>
      </trkpt>
      <trkpt lat="51.561034033074975" lon="9.240908017382026">
        <ele>217.88</ele>
        <time>2019-05-09T10:16:28Z</time>
      </trkpt>
      <trkpt lat="51.559663005173206" lon="9.237281000241637">
        <ele>219.31999999999999</ele>
        <time>2019-05-09T10:16:38Z</time>
      </trkpt>
      <trkpt lat="51.558074969798326" lon="9.233817011117935">
        <ele>216.91</ele>
        <time>2019-05-09T10:16:49Z</time>
      </trkpt>
      <trkpt lat="51.555977985262871" lon="9.230221007019281">
        <ele>213.55000000000001</ele>
        <time>2019-05-09T10:17:01Z</time>
      </trkpt>
      <trkpt lat="51.554019972681999" lon="9.227311983704567">
        <ele>209.69999999999999</ele>
        <time>2019-05-09T10:17:11Z</time>
      </trkpt>
      <trkpt lat="51.551395012065768" lon="9.22325799241662">
        <ele>200.09</ele>
        <time>2019-05-09T10:17:25Z</time>
      </trkpt>
      <trkpt lat="51.549372961744666" lon="9.219445986673236">
        <ele>188.56</ele>
        <time>2019-05-09T10:17:37Z</time>
      </trkpt>
      <trkpt lat="51.547737987712026" lon="9.21569500118494">
        <ele>181.34999999999999</ele>
        <time>2019-05-09T10:17:48Z</time>
      </trkpt>
      <trkpt lat="51.546194041147828" lon="9.211214035749435">
        <ele>175.58000000000001</ele>
        <time>2019-05-09T10:18:00Z</time>
      </trkpt>
      <trkpt lat="51.54510498046875" lon="9.207347966730595">
        <ele>175.58000000000001</ele>
        <time>2019-05-09T10:18:10Z</time>
      </trkpt>
      <trkpt lat="51.54405003413558" lon="9.203147040680051">
        <ele>177.97999999999999</ele>
        <time>2019-05-09T10:18:22Z</time>
      </trkpt>
      <trkpt lat="51.54269702732563" lon="9.198223007842898">
        <ele>179.41999999999999</ele>
        <time>2019-05-09T10:18:35Z</time>
      </trkpt>
      <trkpt lat="51.541006984189153" lon="9.193767020478845">
        <ele>182.31</ele>
        <time>2019-05-09T10:18:48Z</time>
      </trkpt>
      <trkpt lat="51.540188994258642" lon="9.191691996529698">
        <ele>182.31</ele>
        <time>2019-05-09T10:18:55Z</time>
      </trkpt>
      <trkpt lat="51.539177969098091" lon="9.188737962394953">
        <ele>184.22999999999999</ele>
        <time>2019-05-09T10:19:05Z</time>
      </trkpt>
      <trkpt lat="51.538323014974594" lon="9.185000974684954">
        <ele>189.03999999999999</ele>
        <time>2019-05-09T10:19:16Z</time>
      </trkpt>
      <trkpt lat="51.537814987823367" lon="9.181288965046406">
        <ele>189.03999999999999</ele>
        <time>2019-05-09T10:19:26Z</time>
      </trkpt>
      <trkpt lat="51.537258010357618" lon="9.176651006564498">
        <ele>191.91999999999999</ele>
        <time>2019-05-09T10:19:37Z</time>
      </trkpt>
      <trkpt lat="51.536644035950303" lon="9.171665031462908">
        <ele>194.80000000000001</ele>
        <time>2019-05-09T10:19:48Z</time>
      </trkpt>
      <trkpt lat="51.536068031564355" lon="9.168421989306808">
        <ele>190.47999999999999</ele>
        <time>2019-05-09T10:19:55Z</time>
      </trkpt>
      <trkpt lat="51.535925036296248" lon="9.166100034490228">
        <ele>188.56</ele>
        <time>2019-05-09T10:20:00Z</time>
      </trkpt>
      <trkpt lat="51.536125028505921" lon="9.160862015560269">
        <ele>191.44</ele>
        <time>2019-05-09T10:20:11Z</time>
      </trkpt>
      <trkpt lat="51.536356033757329" lon="9.155388968065381">
        <ele>204.90000000000001</ele>
        <time>2019-05-09T10:20:23Z</time>
      </trkpt>
      <trkpt lat="51.536299036815763" lon="9.153277985751629">
        <ele>210.19</ele>
        <time>2019-05-09T10:20:28Z</time>
      </trkpt>
      <trkpt lat="51.536232987418771" lon="9.15285000577569">
        <ele>210.66999999999999</ele>
        <time>2019-05-09T10:20:29Z</time>
      </trkpt>
      <trkpt lat="51.536137014627457" lon="9.15242001414299">
        <ele>211.63</ele>
        <time>2019-05-09T10:20:30Z</time>
      </trkpt>
      <trkpt lat="51.535276025533676" lon="9.148389995098114">
        <ele>215.47</ele>
        <time>2019-05-09T10:20:39Z</time>
      </trkpt>
      <trkpt lat="51.535230008885264" lon="9.147932007908821">
        <ele>215.47</ele>
        <time>2019-05-09T10:20:40Z</time>
      </trkpt>
      <trkpt lat="51.535188015550375" lon="9.14747703820467">
        <ele>215.94999999999999</ele>
        <time>2019-05-09T10:20:41Z</time>
      </trkpt>
      <trkpt lat="51.535014007240534" lon="9.144361987709999">
        <ele>218.84</ele>
        <time>2019-05-09T10:20:48Z</time>
      </trkpt>
      <trkpt lat="51.534691974520683" lon="9.14232300594449">
        <ele>222.19999999999999</ele>
        <time>2019-05-09T10:20:54Z</time>
      </trkpt>
      <trkpt lat="51.53425301425159" lon="9.141220031306148">
        <ele>226.05000000000001</ele>
        <time>2019-05-09T10:20:59Z</time>
      </trkpt>
      <trkpt lat="51.534200962632895" lon="9.141083993017674">
        <ele>227.00999999999999</ele>
        <time>2019-05-09T10:21:00Z</time>
      </trkpt>
      <trkpt lat="51.534187970682979" lon="9.140859022736549">
        <ele>227.97</ele>
        <time>2019-05-09T10:21:01Z</time>
      </trkpt>
      <trkpt lat="51.534244967624545" lon="9.140778975561261">
        <ele>228.44999999999999</ele>
        <time>2019-05-09T10:21:02Z</time>
      </trkpt>
      <trkpt lat="51.534320991486311" lon="9.140676967799664">
        <ele>229.41</ele>
        <time>2019-05-09T10:21:03Z</time>
      </trkpt>
      <trkpt lat="51.534409001469612" lon="9.140558028593659">
        <ele>230.37</ele>
        <time>2019-05-09T10:21:04Z</time>
      </trkpt>
      <trkpt lat="51.534618968144059" lon="9.140275977551937">
        <ele>231.33000000000001</ele>
        <time>2019-05-09T10:21:06Z</time>
      </trkpt>
      <trkpt lat="51.534742014482617" lon="9.140110015869141">
        <ele>232.30000000000001</ele>
        <time>2019-05-09T10:21:07Z</time>
      </trkpt>
      <trkpt lat="51.534790964797139" lon="9.139882028102875">
        <ele>232.78</ele>
        <time>2019-05-09T10:21:08Z</time>
      </trkpt>
      <trkpt lat="51.534842010587454" lon="9.139648005366325">
        <ele>233.74000000000001</ele>
        <time>2019-05-09T10:21:09Z</time>
      </trkpt>
      <trkpt lat="51.534828012809157" lon="9.13940099067986">
        <ele>234.69999999999999</ele>
        <time>2019-05-09T10:21:10Z</time>
      </trkpt>
      <trkpt lat="51.534804962575436" lon="9.139161016792059">
        <ele>235.66</ele>
        <time>2019-05-09T10:21:11Z</time>
      </trkpt>
      <trkpt lat="51.534762969240546" lon="9.13895096629858">
        <ele>236.62</ele>
        <time>2019-05-09T10:21:12Z</time>
      </trkpt>
      <trkpt lat="51.534682000055909" lon="9.138762960210443">
        <ele>237.58000000000001</ele>
        <time>2019-05-09T10:21:13Z</time>
      </trkpt>
      <trkpt lat="51.534612011164427" lon="9.138599010184407">
        <ele>238.06</ele>
        <time>2019-05-09T10:21:14Z</time>
      </trkpt>
      <trkpt lat="51.534550990909338" lon="9.138469006866217">
        <ele>238.53999999999999</ele>
        <time>2019-05-09T10:21:15Z</time>
      </trkpt>
      <trkpt lat="51.534502040594816" lon="9.138385020196438">
        <ele>239.02000000000001</ele>
        <time>2019-05-09T10:21:16Z</time>
      </trkpt>
      <trkpt lat="51.534472033381462" lon="9.138332968577743">
        <ele>239.50999999999999</ele>
        <time>2019-05-09T10:21:17Z</time>
      </trkpt>
      <trkpt lat="51.53444898314774" lon="9.138292986899614">
        <ele>239.50999999999999</ele>
        <time>2019-05-09T10:21:18Z</time>
      </trkpt>
      <trkpt lat="51.534396009519696" lon="9.138276977464557">
        <ele>239.99000000000001</ele>
        <time>2019-05-09T10:21:19Z</time>
      </trkpt>
      <trkpt lat="51.534349992871284" lon="9.138341015204787">
        <ele>239.99000000000001</ele>
        <time>2019-05-09T10:21:20Z</time>
      </trkpt>
      <trkpt lat="51.534284027293324" lon="9.138432964682579">
        <ele>240.47</ele>
        <time>2019-05-09T10:21:21Z</time>
      </trkpt>
      <trkpt lat="51.534197023138404" lon="9.138552993535996">
        <ele>240.47</ele>
        <time>2019-05-09T10:21:22Z</time>
      </trkpt>
      <trkpt lat="51.534093003720045" lon="9.13866899907589">
        <ele>240.94999999999999</ele>
        <time>2019-05-09T10:21:23Z</time>
      </trkpt>
      <trkpt lat="51.533709028735757" lon="9.13909999653697">
        <ele>241.91</ele>
        <time>2019-05-09T10:21:26Z</time>
      </trkpt>
      <trkpt lat="51.532541010528803" lon="9.140157960355282">
        <ele>241.91</ele>
        <time>2019-05-09T10:21:32Z</time>
      </trkpt>
      <trkpt lat="51.530707972124219" lon="9.141222964972258">
        <ele>240.94999999999999</ele>
        <time>2019-05-09T10:21:41Z</time>
      </trkpt>
      <trkpt lat="51.528794970363379" lon="9.142117984592915">
        <ele>238.53999999999999</ele>
        <time>2019-05-09T10:21:49Z</time>
      </trkpt>
      <trkpt lat="51.526422975584865" lon="9.142928011715412">
        <ele>234.22</ele>
        <time>2019-05-09T10:21:57Z</time>
      </trkpt>
      <trkpt lat="51.524474015459418" lon="9.143298994749785">
        <ele>229.41</ele>
        <time>2019-05-09T10:22:04Z</time>
      </trkpt>
      <trkpt lat="51.521285036578774" lon="9.143404019996524">
        <ele>224.12</ele>
        <time>2019-05-09T10:22:14Z</time>
      </trkpt>
      <trkpt lat="51.518418006598949" lon="9.143005041405559">
        <ele>219.80000000000001</ele>
        <time>2019-05-09T10:22:23Z</time>
      </trkpt>
      <trkpt lat="51.515245037153363" lon="9.141918998211622">
        <ele>215.94999999999999</ele>
        <time>2019-05-09T10:22:33Z</time>
      </trkpt>
      <trkpt lat="51.51356203481555" lon="9.141002018004656">
        <ele>214.03</ele>
        <time>2019-05-09T10:22:39Z</time>
      </trkpt>
      <trkpt lat="51.511851036921144" lon="9.139693016186357">
        <ele>212.11000000000001</ele>
        <time>2019-05-09T10:22:46Z</time>
      </trkpt>
      <trkpt lat="51.509592030197382" lon="9.137361003085971">
        <ele>211.15000000000001</ele>
        <time>2019-05-09T10:22:55Z</time>
      </trkpt>
      <trkpt lat="51.507531004026532" lon="9.134666975587606">
        <ele>214.03</ele>
        <time>2019-05-09T10:23:04Z</time>
      </trkpt>
      <trkpt lat="51.506057968363166" lon="9.132468989118934">
        <ele>214.99000000000001</ele>
        <time>2019-05-09T10:23:11Z</time>
      </trkpt>
      <trkpt lat="51.504850974306464" lon="9.130582977086306">
        <ele>213.06999999999999</ele>
        <time>2019-05-09T10:23:19Z</time>
      </trkpt>
      <trkpt lat="51.50301500223577" lon="9.127754000946879">
        <ele>211.63</ele>
        <time>2019-05-09T10:23:32Z</time>
      </trkpt>
      <trkpt lat="51.501627964898944" lon="9.12577997893095">
        <ele>213.55000000000001</ele>
        <time>2019-05-09T10:23:41Z</time>
      </trkpt>
      <trkpt lat="51.50024201720953" lon="9.12397401407361">
        <ele>215.94999999999999</ele>
        <time>2019-05-09T10:23:49Z</time>
      </trkpt>
      <trkpt lat="51.498621040955186" lon="9.122022036463022">
        <ele>217.40000000000001</ele>
        <time>2019-05-09T10:23:56Z</time>
      </trkpt>
      <trkpt lat="51.497580008581281" lon="9.120840020477772">
        <ele>217.40000000000001</ele>
        <time>2019-05-09T10:24:01Z</time>
      </trkpt>
      <trkpt lat="51.496420037001371" lon="9.119558008387685">
        <ele>216.91</ele>
        <time>2019-05-09T10:24:09Z</time>
      </trkpt>
      <trkpt lat="51.49478598497808" lon="9.11763503216207">
        <ele>210.19</ele>
        <time>2019-05-09T10:24:21Z</time>
      </trkpt>
      <trkpt lat="51.493070041760802" lon="9.11568003706634">
        <ele>199.13</ele>
        <time>2019-05-09T10:24:33Z</time>
      </trkpt>
      <trkpt lat="51.491958014667034" lon="9.114469019696116">
        <ele>194.31999999999999</ele>
        <time>2019-05-09T10:24:41Z</time>
      </trkpt>
      <trkpt lat="51.490374002605677" lon="9.113340983167291">
        <ele>185.66999999999999</ele>
        <time>2019-05-09T10:24:51Z</time>
      </trkpt>
      <trkpt lat="51.489056032150984" lon="9.112919038161635">
        <ele>178.46000000000001</ele>
        <time>2019-05-09T10:24:59Z</time>
      </trkpt>
      <trkpt lat="51.487970994785428" lon="9.112676968798041">
        <ele>174.62</ele>
        <time>2019-05-09T10:25:04Z</time>
      </trkpt>
      <trkpt lat="51.48627701215446" lon="9.1119400318712">
        <ele>171.72999999999999</ele>
        <time>2019-05-09T10:25:10Z</time>
      </trkpt>
      <trkpt lat="51.484348000958562" lon="9.110349984839559">
        <ele>169.81</ele>
        <time>2019-05-09T10:25:17Z</time>
      </trkpt>
      <trkpt lat="51.482183039188385" lon="9.108743006363511">
        <ele>174.13999999999999</ele>
        <time>2019-05-09T10:25:25Z</time>
      </trkpt>
      <trkpt lat="51.480422001332045" lon="9.108538990840316">
        <ele>182.31</ele>
        <time>2019-05-09T10:25:31Z</time>
      </trkpt>
      <trkpt lat="51.478076996281743" lon="9.109093034639955">
        <ele>196.25</ele>
        <time>2019-05-09T10:25:39Z</time>
      </trkpt>
      <trkpt lat="51.475773984566331" lon="9.109538029879332">
        <ele>212.59</ele>
        <time>2019-05-09T10:25:47Z</time>
      </trkpt>
      <trkpt lat="51.473693009465933" lon="9.109310964122415">
        <ele>228.93000000000001</ele>
        <time>2019-05-09T10:25:55Z</time>
      </trkpt>
      <trkpt lat="51.47192501462996" lon="9.108403036370874">
        <ele>233.25999999999999</ele>
        <time>2019-05-09T10:26:02Z</time>
      </trkpt>
      <trkpt lat="51.470234971493483" lon="9.107803981751204">
        <ele>230.84999999999999</ele>
        <time>2019-05-09T10:26:09Z</time>
      </trkpt>
      <trkpt lat="51.469984017312527" lon="9.10779501311481">
        <ele>229.88999999999999</ele>
        <time>2019-05-09T10:26:10Z</time>
      </trkpt>
      <trkpt lat="51.469725016504526" lon="9.107799958437681">
        <ele>228.93000000000001</ele>
        <time>2019-05-09T10:26:11Z</time>
      </trkpt>
      <trkpt lat="51.46945402957499" lon="9.107828959822655">
        <ele>227.97</ele>
        <time>2019-05-09T10:26:12Z</time>
      </trkpt>
      <trkpt lat="51.469189999625087" lon="9.107869025319815">
        <ele>226.53</ele>
        <time>2019-05-09T10:26:13Z</time>
      </trkpt>
      <trkpt lat="51.468934016302228" lon="9.107931973412633">
        <ele>225.09</ele>
        <time>2019-05-09T10:26:14Z</time>
      </trkpt>
      <trkpt lat="51.468676021322608" lon="9.108025012537837">
        <ele>223.16</ele>
        <time>2019-05-09T10:26:15Z</time>
      </trkpt>
      <trkpt lat="51.468420960009098" lon="9.108128026127815">
        <ele>221.24000000000001</ele>
        <time>2019-05-09T10:26:16Z</time>
      </trkpt>
      <trkpt lat="51.468164976686239" lon="9.108274038881064">
        <ele>219.80000000000001</ele>
        <time>2019-05-09T10:26:17Z</time>
      </trkpt>
      <trkpt lat="51.466666040942073" lon="9.109525959938765">
        <ele>208.74000000000001</ele>
        <time>2019-05-09T10:26:23Z</time>
      </trkpt>
      <trkpt lat="51.465342035517097" lon="9.11142697557807">
        <ele>201.53</ele>
        <time>2019-05-09T10:26:29Z</time>
      </trkpt>
      <trkpt lat="51.464120037853718" lon="9.112847037613392">
        <ele>196.72999999999999</ele>
        <time>2019-05-09T10:26:34Z</time>
      </trkpt>
      <trkpt lat="51.462411973625422" lon="9.113748008385301">
        <ele>192.40000000000001</ele>
        <time>2019-05-09T10:26:40Z</time>
      </trkpt>
      <trkpt lat="51.460658982396126" lon="9.113757982850075">
        <ele>193.36000000000001</ele>
        <time>2019-05-09T10:26:46Z</time>
      </trkpt>
      <trkpt lat="51.458891993388534" lon="9.113950012251735">
        <ele>196.25</ele>
        <time>2019-05-09T10:26:52Z</time>
      </trkpt>
      <trkpt lat="51.456164019182324" lon="9.114562980830669">
        <ele>192.88</ele>
        <time>2019-05-09T10:27:01Z</time>
      </trkpt>
      <trkpt lat="51.454771030694246" lon="9.114736989140511">
        <ele>190</ele>
        <time>2019-05-09T10:27:07Z</time>
      </trkpt>
      <trkpt lat="51.453392961993814" lon="9.115233030170202">
        <ele>186.15000000000001</ele>
        <time>2019-05-09T10:27:15Z</time>
      </trkpt>
      <trkpt lat="51.452287975698709" lon="9.115824960172176">
        <ele>182.78999999999999</ele>
        <time>2019-05-09T10:27:23Z</time>
      </trkpt>
      <trkpt lat="51.451163962483406" lon="9.116487968713045">
        <ele>180.38</ele>
        <time>2019-05-09T10:27:29Z</time>
      </trkpt>
      <trkpt lat="51.449002018198371" lon="9.11765699274838">
        <ele>177.5</ele>
        <time>2019-05-09T10:27:38Z</time>
      </trkpt>
      <trkpt lat="51.447472991421819" lon="9.118093019351363">
        <ele>177.5</ele>
        <time>2019-05-09T10:27:45Z</time>
      </trkpt>
      <trkpt lat="51.446198020130396" lon="9.118787040933967">
        <ele>178.46000000000001</ele>
        <time>2019-05-09T10:27:51Z</time>
      </trkpt>
      <trkpt lat="51.445968020707369" lon="9.119000025093556">
        <ele>178.46000000000001</ele>
        <time>2019-05-09T10:27:52Z</time>
      </trkpt>
      <trkpt lat="51.445751013234258" lon="9.119270006194711">
        <ele>177.97999999999999</ele>
        <time>2019-05-09T10:27:53Z</time>
      </trkpt>
      <trkpt lat="51.444656001403928" lon="9.120654026046395">
        <ele>177.02000000000001</ele>
        <time>2019-05-09T10:27:58Z</time>
      </trkpt>
      <trkpt lat="51.444419967010617" lon="9.120868016034365">
        <ele>177.02000000000001</ele>
        <time>2019-05-09T10:27:59Z</time>
      </trkpt>
      <trkpt lat="51.444170018658042" lon="9.12100899964571">
        <ele>177.02000000000001</ele>
        <time>2019-05-09T10:28:00Z</time>
      </trkpt>
      <trkpt lat="51.443919986486435" lon="9.121148977428675">
        <ele>177.02000000000001</ele>
        <time>2019-05-09T10:28:01Z</time>
      </trkpt>
      <trkpt lat="51.44367003813386" lon="9.121289039030671">
        <ele>177.02000000000001</ele>
        <time>2019-05-09T10:28:02Z</time>
      </trkpt>
      <trkpt lat="51.443403996527195" lon="9.121362967416644">
        <ele>177.02000000000001</ele>
        <time>2019-05-09T10:28:03Z</time>
      </trkpt>
      <trkpt lat="51.443126974627376" lon="9.121404960751534">
        <ele>177.5</ele>
        <time>2019-05-09T10:28:04Z</time>
      </trkpt>
      <trkpt lat="51.442846013233066" lon="9.121447959914804">
        <ele>177.5</ele>
        <time>2019-05-09T10:28:05Z</time>
      </trkpt>
      <trkpt lat="51.440227003768086" lon="9.121660022065043">
        <ele>177.97999999999999</ele>
        <time>2019-05-09T10:28:14Z</time>
      </trkpt>
      <trkpt lat="51.437300965189934" lon="9.122430989518762">
        <ele>181.83000000000001</ele>
        <time>2019-05-09T10:28:24Z</time>
      </trkpt>
      <trkpt lat="51.434679022058845" lon="9.122795015573502">
        <ele>187.11000000000001</ele>
        <time>2019-05-09T10:28:33Z</time>
      </trkpt>
      <trkpt lat="51.432428983971477" lon="9.122352031990886">
        <ele>184.22999999999999</ele>
        <time>2019-05-09T10:28:41Z</time>
      </trkpt>
      <trkpt lat="51.429653987288475" lon="9.122422020882368">
        <ele>179.90000000000001</ele>
        <time>2019-05-09T10:28:51Z</time>
      </trkpt>
      <trkpt lat="51.427476033568382" lon="9.122957959771156">
        <ele>180.38</ele>
        <time>2019-05-09T10:28:59Z</time>
      </trkpt>
      <trkpt lat="51.424703970551491" lon="9.12378097884357">
        <ele>181.34999999999999</ele>
        <time>2019-05-09T10:29:09Z</time>
      </trkpt>
      <trkpt lat="51.422456027939916" lon="9.123555002734065">
        <ele>178.46000000000001</ele>
        <time>2019-05-09T10:29:17Z</time>
      </trkpt>
      <trkpt lat="51.420449987053871" lon="9.12352298386395">
        <ele>178.46000000000001</ele>
        <time>2019-05-09T10:29:25Z</time>
      </trkpt>
      <trkpt lat="51.419104021042585" lon="9.123074971139431">
        <ele>179.90000000000001</ele>
        <time>2019-05-09T10:29:31Z</time>
      </trkpt>
      <trkpt lat="51.418272033333778" lon="9.122639028355479">
        <ele>181.34999999999999</ele>
        <time>2019-05-09T10:29:37Z</time>
      </trkpt>
      <trkpt lat="51.417178027331829" lon="9.121989011764526">
        <ele>181.83000000000001</ele>
        <time>2019-05-09T10:29:47Z</time>
      </trkpt>
      <trkpt lat="51.416098019108176" lon="9.121151994913817">
        <ele>181.34999999999999</ele>
        <time>2019-05-09T10:29:57Z</time>
      </trkpt>
      <trkpt lat="51.415168968960643" lon="9.120693001896143">
        <ele>180.87</ele>
        <time>2019-05-09T10:30:06Z</time>
      </trkpt>
      <trkpt lat="51.415071990340948" lon="9.120627036318183">
        <ele>180.87</ele>
        <time>2019-05-09T10:30:07Z</time>
      </trkpt>
      <trkpt lat="51.414980962872505" lon="9.120549000799656">
        <ele>180.87</ele>
        <time>2019-05-09T10:30:08Z</time>
      </trkpt>
      <trkpt lat="51.414465978741646" lon="9.119899990037084">
        <ele>183.27000000000001</ele>
        <time>2019-05-09T10:30:14Z</time>
      </trkpt>
      <trkpt lat="51.414303034543991" lon="9.11965498700738">
        <ele>184.71000000000001</ele>
        <time>2019-05-09T10:30:16Z</time>
      </trkpt>
      <trkpt lat="51.414219969883561" lon="9.11952699534595">
        <ele>185.66999999999999</ele>
        <time>2019-05-09T10:30:17Z</time>
      </trkpt>
      <trkpt lat="51.413495019078255" lon="9.118375992402434">
        <ele>186.15000000000001</ele>
        <time>2019-05-09T10:30:28Z</time>
      </trkpt>
      <trkpt lat="51.41344103962183" lon="9.118330981582403">
        <ele>185.66999999999999</ele>
        <time>2019-05-09T10:30:29Z</time>
      </trkpt>
      <trkpt lat="51.413420001044869" lon="9.118341039866209">
        <ele>185.19</ele>
        <time>2019-05-09T10:30:30Z</time>
      </trkpt>
      <trkpt lat="51.413367027416825" lon="9.118368029594421">
        <ele>184.22999999999999</ele>
        <time>2019-05-09T10:30:31Z</time>
      </trkpt>
      <trkpt lat="51.413312964141369" lon="9.118395019322634">
        <ele>183.75</ele>
        <time>2019-05-09T10:30:32Z</time>
      </trkpt>
      <trkpt lat="51.413255967199802" lon="9.118444975465536">
        <ele>183.27000000000001</ele>
        <time>2019-05-09T10:30:33Z</time>
      </trkpt>
      <trkpt lat="51.41318597830832" lon="9.118508007377386">
        <ele>182.78999999999999</ele>
        <time>2019-05-09T10:30:34Z</time>
      </trkpt>
      <trkpt lat="51.412291964516044" lon="9.119239998981357">
        <ele>183.27000000000001</ele>
        <time>2019-05-09T10:30:44Z</time>
      </trkpt>
      <trkpt lat="51.411870019510388" lon="9.119663033634424">
        <ele>184.22999999999999</ele>
        <time>2019-05-09T10:30:50Z</time>
      </trkpt>
      <trkpt lat="51.411845963448286" lon="9.119748026132584">
        <ele>184.71000000000001</ele>
        <time>2019-05-09T10:30:51Z</time>
      </trkpt>
      <trkpt lat="51.411834983155131" lon="9.119850033894181">
        <ele>185.19</ele>
        <time>2019-05-09T10:30:52Z</time>
      </trkpt>
      <trkpt lat="51.411824002861977" lon="9.119945000857115">
        <ele>185.19</ele>
        <time>2019-05-09T10:30:53Z</time>
      </trkpt>
      <trkpt lat="51.411815034225583" lon="9.120025970041752">
        <ele>185.66999999999999</ele>
        <time>2019-05-09T10:30:54Z</time>
      </trkpt>
      <trkpt lat="51.411725012585521" lon="9.120153961703181">
        <ele>185.66999999999999</ele>
        <time>2019-05-09T10:30:55Z</time>
      </trkpt>
      <trkpt lat="51.411725012585521" lon="9.120166031643748">
        <ele>186.15000000000001</ele>
        <time>2019-05-09T10:30:56Z</time>
      </trkpt>
      <trkpt lat="51.411725012585521" lon="9.120252029970288">
        <ele>186.15000000000001</ele>
        <time>2019-05-09T10:30:57Z</time>
      </trkpt>
      <trkpt lat="51.411755019798875" lon="9.120326964184642">
        <ele>186.63</ele>
        <time>2019-05-09T10:30:58Z</time>
      </trkpt>
      <trkpt lat="51.411802964285016" lon="9.12036300636828">
        <ele>186.63</ele>
        <time>2019-05-09T10:30:59Z</time>
      </trkpt>
      <trkpt lat="51.411811010912061" lon="9.120369041338563">
        <ele>187.11000000000001</ele>
        <time>2019-05-09T10:31:00Z</time>
      </trkpt>
      <trkpt lat="51.411940008401871" lon="9.120413968339562">
        <ele>187.59</ele>
        <time>2019-05-09T10:31:01Z</time>
      </trkpt>
      <trkpt lat="51.411985019221902" lon="9.120503989979625">
        <ele>187.59</ele>
        <time>2019-05-09T10:31:02Z</time>
      </trkpt>
      <trkpt lat="51.41200396232307" lon="9.12064497359097">
        <ele>187.59</ele>
        <time>2019-05-09T10:31:03Z</time>
      </trkpt>
      <trkpt lat="51.41200396232307" lon="9.120780006051064">
        <ele>187.59</ele>
        <time>2019-05-09T10:31:04Z</time>
      </trkpt>
      <trkpt lat="51.41200396232307" lon="9.120926018804312">
        <ele>187.59</ele>
        <time>2019-05-09T10:31:05Z</time>
      </trkpt>
      <trkpt lat="51.41200396232307" lon="9.121099021285772">
        <ele>187.11000000000001</ele>
        <time>2019-05-09T10:31:06Z</time>
      </trkpt>
      <trkpt lat="51.411987030878663" lon="9.121233969926834">
        <ele>187.11000000000001</ele>
        <time>2019-05-09T10:31:07Z</time>
      </trkpt>
      <trkpt lat="51.411966998130083" lon="9.121394986286759">
        <ele>187.11000000000001</ele>
        <time>2019-05-09T10:31:08Z</time>
      </trkpt>
      <trkpt lat="51.411947971209884" lon="9.121547034010291">
        <ele>187.11000000000001</ele>
        <time>2019-05-09T10:31:09Z</time>
      </trkpt>
      <trkpt lat="51.411944031715393" lon="9.121687011793256">
        <ele>187.59</ele>
        <time>2019-05-09T10:31:10Z</time>
      </trkpt>
      <trkpt lat="51.411951994523406" lon="9.121822966262698">
        <ele>187.59</ele>
        <time>2019-05-09T10:31:11Z</time>
      </trkpt>
      <trkpt lat="51.411960041150451" lon="9.121961016207933">
        <ele>188.08000000000001</ele>
        <time>2019-05-09T10:31:12Z</time>
      </trkpt>
      <trkpt lat="51.411993987858295" lon="9.122075010091066">
        <ele>188.08000000000001</ele>
        <time>2019-05-09T10:31:13Z</time>
      </trkpt>
      <trkpt lat="51.412034975364804" lon="9.122195038944483">
        <ele>188.08000000000001</ele>
        <time>2019-05-09T10:31:14Z</time>
      </trkpt>
      <trkpt lat="51.412078980356455" lon="9.122320013120771">
        <ele>188.08000000000001</ele>
        <time>2019-05-09T10:31:15Z</time>
      </trkpt>
      <trkpt lat="51.412169001996517" lon="9.122582031413913">
        <ele>188.56</ele>
        <time>2019-05-09T10:31:17Z</time>
      </trkpt>
      <trkpt lat="51.41219699755311" lon="9.122719997540116">
        <ele>188.08000000000001</ele>
        <time>2019-05-09T10:31:18Z</time>
      </trkpt>
      <trkpt lat="51.412204038351774" lon="9.122883025556803">
        <ele>188.08000000000001</ele>
        <time>2019-05-09T10:31:19Z</time>
      </trkpt>
      <trkpt lat="51.412163972854614" lon="9.123011017218232">
        <ele>188.08000000000001</ele>
        <time>2019-05-09T10:31:20Z</time>
      </trkpt>
      <trkpt lat="51.412119967862964" lon="9.123152000829577">
        <ele>188.08000000000001</ele>
        <time>2019-05-09T10:31:21Z</time>
      </trkpt>
      <trkpt lat="51.412040004506707" lon="9.123267000541091">
        <ele>187.59</ele>
        <time>2019-05-09T10:31:22Z</time>
      </trkpt>
      <trkpt lat="51.411951994523406" lon="9.123373031616211">
        <ele>187.11000000000001</ele>
        <time>2019-05-09T10:31:23Z</time>
      </trkpt>
      <trkpt lat="51.411859039217234" lon="9.123486019670963">
        <ele>187.11000000000001</ele>
        <time>2019-05-09T10:31:24Z</time>
      </trkpt>
      <trkpt lat="51.411769017577171" lon="9.123622979968786">
        <ele>186.63</ele>
        <time>2019-05-09T10:31:25Z</time>
      </trkpt>
      <trkpt lat="51.411685030907393" lon="9.123782990500331">
        <ele>186.15000000000001</ele>
        <time>2019-05-09T10:31:26Z</time>
      </trkpt>
      <trkpt lat="51.41159400343895" lon="9.123954987153411">
        <ele>185.66999999999999</ele>
        <time>2019-05-09T10:31:27Z</time>
      </trkpt>
      <trkpt lat="51.411499036476016" lon="9.124136036261916">
        <ele>185.19</ele>
        <time>2019-05-09T10:31:28Z</time>
      </trkpt>
      <trkpt lat="51.410708036273718" lon="9.12624903023243">
        <ele>182.78999999999999</ele>
        <time>2019-05-09T10:31:38Z</time>
      </trkpt>
      <trkpt lat="51.410290030762553" lon="9.12837702780962">
        <ele>182.31</ele>
        <time>2019-05-09T10:31:47Z</time>
      </trkpt>
      <trkpt lat="51.410201014950871" lon="9.131011962890625">
        <ele>183.75</ele>
        <time>2019-05-09T10:31:56Z</time>
      </trkpt>
      <trkpt lat="51.410019965842366" lon="9.133015992119908">
        <ele>187.59</ele>
        <time>2019-05-09T10:32:02Z</time>
      </trkpt>
      <trkpt lat="51.410056008026004" lon="9.133286979049444">
        <ele>188.56</ele>
        <time>2019-05-09T10:32:03Z</time>
      </trkpt>
      <trkpt lat="51.410110993310809" lon="9.133710013702512">
        <ele>190.96000000000001</ele>
        <time>2019-05-09T10:32:05Z</time>
      </trkpt>
      <trkpt lat="51.410128008574247" lon="9.133844040334225">
        <ele>191.44</ele>
        <time>2019-05-09T10:32:06Z</time>
      </trkpt>
      <trkpt lat="51.410052990540862" lon="9.133976977318525">
        <ele>191.91999999999999</ele>
        <time>2019-05-09T10:32:07Z</time>
      </trkpt>
      <trkpt lat="51.409978978335857" lon="9.134036991745234">
        <ele>192.40000000000001</ele>
        <time>2019-05-09T10:32:08Z</time>
      </trkpt>
      <trkpt lat="51.409886023029685" lon="9.134113015606999">
        <ele>192.88</ele>
        <time>2019-05-09T10:32:09Z</time>
      </trkpt>
      <trkpt lat="51.409772029146552" lon="9.134204965084791">
        <ele>192.88</ele>
        <time>2019-05-09T10:32:10Z</time>
      </trkpt>
      <trkpt lat="51.408792017027736" lon="9.135003006085753">
        <ele>190.47999999999999</ele>
        <time>2019-05-09T10:32:16Z</time>
      </trkpt>
      <trkpt lat="51.407027039676905" lon="9.136433964595199">
        <ele>186.63</ele>
        <time>2019-05-09T10:32:24Z</time>
      </trkpt>
      <trkpt lat="51.405172040686011" lon="9.137540962547064">
        <ele>186.15000000000001</ele>
        <time>2019-05-09T10:32:32Z</time>
      </trkpt>
      <trkpt lat="51.403974015265703" lon="9.137999033555389">
        <ele>187.59</ele>
        <time>2019-05-09T10:32:39Z</time>
      </trkpt>
      <trkpt lat="51.402641041204333" lon="9.138330034911633">
        <ele>188.56</ele>
        <time>2019-05-09T10:32:45Z</time>
      </trkpt>
      <trkpt lat="51.402451023459435" lon="9.138425001874566">
        <ele>188.08000000000001</ele>
        <time>2019-05-09T10:32:46Z</time>
      </trkpt>
      <trkpt lat="51.400997014716268" lon="9.139585979282856">
        <ele>188.56</ele>
        <time>2019-05-09T10:32:53Z</time>
      </trkpt>
      <trkpt lat="51.399166993796825" lon="9.14094602689147">
        <ele>188.08000000000001</ele>
        <time>2019-05-09T10:33:01Z</time>
      </trkpt>
      <trkpt lat="51.39893900603056" lon="9.141019033268094">
        <ele>188.56</ele>
        <time>2019-05-09T10:33:02Z</time>
      </trkpt>
      <trkpt lat="51.396970013156533" lon="9.141186000779271">
        <ele>189.03999999999999</ele>
        <time>2019-05-09T10:33:10Z</time>
      </trkpt>
      <trkpt lat="51.396480007097125" lon="9.141049040481448">
        <ele>190.96000000000001</ele>
        <time>2019-05-09T10:33:13Z</time>
      </trkpt>
      <trkpt lat="51.394665995612741" lon="9.139686981216073">
        <ele>193.36000000000001</ele>
        <time>2019-05-09T10:33:20Z</time>
      </trkpt>
      <trkpt lat="51.393970968201756" lon="9.139253972098231">
        <ele>193.36000000000001</ele>
        <time>2019-05-09T10:33:23Z</time>
      </trkpt>
      <trkpt lat="51.393732000142336" lon="9.139182977378368">
        <ele>193.36000000000001</ele>
        <time>2019-05-09T10:33:24Z</time>
      </trkpt>
      <trkpt lat="51.393490014597774" lon="9.139128997921944">
        <ele>193.36000000000001</ele>
        <time>2019-05-09T10:33:25Z</time>
      </trkpt>
      <trkpt lat="51.393252974376082" lon="9.139166967943311">
        <ele>193.36000000000001</ele>
        <time>2019-05-09T10:33:26Z</time>
      </trkpt>
      <trkpt lat="51.393020963296294" lon="9.13920502178371">
        <ele>193.36000000000001</ele>
        <time>2019-05-09T10:33:27Z</time>
      </trkpt>
      <trkpt lat="51.392792975530028" lon="9.139268975704908">
        <ele>193.84</ele>
        <time>2019-05-09T10:33:28Z</time>
      </trkpt>
      <trkpt lat="51.392576973885298" lon="9.139389004558325">
        <ele>193.84</ele>
        <time>2019-05-09T10:33:29Z</time>
      </trkpt>
      <trkpt lat="51.392367007210851" lon="9.139544991776347">
        <ele>194.31999999999999</ele>
        <time>2019-05-09T10:33:30Z</time>
      </trkpt>
      <trkpt lat="51.392165003344417" lon="9.139727968722582">
        <ele>194.31999999999999</ele>
        <time>2019-05-09T10:33:31Z</time>
      </trkpt>
      <trkpt lat="51.391967022791505" lon="9.139930978417397">
        <ele>194.31999999999999</ele>
        <time>2019-05-09T10:33:32Z</time>
      </trkpt>
      <trkpt lat="51.391795026138425" lon="9.140190985053778">
        <ele>194.80000000000001</ele>
        <time>2019-05-09T10:33:33Z</time>
      </trkpt>
      <trkpt lat="51.390407988801599" lon="9.14228000678122">
        <ele>194.80000000000001</ele>
        <time>2019-05-09T10:33:41Z</time>
      </trkpt>
      <trkpt lat="51.389622017741203" lon="9.143094979226589">
        <ele>194.80000000000001</ele>
        <time>2019-05-09T10:33:45Z</time>
      </trkpt>
      <trkpt lat="51.387744974344969" lon="9.14423500187695">
        <ele>195.77000000000001</ele>
        <time>2019-05-09T10:33:54Z</time>
      </trkpt>
      <trkpt lat="51.386891026049852" lon="9.14438403211534">
        <ele>195.77000000000001</ele>
        <time>2019-05-09T10:34:00Z</time>
      </trkpt>
      <trkpt lat="51.386017967015505" lon="9.14423399604857">
        <ele>194.80000000000001</ele>
        <time>2019-05-09T10:34:08Z</time>
      </trkpt>
      <trkpt lat="51.385786961764097" lon="9.144273977726698">
        <ele>194.31999999999999</ele>
        <time>2019-05-09T10:34:10Z</time>
      </trkpt>
      <trkpt lat="51.385666010901332" lon="9.144295016303659">
        <ele>194.31999999999999</ele>
        <time>2019-05-09T10:34:11Z</time>
      </trkpt>
      <trkpt lat="51.385542964562774" lon="9.144317982718349">
        <ele>194.31999999999999</ele>
        <time>2019-05-09T10:34:12Z</time>
      </trkpt>
      <trkpt lat="51.385431988164783" lon="9.14440599270165">
        <ele>193.84</ele>
        <time>2019-05-09T10:34:13Z</time>
      </trkpt>
      <trkpt lat="51.385323023423553" lon="9.14449199102819">
        <ele>193.36000000000001</ele>
        <time>2019-05-09T10:34:14Z</time>
      </trkpt>
      <trkpt lat="51.384740984067321" lon="9.144885018467903">
        <ele>192.88</ele>
        <time>2019-05-09T10:34:19Z</time>
      </trkpt>
      <trkpt lat="51.384622966870666" lon="9.144950984045863">
        <ele>192.88</ele>
        <time>2019-05-09T10:34:20Z</time>
      </trkpt>
      <trkpt lat="51.383859040215611" lon="9.145392961800098">
        <ele>190.47999999999999</ele>
        <time>2019-05-09T10:34:27Z</time>
      </trkpt>
      <trkpt lat="51.383758960291743" lon="9.14547803811729">
        <ele>190.47999999999999</ele>
        <time>2019-05-09T10:34:28Z</time>
      </trkpt>
      <trkpt lat="51.382911968976259" lon="9.146105004474521">
        <ele>190</ele>
        <time>2019-05-09T10:34:36Z</time>
      </trkpt>
      <trkpt lat="51.382799986749887" lon="9.146152026951313">
        <ele>190</ele>
        <time>2019-05-09T10:34:37Z</time>
      </trkpt>
      <trkpt lat="51.382682975381613" lon="9.14616703055799">
        <ele>190</ele>
        <time>2019-05-09T10:34:38Z</time>
      </trkpt>
      <trkpt lat="51.382559007033706" lon="9.146175999194384">
        <ele>190.47999999999999</ele>
        <time>2019-05-09T10:34:39Z</time>
      </trkpt>
      <trkpt lat="51.382435038685799" lon="9.146183962002397">
        <ele>190.47999999999999</ele>
        <time>2019-05-09T10:34:40Z</time>
      </trkpt>
      <trkpt lat="51.381949977949262" lon="9.146203994750977">
        <ele>190.96000000000001</ele>
        <time>2019-05-09T10:34:44Z</time>
      </trkpt>
      <trkpt lat="51.381831038743258" lon="9.146203994750977">
        <ele>190.96000000000001</ele>
        <time>2019-05-09T10:34:45Z</time>
      </trkpt>
      <trkpt lat="51.381707992404699" lon="9.146221010014415">
        <ele>190.47999999999999</ele>
        <time>2019-05-09T10:34:46Z</time>
      </trkpt>
      <trkpt lat="51.381459971889853" lon="9.146289993077517">
        <ele>189.03999999999999</ele>
        <time>2019-05-09T10:34:48Z</time>
      </trkpt>
      <trkpt lat="51.381343966349959" lon="9.146349001675844">
        <ele>188.56</ele>
        <time>2019-05-09T10:34:49Z</time>
      </trkpt>
      <trkpt lat="51.381240030750632" lon="9.146444974467158">
        <ele>188.08000000000001</ele>
        <time>2019-05-09T10:34:50Z</time>
      </trkpt>
      <trkpt lat="51.381128970533609" lon="9.146548993885517">
        <ele>188.08000000000001</ele>
        <time>2019-05-09T10:34:51Z</time>
      </trkpt>
      <trkpt lat="51.381024029105902" lon="9.146674973890185">
        <ele>188.08000000000001</ele>
        <time>2019-05-09T10:34:52Z</time>
      </trkpt>
      <trkpt lat="51.380937024950981" lon="9.146820986643434">
        <ele>188.08000000000001</ele>
        <time>2019-05-09T10:34:53Z</time>
      </trkpt>
      <trkpt lat="51.380852032452822" lon="9.146964987739921">
        <ele>188.08000000000001</ele>
        <time>2019-05-09T10:34:54Z</time>
      </trkpt>
      <trkpt lat="51.380678024142981" lon="9.147260030731559">
        <ele>188.08000000000001</ele>
        <time>2019-05-09T10:34:56Z</time>
      </trkpt>
      <trkpt lat="51.380281979218125" lon="9.147816002368927">
        <ele>188.08000000000001</ele>
        <time>2019-05-09T10:35:00Z</time>
      </trkpt>
      <trkpt lat="51.37917104177177" lon="9.149117041379213">
        <ele>188.08000000000001</ele>
        <time>2019-05-09T10:35:10Z</time>
      </trkpt>
      <trkpt lat="51.37831399217248" lon="9.149845009669662">
        <ele>190.47999999999999</ele>
        <time>2019-05-09T10:35:17Z</time>
      </trkpt>
      <trkpt lat="51.377800013870001" lon="9.150195037946105">
        <ele>193.36000000000001</ele>
        <time>2019-05-09T10:35:21Z</time>
      </trkpt>
      <trkpt lat="51.377461971715093" lon="9.15059401653707">
        <ele>194.80000000000001</ele>
        <time>2019-05-09T10:35:24Z</time>
      </trkpt>
      <trkpt lat="51.377360969781876" lon="9.150761989876628">
        <ele>195.28</ele>
        <time>2019-05-09T10:35:25Z</time>
      </trkpt>
      <trkpt lat="51.377263991162181" lon="9.150931974872947">
        <ele>196.25</ele>
        <time>2019-05-09T10:35:26Z</time>
      </trkpt>
      <trkpt lat="51.377178998664021" lon="9.151114029809833">
        <ele>196.25</ele>
        <time>2019-05-09T10:35:27Z</time>
      </trkpt>
      <trkpt lat="51.377098029479384" lon="9.151317039504647">
        <ele>196.72999999999999</ele>
        <time>2019-05-09T10:35:28Z</time>
      </trkpt>
      <trkpt lat="51.377014964818954" lon="9.151524994522333">
        <ele>197.21000000000001</ele>
        <time>2019-05-09T10:35:29Z</time>
      </trkpt>
      <trkpt lat="51.37633703649044" lon="9.153433972969651">
        <ele>199.13</ele>
        <time>2019-05-09T10:35:36Z</time>
      </trkpt>
      <trkpt lat="51.375670004636049" lon="9.154471987858415">
        <ele>201.53</ele>
        <time>2019-05-09T10:35:40Z</time>
      </trkpt>
      <trkpt lat="51.375216040760279" lon="9.154818998649716">
        <ele>202.97999999999999</ele>
        <time>2019-05-09T10:35:42Z</time>
      </trkpt>
      <trkpt lat="51.374988975003362" lon="9.154972974210978">
        <ele>203.46000000000001</ele>
        <time>2019-05-09T10:35:43Z</time>
      </trkpt>
      <trkpt lat="51.374745983630419" lon="9.155071964487433">
        <ele>204.41999999999999</ele>
        <time>2019-05-09T10:35:44Z</time>
      </trkpt>
      <trkpt lat="51.374497963115573" lon="9.155159974470735">
        <ele>205.38</ele>
        <time>2019-05-09T10:35:45Z</time>
      </trkpt>
      <trkpt lat="51.374246003106236" lon="9.155248990282416">
        <ele>206.34</ele>
        <time>2019-05-09T10:35:46Z</time>
      </trkpt>
      <trkpt lat="51.372983017936349" lon="9.155647968873382">
        <ele>212.11000000000001</ele>
        <time>2019-05-09T10:35:52Z</time>
      </trkpt>
      <trkpt lat="51.372865000739694" lon="9.155709994956851">
        <ele>213.06999999999999</ele>
        <time>2019-05-09T10:35:53Z</time>
      </trkpt>
      <trkpt lat="51.372694009914994" lon="9.155889032408595">
        <ele>214.03</ele>
        <time>2019-05-09T10:35:54Z</time>
      </trkpt>
      <trkpt lat="51.372555959969759" lon="9.156032027676702">
        <ele>214.99000000000001</ele>
        <time>2019-05-09T10:35:55Z</time>
      </trkpt>
      <trkpt lat="51.372370971366763" lon="9.15622497908771">
        <ele>215.94999999999999</ele>
        <time>2019-05-09T10:35:56Z</time>
      </trkpt>
      <trkpt lat="51.372284973040223" lon="9.156375015154481">
        <ele>216.91</ele>
        <time>2019-05-09T10:35:57Z</time>
      </trkpt>
      <trkpt lat="51.372164022177458" lon="9.156585987657309">
        <ele>218.36000000000001</ele>
        <time>2019-05-09T10:35:58Z</time>
      </trkpt>
      <trkpt lat="51.372039970010519" lon="9.156801989302039">
        <ele>219.80000000000001</ele>
        <time>2019-05-09T10:35:59Z</time>
      </trkpt>
      <trkpt lat="51.371623976156116" lon="9.15738201700151">
        <ele>223.16</ele>
        <time>2019-05-09T10:36:02Z</time>
      </trkpt>
      <trkpt lat="51.37146295979619" lon="9.157550996169448">
        <ele>224.12</ele>
        <time>2019-05-09T10:36:03Z</time>
      </trkpt>
      <trkpt lat="51.371284006163478" lon="9.157690973952413">
        <ele>225.09</ele>
        <time>2019-05-09T10:36:04Z</time>
      </trkpt>
      <trkpt lat="51.371100023388863" lon="9.157823994755745">
        <ele>226.53</ele>
        <time>2019-05-09T10:36:05Z</time>
      </trkpt>
      <trkpt lat="51.370896007865667" lon="9.157908987253904">
        <ele>227.49000000000001</ele>
        <time>2019-05-09T10:36:06Z</time>
      </trkpt>
      <trkpt lat="51.370679000392556" lon="9.157956009730697">
        <ele>228.93000000000001</ele>
        <time>2019-05-09T10:36:07Z</time>
      </trkpt>
      <trkpt lat="51.370455035939813" lon="9.158000014722347">
        <ele>229.88999999999999</ele>
        <time>2019-05-09T10:36:08Z</time>
      </trkpt>
      <trkpt lat="51.370225958526134" lon="9.158031027764082">
        <ele>231.81</ele>
        <time>2019-05-09T10:36:09Z</time>
      </trkpt>
      <trkpt lat="51.368524013087153" lon="9.158293968066573">
        <ele>242.87</ele>
        <time>2019-05-09T10:36:16Z</time>
      </trkpt>
      <trkpt lat="51.366857020184398" lon="9.159193011000752">
        <ele>252.96000000000001</ele>
        <time>2019-05-09T10:36:23Z</time>
      </trkpt>
      <trkpt lat="51.36529203504324" lon="9.159365007653832">
        <ele>257.29000000000002</ele>
        <time>2019-05-09T10:36:29Z</time>
      </trkpt>
      <trkpt lat="51.362679982557893" lon="9.159559970721602">
        <ele>255.37</ele>
        <time>2019-05-09T10:36:38Z</time>
      </trkpt>
      <trkpt lat="51.360403038561344" lon="9.159430973231792">
        <ele>255.84999999999999</ele>
        <time>2019-05-09T10:36:46Z</time>
      </trkpt>
      <trkpt lat="51.360131967812777" lon="9.159474978223443">
        <ele>256.32999999999998</ele>
        <time>2019-05-09T10:36:47Z</time>
      </trkpt>
      <trkpt lat="51.35985997505486" lon="9.159518983215094">
        <ele>256.81</ele>
        <time>2019-05-09T10:36:48Z</time>
      </trkpt>
      <trkpt lat="51.359593011438847" lon="9.159627025946975">
        <ele>257.29000000000002</ele>
        <time>2019-05-09T10:36:49Z</time>
      </trkpt>
      <trkpt lat="51.359334010630846" lon="9.159750994294882">
        <ele>257.76999999999998</ele>
        <time>2019-05-09T10:36:50Z</time>
      </trkpt>
      <trkpt lat="51.359081966802478" lon="9.159931959584355">
        <ele>258.73000000000002</ele>
        <time>2019-05-09T10:36:51Z</time>
      </trkpt>
      <trkpt lat="51.356790019199252" lon="9.161534998565912">
        <ele>265.45999999999998</ele>
        <time>2019-05-09T10:37:00Z</time>
      </trkpt>
      <trkpt lat="51.354312999173999" lon="9.162587011232972">
        <ele>263.06</ele>
        <time>2019-05-09T10:37:09Z</time>
      </trkpt>
      <trkpt lat="51.352278962731361" lon="9.162846012040973">
        <ele>256.81</ele>
        <time>2019-05-09T10:37:16Z</time>
      </trkpt>
      <trkpt lat="51.349995983764529" lon="9.162698993459344">
        <ele>250.08000000000001</ele>
        <time>2019-05-09T10:37:24Z</time>
      </trkpt>
      <trkpt lat="51.347248982638121" lon="9.162335973232985">
        <ele>250.08000000000001</ele>
        <time>2019-05-09T10:37:34Z</time>
      </trkpt>
      <trkpt lat="51.344794007018209" lon="9.162504030391574">
        <ele>258.73000000000002</ele>
        <time>2019-05-09T10:37:43Z</time>
      </trkpt>
      <trkpt lat="51.34232796728611" lon="9.163161003962159">
        <ele>266.42000000000002</ele>
        <time>2019-05-09T10:37:52Z</time>
      </trkpt>
      <trkpt lat="51.339547019451857" lon="9.164097011089325">
        <ele>267.38</ele>
        <time>2019-05-09T10:38:02Z</time>
      </trkpt>
      <trkpt lat="51.338097034022212" lon="9.165071994066238">
        <ele>264.01999999999998</ele>
        <time>2019-05-09T10:38:08Z</time>
      </trkpt>
      <trkpt lat="51.336331972852349" lon="9.166288040578365">
        <ele>254.41</ele>
        <time>2019-05-09T10:38:16Z</time>
      </trkpt>
      <trkpt lat="51.334980977699161" lon="9.166546035557985">
        <ele>249.59999999999999</ele>
        <time>2019-05-09T10:38:23Z</time>
      </trkpt>
      <trkpt lat="51.334065003320575" lon="9.166285023093224">
        <ele>249.59999999999999</ele>
        <time>2019-05-09T10:38:29Z</time>
      </trkpt>
      <trkpt lat="51.333564016968012" lon="9.166164994239807">
        <ele>251.52000000000001</ele>
        <time>2019-05-09T10:38:34Z</time>
      </trkpt>
      <trkpt lat="51.333488998934627" lon="9.166153008118272">
        <ele>252</ele>
        <time>2019-05-09T10:38:35Z</time>
      </trkpt>
      <trkpt lat="51.333398977294564" lon="9.166254010051489">
        <ele>252.96000000000001</ele>
        <time>2019-05-09T10:38:36Z</time>
      </trkpt>
      <trkpt lat="51.333393026143312" lon="9.166374960914254">
        <ele>253.44</ele>
        <time>2019-05-09T10:38:37Z</time>
      </trkpt>
      <trkpt lat="51.333385985344648" lon="9.166545029729605">
        <ele>254.41</ele>
        <time>2019-05-09T10:38:38Z</time>
      </trkpt>
      <trkpt lat="51.333377016708255" lon="9.166759019717574">
        <ele>254.88999999999999</ele>
        <time>2019-05-09T10:38:39Z</time>
      </trkpt>
      <trkpt lat="51.333304010331631" lon="9.168404974043369">
        <ele>258.73000000000002</ele>
        <time>2019-05-09T10:38:45Z</time>
      </trkpt>
      <trkpt lat="51.333223963156343" lon="9.169234028086066">
        <ele>260.64999999999998</ele>
        <time>2019-05-09T10:38:49Z</time>
      </trkpt>
      <trkpt lat="51.333182975649834" lon="9.169370988383889">
        <ele>260.64999999999998</ele>
        <time>2019-05-09T10:38:50Z</time>
      </trkpt>
      <trkpt lat="51.333114998415112" lon="9.16945799253881">
        <ele>260.64999999999998</ele>
        <time>2019-05-09T10:38:51Z</time>
      </trkpt>
      <trkpt lat="51.333035035058856" lon="9.16952203027904">
        <ele>260.64999999999998</ele>
        <time>2019-05-09T10:38:52Z</time>
      </trkpt>
      <trkpt lat="51.332950964570045" lon="9.16950099170208">
        <ele>260.64999999999998</ele>
        <time>2019-05-09T10:38:53Z</time>
      </trkpt>
      <trkpt lat="51.332866977900267" lon="9.169452041387558">
        <ele>260.64999999999998</ele>
        <time>2019-05-09T10:38:54Z</time>
      </trkpt>
      <trkpt lat="51.332800006493926" lon="9.169351039454341">
        <ele>261.13999999999999</ele>
        <time>2019-05-09T10:38:55Z</time>
      </trkpt>
      <trkpt lat="51.332748038694263" lon="9.169215001165867">
        <ele>261.13999999999999</ele>
        <time>2019-05-09T10:38:56Z</time>
      </trkpt>
      <trkpt lat="51.332720965147018" lon="9.169058008119464">
        <ele>261.62</ele>
        <time>2019-05-09T10:38:57Z</time>
      </trkpt>
      <trkpt lat="51.33270101621747" lon="9.168844018131495">
        <ele>261.62</ele>
        <time>2019-05-09T10:38:58Z</time>
      </trkpt>
      <trkpt lat="51.332776034250855" lon="9.167289007455111">
        <ele>264.98000000000002</ele>
        <time>2019-05-09T10:39:04Z</time>
      </trkpt>
      <trkpt lat="51.332598002627492" lon="9.164810981601477">
        <ele>270.26999999999998</ele>
        <time>2019-05-09T10:39:11Z</time>
      </trkpt>
      <trkpt lat="51.331967012956738" lon="9.161846973001957">
        <ele>276.51999999999998</ele>
        <time>2019-05-09T10:39:19Z</time>
      </trkpt>
      <trkpt lat="51.330836964771152" lon="9.158728988841176">
        <ele>280.36000000000001</ele>
        <time>2019-05-09T10:39:28Z</time>
      </trkpt>
      <trkpt lat="51.330127017572522" lon="9.156194971874356">
        <ele>282.76999999999998</ele>
        <time>2019-05-09T10:39:35Z</time>
      </trkpt>
      <trkpt lat="51.33003800176084" lon="9.154962999746203">
        <ele>281.80000000000001</ele>
        <time>2019-05-09T10:39:38Z</time>
      </trkpt>
      <trkpt lat="51.33005803450942" lon="9.154543988406658">
        <ele>281.31999999999999</ele>
        <time>2019-05-09T10:39:39Z</time>
      </trkpt>
      <trkpt lat="51.330076977610588" lon="9.154122965410352">
        <ele>280.83999999999997</ele>
        <time>2019-05-09T10:39:40Z</time>
      </trkpt>
      <trkpt lat="51.330134980380535" lon="9.153704037889838">
        <ele>279.88</ele>
        <time>2019-05-09T10:39:41Z</time>
      </trkpt>
      <trkpt lat="51.330220978707075" lon="9.153291983529925">
        <ele>279.39999999999998</ele>
        <time>2019-05-09T10:39:42Z</time>
      </trkpt>
      <trkpt lat="51.330312006175518" lon="9.152880012989044">
        <ele>278.44</ele>
        <time>2019-05-09T10:39:43Z</time>
      </trkpt>
      <trkpt lat="51.33044502697885" lon="9.152490003034473">
        <ele>277.95999999999998</ele>
        <time>2019-05-09T10:39:44Z</time>
      </trkpt>
      <trkpt lat="51.330605037510395" lon="9.152127988636494">
        <ele>277</ele>
        <time>2019-05-09T10:39:45Z</time>
      </trkpt>
      <trkpt lat="51.330770999193192" lon="9.151769997552037">
        <ele>276.51999999999998</ele>
        <time>2019-05-09T10:39:46Z</time>
      </trkpt>
      <trkpt lat="51.33094098418951" lon="9.151403959840536">
        <ele>275.06999999999999</ele>
        <time>2019-05-09T10:39:47Z</time>
      </trkpt>
      <trkpt lat="51.331128990277648" lon="9.151048986241221">
        <ele>274.11000000000001</ele>
        <time>2019-05-09T10:39:48Z</time>
      </trkpt>
      <trkpt lat="51.332441009581089" lon="9.148800959810615">
        <ele>266.89999999999998</ele>
        <time>2019-05-09T10:39:55Z</time>
      </trkpt>
      <trkpt lat="51.332574030384421" lon="9.148464007303119">
        <ele>266.42000000000002</ele>
        <time>2019-05-09T10:39:56Z</time>
      </trkpt>
      <trkpt lat="51.333649009466171" lon="9.145661015063524">
        <ele>268.35000000000002</ele>
        <time>2019-05-09T10:40:04Z</time>
      </trkpt>
      <trkpt lat="51.334042958915234" lon="9.145103031769395">
        <ele>268.82999999999998</ele>
        <time>2019-05-09T10:40:06Z</time>
      </trkpt>
      <trkpt lat="51.335969036445022" lon="9.143270999193192">
        <ele>271.23000000000002</ele>
        <time>2019-05-09T10:40:14Z</time>
      </trkpt>
      <trkpt lat="51.336646964773536" lon="9.142498020082712">
        <ele>274.58999999999997</ele>
        <time>2019-05-09T10:40:17Z</time>
      </trkpt>
      <trkpt lat="51.336847962811589" lon="9.142205994576216">
        <ele>276.04000000000002</ele>
        <time>2019-05-09T10:40:18Z</time>
      </trkpt>
      <trkpt lat="51.337027000263333" lon="9.141881028190255">
        <ele>277.48000000000002</ele>
        <time>2019-05-09T10:40:19Z</time>
      </trkpt>
      <trkpt lat="51.337198996916413" lon="9.141544997692108">
        <ele>278.92000000000002</ele>
        <time>2019-05-09T10:40:20Z</time>
      </trkpt>
      <trkpt lat="51.337369987741113" lon="9.141207961365581">
        <ele>280.83999999999997</ele>
        <time>2019-05-09T10:40:21Z</time>
      </trkpt>
      <trkpt lat="51.338540017604828" lon="9.13933401927352">
        <ele>288.52999999999997</ele>
        <time>2019-05-09T10:40:27Z</time>
      </trkpt>
      <trkpt lat="51.339835021644831" lon="9.137819996103644">
        <ele>293.81999999999999</ele>
        <time>2019-05-09T10:40:34Z</time>
      </trkpt>
      <trkpt lat="51.340547986328602" lon="9.13671500980854">
        <ele>296.22000000000003</ele>
        <time>2019-05-09T10:40:39Z</time>
      </trkpt>
      <trkpt lat="51.340659968554974" lon="9.136455003172159">
        <ele>296.69999999999999</ele>
        <time>2019-05-09T10:40:40Z</time>
      </trkpt>
      <trkpt lat="51.340750996023417" lon="9.136185022071004">
        <ele>297.18000000000001</ele>
        <time>2019-05-09T10:40:41Z</time>
      </trkpt>
      <trkpt lat="51.340820984914899" lon="9.135894002392888">
        <ele>298.14999999999998</ele>
        <time>2019-05-09T10:40:42Z</time>
      </trkpt>
      <trkpt lat="51.340889967978001" lon="9.135603988543153">
        <ele>298.63</ele>
        <time>2019-05-09T10:40:43Z</time>
      </trkpt>
      <trkpt lat="51.340941013768315" lon="9.135296959429979">
        <ele>299.58999999999997</ele>
        <time>2019-05-09T10:40:44Z</time>
      </trkpt>
      <trkpt lat="51.340956017374992" lon="9.134978028014302">
        <ele>300.06999999999999</ele>
        <time>2019-05-09T10:40:45Z</time>
      </trkpt>
      <trkpt lat="51.340971020981669" lon="9.134648032486439">
        <ele>301.02999999999997</ele>
        <time>2019-05-09T10:40:46Z</time>
      </trkpt>
      <trkpt lat="51.340960962697864" lon="9.134306972846389">
        <ele>301.50999999999999</ele>
        <time>2019-05-09T10:40:47Z</time>
      </trkpt>
      <trkpt lat="51.340926010161638" lon="9.133961973711848">
        <ele>301.99000000000001</ele>
        <time>2019-05-09T10:40:48Z</time>
      </trkpt>
      <trkpt lat="51.34088896214962" lon="9.133613035082817">
        <ele>302.94999999999999</ele>
        <time>2019-05-09T10:40:49Z</time>
      </trkpt>
      <trkpt lat="51.340804975479841" lon="9.133289996534586">
        <ele>303.43000000000001</ele>
        <time>2019-05-09T10:40:50Z</time>
      </trkpt>
      <trkpt lat="51.340719982981682" lon="9.132957989349961">
        <ele>303.91000000000003</ele>
        <time>2019-05-09T10:40:51Z</time>
      </trkpt>
      <trkpt lat="51.339884977787733" lon="9.129746966063976">
        <ele>311.60000000000002</ele>
        <time>2019-05-09T10:41:01Z</time>
      </trkpt>
      <trkpt lat="51.339780958369374" lon="9.127891967073083">
        <ele>310.63999999999999</ele>
        <time>2019-05-09T10:41:08Z</time>
      </trkpt>
      <trkpt lat="51.339799985289574" lon="9.125530030578375">
        <ele>310.16000000000003</ele>
        <time>2019-05-09T10:41:17Z</time>
      </trkpt>
      <trkpt lat="51.339611979201436" lon="9.124755961820483">
        <ele>311.60000000000002</ele>
        <time>2019-05-09T10:41:20Z</time>
      </trkpt>
      <trkpt lat="51.339530004188418" lon="9.124506013467908">
        <ele>311.60000000000002</ele>
        <time>2019-05-09T10:41:21Z</time>
      </trkpt>
      <trkpt lat="51.338827013969421" lon="9.122927030548453">
        <ele>310.16000000000003</ele>
        <time>2019-05-09T10:41:27Z</time>
      </trkpt>
      <trkpt lat="51.338714025914669" lon="9.122630981728435">
        <ele>309.68000000000001</ele>
        <time>2019-05-09T10:41:28Z</time>
      </trkpt>
      <trkpt lat="51.338630961254239" lon="9.122304003685713">
        <ele>308.72000000000003</ele>
        <time>2019-05-09T10:41:29Z</time>
      </trkpt>
      <trkpt lat="51.338582010939717" lon="9.121961016207933">
        <ele>307.75999999999999</ele>
        <time>2019-05-09T10:41:30Z</time>
      </trkpt>
      <trkpt lat="51.338532976806164" lon="9.121614005416632">
        <ele>307.27999999999997</ele>
        <time>2019-05-09T10:41:31Z</time>
      </trkpt>
      <trkpt lat="51.338511016219854" lon="9.121248973533511">
        <ele>306.80000000000001</ele>
        <time>2019-05-09T10:41:32Z</time>
      </trkpt>
      <trkpt lat="51.338511016219854" lon="9.120873967185617">
        <ele>306.31999999999999</ele>
        <time>2019-05-09T10:41:33Z</time>
      </trkpt>
      <trkpt lat="51.338492995128036" lon="9.11972195841372">
        <ele>304.88</ele>
        <time>2019-05-09T10:41:36Z</time>
      </trkpt>
      <trkpt lat="51.338476985692978" lon="9.119361033663154">
        <ele>303.91000000000003</ele>
        <time>2019-05-09T10:41:37Z</time>
      </trkpt>
      <trkpt lat="51.33843700401485" lon="9.11900999955833">
        <ele>302.94999999999999</ele>
        <time>2019-05-09T10:41:38Z</time>
      </trkpt>
      <trkpt lat="51.338367015123367" lon="9.118661982938647">
        <ele>302.47000000000003</ele>
        <time>2019-05-09T10:41:39Z</time>
      </trkpt>
      <trkpt lat="51.338259978219867" lon="9.1183449793607">
        <ele>301.99000000000001</ele>
        <time>2019-05-09T10:41:40Z</time>
      </trkpt>
      <trkpt lat="51.338151013478637" lon="9.118036022409797">
        <ele>301.99000000000001</ele>
        <time>2019-05-09T10:41:41Z</time>
      </trkpt>
      <trkpt lat="51.3380510173738" lon="9.117727987468243">
        <ele>301.99000000000001</ele>
        <time>2019-05-09T10:41:42Z</time>
      </trkpt>
      <trkpt lat="51.337611973285675" lon="9.116245983168483">
        <ele>302.94999999999999</ele>
        <time>2019-05-09T10:41:47Z</time>
      </trkpt>
      <trkpt lat="51.337541984394193" lon="9.115925962105393">
        <ele>303.43000000000001</ele>
        <time>2019-05-09T10:41:48Z</time>
      </trkpt>
      <trkpt lat="51.33723696693778" lon="9.113043006509543">
        <ele>307.75999999999999</ele>
        <time>2019-05-09T10:41:56Z</time>
      </trkpt>
      <trkpt lat="51.337307039648294" lon="9.110474037006497">
        <ele>311.12</ele>
        <time>2019-05-09T10:42:03Z</time>
      </trkpt>
      <trkpt lat="51.337379040196538" lon="9.110121997073293">
        <ele>311.60000000000002</ele>
        <time>2019-05-09T10:42:04Z</time>
      </trkpt>
      <trkpt lat="51.337450034916401" lon="9.10977004095912">
        <ele>312.56999999999999</ele>
        <time>2019-05-09T10:42:05Z</time>
      </trkpt>
      <trkpt lat="51.337551958858967" lon="9.109442979097366">
        <ele>313.05000000000001</ele>
        <time>2019-05-09T10:42:06Z</time>
      </trkpt>
      <trkpt lat="51.337676011025906" lon="9.109137039631605">
        <ele>313.52999999999997</ele>
        <time>2019-05-09T10:42:07Z</time>
      </trkpt>
      <trkpt lat="51.337802996858954" lon="9.108825987204909">
        <ele>314.49000000000001</ele>
        <time>2019-05-09T10:42:08Z</time>
      </trkpt>
      <trkpt lat="51.338618975132704" lon="9.106424991041422">
        <ele>318.81</ele>
        <time>2019-05-09T10:42:15Z</time>
      </trkpt>
      <trkpt lat="51.338660968467593" lon="9.106031963601708">
        <ele>319.30000000000001</ele>
        <time>2019-05-09T10:42:16Z</time>
      </trkpt>
      <trkpt lat="51.338688964024186" lon="9.105634996667504">
        <ele>319.77999999999997</ele>
        <time>2019-05-09T10:42:17Z</time>
      </trkpt>
      <trkpt lat="51.33871796540916" lon="9.105215985327959">
        <ele>320.25999999999999</ele>
        <time>2019-05-09T10:42:18Z</time>
      </trkpt>
      <trkpt lat="51.338598020374775" lon="9.102382985875011">
        <ele>324.10000000000002</ele>
        <time>2019-05-09T10:42:24Z</time>
      </trkpt>
      <trkpt lat="51.338573964312673" lon="9.100062036886811">
        <ele>326.5</ele>
        <time>2019-05-09T10:42:30Z</time>
      </trkpt>
      <trkpt lat="51.338970009237528" lon="9.098215000703931">
        <ele>327.47000000000003</ele>
        <time>2019-05-09T10:42:36Z</time>
      </trkpt>
      <trkpt lat="51.339463032782078" lon="9.097168017178774">
        <ele>326.99000000000001</ele>
        <time>2019-05-09T10:42:40Z</time>
      </trkpt>
      <trkpt lat="51.339785987511277" lon="9.09675202332437">
        <ele>326.99000000000001</ele>
        <time>2019-05-09T10:42:42Z</time>
      </trkpt>
      <trkpt lat="51.340300971642137" lon="9.096223963424563">
        <ele>326.01999999999998</ele>
        <time>2019-05-09T10:42:45Z</time>
      </trkpt>
      <trkpt lat="51.341476030647755" lon="9.09571903757751">
        <ele>323.62</ele>
        <time>2019-05-09T10:42:52Z</time>
      </trkpt>
      <trkpt lat="51.341880038380623" lon="9.095649970695376">
        <ele>321.22000000000003</ele>
        <time>2019-05-09T10:42:56Z</time>
      </trkpt>
      <trkpt lat="51.341903004795313" lon="9.095644019544125">
        <ele>320.74000000000001</ele>
        <time>2019-05-09T10:42:57Z</time>
      </trkpt>
      <trkpt lat="51.341871991753578" lon="9.09552700817585">
        <ele>320.25999999999999</ele>
        <time>2019-05-09T10:42:58Z</time>
      </trkpt>
      <trkpt lat="51.341864028945565" lon="9.095415025949478">
        <ele>319.77999999999997</ele>
        <time>2019-05-09T10:42:59Z</time>
      </trkpt>
      <trkpt lat="51.34185497649014" lon="9.095280999317765">
        <ele>319.30000000000001</ele>
        <time>2019-05-09T10:43:00Z</time>
      </trkpt>
      <trkpt lat="51.341845002025366" lon="9.095130041241646">
        <ele>319.30000000000001</ele>
        <time>2019-05-09T10:43:01Z</time>
      </trkpt>
      <trkpt lat="51.341766966506839" lon="9.094548001885414">
        <ele>319.30000000000001</ele>
        <time>2019-05-09T10:43:05Z</time>
      </trkpt>
      <trkpt lat="51.341721033677459" lon="9.094420010223985">
        <ele>319.30000000000001</ele>
        <time>2019-05-09T10:43:06Z</time>
      </trkpt>
      <trkpt lat="51.341675017029047" lon="9.094291012734175">
        <ele>319.77999999999997</ele>
        <time>2019-05-09T10:43:07Z</time>
      </trkpt>
      <trkpt lat="51.341621037572622" lon="9.094139970839024">
        <ele>319.77999999999997</ele>
        <time>2019-05-09T10:43:08Z</time>
      </trkpt>
      <trkpt lat="51.341501008719206" lon="9.094019019976258">
        <ele>319.77999999999997</ele>
        <time>2019-05-09T10:43:09Z</time>
      </trkpt>
      <trkpt lat="51.341375028714538" lon="9.09393796697259">
        <ele>319.30000000000001</ele>
        <time>2019-05-09T10:43:10Z</time>
      </trkpt>
      <trkpt lat="51.341228010132909" lon="9.093878958374262">
        <ele>319.30000000000001</ele>
        <time>2019-05-09T10:43:11Z</time>
      </trkpt>
      <trkpt lat="51.3410609588027" lon="9.09385297447443">
        <ele>319.77999999999997</ele>
        <time>2019-05-09T10:43:12Z</time>
      </trkpt>
      <trkpt lat="51.340879993513227" lon="9.093824978917837">
        <ele>319.77999999999997</ele>
        <time>2019-05-09T10:43:13Z</time>
      </trkpt>
      <trkpt lat="51.339476024731994" lon="9.093360034748912">
        <ele>325.06</ele>
        <time>2019-05-09T10:43:20Z</time>
      </trkpt>
      <trkpt lat="51.337205031886697" lon="9.092360995709896">
        <ele>331.79000000000002</ele>
        <time>2019-05-09T10:43:30Z</time>
      </trkpt>
      <trkpt lat="51.336959023028612" lon="9.092302992939949">
        <ele>332.26999999999998</ele>
        <time>2019-05-09T10:43:31Z</time>
      </trkpt>
      <trkpt lat="51.336714019998908" lon="9.092334005981684">
        <ele>332.75</ele>
        <time>2019-05-09T10:43:32Z</time>
      </trkpt>
      <trkpt lat="51.335256993770599" lon="9.092881008982658">
        <ele>336.12</ele>
        <time>2019-05-09T10:43:38Z</time>
      </trkpt>
      <trkpt lat="51.332087963819504" lon="9.094316996634007">
        <ele>345.25</ele>
        <time>2019-05-09T10:43:51Z</time>
      </trkpt>
      <trkpt lat="51.33020899258554" lon="9.094080962240696">
        <ele>344.76999999999998</ele>
        <time>2019-05-09T10:43:58Z</time>
      </trkpt>
      <trkpt lat="51.326420959085226" lon="9.093747027218342">
        <ele>339.48000000000002</ele>
        <time>2019-05-09T10:44:12Z</time>
      </trkpt>
      <trkpt lat="51.325730960816145" lon="9.09408800303936">
        <ele>340.44</ele>
        <time>2019-05-09T10:44:15Z</time>
      </trkpt>
      <trkpt lat="51.325498027727008" lon="9.094222029671073">
        <ele>340.44</ele>
        <time>2019-05-09T10:44:16Z</time>
      </trkpt>
      <trkpt lat="51.324905008077621" lon="9.09479602240026">
        <ele>340.44</ele>
        <time>2019-05-09T10:44:19Z</time>
      </trkpt>
      <trkpt lat="51.324723958969116" lon="9.095008000731468">
        <ele>340.44</ele>
        <time>2019-05-09T10:44:20Z</time>
      </trkpt>
      <trkpt lat="51.324591021984816" lon="9.095236994326115">
        <ele>339.95999999999998</ele>
        <time>2019-05-09T10:44:21Z</time>
      </trkpt>
      <trkpt lat="51.3244519662112" lon="9.09552700817585">
        <ele>339.95999999999998</ele>
        <time>2019-05-09T10:44:22Z</time>
      </trkpt>
      <trkpt lat="51.324358005076647" lon="9.095820039510727">
        <ele>339.95999999999998</ele>
        <time>2019-05-09T10:44:23Z</time>
      </trkpt>
      <trkpt lat="51.324260020628572" lon="9.096191022545099">
        <ele>339</ele>
        <time>2019-05-09T10:44:24Z</time>
      </trkpt>
      <trkpt lat="51.324162958189845" lon="9.096568040549755">
        <ele>338.04000000000002</ele>
        <time>2019-05-09T10:44:25Z</time>
      </trkpt>
      <trkpt lat="51.324067991226912" lon="9.096960984170437">
        <ele>336.60000000000002</ele>
        <time>2019-05-09T10:44:26Z</time>
      </trkpt>
      <trkpt lat="51.323581002652645" lon="9.098501997068524">
        <ele>331.79000000000002</ele>
        <time>2019-05-09T10:44:30Z</time>
      </trkpt>
      <trkpt lat="51.323401965200901" lon="9.098813971504569">
        <ele>330.35000000000002</ele>
        <time>2019-05-09T10:44:31Z</time>
      </trkpt>
      <trkpt lat="51.323212031275034" lon="9.099146984517574">
        <ele>328.91000000000003</ele>
        <time>2019-05-09T10:44:32Z</time>
      </trkpt>
      <trkpt lat="51.322992006316781" lon="9.099400034174323">
        <ele>327.94999999999999</ele>
        <time>2019-05-09T10:44:33Z</time>
      </trkpt>
      <trkpt lat="51.322765024378896" lon="9.099654005840421">
        <ele>326.99000000000001</ele>
        <time>2019-05-09T10:44:34Z</time>
      </trkpt>
      <trkpt lat="51.322521027177572" lon="9.099838994443417">
        <ele>326.01999999999998</ele>
        <time>2019-05-09T10:44:35Z</time>
      </trkpt>
      <trkpt lat="51.322270995005965" lon="9.100029012188315">
        <ele>325.54000000000002</ele>
        <time>2019-05-09T10:44:36Z</time>
      </trkpt>
      <trkpt lat="51.322015011683106" lon="9.100206037983298">
        <ele>325.54000000000002</ele>
        <time>2019-05-09T10:44:37Z</time>
      </trkpt>
      <trkpt lat="51.321745030581951" lon="9.100335035473108">
        <ele>325.54000000000002</ele>
        <time>2019-05-09T10:44:38Z</time>
      </trkpt>
      <trkpt lat="51.319771008566022" lon="9.101537000387907">
        <ele>332.26999999999998</ele>
        <time>2019-05-09T10:44:46Z</time>
      </trkpt>
      <trkpt lat="51.318361004814506" lon="9.102640980854631">
        <ele>333.70999999999998</ele>
        <time>2019-05-09T10:44:53Z</time>
      </trkpt>
      <trkpt lat="51.318137962371111" lon="9.102755980566144">
        <ele>333.70999999999998</ele>
        <time>2019-05-09T10:44:54Z</time>
      </trkpt>
      <trkpt lat="51.317911986261606" lon="9.102823035791516">
        <ele>333.23000000000002</ele>
        <time>2019-05-09T10:44:55Z</time>
      </trkpt>
      <trkpt lat="51.317678969353437" lon="9.102855976670981">
        <ele>333.23000000000002</ele>
        <time>2019-05-09T10:44:56Z</time>
      </trkpt>
      <trkpt lat="51.317437989637256" lon="9.102834016084671">
        <ele>332.26999999999998</ele>
        <time>2019-05-09T10:44:57Z</time>
      </trkpt>
      <trkpt lat="51.317192986607552" lon="9.10278900526464">
        <ele>331.79000000000002</ele>
        <time>2019-05-09T10:44:58Z</time>
      </trkpt>
      <trkpt lat="51.316954018548131" lon="9.102665958926082">
        <ele>330.82999999999998</ele>
        <time>2019-05-09T10:44:59Z</time>
      </trkpt>
      <trkpt lat="51.316708009690046" lon="9.102539978921413">
        <ele>330.35000000000002</ele>
        <time>2019-05-09T10:45:00Z</time>
      </trkpt>
      <trkpt lat="51.31645898334682" lon="9.102406036108732">
        <ele>329.38999999999999</ele>
        <time>2019-05-09T10:45:01Z</time>
      </trkpt>
      <trkpt lat="51.314426036551595" lon="9.101256038993597">
        <ele>328.91000000000003</ele>
        <time>2019-05-09T10:45:09Z</time>
      </trkpt>
      <trkpt lat="51.313934018835425" lon="9.100944986566901">
        <ele>330.35000000000002</ele>
        <time>2019-05-09T10:45:11Z</time>
      </trkpt>
      <trkpt lat="51.313703013584018" lon="9.100743988528848">
        <ele>331.79000000000002</ele>
        <time>2019-05-09T10:45:12Z</time>
      </trkpt>
      <trkpt lat="51.31347100250423" lon="9.100542990490794">
        <ele>332.75</ele>
        <time>2019-05-09T10:45:13Z</time>
      </trkpt>
      <trkpt lat="51.3117750082165" lon="9.098438965156674">
        <ele>341.41000000000003</ele>
        <time>2019-05-09T10:45:21Z</time>
      </trkpt>
      <trkpt lat="51.310061998665333" lon="9.096686979755759">
        <ele>347.64999999999998</ele>
        <time>2019-05-09T10:45:28Z</time>
      </trkpt>
      <trkpt lat="51.307762004435062" lon="9.094463009387255">
        <ele>357.75</ele>
        <time>2019-05-09T10:45:37Z</time>
      </trkpt>
      <trkpt lat="51.304676961153746" lon="9.091478968039155">
        <ele>372.17000000000002</ele>
        <time>2019-05-09T10:45:49Z</time>
      </trkpt>
      <trkpt lat="51.301766010001302" lon="9.088699026033282">
        <ele>374.08999999999997</ele>
        <time>2019-05-09T10:46:00Z</time>
      </trkpt>
      <trkpt lat="51.299115987494588" lon="9.086174983531237">
        <ele>377.44999999999999</ele>
        <time>2019-05-09T10:46:10Z</time>
      </trkpt>
      <trkpt lat="51.296481974422932" lon="9.0836660284549">
        <ele>383.22000000000003</ele>
        <time>2019-05-09T10:46:20Z</time>
      </trkpt>
      <trkpt lat="51.295161992311478" lon="9.082444030791521">
        <ele>388.50999999999999</ele>
        <time>2019-05-09T10:46:26Z</time>
      </trkpt>
      <trkpt lat="51.29493098706007" lon="9.082337999716401">
        <ele>388.99000000000001</ele>
        <time>2019-05-09T10:46:27Z</time>
      </trkpt>
      <trkpt lat="51.293381005525589" lon="9.081634003669024">
        <ele>394.27999999999997</ele>
        <time>2019-05-09T10:46:33Z</time>
      </trkpt>
      <trkpt lat="51.291121998801827" lon="9.080608980730176">
        <ele>400.05000000000001</ele>
        <time>2019-05-09T10:46:41Z</time>
      </trkpt>
      <trkpt lat="51.288755033165216" lon="9.079561997205019">
        <ele>402.93000000000001</ele>
        <time>2019-05-09T10:46:49Z</time>
      </trkpt>
      <trkpt lat="51.287227012217045" lon="9.078994961455464">
        <ele>403.88999999999999</ele>
        <time>2019-05-09T10:46:55Z</time>
      </trkpt>
      <trkpt lat="51.285895965993404" lon="9.078975012525916">
        <ele>405.32999999999998</ele>
        <time>2019-05-09T10:47:01Z</time>
      </trkpt>
      <trkpt lat="51.285356003791094" lon="9.079037960618734">
        <ele>406.76999999999998</ele>
        <time>2019-05-09T10:47:05Z</time>
      </trkpt>
      <trkpt lat="51.28526397049427" lon="9.079049024730921">
        <ele>407.25999999999999</ele>
        <time>2019-05-09T10:47:06Z</time>
      </trkpt>
      <trkpt lat="51.285117035731673" lon="9.078981969505549">
        <ele>407.74000000000001</ele>
        <time>2019-05-09T10:47:07Z</time>
      </trkpt>
      <trkpt lat="51.285064984112978" lon="9.078836040571332">
        <ele>408.22000000000003</ele>
        <time>2019-05-09T10:47:08Z</time>
      </trkpt>
      <trkpt lat="51.284985020756721" lon="9.078690027818084">
        <ele>408.69999999999999</ele>
        <time>2019-05-09T10:47:09Z</time>
      </trkpt>
      <trkpt lat="51.284871026873589" lon="9.078534040600061">
        <ele>409.18000000000001</ele>
        <time>2019-05-09T10:47:10Z</time>
      </trkpt>
      <trkpt lat="51.284741023555398" lon="9.078361038118601">
        <ele>409.66000000000003</ele>
        <time>2019-05-09T10:47:11Z</time>
      </trkpt>
      <trkpt lat="51.284128976985812" lon="9.077468030154705">
        <ele>411.10000000000002</ele>
        <time>2019-05-09T10:47:15Z</time>
      </trkpt>
      <trkpt lat="51.283987993374467" lon="9.077166030183435">
        <ele>410.62</ele>
        <time>2019-05-09T10:47:16Z</time>
      </trkpt>
      <trkpt lat="51.283841980621219" lon="9.076851960271597">
        <ele>410.13999999999999</ele>
        <time>2019-05-09T10:47:17Z</time>
      </trkpt>
      <trkpt lat="51.282835984602571" lon="9.074801998212934">
        <ele>404.85000000000002</ele>
        <time>2019-05-09T10:47:24Z</time>
      </trkpt>
      <trkpt lat="51.282593999058008" lon="9.074291037395597">
        <ele>403.41000000000003</ele>
        <time>2019-05-09T10:47:26Z</time>
      </trkpt>
      <trkpt lat="51.282501965761185" lon="9.074024995788932">
        <ele>402.44999999999999</ele>
        <time>2019-05-09T10:47:27Z</time>
      </trkpt>
      <trkpt lat="51.282446980476379" lon="9.073731964454055">
        <ele>401.49000000000001</ele>
        <time>2019-05-09T10:47:28Z</time>
      </trkpt>
      <trkpt lat="51.282453015446663" lon="9.073416972532868">
        <ele>401.00999999999999</ele>
        <time>2019-05-09T10:47:29Z</time>
      </trkpt>
      <trkpt lat="51.282473970204592" lon="9.073094017803669">
        <ele>400.05000000000001</ele>
        <time>2019-05-09T10:47:30Z</time>
      </trkpt>
      <trkpt lat="51.282539013773203" lon="9.072791012004018">
        <ele>399.07999999999998</ele>
        <time>2019-05-09T10:47:31Z</time>
      </trkpt>
      <trkpt lat="51.282603973522782" lon="9.07249404117465">
        <ele>398.12</ele>
        <time>2019-05-09T10:47:32Z</time>
      </trkpt>
      <trkpt lat="51.282664993777871" lon="9.072211990132928">
        <ele>397.16000000000003</ele>
        <time>2019-05-09T10:47:33Z</time>
      </trkpt>
      <trkpt lat="51.282743029296398" lon="9.071746962144971">
        <ele>395.72000000000003</ele>
        <time>2019-05-09T10:47:35Z</time>
      </trkpt>
      <trkpt lat="51.282743029296398" lon="9.071547975763679">
        <ele>394.75999999999999</ele>
        <time>2019-05-09T10:47:36Z</time>
      </trkpt>
      <trkpt lat="51.282702963799238" lon="9.071359969675541">
        <ele>394.27999999999997</ele>
        <time>2019-05-09T10:47:37Z</time>
      </trkpt>
      <trkpt lat="51.282632974907756" lon="9.071174981072545">
        <ele>393.31999999999999</ele>
        <time>2019-05-09T10:47:38Z</time>
      </trkpt>
      <trkpt lat="51.282519986853004" lon="9.070994015783072">
        <ele>392.83999999999997</ele>
        <time>2019-05-09T10:47:39Z</time>
      </trkpt>
      <trkpt lat="51.282400041818619" lon="9.070826964452863">
        <ele>391.87</ele>
        <time>2019-05-09T10:47:40Z</time>
      </trkpt>
      <trkpt lat="51.281540980562568" lon="9.069600021466613">
        <ele>389.47000000000003</ele>
        <time>2019-05-09T10:47:48Z</time>
      </trkpt>
      <trkpt lat="51.280781999230385" lon="9.068524958565831">
        <ele>390.91000000000003</ele>
        <time>2019-05-09T10:47:57Z</time>
      </trkpt>
      <trkpt lat="51.280692983418703" lon="9.068442983552814">
        <ele>391.87</ele>
        <time>2019-05-09T10:47:58Z</time>
      </trkpt>
      <trkpt lat="51.28059902228415" lon="9.068355979397893">
        <ele>392.36000000000001</ele>
        <time>2019-05-09T10:47:59Z</time>
      </trkpt>
      <trkpt lat="51.280501037836075" lon="9.068334018811584">
        <ele>392.83999999999997</ele>
        <time>2019-05-09T10:48:00Z</time>
      </trkpt>
      <trkpt lat="51.280388971790671" lon="9.068334018811584">
        <ele>393.80000000000001</ele>
        <time>2019-05-09T10:48:01Z</time>
      </trkpt>
      <trkpt lat="51.28027799539268" lon="9.068372994661331">
        <ele>394.27999999999997</ele>
        <time>2019-05-09T10:48:02Z</time>
      </trkpt>
      <trkpt lat="51.280173975974321" lon="9.068471984937787">
        <ele>395.24000000000001</ele>
        <time>2019-05-09T10:48:03Z</time>
      </trkpt>
      <trkpt lat="51.28006299957633" lon="9.068578016012907">
        <ele>395.72000000000003</ele>
        <time>2019-05-09T10:48:04Z</time>
      </trkpt>
      <trkpt lat="51.279522031545639" lon="9.069089982658625">
        <ele>399.07999999999998</ele>
        <time>2019-05-09T10:48:09Z</time>
      </trkpt>
      <trkpt lat="51.279420023784041" lon="9.069102974608541">
        <ele>399.56999999999999</ele>
        <time>2019-05-09T10:48:10Z</time>
      </trkpt>
      <trkpt lat="51.27933100797236" lon="9.069065004587174">
        <ele>400.05000000000001</ele>
        <time>2019-05-09T10:48:11Z</time>
      </trkpt>
      <trkpt lat="51.279251966625452" lon="9.069032985717058">
        <ele>400.52999999999997</ele>
        <time>2019-05-09T10:48:12Z</time>
      </trkpt>
      <trkpt lat="51.279193963855505" lon="9.068913962692022">
        <ele>401.49000000000001</ele>
        <time>2019-05-09T10:48:13Z</time>
      </trkpt>
      <trkpt lat="51.279155993834138" lon="9.068755963817239">
        <ele>402.44999999999999</ele>
        <time>2019-05-09T10:48:14Z</time>
      </trkpt>
      <trkpt lat="51.279136966913939" lon="9.068581033498049">
        <ele>403.41000000000003</ele>
        <time>2019-05-09T10:48:15Z</time>
      </trkpt>
      <trkpt lat="51.27911701798439" lon="9.068392021581531">
        <ele>403.88999999999999</ele>
        <time>2019-05-09T10:48:16Z</time>
      </trkpt>
      <trkpt lat="51.27909597940743" lon="9.068196974694729">
        <ele>404.37</ele>
        <time>2019-05-09T10:48:17Z</time>
      </trkpt>
      <trkpt lat="51.279039988294244" lon="9.067570008337498">
        <ele>406.29000000000002</ele>
        <time>2019-05-09T10:48:20Z</time>
      </trkpt>
      <trkpt lat="51.278908979147673" lon="9.066947987303138">
        <ele>407.74000000000001</ele>
        <time>2019-05-09T10:48:23Z</time>
      </trkpt>
      <trkpt lat="51.278559034690261" lon="9.066056990996003">
        <ele>411.57999999999998</ele>
        <time>2019-05-09T10:48:30Z</time>
      </trkpt>
      <trkpt lat="51.27847102470696" lon="9.065823974087834">
        <ele>412.54000000000002</ele>
        <time>2019-05-09T10:48:32Z</time>
      </trkpt>
      <trkpt lat="51.278421990573406" lon="9.065687013790011">
        <ele>413.5</ele>
        <time>2019-05-09T10:48:33Z</time>
      </trkpt>
      <trkpt lat="51.277946988120675" lon="9.0642249584198">
        <ele>417.82999999999998</ele>
        <time>2019-05-09T10:48:42Z</time>
      </trkpt>
      <trkpt lat="51.277394033968449" lon="9.062637006863952">
        <ele>422.16000000000003</ele>
        <time>2019-05-09T10:48:53Z</time>
      </trkpt>
      <trkpt lat="51.277155987918377" lon="9.06216099858284">
        <ele>423.12</ele>
        <time>2019-05-09T10:48:57Z</time>
      </trkpt>
      <trkpt lat="51.27709899097681" lon="9.062047004699707">
        <ele>423.60000000000002</ele>
        <time>2019-05-09T10:48:58Z</time>
      </trkpt>
      <trkpt lat="51.277018021792173" lon="9.062112970277667">
        <ele>424.07999999999998</ele>
        <time>2019-05-09T10:48:59Z</time>
      </trkpt>
      <trkpt lat="51.276953984051943" lon="9.062166027724743">
        <ele>424.56</ele>
        <time>2019-05-09T10:49:00Z</time>
      </trkpt>
      <trkpt lat="51.276885000988841" lon="9.062223024666309">
        <ele>424.56</ele>
        <time>2019-05-09T10:49:01Z</time>
      </trkpt>
      <trkpt lat="51.27679799683392" lon="9.062243979424238">
        <ele>425.04000000000002</ele>
        <time>2019-05-09T10:49:02Z</time>
      </trkpt>
      <trkpt lat="51.276707975193858" lon="9.062250014394522">
        <ele>425.51999999999998</ele>
        <time>2019-05-09T10:49:03Z</time>
      </trkpt>
      <trkpt lat="51.276606973260641" lon="9.062255965545774">
        <ele>425.51999999999998</ele>
        <time>2019-05-09T10:49:04Z</time>
      </trkpt>
      <trkpt lat="51.275946982204914" lon="9.062297958880663">
        <ele>425.51999999999998</ele>
        <time>2019-05-09T10:49:13Z</time>
      </trkpt>
      <trkpt lat="51.275905994698405" lon="9.062300976365805">
        <ele>425.51999999999998</ele>
        <time>2019-05-09T10:49:14Z</time>
      </trkpt>
      <trkpt lat="51.275739027187228" lon="9.062311034649611">
        <ele>425.04000000000002</ele>
        <time>2019-05-09T10:49:17Z</time>
      </trkpt>
      <trkpt lat="51.275450019165874" lon="9.062357973307371">
        <ele>424.56</ele>
        <time>2019-05-09T10:49:21Z</time>
      </trkpt>
      <trkpt lat="51.275364020839334" lon="9.062403989955783">
        <ele>424.07999999999998</ele>
        <time>2019-05-09T10:49:22Z</time>
      </trkpt>
      <trkpt lat="51.275267964228988" lon="9.062455035746098">
        <ele>423.60000000000002</ele>
        <time>2019-05-09T10:49:23Z</time>
      </trkpt>
      <trkpt lat="51.27434503287077" lon="9.063219968229532">
        <ele>420.23000000000002</ele>
        <time>2019-05-09T10:49:31Z</time>
      </trkpt>
      <trkpt lat="51.272984985262156" lon="9.064161004498601">
        <ele>414.47000000000003</ele>
        <time>2019-05-09T10:49:39Z</time>
      </trkpt>
      <trkpt lat="51.271087992936373" lon="9.065303960815072">
        <ele>420.23000000000002</ele>
        <time>2019-05-09T10:49:48Z</time>
      </trkpt>
      <trkpt lat="51.270362036302686" lon="9.065716015174985">
        <ele>424.56</ele>
        <time>2019-05-09T10:49:51Z</time>
      </trkpt>
      <trkpt lat="51.269386969506741" lon="9.066618997603655">
        <ele>432.25</ele>
        <time>2019-05-09T10:49:56Z</time>
      </trkpt>
      <trkpt lat="51.269189994782209" lon="9.066706001758575">
        <ele>433.69</ele>
        <time>2019-05-09T10:49:57Z</time>
      </trkpt>
      <trkpt lat="51.268973993137479" lon="9.066775990650058">
        <ele>435.13</ele>
        <time>2019-05-09T10:49:58Z</time>
      </trkpt>
      <trkpt lat="51.266965018585324" lon="9.067261973395944">
        <ele>440.42000000000002</ele>
        <time>2019-05-09T10:50:06Z</time>
      </trkpt>
      <trkpt lat="51.263394998386502" lon="9.068042999133468">
        <ele>453.88</ele>
        <time>2019-05-09T10:50:19Z</time>
      </trkpt>
      <trkpt lat="51.261730017140508" lon="9.068334018811584">
        <ele>463.00999999999999</ele>
        <time>2019-05-09T10:50:26Z</time>
      </trkpt>
      <trkpt lat="51.25999596901238" lon="9.068466033786535">
        <ele>465.42000000000002</ele>
        <time>2019-05-09T10:50:34Z</time>
      </trkpt>
      <trkpt lat="51.25960897654295" lon="9.068667031824589">
        <ele>464.93000000000001</ele>
        <time>2019-05-09T10:50:36Z</time>
      </trkpt>
      <trkpt lat="51.259438991546631" lon="9.068796029314399">
        <ele>464.93000000000001</ele>
        <time>2019-05-09T10:50:37Z</time>
      </trkpt>
      <trkpt lat="51.259125005453825" lon="9.069168018177152">
        <ele>463.97000000000003</ele>
        <time>2019-05-09T10:50:39Z</time>
      </trkpt>
      <trkpt lat="51.258988967165351" lon="9.069393994286656">
        <ele>463.49000000000001</ele>
        <time>2019-05-09T10:50:40Z</time>
      </trkpt>
      <trkpt lat="51.258848989382386" lon="9.069652995094657">
        <ele>462.52999999999997</ele>
        <time>2019-05-09T10:50:41Z</time>
      </trkpt>
      <trkpt lat="51.25870699994266" lon="9.06991601921618">
        <ele>462.05000000000001</ele>
        <time>2019-05-09T10:50:42Z</time>
      </trkpt>
      <trkpt lat="51.258568027988076" lon="9.0701740141958">
        <ele>461.08999999999997</ele>
        <time>2019-05-09T10:50:43Z</time>
      </trkpt>
      <trkpt lat="51.257659010589123" lon="9.071708992123604">
        <ele>454.83999999999997</ele>
        <time>2019-05-09T10:50:49Z</time>
      </trkpt>
      <trkpt lat="51.256146999076009" lon="9.074094984680414">
        <ele>449.55000000000001</ele>
        <time>2019-05-09T10:50:58Z</time>
      </trkpt>
      <trkpt lat="51.255366979166865" lon="9.075793996453285">
        <ele>448.11000000000001</ele>
        <time>2019-05-09T10:51:04Z</time>
      </trkpt>
    </trkseg>
  </trk>

  <trk>
    <name>Track vom: 2019-05-09 12:51</name>
    <extensions>
      <gpxx:TrackExtension>
        <gpxx:DisplayColor>DarkGray</gpxx:DisplayColor>
      </gpxx:TrackExtension>
    </extensions>
    <trkseg>
      <trkpt lat="51.254513030871749" lon="9.077799031510949">
        <ele>444.26999999999998</ele>
        <time>2019-05-09T10:51:12Z</time>
      </trkpt>
      <trkpt lat="51.254264004528522" lon="9.078490035608411">
        <ele>441.86000000000001</ele>
        <time>2019-05-09T10:51:15Z</time>
      </trkpt>
      <trkpt lat="51.254171971231699" lon="9.078706037253141">
        <ele>441.38</ele>
        <time>2019-05-09T10:51:16Z</time>
      </trkpt>
      <trkpt lat="51.254055965691805" lon="9.078888008370996">
        <ele>440.89999999999998</ele>
        <time>2019-05-09T10:51:17Z</time>
      </trkpt>
      <trkpt lat="51.25393501482904" lon="9.079077020287514">
        <ele>440.42000000000002</ele>
        <time>2019-05-09T10:51:18Z</time>
      </trkpt>
      <trkpt lat="51.253795037046075" lon="9.079226972535253">
        <ele>439.45999999999998</ele>
        <time>2019-05-09T10:51:19Z</time>
      </trkpt>
      <trkpt lat="51.253645000979304" lon="9.079365022480488">
        <ele>438.98000000000002</ele>
        <time>2019-05-09T10:51:20Z</time>
      </trkpt>
      <trkpt lat="51.253493959084153" lon="9.079502988606691">
        <ele>438.5</ele>
        <time>2019-05-09T10:51:21Z</time>
      </trkpt>
      <trkpt lat="51.253339983522892" lon="9.079632991924882">
        <ele>438.01999999999998</ele>
        <time>2019-05-09T10:51:22Z</time>
      </trkpt>
      <trkpt lat="51.251866025850177" lon="9.080632030963898">
        <ele>433.69</ele>
        <time>2019-05-09T10:51:32Z</time>
      </trkpt>
      <trkpt lat="51.251710960641503" lon="9.080676035955548">
        <ele>432.73000000000002</ele>
        <time>2019-05-09T10:51:33Z</time>
      </trkpt>
      <trkpt lat="51.251556985080242" lon="9.080720040947199">
        <ele>432.25</ele>
        <time>2019-05-09T10:51:34Z</time>
      </trkpt>
      <trkpt lat="51.251410972326994" lon="9.080733032897115">
        <ele>431.29000000000002</ele>
        <time>2019-05-09T10:51:35Z</time>
      </trkpt>
      <trkpt lat="51.251264959573746" lon="9.080726997926831">
        <ele>430.81</ele>
        <time>2019-05-09T10:51:36Z</time>
      </trkpt>
      <trkpt lat="51.251124981790781" lon="9.080720040947199">
        <ele>429.85000000000002</ele>
        <time>2019-05-09T10:51:37Z</time>
      </trkpt>
      <trkpt lat="51.250991960987449" lon="9.080709982663393">
        <ele>428.88999999999999</ele>
        <time>2019-05-09T10:51:38Z</time>
      </trkpt>
      <trkpt lat="51.249932991340756" lon="9.080292982980609">
        <ele>420.70999999999998</ele>
        <time>2019-05-09T10:51:47Z</time>
      </trkpt>
      <trkpt lat="51.249562008306384" lon="9.080097014084458">
        <ele>419.26999999999998</ele>
        <time>2019-05-09T10:51:50Z</time>
      </trkpt>
      <trkpt lat="51.248541008681059" lon="9.079555040225387">
        <ele>413.98000000000002</ele>
        <time>2019-05-09T10:51:58Z</time>
      </trkpt>
      <trkpt lat="51.24841402284801" lon="9.079487985000014">
        <ele>413.01999999999998</ele>
        <time>2019-05-09T10:51:59Z</time>
      </trkpt>
      <trkpt lat="51.248009009286761" lon="9.07932797446847">
        <ele>410.62</ele>
        <time>2019-05-09T10:52:02Z</time>
      </trkpt>
      <trkpt lat="51.247712038457394" lon="9.079314982518554">
        <ele>408.69999999999999</ele>
        <time>2019-05-09T10:52:04Z</time>
      </trkpt>
      <trkpt lat="51.24755596742034" lon="9.079367034137249">
        <ele>407.74000000000001</ele>
        <time>2019-05-09T10:52:05Z</time>
      </trkpt>
      <trkpt lat="51.247402997687459" lon="9.079453032463789">
        <ele>406.76999999999998</ele>
        <time>2019-05-09T10:52:06Z</time>
      </trkpt>
      <trkpt lat="51.24725497327745" lon="9.079537019133568">
        <ele>405.81</ele>
        <time>2019-05-09T10:52:07Z</time>
      </trkpt>
      <trkpt lat="51.247112983837724" lon="9.079641960561276">
        <ele>404.85000000000002</ele>
        <time>2019-05-09T10:52:08Z</time>
      </trkpt>
      <trkpt lat="51.246998989954591" lon="9.079796019941568">
        <ele>403.41000000000003</ele>
        <time>2019-05-09T10:52:09Z</time>
      </trkpt>
      <trkpt lat="51.246884996071458" lon="9.07995100133121">
        <ele>402.44999999999999</ele>
        <time>2019-05-09T10:52:10Z</time>
      </trkpt>
    </trkseg>
  </trk>

  <trk>
    <name>Track vom: 2019-05-09 12:52</name>
    <extensions>
      <gpxx:TrackExtension>
        <gpxx:DisplayColor>DarkGray</gpxx:DisplayColor>
      </gpxx:TrackExtension>
    </extensions>
    <trkseg>
      <trkpt lat="51.246763961389661" lon="9.080128027126193">
        <ele>401.49000000000001</ele>
        <time>2019-05-09T10:52:11Z</time>
      </trkpt>
      <trkpt lat="51.246671006083488" lon="9.080342017114162">
        <ele>400.52999999999997</ele>
        <time>2019-05-09T10:52:12Z</time>
      </trkpt>
      <trkpt lat="51.246575033292174" lon="9.080562964081764">
        <ele>399.07999999999998</ele>
        <time>2019-05-09T10:52:13Z</time>
      </trkpt>
      <trkpt lat="51.246515018865466" lon="9.080841997638345">
        <ele>398.12</ele>
        <time>2019-05-09T10:52:14Z</time>
      </trkpt>
      <trkpt lat="51.246460033580661" lon="9.081123964861035">
        <ele>396.68000000000001</ele>
        <time>2019-05-09T10:52:15Z</time>
      </trkpt>
      <trkpt lat="51.246402030810714" lon="9.081420013681054">
        <ele>395.24000000000001</ele>
        <time>2019-05-09T10:52:16Z</time>
      </trkpt>
      <trkpt lat="51.246188962832093" lon="9.082286031916738">
        <ele>390.43000000000001</ele>
        <time>2019-05-09T10:52:19Z</time>
      </trkpt>
      <trkpt lat="51.24611696228385" lon="9.082556013017893">
        <ele>388.50999999999999</ele>
        <time>2019-05-09T10:52:20Z</time>
      </trkpt>
      <trkpt lat="51.246021995320916" lon="9.082789029926062">
        <ele>386.58999999999997</ele>
        <time>2019-05-09T10:52:21Z</time>
      </trkpt>
      <trkpt lat="51.245909007266164" lon="9.083015006035566">
        <ele>384.66000000000003</ele>
        <time>2019-05-09T10:52:22Z</time>
      </trkpt>
      <trkpt lat="51.245783027261496" lon="9.083218015730381">
        <ele>382.74000000000001</ele>
        <time>2019-05-09T10:52:23Z</time>
      </trkpt>
      <trkpt lat="51.245630979537964" lon="9.083381965756416">
        <ele>381.30000000000001</ele>
        <time>2019-05-09T10:52:24Z</time>
      </trkpt>
      <trkpt lat="51.24546904116869" lon="9.083511969074607">
        <ele>379.38</ele>
        <time>2019-05-09T10:52:25Z</time>
      </trkpt>
      <trkpt lat="51.245290003716946" lon="9.083614982664585">
        <ele>377.44999999999999</ele>
        <time>2019-05-09T10:52:26Z</time>
      </trkpt>
      <trkpt lat="51.245103003457189" lon="9.083723025396466">
        <ele>376.00999999999999</ele>
        <time>2019-05-09T10:52:27Z</time>
      </trkpt>
      <trkpt lat="51.24366600997746" lon="9.084550989791751">
        <ele>366.39999999999998</ele>
        <time>2019-05-09T10:52:34Z</time>
      </trkpt>
      <trkpt lat="51.241201981902122" lon="9.085936015471816">
        <ele>355.33999999999997</ele>
        <time>2019-05-09T10:52:44Z</time>
      </trkpt>
      <trkpt lat="51.239161994308233" lon="9.086829023435712">
        <ele>349.10000000000002</ele>
        <time>2019-05-09T10:52:52Z</time>
      </trkpt>
      <trkpt lat="51.235905960202217" lon="9.087179973721504">
        <ele>341.41000000000003</ele>
        <time>2019-05-09T10:53:04Z</time>
      </trkpt>
      <trkpt lat="51.23294304125011" lon="9.087471999228001">
        <ele>335.16000000000003</ele>
        <time>2019-05-09T10:53:15Z</time>
      </trkpt>
      <trkpt lat="51.230837004259229" lon="9.087689006701112">
        <ele>328.91000000000003</ele>
        <time>2019-05-09T10:53:24Z</time>
      </trkpt>
      <trkpt lat="51.229836037382483" lon="9.08779202029109">
        <ele>327.47000000000003</ele>
        <time>2019-05-09T10:53:31Z</time>
      </trkpt>
      <trkpt lat="51.22974400408566" lon="9.087795959785581">
        <ele>327.47000000000003</ele>
        <time>2019-05-09T10:53:32Z</time>
      </trkpt>
      <trkpt lat="51.229667980223894" lon="9.087723037227988">
        <ele>327.47000000000003</ele>
        <time>2019-05-09T10:53:33Z</time>
      </trkpt>
      <trkpt lat="51.229612994939089" lon="9.087666962295771">
        <ele>327.47000000000003</ele>
        <time>2019-05-09T10:53:34Z</time>
      </trkpt>
      <trkpt lat="51.229568989947438" lon="9.087623041123152">
        <ele>327.47000000000003</ele>
        <time>2019-05-09T10:53:35Z</time>
      </trkpt>
      <trkpt lat="51.22948600910604" lon="9.087402010336518">
        <ele>327.47000000000003</ele>
        <time>2019-05-09T10:53:36Z</time>
      </trkpt>
      <trkpt lat="51.229516016319394" lon="9.087338978424668">
        <ele>327.47000000000003</ele>
        <time>2019-05-09T10:53:37Z</time>
      </trkpt>
      <trkpt lat="51.229555997997522" lon="9.087253985926509">
        <ele>327.47000000000003</ele>
        <time>2019-05-09T10:53:38Z</time>
      </trkpt>
      <trkpt lat="51.229606959968805" lon="9.08714602701366">
        <ele>327.94999999999999</ele>
        <time>2019-05-09T10:53:39Z</time>
      </trkpt>
      <trkpt lat="51.229983977973461" lon="9.085871977731586">
        <ele>331.31</ele>
        <time>2019-05-09T10:53:46Z</time>
      </trkpt>
      <trkpt lat="51.230139965191483" lon="9.085220033302903">
        <ele>332.75</ele>
        <time>2019-05-09T10:53:50Z</time>
      </trkpt>
      <trkpt lat="51.230177013203502" lon="9.085083995014429">
        <ele>333.23000000000002</ele>
        <time>2019-05-09T10:53:53Z</time>
      </trkpt>
      <trkpt lat="51.230229986831546" lon="9.084881991147995">
        <ele>333.70999999999998</ele>
        <time>2019-05-09T10:53:56Z</time>
      </trkpt>
      <trkpt lat="51.230265023186803" lon="9.084751987829804">
        <ele>333.70999999999998</ele>
        <time>2019-05-09T10:53:57Z</time>
      </trkpt>
      <trkpt lat="51.230662995949388" lon="9.083601990714669">
        <ele>335.16000000000003</ele>
        <time>2019-05-09T10:54:03Z</time>
      </trkpt>
      <trkpt lat="51.231521973386407" lon="9.081718996167183">
        <ele>335.63999999999999</ele>
        <time>2019-05-09T10:54:10Z</time>
      </trkpt>
      <trkpt lat="51.23240802437067" lon="9.078874010592699">
        <ele>337.07999999999998</ele>
        <time>2019-05-09T10:54:18Z</time>
      </trkpt>
      <trkpt lat="51.233722977340221" lon="9.073423007503152">
        <ele>344.76999999999998</ele>
        <time>2019-05-09T10:54:31Z</time>
      </trkpt>
      <trkpt lat="51.234812960028648" lon="9.069046983495355">
        <ele>350.06</ele>
        <time>2019-05-09T10:54:42Z</time>
      </trkpt>
      <trkpt lat="51.235997993499041" lon="9.065827997401357">
        <ele>346.69</ele>
        <time>2019-05-09T10:54:51Z</time>
      </trkpt>
      <trkpt lat="51.237271958962083" lon="9.063059035688639">
        <ele>339</ele>
        <time>2019-05-09T10:54:59Z</time>
      </trkpt>
      <trkpt lat="51.23810101300478" lon="9.060324020683765">
        <ele>327.47000000000003</ele>
        <time>2019-05-09T10:55:06Z</time>
      </trkpt>
      <trkpt lat="51.238410975784063" lon="9.057174017652869">
        <ele>320.74000000000001</ele>
        <time>2019-05-09T10:55:13Z</time>
      </trkpt>
      <trkpt lat="51.238205032423139" lon="9.053622018545866">
        <ele>324.57999999999998</ele>
        <time>2019-05-09T10:55:21Z</time>
      </trkpt>
      <trkpt lat="51.237583011388779" lon="9.049659976735711">
        <ele>334.68000000000001</ele>
        <time>2019-05-09T10:55:30Z</time>
      </trkpt>
      <trkpt lat="51.237381007522345" lon="9.046379970386624">
        <ele>340.44</ele>
        <time>2019-05-09T10:55:37Z</time>
      </trkpt>
      <trkpt lat="51.237615030258894" lon="9.043129971250892">
        <ele>345.73000000000002</ele>
        <time>2019-05-09T10:55:44Z</time>
      </trkpt>
      <trkpt lat="51.238079974427819" lon="9.039850970730186">
        <ele>349.10000000000002</ele>
        <time>2019-05-09T10:55:52Z</time>
      </trkpt>
      <trkpt lat="51.23879000544548" lon="9.037653990089893">
        <ele>351.01999999999998</ele>
        <time>2019-05-09T10:55:59Z</time>
      </trkpt>
      <trkpt lat="51.239515962079167" lon="9.035314014181495">
        <ele>352.45999999999998</ele>
        <time>2019-05-09T10:56:06Z</time>
      </trkpt>
      <trkpt lat="51.239558961242437" lon="9.034945964813232">
        <ele>352.94</ele>
        <time>2019-05-09T10:56:07Z</time>
      </trkpt>
      <trkpt lat="51.239613024517894" lon="9.032157976180315">
        <ele>355.33999999999997</ele>
        <time>2019-05-09T10:56:14Z</time>
      </trkpt>
      <trkpt lat="51.239598020911217" lon="9.025731990113854">
        <ele>358.70999999999998</ele>
        <time>2019-05-09T10:56:29Z</time>
      </trkpt>
      <trkpt lat="51.239761970937252" lon="9.021958038210869">
        <ele>355.82999999999998</ele>
        <time>2019-05-09T10:56:38Z</time>
      </trkpt>
      <trkpt lat="51.240429002791643" lon="9.019552012905479">
        <ele>355.33999999999997</ele>
        <time>2019-05-09T10:56:44Z</time>
      </trkpt>
      <trkpt lat="51.241010958328843" lon="9.017716962844133">
        <ele>355.33999999999997</ele>
        <time>2019-05-09T10:56:50Z</time>
      </trkpt>
      <trkpt lat="51.241597020998597" lon="9.015847966074944">
        <ele>354.86000000000001</ele>
        <time>2019-05-09T10:56:59Z</time>
      </trkpt>
      <trkpt lat="51.241988958790898" lon="9.01459202170372">
        <ele>352.45999999999998</ele>
        <time>2019-05-09T10:57:08Z</time>
      </trkpt>
      <trkpt lat="51.242207977920771" lon="9.013824993744493">
        <ele>350.54000000000002</ele>
        <time>2019-05-09T10:57:14Z</time>
      </trkpt>
      <trkpt lat="51.242796974256635" lon="9.011968988925219">
        <ele>353.89999999999998</ele>
        <time>2019-05-09T10:57:26Z</time>
      </trkpt>
      <trkpt lat="51.243369039148092" lon="9.010138968005776">
        <ele>360.14999999999998</ele>
        <time>2019-05-09T10:57:38Z</time>
      </trkpt>
      <trkpt lat="51.243598032742739" lon="9.009358026087284">
        <ele>361.58999999999997</ele>
        <time>2019-05-09T10:57:43Z</time>
      </trkpt>
      <trkpt lat="51.243646983057261" lon="9.009203966706991">
        <ele>361.58999999999997</ele>
        <time>2019-05-09T10:57:44Z</time>
      </trkpt>
      <trkpt lat="51.24381797388196" lon="9.008574988692999">
        <ele>362.06999999999999</ele>
        <time>2019-05-09T10:57:48Z</time>
      </trkpt>
      <trkpt lat="51.243849992752075" lon="9.00844699703157">
        <ele>362.55000000000001</ele>
        <time>2019-05-09T10:57:49Z</time>
      </trkpt>
      <trkpt lat="51.244252994656563" lon="9.006862984970212">
        <ele>369.27999999999997</ele>
        <time>2019-05-09T10:58:00Z</time>
      </trkpt>
      <trkpt lat="51.244285013526678" lon="9.006723007187247">
        <ele>369.75999999999999</ele>
        <time>2019-05-09T10:58:01Z</time>
      </trkpt>
      <trkpt lat="51.244316026568413" lon="9.006581017747521">
        <ele>369.75999999999999</ele>
        <time>2019-05-09T10:58:02Z</time>
      </trkpt>
      <trkpt lat="51.244388027116656" lon="9.006286980584264">
        <ele>370.73000000000002</ele>
        <time>2019-05-09T10:58:04Z</time>
      </trkpt>
      <trkpt lat="51.244462039321661" lon="9.006021022796631">
        <ele>371.69</ele>
        <time>2019-05-09T10:58:06Z</time>
      </trkpt>
      <trkpt lat="51.244537979364395" lon="9.005851959809661">
        <ele>372.17000000000002</ele>
        <time>2019-05-09T10:58:07Z</time>
      </trkpt>
      <trkpt lat="51.244661025702953" lon="9.005577033385634">
        <ele>372.64999999999998</ele>
        <time>2019-05-09T10:58:09Z</time>
      </trkpt>
      <trkpt lat="51.244782982394099" lon="9.005304034799337">
        <ele>373.61000000000001</ele>
        <time>2019-05-09T10:58:11Z</time>
      </trkpt>
      <trkpt lat="51.244842996820807" lon="9.005179982632399">
        <ele>373.61000000000001</ele>
        <time>2019-05-09T10:58:12Z</time>
      </trkpt>
      <trkpt lat="51.245629973709583" lon="9.004054041579366">
        <ele>376.97000000000003</ele>
        <time>2019-05-09T10:58:22Z</time>
      </trkpt>
      <trkpt lat="51.245694011449814" lon="9.003938036039472">
        <ele>376.97000000000003</ele>
        <time>2019-05-09T10:58:23Z</time>
      </trkpt>
      <trkpt lat="51.245760982856154" lon="9.003808032721281">
        <ele>377.44999999999999</ele>
        <time>2019-05-09T10:58:24Z</time>
      </trkpt>
      <trkpt lat="51.245830971747637" lon="9.003666965290904">
        <ele>377.94</ele>
        <time>2019-05-09T10:58:25Z</time>
      </trkpt>
      <trkpt lat="51.245904983952641" lon="9.003516007214785">
        <ele>378.89999999999998</ele>
        <time>2019-05-09T10:58:26Z</time>
      </trkpt>
      <trkpt lat="51.246604034677148" lon="9.002086976543069">
        <ele>384.18000000000001</ele>
        <time>2019-05-09T10:58:36Z</time>
      </trkpt>
      <trkpt lat="51.247003013268113" lon="9.001278961077333">
        <ele>386.58999999999997</ele>
        <time>2019-05-09T10:58:42Z</time>
      </trkpt>
      <trkpt lat="51.247179033234715" lon="9.000960029661655">
        <ele>387.06999999999999</ele>
        <time>2019-05-09T10:58:45Z</time>
      </trkpt>
      <trkpt lat="51.247219014912844" lon="9.000887023285031">
        <ele>387.06999999999999</ele>
        <time>2019-05-09T10:58:46Z</time>
      </trkpt>
      <trkpt lat="51.247177021577954" lon="9.000702034682035">
        <ele>387.06999999999999</ele>
        <time>2019-05-09T10:58:47Z</time>
      </trkpt>
      <trkpt lat="51.247124969959259" lon="9.000612013041973">
        <ele>387.06999999999999</ele>
        <time>2019-05-09T10:58:48Z</time>
      </trkpt>
      <trkpt lat="51.247065039351583" lon="9.000511011108756">
        <ele>387.06999999999999</ele>
        <time>2019-05-09T10:58:49Z</time>
      </trkpt>
      <trkpt lat="51.24699697829783" lon="9.000392993912101">
        <ele>387.06999999999999</ele>
        <time>2019-05-09T10:58:50Z</time>
      </trkpt>
      <trkpt lat="51.246874015778303" lon="9.000172968953848">
        <ele>386.11000000000001</ele>
        <time>2019-05-09T10:58:52Z</time>
      </trkpt>
      <trkpt lat="51.246844008564949" lon="9.000119995325804">
        <ele>385.63</ele>
        <time>2019-05-09T10:58:53Z</time>
      </trkpt>
      <trkpt lat="51.246808972209692" lon="9.000085964798927">
        <ele>385.14999999999998</ele>
        <time>2019-05-09T10:58:54Z</time>
      </trkpt>
      <trkpt lat="51.246645022183657" lon="8.999921008944511">
        <ele>383.22000000000003</ele>
        <time>2019-05-09T10:59:00Z</time>
      </trkpt>
      <trkpt lat="51.246844008564949" lon="9.000119995325804">
        <ele>382.74000000000001</ele>
        <time>2019-05-09T10:59:01Z</time>
      </trkpt>
      <trkpt lat="51.246733032166958" lon="8.999670976772904">
        <ele>380.81999999999999</ele>
        <time>2019-05-09T10:59:09Z</time>
      </trkpt>
      <trkpt lat="51.246733032166958" lon="8.999670976772904">
        <ele>380.81999999999999</ele>
        <time>2019-05-09T10:59:41Z</time>
      </trkpt>
      <trkpt lat="51.246704030781984" lon="8.999719005078077">
        <ele>380.81999999999999</ele>
        <time>2019-05-09T11:00:36Z</time>
      </trkpt>
      <trkpt lat="51.24669598415494" lon="8.999740965664387">
        <ele>381.30000000000001</ele>
        <time>2019-05-09T11:01:40Z</time>
      </trkpt>
      <trkpt lat="51.246688021346927" lon="8.999770972877741">
        <ele>381.77999999999997</ele>
        <time>2019-05-09T11:02:42Z</time>
      </trkpt>
      <trkpt lat="51.246682992205024" lon="8.999784970656037">
        <ele>381.77999999999997</ele>
        <time>2019-05-09T11:03:49Z</time>
      </trkpt>
      <trkpt lat="51.246685003861785" lon="8.99978999979794">
        <ele>382.25999999999999</ele>
        <time>2019-05-09T11:04:28Z</time>
      </trkpt>
      <trkpt lat="51.246628006920218" lon="8.999903993681073">
        <ele>382.25999999999999</ele>
        <time>2019-05-09T11:04:38Z</time>
      </trkpt>
      <trkpt lat="51.246605962514877" lon="8.999883038923144">
        <ele>382.25999999999999</ele>
        <time>2019-05-09T11:04:39Z</time>
      </trkpt>
      <trkpt lat="51.246571009978652" lon="8.999846996739507">
        <ele>382.25999999999999</ele>
        <time>2019-05-09T11:04:40Z</time>
      </trkpt>
      <trkpt lat="51.246202038601041" lon="8.99972403421998">
        <ele>381.77999999999997</ele>
        <time>2019-05-09T11:04:45Z</time>
      </trkpt>
      <trkpt lat="51.246102964505553" lon="8.999711964279413">
        <ele>381.77999999999997</ele>
        <time>2019-05-09T11:04:46Z</time>
      </trkpt>
      <trkpt lat="51.246010009199381" lon="8.999700983986259">
        <ele>381.30000000000001</ele>
        <time>2019-05-09T11:04:47Z</time>
      </trkpt>
      <trkpt lat="51.245914958417416" lon="8.999692015349865">
        <ele>381.30000000000001</ele>
        <time>2019-05-09T11:04:48Z</time>
      </trkpt>
      <trkpt lat="51.245814962312579" lon="8.999705007299781">
        <ele>381.30000000000001</ele>
        <time>2019-05-09T11:04:49Z</time>
      </trkpt>
      <trkpt lat="51.245262008160353" lon="8.999773990362883">
        <ele>381.30000000000001</ele>
        <time>2019-05-09T11:04:56Z</time>
      </trkpt>
      <trkpt lat="51.244453992694616" lon="8.99951096624136">
        <ele>385.63</ele>
        <time>2019-05-09T11:05:03Z</time>
      </trkpt>
      <trkpt lat="51.243650000542402" lon="8.998623993247747">
        <ele>388.99000000000001</ele>
        <time>2019-05-09T11:05:10Z</time>
      </trkpt>
      <trkpt lat="51.242580972611904" lon="8.997501991689205">
        <ele>394.27999999999997</ele>
        <time>2019-05-09T11:05:17Z</time>
      </trkpt>
      <trkpt lat="51.240833010524511" lon="8.995946981012821">
        <ele>398.12</ele>
        <time>2019-05-09T11:05:26Z</time>
      </trkpt>
      <trkpt lat="51.23919602483511" lon="8.993453029543161">
        <ele>402.93000000000001</ele>
        <time>2019-05-09T11:05:35Z</time>
      </trkpt>
      <trkpt lat="51.237323004752398" lon="8.990570995956659">
        <ele>396.68000000000001</ele>
        <time>2019-05-09T11:05:45Z</time>
      </trkpt>
      <trkpt lat="51.236370988190174" lon="8.988605020567775">
        <ele>384.66000000000003</ele>
        <time>2019-05-09T11:05:51Z</time>
      </trkpt>
      <trkpt lat="51.235151002183557" lon="8.986354982480407">
        <ele>371.20999999999998</ele>
        <time>2019-05-09T11:05:58Z</time>
      </trkpt>
      <trkpt lat="51.233754996210337" lon="8.985105995088816">
        <ele>359.19</ele>
        <time>2019-05-09T11:06:04Z</time>
      </trkpt>
      <trkpt lat="51.232114993035793" lon="8.984530996531248">
        <ele>344.29000000000002</ele>
        <time>2019-05-09T11:06:10Z</time>
      </trkpt>
      <trkpt lat="51.230975976213813" lon="8.983559031039476">
        <ele>332.75</ele>
        <time>2019-05-09T11:06:15Z</time>
      </trkpt>
      <trkpt lat="51.229039002209902" lon="8.981467997655273">
        <ele>313.52999999999997</ele>
        <time>2019-05-09T11:06:24Z</time>
      </trkpt>
      <trkpt lat="51.228874968364835" lon="8.981307987123728">
        <ele>311.60000000000002</ele>
        <time>2019-05-09T11:06:25Z</time>
      </trkpt>
      <trkpt lat="51.228717975318432" lon="8.981230035424233">
        <ele>309.68000000000001</ele>
        <time>2019-05-09T11:06:26Z</time>
      </trkpt>
      <trkpt lat="51.228572968393564" lon="8.981181001290679">
        <ele>307.75999999999999</ele>
        <time>2019-05-09T11:06:27Z</time>
      </trkpt>
      <trkpt lat="51.228421004489064" lon="8.981220982968807">
        <ele>306.31999999999999</ele>
        <time>2019-05-09T11:06:28Z</time>
      </trkpt>
      <trkpt lat="51.228263005614281" lon="8.981262976303697">
        <ele>304.38999999999999</ele>
        <time>2019-05-09T11:06:29Z</time>
      </trkpt>
      <trkpt lat="51.228119004517794" lon="8.981330031529069">
        <ele>302.47000000000003</ele>
        <time>2019-05-09T11:06:30Z</time>
      </trkpt>
      <trkpt lat="51.227989001199603" lon="8.981437990441918">
        <ele>301.02999999999997</ele>
        <time>2019-05-09T11:06:31Z</time>
      </trkpt>
      <trkpt lat="51.227880958467722" lon="8.98159003816545">
        <ele>299.11000000000001</ele>
        <time>2019-05-09T11:06:32Z</time>
      </trkpt>
      <trkpt lat="51.227793032303452" lon="8.981728004291654">
        <ele>297.18000000000001</ele>
        <time>2019-05-09T11:06:33Z</time>
      </trkpt>
      <trkpt lat="51.227726982906461" lon="8.981872005388141">
        <ele>295.74000000000001</ele>
        <time>2019-05-09T11:06:34Z</time>
      </trkpt>
      <trkpt lat="51.227669985964894" lon="8.981995973736048">
        <ele>293.81999999999999</ele>
        <time>2019-05-09T11:06:35Z</time>
      </trkpt>
      <trkpt lat="51.227622041478753" lon="8.982100998982787">
        <ele>292.38</ele>
        <time>2019-05-09T11:06:36Z</time>
      </trkpt>
      <trkpt lat="51.227517016232014" lon="8.982296967878938">
        <ele>289.97000000000003</ele>
        <time>2019-05-09T11:06:38Z</time>
      </trkpt>
      <trkpt lat="51.22740101069212" lon="8.982484973967075">
        <ele>288.52999999999997</ele>
        <time>2019-05-09T11:06:40Z</time>
      </trkpt>
      <trkpt lat="51.227334039285779" lon="8.9825579803437">
        <ele>287.56999999999999</ele>
        <time>2019-05-09T11:06:41Z</time>
      </trkpt>
      <trkpt lat="51.227264972403646" lon="8.982634004205465">
        <ele>287.08999999999997</ele>
        <time>2019-05-09T11:06:42Z</time>
      </trkpt>
      <trkpt lat="51.226709000766277" lon="8.983219983056188">
        <ele>281.80000000000001</ele>
        <time>2019-05-09T11:06:50Z</time>
      </trkpt>
      <trkpt lat="51.226634988561273" lon="8.983292989432812">
        <ele>281.31999999999999</ele>
        <time>2019-05-09T11:06:51Z</time>
      </trkpt>
      <trkpt lat="51.226546978577971" lon="8.983344035223126">
        <ele>280.36000000000001</ele>
        <time>2019-05-09T11:06:52Z</time>
      </trkpt>
      <trkpt lat="51.226463997736573" lon="8.983350992202759">
        <ele>279.39999999999998</ele>
        <time>2019-05-09T11:06:53Z</time>
      </trkpt>
      <trkpt lat="51.226385040208697" lon="8.983359038829804">
        <ele>278.92000000000002</ele>
        <time>2019-05-09T11:06:54Z</time>
      </trkpt>
      <trkpt lat="51.226308010518551" lon="8.983292989432812">
        <ele>278.44</ele>
        <time>2019-05-09T11:06:55Z</time>
      </trkpt>
      <trkpt lat="51.226257970556617" lon="8.983215037733316">
        <ele>277.95999999999998</ele>
        <time>2019-05-09T11:06:56Z</time>
      </trkpt>
      <trkpt lat="51.226201979443431" lon="8.983126021921635">
        <ele>277.95999999999998</ele>
        <time>2019-05-09T11:06:57Z</time>
      </trkpt>
      <trkpt lat="51.226161997765303" lon="8.983039017766714">
        <ele>277.95999999999998</ele>
        <time>2019-05-09T11:06:58Z</time>
      </trkpt>
      <trkpt lat="51.22611497528851" lon="8.982936004176736">
        <ele>277.95999999999998</ele>
        <time>2019-05-09T11:06:59Z</time>
      </trkpt>
      <trkpt lat="51.225891010835767" lon="8.982609026134014">
        <ele>277.48000000000002</ele>
        <time>2019-05-09T11:07:06Z</time>
      </trkpt>
      <trkpt lat="51.225891010835767" lon="8.982609026134014">
        <ele>277.95999999999998</ele>
        <time>2019-05-09T11:07:27Z</time>
      </trkpt>
      <trkpt lat="51.225891010835767" lon="8.982609026134014">
        <ele>277.95999999999998</ele>
        <time>2019-05-09T11:08:31Z</time>
      </trkpt>
      <trkpt lat="51.225891010835767" lon="8.982609026134014">
        <ele>277.48000000000002</ele>
        <time>2019-05-09T11:09:24Z</time>
      </trkpt>
      <trkpt lat="51.225753966718912" lon="8.982419008389115">
        <ele>279.39999999999998</ele>
        <time>2019-05-09T11:10:08Z</time>
      </trkpt>
      <trkpt lat="51.225596973672509" lon="8.982190014794469">
        <ele>279.88</ele>
        <time>2019-05-09T11:10:11Z</time>
      </trkpt>
      <trkpt lat="51.225550035014749" lon="8.982110973447561">
        <ele>279.88</ele>
        <time>2019-05-09T11:10:12Z</time>
      </trkpt>
      <trkpt lat="51.225497983396053" lon="8.982023969292641">
        <ele>279.88</ele>
        <time>2019-05-09T11:10:13Z</time>
      </trkpt>
      <trkpt lat="51.225399998947978" lon="8.981821965426207">
        <ele>280.36000000000001</ele>
        <time>2019-05-09T11:10:15Z</time>
      </trkpt>
      <trkpt lat="51.225216016173363" lon="8.981371019035578">
        <ele>280.83999999999997</ele>
        <time>2019-05-09T11:10:19Z</time>
      </trkpt>
      <trkpt lat="51.225120965391397" lon="8.98113900795579">
        <ele>281.31999999999999</ele>
        <time>2019-05-09T11:10:21Z</time>
      </trkpt>
      <trkpt lat="51.225075032562017" lon="8.981026019901037">
        <ele>281.31999999999999</ele>
        <time>2019-05-09T11:10:22Z</time>
      </trkpt>
      <trkpt lat="51.225063968449831" lon="8.980892999097705">
        <ele>281.31999999999999</ele>
        <time>2019-05-09T11:10:23Z</time>
      </trkpt>
      <trkpt lat="51.225063968449831" lon="8.980770036578178">
        <ele>281.80000000000001</ele>
        <time>2019-05-09T11:10:24Z</time>
      </trkpt>
      <trkpt lat="51.225063968449831" lon="8.980641961097717">
        <ele>281.80000000000001</ele>
        <time>2019-05-09T11:10:25Z</time>
      </trkpt>
      <trkpt lat="51.225067991763353" lon="8.980511035770178">
        <ele>282.27999999999997</ele>
        <time>2019-05-09T11:10:26Z</time>
      </trkpt>
      <trkpt lat="51.225090036168694" lon="8.980238037183881">
        <ele>282.76999999999998</ele>
        <time>2019-05-09T11:10:28Z</time>
      </trkpt>
      <trkpt lat="51.22510302811861" lon="8.980091018602252">
        <ele>282.76999999999998</ele>
        <time>2019-05-09T11:10:29Z</time>
      </trkpt>
      <trkpt lat="51.225138986483216" lon="8.978805989027023">
        <ele>283.25</ele>
        <time>2019-05-09T11:10:36Z</time>
      </trkpt>
      <trkpt lat="51.225130017846823" lon="8.978575989603996">
        <ele>283.73000000000002</ele>
        <time>2019-05-09T11:10:37Z</time>
      </trkpt>
      <trkpt lat="51.225076960399747" lon="8.978337021544576">
        <ele>283.73000000000002</ele>
        <time>2019-05-09T11:10:38Z</time>
      </trkpt>
      <trkpt lat="51.225018035620451" lon="8.978110961616039">
        <ele>284.20999999999998</ele>
        <time>2019-05-09T11:10:39Z</time>
      </trkpt>
      <trkpt lat="51.224924996495247" lon="8.977900994941592">
        <ele>284.69</ele>
        <time>2019-05-09T11:10:40Z</time>
      </trkpt>
      <trkpt lat="51.224814020097256" lon="8.97772204130888">
        <ele>285.17000000000002</ele>
        <time>2019-05-09T11:10:41Z</time>
      </trkpt>
      <trkpt lat="51.224691979587078" lon="8.977588014677167">
        <ele>285.64999999999998</ele>
        <time>2019-05-09T11:10:42Z</time>
      </trkpt>
      <trkpt lat="51.224577985703945" lon="8.977462034672499">
        <ele>286.13</ele>
        <time>2019-05-09T11:10:43Z</time>
      </trkpt>
      <trkpt lat="51.224474972113967" lon="8.977348962798715">
        <ele>286.61000000000001</ele>
        <time>2019-05-09T11:10:44Z</time>
      </trkpt>
      <trkpt lat="51.224401965737343" lon="8.977242009714246">
        <ele>286.61000000000001</ele>
        <time>2019-05-09T11:10:45Z</time>
      </trkpt>
      <trkpt lat="51.224356032907963" lon="8.977129021659493">
        <ele>287.08999999999997</ele>
        <time>2019-05-09T11:10:46Z</time>
      </trkpt>
      <trkpt lat="51.224355027079582" lon="8.976973034441471">
        <ele>287.08999999999997</ele>
        <time>2019-05-09T11:10:47Z</time>
      </trkpt>
      <trkpt lat="51.224388973787427" lon="8.976833978667855">
        <ele>287.56999999999999</ele>
        <time>2019-05-09T11:10:48Z</time>
      </trkpt>
      <trkpt lat="51.224449994042516" lon="8.976696012541652">
        <ele>287.08999999999997</ele>
        <time>2019-05-09T11:10:49Z</time>
      </trkpt>
      <trkpt lat="51.224518977105618" lon="8.976540025323629">
        <ele>287.56999999999999</ele>
        <time>2019-05-09T11:10:50Z</time>
      </trkpt>
      <trkpt lat="51.225068997591734" lon="8.975288020446897">
        <ele>289.00999999999999</ele>
        <time>2019-05-09T11:10:56Z</time>
      </trkpt>
      <trkpt lat="51.225536959245801" lon="8.974034003913403">
        <ele>292.86000000000001</ele>
        <time>2019-05-09T11:11:01Z</time>
      </trkpt>
      <trkpt lat="51.225652964785695" lon="8.973824959248304">
        <ele>293.81999999999999</ele>
        <time>2019-05-09T11:11:02Z</time>
      </trkpt>
      <trkpt lat="51.225794032216072" lon="8.97364298813045">
        <ele>294.77999999999997</ele>
        <time>2019-05-09T11:11:03Z</time>
      </trkpt>
      <trkpt lat="51.22663096524775" lon="8.97258996963501">
        <ele>302.47000000000003</ele>
        <time>2019-05-09T11:11:09Z</time>
      </trkpt>
      <trkpt lat="51.226747976616025" lon="8.972550993785262">
        <ele>303.43000000000001</ele>
        <time>2019-05-09T11:11:10Z</time>
      </trkpt>
      <trkpt lat="51.226861970499158" lon="8.972544958814979">
        <ele>303.91000000000003</ele>
        <time>2019-05-09T11:11:11Z</time>
      </trkpt>
      <trkpt lat="51.226984011009336" lon="8.972604973241687">
        <ele>304.88</ele>
        <time>2019-05-09T11:11:12Z</time>
      </trkpt>
      <trkpt lat="51.227115020155907" lon="8.972671022638679">
        <ele>305.83999999999997</ele>
        <time>2019-05-09T11:11:13Z</time>
      </trkpt>
      <trkpt lat="51.227565966546535" lon="8.972923988476396">
        <ele>307.75999999999999</ele>
        <time>2019-05-09T11:11:16Z</time>
      </trkpt>
      <trkpt lat="51.227700999006629" lon="8.97308399900794">
        <ele>308.24000000000001</ele>
        <time>2019-05-09T11:11:17Z</time>
      </trkpt>
      <trkpt lat="51.227795965969563" lon="8.973284997045994">
        <ele>308.72000000000003</ele>
        <time>2019-05-09T11:11:18Z</time>
      </trkpt>
      <trkpt lat="51.227889005094767" lon="8.973481971770525">
        <ele>309.19999999999999</ele>
        <time>2019-05-09T11:11:19Z</time>
      </trkpt>
      <trkpt lat="51.227975003421307" lon="8.97366302087903">
        <ele>309.68000000000001</ele>
        <time>2019-05-09T11:11:20Z</time>
      </trkpt>
      <trkpt lat="51.22802596539259" lon="8.973769973963499">
        <ele>310.16000000000003</ele>
        <time>2019-05-09T11:11:21Z</time>
      </trkpt>
      <trkpt lat="51.228130990639329" lon="8.973874999210239">
        <ele>310.16000000000003</ele>
        <time>2019-05-09T11:11:22Z</time>
      </trkpt>
      <trkpt lat="51.228206008672714" lon="8.973950017243624">
        <ele>310.63999999999999</ele>
        <time>2019-05-09T11:11:23Z</time>
      </trkpt>
      <trkpt lat="51.228278009220958" lon="8.973998967558146">
        <ele>310.63999999999999</ele>
        <time>2019-05-09T11:11:24Z</time>
      </trkpt>
      <trkpt lat="51.228393008932471" lon="8.973945993930101">
        <ele>310.63999999999999</ele>
        <time>2019-05-09T11:11:25Z</time>
      </trkpt>
      <trkpt lat="51.228522006422281" lon="8.973886985331774">
        <ele>310.16000000000003</ele>
        <time>2019-05-09T11:11:26Z</time>
      </trkpt>
      <trkpt lat="51.228776983916759" lon="8.973769973963499">
        <ele>310.16000000000003</ele>
        <time>2019-05-09T11:11:28Z</time>
      </trkpt>
      <trkpt lat="51.228846972808242" lon="8.973665032535791">
        <ele>310.16000000000003</ele>
        <time>2019-05-09T11:11:29Z</time>
      </trkpt>
      <trkpt lat="51.228947974741459" lon="8.97351298481226">
        <ele>310.16000000000003</ele>
        <time>2019-05-09T11:11:30Z</time>
      </trkpt>
      <trkpt lat="51.228953003883362" lon="8.973388010635972">
        <ele>310.16000000000003</ele>
        <time>2019-05-09T11:11:31Z</time>
      </trkpt>
      <trkpt lat="51.228960966691375" lon="8.9731689915061">
        <ele>310.16000000000003</ele>
        <time>2019-05-09T11:11:32Z</time>
      </trkpt>
      <trkpt lat="51.2289700191468" lon="8.972921976819634">
        <ele>310.16000000000003</ele>
        <time>2019-05-09T11:11:33Z</time>
      </trkpt>
      <trkpt lat="51.229074960574508" lon="8.971414994448423">
        <ele>309.19999999999999</ele>
        <time>2019-05-09T11:11:38Z</time>
      </trkpt>
      <trkpt lat="51.229212004691362" lon="8.970580995082855">
        <ele>308.24000000000001</ele>
        <time>2019-05-09T11:11:41Z</time>
      </trkpt>
      <trkpt lat="51.229251986369491" lon="8.970336997881532">
        <ele>308.24000000000001</ele>
        <time>2019-05-09T11:11:42Z</time>
      </trkpt>
      <trkpt lat="51.229255003854632" lon="8.970067016780376">
        <ele>308.24000000000001</ele>
        <time>2019-05-09T11:11:43Z</time>
      </trkpt>
      <trkpt lat="51.229148972779512" lon="8.967469967901707">
        <ele>307.27999999999997</ele>
        <time>2019-05-09T11:11:52Z</time>
      </trkpt>
      <trkpt lat="51.229172023013234" lon="8.966462966054678">
        <ele>310.16000000000003</ele>
        <time>2019-05-09T11:11:56Z</time>
      </trkpt>
      <trkpt lat="51.229235976934433" lon="8.966258028522134">
        <ele>311.12</ele>
        <time>2019-05-09T11:11:57Z</time>
      </trkpt>
      <trkpt lat="51.229327004402876" lon="8.966067004948854">
        <ele>312.08999999999997</ele>
        <time>2019-05-09T11:11:58Z</time>
      </trkpt>
      <trkpt lat="51.229428006336093" lon="8.965872963890433">
        <ele>313.05000000000001</ele>
        <time>2019-05-09T11:11:59Z</time>
      </trkpt>
      <trkpt lat="51.229531019926071" lon="8.965694010257721">
        <ele>314.00999999999999</ele>
        <time>2019-05-09T11:12:00Z</time>
      </trkpt>
      <trkpt lat="51.229653982445598" lon="8.965545985847712">
        <ele>314.97000000000003</ele>
        <time>2019-05-09T11:12:01Z</time>
      </trkpt>
      <trkpt lat="51.230042986571789" lon="8.965080035850406">
        <ele>319.30000000000001</ele>
        <time>2019-05-09T11:12:06Z</time>
      </trkpt>
      <trkpt lat="51.230204002931714" lon="8.965007029473782">
        <ele>321.22000000000003</ele>
        <time>2019-05-09T11:12:08Z</time>
      </trkpt>
      <trkpt lat="51.230226969346404" lon="8.964947015047073">
        <ele>322.18000000000001</ele>
        <time>2019-05-09T11:12:09Z</time>
      </trkpt>
      <trkpt lat="51.230555037036538" lon="8.964218962937594">
        <ele>327.47000000000003</ele>
        <time>2019-05-09T11:12:16Z</time>
      </trkpt>
      <trkpt lat="51.231286022812128" lon="8.962562028318644">
        <ele>334.19999999999999</ele>
        <time>2019-05-09T11:12:24Z</time>
      </trkpt>
      <trkpt lat="51.231557009741664" lon="8.961605988442898">
        <ele>338.04000000000002</ele>
        <time>2019-05-09T11:12:28Z</time>
      </trkpt>
      <trkpt lat="51.231608977541327" lon="8.961183959618211">
        <ele>339</ele>
        <time>2019-05-09T11:12:29Z</time>
      </trkpt>
      <trkpt lat="51.231579976156354" lon="8.961002994328737">
        <ele>339.48000000000002</ele>
        <time>2019-05-09T11:12:30Z</time>
      </trkpt>
      <trkpt lat="51.231539994478226" lon="8.960823034867644">
        <ele>340.44</ele>
        <time>2019-05-09T11:12:31Z</time>
      </trkpt>
      <trkpt lat="51.231501018628478" lon="8.960647014901042">
        <ele>340.92000000000002</ele>
        <time>2019-05-09T11:12:32Z</time>
      </trkpt>
      <trkpt lat="51.231447961181402" lon="8.960483986884356">
        <ele>342.37</ele>
        <time>2019-05-09T11:12:34Z</time>
      </trkpt>
      <trkpt lat="51.230813032016158" lon="8.959094015881419">
        <ele>346.69</ele>
        <time>2019-05-09T11:12:41Z</time>
      </trkpt>
      <trkpt lat="51.230739019811153" lon="8.958884971216321">
        <ele>347.64999999999998</ele>
        <time>2019-05-09T11:12:42Z</time>
      </trkpt>
      <trkpt lat="51.230691997334361" lon="8.95866603590548">
        <ele>348.13</ele>
        <time>2019-05-09T11:12:43Z</time>
      </trkpt>
      <trkpt lat="51.230655033141375" lon="8.958436036482453">
        <ele>349.10000000000002</ele>
        <time>2019-05-09T11:12:44Z</time>
      </trkpt>
      <trkpt lat="51.230630977079272" lon="8.958201007917523">
        <ele>349.57999999999998</ele>
        <time>2019-05-09T11:12:45Z</time>
      </trkpt>
      <trkpt lat="51.230607004836202" lon="8.957960028201342">
        <ele>350.54000000000002</ele>
        <time>2019-05-09T11:12:46Z</time>
      </trkpt>
      <trkpt lat="51.23045302927494" lon="8.956435024738312">
        <ele>354.86000000000001</ele>
        <time>2019-05-09T11:12:53Z</time>
      </trkpt>
      <trkpt lat="51.230398965999484" lon="8.955961028113961">
        <ele>354.86000000000001</ele>
        <time>2019-05-09T11:12:54Z</time>
      </trkpt>
      <trkpt lat="51.230322020128369" lon="8.955768998712301">
        <ele>355.33999999999997</ele>
        <time>2019-05-09T11:12:55Z</time>
      </trkpt>
      <trkpt lat="51.230236021801829" lon="8.955552997067571">
        <ele>356.31</ele>
        <time>2019-05-09T11:12:56Z</time>
      </trkpt>
      <trkpt lat="51.230125967413187" lon="8.95537999458611">
        <ele>356.79000000000002</ele>
        <time>2019-05-09T11:12:57Z</time>
      </trkpt>
      <trkpt lat="51.229994958266616" lon="8.955199029296637">
        <ele>357.26999999999998</ele>
        <time>2019-05-09T11:12:58Z</time>
      </trkpt>
      <trkpt lat="51.229853974655271" lon="8.955016974359751">
        <ele>358.23000000000002</ele>
        <time>2019-05-09T11:12:59Z</time>
      </trkpt>
      <trkpt lat="51.228897012770176" lon="8.954116003587842">
        <ele>361.58999999999997</ele>
        <time>2019-05-09T11:13:05Z</time>
      </trkpt>
      <trkpt lat="51.228758040815592" lon="8.953951969742775">
        <ele>362.06999999999999</ele>
        <time>2019-05-09T11:13:06Z</time>
      </trkpt>
      <trkpt lat="51.228641029447317" lon="8.953743008896709">
        <ele>362.06999999999999</ele>
        <time>2019-05-09T11:13:07Z</time>
      </trkpt>
      <trkpt lat="51.228521000593901" lon="8.953524995595217">
        <ele>362.55000000000001</ele>
        <time>2019-05-09T11:13:08Z</time>
      </trkpt>
      <trkpt lat="51.228398038074374" lon="8.953290972858667">
        <ele>362.06999999999999</ele>
        <time>2019-05-09T11:13:09Z</time>
      </trkpt>
      <trkpt lat="51.227391036227345" lon="8.951309993863106">
        <ele>360.14999999999998</ele>
        <time>2019-05-09T11:13:17Z</time>
      </trkpt>
      <trkpt lat="51.227257009595633" lon="8.951148977503181">
        <ele>359.67000000000002</ele>
        <time>2019-05-09T11:13:18Z</time>
      </trkpt>
      <trkpt lat="51.227112002670765" lon="8.951031966134906">
        <ele>359.67000000000002</ele>
        <time>2019-05-09T11:13:19Z</time>
      </trkpt>
      <trkpt lat="51.22697101905942" lon="8.950928030535579">
        <ele>359.19</ele>
        <time>2019-05-09T11:13:20Z</time>
      </trkpt>
      <trkpt lat="51.22682299464941" lon="8.950858041644096">
        <ele>359.19</ele>
        <time>2019-05-09T11:13:21Z</time>
      </trkpt>
      <trkpt lat="51.22667295858264" lon="8.950787968933582">
        <ele>358.70999999999998</ele>
        <time>2019-05-09T11:13:22Z</time>
      </trkpt>
      <trkpt lat="51.226515965536237" lon="8.950773971155286">
        <ele>358.23000000000002</ele>
        <time>2019-05-09T11:13:23Z</time>
      </trkpt>
      <trkpt lat="51.226353021338582" lon="8.950784029439092">
        <ele>358.23000000000002</ele>
        <time>2019-05-09T11:13:24Z</time>
      </trkpt>
      <trkpt lat="51.226183958351612" lon="8.950814036652446">
        <ele>357.75</ele>
        <time>2019-05-09T11:13:25Z</time>
      </trkpt>
      <trkpt lat="51.225998969748616" lon="8.950870027765632">
        <ele>357.26999999999998</ele>
        <time>2019-05-09T11:13:26Z</time>
      </trkpt>
      <trkpt lat="51.224279003217816" lon="8.951390041038394">
        <ele>352.94</ele>
        <time>2019-05-09T11:13:34Z</time>
      </trkpt>
      <trkpt lat="51.223558997735381" lon="8.951562037691474">
        <ele>349.10000000000002</ele>
        <time>2019-05-09T11:13:38Z</time>
      </trkpt>
      <trkpt lat="51.223426982760429" lon="8.951548961922526">
        <ele>348.13</ele>
        <time>2019-05-09T11:13:39Z</time>
      </trkpt>
      <trkpt lat="51.223307959735394" lon="8.951495988294482">
        <ele>346.69</ele>
        <time>2019-05-09T11:13:40Z</time>
      </trkpt>
      <trkpt lat="51.223219027742743" lon="8.95140596665442">
        <ele>346.20999999999998</ele>
        <time>2019-05-09T11:13:41Z</time>
      </trkpt>
      <trkpt lat="51.223139986395836" lon="8.951277974992991">
        <ele>345.25</ele>
        <time>2019-05-09T11:13:42Z</time>
      </trkpt>
      <trkpt lat="51.223050970584154" lon="8.951132968068123">
        <ele>344.76999999999998</ele>
        <time>2019-05-09T11:13:43Z</time>
      </trkpt>
      <trkpt lat="51.222952986136079" lon="8.950973963364959">
        <ele>344.29000000000002</ele>
        <time>2019-05-09T11:13:44Z</time>
      </trkpt>
      <trkpt lat="51.222507990896702" lon="8.950310032814741">
        <ele>342.37</ele>
        <time>2019-05-09T11:13:48Z</time>
      </trkpt>
      <trkpt lat="51.222354015335441" lon="8.950195033103228">
        <ele>342.37</ele>
        <time>2019-05-09T11:13:49Z</time>
      </trkpt>
      <trkpt lat="51.222187969833612" lon="8.950071986764669">
        <ele>341.88999999999999</ele>
        <time>2019-05-09T11:13:50Z</time>
      </trkpt>
      <trkpt lat="51.221260009333491" lon="8.949325997382402">
        <ele>339.48000000000002</ele>
        <time>2019-05-09T11:13:55Z</time>
      </trkpt>
      <trkpt lat="51.221094969660044" lon="8.949136985465884">
        <ele>339</ele>
        <time>2019-05-09T11:13:56Z</time>
      </trkpt>
      <trkpt lat="51.22095599770546" lon="8.948865998536348">
        <ele>338.04000000000002</ele>
        <time>2019-05-09T11:13:57Z</time>
      </trkpt>
      <trkpt lat="51.220821971073747" lon="8.948602974414825">
        <ele>337.07999999999998</ele>
        <time>2019-05-09T11:13:58Z</time>
      </trkpt>
      <trkpt lat="51.220691967755556" lon="8.948350008577108">
        <ele>336.60000000000002</ele>
        <time>2019-05-09T11:13:59Z</time>
      </trkpt>
      <trkpt lat="51.220272034406662" lon="8.947706026956439">
        <ele>335.63999999999999</ele>
        <time>2019-05-09T11:14:02Z</time>
      </trkpt>
      <trkpt lat="51.220115963369608" lon="8.947549033910036">
        <ele>335.16000000000003</ele>
        <time>2019-05-09T11:14:03Z</time>
      </trkpt>
      <trkpt lat="51.219955030828714" lon="8.947461023926735">
        <ele>334.68000000000001</ele>
        <time>2019-05-09T11:14:04Z</time>
      </trkpt>
      <trkpt lat="51.219794014468789" lon="8.947372008115053">
        <ele>333.70999999999998</ele>
        <time>2019-05-09T11:14:05Z</time>
      </trkpt>
      <trkpt lat="51.21962696313858" lon="8.947376031428576">
        <ele>332.75</ele>
        <time>2019-05-09T11:14:06Z</time>
      </trkpt>
      <trkpt lat="51.219462007284164" lon="8.947401009500027">
        <ele>331.79000000000002</ele>
        <time>2019-05-09T11:14:07Z</time>
      </trkpt>
      <trkpt lat="51.219294033944607" lon="8.947424981743097">
        <ele>330.82999999999998</ele>
        <time>2019-05-09T11:14:08Z</time>
      </trkpt>
      <trkpt lat="51.219123965129256" lon="8.947481978684664">
        <ele>329.87</ele>
        <time>2019-05-09T11:14:09Z</time>
      </trkpt>
      <trkpt lat="51.21893897652626" lon="8.947606030851603">
        <ele>328.91000000000003</ele>
        <time>2019-05-09T11:14:10Z</time>
      </trkpt>
      <trkpt lat="51.218740995973349" lon="8.947737962007523">
        <ele>327.94999999999999</ele>
        <time>2019-05-09T11:14:11Z</time>
      </trkpt>
      <trkpt lat="51.21769099496305" lon="8.948431983590126">
        <ele>324.10000000000002</ele>
        <time>2019-05-09T11:14:16Z</time>
      </trkpt>
      <trkpt lat="51.2174759991467" lon="8.948479006066918">
        <ele>323.62</ele>
        <time>2019-05-09T11:14:17Z</time>
      </trkpt>
      <trkpt lat="51.216901000589132" lon="8.948616972193122">
        <ele>322.18000000000001</ele>
        <time>2019-05-09T11:14:20Z</time>
      </trkpt>
      <trkpt lat="51.216721963137388" lon="8.948715040460229">
        <ele>321.22000000000003</ele>
        <time>2019-05-09T11:14:21Z</time>
      </trkpt>
      <trkpt lat="51.216194992884994" lon="8.949266988784075">
        <ele>319.77999999999997</ele>
        <time>2019-05-09T11:14:24Z</time>
      </trkpt>
      <trkpt lat="51.216029031202197" lon="8.949500005692244">
        <ele>318.81</ele>
        <time>2019-05-09T11:14:25Z</time>
      </trkpt>
      <trkpt lat="51.215876983478665" lon="8.949759006500244">
        <ele>318.32999999999998</ele>
        <time>2019-05-09T11:14:26Z</time>
      </trkpt>
      <trkpt lat="51.215595016255975" lon="8.950239038094878">
        <ele>316.88999999999999</ele>
        <time>2019-05-09T11:14:28Z</time>
      </trkpt>
      <trkpt lat="51.215455960482359" lon="8.950436012819409">
        <ele>315.93000000000001</ele>
        <time>2019-05-09T11:14:29Z</time>
      </trkpt>
      <trkpt lat="51.215291004627943" lon="8.950525028631091">
        <ele>315.44999999999999</ele>
        <time>2019-05-09T11:14:30Z</time>
      </trkpt>
      <trkpt lat="51.215122025460005" lon="8.9505660161376">
        <ele>314.49000000000001</ele>
        <time>2019-05-09T11:14:31Z</time>
      </trkpt>
      <trkpt lat="51.21494198217988" lon="8.950533997267485">
        <ele>314.00999999999999</ele>
        <time>2019-05-09T11:14:32Z</time>
      </trkpt>
      <trkpt lat="51.21474701911211" lon="8.950498960912228">
        <ele>313.52999999999997</ele>
        <time>2019-05-09T11:14:33Z</time>
      </trkpt>
      <trkpt lat="51.213096035644412" lon="8.950221017003059">
        <ele>310.63999999999999</ele>
        <time>2019-05-09T11:14:40Z</time>
      </trkpt>
      <trkpt lat="51.212128009647131" lon="8.950063018128276">
        <ele>310.16000000000003</ele>
        <time>2019-05-09T11:14:45Z</time>
      </trkpt>
      <trkpt lat="51.211960958316922" lon="8.950035022571683">
        <ele>309.68000000000001</ele>
        <time>2019-05-09T11:14:46Z</time>
      </trkpt>
      <trkpt lat="51.211799019947648" lon="8.949984982609749">
        <ele>309.68000000000001</ele>
        <time>2019-05-09T11:14:47Z</time>
      </trkpt>
      <trkpt lat="51.2116530071944" lon="8.949888003990054">
        <ele>309.19999999999999</ele>
        <time>2019-05-09T11:14:48Z</time>
      </trkpt>
      <trkpt lat="51.211526021361351" lon="8.949710978195071">
        <ele>308.72000000000003</ele>
        <time>2019-05-09T11:14:49Z</time>
      </trkpt>
      <trkpt lat="51.211391994729638" lon="8.949525989592075">
        <ele>308.72000000000003</ele>
        <time>2019-05-09T11:14:50Z</time>
      </trkpt>
      <trkpt lat="51.211256962269545" lon="8.949317028746009">
        <ele>308.72000000000003</ele>
        <time>2019-05-09T11:14:51Z</time>
      </trkpt>
      <trkpt lat="51.210979018360376" lon="8.948941016569734">
        <ele>308.24000000000001</ele>
        <time>2019-05-09T11:14:53Z</time>
      </trkpt>
      <trkpt lat="51.210827976465225" lon="8.948801038786769">
        <ele>308.24000000000001</ele>
        <time>2019-05-09T11:14:54Z</time>
      </trkpt>
      <trkpt lat="51.210668971762061" lon="8.948698025196791">
        <ele>308.24000000000001</ele>
        <time>2019-05-09T11:14:55Z</time>
      </trkpt>
      <trkpt lat="51.210506027564406" lon="8.948618983849883">
        <ele>308.24000000000001</ele>
        <time>2019-05-09T11:14:56Z</time>
      </trkpt>
      <trkpt lat="51.210339982062578" lon="8.94856701605022">
        <ele>308.24000000000001</ele>
        <time>2019-05-09T11:14:57Z</time>
      </trkpt>
      <trkpt lat="51.209893980994821" lon="8.948428966104984">
        <ele>307.75999999999999</ele>
        <time>2019-05-09T11:15:00Z</time>
      </trkpt>
      <trkpt lat="51.209780992940068" lon="8.948335004970431">
        <ele>307.27999999999997</ele>
        <time>2019-05-09T11:15:01Z</time>
      </trkpt>
      <trkpt lat="51.209692982956767" lon="8.94818396307528">
        <ele>307.27999999999997</ele>
        <time>2019-05-09T11:15:02Z</time>
      </trkpt>
      <trkpt lat="51.209608996286988" lon="8.948024036362767">
        <ele>307.27999999999997</ele>
        <time>2019-05-09T11:15:03Z</time>
      </trkpt>
      <trkpt lat="51.209530038759112" lon="8.947840975597501">
        <ele>307.27999999999997</ele>
        <time>2019-05-09T11:15:04Z</time>
      </trkpt>
      <trkpt lat="51.209468012675643" lon="8.947625979781151">
        <ele>307.27999999999997</ele>
        <time>2019-05-09T11:15:05Z</time>
      </trkpt>
      <trkpt lat="51.209323005750775" lon="8.947195988148451">
        <ele>307.27999999999997</ele>
        <time>2019-05-09T11:15:07Z</time>
      </trkpt>
      <trkpt lat="51.209233989939094" lon="8.947001025080681">
        <ele>306.80000000000001</ele>
        <time>2019-05-09T11:15:08Z</time>
      </trkpt>
      <trkpt lat="51.209147991612554" lon="8.946814024820924">
        <ele>306.31999999999999</ele>
        <time>2019-05-09T11:15:09Z</time>
      </trkpt>
      <trkpt lat="51.209040032699704" lon="8.946661977097392">
        <ele>306.31999999999999</ele>
        <time>2019-05-09T11:15:10Z</time>
      </trkpt>
      <trkpt lat="51.208916986361146" lon="8.946547983214259">
        <ele>306.31999999999999</ele>
        <time>2019-05-09T11:15:11Z</time>
      </trkpt>
      <trkpt lat="51.208783965557814" lon="8.946458967402577">
        <ele>305.83999999999997</ele>
        <time>2019-05-09T11:15:12Z</time>
      </trkpt>
      <trkpt lat="51.208655973896384" lon="8.946372969076037">
        <ele>305.36000000000001</ele>
        <time>2019-05-09T11:15:13Z</time>
      </trkpt>
      <trkpt lat="51.20853896252811" lon="8.946295017376542">
        <ele>305.36000000000001</ele>
        <time>2019-05-09T11:15:14Z</time>
      </trkpt>
      <trkpt lat="51.208445001393557" lon="8.946195021271706">
        <ele>304.88</ele>
        <time>2019-05-09T11:15:15Z</time>
      </trkpt>
      <trkpt lat="51.208374006673694" lon="8.946069041267037">
        <ele>304.38999999999999</ele>
        <time>2019-05-09T11:15:16Z</time>
      </trkpt>
      <trkpt lat="51.208330001682043" lon="8.945910958573222">
        <ele>303.91000000000003</ele>
        <time>2019-05-09T11:15:17Z</time>
      </trkpt>
      <trkpt lat="51.20828197337687" lon="8.945740973576903">
        <ele>303.43000000000001</ele>
        <time>2019-05-09T11:15:18Z</time>
      </trkpt>
      <trkpt lat="51.208233023062348" lon="8.945567971095443">
        <ele>302.94999999999999</ele>
        <time>2019-05-09T11:15:19Z</time>
      </trkpt>
      <trkpt lat="51.208174014464021" lon="8.945407038554549">
        <ele>302.47000000000003</ele>
        <time>2019-05-09T11:15:20Z</time>
      </trkpt>
      <trkpt lat="51.208093967288733" lon="8.94528298638761">
        <ele>301.99000000000001</ele>
        <time>2019-05-09T11:15:21Z</time>
      </trkpt>
      <trkpt lat="51.208006041124463" lon="8.945146026089788">
        <ele>301.02999999999997</ele>
        <time>2019-05-09T11:15:22Z</time>
      </trkpt>
      <trkpt lat="51.207885006442666" lon="8.945093974471092">
        <ele>300.55000000000001</ele>
        <time>2019-05-09T11:15:23Z</time>
      </trkpt>
      <trkpt lat="51.20776598341763" lon="8.945015016943216">
        <ele>300.06999999999999</ele>
        <time>2019-05-09T11:15:24Z</time>
      </trkpt>
      <trkpt lat="51.207652995362878" lon="8.944939998909831">
        <ele>299.11000000000001</ele>
        <time>2019-05-09T11:15:25Z</time>
      </trkpt>
      <trkpt lat="51.207545036450028" lon="8.944866992533207">
        <ele>298.14999999999998</ele>
        <time>2019-05-09T11:15:26Z</time>
      </trkpt>
      <trkpt lat="51.207439005374908" lon="8.944772025570273">
        <ele>297.18000000000001</ele>
        <time>2019-05-09T11:15:27Z</time>
      </trkpt>
      <trkpt lat="51.206846991553903" lon="8.944180011749268">
        <ele>292.86000000000001</ele>
        <time>2019-05-09T11:15:33Z</time>
      </trkpt>
      <trkpt lat="51.206726962700486" lon="8.944124020636082">
        <ele>292.38</ele>
        <time>2019-05-09T11:15:34Z</time>
      </trkpt>
      <trkpt lat="51.206601988524199" lon="8.944079009816051">
        <ele>291.42000000000002</ele>
        <time>2019-05-09T11:15:35Z</time>
      </trkpt>
      <trkpt lat="51.206463016569614" lon="8.944045985117555">
        <ele>290.94</ele>
        <time>2019-05-09T11:15:36Z</time>
      </trkpt>
      <trkpt lat="51.20632303878665" lon="8.9440350048244">
        <ele>289.97000000000003</ele>
        <time>2019-05-09T11:15:37Z</time>
      </trkpt>
      <trkpt lat="51.20619798079133" lon="8.944024024531245">
        <ele>289.00999999999999</ele>
        <time>2019-05-09T11:15:38Z</time>
      </trkpt>
      <trkpt lat="51.206075018271804" lon="8.944013966247439">
        <ele>288.05000000000001</ele>
        <time>2019-05-09T11:15:39Z</time>
      </trkpt>
      <trkpt lat="51.205953983590007" lon="8.944022012874484">
        <ele>287.08999999999997</ele>
        <time>2019-05-09T11:15:40Z</time>
      </trkpt>
      <trkpt lat="51.205839989706874" lon="8.944051014259458">
        <ele>286.13</ele>
        <time>2019-05-09T11:15:41Z</time>
      </trkpt>
      <trkpt lat="51.205733958631754" lon="8.944076998159289">
        <ele>285.17000000000002</ele>
        <time>2019-05-09T11:15:42Z</time>
      </trkpt>
      <trkpt lat="51.205634968355298" lon="8.944101976230741">
        <ele>284.69</ele>
        <time>2019-05-09T11:15:43Z</time>
      </trkpt>
      <trkpt lat="51.205547964200377" lon="8.944124020636082">
        <ele>283.73000000000002</ele>
        <time>2019-05-09T11:15:44Z</time>
      </trkpt>
      <trkpt lat="51.205479986965656" lon="8.94414103589952">
        <ele>282.76999999999998</ele>
        <time>2019-05-09T11:15:45Z</time>
      </trkpt>
      <trkpt lat="51.2054000236094" lon="8.944160984829068">
        <ele>280.36000000000001</ele>
        <time>2019-05-09T11:15:48Z</time>
      </trkpt>
      <trkpt lat="51.205378985032439" lon="8.944166013970971">
        <ele>279.88</ele>
        <time>2019-05-09T11:15:49Z</time>
      </trkpt>
      <trkpt lat="51.205278988927603" lon="8.944090995937586">
        <ele>278.92000000000002</ele>
        <time>2019-05-09T11:15:50Z</time>
      </trkpt>
      <trkpt lat="51.205239007249475" lon="8.94401203840971">
        <ele>278.44</ele>
        <time>2019-05-09T11:15:51Z</time>
      </trkpt>
      <trkpt lat="51.205198019742966" lon="8.943941965699196">
        <ele>277.95999999999998</ele>
        <time>2019-05-09T11:15:52Z</time>
      </trkpt>
      <trkpt lat="51.205136999487877" lon="8.943862002342939">
        <ele>277.48000000000002</ele>
        <time>2019-05-09T11:15:53Z</time>
      </trkpt>
      <trkpt lat="51.204996015876532" lon="8.943679025396705">
        <ele>275.56</ele>
        <time>2019-05-09T11:15:55Z</time>
      </trkpt>
      <trkpt lat="51.20492996647954" lon="8.943594032898545">
        <ele>275.06999999999999</ele>
        <time>2019-05-09T11:15:56Z</time>
      </trkpt>
      <trkpt lat="51.204727962613106" lon="8.943264959380031">
        <ele>273.63</ele>
        <time>2019-05-09T11:15:59Z</time>
      </trkpt>
      <trkpt lat="51.204669959843159" lon="8.943122969940305">
        <ele>273.14999999999998</ele>
        <time>2019-05-09T11:16:00Z</time>
      </trkpt>
      <trkpt lat="51.204620003700256" lon="8.942972011864185">
        <ele>272.19</ele>
        <time>2019-05-09T11:16:01Z</time>
      </trkpt>
      <trkpt lat="51.204582033678889" lon="8.942805966362357">
        <ele>271.70999999999998</ele>
        <time>2019-05-09T11:16:02Z</time>
      </trkpt>
      <trkpt lat="51.20454297401011" lon="8.942632041871548">
        <ele>271.70999999999998</ele>
        <time>2019-05-09T11:16:03Z</time>
      </trkpt>
      <trkpt lat="51.20450098067522" lon="8.942449986934662">
        <ele>271.23000000000002</ele>
        <time>2019-05-09T11:16:04Z</time>
      </trkpt>
      <trkpt lat="51.20445798151195" lon="8.942262986674905">
        <ele>271.23000000000002</ele>
        <time>2019-05-09T11:16:05Z</time>
      </trkpt>
      <trkpt lat="51.204178025946021" lon="8.940916014835239">
        <ele>273.63</ele>
        <time>2019-05-09T11:16:12Z</time>
      </trkpt>
      <trkpt lat="51.204145001247525" lon="8.940721973776817">
        <ele>273.63</ele>
        <time>2019-05-09T11:16:13Z</time>
      </trkpt>
      <trkpt lat="51.204081969335675" lon="8.940353002399206">
        <ele>274.58999999999997</ele>
        <time>2019-05-09T11:16:15Z</time>
      </trkpt>
      <trkpt lat="51.204042993485928" lon="8.939960980787873">
        <ele>276.04000000000002</ele>
        <time>2019-05-09T11:16:17Z</time>
      </trkpt>
      <trkpt lat="51.204040981829166" lon="8.937892997637391">
        <ele>284.69</ele>
        <time>2019-05-09T11:16:25Z</time>
      </trkpt>
      <trkpt lat="51.204019021242857" lon="8.937578005716205">
        <ele>285.64999999999998</ele>
        <time>2019-05-09T11:16:26Z</time>
      </trkpt>
      <trkpt lat="51.203965963795781" lon="8.937259996309876">
        <ele>286.13</ele>
        <time>2019-05-09T11:16:27Z</time>
      </trkpt>
      <trkpt lat="51.203879965469241" lon="8.936938969418407">
        <ele>286.61000000000001</ele>
        <time>2019-05-09T11:16:28Z</time>
      </trkpt>
      <trkpt lat="51.203777035698295" lon="8.936611991375685">
        <ele>287.08999999999997</ele>
        <time>2019-05-09T11:16:29Z</time>
      </trkpt>
      <trkpt lat="51.203664969652891" lon="8.93627998419106">
        <ele>287.56999999999999</ele>
        <time>2019-05-09T11:16:30Z</time>
      </trkpt>
      <trkpt lat="51.202858965843916" lon="8.934035981073976">
        <ele>289.49000000000001</ele>
        <time>2019-05-09T11:16:37Z</time>
      </trkpt>
      <trkpt lat="51.202791994437575" lon="8.933797013014555">
        <ele>289.97000000000003</ele>
        <time>2019-05-09T11:16:38Z</time>
      </trkpt>
      <trkpt lat="51.202766010537744" lon="8.933557961136103">
        <ele>290.45999999999998</ele>
        <time>2019-05-09T11:16:39Z</time>
      </trkpt>
      <trkpt lat="51.202756036072969" lon="8.933329973369837">
        <ele>290.94</ele>
        <time>2019-05-09T11:16:40Z</time>
      </trkpt>
      <trkpt lat="51.202783025801182" lon="8.933146996423602">
        <ele>291.42000000000002</ele>
        <time>2019-05-09T11:16:41Z</time>
      </trkpt>
      <trkpt lat="51.202852008864284" lon="8.932952033355832">
        <ele>291.89999999999998</ele>
        <time>2019-05-09T11:16:42Z</time>
      </trkpt>
      <trkpt lat="51.202932978048921" lon="8.932768972590566">
        <ele>292.38</ele>
        <time>2019-05-09T11:16:43Z</time>
      </trkpt>
      <trkpt lat="51.203024005517364" lon="8.932565962895751">
        <ele>293.33999999999997</ele>
        <time>2019-05-09T11:16:44Z</time>
      </trkpt>
      <trkpt lat="51.203120984137058" lon="8.932349039241672">
        <ele>294.30000000000001</ele>
        <time>2019-05-09T11:16:45Z</time>
      </trkpt>
      <trkpt lat="51.203220980241895" lon="8.932123985141516">
        <ele>295.25999999999999</ele>
        <time>2019-05-09T11:16:46Z</time>
      </trkpt>
      <trkpt lat="51.203263979405165" lon="8.931844029575586">
        <ele>296.22000000000003</ele>
        <time>2019-05-09T11:16:47Z</time>
      </trkpt>
      <trkpt lat="51.203290969133377" lon="8.931548986583948">
        <ele>297.18000000000001</ele>
        <time>2019-05-09T11:16:48Z</time>
      </trkpt>
      <trkpt lat="51.203297004103661" lon="8.93123097717762">
        <ele>298.63</ele>
        <time>2019-05-09T11:16:49Z</time>
      </trkpt>
      <trkpt lat="51.203278983011842" lon="8.930906010791659">
        <ele>299.58999999999997</ele>
        <time>2019-05-09T11:16:50Z</time>
      </trkpt>
      <trkpt lat="51.203259034082294" lon="8.930017026141286">
        <ele>302.47000000000003</ele>
        <time>2019-05-09T11:16:53Z</time>
      </trkpt>
      <trkpt lat="51.203320976346731" lon="8.929797001183033">
        <ele>303.43000000000001</ele>
        <time>2019-05-09T11:16:54Z</time>
      </trkpt>
      <trkpt lat="51.203392976894975" lon="8.929602038115263">
        <ele>304.38999999999999</ele>
        <time>2019-05-09T11:16:55Z</time>
      </trkpt>
      <trkpt lat="51.203501019626856" lon="8.929430041462183">
        <ele>305.83999999999997</ele>
        <time>2019-05-09T11:16:56Z</time>
      </trkpt>
      <trkpt lat="51.203621970489621" lon="8.929268019273877">
        <ele>306.80000000000001</ele>
        <time>2019-05-09T11:16:57Z</time>
      </trkpt>
      <trkpt lat="51.203749962151051" lon="8.929097028449178">
        <ele>307.75999999999999</ele>
        <time>2019-05-09T11:16:58Z</time>
      </trkpt>
      <trkpt lat="51.203878959640861" lon="8.928917990997434">
        <ele>308.72000000000003</ele>
        <time>2019-05-09T11:16:59Z</time>
      </trkpt>
      <trkpt lat="51.203990019857883" lon="8.928711963817477">
        <ele>309.68000000000001</ele>
        <time>2019-05-09T11:17:00Z</time>
      </trkpt>
      <trkpt lat="51.20406998321414" lon="8.928442988544703">
        <ele>310.63999999999999</ele>
        <time>2019-05-09T11:17:01Z</time>
      </trkpt>
      <trkpt lat="51.204099990427494" lon="8.928153980523348">
        <ele>311.12</ele>
        <time>2019-05-09T11:17:02Z</time>
      </trkpt>
      <trkpt lat="51.204099990427494" lon="8.927851980552077">
        <ele>311.60000000000002</ele>
        <time>2019-05-09T11:17:03Z</time>
      </trkpt>
      <trkpt lat="51.204063026234508" lon="8.927536988630891">
        <ele>312.08999999999997</ele>
        <time>2019-05-09T11:17:04Z</time>
      </trkpt>
      <trkpt lat="51.20400401763618" lon="8.927206993103027">
        <ele>313.05000000000001</ele>
        <time>2019-05-09T11:17:05Z</time>
      </trkpt>
      <trkpt lat="51.203524991869926" lon="8.924540039151907">
        <ele>321.69999999999999</ele>
        <time>2019-05-09T11:17:12Z</time>
      </trkpt>
      <trkpt lat="51.202714964747429" lon="8.920268034562469">
        <ele>339.95999999999998</ele>
        <time>2019-05-09T11:17:22Z</time>
      </trkpt>
      <trkpt lat="51.202378012239933" lon="8.918405994772911">
        <ele>351.01999999999998</ele>
        <time>2019-05-09T11:17:27Z</time>
      </trkpt>
      <trkpt lat="51.202367031946778" lon="8.918163003399968">
        <ele>352.94</ele>
        <time>2019-05-09T11:17:28Z</time>
      </trkpt>
      <trkpt lat="51.202373988926411" lon="8.917950019240379">
        <ele>354.38</ele>
        <time>2019-05-09T11:17:29Z</time>
      </trkpt>
      <trkpt lat="51.20239301584661" lon="8.9177589956671">
        <ele>355.82999999999998</ele>
        <time>2019-05-09T11:17:30Z</time>
      </trkpt>
      <trkpt lat="51.202448001131415" lon="8.917006971314549">
        <ele>361.11000000000001</ele>
        <time>2019-05-09T11:17:34Z</time>
      </trkpt>
      <trkpt lat="51.202448001131415" lon="8.916825000196695">
        <ele>361.58999999999997</ele>
        <time>2019-05-09T11:17:35Z</time>
      </trkpt>
      <trkpt lat="51.202407013624907" lon="8.916633976623416">
        <ele>362.55000000000001</ele>
        <time>2019-05-09T11:17:36Z</time>
      </trkpt>
      <trkpt lat="51.202345993369818" lon="8.916480001062155">
        <ele>363.04000000000002</ele>
        <time>2019-05-09T11:17:37Z</time>
      </trkpt>
      <trkpt lat="51.202250020578504" lon="8.91638201661408">
        <ele>363.51999999999998</ele>
        <time>2019-05-09T11:17:38Z</time>
      </trkpt>
      <trkpt lat="51.202146001160145" lon="8.916334994137287">
        <ele>363.51999999999998</ele>
        <time>2019-05-09T11:17:39Z</time>
      </trkpt>
      <trkpt lat="51.202000994235277" lon="8.916326025500894">
        <ele>364</ele>
        <time>2019-05-09T11:17:40Z</time>
      </trkpt>
      <trkpt lat="51.201846012845635" lon="8.91636298969388">
        <ele>364.95999999999998</ele>
        <time>2019-05-09T11:17:41Z</time>
      </trkpt>
      <trkpt lat="51.20108200237155" lon="8.916480001062155">
        <ele>368.80000000000001</ele>
        <time>2019-05-09T11:17:45Z</time>
      </trkpt>
      <trkpt lat="51.200876981019974" lon="8.916429039090872">
        <ele>369.75999999999999</ele>
        <time>2019-05-09T11:17:46Z</time>
      </trkpt>
      <trkpt lat="51.200682017952204" lon="8.916349997743964">
        <ele>370.73000000000002</ele>
        <time>2019-05-09T11:17:47Z</time>
      </trkpt>
      <trkpt lat="51.20050398632884" lon="8.916199039667845">
        <ele>371.69</ele>
        <time>2019-05-09T11:17:48Z</time>
      </trkpt>
      <trkpt lat="51.200325032696128" lon="8.916046991944313">
        <ele>372.64999999999998</ele>
        <time>2019-05-09T11:17:49Z</time>
      </trkpt>
      <trkpt lat="51.200172984972596" lon="8.915839958935976">
        <ele>373.61000000000001</ele>
        <time>2019-05-09T11:17:50Z</time>
      </trkpt>
      <trkpt lat="51.200028983876109" lon="8.915607025846839">
        <ele>374.56999999999999</ele>
        <time>2019-05-09T11:17:51Z</time>
      </trkpt>
      <trkpt lat="51.199895041063428" lon="8.915332015603781">
        <ele>375.52999999999997</ele>
        <time>2019-05-09T11:17:52Z</time>
      </trkpt>
      <trkpt lat="51.199757996946573" lon="8.915048958733678">
        <ele>376.49000000000001</ele>
        <time>2019-05-09T11:17:53Z</time>
      </trkpt>
      <trkpt lat="51.199661018326879" lon="8.914714017882943">
        <ele>377.44999999999999</ele>
        <time>2019-05-09T11:17:54Z</time>
      </trkpt>
      <trkpt lat="51.199593963101506" lon="8.914348985999823">
        <ele>378.42000000000002</ele>
        <time>2019-05-09T11:17:55Z</time>
      </trkpt>
      <trkpt lat="51.19953403249383" lon="8.913972973823547">
        <ele>379.38</ele>
        <time>2019-05-09T11:17:56Z</time>
      </trkpt>
      <trkpt lat="51.199487010017037" lon="8.913584975525737">
        <ele>379.86000000000001</ele>
        <time>2019-05-09T11:17:57Z</time>
      </trkpt>
      <trkpt lat="51.199196996167302" lon="8.91127098351717">
        <ele>382.25999999999999</ele>
        <time>2019-05-09T11:18:04Z</time>
      </trkpt>
      <trkpt lat="51.199172018095851" lon="8.910740995779634">
        <ele>382.25999999999999</ele>
        <time>2019-05-09T11:18:06Z</time>
      </trkpt>
      <trkpt lat="51.199181992560625" lon="8.910501021891832">
        <ele>382.25999999999999</ele>
        <time>2019-05-09T11:18:07Z</time>
      </trkpt>
      <trkpt lat="51.199241001158953" lon="8.910274039953947">
        <ele>381.77999999999997</ele>
        <time>2019-05-09T11:18:08Z</time>
      </trkpt>
      <trkpt lat="51.199326999485493" lon="8.910068012773991">
        <ele>381.77999999999997</ele>
        <time>2019-05-09T11:18:09Z</time>
      </trkpt>
      <trkpt lat="51.199420960620046" lon="8.909862991422415">
        <ele>381.30000000000001</ele>
        <time>2019-05-09T11:18:10Z</time>
      </trkpt>
      <trkpt lat="51.199539983645082" lon="8.909697029739618">
        <ele>380.81999999999999</ele>
        <time>2019-05-09T11:18:11Z</time>
      </trkpt>
      <trkpt lat="51.199660012498498" lon="8.90953098423779">
        <ele>380.33999999999997</ele>
        <time>2019-05-09T11:18:12Z</time>
      </trkpt>
      <trkpt lat="51.199780963361263" lon="8.909362005069852">
        <ele>379.86000000000001</ele>
        <time>2019-05-09T11:18:13Z</time>
      </trkpt>
      <trkpt lat="51.199893029406667" lon="8.90920601785183">
        <ele>379.38</ele>
        <time>2019-05-09T11:18:14Z</time>
      </trkpt>
      <trkpt lat="51.199975004419684" lon="8.909043995663524">
        <ele>379.38</ele>
        <time>2019-05-09T11:18:15Z</time>
      </trkpt>
      <trkpt lat="51.200045999139547" lon="8.90888499096036">
        <ele>378.89999999999998</ele>
        <time>2019-05-09T11:18:16Z</time>
      </trkpt>
      <trkpt lat="51.200109031051397" lon="8.908702014014125">
        <ele>378.42000000000002</ele>
        <time>2019-05-09T11:18:17Z</time>
      </trkpt>
      <trkpt lat="51.200109031051397" lon="8.908514007925987">
        <ele>378.42000000000002</ele>
        <time>2019-05-09T11:18:18Z</time>
      </trkpt>
      <trkpt lat="51.200059996917844" lon="8.908316027373076">
        <ele>377.94</ele>
        <time>2019-05-09T11:18:19Z</time>
      </trkpt>
      <trkpt lat="51.199996965005994" lon="8.908145036548376">
        <ele>377.44999999999999</ele>
        <time>2019-05-09T11:18:20Z</time>
      </trkpt>
      <trkpt lat="51.199906021356583" lon="8.908008998259902">
        <ele>376.97000000000003</ele>
        <time>2019-05-09T11:18:21Z</time>
      </trkpt>
      <trkpt lat="51.199810970574617" lon="8.90789701603353">
        <ele>376.49000000000001</ele>
        <time>2019-05-09T11:18:22Z</time>
      </trkpt>
      <trkpt lat="51.199713991954923" lon="8.907783022150397">
        <ele>376.00999999999999</ele>
        <time>2019-05-09T11:18:23Z</time>
      </trkpt>
      <trkpt lat="51.199607038870454" lon="8.907656958326697">
        <ele>375.52999999999997</ele>
        <time>2019-05-09T11:18:24Z</time>
      </trkpt>
      <trkpt lat="51.199434036388993" lon="8.907391000539064">
        <ele>375.05000000000001</ele>
        <time>2019-05-09T11:18:26Z</time>
      </trkpt>
      <trkpt lat="51.199409980326891" lon="8.907202994450927">
        <ele>375.05000000000001</ele>
        <time>2019-05-09T11:18:27Z</time>
      </trkpt>
      <trkpt lat="51.19938500225544" lon="8.907008031383157">
        <ele>375.05000000000001</ele>
        <time>2019-05-09T11:18:28Z</time>
      </trkpt>
      <trkpt lat="51.19936203584075" lon="8.906829999759793">
        <ele>374.56999999999999</ele>
        <time>2019-05-09T11:18:29Z</time>
      </trkpt>
      <trkpt lat="51.19934200309217" lon="8.90667300671339">
        <ele>374.08999999999997</ele>
        <time>2019-05-09T11:18:30Z</time>
      </trkpt>
      <trkpt lat="51.19932297617197" lon="8.906617015600205">
        <ele>374.08999999999997</ele>
        <time>2019-05-09T11:18:31Z</time>
      </trkpt>
      <trkpt lat="51.199229015037417" lon="8.906535040587187">
        <ele>373.61000000000001</ele>
        <time>2019-05-09T11:18:32Z</time>
      </trkpt>
      <trkpt lat="51.199124995619059" lon="8.906444013118744">
        <ele>373.61000000000001</ele>
        <time>2019-05-09T11:18:33Z</time>
      </trkpt>
      <trkpt lat="51.199019970372319" lon="8.90635197982192">
        <ele>373.13</ele>
        <time>2019-05-09T11:18:34Z</time>
      </trkpt>
      <trkpt lat="51.198921985924244" lon="8.906233962625265">
        <ele>373.13</ele>
        <time>2019-05-09T11:18:35Z</time>
      </trkpt>
      <trkpt lat="51.198673965409398" lon="8.905945038422942">
        <ele>372.17000000000002</ele>
        <time>2019-05-09T11:18:38Z</time>
      </trkpt>
      <trkpt lat="51.198584027588367" lon="8.90596398152411">
        <ele>371.69</ele>
        <time>2019-05-09T11:18:39Z</time>
      </trkpt>
      <trkpt lat="51.198493000119925" lon="8.905993988737464">
        <ele>371.20999999999998</ele>
        <time>2019-05-09T11:18:40Z</time>
      </trkpt>
      <trkpt lat="51.198407001793385" lon="8.906104965135455">
        <ele>370.73000000000002</ele>
        <time>2019-05-09T11:18:41Z</time>
      </trkpt>
      <trkpt lat="51.198325026780367" lon="8.90624301508069">
        <ele>370.24000000000001</ele>
        <time>2019-05-09T11:18:42Z</time>
      </trkpt>
      <trkpt lat="51.198255959898233" lon="8.906420962885022">
        <ele>369.75999999999999</ele>
        <time>2019-05-09T11:18:43Z</time>
      </trkpt>
      <trkpt lat="51.198212960734963" lon="8.906633025035262">
        <ele>368.31999999999999</ele>
        <time>2019-05-09T11:18:44Z</time>
      </trkpt>
      <trkpt lat="51.198178008198738" lon="8.90684500336647">
        <ele>367.83999999999997</ele>
        <time>2019-05-09T11:18:45Z</time>
      </trkpt>
      <trkpt lat="51.198112964630127" lon="8.907234007492662">
        <ele>366.88</ele>
        <time>2019-05-09T11:18:47Z</time>
      </trkpt>
      <trkpt lat="51.198040964081883" lon="8.907397035509348">
        <ele>365.92000000000002</ele>
        <time>2019-05-09T11:18:48Z</time>
      </trkpt>
      <trkpt lat="51.197943985462189" lon="8.907470041885972">
        <ele>365.44</ele>
        <time>2019-05-09T11:18:49Z</time>
      </trkpt>
      <trkpt lat="51.197825968265533" lon="8.907497031614184">
        <ele>364.95999999999998</ele>
        <time>2019-05-09T11:18:50Z</time>
      </trkpt>
      <trkpt lat="51.197706023231149" lon="8.90750901773572">
        <ele>364.48000000000002</ele>
        <time>2019-05-09T11:18:51Z</time>
      </trkpt>
      <trkpt lat="51.197567973285913" lon="8.907426036894321">
        <ele>364</ele>
        <time>2019-05-09T11:18:52Z</time>
      </trkpt>
      <trkpt lat="51.197448028251529" lon="8.907354036346078">
        <ele>363.51999999999998</ele>
        <time>2019-05-09T11:18:53Z</time>
      </trkpt>
      <trkpt lat="51.197351971641183" lon="8.90725202858448">
        <ele>362.55000000000001</ele>
        <time>2019-05-09T11:18:54Z</time>
      </trkpt>
      <trkpt lat="51.197287011891603" lon="8.907121019437909">
        <ele>362.06999999999999</ele>
        <time>2019-05-09T11:18:55Z</time>
      </trkpt>
      <trkpt lat="51.197279971092939" lon="8.906970983371139">
        <ele>361.11000000000001</ele>
        <time>2019-05-09T11:18:56Z</time>
      </trkpt>
      <trkpt lat="51.197285000234842" lon="8.906808961182833">
        <ele>360.63</ele>
        <time>2019-05-09T11:18:57Z</time>
      </trkpt>
      <trkpt lat="51.197290029376745" lon="8.906635036692023">
        <ele>359.67000000000002</ele>
        <time>2019-05-09T11:18:58Z</time>
      </trkpt>
      <trkpt lat="51.197294974699616" lon="8.906455999240279">
        <ele>358.70999999999998</ele>
        <time>2019-05-09T11:18:59Z</time>
      </trkpt>
      <trkpt lat="51.197273014113307" lon="8.906282996758819">
        <ele>357.75</ele>
        <time>2019-05-09T11:19:00Z</time>
      </trkpt>
      <trkpt lat="51.197214005514979" lon="8.906124997884035">
        <ele>356.79000000000002</ele>
        <time>2019-05-09T11:19:01Z</time>
      </trkpt>
      <trkpt lat="51.197127001360059" lon="8.905979990959168">
        <ele>355.33999999999997</ele>
        <time>2019-05-09T11:19:02Z</time>
      </trkpt>
      <trkpt lat="51.197002027183771" lon="8.90589801594615">
        <ele>354.38</ele>
        <time>2019-05-09T11:19:03Z</time>
      </trkpt>
      <trkpt lat="51.196866994723678" lon="8.905810005962849">
        <ele>353.42000000000002</ele>
        <time>2019-05-09T11:19:04Z</time>
      </trkpt>
      <trkpt lat="51.196740008890629" lon="8.905728030949831">
        <ele>351.98000000000002</ele>
        <time>2019-05-09T11:19:05Z</time>
      </trkpt>
      <trkpt lat="51.196578992530704" lon="8.905733982101083">
        <ele>351.01999999999998</ele>
        <time>2019-05-09T11:19:06Z</time>
      </trkpt>
      <trkpt lat="51.196437003090978" lon="8.905739011242986">
        <ele>349.57999999999998</ele>
        <time>2019-05-09T11:19:07Z</time>
      </trkpt>
      <trkpt lat="51.196139026433229" lon="8.905736999586225">
        <ele>347.64999999999998</ele>
        <time>2019-05-09T11:19:09Z</time>
      </trkpt>
      <trkpt lat="51.195998964831233" lon="8.905657958239317">
        <ele>346.69</ele>
        <time>2019-05-09T11:19:10Z</time>
      </trkpt>
      <trkpt lat="51.195725966244936" lon="8.905538013204932">
        <ele>344.29000000000002</ele>
        <time>2019-05-09T11:19:12Z</time>
      </trkpt>
      <trkpt lat="51.19560300372541" lon="8.905513035133481">
        <ele>343.32999999999998</ele>
        <time>2019-05-09T11:19:13Z</time>
      </trkpt>
      <trkpt lat="51.19545397348702" lon="8.905587969347835">
        <ele>341.88999999999999</ele>
        <time>2019-05-09T11:19:14Z</time>
      </trkpt>
      <trkpt lat="51.195313995704055" lon="8.905657958239317">
        <ele>340.92000000000002</ele>
        <time>2019-05-09T11:19:15Z</time>
      </trkpt>
      <trkpt lat="51.195184998214245" lon="8.905721995979548">
        <ele>339.95999999999998</ele>
        <time>2019-05-09T11:19:16Z</time>
      </trkpt>
      <trkpt lat="51.195077961310744" lon="8.905840013176203">
        <ele>339.48000000000002</ele>
        <time>2019-05-09T11:19:17Z</time>
      </trkpt>
      <trkpt lat="51.194990035146475" lon="8.905990971252322">
        <ele>339</ele>
        <time>2019-05-09T11:19:18Z</time>
      </trkpt>
      <trkpt lat="51.194945024326444" lon="8.906184006482363">
        <ele>338.51999999999998</ele>
        <time>2019-05-09T11:19:19Z</time>
      </trkpt>
      <trkpt lat="51.194906970486045" lon="8.906375030055642">
        <ele>337.56</ele>
        <time>2019-05-09T11:19:20Z</time>
      </trkpt>
      <trkpt lat="51.194871012121439" lon="8.906555995345116">
        <ele>337.07999999999998</ele>
        <time>2019-05-09T11:19:21Z</time>
      </trkpt>
      <trkpt lat="51.194791970774531" lon="8.906720029190183">
        <ele>336.60000000000002</ele>
        <time>2019-05-09T11:19:22Z</time>
      </trkpt>
      <trkpt lat="51.19472298771143" lon="8.90680099837482">
        <ele>335.63999999999999</ele>
        <time>2019-05-09T11:19:23Z</time>
      </trkpt>
      <trkpt lat="51.194579992443323" lon="8.90680099837482">
        <ele>335.16000000000003</ele>
        <time>2019-05-09T11:19:24Z</time>
      </trkpt>
      <trkpt lat="51.194449989125133" lon="8.90680099837482">
        <ele>334.68000000000001</ele>
        <time>2019-05-09T11:19:25Z</time>
      </trkpt>
      <trkpt lat="51.194299031049013" lon="8.90680099837482">
        <ele>334.19999999999999</ele>
        <time>2019-05-09T11:19:26Z</time>
      </trkpt>
      <trkpt lat="51.194129968062043" lon="8.90680099837482">
        <ele>333.23000000000002</ele>
        <time>2019-05-09T11:19:27Z</time>
      </trkpt>
      <trkpt lat="51.193217011168599" lon="8.90697400085628">
        <ele>328.43000000000001</ele>
        <time>2019-05-09T11:19:32Z</time>
      </trkpt>
      <trkpt lat="51.193038979545236" lon="8.906990010291338">
        <ele>326.99000000000001</ele>
        <time>2019-05-09T11:19:33Z</time>
      </trkpt>
      <trkpt lat="51.192863965407014" lon="8.906920021399856">
        <ele>326.01999999999998</ele>
        <time>2019-05-09T11:19:34Z</time>
      </trkpt>
      <trkpt lat="51.19268199428916" lon="8.906847015023232">
        <ele>324.10000000000002</ele>
        <time>2019-05-09T11:19:35Z</time>
      </trkpt>
      <trkpt lat="51.192513015121222" lon="8.90677903778851">
        <ele>322.66000000000003</ele>
        <time>2019-05-09T11:19:36Z</time>
      </trkpt>
      <trkpt lat="51.192344035953283" lon="8.906621038913727">
        <ele>321.22000000000003</ele>
        <time>2019-05-09T11:19:37Z</time>
      </trkpt>
      <trkpt lat="51.192190982401371" lon="8.906476031988859">
        <ele>319.77999999999997</ele>
        <time>2019-05-09T11:19:38Z</time>
      </trkpt>
      <trkpt lat="51.192057961598039" lon="8.906299006193876">
        <ele>318.32999999999998</ele>
        <time>2019-05-09T11:19:39Z</time>
      </trkpt>
      <trkpt lat="51.191926030442119" lon="8.906097002327442">
        <ele>317.37</ele>
        <time>2019-05-09T11:19:40Z</time>
      </trkpt>
      <trkpt lat="51.191794015467167" lon="8.905894998461008">
        <ele>315.93000000000001</ele>
        <time>2019-05-09T11:19:41Z</time>
      </trkpt>
      <trkpt lat="51.191674992442131" lon="8.905676985159516">
        <ele>315.44999999999999</ele>
        <time>2019-05-09T11:19:42Z</time>
      </trkpt>
      <trkpt lat="51.191096976399422" lon="8.904304029420018">
        <ele>308.24000000000001</ele>
        <time>2019-05-09T11:19:48Z</time>
      </trkpt>
      <trkpt lat="51.190906036645174" lon="8.903653007000685">
        <ele>304.38999999999999</ele>
        <time>2019-05-09T11:19:51Z</time>
      </trkpt>
      <trkpt lat="51.190825989469886" lon="8.903559967875481">
        <ele>303.43000000000001</ele>
        <time>2019-05-09T11:19:52Z</time>
      </trkpt>
      <trkpt lat="51.190756000578403" lon="8.903483022004366">
        <ele>302.47000000000003</ele>
        <time>2019-05-09T11:19:53Z</time>
      </trkpt>
      <trkpt lat="51.190686011686921" lon="8.903431976214051">
        <ele>301.50999999999999</ele>
        <time>2019-05-09T11:19:54Z</time>
      </trkpt>
      <trkpt lat="51.190585009753704" lon="8.903431976214051">
        <ele>300.55000000000001</ele>
        <time>2019-05-09T11:19:55Z</time>
      </trkpt>
      <trkpt lat="51.190488031134009" lon="8.903549993410707">
        <ele>300.06999999999999</ele>
        <time>2019-05-09T11:19:56Z</time>
      </trkpt>
      <trkpt lat="51.190397003665566" lon="8.903701035305858">
        <ele>299.58999999999997</ele>
        <time>2019-05-09T11:19:57Z</time>
      </trkpt>
      <trkpt lat="51.190347969532013" lon="8.903905972838402">
        <ele>299.58999999999997</ele>
        <time>2019-05-09T11:19:58Z</time>
      </trkpt>
      <trkpt lat="51.19029700756073" lon="8.904119040817022">
        <ele>298.63</ele>
        <time>2019-05-09T11:19:59Z</time>
      </trkpt>
      <trkpt lat="51.190248979255557" lon="8.904318027198315">
        <ele>298.63</ele>
        <time>2019-05-09T11:20:00Z</time>
      </trkpt>
      <trkpt lat="51.190153006464243" lon="8.90471700578928">
        <ele>297.67000000000002</ele>
        <time>2019-05-09T11:20:02Z</time>
      </trkpt>
      <trkpt lat="51.190081005915999" lon="8.904898976907134">
        <ele>297.18000000000001</ele>
        <time>2019-05-09T11:20:03Z</time>
      </trkpt>
      <trkpt lat="51.189990984275937" lon="8.905065022408962">
        <ele>296.22000000000003</ele>
        <time>2019-05-09T11:20:04Z</time>
      </trkpt>
      <trkpt lat="51.189868021756411" lon="8.905152026563883">
        <ele>295.25999999999999</ele>
        <time>2019-05-09T11:20:05Z</time>
      </trkpt>
      <trkpt lat="51.189742041751742" lon="8.90521002933383">
        <ele>294.77999999999997</ele>
        <time>2019-05-09T11:20:06Z</time>
      </trkpt>
      <trkpt lat="51.189593011513352" lon="8.905192008242011">
        <ele>293.33999999999997</ele>
        <time>2019-05-09T11:20:07Z</time>
      </trkpt>
      <trkpt lat="51.189431995153427" lon="8.905172981321812">
        <ele>292.38</ele>
        <time>2019-05-09T11:20:08Z</time>
      </trkpt>
      <trkpt lat="51.18926796130836" lon="8.905153032392263">
        <ele>291.42000000000002</ele>
        <time>2019-05-09T11:20:09Z</time>
      </trkpt>
      <trkpt lat="51.189108034595847" lon="8.905164012685418">
        <ele>290.45999999999998</ele>
        <time>2019-05-09T11:20:10Z</time>
      </trkpt>
      <trkpt lat="51.188953975215554" lon="8.905184967443347">
        <ele>289.49000000000001</ele>
        <time>2019-05-09T11:20:11Z</time>
      </trkpt>
      <trkpt lat="51.188804022967815" lon="8.905203994363546">
        <ele>288.52999999999997</ele>
        <time>2019-05-09T11:20:12Z</time>
      </trkpt>
      <trkpt lat="51.188659016042948" lon="8.905186979100108">
        <ele>287.08999999999997</ele>
        <time>2019-05-09T11:20:13Z</time>
      </trkpt>
      <trkpt lat="51.188511997461319" lon="8.905117996037006">
        <ele>286.13</ele>
        <time>2019-05-09T11:20:14Z</time>
      </trkpt>
      <trkpt lat="51.188370008021593" lon="8.904981035739183">
        <ele>284.69</ele>
        <time>2019-05-09T11:20:15Z</time>
      </trkpt>
      <trkpt lat="51.188217960298061" lon="8.904834017157555">
        <ele>283.73000000000002</ele>
        <time>2019-05-09T11:20:16Z</time>
      </trkpt>
      <trkpt lat="51.18664501234889" lon="8.903293004259467">
        <ele>272.19</ele>
        <time>2019-05-09T11:20:25Z</time>
      </trkpt>
      <trkpt lat="51.185216987505555" lon="8.901850981637836">
        <ele>261.13999999999999</ele>
        <time>2019-05-09T11:20:34Z</time>
      </trkpt>
      <trkpt lat="51.184387011453509" lon="8.900909023359418">
        <ele>255.37</ele>
        <time>2019-05-09T11:20:41Z</time>
      </trkpt>
      <trkpt lat="51.183757027611136" lon="8.899416960775852">
        <ele>253.44</ele>
        <time>2019-05-09T11:20:49Z</time>
      </trkpt>
      <trkpt lat="51.183474976569414" lon="8.898855037987232">
        <ele>252</ele>
        <time>2019-05-09T11:20:53Z</time>
      </trkpt>
      <trkpt lat="51.183403981849551" lon="8.898757975548506">
        <ele>251.52000000000001</ele>
        <time>2019-05-09T11:20:54Z</time>
      </trkpt>
      <trkpt lat="51.183331981301308" lon="8.898660996928811">
        <ele>251.52000000000001</ele>
        <time>2019-05-09T11:20:55Z</time>
      </trkpt>
      <trkpt lat="51.183256041258574" lon="8.898558989167213">
        <ele>251.03999999999999</ele>
        <time>2019-05-09T11:20:56Z</time>
      </trkpt>
      <trkpt lat="51.18318404071033" lon="8.898462010547519">
        <ele>250.56</ele>
        <time>2019-05-09T11:20:57Z</time>
      </trkpt>
      <trkpt lat="51.183112962171435" lon="8.89833502471447">
        <ele>250.08000000000001</ele>
        <time>2019-05-09T11:20:58Z</time>
      </trkpt>
      <trkpt lat="51.183104999363422" lon="8.898180965334177">
        <ele>250.08000000000001</ele>
        <time>2019-05-09T11:20:59Z</time>
      </trkpt>
      <trkpt lat="51.183096030727029" lon="8.898020032793284">
        <ele>249.59999999999999</ele>
        <time>2019-05-09T11:21:00Z</time>
      </trkpt>
      <trkpt lat="51.183108016848564" lon="8.897855998948216">
        <ele>249.59999999999999</ele>
        <time>2019-05-09T11:21:01Z</time>
      </trkpt>
      <trkpt lat="51.183131989091635" lon="8.897681990638375">
        <ele>249.59999999999999</ele>
        <time>2019-05-09T11:21:02Z</time>
      </trkpt>
      <trkpt lat="51.183156967163086" lon="8.897503959015012">
        <ele>249.59999999999999</ele>
        <time>2019-05-09T11:21:03Z</time>
      </trkpt>
      <trkpt lat="51.18350800126791" lon="8.895487021654844">
        <ele>251.03999999999999</ele>
        <time>2019-05-09T11:21:14Z</time>
      </trkpt>
      <trkpt lat="51.183805977925658" lon="8.894311040639877">
        <ele>251.03999999999999</ele>
        <time>2019-05-09T11:21:21Z</time>
      </trkpt>
      <trkpt lat="51.183865992352366" lon="8.894119011238217">
        <ele>251.03999999999999</ele>
        <time>2019-05-09T11:21:22Z</time>
      </trkpt>
      <trkpt lat="51.183931035920978" lon="8.893985990434885">
        <ele>250.56</ele>
        <time>2019-05-09T11:21:23Z</time>
      </trkpt>
      <trkpt lat="51.184002030640841" lon="8.893840983510017">
        <ele>250.56</ele>
        <time>2019-05-09T11:21:24Z</time>
      </trkpt>
      <trkpt lat="51.184073025360703" lon="8.893693964928389">
        <ele>250.56</ele>
        <time>2019-05-09T11:21:25Z</time>
      </trkpt>
      <trkpt lat="51.184144020080566" lon="8.893549041822553">
        <ele>250.56</ele>
        <time>2019-05-09T11:21:26Z</time>
      </trkpt>
      <trkpt lat="51.184206968173385" lon="8.893419038504362">
        <ele>250.08000000000001</ele>
        <time>2019-05-09T11:21:27Z</time>
      </trkpt>
      <trkpt lat="51.184384999796748" lon="8.893123995512724">
        <ele>249.12</ele>
        <time>2019-05-09T11:21:33Z</time>
      </trkpt>
      <trkpt lat="51.184416012838483" lon="8.893084013834596">
        <ele>249.12</ele>
        <time>2019-05-09T11:21:35Z</time>
      </trkpt>
      <trkpt lat="51.184435039758682" lon="8.893020981922746">
        <ele>249.12</ele>
        <time>2019-05-09T11:21:36Z</time>
      </trkpt>
      <trkpt lat="51.184402015060186" lon="8.892930960282683">
        <ele>248.63999999999999</ele>
        <time>2019-05-09T11:21:37Z</time>
      </trkpt>
      <trkpt lat="51.184353986755013" lon="8.89281403273344">
        <ele>248.63999999999999</ele>
        <time>2019-05-09T11:21:38Z</time>
      </trkpt>
      <trkpt lat="51.184289027005434" lon="8.89266500249505">
        <ele>248.63999999999999</ele>
        <time>2019-05-09T11:21:39Z</time>
      </trkpt>
      <trkpt lat="51.184214008972049" lon="8.89247003942728">
        <ele>248.16</ele>
        <time>2019-05-09T11:21:40Z</time>
      </trkpt>
      <trkpt lat="51.183844031766057" lon="8.890974037349224">
        <ele>249.12</ele>
        <time>2019-05-09T11:21:46Z</time>
      </trkpt>
      <trkpt lat="51.183461984619498" lon="8.889770982787013">
        <ele>250.08000000000001</ele>
        <time>2019-05-09T11:21:50Z</time>
      </trkpt>
      <trkpt lat="51.183321001008153" lon="8.889470994472504">
        <ele>251.03999999999999</ele>
        <time>2019-05-09T11:21:51Z</time>
      </trkpt>
      <trkpt lat="51.183155039325356" lon="8.889181986451149">
        <ele>251.52000000000001</ele>
        <time>2019-05-09T11:21:52Z</time>
      </trkpt>
      <trkpt lat="51.182981031015515" lon="8.888892978429794">
        <ele>252</ele>
        <time>2019-05-09T11:21:53Z</time>
      </trkpt>
      <trkpt lat="51.182781960815191" lon="8.888640012592077">
        <ele>252.47999999999999</ele>
        <time>2019-05-09T11:21:54Z</time>
      </trkpt>
      <trkpt lat="51.182546010240912" lon="8.888442032039166">
        <ele>252.96000000000001</ele>
        <time>2019-05-09T11:21:55Z</time>
      </trkpt>
      <trkpt lat="51.182315004989505" lon="8.888253020122647">
        <ele>253.44</ele>
        <time>2019-05-09T11:21:56Z</time>
      </trkpt>
      <trkpt lat="51.18206899613142" lon="8.888090997934341">
        <ele>253.44</ele>
        <time>2019-05-09T11:21:57Z</time>
      </trkpt>
      <trkpt lat="51.180251967161894" lon="8.887081984430552">
        <ele>253.44</ele>
        <time>2019-05-09T11:22:04Z</time>
      </trkpt>
      <trkpt lat="51.179720973595977" lon="8.886935971677303">
        <ele>253.44</ele>
        <time>2019-05-09T11:22:06Z</time>
      </trkpt>
      <trkpt lat="51.17944504134357" lon="8.886888027191162">
        <ele>253.44</ele>
        <time>2019-05-09T11:22:07Z</time>
      </trkpt>
      <trkpt lat="51.179205989465117" lon="8.886925997212529">
        <ele>253.93000000000001</ele>
        <time>2019-05-09T11:22:08Z</time>
      </trkpt>
      <trkpt lat="51.17895201779902" lon="8.886988023295999">
        <ele>253.93000000000001</ele>
        <time>2019-05-09T11:22:09Z</time>
      </trkpt>
      <trkpt lat="51.178705003112555" lon="8.887092964723706">
        <ele>254.41</ele>
        <time>2019-05-09T11:22:10Z</time>
      </trkpt>
      <trkpt lat="51.178465029224753" lon="8.887236965820193">
        <ele>254.41</ele>
        <time>2019-05-09T11:22:11Z</time>
      </trkpt>
      <trkpt lat="51.178226983174682" lon="8.88739999383688">
        <ele>254.41</ele>
        <time>2019-05-09T11:22:12Z</time>
      </trkpt>
      <trkpt lat="51.178019028156996" lon="8.887632004916668">
        <ele>254.41</ele>
        <time>2019-05-09T11:22:13Z</time>
      </trkpt>
      <trkpt lat="51.177813000977039" lon="8.887879019603133">
        <ele>254.41</ele>
        <time>2019-05-09T11:22:14Z</time>
      </trkpt>
      <trkpt lat="51.177610997110605" lon="8.88815201818943">
        <ele>254.41</ele>
        <time>2019-05-09T11:22:15Z</time>
      </trkpt>
      <trkpt lat="51.177403964102268" lon="8.88843197375536">
        <ele>254.41</ele>
        <time>2019-05-09T11:22:16Z</time>
      </trkpt>
      <trkpt lat="51.176153970882297" lon="8.890519989654422">
        <ele>254.88999999999999</ele>
        <time>2019-05-09T11:22:23Z</time>
      </trkpt>
      <trkpt lat="51.174702979624271" lon="8.892228975892067">
        <ele>256.32999999999998</ele>
        <time>2019-05-09T11:22:32Z</time>
      </trkpt>
      <trkpt lat="51.17313296534121" lon="8.893076973035932">
        <ele>257.29000000000002</ele>
        <time>2019-05-09T11:22:40Z</time>
      </trkpt>
      <trkpt lat="51.171565968543291" lon="8.893341002985835">
        <ele>255.37</ele>
        <time>2019-05-09T11:22:47Z</time>
      </trkpt>
      <trkpt lat="51.170077007263899" lon="8.893874008208513">
        <ele>256.32999999999998</ele>
        <time>2019-05-09T11:22:54Z</time>
      </trkpt>
      <trkpt lat="51.169014014303684" lon="8.894990980625153">
        <ele>257.76999999999998</ele>
        <time>2019-05-09T11:23:00Z</time>
      </trkpt>
      <trkpt lat="51.1681670229882" lon="8.89696097932756">
        <ele>258.25</ele>
        <time>2019-05-09T11:23:07Z</time>
      </trkpt>
      <trkpt lat="51.167206037789583" lon="8.899670010432601">
        <ele>257.76999999999998</ele>
        <time>2019-05-09T11:23:15Z</time>
      </trkpt>
      <trkpt lat="51.166368015110493" lon="8.901283023878932">
        <ele>255.37</ele>
        <time>2019-05-09T11:23:20Z</time>
      </trkpt>
      <trkpt lat="51.164833037182689" lon="8.903887029737234">
        <ele>254.41</ele>
        <time>2019-05-09T11:23:27Z</time>
      </trkpt>
      <trkpt lat="51.164274970069528" lon="8.90504096634686">
        <ele>254.41</ele>
        <time>2019-05-09T11:23:30Z</time>
      </trkpt>
      <trkpt lat="51.16372000426054" lon="8.905853005126119">
        <ele>253.93000000000001</ele>
        <time>2019-05-09T11:23:33Z</time>
      </trkpt>
      <trkpt lat="51.163542978465557" lon="8.906051991507411">
        <ele>253.93000000000001</ele>
        <time>2019-05-09T11:23:34Z</time>
      </trkpt>
      <trkpt lat="51.162288039922714" lon="8.90703896060586">
        <ele>253.44</ele>
        <time>2019-05-09T11:23:41Z</time>
      </trkpt>
      <trkpt lat="51.160978032276034" lon="8.907571965828538">
        <ele>254.88999999999999</ele>
        <time>2019-05-09T11:23:47Z</time>
      </trkpt>
      <trkpt lat="51.159274997189641" lon="8.907597027719021">
        <ele>256.81</ele>
        <time>2019-05-09T11:23:53Z</time>
      </trkpt>
      <trkpt lat="51.157265016809106" lon="8.906741989776492">
        <ele>257.76999999999998</ele>
        <time>2019-05-09T11:24:00Z</time>
      </trkpt>
      <trkpt lat="51.155816959217191" lon="8.905187984928489">
        <ele>256.81</ele>
        <time>2019-05-09T11:24:06Z</time>
      </trkpt>
      <trkpt lat="51.15499896928668" lon="8.903248999267817">
        <ele>254.88999999999999</ele>
        <time>2019-05-09T11:24:11Z</time>
      </trkpt>
      <trkpt lat="51.154232025146484" lon="8.900402002036572">
        <ele>254.41</ele>
        <time>2019-05-09T11:24:18Z</time>
      </trkpt>
      <trkpt lat="51.153242960572243" lon="8.898030007258058">
        <ele>254.41</ele>
        <time>2019-05-09T11:24:24Z</time>
      </trkpt>
      <trkpt lat="51.151661965996027" lon="8.895681984722614">
        <ele>254.41</ele>
        <time>2019-05-09T11:24:31Z</time>
      </trkpt>
      <trkpt lat="51.149737983942032" lon="8.893159031867981">
        <ele>255.37</ele>
        <time>2019-05-09T11:24:39Z</time>
      </trkpt>
      <trkpt lat="51.147901006042957" lon="8.889776011928916">
        <ele>255.37</ele>
        <time>2019-05-09T11:24:48Z</time>
      </trkpt>
      <trkpt lat="51.146614970639348" lon="8.887734012678266">
        <ele>256.32999999999998</ele>
        <time>2019-05-09T11:24:54Z</time>
      </trkpt>
      <trkpt lat="51.146344989538193" lon="8.887497978284955">
        <ele>256.81</ele>
        <time>2019-05-09T11:24:55Z</time>
      </trkpt>
      <trkpt lat="51.146072996780276" lon="8.887282982468605">
        <ele>256.32999999999998</ele>
        <time>2019-05-09T11:24:56Z</time>
      </trkpt>
      <trkpt lat="51.144070979207754" lon="8.886179002001882">
        <ele>255.37</ele>
        <time>2019-05-09T11:25:03Z</time>
      </trkpt>
      <trkpt lat="51.141939964145422" lon="8.885785974562168">
        <ele>254.88999999999999</ele>
        <time>2019-05-09T11:25:10Z</time>
      </trkpt>
      <trkpt lat="51.139155998826027" lon="8.885429995134473">
        <ele>255.37</ele>
        <time>2019-05-09T11:25:19Z</time>
      </trkpt>
      <trkpt lat="51.136142034083605" lon="8.884659027680755">
        <ele>256.81</ele>
        <time>2019-05-09T11:25:29Z</time>
      </trkpt>
      <trkpt lat="51.134271025657654" lon="8.883223962038755">
        <ele>259.20999999999998</ele>
        <time>2019-05-09T11:25:36Z</time>
      </trkpt>
      <trkpt lat="51.132838977500796" lon="8.88147097080946">
        <ele>261.13999999999999</ele>
        <time>2019-05-09T11:25:42Z</time>
      </trkpt>
      <trkpt lat="51.130852969363332" lon="8.878379976376891">
        <ele>260.64999999999998</ele>
        <time>2019-05-09T11:25:51Z</time>
      </trkpt>
      <trkpt lat="51.129039963707328" lon="8.875701036304236">
        <ele>258.73000000000002</ele>
        <time>2019-05-09T11:25:59Z</time>
      </trkpt>
      <trkpt lat="51.127599030733109" lon="8.874017028138042">
        <ele>259.20999999999998</ele>
        <time>2019-05-09T11:26:05Z</time>
      </trkpt>
      <trkpt lat="51.127343969419599" lon="8.873841008171439">
        <ele>259.20999999999998</ele>
        <time>2019-05-09T11:26:06Z</time>
      </trkpt>
      <trkpt lat="51.127078011631966" lon="8.873707987368107">
        <ele>259.20999999999998</ele>
        <time>2019-05-09T11:26:07Z</time>
      </trkpt>
      <trkpt lat="51.126797972247005" lon="8.873621989041567">
        <ele>259.20999999999998</ele>
        <time>2019-05-09T11:26:08Z</time>
      </trkpt>
      <trkpt lat="51.126507958397269" lon="8.873554011806846">
        <ele>259.20999999999998</ele>
        <time>2019-05-09T11:26:09Z</time>
      </trkpt>
      <trkpt lat="51.124734012410045" lon="8.873471030965447">
        <ele>259.20999999999998</ele>
        <time>2019-05-09T11:26:15Z</time>
      </trkpt>
      <trkpt lat="51.124452967196703" lon="8.873549988493323">
        <ele>260.17000000000002</ele>
        <time>2019-05-09T11:26:16Z</time>
      </trkpt>
      <trkpt lat="51.12307095900178" lon="8.874489013105631">
        <ele>261.62</ele>
        <time>2019-05-09T11:26:21Z</time>
      </trkpt>
      <trkpt lat="51.121155023574829" lon="8.875887030735612">
        <ele>263.06</ele>
        <time>2019-05-09T11:26:28Z</time>
      </trkpt>
      <trkpt lat="51.119372025132179" lon="8.87611803598702">
        <ele>263.54000000000002</ele>
        <time>2019-05-09T11:26:34Z</time>
      </trkpt>
      <trkpt lat="51.118514975532889" lon="8.876347029581666">
        <ele>264.01999999999998</ele>
        <time>2019-05-09T11:26:37Z</time>
      </trkpt>
      <trkpt lat="51.11746396869421" lon="8.876651963219047">
        <ele>264.5</ele>
        <time>2019-05-09T11:26:41Z</time>
      </trkpt>
      <trkpt lat="51.117220977321267" lon="8.876624973490834">
        <ele>264.5</ele>
        <time>2019-05-09T11:26:42Z</time>
      </trkpt>
      <trkpt lat="51.116979997605085" lon="8.876555990427733">
        <ele>264.5</ele>
        <time>2019-05-09T11:26:43Z</time>
      </trkpt>
      <trkpt lat="51.116743963211775" lon="8.876436967402697">
        <ele>264.5</ele>
        <time>2019-05-09T11:26:44Z</time>
      </trkpt>
      <trkpt lat="51.116527961567044" lon="8.876234041526914">
        <ele>264.98000000000002</ele>
        <time>2019-05-09T11:26:45Z</time>
      </trkpt>
      <trkpt lat="51.116325035691261" lon="8.876021979376674">
        <ele>264.98000000000002</ele>
        <time>2019-05-09T11:26:46Z</time>
      </trkpt>
      <trkpt lat="51.116135017946362" lon="8.875769013538957">
        <ele>264.98000000000002</ele>
        <time>2019-05-09T11:26:47Z</time>
      </trkpt>
      <trkpt lat="51.115961009636521" lon="8.875460978597403">
        <ele>265.45999999999998</ele>
        <time>2019-05-09T11:26:48Z</time>
      </trkpt>
      <trkpt lat="51.115811979398131" lon="8.875099970027804">
        <ele>265.94</ele>
        <time>2019-05-09T11:26:49Z</time>
      </trkpt>
      <trkpt lat="51.115674013271928" lon="8.874714989215136">
        <ele>266.42000000000002</ele>
        <time>2019-05-09T11:26:50Z</time>
      </trkpt>
      <trkpt lat="51.11554803326726" lon="8.874303018674254">
        <ele>266.89999999999998</ele>
        <time>2019-05-09T11:26:51Z</time>
      </trkpt>
      <trkpt lat="51.114917965605855" lon="8.871352002024651">
        <ele>266.42000000000002</ele>
        <time>2019-05-09T11:26:58Z</time>
      </trkpt>
      <trkpt lat="51.114847976714373" lon="8.869099030271173">
        <ele>266.89999999999998</ele>
        <time>2019-05-09T11:27:04Z</time>
      </trkpt>
      <trkpt lat="51.114744041115046" lon="8.866306012496352">
        <ele>266.89999999999998</ele>
        <time>2019-05-09T11:27:10Z</time>
      </trkpt>
      <trkpt lat="51.114200977608562" lon="8.862932967022061">
        <ele>266.89999999999998</ele>
        <time>2019-05-09T11:27:17Z</time>
      </trkpt>
      <trkpt lat="51.114040967077017" lon="8.859131019562483">
        <ele>267.86000000000001</ele>
        <time>2019-05-09T11:27:25Z</time>
      </trkpt>
      <trkpt lat="51.113963015377522" lon="8.858290985226631">
        <ele>267.86000000000001</ele>
        <time>2019-05-09T11:27:27Z</time>
      </trkpt>
      <trkpt lat="51.113881040364504" lon="8.857893012464047">
        <ele>267.86000000000001</ele>
        <time>2019-05-09T11:27:28Z</time>
      </trkpt>
      <trkpt lat="51.1137880012393" lon="8.857490010559559">
        <ele>267.38</ele>
        <time>2019-05-09T11:27:29Z</time>
      </trkpt>
      <trkpt lat="51.113656992092729" lon="8.857111986726522">
        <ele>267.38</ele>
        <time>2019-05-09T11:27:30Z</time>
      </trkpt>
      <trkpt lat="51.113492958247662" lon="8.856744021177292">
        <ele>266.89999999999998</ele>
        <time>2019-05-09T11:27:31Z</time>
      </trkpt>
      <trkpt lat="51.113305035978556" lon="8.856388041749597">
        <ele>266.89999999999998</ele>
        <time>2019-05-09T11:27:32Z</time>
      </trkpt>
      <trkpt lat="51.113113006576896" lon="8.856024015694857">
        <ele>266.89999999999998</ele>
        <time>2019-05-09T11:27:33Z</time>
      </trkpt>
      <trkpt lat="51.111432015895844" lon="8.85304500348866">
        <ele>266.42000000000002</ele>
        <time>2019-05-09T11:27:41Z</time>
      </trkpt>
      <trkpt lat="51.109586991369724" lon="8.850158024579287">
        <ele>265.94</ele>
        <time>2019-05-09T11:27:49Z</time>
      </trkpt>
      <trkpt lat="51.10824597068131" lon="8.848680965602398">
        <ele>265.45999999999998</ele>
        <time>2019-05-09T11:27:54Z</time>
      </trkpt>
      <trkpt lat="51.106663970276713" lon="8.846872989088297">
        <ele>264.5</ele>
        <time>2019-05-09T11:28:00Z</time>
      </trkpt>
      <trkpt lat="51.104315025731921" lon="8.842912036925554">
        <ele>265.94</ele>
        <time>2019-05-09T11:28:11Z</time>
      </trkpt>
      <trkpt lat="51.103587979450822" lon="8.8410359993577">
        <ele>267.38</ele>
        <time>2019-05-09T11:28:16Z</time>
      </trkpt>
      <trkpt lat="51.102628000080585" lon="8.839179994538426">
        <ele>266.42000000000002</ele>
        <time>2019-05-09T11:28:21Z</time>
      </trkpt>
      <trkpt lat="51.1014149710536" lon="8.837836962193251">
        <ele>267.38</ele>
        <time>2019-05-09T11:28:26Z</time>
      </trkpt>
      <trkpt lat="51.101149013265967" lon="8.837652979418635">
        <ele>267.86000000000001</ele>
        <time>2019-05-09T11:28:27Z</time>
      </trkpt>
      <trkpt lat="51.099051022902131" lon="8.836599960923195">
        <ele>268.82999999999998</ele>
        <time>2019-05-09T11:28:34Z</time>
      </trkpt>
      <trkpt lat="51.096830992028117" lon="8.835414005443454">
        <ele>269.79000000000002</ele>
        <time>2019-05-09T11:28:41Z</time>
      </trkpt>
      <trkpt lat="51.095047993585467" lon="8.83514704182744">
        <ele>269.31</ele>
        <time>2019-05-09T11:28:47Z</time>
      </trkpt>
      <trkpt lat="51.092988979071379" lon="8.835029024630785">
        <ele>268.82999999999998</ele>
        <time>2019-05-09T11:28:55Z</time>
      </trkpt>
      <trkpt lat="51.091279992833734" lon="8.834930034354329">
        <ele>268.82999999999998</ele>
        <time>2019-05-09T11:29:01Z</time>
      </trkpt>
      <trkpt lat="51.089502023532987" lon="8.834668016061187">
        <ele>269.31</ele>
        <time>2019-05-09T11:29:09Z</time>
      </trkpt>
      <trkpt lat="51.088700965046883" lon="8.834407003596425">
        <ele>268.82999999999998</ele>
        <time>2019-05-09T11:29:12Z</time>
      </trkpt>
      <trkpt lat="51.088453028351068" lon="8.834243975579739">
        <ele>268.82999999999998</ele>
        <time>2019-05-09T11:29:13Z</time>
      </trkpt>
      <trkpt lat="51.088223028928041" lon="8.834053035825491">
        <ele>268.82999999999998</ele>
        <time>2019-05-09T11:29:14Z</time>
      </trkpt>
      <trkpt lat="51.088000992313027" lon="8.833832005038858">
        <ele>268.82999999999998</ele>
        <time>2019-05-09T11:29:15Z</time>
      </trkpt>
      <trkpt lat="51.087776022031903" lon="8.833606028929353">
        <ele>268.35000000000002</ele>
        <time>2019-05-09T11:29:16Z</time>
      </trkpt>
      <trkpt lat="51.086213970556855" lon="8.831735020503402">
        <ele>269.79000000000002</ele>
        <time>2019-05-09T11:29:23Z</time>
      </trkpt>
      <trkpt lat="51.084257969632745" lon="8.829223969951272">
        <ele>272.19</ele>
        <time>2019-05-09T11:29:31Z</time>
      </trkpt>
      <trkpt lat="51.08272098004818" lon="8.826959012076259">
        <ele>273.14999999999998</ele>
        <time>2019-05-09T11:29:38Z</time>
      </trkpt>
      <trkpt lat="51.082007009536028" lon="8.826049994677305">
        <ele>274.58999999999997</ele>
        <time>2019-05-09T11:29:42Z</time>
      </trkpt>
      <trkpt lat="51.081103021278977" lon="8.824678966775537">
        <ele>272.19</ele>
        <time>2019-05-09T11:29:48Z</time>
      </trkpt>
      <trkpt lat="51.079918993636966" lon="8.823095038533211">
        <ele>269.79000000000002</ele>
        <time>2019-05-09T11:29:56Z</time>
      </trkpt>
      <trkpt lat="51.078861029818654" lon="8.822245029732585">
        <ele>269.79000000000002</ele>
        <time>2019-05-09T11:30:01Z</time>
      </trkpt>
      <trkpt lat="51.078342022374272" lon="8.821930959820747">
        <ele>270.26999999999998</ele>
        <time>2019-05-09T11:30:06Z</time>
      </trkpt>
      <trkpt lat="51.077497964724898" lon="8.821157980710268">
        <ele>271.23000000000002</ele>
        <time>2019-05-09T11:30:18Z</time>
      </trkpt>
      <trkpt lat="51.076804026961327" lon="8.819886026903987">
        <ele>270.75</ele>
        <time>2019-05-09T11:30:26Z</time>
      </trkpt>
      <trkpt lat="51.07616800814867" lon="8.81832498125732">
        <ele>271.23000000000002</ele>
        <time>2019-05-09T11:30:32Z</time>
      </trkpt>
      <trkpt lat="51.075711026787758" lon="8.817344969138503">
        <ele>270.26999999999998</ele>
        <time>2019-05-09T11:30:37Z</time>
      </trkpt>
      <trkpt lat="51.074789017438889" lon="8.816100005060434">
        <ele>269.79000000000002</ele>
        <time>2019-05-09T11:30:44Z</time>
      </trkpt>
      <trkpt lat="51.073522008955479" lon="8.814836014062166">
        <ele>269.31</ele>
        <time>2019-05-09T11:30:51Z</time>
      </trkpt>
      <trkpt lat="51.071867002174258" lon="8.813597001135349">
        <ele>268.35000000000002</ele>
        <time>2019-05-09T11:31:01Z</time>
      </trkpt>
      <trkpt lat="51.070526987314224" lon="8.813287960365415">
        <ele>267.86000000000001</ele>
        <time>2019-05-09T11:31:08Z</time>
      </trkpt>
      <trkpt lat="51.070308974012733" lon="8.813295001164079">
        <ele>267.86000000000001</ele>
        <time>2019-05-09T11:31:09Z</time>
      </trkpt>
      <trkpt lat="51.069446979090571" lon="8.813451994210482">
        <ele>270.26999999999998</ele>
        <time>2019-05-09T11:31:13Z</time>
      </trkpt>
      <trkpt lat="51.068119034171104" lon="8.814225979149342">
        <ele>276.51999999999998</ele>
        <time>2019-05-09T11:31:19Z</time>
      </trkpt>
      <trkpt lat="51.067081019282341" lon="8.815039023756981">
        <ele>283.25</ele>
        <time>2019-05-09T11:31:25Z</time>
      </trkpt>
      <trkpt lat="51.065581999719143" lon="8.816268984228373">
        <ele>290.45999999999998</ele>
        <time>2019-05-09T11:31:33Z</time>
      </trkpt>
      <trkpt lat="51.063896985724568" lon="8.817621991038322">
        <ele>298.14999999999998</ele>
        <time>2019-05-09T11:31:40Z</time>
      </trkpt>
      <trkpt lat="51.063175974413753" lon="8.818162959069014">
        <ele>301.99000000000001</ele>
        <time>2019-05-09T11:31:44Z</time>
      </trkpt>
      <trkpt lat="51.063038008287549" lon="8.818265972658992">
        <ele>302.47000000000003</ele>
        <time>2019-05-09T11:31:45Z</time>
      </trkpt>
      <trkpt lat="51.062814965844154" lon="8.818404022604227">
        <ele>302.94999999999999</ele>
        <time>2019-05-09T11:31:47Z</time>
      </trkpt>
      <trkpt lat="51.062741037458181" lon="8.818444004282355">
        <ele>302.94999999999999</ele>
        <time>2019-05-09T11:31:48Z</time>
      </trkpt>
      <trkpt lat="51.062582032755017" lon="8.818530002608895">
        <ele>303.43000000000001</ele>
        <time>2019-05-09T11:31:54Z</time>
      </trkpt>
      <trkpt lat="51.062450017780066" lon="8.818600997328758">
        <ele>304.38999999999999</ele>
        <time>2019-05-09T11:31:58Z</time>
      </trkpt>
      <trkpt lat="51.061848029494286" lon="8.818886987864971">
        <ele>305.83999999999997</ele>
        <time>2019-05-09T11:32:03Z</time>
      </trkpt>
      <trkpt lat="51.06097899377346" lon="8.819212960079312">
        <ele>308.24000000000001</ele>
        <time>2019-05-09T11:32:10Z</time>
      </trkpt>
      <trkpt lat="51.059894040226936" lon="8.819433990865946">
        <ele>309.68000000000001</ele>
        <time>2019-05-09T11:32:19Z</time>
      </trkpt>
      <trkpt lat="51.05848403647542" lon="8.819427033886313">
        <ele>310.16000000000003</ele>
        <time>2019-05-09T11:32:29Z</time>
      </trkpt>
      <trkpt lat="51.05738902464509" lon="8.819229975342751">
        <ele>311.12</ele>
        <time>2019-05-09T11:32:35Z</time>
      </trkpt>
      <trkpt lat="51.055747009813786" lon="8.818480968475342">
        <ele>308.72000000000003</ele>
        <time>2019-05-09T11:32:43Z</time>
      </trkpt>
      <trkpt lat="51.054162997752428" lon="8.817468015477061">
        <ele>301.99000000000001</ele>
        <time>2019-05-09T11:32:51Z</time>
      </trkpt>
      <trkpt lat="51.051992001011968" lon="8.815970001742244">
        <ele>295.74000000000001</ele>
        <time>2019-05-09T11:33:02Z</time>
      </trkpt>
      <trkpt lat="51.051378026604652" lon="8.815545961260796">
        <ele>296.22000000000003</ele>
        <time>2019-05-09T11:33:06Z</time>
      </trkpt>
      <trkpt lat="51.0513099655509" lon="8.815494999289513">
        <ele>296.22000000000003</ele>
        <time>2019-05-09T11:33:07Z</time>
      </trkpt>
      <trkpt lat="51.051365034654737" lon="8.815090991556644">
        <ele>296.69999999999999</ele>
        <time>2019-05-09T11:33:08Z</time>
      </trkpt>
      <trkpt lat="51.051365034654737" lon="8.815062996000052">
        <ele>297.18000000000001</ele>
        <time>2019-05-09T11:33:09Z</time>
      </trkpt>
      <trkpt lat="51.051365034654737" lon="8.81488798186183">
        <ele>297.67000000000002</ele>
        <time>2019-05-09T11:33:10Z</time>
      </trkpt>
      <trkpt lat="51.051365034654737" lon="8.814682960510254">
        <ele>298.63</ele>
        <time>2019-05-09T11:33:11Z</time>
      </trkpt>
      <trkpt lat="51.051339972764254" lon="8.814489003270865">
        <ele>299.11000000000001</ele>
        <time>2019-05-09T11:33:12Z</time>
      </trkpt>
      <trkpt lat="51.051322035491467" lon="8.814339973032475">
        <ele>299.58999999999997</ele>
        <time>2019-05-09T11:33:13Z</time>
      </trkpt>
      <trkpt lat="51.051242994144559" lon="8.814182979986072">
        <ele>300.06999999999999</ele>
        <time>2019-05-09T11:33:14Z</time>
      </trkpt>
      <trkpt lat="51.05120200663805" lon="8.814099999144673">
        <ele>300.55000000000001</ele>
        <time>2019-05-09T11:33:15Z</time>
      </trkpt>
      <trkpt lat="51.051176022738218" lon="8.81404903717339">
        <ele>300.55000000000001</ele>
        <time>2019-05-09T11:33:16Z</time>
      </trkpt>
      <trkpt lat="51.05115900747478" lon="8.814014000818133">
        <ele>301.02999999999997</ele>
        <time>2019-05-09T11:33:17Z</time>
      </trkpt>
      <trkpt lat="51.051144003868103" lon="8.813983993604779">
        <ele>301.50999999999999</ele>
        <time>2019-05-09T11:33:18Z</time>
      </trkpt>
      <trkpt lat="51.051080971956253" lon="8.813948035240173">
        <ele>301.50999999999999</ele>
        <time>2019-05-09T11:33:19Z</time>
      </trkpt>
      <trkpt lat="51.051024980843067" lon="8.814026992768049">
        <ele>301.99000000000001</ele>
        <time>2019-05-09T11:33:20Z</time>
      </trkpt>
      <trkpt lat="51.050949040800333" lon="8.81413402967155">
        <ele>301.99000000000001</ele>
        <time>2019-05-09T11:33:21Z</time>
      </trkpt>
      <trkpt lat="51.050848038867116" lon="8.814247017726302">
        <ele>301.99000000000001</ele>
        <time>2019-05-09T11:33:22Z</time>
      </trkpt>
      <trkpt lat="51.050722980871797" lon="8.814386995509267">
        <ele>302.47000000000003</ele>
        <time>2019-05-09T11:33:23Z</time>
      </trkpt>
      <trkpt lat="51.05057897977531" lon="8.814547006040812">
        <ele>302.94999999999999</ele>
        <time>2019-05-09T11:33:24Z</time>
      </trkpt>
      <trkpt lat="51.049249023199081" lon="8.815698008984327">
        <ele>309.68000000000001</ele>
        <time>2019-05-09T11:33:31Z</time>
      </trkpt>
      <trkpt lat="51.047655958682299" lon="8.816812969744206">
        <ele>312.08999999999997</ele>
        <time>2019-05-09T11:33:38Z</time>
      </trkpt>
      <trkpt lat="51.045663999393582" lon="8.818117026239634">
        <ele>312.56999999999999</ele>
        <time>2019-05-09T11:33:46Z</time>
      </trkpt>
      <trkpt lat="51.0437670070678" lon="8.818967035040259">
        <ele>319.30000000000001</ele>
        <time>2019-05-09T11:33:54Z</time>
      </trkpt>
      <trkpt lat="51.042020972818136" lon="8.819554019719362">
        <ele>319.77999999999997</ele>
        <time>2019-05-09T11:34:01Z</time>
      </trkpt>
      <trkpt lat="51.039270032197237" lon="8.819373976439238">
        <ele>316.41000000000003</ele>
        <time>2019-05-09T11:34:12Z</time>
      </trkpt>
      <trkpt lat="51.03704396635294" lon="8.819503979757428">
        <ele>315.44999999999999</ele>
        <time>2019-05-09T11:34:21Z</time>
      </trkpt>
      <trkpt lat="51.036574998870492" lon="8.819639012217522">
        <ele>315.44999999999999</ele>
        <time>2019-05-09T11:34:23Z</time>
      </trkpt>
      <trkpt lat="51.036347011104226" lon="8.819773960858584">
        <ele>315.93000000000001</ele>
        <time>2019-05-09T11:34:24Z</time>
      </trkpt>
      <trkpt lat="51.034248014912009" lon="8.821005010977387">
        <ele>322.18000000000001</ele>
        <time>2019-05-09T11:34:33Z</time>
      </trkpt>
      <trkpt lat="51.032863995060325" lon="8.821507003158331">
        <ele>324.57999999999998</ele>
        <time>2019-05-09T11:34:39Z</time>
      </trkpt>
      <trkpt lat="51.032633995637298" lon="8.821503985673189">
        <ele>324.57999999999998</ele>
        <time>2019-05-09T11:34:40Z</time>
      </trkpt>
      <trkpt lat="51.032403996214271" lon="8.821470038965344">
        <ele>324.57999999999998</ele>
        <time>2019-05-09T11:34:41Z</time>
      </trkpt>
      <trkpt lat="51.03150000795722" lon="8.821381023153663">
        <ele>324.57999999999998</ele>
        <time>2019-05-09T11:34:45Z</time>
      </trkpt>
      <trkpt lat="51.031279982998967" lon="8.821425028145313">
        <ele>324.57999999999998</ele>
        <time>2019-05-09T11:34:46Z</time>
      </trkpt>
      <trkpt lat="51.031060963869095" lon="8.821476995944977">
        <ele>324.57999999999998</ele>
        <time>2019-05-09T11:34:47Z</time>
      </trkpt>
      <trkpt lat="51.030643964186311" lon="8.821685034781694">
        <ele>324.57999999999998</ele>
        <time>2019-05-09T11:34:49Z</time>
      </trkpt>
      <trkpt lat="51.030464004725218" lon="8.821840016171336">
        <ele>325.06</ele>
        <time>2019-05-09T11:34:50Z</time>
      </trkpt>
      <trkpt lat="51.030284967273474" lon="8.822037996724248">
        <ele>325.06</ele>
        <time>2019-05-09T11:34:51Z</time>
      </trkpt>
      <trkpt lat="51.029333034530282" lon="8.823085986077786">
        <ele>326.01999999999998</ele>
        <time>2019-05-09T11:34:56Z</time>
      </trkpt>
      <trkpt lat="51.029122984036803" lon="8.823195034638047">
        <ele>326.01999999999998</ele>
        <time>2019-05-09T11:34:57Z</time>
      </trkpt>
      <trkpt lat="51.028901031240821" lon="8.823292013257742">
        <ele>326.01999999999998</ele>
        <time>2019-05-09T11:34:58Z</time>
      </trkpt>
      <trkpt lat="51.028668014332652" lon="8.823370970785618">
        <ele>326.01999999999998</ele>
        <time>2019-05-09T11:34:59Z</time>
      </trkpt>
      <trkpt lat="51.028416976332664" lon="8.823441965505481">
        <ele>326.5</ele>
        <time>2019-05-09T11:35:00Z</time>
      </trkpt>
      <trkpt lat="51.026605982333422" lon="8.823900958523154">
        <ele>328.43000000000001</ele>
        <time>2019-05-09T11:35:06Z</time>
      </trkpt>
      <trkpt lat="51.024870006367564" lon="8.824337990954518">
        <ele>331.79000000000002</ele>
        <time>2019-05-09T11:35:12Z</time>
      </trkpt>
      <trkpt lat="51.023555975407362" lon="8.824590034782887">
        <ele>337.07999999999998</ele>
        <time>2019-05-09T11:35:18Z</time>
      </trkpt>
      <trkpt lat="51.023354977369308" lon="8.824546029791236">
        <ele>338.04000000000002</ele>
        <time>2019-05-09T11:35:19Z</time>
      </trkpt>
      <trkpt lat="51.023154985159636" lon="8.824487021192908">
        <ele>339</ele>
        <time>2019-05-09T11:35:20Z</time>
      </trkpt>
      <trkpt lat="51.022961027920246" lon="8.824358023703098">
        <ele>340.44</ele>
        <time>2019-05-09T11:35:21Z</time>
      </trkpt>
      <trkpt lat="51.022770004346967" lon="8.824230032041669">
        <ele>341.41000000000003</ele>
        <time>2019-05-09T11:35:22Z</time>
      </trkpt>
      <trkpt lat="51.022599013522267" lon="8.824054012075067">
        <ele>342.37</ele>
        <time>2019-05-09T11:35:23Z</time>
      </trkpt>
      <trkpt lat="51.022445959970355" lon="8.823844967409968">
        <ele>343.32999999999998</ele>
        <time>2019-05-09T11:35:24Z</time>
      </trkpt>
      <trkpt lat="51.022245967760682" lon="8.823544979095459">
        <ele>344.29000000000002</ele>
        <time>2019-05-09T11:35:25Z</time>
      </trkpt>
      <trkpt lat="51.022168016061187" lon="8.823368037119508">
        <ele>345.25</ele>
        <time>2019-05-09T11:35:26Z</time>
      </trkpt>
      <trkpt lat="51.022052010521293" lon="8.823082968592644">
        <ele>346.69</ele>
        <time>2019-05-09T11:35:27Z</time>
      </trkpt>
      <trkpt lat="51.021955031901598" lon="8.822763031348586">
        <ele>348.13</ele>
        <time>2019-05-09T11:35:28Z</time>
      </trkpt>
      <trkpt lat="51.021854029968381" lon="8.822427000850439">
        <ele>350.06</ele>
        <time>2019-05-09T11:35:29Z</time>
      </trkpt>
      <trkpt lat="51.020991029217839" lon="8.819661978632212">
        <ele>363.04000000000002</ele>
        <time>2019-05-09T11:35:37Z</time>
      </trkpt>
      <trkpt lat="51.020290972664952" lon="8.818606026470661">
        <ele>369.27999999999997</ele>
        <time>2019-05-09T11:35:41Z</time>
      </trkpt>
      <trkpt lat="51.020076982676983" lon="8.818396981805563">
        <ele>370.73000000000002</ele>
        <time>2019-05-09T11:35:42Z</time>
      </trkpt>
      <trkpt lat="51.019846983253956" lon="8.818231020122767">
        <ele>372.64999999999998</ele>
        <time>2019-05-09T11:35:43Z</time>
      </trkpt>
      <trkpt lat="51.017904980108142" lon="8.816984966397286">
        <ele>388.02999999999997</ele>
        <time>2019-05-09T11:35:51Z</time>
      </trkpt>
      <trkpt lat="51.016386011615396" lon="8.816385995596647">
        <ele>393.80000000000001</ele>
        <time>2019-05-09T11:35:57Z</time>
      </trkpt>
      <trkpt lat="51.015997007489204" lon="8.816287005320191">
        <ele>394.75999999999999</ele>
        <time>2019-05-09T11:35:59Z</time>
      </trkpt>
      <trkpt lat="51.015815958380699" lon="8.816330004483461">
        <ele>395.72000000000003</ele>
        <time>2019-05-09T11:36:00Z</time>
      </trkpt>
      <trkpt lat="51.015625018626451" lon="8.816399993374944">
        <ele>396.19999999999999</ele>
        <time>2019-05-09T11:36:01Z</time>
      </trkpt>
      <trkpt lat="51.015419997274876" lon="8.816513987258077">
        <ele>396.68000000000001</ele>
        <time>2019-05-09T11:36:02Z</time>
      </trkpt>
      <trkpt lat="51.015199972316623" lon="8.816636027768254">
        <ele>397.16000000000003</ele>
        <time>2019-05-09T11:36:03Z</time>
      </trkpt>
      <trkpt lat="51.013189991936088" lon="8.817806979641318">
        <ele>398.12</ele>
        <time>2019-05-09T11:36:11Z</time>
      </trkpt>
      <trkpt lat="51.012542992830276" lon="8.818276030942798">
        <ele>397.16000000000003</ele>
        <time>2019-05-09T11:36:14Z</time>
      </trkpt>
      <trkpt lat="51.012366972863674" lon="8.818483985960484">
        <ele>396.68000000000001</ele>
        <time>2019-05-09T11:36:15Z</time>
      </trkpt>
      <trkpt lat="51.012178966775537" lon="8.818706022575498">
        <ele>396.68000000000001</ele>
        <time>2019-05-09T11:36:16Z</time>
      </trkpt>
      <trkpt lat="51.011096024885774" lon="8.820159025490284">
        <ele>394.27999999999997</ele>
        <time>2019-05-09T11:36:21Z</time>
      </trkpt>
      <trkpt lat="51.009010020643473" lon="8.822984984144568">
        <ele>386.58999999999997</ele>
        <time>2019-05-09T11:36:29Z</time>
      </trkpt>
      <trkpt lat="51.006482038646936" lon="8.826372027397156">
        <ele>373.13</ele>
        <time>2019-05-09T11:36:39Z</time>
      </trkpt>
      <trkpt lat="51.006261007860303" lon="8.82657403126359">
        <ele>371.69</ele>
        <time>2019-05-09T11:36:40Z</time>
      </trkpt>
      <trkpt lat="51.006032014265656" lon="8.826744016259909">
        <ele>370.73000000000002</ele>
        <time>2019-05-09T11:36:41Z</time>
      </trkpt>
      <trkpt lat="51.004307018592954" lon="8.828026028349996">
        <ele>369.27999999999997</ele>
        <time>2019-05-09T11:36:48Z</time>
      </trkpt>
      <trkpt lat="51.003778958693147" lon="8.828476974740624">
        <ele>367.83999999999997</ele>
        <time>2019-05-09T11:36:50Z</time>
      </trkpt>
      <trkpt lat="51.001708041876554" lon="8.830476980656385">
        <ele>368.31999999999999</ele>
        <time>2019-05-09T11:36:58Z</time>
      </trkpt>
      <trkpt lat="51.000623004510999" lon="8.831735020503402">
        <ele>371.20999999999998</ele>
        <time>2019-05-09T11:37:03Z</time>
      </trkpt>
      <trkpt lat="50.999346021562815" lon="8.833635030314326">
        <ele>376.00999999999999</ele>
        <time>2019-05-09T11:37:09Z</time>
      </trkpt>
      <trkpt lat="50.997623959556222" lon="8.835506038740277">
        <ele>383.69999999999999</ele>
        <time>2019-05-09T11:37:16Z</time>
      </trkpt>
      <trkpt lat="50.996227031573653" lon="8.836892992258072">
        <ele>391.38999999999999</ele>
        <time>2019-05-09T11:37:22Z</time>
      </trkpt>
      <trkpt lat="50.994401033967733" lon="8.838604995980859">
        <ele>390.91000000000003</ele>
        <time>2019-05-09T11:37:30Z</time>
      </trkpt>
      <trkpt lat="50.992910983040929" lon="8.839243026450276">
        <ele>387.55000000000001</ele>
        <time>2019-05-09T11:37:36Z</time>
      </trkpt>
      <trkpt lat="50.991157991811633" lon="8.839409993961453">
        <ele>387.06999999999999</ele>
        <time>2019-05-09T11:37:43Z</time>
      </trkpt>
      <trkpt lat="50.990948025137186" lon="8.839349979534745">
        <ele>386.58999999999997</ele>
        <time>2019-05-09T11:37:44Z</time>
      </trkpt>
      <trkpt lat="50.99033497273922" lon="8.839124003425241">
        <ele>385.14999999999998</ele>
        <time>2019-05-09T11:37:47Z</time>
      </trkpt>
      <trkpt lat="50.990139003843069" lon="8.839114028960466">
        <ele>384.66000000000003</ele>
        <time>2019-05-09T11:37:48Z</time>
      </trkpt>
      <trkpt lat="50.989946974441409" lon="8.839131966233254">
        <ele>384.18000000000001</ele>
        <time>2019-05-09T11:37:49Z</time>
      </trkpt>
      <trkpt lat="50.989761985838413" lon="8.839179994538426">
        <ele>383.69999999999999</ele>
        <time>2019-05-09T11:37:50Z</time>
      </trkpt>
      <trkpt lat="50.989596024155617" lon="8.839327013120055">
        <ele>382.74000000000001</ele>
        <time>2019-05-09T11:37:51Z</time>
      </trkpt>
      <trkpt lat="50.989421010017395" lon="8.839488029479981">
        <ele>382.25999999999999</ele>
        <time>2019-05-09T11:37:52Z</time>
      </trkpt>
      <trkpt lat="50.989253958687186" lon="8.839705036953092">
        <ele>381.30000000000001</ele>
        <time>2019-05-09T11:37:53Z</time>
      </trkpt>
      <trkpt lat="50.988088035956025" lon="8.841115040704608">
        <ele>376.97000000000003</ele>
        <time>2019-05-09T11:37:59Z</time>
      </trkpt>
      <trkpt lat="50.98786398768425" lon="8.841278990730643">
        <ele>376.49000000000001</ele>
        <time>2019-05-09T11:38:00Z</time>
      </trkpt>
      <trkpt lat="50.987644968554378" lon="8.841431960463524">
        <ele>375.52999999999997</ele>
        <time>2019-05-09T11:38:01Z</time>
      </trkpt>
      <trkpt lat="50.98741203546524" lon="8.841526005417109">
        <ele>375.05000000000001</ele>
        <time>2019-05-09T11:38:02Z</time>
      </trkpt>
      <trkpt lat="50.987166026607156" lon="8.841590965166688">
        <ele>374.08999999999997</ele>
        <time>2019-05-09T11:38:03Z</time>
      </trkpt>
      <trkpt lat="50.986911971122026" lon="8.84165802039206">
        <ele>373.61000000000001</ele>
        <time>2019-05-09T11:38:04Z</time>
      </trkpt>
      <trkpt lat="50.984954964369535" lon="8.841737983748317">
        <ele>366.88</ele>
        <time>2019-05-09T11:38:11Z</time>
      </trkpt>
      <trkpt lat="50.984161030501127" lon="8.841629019007087">
        <ele>362.55000000000001</ele>
        <time>2019-05-09T11:38:14Z</time>
      </trkpt>
      <trkpt lat="50.983515959233046" lon="8.841514019295573">
        <ele>357.75</ele>
        <time>2019-05-09T11:38:17Z</time>
      </trkpt>
      <trkpt lat="50.983371958136559" lon="8.841536985710263">
        <ele>356.31</ele>
        <time>2019-05-09T11:38:18Z</time>
      </trkpt>
      <trkpt lat="50.983274979516864" lon="8.841576967388392">
        <ele>354.38</ele>
        <time>2019-05-09T11:38:19Z</time>
      </trkpt>
      <trkpt lat="50.983162997290492" lon="8.84170101955533">
        <ele>352.45999999999998</ele>
        <time>2019-05-09T11:38:20Z</time>
      </trkpt>
      <trkpt lat="50.983061995357275" lon="8.841843008995056">
        <ele>350.54000000000002</ele>
        <time>2019-05-09T11:38:21Z</time>
      </trkpt>
      <trkpt lat="50.982949007302523" lon="8.84204400703311">
        <ele>348.62</ele>
        <time>2019-05-09T11:38:22Z</time>
      </trkpt>
      <trkpt lat="50.982828978449106" lon="8.842255985364318">
        <ele>346.69</ele>
        <time>2019-05-09T11:38:23Z</time>
      </trkpt>
      <trkpt lat="50.982744991779327" lon="8.842542981728911">
        <ele>344.76999999999998</ele>
        <time>2019-05-09T11:38:24Z</time>
      </trkpt>
      <trkpt lat="50.982653964310884" lon="8.842853028327227">
        <ele>342.85000000000002</ele>
        <time>2019-05-09T11:38:25Z</time>
      </trkpt>
      <trkpt lat="50.982460007071495" lon="8.843517964705825">
        <ele>339</ele>
        <time>2019-05-09T11:38:27Z</time>
      </trkpt>
      <trkpt lat="50.982198994606733" lon="8.844149960204959">
        <ele>335.16000000000003</ele>
        <time>2019-05-09T11:38:29Z</time>
      </trkpt>
      <trkpt lat="50.982036972418427" lon="8.844443997368217">
        <ele>332.75</ele>
        <time>2019-05-09T11:38:30Z</time>
      </trkpt>
      <trkpt lat="50.980722019448876" lon="8.84674902074039">
        <ele>317.37</ele>
        <time>2019-05-09T11:38:37Z</time>
      </trkpt>
      <trkpt lat="50.97853702493012" lon="8.850591033697128">
        <ele>293.81999999999999</ele>
        <time>2019-05-09T11:38:48Z</time>
      </trkpt>
      <trkpt lat="50.978097980841994" lon="8.851554030552506">
        <ele>290.94</ele>
        <time>2019-05-09T11:38:51Z</time>
      </trkpt>
      <trkpt lat="50.977982981130481" lon="8.851915961131454">
        <ele>290.45999999999998</ele>
        <time>2019-05-09T11:38:52Z</time>
      </trkpt>
      <trkpt lat="50.977290971204638" lon="8.854466993361712">
        <ele>288.52999999999997</ele>
        <time>2019-05-09T11:38:59Z</time>
      </trkpt>
      <trkpt lat="50.97666802816093" lon="8.85549402795732">
        <ele>289.49000000000001</ele>
        <time>2019-05-09T11:39:03Z</time>
      </trkpt>
      <trkpt lat="50.97649896517396" lon="8.85568899102509">
        <ele>289.97000000000003</ele>
        <time>2019-05-09T11:39:04Z</time>
      </trkpt>
      <trkpt lat="50.975575027987361" lon="8.856586022302508">
        <ele>290.45999999999998</ele>
        <time>2019-05-09T11:39:09Z</time>
      </trkpt>
      <trkpt lat="50.975434966385365" lon="8.856817027553916">
        <ele>290.45999999999998</ele>
        <time>2019-05-09T11:39:10Z</time>
      </trkpt>
      <trkpt lat="50.975291971117258" lon="8.85706395842135">
        <ele>289.97000000000003</ele>
        <time>2019-05-09T11:39:11Z</time>
      </trkpt>
      <trkpt lat="50.974790984764695" lon="8.857972975820303">
        <ele>287.56999999999999</ele>
        <time>2019-05-09T11:39:15Z</time>
      </trkpt>
      <trkpt lat="50.974646983668208" lon="8.858333984389901">
        <ele>286.13</ele>
        <time>2019-05-09T11:39:17Z</time>
      </trkpt>
      <trkpt lat="50.9745869692415" lon="8.858498018234968">
        <ele>285.64999999999998</ele>
        <time>2019-05-09T11:39:18Z</time>
      </trkpt>
      <trkpt lat="50.974567020311952" lon="8.858709996566176">
        <ele>285.17000000000002</ele>
        <time>2019-05-09T11:39:19Z</time>
      </trkpt>
      <trkpt lat="50.974545981734991" lon="8.858929015696049">
        <ele>284.69</ele>
        <time>2019-05-09T11:39:20Z</time>
      </trkpt>
      <trkpt lat="50.974524021148682" lon="8.859162032604218">
        <ele>283.73000000000002</ele>
        <time>2019-05-09T11:39:21Z</time>
      </trkpt>
      <trkpt lat="50.974342972040176" lon="8.86088996194303">
        <ele>276.51999999999998</ele>
        <time>2019-05-09T11:39:29Z</time>
      </trkpt>
      <trkpt lat="50.974217997863889" lon="8.861728990450501">
        <ele>273.14999999999998</ele>
        <time>2019-05-09T11:39:34Z</time>
      </trkpt>
      <trkpt lat="50.974190002307296" lon="8.861880032345653">
        <ele>273.14999999999998</ele>
        <time>2019-05-09T11:39:35Z</time>
      </trkpt>
      <trkpt lat="50.974138034507632" lon="8.86209100484848">
        <ele>272.67000000000002</ele>
        <time>2019-05-09T11:39:37Z</time>
      </trkpt>
      <trkpt lat="50.974099980667233" lon="8.862181026488543">
        <ele>271.23000000000002</ele>
        <time>2019-05-09T11:39:44Z</time>
      </trkpt>
      <trkpt lat="50.974095035344362" lon="8.862189995124936">
        <ele>271.23000000000002</ele>
        <time>2019-05-09T11:39:48Z</time>
      </trkpt>
      <trkpt lat="50.973987998440862" lon="8.862374983727932">
        <ele>271.23000000000002</ele>
        <time>2019-05-09T11:39:49Z</time>
      </trkpt>
      <trkpt lat="50.973892025649548" lon="8.86331400834024">
        <ele>270.26999999999998</ele>
        <time>2019-05-09T11:39:55Z</time>
      </trkpt>
      <trkpt lat="50.973886996507645" lon="8.8635060377419">
        <ele>270.26999999999998</ele>
        <time>2019-05-09T11:39:56Z</time>
      </trkpt>
      <trkpt lat="50.973902000114322" lon="8.863735031336546">
        <ele>269.79000000000002</ele>
        <time>2019-05-09T11:39:57Z</time>
      </trkpt>
      <trkpt lat="50.973925972357392" lon="8.863907027989626">
        <ele>269.79000000000002</ele>
        <time>2019-05-09T11:39:58Z</time>
      </trkpt>
      <trkpt lat="50.973954973742366" lon="8.86411196552217">
        <ele>269.79000000000002</ele>
        <time>2019-05-09T11:39:59Z</time>
      </trkpt>
      <trkpt lat="50.973982969298959" lon="8.864316986873746">
        <ele>269.79000000000002</ele>
        <time>2019-05-09T11:40:00Z</time>
      </trkpt>
      <trkpt lat="50.974008031189442" lon="8.864525025710464">
        <ele>269.31</ele>
        <time>2019-05-09T11:40:01Z</time>
      </trkpt>
      <trkpt lat="50.973995039239526" lon="8.864723006263375">
        <ele>269.31</ele>
        <time>2019-05-09T11:40:02Z</time>
      </trkpt>
      <trkpt lat="50.973966959863901" lon="8.865617020055652">
        <ele>269.79000000000002</ele>
        <time>2019-05-09T11:40:07Z</time>
      </trkpt>
      <trkpt lat="50.973960002884269" lon="8.865791028365493">
        <ele>269.79000000000002</ele>
        <time>2019-05-09T11:40:08Z</time>
      </trkpt>
      <trkpt lat="50.973902000114322" lon="8.866611029952765">
        <ele>269.31</ele>
        <time>2019-05-09T11:40:13Z</time>
      </trkpt>
      <trkpt lat="50.973912980407476" lon="8.866782020777464">
        <ele>269.31</ele>
        <time>2019-05-09T11:40:14Z</time>
      </trkpt>
      <trkpt lat="50.97396201454103" lon="8.86756899766624">
        <ele>268.82999999999998</ele>
        <time>2019-05-09T11:40:19Z</time>
      </trkpt>
      <trkpt lat="50.973971989005804" lon="8.867708975449204">
        <ele>268.82999999999998</ele>
        <time>2019-05-09T11:40:20Z</time>
      </trkpt>
      <trkpt lat="50.973952962085605" lon="8.868112983182073">
        <ele>270.26999999999998</ele>
        <time>2019-05-09T11:40:25Z</time>
      </trkpt>
      <trkpt lat="50.973859000951052" lon="8.868140978738666">
        <ele>270.26999999999998</ele>
        <time>2019-05-09T11:40:26Z</time>
      </trkpt>
      <trkpt lat="50.973784988746047" lon="8.868155982345343">
        <ele>270.26999999999998</ele>
        <time>2019-05-09T11:40:27Z</time>
      </trkpt>
      <trkpt lat="50.973693961277604" lon="8.868155982345343">
        <ele>270.75</ele>
        <time>2019-05-09T11:40:28Z</time>
      </trkpt>
      <trkpt lat="50.973583990707994" lon="8.868155982345343">
        <ele>270.75</ele>
        <time>2019-05-09T11:40:29Z</time>
      </trkpt>
      <trkpt lat="50.973467985168099" lon="8.868155982345343">
        <ele>271.23000000000002</ele>
        <time>2019-05-09T11:40:30Z</time>
      </trkpt>
      <trkpt lat="50.972682014107704" lon="8.868266036733985">
        <ele>272.19</ele>
        <time>2019-05-09T11:40:37Z</time>
      </trkpt>
      <trkpt lat="50.971653973683715" lon="8.868433004245162">
        <ele>275.06999999999999</ele>
        <time>2019-05-09T11:40:47Z</time>
      </trkpt>
      <trkpt lat="50.971548026427627" lon="8.86844901368022">
        <ele>275.56</ele>
        <time>2019-05-09T11:40:48Z</time>
      </trkpt>
      <trkpt lat="50.970704974606633" lon="8.86872997507453">
        <ele>280.83999999999997</ele>
        <time>2019-05-09T11:40:55Z</time>
      </trkpt>
      <trkpt lat="50.970555022358894" lon="8.868821002542973">
        <ele>281.31999999999999</ele>
        <time>2019-05-09T11:40:56Z</time>
      </trkpt>
      <trkpt lat="50.96949202939868" lon="8.869771007448435">
        <ele>287.56999999999999</ele>
        <time>2019-05-09T11:41:02Z</time>
      </trkpt>
      <trkpt lat="50.968069033697248" lon="8.8711560331285">
        <ele>289.97000000000003</ele>
        <time>2019-05-09T11:41:09Z</time>
      </trkpt>
      <trkpt lat="50.967891002073884" lon="8.871333980932832">
        <ele>290.45999999999998</ele>
        <time>2019-05-09T11:41:10Z</time>
      </trkpt>
      <trkpt lat="50.967691009864211" lon="8.871441017836332">
        <ele>290.45999999999998</ele>
        <time>2019-05-09T11:41:11Z</time>
      </trkpt>
      <trkpt lat="50.967477019876242" lon="8.871529027819634">
        <ele>290.94</ele>
        <time>2019-05-09T11:41:12Z</time>
      </trkpt>
      <trkpt lat="50.966591974720359" lon="8.871834967285395">
        <ele>291.89999999999998</ele>
        <time>2019-05-09T11:41:16Z</time>
      </trkpt>
      <trkpt lat="50.96637899056077" lon="8.871816024184227">
        <ele>291.89999999999998</ele>
        <time>2019-05-09T11:41:17Z</time>
      </trkpt>
      <trkpt lat="50.966166006401181" lon="8.871761960908771">
        <ele>291.42000000000002</ele>
        <time>2019-05-09T11:41:18Z</time>
      </trkpt>
      <trkpt lat="50.965959979221225" lon="8.871649978682399">
        <ele>290.94</ele>
        <time>2019-05-09T11:41:19Z</time>
      </trkpt>
      <trkpt lat="50.965749006718397" lon="8.871534978970885">
        <ele>290.45999999999998</ele>
        <time>2019-05-09T11:41:20Z</time>
      </trkpt>
      <trkpt lat="50.965318009257317" lon="8.871338004246354">
        <ele>289.49000000000001</ele>
        <time>2019-05-09T11:41:22Z</time>
      </trkpt>
      <trkpt lat="50.965092033147812" lon="8.871270027011633">
        <ele>289.00999999999999</ele>
        <time>2019-05-09T11:41:23Z</time>
      </trkpt>
      <trkpt lat="50.964847030118108" lon="8.871288970112801">
        <ele>289.49000000000001</ele>
        <time>2019-05-09T11:41:24Z</time>
      </trkpt>
      <trkpt lat="50.964110009372234" lon="8.871345967054367">
        <ele>290.45999999999998</ele>
        <time>2019-05-09T11:41:27Z</time>
      </trkpt>
      <trkpt lat="50.963880009949207" lon="8.871363988146186">
        <ele>290.45999999999998</ele>
        <time>2019-05-09T11:41:28Z</time>
      </trkpt>
      <trkpt lat="50.963603993877769" lon="8.871268015354872">
        <ele>291.42000000000002</ele>
        <time>2019-05-09T11:41:29Z</time>
      </trkpt>
      <trkpt lat="50.963408024981618" lon="8.870981018990278">
        <ele>291.89999999999998</ele>
        <time>2019-05-09T11:41:30Z</time>
      </trkpt>
      <trkpt lat="50.963226975873113" lon="8.870715983211994">
        <ele>293.33999999999997</ele>
        <time>2019-05-09T11:41:31Z</time>
      </trkpt>
      <trkpt lat="50.963038969784975" lon="8.870440972968936">
        <ele>294.77999999999997</ele>
        <time>2019-05-09T11:41:32Z</time>
      </trkpt>
      <trkpt lat="50.961928032338619" lon="8.869389966130257">
        <ele>301.99000000000001</ele>
        <time>2019-05-09T11:41:37Z</time>
      </trkpt>
      <trkpt lat="50.961700966581702" lon="8.86924596503377">
        <ele>303.43000000000001</ele>
        <time>2019-05-09T11:41:38Z</time>
      </trkpt>
      <trkpt lat="50.961467027664185" lon="8.869098024442792">
        <ele>305.36000000000001</ele>
        <time>2019-05-09T11:41:39Z</time>
      </trkpt>
      <trkpt lat="50.96025500446558" lon="8.868197975680232">
        <ele>315.93000000000001</ele>
        <time>2019-05-09T11:41:44Z</time>
      </trkpt>
      <trkpt lat="50.960179986432195" lon="8.868172997608781">
        <ele>317.85000000000002</ele>
        <time>2019-05-09T11:41:45Z</time>
      </trkpt>
      <trkpt lat="50.959519995376468" lon="8.867921959608793">
        <ele>322.66000000000003</ele>
        <time>2019-05-09T11:41:48Z</time>
      </trkpt>
      <trkpt lat="50.959313968196511" lon="8.867780975997448">
        <ele>324.10000000000002</ele>
        <time>2019-05-09T11:41:49Z</time>
      </trkpt>
      <trkpt lat="50.959121016785502" lon="8.867587018758059">
        <ele>325.06</ele>
        <time>2019-05-09T11:41:50Z</time>
      </trkpt>
      <trkpt lat="50.958949020132422" lon="8.867351990193129">
        <ele>325.54000000000002</ele>
        <time>2019-05-09T11:41:51Z</time>
      </trkpt>
      <trkpt lat="50.958791021257639" lon="8.867073962464929">
        <ele>326.01999999999998</ele>
        <time>2019-05-09T11:41:52Z</time>
      </trkpt>
      <trkpt lat="50.958630004897714" lon="8.866780009120703">
        <ele>326.5</ele>
        <time>2019-05-09T11:41:53Z</time>
      </trkpt>
      <trkpt lat="50.957686034962535" lon="8.865204965695739">
        <ele>324.10000000000002</ele>
        <time>2019-05-09T11:41:58Z</time>
      </trkpt>
      <trkpt lat="50.956744998693466" lon="8.863075962290168">
        <ele>320.25999999999999</ele>
        <time>2019-05-09T11:42:04Z</time>
      </trkpt>
      <trkpt lat="50.956488009542227" lon="8.862471040338278">
        <ele>318.32999999999998</ele>
        <time>2019-05-09T11:42:06Z</time>
      </trkpt>
      <trkpt lat="50.956348031759262" lon="8.862226037308574">
        <ele>316.88999999999999</ele>
        <time>2019-05-09T11:42:07Z</time>
      </trkpt>
      <trkpt lat="50.956191960722208" lon="8.862022021785379">
        <ele>315.93000000000001</ele>
        <time>2019-05-09T11:42:08Z</time>
      </trkpt>
      <trkpt lat="50.956007977947593" lon="8.861863017082214">
        <ele>314.97000000000003</ele>
        <time>2019-05-09T11:42:09Z</time>
      </trkpt>
      <trkpt lat="50.955817038193345" lon="8.861709963530302">
        <ele>314.49000000000001</ele>
        <time>2019-05-09T11:42:10Z</time>
      </trkpt>
      <trkpt lat="50.955624002963305" lon="8.861542996019125">
        <ele>314.49000000000001</ele>
        <time>2019-05-09T11:42:11Z</time>
      </trkpt>
      <trkpt lat="50.955461980774999" lon="8.861352978274226">
        <ele>314.49000000000001</ele>
        <time>2019-05-09T11:42:12Z</time>
      </trkpt>
      <trkpt lat="50.955301970243454" lon="8.861164972186089">
        <ele>314.97000000000003</ele>
        <time>2019-05-09T11:42:13Z</time>
      </trkpt>
      <trkpt lat="50.955176996067166" lon="8.860907983034849">
        <ele>314.97000000000003</ele>
        <time>2019-05-09T11:42:14Z</time>
      </trkpt>
      <trkpt lat="50.955051016062498" lon="8.860645964741707">
        <ele>315.44999999999999</ele>
        <time>2019-05-09T11:42:15Z</time>
      </trkpt>
      <trkpt lat="50.954932998865843" lon="8.860365003347397">
        <ele>316.41000000000003</ele>
        <time>2019-05-09T11:42:16Z</time>
      </trkpt>
      <trkpt lat="50.954311983659863" lon="8.859079973772168">
        <ele>320.74000000000001</ele>
        <time>2019-05-09T11:42:21Z</time>
      </trkpt>
      <trkpt lat="50.954145016148686" lon="8.858929015696049">
        <ele>321.22000000000003</ele>
        <time>2019-05-09T11:42:22Z</time>
      </trkpt>
      <trkpt lat="50.953965978696942" lon="8.858767999336124">
        <ele>322.18000000000001</ele>
        <time>2019-05-09T11:42:23Z</time>
      </trkpt>
      <trkpt lat="50.953776966780424" lon="8.858615029603243">
        <ele>322.66000000000003</ele>
        <time>2019-05-09T11:42:24Z</time>
      </trkpt>
      <trkpt lat="50.95357496291399" lon="8.858464993536472">
        <ele>323.62</ele>
        <time>2019-05-09T11:42:25Z</time>
      </trkpt>
      <trkpt lat="50.952581036835909" lon="8.857552958652377">
        <ele>326.01999999999998</ele>
        <time>2019-05-09T11:42:30Z</time>
      </trkpt>
      <trkpt lat="50.952422032132745" lon="8.857279038056731">
        <ele>326.5</ele>
        <time>2019-05-09T11:42:31Z</time>
      </trkpt>
      <trkpt lat="50.952278031036258" lon="8.856974020600319">
        <ele>326.99000000000001</ele>
        <time>2019-05-09T11:42:32Z</time>
      </trkpt>
      <trkpt lat="50.95200402662158" lon="8.856316041201353">
        <ele>328.43000000000001</ele>
        <time>2019-05-09T11:42:34Z</time>
      </trkpt>
      <trkpt lat="50.951316962018609" lon="8.854782991111279">
        <ele>331.79000000000002</ele>
        <time>2019-05-09T11:42:39Z</time>
      </trkpt>
      <trkpt lat="50.951172038912773" lon="8.854620968922973">
        <ele>332.26999999999998</ele>
        <time>2019-05-09T11:42:40Z</time>
      </trkpt>
      <trkpt lat="50.951026026159525" lon="8.854492977261543">
        <ele>333.23000000000002</ele>
        <time>2019-05-09T11:42:41Z</time>
      </trkpt>
      <trkpt lat="50.950870038941503" lon="8.854391975328326">
        <ele>333.70999999999998</ele>
        <time>2019-05-09T11:42:42Z</time>
      </trkpt>
      <trkpt lat="50.950700975954533" lon="8.854360962286592">
        <ele>334.68000000000001</ele>
        <time>2019-05-09T11:42:43Z</time>
      </trkpt>
      <trkpt lat="50.950536020100117" lon="8.854362973943353">
        <ele>335.16000000000003</ele>
        <time>2019-05-09T11:42:44Z</time>
      </trkpt>
      <trkpt lat="50.95037198625505" lon="8.854369008913636">
        <ele>336.12</ele>
        <time>2019-05-09T11:42:45Z</time>
      </trkpt>
      <trkpt lat="50.950056994333863" lon="8.854365991428495">
        <ele>337.56</ele>
        <time>2019-05-09T11:42:47Z</time>
      </trkpt>
      <trkpt lat="50.949908969923854" lon="8.85429197922349">
        <ele>338.04000000000002</ele>
        <time>2019-05-09T11:42:48Z</time>
      </trkpt>
      <trkpt lat="50.949774021282792" lon="8.854185026139021">
        <ele>338.51999999999998</ele>
        <time>2019-05-09T11:42:49Z</time>
      </trkpt>
      <trkpt lat="50.949635971337557" lon="8.854058962315321">
        <ele>339</ele>
        <time>2019-05-09T11:42:50Z</time>
      </trkpt>
      <trkpt lat="50.949537986889482" lon="8.853865005075932">
        <ele>339</ele>
        <time>2019-05-09T11:42:51Z</time>
      </trkpt>
      <trkpt lat="50.949438996613026" lon="8.853639028966427">
        <ele>339</ele>
        <time>2019-05-09T11:42:52Z</time>
      </trkpt>
      <trkpt lat="50.949352998286486" lon="8.85338899679482">
        <ele>339</ele>
        <time>2019-05-09T11:42:53Z</time>
      </trkpt>
      <trkpt lat="50.949272029101849" lon="8.853109963238239">
        <ele>339</ele>
        <time>2019-05-09T11:42:54Z</time>
      </trkpt>
      <trkpt lat="50.949187958613038" lon="8.852818021550775">
        <ele>338.51999999999998</ele>
        <time>2019-05-09T11:42:55Z</time>
      </trkpt>
      <trkpt lat="50.949099026620388" lon="8.852510992437601">
        <ele>338.51999999999998</ele>
        <time>2019-05-09T11:42:56Z</time>
      </trkpt>
      <trkpt lat="50.948839019984007" lon="8.851740024983883">
        <ele>337.07999999999998</ele>
        <time>2019-05-09T11:42:59Z</time>
      </trkpt>
      <trkpt lat="50.948731983080506" lon="8.851546989753842">
        <ele>337.07999999999998</ele>
        <time>2019-05-09T11:43:00Z</time>
      </trkpt>
      <trkpt lat="50.948606003075838" lon="8.851421009749174">
        <ele>336.60000000000002</ele>
        <time>2019-05-09T11:43:01Z</time>
      </trkpt>
      <trkpt lat="50.94846099615097" lon="8.851355966180563">
        <ele>336.60000000000002</ele>
        <time>2019-05-09T11:43:02Z</time>
      </trkpt>
      <trkpt lat="50.94830802641809" lon="8.851287988945842">
        <ele>336.12</ele>
        <time>2019-05-09T11:43:03Z</time>
      </trkpt>
      <trkpt lat="50.948140975087881" lon="8.851213976740837">
        <ele>335.63999999999999</ele>
        <time>2019-05-09T11:43:04Z</time>
      </trkpt>
      <trkpt lat="50.947976019233465" lon="8.851140970364213">
        <ele>335.16000000000003</ele>
        <time>2019-05-09T11:43:05Z</time>
      </trkpt>
      <trkpt lat="50.94781500287354" lon="8.85106997564435">
        <ele>334.68000000000001</ele>
        <time>2019-05-09T11:43:06Z</time>
      </trkpt>
      <trkpt lat="50.947680976241827" lon="8.851010967046022">
        <ele>334.19999999999999</ele>
        <time>2019-05-09T11:43:07Z</time>
      </trkpt>
      <trkpt lat="50.947517026215792" lon="8.850833019241691">
        <ele>333.70999999999998</ele>
        <time>2019-05-09T11:43:08Z</time>
      </trkpt>
      <trkpt lat="50.947376964613795" lon="8.850663034245372">
        <ele>333.23000000000002</ele>
        <time>2019-05-09T11:43:09Z</time>
      </trkpt>
      <trkpt lat="50.947241010144353" lon="8.850462958216667">
        <ele>332.26999999999998</ele>
        <time>2019-05-09T11:43:10Z</time>
      </trkpt>
      <trkpt lat="50.947115030139685" lon="8.850276041775942">
        <ele>331.79000000000002</ele>
        <time>2019-05-09T11:43:11Z</time>
      </trkpt>
      <trkpt lat="50.946987960487604" lon="8.850088035687804">
        <ele>331.31</ele>
        <time>2019-05-09T11:43:12Z</time>
      </trkpt>
      <trkpt lat="50.946821998804808" lon="8.84992802515626">
        <ele>330.35000000000002</ele>
        <time>2019-05-09T11:43:13Z</time>
      </trkpt>
      <trkpt lat="50.946646984666586" lon="8.849791986867786">
        <ele>329.87</ele>
        <time>2019-05-09T11:43:14Z</time>
      </trkpt>
      <trkpt lat="50.946469036862254" lon="8.849691990762949">
        <ele>329.38999999999999</ele>
        <time>2019-05-09T11:43:15Z</time>
      </trkpt>
      <trkpt lat="50.946280024945736" lon="8.849585959687829">
        <ele>328.91000000000003</ele>
        <time>2019-05-09T11:43:16Z</time>
      </trkpt>
      <trkpt lat="50.946078021079302" lon="8.849472971633077">
        <ele>328.43000000000001</ele>
        <time>2019-05-09T11:43:17Z</time>
      </trkpt>
      <trkpt lat="50.945498999208212" lon="8.849039962515235">
        <ele>326.99000000000001</ele>
        <time>2019-05-09T11:43:20Z</time>
      </trkpt>
      <trkpt lat="50.944947972893715" lon="8.848623968660832">
        <ele>325.06</ele>
        <time>2019-05-09T11:43:23Z</time>
      </trkpt>
      <trkpt lat="50.944410022348166" lon="8.848307970911264">
        <ele>322.66000000000003</ele>
        <time>2019-05-09T11:43:26Z</time>
      </trkpt>
      <trkpt lat="50.94424800015986" lon="8.848156007006764">
        <ele>321.69999999999999</ele>
        <time>2019-05-09T11:43:27Z</time>
      </trkpt>
      <trkpt lat="50.944094024598598" lon="8.848011000081897">
        <ele>320.74000000000001</ele>
        <time>2019-05-09T11:43:28Z</time>
      </trkpt>
      <trkpt lat="50.943950023502111" lon="8.847875967621803">
        <ele>319.77999999999997</ele>
        <time>2019-05-09T11:43:29Z</time>
      </trkpt>
      <trkpt lat="50.943811973556876" lon="8.84778200648725">
        <ele>318.81</ele>
        <time>2019-05-09T11:43:30Z</time>
      </trkpt>
      <trkpt lat="50.943663027137518" lon="8.847753005102277">
        <ele>317.85000000000002</ele>
        <time>2019-05-09T11:43:31Z</time>
      </trkpt>
      <trkpt lat="50.943508967757225" lon="8.847721992060542">
        <ele>316.88999999999999</ele>
        <time>2019-05-09T11:43:32Z</time>
      </trkpt>
      <trkpt lat="50.943349041044712" lon="8.847726015374064">
        <ele>315.44999999999999</ele>
        <time>2019-05-09T11:43:33Z</time>
      </trkpt>
      <trkpt lat="50.943180983886123" lon="8.847764991223812">
        <ele>314.00999999999999</ele>
        <time>2019-05-09T11:43:34Z</time>
      </trkpt>
      <trkpt lat="50.943019967526197" lon="8.847802961245179">
        <ele>313.05000000000001</ele>
        <time>2019-05-09T11:43:35Z</time>
      </trkpt>
      <trkpt lat="50.942855011671782" lon="8.847841015085578">
        <ele>312.56999999999999</ele>
        <time>2019-05-09T11:43:36Z</time>
      </trkpt>
      <trkpt lat="50.942691983655095" lon="8.847827017307282">
        <ele>312.08999999999997</ele>
        <time>2019-05-09T11:43:37Z</time>
      </trkpt>
      <trkpt lat="50.942545970901847" lon="8.84778200648725">
        <ele>312.08999999999997</ele>
        <time>2019-05-09T11:43:38Z</time>
      </trkpt>
      <trkpt lat="50.942410016432405" lon="8.847677987068892">
        <ele>311.60000000000002</ele>
        <time>2019-05-09T11:43:39Z</time>
      </trkpt>
      <trkpt lat="50.942269032821059" lon="8.847544966265559">
        <ele>311.60000000000002</ele>
        <time>2019-05-09T11:43:40Z</time>
      </trkpt>
      <trkpt lat="50.942120002582669" lon="8.84739400818944">
        <ele>311.12</ele>
        <time>2019-05-09T11:43:41Z</time>
      </trkpt>
      <trkpt lat="50.941102020442486" lon="8.846174022182822">
        <ele>304.88</ele>
        <time>2019-05-09T11:43:47Z</time>
      </trkpt>
      <trkpt lat="50.940371034666896" lon="8.845343962311745">
        <ele>299.11000000000001</ele>
        <time>2019-05-09T11:43:51Z</time>
      </trkpt>
      <trkpt lat="50.940199960023165" lon="8.845212031155825">
        <ele>297.67000000000002</ele>
        <time>2019-05-09T11:43:52Z</time>
      </trkpt>
      <trkpt lat="50.940007008612156" lon="8.845121003687382">
        <ele>296.69999999999999</ele>
        <time>2019-05-09T11:43:53Z</time>
      </trkpt>
      <trkpt lat="50.939823025837541" lon="8.845061995089054">
        <ele>296.22000000000003</ele>
        <time>2019-05-09T11:43:54Z</time>
      </trkpt>
      <trkpt lat="50.939623033627868" lon="8.845045985653997">
        <ele>295.74000000000001</ele>
        <time>2019-05-09T11:43:55Z</time>
      </trkpt>
      <trkpt lat="50.939408959820867" lon="8.845028970390558">
        <ele>295.74000000000001</ele>
        <time>2019-05-09T11:43:56Z</time>
      </trkpt>
      <trkpt lat="50.938787022605538" lon="8.844963004812598">
        <ele>296.69999999999999</ele>
        <time>2019-05-09T11:43:59Z</time>
      </trkpt>
      <trkpt lat="50.938622988760471" lon="8.844871977344155">
        <ele>297.18000000000001</ele>
        <time>2019-05-09T11:44:00Z</time>
      </trkpt>
      <trkpt lat="50.938459960743785" lon="8.844782039523125">
        <ele>297.18000000000001</ele>
        <time>2019-05-09T11:44:01Z</time>
      </trkpt>
      <trkpt lat="50.938303973525763" lon="8.844633009284735">
        <ele>297.67000000000002</ele>
        <time>2019-05-09T11:44:02Z</time>
      </trkpt>
      <trkpt lat="50.938154021278024" lon="8.844478027895093">
        <ele>297.67000000000002</ele>
        <time>2019-05-09T11:44:03Z</time>
      </trkpt>
      <trkpt lat="50.938005996868014" lon="8.844324974343181">
        <ele>297.67000000000002</ele>
        <time>2019-05-09T11:44:04Z</time>
      </trkpt>
      <trkpt lat="50.937859984114766" lon="8.844174016267061">
        <ele>297.67000000000002</ele>
        <time>2019-05-09T11:44:05Z</time>
      </trkpt>
      <trkpt lat="50.937706008553505" lon="8.844093969091773">
        <ele>297.18000000000001</ele>
        <time>2019-05-09T11:44:06Z</time>
      </trkpt>
      <trkpt lat="50.937527976930141" lon="8.844045018777251">
        <ele>296.69999999999999</ele>
        <time>2019-05-09T11:44:07Z</time>
      </trkpt>
      <trkpt lat="50.937340976670384" lon="8.843992967158556">
        <ele>296.22000000000003</ele>
        <time>2019-05-09T11:44:08Z</time>
      </trkpt>
      <trkpt lat="50.937156993895769" lon="8.843942005187273">
        <ele>296.22000000000003</ele>
        <time>2019-05-09T11:44:09Z</time>
      </trkpt>
      <trkpt lat="50.93698600307107" lon="8.843894982710481">
        <ele>295.74000000000001</ele>
        <time>2019-05-09T11:44:10Z</time>
      </trkpt>
      <trkpt lat="50.936820041388273" lon="8.843848966062069">
        <ele>295.25999999999999</ele>
        <time>2019-05-09T11:44:11Z</time>
      </trkpt>
      <trkpt lat="50.936657013371587" lon="8.843750981613994">
        <ele>295.25999999999999</ele>
        <time>2019-05-09T11:44:12Z</time>
      </trkpt>
      <trkpt lat="50.936502031981945" lon="8.843650985509157">
        <ele>295.25999999999999</ele>
        <time>2019-05-09T11:44:13Z</time>
      </trkpt>
      <trkpt lat="50.936355013400316" lon="8.843470020219684">
        <ele>295.25999999999999</ele>
        <time>2019-05-09T11:44:14Z</time>
      </trkpt>
      <trkpt lat="50.936215035617352" lon="8.843297017738223">
        <ele>294.77999999999997</ele>
        <time>2019-05-09T11:44:15Z</time>
      </trkpt>
      <trkpt lat="50.936071034520864" lon="8.843088978901506">
        <ele>294.30000000000001</ele>
        <time>2019-05-09T11:44:16Z</time>
      </trkpt>
      <trkpt lat="50.934975016862154" lon="8.841248983517289">
        <ele>289.00999999999999</ele>
        <time>2019-05-09T11:44:23Z</time>
      </trkpt>
      <trkpt lat="50.934205977246165" lon="8.840028997510672">
        <ele>283.73000000000002</ele>
        <time>2019-05-09T11:44:28Z</time>
      </trkpt>
      <trkpt lat="50.934043033048511" lon="8.839854989200831">
        <ele>282.27999999999997</ele>
        <time>2019-05-09T11:44:29Z</time>
      </trkpt>
      <trkpt lat="50.933869024738669" lon="8.839706964790821">
        <ele>280.83999999999997</ele>
        <time>2019-05-09T11:44:30Z</time>
      </trkpt>
      <trkpt lat="50.933697028085589" lon="8.839564975351095">
        <ele>279.88</ele>
        <time>2019-05-09T11:44:31Z</time>
      </trkpt>
      <trkpt lat="50.933512039482594" lon="8.839461039751768">
        <ele>278.44</ele>
        <time>2019-05-09T11:44:32Z</time>
      </trkpt>
      <trkpt lat="50.933323027566075" lon="8.839372023940086">
        <ele>276.51999999999998</ele>
        <time>2019-05-09T11:44:33Z</time>
      </trkpt>
      <trkpt lat="50.933120017871261" lon="8.839332964271307">
        <ele>275.06999999999999</ele>
        <time>2019-05-09T11:44:34Z</time>
      </trkpt>
      <trkpt lat="50.932918014004827" lon="8.83929499424994">
        <ele>273.63</ele>
        <time>2019-05-09T11:44:35Z</time>
      </trkpt>
      <trkpt lat="50.932708969339728" lon="8.83933799341321">
        <ele>272.67000000000002</ele>
        <time>2019-05-09T11:44:36Z</time>
      </trkpt>
      <trkpt lat="50.932503025978804" lon="8.839379986748099">
        <ele>271.23000000000002</ele>
        <time>2019-05-09T11:44:37Z</time>
      </trkpt>
      <trkpt lat="50.932296998798847" lon="8.839422985911369">
        <ele>270.26999999999998</ele>
        <time>2019-05-09T11:44:38Z</time>
      </trkpt>
      <trkpt lat="50.932098012417555" lon="8.839508984237909">
        <ele>268.35000000000002</ele>
        <time>2019-05-09T11:44:39Z</time>
      </trkpt>
      <trkpt lat="50.931899026036263" lon="8.839648040011525">
        <ele>266.89999999999998</ele>
        <time>2019-05-09T11:44:40Z</time>
      </trkpt>
      <trkpt lat="50.931700961664319" lon="8.839807966724038">
        <ele>264.98000000000002</ele>
        <time>2019-05-09T11:44:41Z</time>
      </trkpt>
      <trkpt lat="50.931512033566833" lon="8.840009970590472">
        <ele>264.01999999999998</ele>
        <time>2019-05-09T11:44:42Z</time>
      </trkpt>
      <trkpt lat="50.931326961144805" lon="8.840207029134035">
        <ele>263.06</ele>
        <time>2019-05-09T11:44:43Z</time>
      </trkpt>
      <trkpt lat="50.931152030825615" lon="8.840395035222173">
        <ele>261.62</ele>
        <time>2019-05-09T11:44:44Z</time>
      </trkpt>
      <trkpt lat="50.930967964231968" lon="8.840495031327009">
        <ele>261.13999999999999</ele>
        <time>2019-05-09T11:44:45Z</time>
      </trkpt>
      <trkpt lat="50.930788004770875" lon="8.84058496914804">
        <ele>260.17000000000002</ele>
        <time>2019-05-09T11:44:46Z</time>
      </trkpt>
      <trkpt lat="50.930607039481401" lon="8.840646995231509">
        <ele>259.20999999999998</ele>
        <time>2019-05-09T11:44:47Z</time>
      </trkpt>
      <trkpt lat="50.930414004251361" lon="8.840646995231509">
        <ele>258.73000000000002</ele>
        <time>2019-05-09T11:44:48Z</time>
      </trkpt>
      <trkpt lat="50.930230021476746" lon="8.840615982189775">
        <ele>257.76999999999998</ele>
        <time>2019-05-09T11:44:49Z</time>
      </trkpt>
      <trkpt lat="50.930052995681763" lon="8.840567031875253">
        <ele>257.29000000000002</ele>
        <time>2019-05-09T11:44:50Z</time>
      </trkpt>
      <trkpt lat="50.929880999028683" lon="8.84052000939846">
        <ele>257.29000000000002</ele>
        <time>2019-05-09T11:44:51Z</time>
      </trkpt>
      <trkpt lat="50.929707996547222" lon="8.840474998578429">
        <ele>256.81</ele>
        <time>2019-05-09T11:44:52Z</time>
      </trkpt>
      <trkpt lat="50.929533988237381" lon="8.840474998578429">
        <ele>256.81</ele>
        <time>2019-05-09T11:44:53Z</time>
      </trkpt>
      <trkpt lat="50.929368026554585" lon="8.840538030490279">
        <ele>256.81</ele>
        <time>2019-05-09T11:44:54Z</time>
      </trkpt>
      <trkpt lat="50.929199969395995" lon="8.840612964704633">
        <ele>256.32999999999998</ele>
        <time>2019-05-09T11:44:55Z</time>
      </trkpt>
      <trkpt lat="50.929028978571296" lon="8.840709021314979">
        <ele>256.32999999999998</ele>
        <time>2019-05-09T11:44:56Z</time>
      </trkpt>
      <trkpt lat="50.928856981918216" lon="8.840856039896607">
        <ele>256.32999999999998</ele>
        <time>2019-05-09T11:44:57Z</time>
      </trkpt>
      <trkpt lat="50.928679034113884" lon="8.841008003801107">
        <ele>255.84999999999999</ele>
        <time>2019-05-09T11:44:58Z</time>
      </trkpt>
      <trkpt lat="50.928341997787356" lon="8.841296005994082">
        <ele>254.88999999999999</ele>
        <time>2019-05-09T11:45:00Z</time>
      </trkpt>
      <trkpt lat="50.928160026669502" lon="8.841434977948666">
        <ele>254.41</ele>
        <time>2019-05-09T11:45:01Z</time>
      </trkpt>
      <trkpt lat="50.92656503431499" lon="8.842106033116579">
        <ele>251.52000000000001</ele>
        <time>2019-05-09T11:45:08Z</time>
      </trkpt>
      <trkpt lat="50.92508202418685" lon="8.843515031039715">
        <ele>249.59999999999999</ele>
        <time>2019-05-09T11:45:15Z</time>
      </trkpt>
      <trkpt lat="50.923710996285081" lon="8.844461012631655">
        <ele>247.19999999999999</ele>
        <time>2019-05-09T11:45:21Z</time>
      </trkpt>
      <trkpt lat="50.921918023377657" lon="8.845615033060312">
        <ele>246.22999999999999</ele>
        <time>2019-05-09T11:45:29Z</time>
      </trkpt>
      <trkpt lat="50.920822005718946" lon="8.846530001610518">
        <ele>247.68000000000001</ele>
        <time>2019-05-09T11:45:36Z</time>
      </trkpt>
      <trkpt lat="50.920714968815446" lon="8.846666039898992">
        <ele>247.68000000000001</ele>
        <time>2019-05-09T11:45:37Z</time>
      </trkpt>
      <trkpt lat="50.920612039044499" lon="8.84679595939815">
        <ele>247.68000000000001</ele>
        <time>2019-05-09T11:45:38Z</time>
      </trkpt>
      <trkpt lat="50.920511037111282" lon="8.846925040706992">
        <ele>247.19999999999999</ele>
        <time>2019-05-09T11:45:39Z</time>
      </trkpt>
      <trkpt lat="50.919797988608479" lon="8.847764991223812">
        <ele>244.78999999999999</ele>
        <time>2019-05-09T11:45:47Z</time>
      </trkpt>
      <trkpt lat="50.919749038293958" lon="8.847810002043843">
        <ele>244.78999999999999</ele>
        <time>2019-05-09T11:45:48Z</time>
      </trkpt>
      <trkpt lat="50.919732023030519" lon="8.847880996763706">
        <ele>244.31</ele>
        <time>2019-05-09T11:45:49Z</time>
      </trkpt>
      <trkpt lat="50.919749038293958" lon="8.847960960119963">
        <ele>243.83000000000001</ele>
        <time>2019-05-09T11:45:50Z</time>
      </trkpt>
      <trkpt lat="50.919774016365409" lon="8.848074031993747">
        <ele>243.34999999999999</ele>
        <time>2019-05-09T11:45:51Z</time>
      </trkpt>
      <trkpt lat="50.919804023578763" lon="8.848208980634809">
        <ele>243.34999999999999</ele>
        <time>2019-05-09T11:45:52Z</time>
      </trkpt>
      <trkpt lat="50.919989012181759" lon="8.849055971950293">
        <ele>243.83000000000001</ele>
        <time>2019-05-09T11:45:57Z</time>
      </trkpt>
      <trkpt lat="50.920025976374745" lon="8.849223023280501">
        <ele>243.83000000000001</ele>
        <time>2019-05-09T11:45:58Z</time>
      </trkpt>
      <trkpt lat="50.920059001073241" lon="8.84937297552824">
        <ele>243.83000000000001</ele>
        <time>2019-05-09T11:45:59Z</time>
      </trkpt>
      <trkpt lat="50.920037962496281" lon="8.849534997716546">
        <ele>243.83000000000001</ele>
        <time>2019-05-09T11:46:00Z</time>
      </trkpt>
      <trkpt lat="50.920005021616817" lon="8.849701965227723">
        <ele>243.83000000000001</ele>
        <time>2019-05-09T11:46:01Z</time>
      </trkpt>
      <trkpt lat="50.919968979433179" lon="8.849879996851087">
        <ele>243.83000000000001</ele>
        <time>2019-05-09T11:46:02Z</time>
      </trkpt>
      <trkpt lat="50.919932015240192" lon="8.850065991282463">
        <ele>243.83000000000001</ele>
        <time>2019-05-09T11:46:03Z</time>
      </trkpt>
      <trkpt lat="50.91986496001482" lon="8.850461030378938">
        <ele>244.31</ele>
        <time>2019-05-09T11:46:05Z</time>
      </trkpt>
      <trkpt lat="50.919835958629847" lon="8.850670997053385">
        <ele>244.78999999999999</ele>
        <time>2019-05-09T11:46:06Z</time>
      </trkpt>
      <trkpt lat="50.91973596252501" lon="8.851582026109099">
        <ele>246.72</ele>
        <time>2019-05-09T11:46:10Z</time>
      </trkpt>
      <trkpt lat="50.919619034975767" lon="8.852069014683366">
        <ele>247.19999999999999</ele>
        <time>2019-05-09T11:46:12Z</time>
      </trkpt>
      <trkpt lat="50.919535970315337" lon="8.852331032976508">
        <ele>247.68000000000001</ele>
        <time>2019-05-09T11:46:13Z</time>
      </trkpt>
      <trkpt lat="50.919011011719704" lon="8.853805996477604">
        <ele>249.12</ele>
        <time>2019-05-09T11:46:19Z</time>
      </trkpt>
      <trkpt lat="50.918928030878305" lon="8.8539719581604">
        <ele>249.59999999999999</ele>
        <time>2019-05-09T11:46:20Z</time>
      </trkpt>
      <trkpt lat="50.918823005631566" lon="8.854100033640862">
        <ele>250.08000000000001</ele>
        <time>2019-05-09T11:46:21Z</time>
      </trkpt>
      <trkpt lat="50.91872300952673" lon="8.854216039180756">
        <ele>251.03999999999999</ele>
        <time>2019-05-09T11:46:22Z</time>
      </trkpt>
      <trkpt lat="50.918599963188171" lon="8.854304971173406">
        <ele>251.52000000000001</ele>
        <time>2019-05-09T11:46:23Z</time>
      </trkpt>
      <trkpt lat="50.918326964601874" lon="8.854501023888588">
        <ele>252.96000000000001</ele>
        <time>2019-05-09T11:46:25Z</time>
      </trkpt>
      <trkpt lat="50.918176006525755" lon="8.854619963094592">
        <ele>253.44</ele>
        <time>2019-05-09T11:46:26Z</time>
      </trkpt>
      <trkpt lat="50.916994996368885" lon="8.855981016531587">
        <ele>257.76999999999998</ele>
        <time>2019-05-09T11:46:33Z</time>
      </trkpt>
      <trkpt lat="50.91507202014327" lon="8.858489971607924">
        <ele>264.98000000000002</ele>
        <time>2019-05-09T11:46:44Z</time>
      </trkpt>
      <trkpt lat="50.91496498323977" lon="8.858712008222938">
        <ele>264.98000000000002</ele>
        <time>2019-05-09T11:46:45Z</time>
      </trkpt>
      <trkpt lat="50.914857024326921" lon="8.858935972675681">
        <ele>264.5</ele>
        <time>2019-05-09T11:46:46Z</time>
      </trkpt>
      <trkpt lat="50.914239026606083" lon="8.86088996194303">
        <ele>264.98000000000002</ele>
        <time>2019-05-09T11:46:52Z</time>
      </trkpt>
      <trkpt lat="50.912736989557743" lon="8.865600004792213">
        <ele>275.06999999999999</ele>
        <time>2019-05-09T11:47:05Z</time>
      </trkpt>
      <trkpt lat="50.911667039617896" lon="8.868738021701574">
        <ele>275.56</ele>
        <time>2019-05-09T11:47:14Z</time>
      </trkpt>
      <trkpt lat="50.910742012783885" lon="8.870519008487463">
        <ele>275.06999999999999</ele>
        <time>2019-05-09T11:47:20Z</time>
      </trkpt>
      <trkpt lat="50.909556979313493" lon="8.872625967487693">
        <ele>275.56</ele>
        <time>2019-05-09T11:47:28Z</time>
      </trkpt>
      <trkpt lat="50.908359037712216" lon="8.874220037832856">
        <ele>275.06999999999999</ele>
        <time>2019-05-09T11:47:35Z</time>
      </trkpt>
      <trkpt lat="50.906168008223176" lon="8.876821026206017">
        <ele>277.48000000000002</ele>
        <time>2019-05-09T11:47:46Z</time>
      </trkpt>
      <trkpt lat="50.905637014657259" lon="8.877518987283111">
        <ele>280.36000000000001</ele>
        <time>2019-05-09T11:47:50Z</time>
      </trkpt>
      <trkpt lat="50.905551016330719" lon="8.877682015299797">
        <ele>280.83999999999997</ele>
        <time>2019-05-09T11:47:51Z</time>
      </trkpt>
      <trkpt lat="50.90548899024725" lon="8.877824004739523">
        <ele>281.80000000000001</ele>
        <time>2019-05-09T11:47:52Z</time>
      </trkpt>
      <trkpt lat="50.905315987765789" lon="8.878293978050351">
        <ele>284.20999999999998</ele>
        <time>2019-05-09T11:47:56Z</time>
      </trkpt>
      <trkpt lat="50.9052739944309" lon="8.878399003297091">
        <ele>285.17000000000002</ele>
        <time>2019-05-09T11:47:57Z</time>
      </trkpt>
      <trkpt lat="50.905219009146094" lon="8.87846396304667">
        <ele>285.64999999999998</ele>
        <time>2019-05-09T11:47:58Z</time>
      </trkpt>
      <trkpt lat="50.905170980840921" lon="8.878520037978888">
        <ele>286.13</ele>
        <time>2019-05-09T11:47:59Z</time>
      </trkpt>
      <trkpt lat="50.905127981677651" lon="8.878570999950171">
        <ele>287.08999999999997</ele>
        <time>2019-05-09T11:48:00Z</time>
      </trkpt>
      <trkpt lat="50.904988003894687" lon="8.878551973029971">
        <ele>287.56999999999999</ele>
        <time>2019-05-09T11:48:01Z</time>
      </trkpt>
      <trkpt lat="50.90495003387332" lon="8.878473015502095">
        <ele>288.05000000000001</ele>
        <time>2019-05-09T11:48:02Z</time>
      </trkpt>
      <trkpt lat="50.904895970597863" lon="8.878360027447343">
        <ele>288.52999999999997</ele>
        <time>2019-05-09T11:48:03Z</time>
      </trkpt>
      <trkpt lat="50.904827993363142" lon="8.878218038007617">
        <ele>289.00999999999999</ele>
        <time>2019-05-09T11:48:04Z</time>
      </trkpt>
      <trkpt lat="50.904175965115428" lon="8.876938037574291">
        <ele>289.00999999999999</ele>
        <time>2019-05-09T11:48:10Z</time>
      </trkpt>
      <trkpt lat="50.903099980205297" lon="8.87483200058341">
        <ele>284.69</ele>
        <time>2019-05-09T11:48:17Z</time>
      </trkpt>
      <trkpt lat="50.901487972587347" lon="8.871680991724134">
        <ele>279.39999999999998</ele>
        <time>2019-05-09T11:48:26Z</time>
      </trkpt>
      <trkpt lat="50.900285001844168" lon="8.86991199105978">
        <ele>274.58999999999997</ele>
        <time>2019-05-09T11:48:32Z</time>
      </trkpt>
      <trkpt lat="50.898589007556438" lon="8.868323033675551">
        <ele>266.89999999999998</ele>
        <time>2019-05-09T11:48:39Z</time>
      </trkpt>
      <trkpt lat="50.897240024060011" lon="8.866952005773783">
        <ele>260.17000000000002</ele>
        <time>2019-05-09T11:48:45Z</time>
      </trkpt>
      <trkpt lat="50.897053023800254" lon="8.866684958338738">
        <ele>259.20999999999998</ele>
        <time>2019-05-09T11:48:46Z</time>
      </trkpt>
      <trkpt lat="50.896875998005271" lon="8.866397961974144">
        <ele>258.25</ele>
        <time>2019-05-09T11:48:47Z</time>
      </trkpt>
      <trkpt lat="50.896724034100771" lon="8.866078024730086">
        <ele>257.29000000000002</ele>
        <time>2019-05-09T11:48:48Z</time>
      </trkpt>
      <trkpt lat="50.895661963149905" lon="8.86318501085043">
        <ele>252.47999999999999</ele>
        <time>2019-05-09T11:48:56Z</time>
      </trkpt>
      <trkpt lat="50.895256027579308" lon="8.861982962116599">
        <ele>251.03999999999999</ele>
        <time>2019-05-09T11:49:00Z</time>
      </trkpt>
      <trkpt lat="50.894998032599688" lon="8.861492034047842">
        <ele>250.08000000000001</ele>
        <time>2019-05-09T11:49:02Z</time>
      </trkpt>
      <trkpt lat="50.894856965169311" lon="8.861269997432828">
        <ele>249.59999999999999</ele>
        <time>2019-05-09T11:49:03Z</time>
      </trkpt>
      <trkpt lat="50.894695026800036" lon="8.861060030758381">
        <ele>249.12</ele>
        <time>2019-05-09T11:49:04Z</time>
      </trkpt>
      <trkpt lat="50.894176019355655" lon="8.860497018322349">
        <ele>248.16</ele>
        <time>2019-05-09T11:49:07Z</time>
      </trkpt>
      <trkpt lat="50.894044004380703" lon="8.860259978100658">
        <ele>248.16</ele>
        <time>2019-05-09T11:49:08Z</time>
      </trkpt>
      <trkpt lat="50.893914001062512" lon="8.860024027526379">
        <ele>247.68000000000001</ele>
        <time>2019-05-09T11:49:09Z</time>
      </trkpt>
      <trkpt lat="50.893820961937308" lon="8.859741976484656">
        <ele>247.68000000000001</ele>
        <time>2019-05-09T11:49:10Z</time>
      </trkpt>
      <trkpt lat="50.893749967217445" lon="8.859434025362134">
        <ele>247.68000000000001</ele>
        <time>2019-05-09T11:49:11Z</time>
      </trkpt>
      <trkpt lat="50.893680984154344" lon="8.859114004299045">
        <ele>247.68000000000001</ele>
        <time>2019-05-09T11:49:12Z</time>
      </trkpt>
      <trkpt lat="50.89309299364686" lon="8.857158003374934">
        <ele>246.22999999999999</ele>
        <time>2019-05-09T11:49:18Z</time>
      </trkpt>
      <trkpt lat="50.892942035570741" lon="8.856863966211677">
        <ele>245.75</ele>
        <time>2019-05-09T11:49:19Z</time>
      </trkpt>
      <trkpt lat="50.892770038917661" lon="8.856618041172624">
        <ele>244.78999999999999</ele>
        <time>2019-05-09T11:49:20Z</time>
      </trkpt>
      <trkpt lat="50.892585972324014" lon="8.856408996507525">
        <ele>244.31</ele>
        <time>2019-05-09T11:49:21Z</time>
      </trkpt>
      <trkpt lat="50.892415987327695" lon="8.856215961277485">
        <ele>243.83000000000001</ele>
        <time>2019-05-09T11:49:22Z</time>
      </trkpt>
      <trkpt lat="50.8916300162673" lon="8.855255981907249">
        <ele>241.43000000000001</ele>
        <time>2019-05-09T11:49:28Z</time>
      </trkpt>
      <trkpt lat="50.89141502045095" lon="8.854917017742991">
        <ele>241.43000000000001</ele>
        <time>2019-05-09T11:49:30Z</time>
      </trkpt>
      <trkpt lat="50.891133975237608" lon="8.854265995323658">
        <ele>241.43000000000001</ele>
        <time>2019-05-09T11:49:33Z</time>
      </trkpt>
      <trkpt lat="50.890959966927767" lon="8.853523023426533">
        <ele>240.94999999999999</ele>
        <time>2019-05-09T11:49:36Z</time>
      </trkpt>
      <trkpt lat="50.890903975814581" lon="8.853284977376461">
        <ele>240.47</ele>
        <time>2019-05-09T11:49:37Z</time>
      </trkpt>
      <trkpt lat="50.890860976651311" lon="8.853066964074969">
        <ele>239.99000000000001</ele>
        <time>2019-05-09T11:49:38Z</time>
      </trkpt>
      <trkpt lat="50.890498962253332" lon="8.851222023367882">
        <ele>239.02000000000001</ele>
        <time>2019-05-09T11:49:46Z</time>
      </trkpt>
      <trkpt lat="50.890453029423952" lon="8.850990012288094">
        <ele>239.02000000000001</ele>
        <time>2019-05-09T11:49:47Z</time>
      </trkpt>
      <trkpt lat="50.890311039984226" lon="8.850511992350221">
        <ele>238.53999999999999</ele>
        <time>2019-05-09T11:49:49Z</time>
      </trkpt>
      <trkpt lat="50.890224035829306" lon="8.850247962400317">
        <ele>238.06</ele>
        <time>2019-05-09T11:49:50Z</time>
      </trkpt>
      <trkpt lat="50.88937402702868" lon="8.847814025357366">
        <ele>234.22</ele>
        <time>2019-05-09T11:49:58Z</time>
      </trkpt>
      <trkpt lat="50.889060962945223" lon="8.847138024866581">
        <ele>233.74000000000001</ele>
        <time>2019-05-09T11:50:01Z</time>
      </trkpt>
      <trkpt lat="50.888928025960922" lon="8.846978014335036">
        <ele>233.25999999999999</ele>
        <time>2019-05-09T11:50:02Z</time>
      </trkpt>
      <trkpt lat="50.88879500515759" lon="8.846818003803492">
        <ele>233.25999999999999</ele>
        <time>2019-05-09T11:50:03Z</time>
      </trkpt>
      <trkpt lat="50.887578036636114" lon="8.845329964533448">
        <ele>232.78</ele>
        <time>2019-05-09T11:50:12Z</time>
      </trkpt>
      <trkpt lat="50.887353988364339" lon="8.844914976507425">
        <ele>231.33000000000001</ele>
        <time>2019-05-09T11:50:14Z</time>
      </trkpt>
      <trkpt lat="50.88703396730125" lon="8.844292033463717">
        <ele>230.37</ele>
        <time>2019-05-09T11:50:17Z</time>
      </trkpt>
      <trkpt lat="50.886936988681555" lon="8.844067985191941">
        <ele>229.88999999999999</ele>
        <time>2019-05-09T11:50:18Z</time>
      </trkpt>
      <trkpt lat="50.885901991277933" lon="8.84193797595799">
        <ele>227.97</ele>
        <time>2019-05-09T11:50:28Z</time>
      </trkpt>
      <trkpt lat="50.885046031326056" lon="8.84069200605154">
        <ele>221.24000000000001</ele>
        <time>2019-05-09T11:50:34Z</time>
      </trkpt>
      <trkpt lat="50.883700987324119" lon="8.83907999843359">
        <ele>214.03</ele>
        <time>2019-05-09T11:50:41Z</time>
      </trkpt>
      <trkpt lat="50.883552962914109" lon="8.838857961818576">
        <ele>213.55000000000001</ele>
        <time>2019-05-09T11:50:42Z</time>
      </trkpt>
      <trkpt lat="50.883431006222963" lon="8.838612958788872">
        <ele>213.06999999999999</ele>
        <time>2019-05-09T11:50:43Z</time>
      </trkpt>
      <trkpt lat="50.883221961557865" lon="8.838114989921451">
        <ele>212.59</ele>
        <time>2019-05-09T11:50:45Z</time>
      </trkpt>
      <trkpt lat="50.883154990151525" lon="8.837845008820295">
        <ele>212.11000000000001</ele>
        <time>2019-05-09T11:50:46Z</time>
      </trkpt>
      <trkpt lat="50.883091958239675" lon="8.837592964991927">
        <ele>212.11000000000001</ele>
        <time>2019-05-09T11:50:47Z</time>
      </trkpt>
      <trkpt lat="50.882771015167236" lon="8.836174998432398">
        <ele>211.15000000000001</ele>
        <time>2019-05-09T11:50:54Z</time>
      </trkpt>
      <trkpt lat="50.882606981322169" lon="8.83545096963644">
        <ele>210.19</ele>
        <time>2019-05-09T11:50:58Z</time>
      </trkpt>
      <trkpt lat="50.882576974108815" lon="8.835266986861825">
        <ele>210.19</ele>
        <time>2019-05-09T11:50:59Z</time>
      </trkpt>
      <trkpt lat="50.882281009107828" lon="8.833733014762402">
        <ele>209.22</ele>
        <time>2019-05-09T11:51:08Z</time>
      </trkpt>
      <trkpt lat="50.882219988852739" lon="8.833436965942383">
        <ele>208.74000000000001</ele>
        <time>2019-05-09T11:51:12Z</time>
      </trkpt>
      <trkpt lat="50.882200039923191" lon="8.833338981494308">
        <ele>208.25999999999999</ele>
        <time>2019-05-09T11:51:13Z</time>
      </trkpt>
      <trkpt lat="50.88217799551785" lon="8.833228005096316">
        <ele>208.25999999999999</ele>
        <time>2019-05-09T11:51:14Z</time>
      </trkpt>
      <trkpt lat="50.882008010521531" lon="8.832369027659297">
        <ele>209.22</ele>
        <time>2019-05-09T11:51:20Z</time>
      </trkpt>
      <trkpt lat="50.881975991651416" lon="8.832197031006217">
        <ele>209.22</ele>
        <time>2019-05-09T11:51:21Z</time>
      </trkpt>
      <trkpt lat="50.881943972781301" lon="8.832026962190867">
        <ele>209.22</ele>
        <time>2019-05-09T11:51:22Z</time>
      </trkpt>
      <trkpt lat="50.881902985274792" lon="8.831863012164831">
        <ele>209.22</ele>
        <time>2019-05-09T11:51:23Z</time>
      </trkpt>
      <trkpt lat="50.881858980283141" lon="8.831701995804906">
        <ele>209.22</ele>
        <time>2019-05-09T11:51:24Z</time>
      </trkpt>
      <trkpt lat="50.881814975291491" lon="8.8315399736166">
        <ele>209.22</ele>
        <time>2019-05-09T11:51:25Z</time>
      </trkpt>
      <trkpt lat="50.881752027198672" lon="8.831393038854003">
        <ele>209.22</ele>
        <time>2019-05-09T11:51:26Z</time>
      </trkpt>
      <trkpt lat="50.88168203830719" lon="8.831245014443994">
        <ele>209.22</ele>
        <time>2019-05-09T11:51:27Z</time>
      </trkpt>
      <trkpt lat="50.881608026102185" lon="8.831091038882732">
        <ele>209.22</ele>
        <time>2019-05-09T11:51:28Z</time>
      </trkpt>
      <trkpt lat="50.881317006424069" lon="8.830675967037678">
        <ele>209.69999999999999</ele>
        <time>2019-05-09T11:51:31Z</time>
      </trkpt>
      <trkpt lat="50.880230963230133" lon="8.829805003479123">
        <ele>211.15000000000001</ele>
        <time>2019-05-09T11:51:38Z</time>
      </trkpt>
      <trkpt lat="50.878706965595484" lon="8.829078041017056">
        <ele>210.66999999999999</ele>
        <time>2019-05-09T11:51:45Z</time>
      </trkpt>
      <trkpt lat="50.876237992197275" lon="8.828290980309248">
        <ele>209.22</ele>
        <time>2019-05-09T11:51:55Z</time>
      </trkpt>
      <trkpt lat="50.875375997275114" lon="8.827889990061522">
        <ele>207.78</ele>
        <time>2019-05-09T11:51:59Z</time>
      </trkpt>
      <trkpt lat="50.875185979530215" lon="8.827688992023468">
        <ele>207.30000000000001</ele>
        <time>2019-05-09T11:52:00Z</time>
      </trkpt>
      <trkpt lat="50.874999985098839" lon="8.827463015913963">
        <ele>207.30000000000001</ele>
        <time>2019-05-09T11:52:01Z</time>
      </trkpt>
      <trkpt lat="50.874822959303856" lon="8.827203009277582">
        <ele>206.81999999999999</ele>
        <time>2019-05-09T11:52:02Z</time>
      </trkpt>
      <trkpt lat="50.874654985964298" lon="8.82691802456975">
        <ele>206.34</ele>
        <time>2019-05-09T11:52:03Z</time>
      </trkpt>
      <trkpt lat="50.873577995225787" lon="8.825190011411905">
        <ele>203.94</ele>
        <time>2019-05-09T11:52:09Z</time>
      </trkpt>
      <trkpt lat="50.87338998913765" lon="8.824978033080697">
        <ele>203.94</ele>
        <time>2019-05-09T11:52:10Z</time>
      </trkpt>
      <trkpt lat="50.873189996927977" lon="8.82479396648705">
        <ele>203.46000000000001</ele>
        <time>2019-05-09T11:52:11Z</time>
      </trkpt>
      <trkpt lat="50.872977012768388" lon="8.824688019230962">
        <ele>203.94</ele>
        <time>2019-05-09T11:52:12Z</time>
      </trkpt>
      <trkpt lat="50.87276503443718" lon="8.824581988155842">
        <ele>203.46000000000001</ele>
        <time>2019-05-09T11:52:13Z</time>
      </trkpt>
      <trkpt lat="50.872542997822165" lon="8.824519962072372">
        <ele>203.46000000000001</ele>
        <time>2019-05-09T11:52:14Z</time>
      </trkpt>
      <trkpt lat="50.872308975085616" lon="8.824472017586231">
        <ele>203.46000000000001</ele>
        <time>2019-05-09T11:52:15Z</time>
      </trkpt>
      <trkpt lat="50.87057501077652" lon="8.823729967698455">
        <ele>201.53</ele>
        <time>2019-05-09T11:52:22Z</time>
      </trkpt>
      <trkpt lat="50.869228038936853" lon="8.82240897975862">
        <ele>200.56999999999999</ele>
        <time>2019-05-09T11:52:28Z</time>
      </trkpt>
      <trkpt lat="50.869014970958233" lon="8.82223698310554">
        <ele>200.56999999999999</ele>
        <time>2019-05-09T11:52:29Z</time>
      </trkpt>
      <trkpt lat="50.868787989020348" lon="8.822078984230757">
        <ele>200.56999999999999</ele>
        <time>2019-05-09T11:52:30Z</time>
      </trkpt>
      <trkpt lat="50.866997027769685" lon="8.820934016257525">
        <ele>200.56999999999999</ele>
        <time>2019-05-09T11:52:37Z</time>
      </trkpt>
      <trkpt lat="50.864415988326073" lon="8.819353021681309">
        <ele>197.69</ele>
        <time>2019-05-09T11:52:47Z</time>
      </trkpt>
      <trkpt lat="50.8636340405792" lon="8.818738963454962">
        <ele>197.21000000000001</ele>
        <time>2019-05-09T11:52:51Z</time>
      </trkpt>
      <trkpt lat="50.86348601616919" lon="8.818549029529095">
        <ele>197.21000000000001</ele>
        <time>2019-05-09T11:52:52Z</time>
      </trkpt>
      <trkpt lat="50.863350983709097" lon="8.818367980420589">
        <ele>197.21000000000001</ele>
        <time>2019-05-09T11:52:53Z</time>
      </trkpt>
      <trkpt lat="50.863032974302769" lon="8.817838998511434">
        <ele>198.16999999999999</ele>
        <time>2019-05-09T11:52:56Z</time>
      </trkpt>
      <trkpt lat="50.862944964319468" lon="8.817687034606934">
        <ele>198.65000000000001</ele>
        <time>2019-05-09T11:52:57Z</time>
      </trkpt>
      <trkpt lat="50.862766010686755" lon="8.817525012418628">
        <ele>198.65000000000001</ele>
        <time>2019-05-09T11:52:59Z</time>
      </trkpt>
      <trkpt lat="50.862696021795273" lon="8.817341029644013">
        <ele>199.13</ele>
        <time>2019-05-09T11:53:00Z</time>
      </trkpt>
      <trkpt lat="50.862686969339848" lon="8.817257964983583">
        <ele>199.61000000000001</ele>
        <time>2019-05-09T11:53:01Z</time>
      </trkpt>
      <trkpt lat="50.862644976004958" lon="8.81699200719595">
        <ele>199.13</ele>
        <time>2019-05-09T11:53:02Z</time>
      </trkpt>
      <trkpt lat="50.862656040117145" lon="8.816796038299799">
        <ele>199.61000000000001</ele>
        <time>2019-05-09T11:53:03Z</time>
      </trkpt>
      <trkpt lat="50.86266903206706" lon="8.816578024998307">
        <ele>199.13</ele>
        <time>2019-05-09T11:53:04Z</time>
      </trkpt>
      <trkpt lat="50.86269199848175" lon="8.816337967291474">
        <ele>199.13</ele>
        <time>2019-05-09T11:53:05Z</time>
      </trkpt>
      <trkpt lat="50.862716976553202" lon="8.814867027103901">
        <ele>198.65000000000001</ele>
        <time>2019-05-09T11:53:11Z</time>
      </trkpt>
      <trkpt lat="50.862679006531835" lon="8.814065968617797">
        <ele>198.65000000000001</ele>
        <time>2019-05-09T11:53:18Z</time>
      </trkpt>
      <trkpt lat="50.862666014581919" lon="8.813975024968386">
        <ele>198.65000000000001</ele>
        <time>2019-05-09T11:53:19Z</time>
      </trkpt>
      <trkpt lat="50.862689986824989" lon="8.813757011666894">
        <ele>198.16999999999999</ele>
        <time>2019-05-09T11:53:21Z</time>
      </trkpt>
      <trkpt lat="50.862658973783255" lon="8.813677970319986">
        <ele>198.16999999999999</ele>
        <time>2019-05-09T11:53:22Z</time>
      </trkpt>
      <trkpt lat="50.862598037347198" lon="8.813592977821827">
        <ele>197.69</ele>
        <time>2019-05-09T11:53:23Z</time>
      </trkpt>
      <trkpt lat="50.862537017092109" lon="8.813603036105633">
        <ele>197.69</ele>
        <time>2019-05-09T11:53:24Z</time>
      </trkpt>
      <trkpt lat="50.862494017928839" lon="8.813609993085265">
        <ele>197.21000000000001</ele>
        <time>2019-05-09T11:53:25Z</time>
      </trkpt>
      <trkpt lat="50.862391004338861" lon="8.813806967809796">
        <ele>197.21000000000001</ele>
        <time>2019-05-09T11:53:26Z</time>
      </trkpt>
      <trkpt lat="50.862296959385276" lon="8.813817026093602">
        <ele>197.21000000000001</ele>
        <time>2019-05-09T11:53:27Z</time>
      </trkpt>
      <trkpt lat="50.862182965502143" lon="8.813829012215138">
        <ele>197.21000000000001</ele>
        <time>2019-05-09T11:53:28Z</time>
      </trkpt>
      <trkpt lat="50.862048016861081" lon="8.813843009993434">
        <ele>197.21000000000001</ele>
        <time>2019-05-09T11:53:29Z</time>
      </trkpt>
      <trkpt lat="50.861891023814678" lon="8.813828006386757">
        <ele>197.21000000000001</ele>
        <time>2019-05-09T11:53:30Z</time>
      </trkpt>
      <trkpt lat="50.860743960365653" lon="8.813412012532353">
        <ele>196.72999999999999</ele>
        <time>2019-05-09T11:53:36Z</time>
      </trkpt>
      <trkpt lat="50.860548997297883" lon="8.813257031142712">
        <ele>196.72999999999999</ele>
        <time>2019-05-09T11:53:37Z</time>
      </trkpt>
      <trkpt lat="50.860355962067842" lon="8.813081011176109">
        <ele>196.72999999999999</ele>
        <time>2019-05-09T11:53:38Z</time>
      </trkpt>
      <trkpt lat="50.860180025920272" lon="8.812862997874618">
        <ele>196.72999999999999</ele>
        <time>2019-05-09T11:53:39Z</time>
      </trkpt>
      <trkpt lat="50.86000501178205" lon="8.812644984573126">
        <ele>196.72999999999999</ele>
        <time>2019-05-09T11:53:40Z</time>
      </trkpt>
      <trkpt lat="50.859846007078886" lon="8.812368968501687">
        <ele>196.72999999999999</ele>
        <time>2019-05-09T11:53:41Z</time>
      </trkpt>
      <trkpt lat="50.859689014032483" lon="8.812096975743771">
        <ele>196.25</ele>
        <time>2019-05-09T11:53:42Z</time>
      </trkpt>
      <trkpt lat="50.859539983794093" lon="8.811807967722416">
        <ele>196.25</ele>
        <time>2019-05-09T11:53:43Z</time>
      </trkpt>
      <trkpt lat="50.858573969453573" lon="8.810086995363236">
        <ele>199.61000000000001</ele>
        <time>2019-05-09T11:53:50Z</time>
      </trkpt>
      <trkpt lat="50.858159987255931" lon="8.809576034545898">
        <ele>200.56999999999999</ele>
        <time>2019-05-09T11:53:54Z</time>
      </trkpt>
      <trkpt lat="50.858141966164112" lon="8.809393979609013">
        <ele>201.05000000000001</ele>
        <time>2019-05-09T11:53:55Z</time>
      </trkpt>
      <trkpt lat="50.858130985870957" lon="8.809271017089486">
        <ele>201.05000000000001</ele>
        <time>2019-05-09T11:53:56Z</time>
      </trkpt>
      <trkpt lat="50.858132997527719" lon="8.80908602848649">
        <ele>201.53</ele>
        <time>2019-05-09T11:53:57Z</time>
      </trkpt>
      <trkpt lat="50.858192006126046" lon="8.808943033218384">
        <ele>202.00999999999999</ele>
        <time>2019-05-09T11:53:59Z</time>
      </trkpt>
      <trkpt lat="50.85845704190433" lon="8.808239959180355">
        <ele>202.00999999999999</ele>
        <time>2019-05-09T11:54:02Z</time>
      </trkpt>
      <trkpt lat="50.858488976955414" lon="8.808048013597727">
        <ele>201.53</ele>
        <time>2019-05-09T11:54:03Z</time>
      </trkpt>
      <trkpt lat="50.858498029410839" lon="8.807871993631125">
        <ele>201.05000000000001</ele>
        <time>2019-05-09T11:54:04Z</time>
      </trkpt>
      <trkpt lat="50.858488976955414" lon="8.807693039998412">
        <ele>200.56999999999999</ele>
        <time>2019-05-09T11:54:05Z</time>
      </trkpt>
      <trkpt lat="50.858468022197485" lon="8.807536968961358">
        <ele>199.61000000000001</ele>
        <time>2019-05-09T11:54:06Z</time>
      </trkpt>
      <trkpt lat="50.85839400999248" lon="8.807408977299929">
        <ele>199.13</ele>
        <time>2019-05-09T11:54:07Z</time>
      </trkpt>
      <trkpt lat="50.858313040807843" lon="8.807275034487248">
        <ele>198.16999999999999</ele>
        <time>2019-05-09T11:54:08Z</time>
      </trkpt>
      <trkpt lat="50.8582220133394" lon="8.807144025340676">
        <ele>197.69</ele>
        <time>2019-05-09T11:54:09Z</time>
      </trkpt>
      <trkpt lat="50.858125034719706" lon="8.807004969567061">
        <ele>197.21000000000001</ele>
        <time>2019-05-09T11:54:10Z</time>
      </trkpt>
      <trkpt lat="50.858027972280979" lon="8.806865997612476">
        <ele>196.25</ele>
        <time>2019-05-09T11:54:11Z</time>
      </trkpt>
      <trkpt lat="50.857972986996174" lon="8.806719984859228">
        <ele>195.77000000000001</ele>
        <time>2019-05-09T11:54:12Z</time>
      </trkpt>
      <trkpt lat="50.857938034459949" lon="8.806519992649555">
        <ele>195.28</ele>
        <time>2019-05-09T11:54:13Z</time>
      </trkpt>
      <trkpt lat="50.85790098644793" lon="8.806306002661586">
        <ele>194.80000000000001</ele>
        <time>2019-05-09T11:54:14Z</time>
      </trkpt>
      <trkpt lat="50.857881037518382" lon="8.806053958833218">
        <ele>194.80000000000001</ele>
        <time>2019-05-09T11:54:15Z</time>
      </trkpt>
      <trkpt lat="50.857844995334744" lon="8.804107010364533">
        <ele>196.72999999999999</ele>
        <time>2019-05-09T11:54:21Z</time>
      </trkpt>
      <trkpt lat="50.857343003153801" lon="8.801418012008071">
        <ele>200.56999999999999</ele>
        <time>2019-05-09T11:54:28Z</time>
      </trkpt>
      <trkpt lat="50.856644036248326" lon="8.799475003033876">
        <ele>203.46000000000001</ele>
        <time>2019-05-09T11:54:34Z</time>
      </trkpt>
      <trkpt lat="50.854951981455088" lon="8.79701198078692">
        <ele>205.86000000000001</ele>
        <time>2019-05-09T11:54:41Z</time>
      </trkpt>
      <trkpt lat="50.853352965787053" lon="8.79583097063005">
        <ele>205.86000000000001</ele>
        <time>2019-05-09T11:54:47Z</time>
      </trkpt>
      <trkpt lat="50.850348975509405" lon="8.794100023806095">
        <ele>204.90000000000001</ele>
        <time>2019-05-09T11:54:57Z</time>
      </trkpt>
      <trkpt lat="50.847843959927559" lon="8.792289029806852">
        <ele>202.00999999999999</ele>
        <time>2019-05-09T11:55:05Z</time>
      </trkpt>
      <trkpt lat="50.845013977959752" lon="8.789536999538541">
        <ele>197.21000000000001</ele>
        <time>2019-05-09T11:55:15Z</time>
      </trkpt>
      <trkpt lat="50.843601962551475" lon="8.78732300363481">
        <ele>196.25</ele>
        <time>2019-05-09T11:55:21Z</time>
      </trkpt>
      <trkpt lat="50.842615999281406" lon="8.784616990014911">
        <ele>196.72999999999999</ele>
        <time>2019-05-09T11:55:27Z</time>
      </trkpt>
      <trkpt lat="50.842395974323153" lon="8.783642007037997">
        <ele>197.69</ele>
        <time>2019-05-09T11:55:30Z</time>
      </trkpt>
      <trkpt lat="50.842066984623671" lon="8.780122026801109">
        <ele>201.53</ele>
        <time>2019-05-09T11:55:36Z</time>
      </trkpt>
      <trkpt lat="50.841696001589298" lon="8.776699025183916">
        <ele>207.78</ele>
        <time>2019-05-09T11:55:44Z</time>
      </trkpt>
      <trkpt lat="50.840944983065128" lon="8.774025030434132">
        <ele>209.69999999999999</ele>
        <time>2019-05-09T11:55:51Z</time>
      </trkpt>
      <trkpt lat="50.839791968464851" lon="8.77170299179852">
        <ele>208.74000000000001</ele>
        <time>2019-05-09T11:55:58Z</time>
      </trkpt>
      <trkpt lat="50.838278029114008" lon="8.769946983084083">
        <ele>204.90000000000001</ele>
        <time>2019-05-09T11:56:05Z</time>
      </trkpt>
      <trkpt lat="50.836447002366185" lon="8.768647033721209">
        <ele>199.61000000000001</ele>
        <time>2019-05-09T11:56:12Z</time>
      </trkpt>
      <trkpt lat="50.833888007327914" lon="8.767411960288882">
        <ele>192.88</ele>
        <time>2019-05-09T11:56:21Z</time>
      </trkpt>
      <trkpt lat="50.831233961507678" lon="8.766841990873218">
        <ele>188.08000000000001</ele>
        <time>2019-05-09T11:56:30Z</time>
      </trkpt>
      <trkpt lat="50.828562984243035" lon="8.766852971166372">
        <ele>186.15000000000001</ele>
        <time>2019-05-09T11:56:39Z</time>
      </trkpt>
      <trkpt lat="50.825610961765051" lon="8.7676199991256">
        <ele>186.15000000000001</ele>
        <time>2019-05-09T11:56:49Z</time>
      </trkpt>
      <trkpt lat="50.823485981673002" lon="8.768779970705509">
        <ele>186.15000000000001</ele>
        <time>2019-05-09T11:56:57Z</time>
      </trkpt>
      <trkpt lat="50.821669036522508" lon="8.770099030807614">
        <ele>189.52000000000001</ele>
        <time>2019-05-09T11:57:06Z</time>
      </trkpt>
      <trkpt lat="50.817835992202163" lon="8.773423964157701">
        <ele>198.65000000000001</ele>
        <time>2019-05-09T11:57:22Z</time>
      </trkpt>
      <trkpt lat="50.815652003511786" lon="8.776342961937189">
        <ele>192.88</ele>
        <time>2019-05-09T11:57:33Z</time>
      </trkpt>
      <trkpt lat="50.81441399641335" lon="8.77780300565064">
        <ele>189.52000000000001</ele>
        <time>2019-05-09T11:57:39Z</time>
      </trkpt>
      <trkpt lat="50.812992006540298" lon="8.778639016672969">
        <ele>188.08000000000001</ele>
        <time>2019-05-09T11:57:45Z</time>
      </trkpt>
      <trkpt lat="50.811545038595796" lon="8.778959037736058">
        <ele>184.22999999999999</ele>
        <time>2019-05-09T11:57:51Z</time>
      </trkpt>
      <trkpt lat="50.809792969375849" lon="8.778901034966111">
        <ele>178.94</ele>
        <time>2019-05-09T11:57:59Z</time>
      </trkpt>
      <trkpt lat="50.806715972721577" lon="8.778327964246273">
        <ele>165</ele>
        <time>2019-05-09T11:58:10Z</time>
      </trkpt>
      <trkpt lat="50.80468101426959" lon="8.777377959340811">
        <ele>164.52000000000001</ele>
        <time>2019-05-09T11:58:18Z</time>
      </trkpt>
      <trkpt lat="50.802584029734135" lon="8.775703003630042">
        <ele>166.44999999999999</ele>
        <time>2019-05-09T11:58:27Z</time>
      </trkpt>
      <trkpt lat="50.801433026790619" lon="8.774072974920273">
        <ele>167.88999999999999</ele>
        <time>2019-05-09T11:58:33Z</time>
      </trkpt>
      <trkpt lat="50.800461983308196" lon="8.771671978756785">
        <ele>169.81</ele>
        <time>2019-05-09T11:58:40Z</time>
      </trkpt>
      <trkpt lat="50.79885701648891" lon="8.767480021342635">
        <ele>172.21000000000001</ele>
        <time>2019-05-09T11:58:52Z</time>
      </trkpt>
      <trkpt lat="50.797469979152083" lon="8.765012975782156">
        <ele>175.58000000000001</ele>
        <time>2019-05-09T11:59:00Z</time>
      </trkpt>
      <trkpt lat="50.795825030654669" lon="8.762969970703125">
        <ele>173.66</ele>
        <time>2019-05-09T11:59:08Z</time>
      </trkpt>
      <trkpt lat="50.793770961463451" lon="8.761165011674166">
        <ele>178.46000000000001</ele>
        <time>2019-05-09T11:59:17Z</time>
      </trkpt>
      <trkpt lat="50.791806997731328" lon="8.759966986253858">
        <ele>184.71000000000001</ele>
        <time>2019-05-09T11:59:25Z</time>
      </trkpt>
      <trkpt lat="50.789768015965819" lon="8.759185960516334">
        <ele>192.88</ele>
        <time>2019-05-09T11:59:33Z</time>
      </trkpt>
      <trkpt lat="50.787753006443381" lon="8.758752029389143">
        <ele>200.09</ele>
        <time>2019-05-09T11:59:41Z</time>
      </trkpt>
      <trkpt lat="50.785102983936667" lon="8.758404012769461">
        <ele>206.81999999999999</ele>
        <time>2019-05-09T11:59:51Z</time>
      </trkpt>
      <trkpt lat="50.783052016049623" lon="8.758529992774129">
        <ele>209.22</ele>
        <time>2019-05-09T11:59:58Z</time>
      </trkpt>
      <trkpt lat="50.781349986791611" lon="8.759060986340046">
        <ele>211.15000000000001</ele>
        <time>2019-05-09T12:00:05Z</time>
      </trkpt>
      <trkpt lat="50.779753988608718" lon="8.759759031236172">
        <ele>213.55000000000001</ele>
        <time>2019-05-09T12:00:11Z</time>
      </trkpt>
      <trkpt lat="50.777808967977762" lon="8.760071005672216">
        <ele>214.03</ele>
        <time>2019-05-09T12:00:17Z</time>
      </trkpt>
      <trkpt lat="50.776037033647299" lon="8.759585022926331">
        <ele>212.11000000000001</ele>
        <time>2019-05-09T12:00:22Z</time>
      </trkpt>
      <trkpt lat="50.774452015757561" lon="8.758374005556107">
        <ele>207.78</ele>
        <time>2019-05-09T12:00:27Z</time>
      </trkpt>
      <trkpt lat="50.772491991519928" lon="8.755933027714491">
        <ele>201.05000000000001</ele>
        <time>2019-05-09T12:00:34Z</time>
      </trkpt>
      <trkpt lat="50.769394040107727" lon="8.751749033108354">
        <ele>193.36000000000001</ele>
        <time>2019-05-09T12:00:45Z</time>
      </trkpt>
      <trkpt lat="50.766663970425725" lon="8.748258976265788">
        <ele>189.52000000000001</ele>
        <time>2019-05-09T12:00:55Z</time>
      </trkpt>
      <trkpt lat="50.764895975589752" lon="8.746924996376038">
        <ele>188.56</ele>
        <time>2019-05-09T12:01:01Z</time>
      </trkpt>
      <trkpt lat="50.762900998815894" lon="8.74624103307724">
        <ele>188.08000000000001</ele>
        <time>2019-05-09T12:01:07Z</time>
      </trkpt>
      <trkpt lat="50.759700033813715" lon="8.745157001540065">
        <ele>189.52000000000001</ele>
        <time>2019-05-09T12:01:16Z</time>
      </trkpt>
      <trkpt lat="50.757037019357085" lon="8.743291022256017">
        <ele>187.11000000000001</ele>
        <time>2019-05-09T12:01:24Z</time>
      </trkpt>
      <trkpt lat="50.753616029396653" lon="8.741180039942265">
        <ele>184.71000000000001</ele>
        <time>2019-05-09T12:01:34Z</time>
      </trkpt>
      <trkpt lat="50.751561960205436" lon="8.740481995046139">
        <ele>183.75</ele>
        <time>2019-05-09T12:01:40Z</time>
      </trkpt>
      <trkpt lat="50.748731978237629" lon="8.740216037258506">
        <ele>184.22999999999999</ele>
        <time>2019-05-09T12:01:48Z</time>
      </trkpt>
      <trkpt lat="50.745105966925621" lon="8.740178989246488">
        <ele>186.15000000000001</ele>
        <time>2019-05-09T12:01:58Z</time>
      </trkpt>
      <trkpt lat="50.743050975725055" lon="8.739341972395778">
        <ele>190.47999999999999</ele>
        <time>2019-05-09T12:02:04Z</time>
      </trkpt>
      <trkpt lat="50.740449987351894" lon="8.737911013886333">
        <ele>197.21000000000001</ele>
        <time>2019-05-09T12:02:12Z</time>
      </trkpt>
      <trkpt lat="50.738000040873885" lon="8.737412039190531">
        <ele>195.28</ele>
        <time>2019-05-09T12:02:19Z</time>
      </trkpt>
      <trkpt lat="50.735579011961818" lon="8.736777026206255">
        <ele>186.63</ele>
        <time>2019-05-09T12:02:26Z</time>
      </trkpt>
      <trkpt lat="50.732650961726904" lon="8.735187985002995">
        <ele>180.87</ele>
        <time>2019-05-09T12:02:35Z</time>
      </trkpt>
      <trkpt lat="50.730653973296285" lon="8.734720023348928">
        <ele>178.46000000000001</ele>
        <time>2019-05-09T12:02:41Z</time>
      </trkpt>
      <trkpt lat="50.728612979874015" lon="8.735026968643069">
        <ele>177.97999999999999</ele>
        <time>2019-05-09T12:02:47Z</time>
      </trkpt>
      <trkpt lat="50.725897997617722" lon="8.736011004075408">
        <ele>179.41999999999999</ele>
        <time>2019-05-09T12:02:55Z</time>
      </trkpt>
      <trkpt lat="50.723670003935695" lon="8.736247038468719">
        <ele>188.56</ele>
        <time>2019-05-09T12:03:02Z</time>
      </trkpt>
      <trkpt lat="50.721836965531111" lon="8.735538013279438">
        <ele>199.13</ele>
        <time>2019-05-09T12:03:08Z</time>
      </trkpt>
      <trkpt lat="50.72037398815155" lon="8.734204033389688">
        <ele>206.34</ele>
        <time>2019-05-09T12:03:13Z</time>
      </trkpt>
      <trkpt lat="50.718872034922242" lon="8.731785016134381">
        <ele>213.55000000000001</ele>
        <time>2019-05-09T12:03:19Z</time>
      </trkpt>
      <trkpt lat="50.717132035642862" lon="8.729305984452367">
        <ele>217.88</ele>
        <time>2019-05-09T12:03:26Z</time>
      </trkpt>
      <trkpt lat="50.715433023869991" lon="8.728198986500502">
        <ele>218.36000000000001</ele>
        <time>2019-05-09T12:03:32Z</time>
      </trkpt>
      <trkpt lat="50.713055999949574" lon="8.727451991289854">
        <ele>218.84</ele>
        <time>2019-05-09T12:03:39Z</time>
      </trkpt>
      <trkpt lat="50.70945899002254" lon="8.726629978045821">
        <ele>213.55000000000001</ele>
        <time>2019-05-09T12:03:49Z</time>
      </trkpt>
      <trkpt lat="50.707742962986231" lon="8.72705502435565">
        <ele>210.66999999999999</ele>
        <time>2019-05-09T12:03:54Z</time>
      </trkpt>
      <trkpt lat="50.704405037686229" lon="8.728294959291816">
        <ele>197.21000000000001</ele>
        <time>2019-05-09T12:04:04Z</time>
      </trkpt>
      <trkpt lat="50.700867036357522" lon="8.729598009958863">
        <ele>184.71000000000001</ele>
        <time>2019-05-09T12:04:15Z</time>
      </trkpt>
      <trkpt lat="50.698965014889836" lon="8.730242997407913">
        <ele>183.75</ele>
        <time>2019-05-09T12:04:22Z</time>
      </trkpt>
      <trkpt lat="50.69637400098145" lon="8.73045195825398">
        <ele>188.08000000000001</ele>
        <time>2019-05-09T12:04:31Z</time>
      </trkpt>
      <trkpt lat="50.693965964019299" lon="8.730001011863351">
        <ele>198.16999999999999</ele>
        <time>2019-05-09T12:04:39Z</time>
      </trkpt>
      <trkpt lat="50.691779963672161" lon="8.728975988924503">
        <ele>204.90000000000001</ele>
        <time>2019-05-09T12:04:46Z</time>
      </trkpt>
      <trkpt lat="50.689981961622834" lon="8.727392982691526">
        <ele>209.22</ele>
        <time>2019-05-09T12:04:52Z</time>
      </trkpt>
      <trkpt lat="50.688493000343442" lon="8.725213017314673">
        <ele>208.74000000000001</ele>
        <time>2019-05-09T12:04:58Z</time>
      </trkpt>
      <trkpt lat="50.686725005507469" lon="8.72222101315856">
        <ele>214.03</ele>
        <time>2019-05-09T12:05:06Z</time>
      </trkpt>
      <trkpt lat="50.685068992897868" lon="8.720874963328242">
        <ele>216.91</ele>
        <time>2019-05-09T12:05:12Z</time>
      </trkpt>
      <trkpt lat="50.683209970593452" lon="8.720442038029432">
        <ele>217.40000000000001</ele>
        <time>2019-05-09T12:05:18Z</time>
      </trkpt>
      <trkpt lat="50.680551985278726" lon="8.720499034970999">
        <ele>214.03</ele>
        <time>2019-05-09T12:05:26Z</time>
      </trkpt>
      <trkpt lat="50.678212009370327" lon="8.719933005049825">
        <ele>206.81999999999999</ele>
        <time>2019-05-09T12:05:33Z</time>
      </trkpt>
      <trkpt lat="50.675216987729073" lon="8.719007978215814">
        <ele>203.94</ele>
        <time>2019-05-09T12:05:42Z</time>
      </trkpt>
      <trkpt lat="50.673581007868052" lon="8.719322970137">
        <ele>204.90000000000001</ele>
        <time>2019-05-09T12:05:47Z</time>
      </trkpt>
      <trkpt lat="50.671742018312216" lon="8.720402978360653">
        <ele>204.90000000000001</ele>
        <time>2019-05-09T12:05:53Z</time>
      </trkpt>
      <trkpt lat="50.669628018513322" lon="8.721451973542571">
        <ele>204.41999999999999</ele>
        <time>2019-05-09T12:06:00Z</time>
      </trkpt>
      <trkpt lat="50.667367000132799" lon="8.721472006291151">
        <ele>201.05000000000001</ele>
        <time>2019-05-09T12:06:07Z</time>
      </trkpt>
      <trkpt lat="50.664966003969312" lon="8.720943024381995">
        <ele>196.72999999999999</ele>
        <time>2019-05-09T12:06:14Z</time>
      </trkpt>
      <trkpt lat="50.66156798042357" lon="8.720786031335592">
        <ele>196.25</ele>
        <time>2019-05-09T12:06:24Z</time>
      </trkpt>
      <trkpt lat="50.658547980710864" lon="8.721325993537903">
        <ele>202.00999999999999</ele>
        <time>2019-05-09T12:06:33Z</time>
      </trkpt>
      <trkpt lat="50.656018992885947" lon="8.722312040627003">
        <ele>206.81999999999999</ele>
        <time>2019-05-09T12:06:41Z</time>
      </trkpt>
      <trkpt lat="50.653220023959875" lon="8.723954977467656">
        <ele>202.49000000000001</ele>
        <time>2019-05-09T12:06:50Z</time>
      </trkpt>
      <trkpt lat="50.649399971589446" lon="8.726162016391754">
        <ele>192.88</ele>
        <time>2019-05-09T12:07:02Z</time>
      </trkpt>
      <trkpt lat="50.64704398624599" lon="8.726855032145977">
        <ele>191.44</ele>
        <time>2019-05-09T12:07:09Z</time>
      </trkpt>
      <trkpt lat="50.644783973693848" lon="8.726880010217428">
        <ele>196.25</ele>
        <time>2019-05-09T12:07:16Z</time>
      </trkpt>
      <trkpt lat="50.642802994698286" lon="8.726373994722962">
        <ele>202.00999999999999</ele>
        <time>2019-05-09T12:07:23Z</time>
      </trkpt>
      <trkpt lat="50.64094103872776" lon="8.72548702172935">
        <ele>208.25999999999999</ele>
        <time>2019-05-09T12:07:29Z</time>
      </trkpt>
      <trkpt lat="50.638693012297153" lon="8.72372598387301">
        <ele>211.63</ele>
        <time>2019-05-09T12:07:36Z</time>
      </trkpt>
      <trkpt lat="50.636380026116967" lon="8.721048971638084">
        <ele>210.66999999999999</ele>
        <time>2019-05-09T12:07:44Z</time>
      </trkpt>
      <trkpt lat="50.633712988346815" lon="8.717758990824223">
        <ele>204.90000000000001</ele>
        <time>2019-05-09T12:07:54Z</time>
      </trkpt>
      <trkpt lat="50.632592998445034" lon="8.716574963182211">
        <ele>202.97999999999999</ele>
        <time>2019-05-09T12:07:58Z</time>
      </trkpt>
      <trkpt lat="50.630404986441135" lon="8.714984999969602">
        <ele>201.05000000000001</ele>
        <time>2019-05-09T12:08:05Z</time>
      </trkpt>
      <trkpt lat="50.628101974725723" lon="8.714131973683834">
        <ele>204.41999999999999</ele>
        <time>2019-05-09T12:08:12Z</time>
      </trkpt>
      <trkpt lat="50.625015003606677" lon="8.713745987042785">
        <ele>212.59</ele>
        <time>2019-05-09T12:08:21Z</time>
      </trkpt>
      <trkpt lat="50.622189966961741" lon="8.713971041142941">
        <ele>214.50999999999999</ele>
        <time>2019-05-09T12:08:29Z</time>
      </trkpt>
      <trkpt lat="50.618760008364916" lon="8.715048031881452">
        <ele>207.78</ele>
        <time>2019-05-09T12:08:39Z</time>
      </trkpt>
      <trkpt lat="50.616024993360043" lon="8.716168021783233">
        <ele>198.16999999999999</ele>
        <time>2019-05-09T12:08:47Z</time>
      </trkpt>
      <trkpt lat="50.61292695812881" lon="8.717250041663647">
        <ele>186.63</ele>
        <time>2019-05-09T12:08:56Z</time>
      </trkpt>
      <trkpt lat="50.610122038051486" lon="8.717672992497683">
        <ele>179.90000000000001</ele>
        <time>2019-05-09T12:09:04Z</time>
      </trkpt>
      <trkpt lat="50.60695200227201" lon="8.717403011396527">
        <ele>174.13999999999999</ele>
        <time>2019-05-09T12:09:13Z</time>
      </trkpt>
      <trkpt lat="50.603824965655804" lon="8.716450994834304">
        <ele>168.84999999999999</ele>
        <time>2019-05-09T12:09:22Z</time>
      </trkpt>
      <trkpt lat="50.600509000942111" lon="8.714562971144915">
        <ele>164.52000000000001</ele>
        <time>2019-05-09T12:09:32Z</time>
      </trkpt>
      <trkpt lat="50.597035959362984" lon="8.712235987186432">
        <ele>162.12</ele>
        <time>2019-05-09T12:09:43Z</time>
      </trkpt>
      <trkpt lat="50.594681985676289" lon="8.710980964824557">
        <ele>164.52000000000001</ele>
        <time>2019-05-09T12:09:51Z</time>
      </trkpt>
      <trkpt lat="50.592650966718793" lon="8.71014797128737">
        <ele>167.88999999999999</ele>
        <time>2019-05-09T12:09:59Z</time>
      </trkpt>
      <trkpt lat="50.590055007487535" lon="8.709513964131475">
        <ele>174.13999999999999</ele>
        <time>2019-05-09T12:10:07Z</time>
      </trkpt>
      <trkpt lat="50.589166022837162" lon="8.709455039352179">
        <ele>176.53999999999999</ele>
        <time>2019-05-09T12:10:10Z</time>
      </trkpt>
      <trkpt lat="50.588262034580112" lon="8.709496026858687">
        <ele>178.46000000000001</ele>
        <time>2019-05-09T12:10:13Z</time>
      </trkpt>
      <trkpt lat="50.586177036166191" lon="8.710316028445959">
        <ele>184.71000000000001</ele>
        <time>2019-05-09T12:10:20Z</time>
      </trkpt>
      <trkpt lat="50.583444032818079" lon="8.711497038602829">
        <ele>190</ele>
        <time>2019-05-09T12:10:29Z</time>
      </trkpt>
      <trkpt lat="50.583109008148313" lon="8.711531991139054">
        <ele>190</ele>
        <time>2019-05-09T12:10:31Z</time>
      </trkpt>
      <trkpt lat="50.58078202418983" lon="8.711256980895996">
        <ele>188.08000000000001</ele>
        <time>2019-05-09T12:10:37Z</time>
      </trkpt>
      <trkpt lat="50.578896012157202" lon="8.710174039006233">
        <ele>185.19</ele>
        <time>2019-05-09T12:10:43Z</time>
      </trkpt>
      <trkpt lat="50.57691402733326" lon="8.708143020048738">
        <ele>182.78999999999999</ele>
        <time>2019-05-09T12:10:50Z</time>
      </trkpt>
      <trkpt lat="50.574227040633559" lon="8.705359976738691">
        <ele>177.02000000000001</ele>
        <time>2019-05-09T12:11:00Z</time>
      </trkpt>
      <trkpt lat="50.572140030562878" lon="8.703817036002874">
        <ele>171.72999999999999</ele>
        <time>2019-05-09T12:11:09Z</time>
      </trkpt>
      <trkpt lat="50.569957969710231" lon="8.702596966177225">
        <ele>167.88999999999999</ele>
        <time>2019-05-09T12:11:18Z</time>
      </trkpt>
      <trkpt lat="50.567710027098656" lon="8.701278995722532">
        <ele>166.93000000000001</ele>
        <time>2019-05-09T12:11:26Z</time>
      </trkpt>
      <trkpt lat="50.565641038119793" lon="8.699442017823458">
        <ele>167.88999999999999</ele>
        <time>2019-05-09T12:11:34Z</time>
      </trkpt>
      <trkpt lat="50.563861979171634" lon="8.697006991133094">
        <ele>168.84999999999999</ele>
        <time>2019-05-09T12:11:42Z</time>
      </trkpt>
      <trkpt lat="50.562463039532304" lon="8.693981962278485">
        <ele>170.77000000000001</ele>
        <time>2019-05-09T12:11:50Z</time>
      </trkpt>
      <trkpt lat="50.561574976891279" lon="8.691159021109343">
        <ele>173.66</ele>
        <time>2019-05-09T12:11:57Z</time>
      </trkpt>
      <trkpt lat="50.560319032520056" lon="8.686504969373345">
        <ele>177.5</ele>
        <time>2019-05-09T12:12:08Z</time>
      </trkpt>
      <trkpt lat="50.558908022940159" lon="8.681166032329202">
        <ele>180.38</ele>
        <time>2019-05-09T12:12:21Z</time>
      </trkpt>
      <trkpt lat="50.558802997693419" lon="8.680769987404347">
        <ele>181.83000000000001</ele>
        <time>2019-05-09T12:12:22Z</time>
      </trkpt>
      <trkpt lat="50.55869797244668" lon="8.680375032126904">
        <ele>183.27000000000001</ele>
        <time>2019-05-09T12:12:23Z</time>
      </trkpt>
      <trkpt lat="50.557443033903837" lon="8.675667000934482">
        <ele>191.91999999999999</ele>
        <time>2019-05-09T12:12:34Z</time>
      </trkpt>
      <trkpt lat="50.556374005973339" lon="8.671603035181761">
        <ele>194.31999999999999</ele>
        <time>2019-05-09T12:12:44Z</time>
      </trkpt>
      <trkpt lat="50.555622987449169" lon="8.668771963566542">
        <ele>193.36000000000001</ele>
        <time>2019-05-09T12:12:52Z</time>
      </trkpt>
      <trkpt lat="50.555176986381412" lon="8.667092984542251">
        <ele>191.44</ele>
        <time>2019-05-09T12:12:59Z</time>
      </trkpt>
      <trkpt lat="50.555167011916637" lon="8.666481021791697">
        <ele>190.47999999999999</ele>
        <time>2019-05-09T12:13:02Z</time>
      </trkpt>
      <trkpt lat="50.555156031623483" lon="8.665933012962341">
        <ele>190</ele>
        <time>2019-05-09T12:13:03Z</time>
      </trkpt>
      <trkpt lat="50.555172963067889" lon="8.665668983012438">
        <ele>189.52000000000001</ele>
        <time>2019-05-09T12:13:04Z</time>
      </trkpt>
      <trkpt lat="50.55521696805954" lon="8.665431020781398">
        <ele>189.52000000000001</ele>
        <time>2019-05-09T12:13:05Z</time>
      </trkpt>
      <trkpt lat="50.555273965001106" lon="8.665192974731326">
        <ele>190</ele>
        <time>2019-05-09T12:13:06Z</time>
      </trkpt>
      <trkpt lat="50.555328028276563" lon="8.664973033592105">
        <ele>190</ele>
        <time>2019-05-09T12:13:07Z</time>
      </trkpt>
      <trkpt lat="50.555425006896257" lon="8.664785027503967">
        <ele>190.47999999999999</ele>
        <time>2019-05-09T12:13:08Z</time>
      </trkpt>
      <trkpt lat="50.555526008829474" lon="8.664591992273927">
        <ele>190.47999999999999</ele>
        <time>2019-05-09T12:13:09Z</time>
      </trkpt>
      <trkpt lat="50.555632961913943" lon="8.66442896425724">
        <ele>190.47999999999999</ele>
        <time>2019-05-09T12:13:10Z</time>
      </trkpt>
      <trkpt lat="50.555766988545656" lon="8.664286974817514">
        <ele>190.47999999999999</ele>
        <time>2019-05-09T12:13:11Z</time>
      </trkpt>
      <trkpt lat="50.55590302683413" lon="8.664142973721027">
        <ele>190.96000000000001</ele>
        <time>2019-05-09T12:13:12Z</time>
      </trkpt>
      <trkpt lat="50.55605398491025" lon="8.664050018414855">
        <ele>190.96000000000001</ele>
        <time>2019-05-09T12:13:13Z</time>
      </trkpt>
      <trkpt lat="50.55622698739171" lon="8.663978017866612">
        <ele>191.44</ele>
        <time>2019-05-09T12:13:14Z</time>
      </trkpt>
      <trkpt lat="50.556412981823087" lon="8.663899982348084">
        <ele>191.44</ele>
        <time>2019-05-09T12:13:15Z</time>
      </trkpt>
      <trkpt lat="50.556611968204379" lon="8.663817001506686">
        <ele>191.44</ele>
        <time>2019-05-09T12:13:16Z</time>
      </trkpt>
      <trkpt lat="50.556809026747942" lon="8.663735026493669">
        <ele>191.44</ele>
        <time>2019-05-09T12:13:17Z</time>
      </trkpt>
      <trkpt lat="50.558163039386272" lon="8.663302017375827">
        <ele>192.40000000000001</ele>
        <time>2019-05-09T12:13:25Z</time>
      </trkpt>
      <trkpt lat="50.559712015092373" lon="8.662198036909103">
        <ele>191.44</ele>
        <time>2019-05-09T12:13:34Z</time>
      </trkpt>
      <trkpt lat="50.56103803217411" lon="8.660643026232719">
        <ele>191.44</ele>
        <time>2019-05-09T12:13:42Z</time>
      </trkpt>
      <trkpt lat="50.56239003315568" lon="8.658703034743667">
        <ele>189.52000000000001</ele>
        <time>2019-05-09T12:13:52Z</time>
      </trkpt>
      <trkpt lat="50.56318698450923" lon="8.657537028193474">
        <ele>188.56</ele>
        <time>2019-05-09T12:14:00Z</time>
      </trkpt>
      <trkpt lat="50.563288992270827" lon="8.657491011545062">
        <ele>188.56</ele>
        <time>2019-05-09T12:14:01Z</time>
      </trkpt>
      <trkpt lat="50.56337901391089" lon="8.657449018210173">
        <ele>188.56</ele>
        <time>2019-05-09T12:14:02Z</time>
      </trkpt>
      <trkpt lat="50.563453026115894" lon="8.657459998503327">
        <ele>188.56</ele>
        <time>2019-05-09T12:14:03Z</time>
      </trkpt>
      <trkpt lat="50.56353198364377" lon="8.65748698823154">
        <ele>188.08000000000001</ele>
        <time>2019-05-09T12:14:04Z</time>
      </trkpt>
      <trkpt lat="50.563612030819058" lon="8.657536022365093">
        <ele>188.08000000000001</ele>
        <time>2019-05-09T12:14:05Z</time>
      </trkpt>
      <trkpt lat="50.563685037195683" lon="8.657634006813169">
        <ele>187.59</ele>
        <time>2019-05-09T12:14:06Z</time>
      </trkpt>
      <trkpt lat="50.563763994723558" lon="8.657740037888289">
        <ele>187.59</ele>
        <time>2019-05-09T12:14:07Z</time>
      </trkpt>
      <trkpt lat="50.563844963908195" lon="8.657847996801138">
        <ele>187.11000000000001</ele>
        <time>2019-05-09T12:14:08Z</time>
      </trkpt>
      <trkpt lat="50.564254000782967" lon="8.658471023663878">
        <ele>186.15000000000001</ele>
        <time>2019-05-09T12:14:14Z</time>
      </trkpt>
      <trkpt lat="50.564300017431378" lon="8.658655006438494">
        <ele>186.15000000000001</ele>
        <time>2019-05-09T12:14:15Z</time>
      </trkpt>
      <trkpt lat="50.564334969967604" lon="8.65879699587822">
        <ele>185.66999999999999</ele>
        <time>2019-05-09T12:14:16Z</time>
      </trkpt>
      <trkpt lat="50.564351985231042" lon="8.658948037773371">
        <ele>185.66999999999999</ele>
        <time>2019-05-09T12:14:17Z</time>
      </trkpt>
      <trkpt lat="50.56432499550283" lon="8.659102013334632">
        <ele>185.66999999999999</ele>
        <time>2019-05-09T12:14:18Z</time>
      </trkpt>
      <trkpt lat="50.564295994117856" lon="8.659260012209415">
        <ele>185.19</ele>
        <time>2019-05-09T12:14:19Z</time>
      </trkpt>
      <trkpt lat="50.564226005226374" lon="8.659414993599057">
        <ele>185.19</ele>
        <time>2019-05-09T12:14:20Z</time>
      </trkpt>
      <trkpt lat="50.56413003243506" lon="8.659499986097217">
        <ele>184.71000000000001</ele>
        <time>2019-05-09T12:14:21Z</time>
      </trkpt>
      <trkpt lat="50.564032969996333" lon="8.659584978595376">
        <ele>184.71000000000001</ele>
        <time>2019-05-09T12:14:22Z</time>
      </trkpt>
      <trkpt lat="50.563926016911864" lon="8.659673994407058">
        <ele>184.71000000000001</ele>
        <time>2019-05-09T12:14:23Z</time>
      </trkpt>
      <trkpt lat="50.563806993886828" lon="8.65970098413527">
        <ele>184.22999999999999</ele>
        <time>2019-05-09T12:14:24Z</time>
      </trkpt>
      <trkpt lat="50.563685959205031" lon="8.659728979691863">
        <ele>183.75</ele>
        <time>2019-05-09T12:14:25Z</time>
      </trkpt>
      <trkpt lat="50.563567019999027" lon="8.659755969420075">
        <ele>183.27000000000001</ele>
        <time>2019-05-09T12:14:26Z</time>
      </trkpt>
      <trkpt lat="50.563427964225411" lon="8.659753035753965">
        <ele>182.78999999999999</ele>
        <time>2019-05-09T12:14:27Z</time>
      </trkpt>
      <trkpt lat="50.563331991434097" lon="8.659669971093535">
        <ele>182.31</ele>
        <time>2019-05-09T12:14:28Z</time>
      </trkpt>
      <trkpt lat="50.563237024471164" lon="8.659589001908898">
        <ele>180.87</ele>
        <time>2019-05-09T12:14:30Z</time>
      </trkpt>
      <trkpt lat="50.563066033646464" lon="8.659396972507238">
        <ele>180.38</ele>
        <time>2019-05-09T12:14:31Z</time>
      </trkpt>
      <trkpt lat="50.563008030876517" lon="8.659238973632455">
        <ele>179.41999999999999</ele>
        <time>2019-05-09T12:14:32Z</time>
      </trkpt>
      <trkpt lat="50.56299302726984" lon="8.659066976979375">
        <ele>178.94</ele>
        <time>2019-05-09T12:14:33Z</time>
      </trkpt>
      <trkpt lat="50.563005013391376" lon="8.65890403278172">
        <ele>178.46000000000001</ele>
        <time>2019-05-09T12:14:34Z</time>
      </trkpt>
      <trkpt lat="50.563016999512911" lon="8.658735975623131">
        <ele>178.46000000000001</ele>
        <time>2019-05-09T12:14:35Z</time>
      </trkpt>
      <trkpt lat="50.56303602643311" lon="8.658525003120303">
        <ele>177.97999999999999</ele>
        <time>2019-05-09T12:14:36Z</time>
      </trkpt>
      <trkpt lat="50.563110038638115" lon="8.658360969275236">
        <ele>177.5</ele>
        <time>2019-05-09T12:14:37Z</time>
      </trkpt>
      <trkpt lat="50.563198970630765" lon="8.658186960965395">
        <ele>177.02000000000001</ele>
        <time>2019-05-09T12:14:38Z</time>
      </trkpt>
      <trkpt lat="50.563296033069491" lon="8.658008007332683">
        <ele>176.53999999999999</ele>
        <time>2019-05-09T12:14:39Z</time>
      </trkpt>
      <trkpt lat="50.563651006668806" lon="8.657381040975452">
        <ele>175.58000000000001</ele>
        <time>2019-05-09T12:14:42Z</time>
      </trkpt>
      <trkpt lat="50.56378997862339" lon="8.657138971611857">
        <ele>175.58000000000001</ele>
        <time>2019-05-09T12:14:43Z</time>
      </trkpt>
      <trkpt lat="50.565024968236685" lon="8.655062019824982">
        <ele>171.72999999999999</ele>
        <time>2019-05-09T12:14:51Z</time>
      </trkpt>
      <trkpt lat="50.565177015960217" lon="8.654858004301786">
        <ele>171.72999999999999</ele>
        <time>2019-05-09T12:14:52Z</time>
      </trkpt>
      <trkpt lat="50.565311964601278" lon="8.654710985720158">
        <ele>171.25</ele>
        <time>2019-05-09T12:14:53Z</time>
      </trkpt>
      <trkpt lat="50.565432999283075" lon="8.654620964080095">
        <ele>170.77000000000001</ele>
        <time>2019-05-09T12:14:54Z</time>
      </trkpt>
      <trkpt lat="50.565564008429646" lon="8.65452297963202">
        <ele>170.77000000000001</ele>
        <time>2019-05-09T12:14:55Z</time>
      </trkpt>
      <trkpt lat="50.565684037283063" lon="8.654516022652388">
        <ele>170.28999999999999</ele>
        <time>2019-05-09T12:14:56Z</time>
      </trkpt>
      <trkpt lat="50.565799959003925" lon="8.654509987682104">
        <ele>169.81</ele>
        <time>2019-05-09T12:14:57Z</time>
      </trkpt>
      <trkpt lat="50.566274961456656" lon="8.654363974928856">
        <ele>167.88999999999999</ele>
        <time>2019-05-09T12:15:04Z</time>
      </trkpt>
      <trkpt lat="50.566388033330441" lon="8.654345031827688">
        <ele>166.44999999999999</ele>
        <time>2019-05-09T12:15:18Z</time>
      </trkpt>
      <trkpt lat="50.566428015008569" lon="8.654364980757237">
        <ele>165.96000000000001</ele>
        <time>2019-05-09T12:15:19Z</time>
      </trkpt>
      <trkpt lat="50.566470008343458" lon="8.654386019334197">
        <ele>165.47999999999999</ele>
        <time>2019-05-09T12:15:20Z</time>
      </trkpt>
      <trkpt lat="50.566528011113405" lon="8.654453996568918">
        <ele>165</ele>
        <time>2019-05-09T12:15:21Z</time>
      </trkpt>
      <trkpt lat="50.566565981134772" lon="8.654507976025343">
        <ele>165</ele>
        <time>2019-05-09T12:15:22Z</time>
      </trkpt>
      <trkpt lat="50.566610991954803" lon="8.654568996280432">
        <ele>164.52000000000001</ele>
        <time>2019-05-09T12:15:23Z</time>
      </trkpt>
      <trkpt lat="50.566700007766485" lon="8.6546949762851">
        <ele>164.03999999999999</ele>
        <time>2019-05-09T12:15:24Z</time>
      </trkpt>
      <trkpt lat="50.566724985837936" lon="8.654804024845362">
        <ele>164.03999999999999</ele>
        <time>2019-05-09T12:15:25Z</time>
      </trkpt>
      <trkpt lat="50.567079959437251" lon="8.655747994780541">
        <ele>164.52000000000001</ele>
        <time>2019-05-09T12:15:31Z</time>
      </trkpt>
      <trkpt lat="50.567152965813875" lon="8.655867017805576">
        <ele>165</ele>
        <time>2019-05-09T12:15:32Z</time>
      </trkpt>
      <trkpt lat="50.567241981625557" lon="8.655976988375187">
        <ele>165.47999999999999</ele>
        <time>2019-05-09T12:15:33Z</time>
      </trkpt>
      <trkpt lat="50.56754800491035" lon="8.656358029693365">
        <ele>168.37</ele>
        <time>2019-05-09T12:15:37Z</time>
      </trkpt>
      <trkpt lat="50.567610030993819" lon="8.65643497556448">
        <ele>168.84999999999999</ele>
        <time>2019-05-09T12:15:38Z</time>
      </trkpt>
      <trkpt lat="50.567673984915018" lon="8.656514016911387">
        <ele>169.33000000000001</ele>
        <time>2019-05-09T12:15:39Z</time>
      </trkpt>
      <trkpt lat="50.567747997120023" lon="8.656605966389179">
        <ele>169.81</ele>
        <time>2019-05-09T12:15:40Z</time>
      </trkpt>
      <trkpt lat="50.567837012931705" lon="8.65671300329268">
        <ele>169.81</ele>
        <time>2019-05-09T12:15:41Z</time>
      </trkpt>
      <trkpt lat="50.568413017317653" lon="8.657337035983801">
        <ele>170.77000000000001</ele>
        <time>2019-05-09T12:15:46Z</time>
      </trkpt>
      <trkpt lat="50.569309964776039" lon="8.658445961773396">
        <ele>173.66</ele>
        <time>2019-05-09T12:15:55Z</time>
      </trkpt>
      <trkpt lat="50.569755965843797" lon="8.659101007506251">
        <ele>175.09999999999999</ele>
        <time>2019-05-09T12:16:00Z</time>
      </trkpt>
      <trkpt lat="50.57057797908783" lon="8.660833965986967">
        <ele>173.16999999999999</ele>
        <time>2019-05-09T12:16:11Z</time>
      </trkpt>
      <trkpt lat="50.570989027619362" lon="8.662010030820966">
        <ele>170.28999999999999</ele>
        <time>2019-05-09T12:16:19Z</time>
      </trkpt>
      <trkpt lat="50.571005959063768" lon="8.662066021934152">
        <ele>169.33000000000001</ele>
        <time>2019-05-09T12:16:26Z</time>
      </trkpt>
      <trkpt lat="50.571054993197322" lon="8.662227960303426">
        <ele>167.88999999999999</ele>
        <time>2019-05-09T12:16:52Z</time>
      </trkpt>
      <trkpt lat="50.571217015385628" lon="8.662669016048312">
        <ele>168.37</ele>
        <time>2019-05-09T12:16:57Z</time>
      </trkpt>
      <trkpt lat="50.57124400511384" lon="8.662734981626272">
        <ele>168.37</ele>
        <time>2019-05-09T12:16:58Z</time>
      </trkpt>
      <trkpt lat="50.571215003728867" lon="8.662980990484357">
        <ele>168.84999999999999</ele>
        <time>2019-05-09T12:16:59Z</time>
      </trkpt>
      <trkpt lat="50.571172004565597" lon="8.663055002689362">
        <ele>169.33000000000001</ele>
        <time>2019-05-09T12:17:01Z</time>
      </trkpt>
      <trkpt lat="50.570702031254768" lon="8.663922026753426">
        <ele>170.28999999999999</ele>
        <time>2019-05-09T12:17:08Z</time>
      </trkpt>
      <trkpt lat="50.570652997121215" lon="8.664020011201501">
        <ele>170.77000000000001</ele>
        <time>2019-05-09T12:17:09Z</time>
      </trkpt>
      <trkpt lat="50.570611003786325" lon="8.664102992042899">
        <ele>170.77000000000001</ele>
        <time>2019-05-09T12:17:10Z</time>
      </trkpt>
      <trkpt lat="50.570637993514538" lon="8.664265014231205">
        <ele>171.25</ele>
        <time>2019-05-09T12:17:11Z</time>
      </trkpt>
      <trkpt lat="50.570681998506188" lon="8.664353024214506">
        <ele>171.25</ele>
        <time>2019-05-09T12:17:12Z</time>
      </trkpt>
      <trkpt lat="50.570726003497839" lon="8.664441034197807">
        <ele>171.72999999999999</ele>
        <time>2019-05-09T12:17:13Z</time>
      </trkpt>
      <trkpt lat="50.570773025974631" lon="8.66453499533236">
        <ele>171.72999999999999</ele>
        <time>2019-05-09T12:17:14Z</time>
      </trkpt>
      <trkpt lat="50.570822982117534" lon="8.6646400205791">
        <ele>171.72999999999999</ele>
        <time>2019-05-09T12:17:15Z</time>
      </trkpt>
      <trkpt lat="50.570938987657428" lon="8.664888963103294">
        <ele>172.69</ele>
        <time>2019-05-09T12:17:17Z</time>
      </trkpt>
      <trkpt lat="50.571006964892149" lon="8.665025001391769">
        <ele>173.16999999999999</ele>
        <time>2019-05-09T12:17:18Z</time>
      </trkpt>
      <trkpt lat="50.57165103033185" lon="8.666415978223085">
        <ele>180.38</ele>
        <time>2019-05-09T12:17:29Z</time>
      </trkpt>
      <trkpt lat="50.571756977587938" lon="8.666644971817732">
        <ele>180.87</ele>
        <time>2019-05-09T12:17:31Z</time>
      </trkpt>
      <trkpt lat="50.571979014202952" lon="8.667271016165614">
        <ele>182.78999999999999</ele>
        <time>2019-05-09T12:17:36Z</time>
      </trkpt>
      <trkpt lat="50.572012960910797" lon="8.667399007827044">
        <ele>183.27000000000001</ele>
        <time>2019-05-09T12:17:37Z</time>
      </trkpt>
      <trkpt lat="50.572190992534161" lon="8.668126976117492">
        <ele>184.71000000000001</ele>
        <time>2019-05-09T12:17:44Z</time>
      </trkpt>
      <trkpt lat="50.572396013885736" lon="8.66891797631979">
        <ele>188.08000000000001</ele>
        <time>2019-05-09T12:17:52Z</time>
      </trkpt>
      <trkpt lat="50.572415040805936" lon="8.669019984081388">
        <ele>187.59</ele>
        <time>2019-05-09T12:17:59Z</time>
      </trkpt>
      <trkpt lat="50.572415040805936" lon="8.669019984081388">
        <ele>187.59</ele>
        <time>2019-05-09T12:18:45Z</time>
      </trkpt>
      <trkpt lat="50.572462985292077" lon="8.669248977676034">
        <ele>188.08000000000001</ele>
        <time>2019-05-09T12:19:15Z</time>
      </trkpt>
      <trkpt lat="50.572561975568533" lon="8.670085994526744">
        <ele>189.52000000000001</ele>
        <time>2019-05-09T12:19:22Z</time>
      </trkpt>
      <trkpt lat="50.572578990831971" lon="8.67020501755178">
        <ele>189.52000000000001</ele>
        <time>2019-05-09T12:19:23Z</time>
      </trkpt>
      <trkpt lat="50.572620984166861" lon="8.670581029728055">
        <ele>189.52000000000001</ele>
        <time>2019-05-09T12:19:26Z</time>
      </trkpt>
      <trkpt lat="50.572743024677038" lon="8.67179598659277">
        <ele>188.56</ele>
        <time>2019-05-09T12:19:34Z</time>
      </trkpt>
      <trkpt lat="50.572833968326449" lon="8.672521021217108">
        <ele>186.63</ele>
        <time>2019-05-09T12:19:39Z</time>
      </trkpt>
      <trkpt lat="50.572863975539804" lon="8.672653958201408">
        <ele>186.15000000000001</ele>
        <time>2019-05-09T12:19:40Z</time>
      </trkpt>
      <trkpt lat="50.572891971096396" lon="8.672766024246812">
        <ele>185.19</ele>
        <time>2019-05-09T12:19:41Z</time>
      </trkpt>
      <trkpt lat="50.572936981916428" lon="8.672932991757989">
        <ele>180.87</ele>
        <time>2019-05-09T12:19:47Z</time>
      </trkpt>
      <trkpt lat="50.572936981916428" lon="8.672932991757989">
        <ele>180.87</ele>
        <time>2019-05-09T12:20:13Z</time>
      </trkpt>
      <trkpt lat="50.572958020493388" lon="8.67299702949822">
        <ele>177.97999999999999</ele>
        <time>2019-05-09T12:20:35Z</time>
      </trkpt>
      <trkpt lat="50.573008982464671" lon="8.673143964260817">
        <ele>178.46000000000001</ele>
        <time>2019-05-09T12:20:37Z</time>
      </trkpt>
      <trkpt lat="50.573037983849645" lon="8.673223005607724">
        <ele>177.97999999999999</ele>
        <time>2019-05-09T12:20:38Z</time>
      </trkpt>
      <trkpt lat="50.572943016886711" lon="8.673463985323906">
        <ele>177.5</ele>
        <time>2019-05-09T12:20:39Z</time>
      </trkpt>
      <trkpt lat="50.572879984974861" lon="8.673533974215388">
        <ele>177.02000000000001</ele>
        <time>2019-05-09T12:20:40Z</time>
      </trkpt>
      <trkpt lat="50.572776971384883" lon="8.673637993633747">
        <ele>176.53999999999999</ele>
        <time>2019-05-09T12:20:41Z</time>
      </trkpt>
      <trkpt lat="50.572672029957175" lon="8.673730026930571">
        <ele>175.58000000000001</ele>
        <time>2019-05-09T12:20:42Z</time>
      </trkpt>
      <trkpt lat="50.572563987225294" lon="8.67381501942873">
        <ele>175.58000000000001</ele>
        <time>2019-05-09T12:20:43Z</time>
      </trkpt>
      <trkpt lat="50.5724479816854" lon="8.673905963078141">
        <ele>175.58000000000001</ele>
        <time>2019-05-09T12:20:44Z</time>
      </trkpt>
      <trkpt lat="50.571063039824367" lon="8.674779022112489">
        <ele>175.58000000000001</ele>
        <time>2019-05-09T12:20:54Z</time>
      </trkpt>
      <trkpt lat="50.569647001102567" lon="8.675644034519792">
        <ele>179.41999999999999</ele>
        <time>2019-05-09T12:21:05Z</time>
      </trkpt>
      <trkpt lat="50.568437995389104" lon="8.676171004772186">
        <ele>181.34999999999999</ele>
        <time>2019-05-09T12:21:14Z</time>
      </trkpt>
      <trkpt lat="50.56668902747333" lon="8.676882963627577">
        <ele>181.34999999999999</ele>
        <time>2019-05-09T12:21:28Z</time>
      </trkpt>
      <trkpt lat="50.565560990944505" lon="8.677370036020875">
        <ele>183.27000000000001</ele>
        <time>2019-05-09T12:21:39Z</time>
      </trkpt>
      <trkpt lat="50.565497959032655" lon="8.677397025749087">
        <ele>183.27000000000001</ele>
        <time>2019-05-09T12:21:40Z</time>
      </trkpt>
      <trkpt lat="50.565483961254358" lon="8.67740398272872">
        <ele>183.75</ele>
        <time>2019-05-09T12:21:41Z</time>
      </trkpt>
      <trkpt lat="50.565406009554863" lon="8.677439019083977">
        <ele>183.75</ele>
        <time>2019-05-09T12:21:45Z</time>
      </trkpt>
      <trkpt lat="50.565390000119805" lon="8.67744698189199">
        <ele>183.75</ele>
        <time>2019-05-09T12:21:46Z</time>
      </trkpt>
      <trkpt lat="50.565390000119805" lon="8.67744698189199">
        <ele>183.27000000000001</ele>
        <time>2019-05-09T12:22:02Z</time>
      </trkpt>
      <trkpt lat="50.565322022885084" lon="8.677091002464294">
        <ele>164.52000000000001</ele>
        <time>2019-05-09T12:25:09Z</time>
      </trkpt>
      <trkpt lat="50.565315987914801" lon="8.677573967725039">
        <ele>191.44</ele>
        <time>2019-05-09T12:25:26Z</time>
      </trkpt>
      <trkpt lat="50.565261002629995" lon="8.677568016573787">
        <ele>181.34999999999999</ele>
        <time>2019-05-09T12:26:21Z</time>
      </trkpt>
      <trkpt lat="50.565266031771898" lon="8.677547983825207">
        <ele>180.38</ele>
        <time>2019-05-09T12:26:39Z</time>
      </trkpt>
      <trkpt lat="50.565177015960217" lon="8.677687039598823">
        <ele>188.56</ele>
        <time>2019-05-09T12:26:53Z</time>
      </trkpt>
      <trkpt lat="50.565220015123487" lon="8.677526023238897">
        <ele>187.11000000000001</ele>
        <time>2019-05-09T12:26:56Z</time>
      </trkpt>
      <trkpt lat="50.565219009295106" lon="8.677518982440233">
        <ele>187.11000000000001</ele>
        <time>2019-05-09T12:26:57Z</time>
      </trkpt>
      <trkpt lat="50.56529201567173" lon="8.677491992712021">
        <ele>186.63</ele>
        <time>2019-05-09T12:26:58Z</time>
      </trkpt>
      <trkpt lat="50.565353035926819" lon="8.677463997155428">
        <ele>186.15000000000001</ele>
        <time>2019-05-09T12:26:59Z</time>
      </trkpt>
      <trkpt lat="50.565424030646682" lon="8.677430972456932">
        <ele>185.66999999999999</ele>
        <time>2019-05-09T12:27:00Z</time>
      </trkpt>
      <trkpt lat="50.566356014460325" lon="8.677032999694347">
        <ele>181.83000000000001</ele>
        <time>2019-05-09T12:27:09Z</time>
      </trkpt>
      <trkpt lat="50.567194959148765" lon="8.676669979467988">
        <ele>183.27000000000001</ele>
        <time>2019-05-09T12:27:16Z</time>
      </trkpt>
      <trkpt lat="50.568271027877927" lon="8.676236970350146">
        <ele>184.71000000000001</ele>
        <time>2019-05-09T12:27:25Z</time>
      </trkpt>
      <trkpt lat="50.569713972508907" lon="8.675610003992915">
        <ele>187.11000000000001</ele>
        <time>2019-05-09T12:27:38Z</time>
      </trkpt>
      <trkpt lat="50.570702031254768" lon="8.675002986565232">
        <ele>188.08000000000001</ele>
        <time>2019-05-09T12:27:47Z</time>
      </trkpt>
      <trkpt lat="50.571922017261386" lon="8.674239981919527">
        <ele>187.11000000000001</ele>
        <time>2019-05-09T12:27:58Z</time>
      </trkpt>
      <trkpt lat="50.57270597666502" lon="8.673703037202358">
        <ele>187.59</ele>
        <time>2019-05-09T12:28:07Z</time>
      </trkpt>
      <trkpt lat="50.572827011346817" lon="8.673588037490845">
        <ele>188.08000000000001</ele>
        <time>2019-05-09T12:28:14Z</time>
      </trkpt>
      <trkpt lat="50.572847966104746" lon="8.673565993085504">
        <ele>188.08000000000001</ele>
        <time>2019-05-09T12:28:27Z</time>
      </trkpt>
      <trkpt lat="50.573056004941463" lon="8.673339011147618">
        <ele>189.52000000000001</ele>
        <time>2019-05-09T12:28:33Z</time>
      </trkpt>
      <trkpt lat="50.573039995506406" lon="8.673228034749627">
        <ele>189.52000000000001</ele>
        <time>2019-05-09T12:28:34Z</time>
      </trkpt>
      <trkpt lat="50.573008982464671" lon="8.673143964260817">
        <ele>190</ele>
        <time>2019-05-09T12:28:35Z</time>
      </trkpt>
      <trkpt lat="50.572972018271685" lon="8.673037011176348">
        <ele>190.47999999999999</ele>
        <time>2019-05-09T12:28:36Z</time>
      </trkpt>
      <trkpt lat="50.572932958602905" lon="8.672921005636454">
        <ele>190.96000000000001</ele>
        <time>2019-05-09T12:28:37Z</time>
      </trkpt>
      <trkpt lat="50.572895994409919" lon="8.67278496734798">
        <ele>190.96000000000001</ele>
        <time>2019-05-09T12:28:38Z</time>
      </trkpt>
      <trkpt lat="50.572860036045313" lon="8.672639960423112">
        <ele>191.44</ele>
        <time>2019-05-09T12:28:39Z</time>
      </trkpt>
      <trkpt lat="50.572829023003578" lon="8.67248397320509">
        <ele>191.44</ele>
        <time>2019-05-09T12:28:40Z</time>
      </trkpt>
      <trkpt lat="50.572808990254998" lon="8.672326980158687">
        <ele>191.44</ele>
        <time>2019-05-09T12:28:41Z</time>
      </trkpt>
      <trkpt lat="50.572605980560184" lon="8.670413978397846">
        <ele>197.69</ele>
        <time>2019-05-09T12:28:53Z</time>
      </trkpt>
      <trkpt lat="50.572531968355179" lon="8.669834034517407">
        <ele>198.16999999999999</ele>
        <time>2019-05-09T12:29:00Z</time>
      </trkpt>
      <trkpt lat="50.572531968355179" lon="8.669834034517407">
        <ele>197.69</ele>
        <time>2019-05-09T12:29:09Z</time>
      </trkpt>
      <trkpt lat="50.572531968355179" lon="8.669834034517407">
        <ele>197.69</ele>
        <time>2019-05-09T12:29:37Z</time>
      </trkpt>
      <trkpt lat="50.572529034689069" lon="8.669815007597208">
        <ele>197.69</ele>
        <time>2019-05-09T12:29:40Z</time>
      </trkpt>
      <trkpt lat="50.572515036910772" lon="8.669693972915411">
        <ele>198.16999999999999</ele>
        <time>2019-05-09T12:29:41Z</time>
      </trkpt>
      <trkpt lat="50.572505984455347" lon="8.66956103593111">
        <ele>198.65000000000001</ele>
        <time>2019-05-09T12:29:43Z</time>
      </trkpt>
      <trkpt lat="50.572497015818954" lon="8.669442012906075">
        <ele>198.65000000000001</ele>
        <time>2019-05-09T12:29:44Z</time>
      </trkpt>
      <trkpt lat="50.572478994727135" lon="8.669323995709419">
        <ele>198.65000000000001</ele>
        <time>2019-05-09T12:29:45Z</time>
      </trkpt>
      <trkpt lat="50.572449993342161" lon="8.669188041239977">
        <ele>198.65000000000001</ele>
        <time>2019-05-09T12:29:46Z</time>
      </trkpt>
      <trkpt lat="50.572420991957188" lon="8.6690469738096">
        <ele>198.16999999999999</ele>
        <time>2019-05-09T12:29:47Z</time>
      </trkpt>
      <trkpt lat="50.572390984743834" lon="8.6688950099051">
        <ele>198.16999999999999</ele>
        <time>2019-05-09T12:29:48Z</time>
      </trkpt>
      <trkpt lat="50.572362989187241" lon="8.668742962181568">
        <ele>197.69</ele>
        <time>2019-05-09T12:29:49Z</time>
      </trkpt>
      <trkpt lat="50.572010027244687" lon="8.667380986735225">
        <ele>195.28</ele>
        <time>2019-05-09T12:29:59Z</time>
      </trkpt>
      <trkpt lat="50.571982031688094" lon="8.667278978973627">
        <ele>194.80000000000001</ele>
        <time>2019-05-09T12:30:00Z</time>
      </trkpt>
      <trkpt lat="50.571913970634341" lon="8.667074041441083">
        <ele>193.84</ele>
        <time>2019-05-09T12:30:02Z</time>
      </trkpt>
      <trkpt lat="50.571537036448717" lon="8.666169969365001">
        <ele>190.96000000000001</ele>
        <time>2019-05-09T12:30:08Z</time>
      </trkpt>
      <trkpt lat="50.571353975683451" lon="8.665770990774036">
        <ele>188.08000000000001</ele>
        <time>2019-05-09T12:30:12Z</time>
      </trkpt>
      <trkpt lat="50.571279041469097" lon="8.66560896858573">
        <ele>187.11000000000001</ele>
        <time>2019-05-09T12:30:14Z</time>
      </trkpt>
      <trkpt lat="50.571225984022021" lon="8.665495980530977">
        <ele>186.15000000000001</ele>
        <time>2019-05-09T12:30:15Z</time>
      </trkpt>
      <trkpt lat="50.571043007075787" lon="8.665098007768393">
        <ele>184.22999999999999</ele>
        <time>2019-05-09T12:30:18Z</time>
      </trkpt>
      <trkpt lat="50.570976035669446" lon="8.66496398113668">
        <ele>183.27000000000001</ele>
        <time>2019-05-09T12:30:19Z</time>
      </trkpt>
      <trkpt lat="50.570844020694494" lon="8.66468695923686">
        <ele>181.83000000000001</ele>
        <time>2019-05-09T12:30:21Z</time>
      </trkpt>
      <trkpt lat="50.570775037631392" lon="8.664540024474263">
        <ele>181.34999999999999</ele>
        <time>2019-05-09T12:30:22Z</time>
      </trkpt>
      <trkpt lat="50.570712005719543" lon="8.664413960650563">
        <ele>180.87</ele>
        <time>2019-05-09T12:30:23Z</time>
      </trkpt>
      <trkpt lat="50.570662971585989" lon="8.664315976202488">
        <ele>180.38</ele>
        <time>2019-05-09T12:30:24Z</time>
      </trkpt>
      <trkpt lat="50.57062198407948" lon="8.66423299536109">
        <ele>179.90000000000001</ele>
        <time>2019-05-09T12:30:25Z</time>
      </trkpt>
      <trkpt lat="50.570637993514538" lon="8.664050018414855">
        <ele>178.94</ele>
        <time>2019-05-09T12:30:26Z</time>
      </trkpt>
      <trkpt lat="50.570678981021047" lon="8.663967959582806">
        <ele>178.46000000000001</ele>
        <time>2019-05-09T12:30:27Z</time>
      </trkpt>
      <trkpt lat="50.570733966305852" lon="8.663856983184815">
        <ele>177.97999999999999</ele>
        <time>2019-05-09T12:30:28Z</time>
      </trkpt>
      <trkpt lat="50.570775959640741" lon="8.66378297097981">
        <ele>177.5</ele>
        <time>2019-05-09T12:30:29Z</time>
      </trkpt>
      <trkpt lat="50.570993972942233" lon="8.663379969075322">
        <ele>174.13999999999999</ele>
        <time>2019-05-09T12:30:36Z</time>
      </trkpt>
      <trkpt lat="50.571077037602663" lon="8.663225993514061">
        <ele>172.69</ele>
        <time>2019-05-09T12:30:38Z</time>
      </trkpt>
      <trkpt lat="50.571119030937552" lon="8.663148041814566">
        <ele>172.21000000000001</ele>
        <time>2019-05-09T12:30:39Z</time>
      </trkpt>
      <trkpt lat="50.571163035929203" lon="8.663070006296039">
        <ele>171.72999999999999</ele>
        <time>2019-05-09T12:30:40Z</time>
      </trkpt>
      <trkpt lat="50.571216009557247" lon="8.662978978827596">
        <ele>171.25</ele>
        <time>2019-05-09T12:30:41Z</time>
      </trkpt>
      <trkpt lat="50.571280969306827" lon="8.662866996601224">
        <ele>170.77000000000001</ele>
        <time>2019-05-09T12:30:42Z</time>
      </trkpt>
      <trkpt lat="50.571356993168592" lon="8.66272903047502">
        <ele>170.28999999999999</ele>
        <time>2019-05-09T12:30:43Z</time>
      </trkpt>
      <trkpt lat="50.571811040863395" lon="8.661833005025983">
        <ele>168.37</ele>
        <time>2019-05-09T12:30:50Z</time>
      </trkpt>
      <trkpt lat="50.571858985349536" lon="8.661738038063049">
        <ele>167.88999999999999</ele>
        <time>2019-05-09T12:30:51Z</time>
      </trkpt>
      <trkpt lat="50.572428032755852" lon="8.660500030964613">
        <ele>166.44999999999999</ele>
        <time>2019-05-09T12:31:02Z</time>
      </trkpt>
      <trkpt lat="50.572645040228963" lon="8.659947998821735">
        <ele>165.47999999999999</ele>
        <time>2019-05-09T12:31:07Z</time>
      </trkpt>
      <trkpt lat="50.572690973058343" lon="8.659825958311558">
        <ele>165.47999999999999</ele>
        <time>2019-05-09T12:31:08Z</time>
      </trkpt>
      <trkpt lat="50.572742018848658" lon="8.659698972478509">
        <ele>165.47999999999999</ele>
        <time>2019-05-09T12:31:09Z</time>
      </trkpt>
      <trkpt lat="50.572790969163179" lon="8.659582966938615">
        <ele>165.47999999999999</ele>
        <time>2019-05-09T12:31:10Z</time>
      </trkpt>
      <trkpt lat="50.57283204048872" lon="8.65948498249054">
        <ele>165.47999999999999</ele>
        <time>2019-05-09T12:31:11Z</time>
      </trkpt>
      <trkpt lat="50.572870010510087" lon="8.659394960850477">
        <ele>165.47999999999999</ele>
        <time>2019-05-09T12:31:12Z</time>
      </trkpt>
      <trkpt lat="50.572903035208583" lon="8.659314997494221">
        <ele>165.47999999999999</ele>
        <time>2019-05-09T12:31:13Z</time>
      </trkpt>
      <trkpt lat="50.572932958602905" lon="8.659244002774358">
        <ele>165.96000000000001</ele>
        <time>2019-05-09T12:31:14Z</time>
      </trkpt>
      <trkpt lat="50.572900017723441" lon="8.659004028886557">
        <ele>165.96000000000001</ele>
        <time>2019-05-09T12:31:15Z</time>
      </trkpt>
      <trkpt lat="50.572861041873693" lon="8.658956000581384">
        <ele>165.96000000000001</ele>
        <time>2019-05-09T12:31:16Z</time>
      </trkpt>
      <trkpt lat="50.57281200774014" lon="8.658892968669534">
        <ele>166.44999999999999</ele>
        <time>2019-05-09T12:31:17Z</time>
      </trkpt>
      <trkpt lat="50.572752999141812" lon="8.658819040283561">
        <ele>166.44999999999999</ele>
        <time>2019-05-09T12:31:18Z</time>
      </trkpt>
      <trkpt lat="50.572691978886724" lon="8.658743016421795">
        <ele>166.93000000000001</ele>
        <time>2019-05-09T12:31:19Z</time>
      </trkpt>
      <trkpt lat="50.571964010596275" lon="8.657876998186112">
        <ele>166.44999999999999</ele>
        <time>2019-05-09T12:31:29Z</time>
      </trkpt>
      <trkpt lat="50.571192037314177" lon="8.657105024904013">
        <ele>163.08000000000001</ele>
        <time>2019-05-09T12:31:38Z</time>
      </trkpt>
      <trkpt lat="50.570315038785338" lon="8.656216962262988">
        <ele>160.19999999999999</ele>
        <time>2019-05-09T12:31:48Z</time>
      </trkpt>
      <trkpt lat="50.569383976981044" lon="8.655290007591248">
        <ele>164.52000000000001</ele>
        <time>2019-05-09T12:31:57Z</time>
      </trkpt>
      <trkpt lat="50.568333975970745" lon="8.654342014342547">
        <ele>167.41</ele>
        <time>2019-05-09T12:32:08Z</time>
      </trkpt>
      <trkpt lat="50.567338960245252" lon="8.653866006061435">
        <ele>166.44999999999999</ele>
        <time>2019-05-09T12:32:16Z</time>
      </trkpt>
      <trkpt lat="50.567092029377818" lon="8.653815966099501">
        <ele>166.93000000000001</ele>
        <time>2019-05-09T12:32:19Z</time>
      </trkpt>
      <trkpt lat="50.567039977759123" lon="8.653805991634727">
        <ele>167.41</ele>
        <time>2019-05-09T12:32:20Z</time>
      </trkpt>
      <trkpt lat="50.566977029666305" lon="8.653794005513191">
        <ele>167.88999999999999</ele>
        <time>2019-05-09T12:32:22Z</time>
      </trkpt>
      <trkpt lat="50.566977029666305" lon="8.653794005513191">
        <ele>168.37</ele>
        <time>2019-05-09T12:32:34Z</time>
      </trkpt>
      <trkpt lat="50.566949034109712" lon="8.653797022998333">
        <ele>168.84999999999999</ele>
        <time>2019-05-09T12:33:14Z</time>
      </trkpt>
      <trkpt lat="50.566898994147778" lon="8.653801968321204">
        <ele>168.84999999999999</ele>
        <time>2019-05-09T12:33:15Z</time>
      </trkpt>
      <trkpt lat="50.566423991695046" lon="8.653892995789647">
        <ele>169.81</ele>
        <time>2019-05-09T12:33:20Z</time>
      </trkpt>
      <trkpt lat="50.565288998186588" lon="8.65473504178226">
        <ele>169.33000000000001</ele>
        <time>2019-05-09T12:33:29Z</time>
      </trkpt>
      <trkpt lat="50.564364977180958" lon="8.656172035261989">
        <ele>170.28999999999999</ele>
        <time>2019-05-09T12:33:38Z</time>
      </trkpt>
      <trkpt lat="50.563662992790341" lon="8.65735799074173">
        <ele>172.69</ele>
        <time>2019-05-09T12:33:45Z</time>
      </trkpt>
      <trkpt lat="50.563586968928576" lon="8.6575080268085">
        <ele>173.16999999999999</ele>
        <time>2019-05-09T12:33:46Z</time>
      </trkpt>
      <trkpt lat="50.562810972332954" lon="8.658780986443162">
        <ele>175.09999999999999</ele>
        <time>2019-05-09T12:33:54Z</time>
      </trkpt>
      <trkpt lat="50.562733020633459" lon="8.658896991983056">
        <ele>175.58000000000001</ele>
        <time>2019-05-09T12:33:55Z</time>
      </trkpt>
      <trkpt lat="50.56265096180141" lon="8.658909983932972">
        <ele>175.58000000000001</ele>
        <time>2019-05-09T12:33:56Z</time>
      </trkpt>
      <trkpt lat="50.562547026202083" lon="8.658922975882888">
        <ele>176.06</ele>
        <time>2019-05-09T12:33:57Z</time>
      </trkpt>
      <trkpt lat="50.56245599873364" lon="8.658934039995074">
        <ele>176.53999999999999</ele>
        <time>2019-05-09T12:33:58Z</time>
      </trkpt>
      <trkpt lat="50.562301017343998" lon="8.658835971727967">
        <ele>177.02000000000001</ele>
        <time>2019-05-09T12:33:59Z</time>
      </trkpt>
      <trkpt lat="50.562173025682569" lon="8.658729018643498">
        <ele>177.5</ele>
        <time>2019-05-09T12:34:00Z</time>
      </trkpt>
      <trkpt lat="50.562147963792086" lon="8.658694988116622">
        <ele>178.46000000000001</ele>
        <time>2019-05-09T12:34:01Z</time>
      </trkpt>
      <trkpt lat="50.562062971293926" lon="8.658573031425476">
        <ele>178.94</ele>
        <time>2019-05-09T12:34:02Z</time>
      </trkpt>
      <trkpt lat="50.561974961310625" lon="8.658447973430157">
        <ele>179.41999999999999</ele>
        <time>2019-05-09T12:34:03Z</time>
      </trkpt>
      <trkpt lat="50.561901032924652" lon="8.658316964283586">
        <ele>180.38</ele>
        <time>2019-05-09T12:34:05Z</time>
      </trkpt>
      <trkpt lat="50.561850992962718" lon="8.657936006784439">
        <ele>180.87</ele>
        <time>2019-05-09T12:34:06Z</time>
      </trkpt>
      <trkpt lat="50.561914024874568" lon="8.657727967947722">
        <ele>181.34999999999999</ele>
        <time>2019-05-09T12:34:07Z</time>
      </trkpt>
      <trkpt lat="50.562001029029489" lon="8.657549014315009">
        <ele>181.83000000000001</ele>
        <time>2019-05-09T12:34:08Z</time>
      </trkpt>
      <trkpt lat="50.562110999599099" lon="8.657385986298323">
        <ele>181.83000000000001</ele>
        <time>2019-05-09T12:34:09Z</time>
      </trkpt>
      <trkpt lat="50.562224993482232" lon="8.657217007130384">
        <ele>182.31</ele>
        <time>2019-05-09T12:34:10Z</time>
      </trkpt>
      <trkpt lat="50.562437977641821" lon="8.656902015209198">
        <ele>182.78999999999999</ele>
        <time>2019-05-09T12:34:12Z</time>
      </trkpt>
      <trkpt lat="50.562526993453503" lon="8.656770000234246">
        <ele>183.27000000000001</ele>
        <time>2019-05-09T12:34:13Z</time>
      </trkpt>
      <trkpt lat="50.562630007043481" lon="8.65673303604126">
        <ele>183.27000000000001</ele>
        <time>2019-05-09T12:34:14Z</time>
      </trkpt>
      <trkpt lat="50.562719022855163" lon="8.65671300329268">
        <ele>183.75</ele>
        <time>2019-05-09T12:34:15Z</time>
      </trkpt>
      <trkpt lat="50.562816001474857" lon="8.65669003687799">
        <ele>183.75</ele>
        <time>2019-05-09T12:34:16Z</time>
      </trkpt>
      <trkpt lat="50.562890013679862" lon="8.656763965263963">
        <ele>184.22999999999999</ele>
        <time>2019-05-09T12:34:17Z</time>
      </trkpt>
      <trkpt lat="50.562963020056486" lon="8.656874019652605">
        <ele>184.22999999999999</ele>
        <time>2019-05-09T12:34:18Z</time>
      </trkpt>
      <trkpt lat="50.563007025048137" lon="8.657005028799176">
        <ele>184.71000000000001</ele>
        <time>2019-05-09T12:34:19Z</time>
      </trkpt>
      <trkpt lat="50.562999984249473" lon="8.657150035724044">
        <ele>184.71000000000001</ele>
        <time>2019-05-09T12:34:20Z</time>
      </trkpt>
      <trkpt lat="50.562989003956318" lon="8.657300993800163">
        <ele>184.71000000000001</ele>
        <time>2019-05-09T12:34:21Z</time>
      </trkpt>
      <trkpt lat="50.562937036156654" lon="8.657423034310341">
        <ele>184.71000000000001</ele>
        <time>2019-05-09T12:34:22Z</time>
      </trkpt>
      <trkpt lat="50.562869980931282" lon="8.657568963244557">
        <ele>185.19</ele>
        <time>2019-05-09T12:34:23Z</time>
      </trkpt>
      <trkpt lat="50.562794962897897" lon="8.657732997089624">
        <ele>185.19</ele>
        <time>2019-05-09T12:34:24Z</time>
      </trkpt>
      <trkpt lat="50.562018966302276" lon="8.658958012238145">
        <ele>186.15000000000001</ele>
        <time>2019-05-09T12:34:30Z</time>
      </trkpt>
      <trkpt lat="50.560379968956113" lon="8.661235962063074">
        <ele>188.08000000000001</ele>
        <time>2019-05-09T12:34:39Z</time>
      </trkpt>
      <trkpt lat="50.558753963559866" lon="8.662807988002896">
        <ele>189.03999999999999</ele>
        <time>2019-05-09T12:34:47Z</time>
      </trkpt>
      <trkpt lat="50.557161988690495" lon="8.663470996543765">
        <ele>190.47999999999999</ele>
        <time>2019-05-09T12:34:54Z</time>
      </trkpt>
      <trkpt lat="50.55564402602613" lon="8.663684986531735">
        <ele>192.88</ele>
        <time>2019-05-09T12:35:01Z</time>
      </trkpt>
      <trkpt lat="50.554842967540026" lon="8.66356797516346">
        <ele>193.36000000000001</ele>
        <time>2019-05-09T12:35:05Z</time>
      </trkpt>
      <trkpt lat="50.554640963673592" lon="8.663492035120726">
        <ele>192.88</ele>
        <time>2019-05-09T12:35:06Z</time>
      </trkpt>
      <trkpt lat="50.55446301586926" lon="8.66335297934711">
        <ele>192.88</ele>
        <time>2019-05-09T12:35:07Z</time>
      </trkpt>
      <trkpt lat="50.554285990074277" lon="8.663185006007552">
        <ele>192.40000000000001</ele>
        <time>2019-05-09T12:35:08Z</time>
      </trkpt>
      <trkpt lat="50.554128997027874" lon="8.662977972999215">
        <ele>191.91999999999999</ele>
        <time>2019-05-09T12:35:09Z</time>
      </trkpt>
      <trkpt lat="50.553975021466613" lon="8.662775969132781">
        <ele>191.44</ele>
        <time>2019-05-09T12:35:10Z</time>
      </trkpt>
      <trkpt lat="50.553847029805183" lon="8.662548987194896">
        <ele>190.96000000000001</ele>
        <time>2019-05-09T12:35:11Z</time>
      </trkpt>
      <trkpt lat="50.552914040163159" lon="8.660645037889481">
        <ele>190.47999999999999</ele>
        <time>2019-05-09T12:35:19Z</time>
      </trkpt>
      <trkpt lat="50.552129996940494" lon="8.659283984452486">
        <ele>190.47999999999999</ele>
        <time>2019-05-09T12:35:27Z</time>
      </trkpt>
      <trkpt lat="50.550644975155592" lon="8.657136037945747">
        <ele>190.47999999999999</ele>
        <time>2019-05-09T12:35:38Z</time>
      </trkpt>
      <trkpt lat="50.549485003575683" lon="8.655904987826943">
        <ele>187.11000000000001</ele>
        <time>2019-05-09T12:35:45Z</time>
      </trkpt>
      <trkpt lat="50.548076005652547" lon="8.654735963791609">
        <ele>185.19</ele>
        <time>2019-05-09T12:35:52Z</time>
      </trkpt>
      <trkpt lat="50.545973991975188" lon="8.65333903580904">
        <ele>180.38</ele>
        <time>2019-05-09T12:36:02Z</time>
      </trkpt>
      <trkpt lat="50.543911959975958" lon="8.652049982920289">
        <ele>175.09999999999999</ele>
        <time>2019-05-09T12:36:12Z</time>
      </trkpt>
      <trkpt lat="50.541559997946024" lon="8.650272013619542">
        <ele>171.25</ele>
        <time>2019-05-09T12:36:24Z</time>
      </trkpt>
      <trkpt lat="50.539550017565489" lon="8.648330010473728">
        <ele>170.28999999999999</ele>
        <time>2019-05-09T12:36:35Z</time>
      </trkpt>
      <trkpt lat="50.538001041859388" lon="8.646667040884495">
        <ele>172.69</ele>
        <time>2019-05-09T12:36:42Z</time>
      </trkpt>
      <trkpt lat="50.53602802567184" lon="8.644509958103299">
        <ele>177.02000000000001</ele>
        <time>2019-05-09T12:36:50Z</time>
      </trkpt>
      <trkpt lat="50.534362038597465" lon="8.642965005710721">
        <ele>179.90000000000001</ele>
        <time>2019-05-09T12:36:56Z</time>
      </trkpt>
      <trkpt lat="50.532005969434977" lon="8.641414018347859">
        <ele>177.5</ele>
        <time>2019-05-09T12:37:04Z</time>
      </trkpt>
      <trkpt lat="50.529845030978322" lon="8.640532996505499">
        <ele>176.53999999999999</ele>
        <time>2019-05-09T12:37:11Z</time>
      </trkpt>
      <trkpt lat="50.526841962710023" lon="8.639939976856113">
        <ele>176.06</ele>
        <time>2019-05-09T12:37:20Z</time>
      </trkpt>
      <trkpt lat="50.524613969027996" lon="8.639948023483157">
        <ele>175.58000000000001</ele>
        <time>2019-05-09T12:37:27Z</time>
      </trkpt>
      <trkpt lat="50.523227015510201" lon="8.640189003199339">
        <ele>175.58000000000001</ele>
        <time>2019-05-09T12:37:34Z</time>
      </trkpt>
      <trkpt lat="50.52292400971055" lon="8.640206018462777">
        <ele>175.58000000000001</ele>
        <time>2019-05-09T12:37:35Z</time>
      </trkpt>
      <trkpt lat="50.522808004170656" lon="8.640178022906184">
        <ele>175.58000000000001</ele>
        <time>2019-05-09T12:37:36Z</time>
      </trkpt>
      <trkpt lat="50.522700967267156" lon="8.640071991831064">
        <ele>175.58000000000001</ele>
        <time>2019-05-09T12:37:37Z</time>
      </trkpt>
      <trkpt lat="50.522598037496209" lon="8.639967972412705">
        <ele>175.58000000000001</ele>
        <time>2019-05-09T12:37:38Z</time>
      </trkpt>
      <trkpt lat="50.522526036947966" lon="8.63984702154994">
        <ele>175.58000000000001</ele>
        <time>2019-05-09T12:37:39Z</time>
      </trkpt>
      <trkpt lat="50.522484965622425" lon="8.639661027118564">
        <ele>175.58000000000001</ele>
        <time>2019-05-09T12:37:40Z</time>
      </trkpt>
      <trkpt lat="50.522454036399722" lon="8.639470003545284">
        <ele>175.58000000000001</ele>
        <time>2019-05-09T12:37:41Z</time>
      </trkpt>
      <trkpt lat="50.522469040006399" lon="8.639265988022089">
        <ele>176.06</ele>
        <time>2019-05-09T12:37:42Z</time>
      </trkpt>
      <trkpt lat="50.522529976442456" lon="8.639079993590713">
        <ele>176.06</ele>
        <time>2019-05-09T12:37:43Z</time>
      </trkpt>
      <trkpt lat="50.522618992254138" lon="8.63892400637269">
        <ele>176.53999999999999</ele>
        <time>2019-05-09T12:37:44Z</time>
      </trkpt>
      <trkpt lat="50.522715970873833" lon="8.638789979740977">
        <ele>177.02000000000001</ele>
        <time>2019-05-09T12:37:45Z</time>
      </trkpt>
      <trkpt lat="50.522842034697533" lon="8.638725019991398">
        <ele>177.02000000000001</ele>
        <time>2019-05-09T12:37:46Z</time>
      </trkpt>
      <trkpt lat="50.522975977510214" lon="8.638714039698243">
        <ele>177.5</ele>
        <time>2019-05-09T12:37:47Z</time>
      </trkpt>
      <trkpt lat="50.523108998313546" lon="8.638762990012765">
        <ele>177.5</ele>
        <time>2019-05-09T12:37:48Z</time>
      </trkpt>
      <trkpt lat="50.523227015510201" lon="8.638848988339305">
        <ele>177.97999999999999</ele>
        <time>2019-05-09T12:37:49Z</time>
      </trkpt>
      <trkpt lat="50.523319970816374" lon="8.638995001092553">
        <ele>177.97999999999999</ele>
        <time>2019-05-09T12:37:50Z</time>
      </trkpt>
      <trkpt lat="50.523394988849759" lon="8.639165991917253">
        <ele>177.97999999999999</ele>
        <time>2019-05-09T12:37:51Z</time>
      </trkpt>
      <trkpt lat="50.523430025205016" lon="8.639361960813403">
        <ele>177.97999999999999</ele>
        <time>2019-05-09T12:37:52Z</time>
      </trkpt>
      <trkpt lat="50.523444022983313" lon="8.639565976336598">
        <ele>177.97999999999999</ele>
        <time>2019-05-09T12:37:53Z</time>
      </trkpt>
      <trkpt lat="50.52346296608448" lon="8.63984601572156">
        <ele>177.97999999999999</ele>
        <time>2019-05-09T12:37:54Z</time>
      </trkpt>
      <trkpt lat="50.523443017154932" lon="8.639985993504524">
        <ele>177.97999999999999</ele>
        <time>2019-05-09T12:37:55Z</time>
      </trkpt>
      <trkpt lat="50.523399012163281" lon="8.640210963785648">
        <ele>177.97999999999999</ele>
        <time>2019-05-09T12:37:56Z</time>
      </trkpt>
      <trkpt lat="50.523082008585334" lon="8.641680981963873">
        <ele>177.5</ele>
        <time>2019-05-09T12:38:02Z</time>
      </trkpt>
      <trkpt lat="50.52255998365581" lon="8.644120031967759">
        <ele>176.53999999999999</ele>
        <time>2019-05-09T12:38:10Z</time>
      </trkpt>
      <trkpt lat="50.52198096178472" lon="8.647123016417027">
        <ele>177.97999999999999</ele>
        <time>2019-05-09T12:38:19Z</time>
      </trkpt>
      <trkpt lat="50.521337985992432" lon="8.649969007819891">
        <ele>179.90000000000001</ele>
        <time>2019-05-09T12:38:26Z</time>
      </trkpt>
      <trkpt lat="50.520711019635201" lon="8.652393976226449">
        <ele>183.27000000000001</ele>
        <time>2019-05-09T12:38:33Z</time>
      </trkpt>
      <trkpt lat="50.519835026934743" lon="8.655784958973527">
        <ele>185.66999999999999</ele>
        <time>2019-05-09T12:38:44Z</time>
      </trkpt>
      <trkpt lat="50.518697015941143" lon="8.659770973026753">
        <ele>192.40000000000001</ele>
        <time>2019-05-09T12:38:56Z</time>
      </trkpt>
      <trkpt lat="50.517711974680424" lon="8.663074029609561">
        <ele>198.65000000000001</ele>
        <time>2019-05-09T12:39:06Z</time>
      </trkpt>
      <trkpt lat="50.516681000590324" lon="8.666019011288881">
        <ele>202.00999999999999</ele>
        <time>2019-05-09T12:39:15Z</time>
      </trkpt>
      <trkpt lat="50.514756012707949" lon="8.670406015589833">
        <ele>213.06999999999999</ele>
        <time>2019-05-09T12:39:29Z</time>
      </trkpt>
      <trkpt lat="50.513275014236569" lon="8.672916982322931">
        <ele>218.84</ele>
        <time>2019-05-09T12:39:37Z</time>
      </trkpt>
      <trkpt lat="50.511478018015623" lon="8.675430966541171">
        <ele>225.09</ele>
        <time>2019-05-09T12:39:44Z</time>
      </trkpt>
      <trkpt lat="50.509139969944954" lon="8.677951991558075">
        <ele>232.78</ele>
        <time>2019-05-09T12:39:52Z</time>
      </trkpt>
      <trkpt lat="50.507301986217499" lon="8.679489986971021">
        <ele>237.58000000000001</ele>
        <time>2019-05-09T12:39:59Z</time>
      </trkpt>
      <trkpt lat="50.504751959815621" lon="8.681084979325533">
        <ele>243.34999999999999</ele>
        <time>2019-05-09T12:40:09Z</time>
      </trkpt>
      <trkpt lat="50.502595966681838" lon="8.681970024481416">
        <ele>246.22999999999999</ele>
        <time>2019-05-09T12:40:17Z</time>
      </trkpt>
      <trkpt lat="50.501007009297609" lon="8.682428011670709">
        <ele>247.68000000000001</ele>
        <time>2019-05-09T12:40:24Z</time>
      </trkpt>
      <trkpt lat="50.498725958168507" lon="8.682822966948152">
        <ele>248.63999999999999</ele>
        <time>2019-05-09T12:40:36Z</time>
      </trkpt>
      <trkpt lat="50.495913997292519" lon="8.683342980220914">
        <ele>252</ele>
        <time>2019-05-09T12:40:51Z</time>
      </trkpt>
      <trkpt lat="50.493995966389775" lon="8.683879002928734">
        <ele>254.41</ele>
        <time>2019-05-09T12:41:00Z</time>
      </trkpt>
      <trkpt lat="50.491847014054656" lon="8.684867983683944">
        <ele>256.81</ele>
        <time>2019-05-09T12:41:08Z</time>
      </trkpt>
      <trkpt lat="50.489760003983974" lon="8.686300031840801">
        <ele>263.06</ele>
        <time>2019-05-09T12:41:17Z</time>
      </trkpt>
      <trkpt lat="50.487546008080244" lon="8.688419982790947">
        <ele>269.31</ele>
        <time>2019-05-09T12:41:27Z</time>
      </trkpt>
      <trkpt lat="50.485935006290674" lon="8.69044303894043">
        <ele>270.75</ele>
        <time>2019-05-09T12:41:34Z</time>
      </trkpt>
      <trkpt lat="50.484318975359201" lon="8.693056013435125">
        <ele>267.38</ele>
        <time>2019-05-09T12:41:42Z</time>
      </trkpt>
      <trkpt lat="50.482644019648433" lon="8.696627039462328">
        <ele>259.20999999999998</ele>
        <time>2019-05-09T12:41:51Z</time>
      </trkpt>
      <trkpt lat="50.481309033930302" lon="8.700679019093514">
        <ele>246.72</ele>
        <time>2019-05-09T12:42:00Z</time>
      </trkpt>
      <trkpt lat="50.480098016560078" lon="8.705688966438174">
        <ele>233.25999999999999</ele>
        <time>2019-05-09T12:42:10Z</time>
      </trkpt>
      <trkpt lat="50.479320008307695" lon="8.709465013816953">
        <ele>224.12</ele>
        <time>2019-05-09T12:42:18Z</time>
      </trkpt>
      <trkpt lat="50.478241005912423" lon="8.714220989495516">
        <ele>217.40000000000001</ele>
        <time>2019-05-09T12:42:28Z</time>
      </trkpt>
      <trkpt lat="50.47705496661365" lon="8.717531003057957">
        <ele>215.47</ele>
        <time>2019-05-09T12:42:36Z</time>
      </trkpt>
      <trkpt lat="50.47582701779902" lon="8.719819011166692">
        <ele>214.03</ele>
        <time>2019-05-09T12:42:42Z</time>
      </trkpt>
      <trkpt lat="50.474220039322972" lon="8.721601003780961">
        <ele>213.06999999999999</ele>
        <time>2019-05-09T12:42:48Z</time>
      </trkpt>
      <trkpt lat="50.472394963726401" lon="8.7227370031178">
        <ele>211.15000000000001</ele>
        <time>2019-05-09T12:42:54Z</time>
      </trkpt>
      <trkpt lat="50.470418008044362" lon="8.723044032230973">
        <ele>208.25999999999999</ele>
        <time>2019-05-09T12:43:00Z</time>
      </trkpt>
      <trkpt lat="50.467360960319638" lon="8.722423017024994">
        <ele>199.13</ele>
        <time>2019-05-09T12:43:09Z</time>
      </trkpt>
      <trkpt lat="50.464647989720106" lon="8.721397994086146">
        <ele>187.11000000000001</ele>
        <time>2019-05-09T12:43:17Z</time>
      </trkpt>
      <trkpt lat="50.461689010262489" lon="8.720001988112927">
        <ele>184.71000000000001</ele>
        <time>2019-05-09T12:43:26Z</time>
      </trkpt>
      <trkpt lat="50.459122974425554" lon="8.718066019937396">
        <ele>178.46000000000001</ele>
        <time>2019-05-09T12:43:34Z</time>
      </trkpt>
      <trkpt lat="50.456743016839027" lon="8.715474000200629">
        <ele>167.88999999999999</ele>
        <time>2019-05-09T12:43:42Z</time>
      </trkpt>
      <trkpt lat="50.454702023416758" lon="8.712397003546357">
        <ele>172.69</ele>
        <time>2019-05-09T12:43:50Z</time>
      </trkpt>
      <trkpt lat="50.452964035794139" lon="8.708783984184265">
        <ele>181.83000000000001</ele>
        <time>2019-05-09T12:43:58Z</time>
      </trkpt>
      <trkpt lat="50.450272019952536" lon="8.702697968110442">
        <ele>176.06</ele>
        <time>2019-05-09T12:44:11Z</time>
      </trkpt>
      <trkpt lat="50.448307972401381" lon="8.698655962944031">
        <ele>175.09999999999999</ele>
        <time>2019-05-09T12:44:20Z</time>
      </trkpt>
      <trkpt lat="50.446625975891948" lon="8.696550009772182">
        <ele>178.46000000000001</ele>
        <time>2019-05-09T12:44:26Z</time>
      </trkpt>
      <trkpt lat="50.444656983017921" lon="8.695134976878762">
        <ele>179.41999999999999</ele>
        <time>2019-05-09T12:44:32Z</time>
      </trkpt>
      <trkpt lat="50.443010022863746" lon="8.694556038826704">
        <ele>177.02000000000001</ele>
        <time>2019-05-09T12:44:37Z</time>
      </trkpt>
      <trkpt lat="50.441226018592715" lon="8.694450007751584">
        <ele>174.62</ele>
        <time>2019-05-09T12:44:43Z</time>
      </trkpt>
      <trkpt lat="50.439201034605503" lon="8.69478402659297">
        <ele>174.62</ele>
        <time>2019-05-09T12:44:51Z</time>
      </trkpt>
      <trkpt lat="50.43605899438262" lon="8.695345027372241">
        <ele>177.5</ele>
        <time>2019-05-09T12:45:04Z</time>
      </trkpt>
      <trkpt lat="50.433037988841534" lon="8.695854982361198">
        <ele>174.62</ele>
        <time>2019-05-09T12:45:15Z</time>
      </trkpt>
      <trkpt lat="50.43064302764833" lon="8.696277011185885">
        <ele>168.84999999999999</ele>
        <time>2019-05-09T12:45:24Z</time>
      </trkpt>
      <trkpt lat="50.427810028195381" lon="8.696774980053306">
        <ele>172.21000000000001</ele>
        <time>2019-05-09T12:45:34Z</time>
      </trkpt>
      <trkpt lat="50.424219975247979" lon="8.697404963895679">
        <ele>177.02000000000001</ele>
        <time>2019-05-09T12:45:46Z</time>
      </trkpt>
      <trkpt lat="50.420155003666878" lon="8.698110971599817">
        <ele>176.06</ele>
        <time>2019-05-09T12:45:59Z</time>
      </trkpt>
      <trkpt lat="50.415831031277776" lon="8.698861990123987">
        <ele>172.69</ele>
        <time>2019-05-09T12:46:12Z</time>
      </trkpt>
      <trkpt lat="50.412613973021507" lon="8.699420979246497">
        <ele>169.81</ele>
        <time>2019-05-09T12:46:22Z</time>
      </trkpt>
      <trkpt lat="50.408256975933909" lon="8.70017702691257">
        <ele>173.16999999999999</ele>
        <time>2019-05-09T12:46:36Z</time>
      </trkpt>
      <trkpt lat="50.404443964362144" lon="8.700855039060116">
        <ele>176.06</ele>
        <time>2019-05-09T12:46:48Z</time>
      </trkpt>
      <trkpt lat="50.399953024461865" lon="8.701622989028692">
        <ele>188.08000000000001</ele>
        <time>2019-05-09T12:47:02Z</time>
      </trkpt>
      <trkpt lat="50.394583996385336" lon="8.702560001984239">
        <ele>197.21000000000001</ele>
        <time>2019-05-09T12:47:19Z</time>
      </trkpt>
      <trkpt lat="50.390848014503717" lon="8.703214041888714">
        <ele>192.40000000000001</ele>
        <time>2019-05-09T12:47:31Z</time>
      </trkpt>
      <trkpt lat="50.386384986341" lon="8.703999007120729">
        <ele>183.75</ele>
        <time>2019-05-09T12:47:47Z</time>
      </trkpt>
      <trkpt lat="50.384133020415902" lon="8.704396979883313">
        <ele>177.5</ele>
        <time>2019-05-09T12:47:57Z</time>
      </trkpt>
      <trkpt lat="50.38015203550458" lon="8.705091001465917">
        <ele>170.28999999999999</ele>
        <time>2019-05-09T12:48:15Z</time>
      </trkpt>
      <trkpt lat="50.377035979181528" lon="8.705604979768395">
        <ele>167.88999999999999</ele>
        <time>2019-05-09T12:48:29Z</time>
      </trkpt>
      <trkpt lat="50.374956009909511" lon="8.705714028328657">
        <ele>176.53999999999999</ele>
        <time>2019-05-09T12:48:38Z</time>
      </trkpt>
      <trkpt lat="50.372300036251545" lon="8.705270038917661">
        <ele>193.84</ele>
        <time>2019-05-09T12:48:50Z</time>
      </trkpt>
      <trkpt lat="50.370167009532452" lon="8.70445498265326">
        <ele>204.90000000000001</ele>
        <time>2019-05-09T12:49:00Z</time>
      </trkpt>
      <trkpt lat="50.368167003616691" lon="8.70327397249639">
        <ele>209.69999999999999</ele>
        <time>2019-05-09T12:49:10Z</time>
      </trkpt>
      <trkpt lat="50.365826021879911" lon="8.701431965455413">
        <ele>213.06999999999999</ele>
        <time>2019-05-09T12:49:22Z</time>
      </trkpt>
      <trkpt lat="50.363087989389896" lon="8.69918704032898">
        <ele>224.12</ele>
        <time>2019-05-09T12:49:36Z</time>
      </trkpt>
      <trkpt lat="50.360136972740293" lon="8.69676198810339">
        <ele>235.66</ele>
        <time>2019-05-09T12:49:51Z</time>
      </trkpt>
      <trkpt lat="50.357750980183482" lon="8.694938002154231">
        <ele>251.03999999999999</ele>
        <time>2019-05-09T12:50:03Z</time>
      </trkpt>
      <trkpt lat="50.355385020375252" lon="8.693695971742272">
        <ele>256.32999999999998</ele>
        <time>2019-05-09T12:50:14Z</time>
      </trkpt>
      <trkpt lat="50.352952005341649" lon="8.692946964874864">
        <ele>256.81</ele>
        <time>2019-05-09T12:50:25Z</time>
      </trkpt>
      <trkpt lat="50.350513961166143" lon="8.692739009857178">
        <ele>258.25</ele>
        <time>2019-05-09T12:50:36Z</time>
      </trkpt>
      <trkpt lat="50.348266018554568" lon="8.693005973473191">
        <ele>263.06</ele>
        <time>2019-05-09T12:50:46Z</time>
      </trkpt>
      <trkpt lat="50.345857981592417" lon="8.693760009482503">
        <ele>262.57999999999998</ele>
        <time>2019-05-09T12:50:57Z</time>
      </trkpt>
      <trkpt lat="50.343232015147805" lon="8.694749996066093">
        <ele>260.17000000000002</ele>
        <time>2019-05-09T12:51:09Z</time>
      </trkpt>
      <trkpt lat="50.340159963816404" lon="8.695794967934489">
        <ele>254.88999999999999</ele>
        <time>2019-05-09T12:51:23Z</time>
      </trkpt>
      <trkpt lat="50.337927024811506" lon="8.696147007867694">
        <ele>248.16</ele>
        <time>2019-05-09T12:51:33Z</time>
      </trkpt>
      <trkpt lat="50.335226962342858" lon="8.695895969867706">
        <ele>233.25999999999999</ele>
        <time>2019-05-09T12:51:45Z</time>
      </trkpt>
      <trkpt lat="50.332809034734964" lon="8.695367993786931">
        <ele>224.61000000000001</ele>
        <time>2019-05-09T12:51:56Z</time>
      </trkpt>
      <trkpt lat="50.330852027982473" lon="8.694896008819342">
        <ele>223.16</ele>
        <time>2019-05-09T12:52:05Z</time>
      </trkpt>
      <trkpt lat="50.328506017103791" lon="8.694342970848084">
        <ele>227.00999999999999</ele>
        <time>2019-05-09T12:52:16Z</time>
      </trkpt>
      <trkpt lat="50.326026985421777" lon="8.693759003654122">
        <ele>233.25999999999999</ele>
        <time>2019-05-09T12:52:27Z</time>
      </trkpt>
      <trkpt lat="50.323530016466975" lon="8.693171013146639">
        <ele>232.78</ele>
        <time>2019-05-09T12:52:38Z</time>
      </trkpt>
      <trkpt lat="50.321409981697798" lon="8.692672038450837">
        <ele>226.53</ele>
        <time>2019-05-09T12:52:47Z</time>
      </trkpt>
      <trkpt lat="50.318351006135345" lon="8.691797973588109">
        <ele>227.49000000000001</ele>
        <time>2019-05-09T12:53:01Z</time>
      </trkpt>
      <trkpt lat="50.316003989428282" lon="8.690634984523058">
        <ele>237.09999999999999</ele>
        <time>2019-05-09T12:53:12Z</time>
      </trkpt>
      <trkpt lat="50.313759986311197" lon="8.688952988013625">
        <ele>243.83000000000001</ele>
        <time>2019-05-09T12:53:23Z</time>
      </trkpt>
      <trkpt lat="50.311495028436184" lon="8.686618963256478">
        <ele>246.72</ele>
        <time>2019-05-09T12:53:35Z</time>
      </trkpt>
      <trkpt lat="50.309498040005565" lon="8.684294996783137">
        <ele>244.78999999999999</ele>
        <time>2019-05-09T12:53:46Z</time>
      </trkpt>
      <trkpt lat="50.307536004111171" lon="8.681981004774571">
        <ele>250.56</ele>
        <time>2019-05-09T12:53:57Z</time>
      </trkpt>
      <trkpt lat="50.305361989885569" lon="8.679467020556331">
        <ele>259.20999999999998</ele>
        <time>2019-05-09T12:54:09Z</time>
      </trkpt>
      <trkpt lat="50.303296018391848" lon="8.677260987460613">
        <ele>262.57999999999998</ele>
        <time>2019-05-09T12:54:20Z</time>
      </trkpt>
      <trkpt lat="50.301069030538201" lon="8.675455022603273">
        <ele>264.01999999999998</ele>
        <time>2019-05-09T12:54:31Z</time>
      </trkpt>
      <trkpt lat="50.299143036827445" lon="8.674376020208001">
        <ele>261.62</ele>
        <time>2019-05-09T12:54:40Z</time>
      </trkpt>
      <trkpt lat="50.297374958172441" lon="8.673673029989004">
        <ele>256.81</ele>
        <time>2019-05-09T12:54:48Z</time>
      </trkpt>
      <trkpt lat="50.294430982321501" lon="8.672681031748653">
        <ele>242.38999999999999</ele>
        <time>2019-05-09T12:55:01Z</time>
      </trkpt>
      <trkpt lat="50.292526027187705" lon="8.672021040692926">
        <ele>236.13999999999999</ele>
        <time>2019-05-09T12:55:08Z</time>
      </trkpt>
      <trkpt lat="50.288880988955498" lon="8.670772975310683">
        <ele>228.44999999999999</ele>
        <time>2019-05-09T12:55:20Z</time>
      </trkpt>
      <trkpt lat="50.285824025049806" lon="8.669747030362487">
        <ele>219.80000000000001</ele>
        <time>2019-05-09T12:55:30Z</time>
      </trkpt>
      <trkpt lat="50.28276102617383" lon="8.66870298050344">
        <ele>215.47</ele>
        <time>2019-05-09T12:55:40Z</time>
      </trkpt>
      <trkpt lat="50.279441038146615" lon="8.667580978944898">
        <ele>222.68000000000001</ele>
        <time>2019-05-09T12:55:51Z</time>
      </trkpt>
      <trkpt lat="50.276738964021206" lon="8.666658969596028">
        <ele>228.44999999999999</ele>
        <time>2019-05-09T12:55:59Z</time>
      </trkpt>
      <trkpt lat="50.272166971117258" lon="8.665112005546689">
        <ele>220.75999999999999</ele>
        <time>2019-05-09T12:56:12Z</time>
      </trkpt>
      <trkpt lat="50.268286988139153" lon="8.663795040920377">
        <ele>203.94</ele>
        <time>2019-05-09T12:56:23Z</time>
      </trkpt>
      <trkpt lat="50.26480003260076" lon="8.662789966911078">
        <ele>191.91999999999999</ele>
        <time>2019-05-09T12:56:33Z</time>
      </trkpt>
      <trkpt lat="50.261936020106077" lon="8.662573965266347">
        <ele>186.15000000000001</ele>
        <time>2019-05-09T12:56:41Z</time>
      </trkpt>
      <trkpt lat="50.256938980892301" lon="8.6626420263201">
        <ele>179.90000000000001</ele>
        <time>2019-05-09T12:56:55Z</time>
      </trkpt>
      <trkpt lat="50.254416028037667" lon="8.662678990513086">
        <ele>183.75</ele>
        <time>2019-05-09T12:57:03Z</time>
      </trkpt>
      <trkpt lat="50.251137027516961" lon="8.662730036303401">
        <ele>182.31</ele>
        <time>2019-05-09T12:57:14Z</time>
      </trkpt>
      <trkpt lat="50.247534988448024" lon="8.662777980789542">
        <ele>180.87</ele>
        <time>2019-05-09T12:57:26Z</time>
      </trkpt>
      <trkpt lat="50.243627009913325" lon="8.662827014923096">
        <ele>171.25</ele>
        <time>2019-05-09T12:57:38Z</time>
      </trkpt>
      <trkpt lat="50.240713963285089" lon="8.662865990772843">
        <ele>169.33000000000001</ele>
        <time>2019-05-09T12:57:46Z</time>
      </trkpt>
      <trkpt lat="50.236618984490633" lon="8.662928016856313">
        <ele>165.47999999999999</ele>
        <time>2019-05-09T12:57:58Z</time>
      </trkpt>
      <trkpt lat="50.232299035415053" lon="8.662998005747795">
        <ele>163.08000000000001</ele>
        <time>2019-05-09T12:58:10Z</time>
      </trkpt>
      <trkpt lat="50.227569965645671" lon="8.663060031831265">
        <ele>159.72</ele>
        <time>2019-05-09T12:58:23Z</time>
      </trkpt>
      <trkpt lat="50.223351018503308" lon="8.663099007681012">
        <ele>158.75</ele>
        <time>2019-05-09T12:58:35Z</time>
      </trkpt>
      <trkpt lat="50.219514034688473" lon="8.663162961602211">
        <ele>158.75</ele>
        <time>2019-05-09T12:58:46Z</time>
      </trkpt>
      <trkpt lat="50.216819001361728" lon="8.662850987166166">
        <ele>152.50999999999999</ele>
        <time>2019-05-09T12:58:54Z</time>
      </trkpt>
      <trkpt lat="50.21411600522697" lon="8.661867035552859">
        <ele>140.97</ele>
        <time>2019-05-09T12:59:02Z</time>
      </trkpt>
      <trkpt lat="50.211718026548624" lon="8.660417972132564">
        <ele>133.28</ele>
        <time>2019-05-09T12:59:09Z</time>
      </trkpt>
      <trkpt lat="50.209995964542031" lon="8.658939991146326">
        <ele>136.16</ele>
        <time>2019-05-09T12:59:15Z</time>
      </trkpt>
      <trkpt lat="50.208200979977846" lon="8.656975021585822">
        <ele>136.63999999999999</ele>
        <time>2019-05-09T12:59:22Z</time>
      </trkpt>
      <trkpt lat="50.206187982112169" lon="8.654032973572612">
        <ele>136.16</ele>
        <time>2019-05-09T12:59:30Z</time>
      </trkpt>
      <trkpt lat="50.203726971521974" lon="8.649773960933089">
        <ele>145.78</ele>
        <time>2019-05-09T12:59:42Z</time>
      </trkpt>
      <trkpt lat="50.201593022793531" lon="8.646104028448463">
        <ele>153.47</ele>
        <time>2019-05-09T12:59:53Z</time>
      </trkpt>
      <trkpt lat="50.199471982195973" lon="8.642420014366508">
        <ele>153.94999999999999</ele>
        <time>2019-05-09T13:00:05Z</time>
      </trkpt>
      <trkpt lat="50.197729971259832" lon="8.639424992725253">
        <ele>155.87</ele>
        <time>2019-05-09T13:00:15Z</time>
      </trkpt>
      <trkpt lat="50.1961550116539" lon="8.636696012690663">
        <ele>154.91</ele>
        <time>2019-05-09T13:00:25Z</time>
      </trkpt>
      <trkpt lat="50.194631014019251" lon="8.634032998234034">
        <ele>153.47</ele>
        <time>2019-05-09T13:00:36Z</time>
      </trkpt>
      <trkpt lat="50.193518986925483" lon="8.632126031443477">
        <ele>149.13999999999999</ele>
        <time>2019-05-09T13:00:45Z</time>
      </trkpt>
      <trkpt lat="50.192364966496825" lon="8.630118984729052">
        <ele>143.37</ele>
        <time>2019-05-09T13:00:53Z</time>
      </trkpt>
      <trkpt lat="50.190277034416795" lon="8.626535972580314">
        <ele>138.09</ele>
        <time>2019-05-09T13:01:05Z</time>
      </trkpt>
      <trkpt lat="50.188520019873977" lon="8.623554026708007">
        <ele>141.93000000000001</ele>
        <time>2019-05-09T13:01:16Z</time>
      </trkpt>
      <trkpt lat="50.186797035858035" lon="8.621097039431334">
        <ele>149.62</ele>
        <time>2019-05-09T13:01:26Z</time>
      </trkpt>
      <trkpt lat="50.184686975553632" lon="8.618819005787373">
        <ele>154.43000000000001</ele>
        <time>2019-05-09T13:01:37Z</time>
      </trkpt>
      <trkpt lat="50.182884028181434" lon="8.617358040064573">
        <ele>155.38999999999999</ele>
        <time>2019-05-09T13:01:46Z</time>
      </trkpt>
      <trkpt lat="50.181555999442935" lon="8.616513982415199">
        <ele>156.34999999999999</ele>
        <time>2019-05-09T13:01:54Z</time>
      </trkpt>
      <trkpt lat="50.180415976792574" lon="8.615877041593194">
        <ele>155.87</ele>
        <time>2019-05-09T13:02:03Z</time>
      </trkpt>
      <trkpt lat="50.179860005155206" lon="8.615566994994879">
        <ele>156.83000000000001</ele>
        <time>2019-05-09T13:02:11Z</time>
      </trkpt>
      <trkpt lat="50.179644003510475" lon="8.615446966141462">
        <ele>157.31</ele>
        <time>2019-05-09T13:02:18Z</time>
      </trkpt>
      <trkpt lat="50.179415009915829" lon="8.615318974480033">
        <ele>158.75</ele>
        <time>2019-05-09T13:02:26Z</time>
      </trkpt>
      <trkpt lat="50.179391037672758" lon="8.615304976701737">
        <ele>158.75</ele>
        <time>2019-05-09T13:02:27Z</time>
      </trkpt>
      <trkpt lat="50.179362036287785" lon="8.615288967266679">
        <ele>158.75</ele>
        <time>2019-05-09T13:02:28Z</time>
      </trkpt>
      <trkpt lat="50.179342003539205" lon="8.615277986973524">
        <ele>158.75</ele>
        <time>2019-05-09T13:02:29Z</time>
      </trkpt>
      <trkpt lat="50.179325994104147" lon="8.615269018337131">
        <ele>158.75</ele>
        <time>2019-05-09T13:02:30Z</time>
      </trkpt>
      <trkpt lat="50.179285006597638" lon="8.615245968103409">
        <ele>158.75</ele>
        <time>2019-05-09T13:02:32Z</time>
      </trkpt>
      <trkpt lat="50.179051989689469" lon="8.615115964785218">
        <ele>157.78999999999999</ele>
        <time>2019-05-09T13:02:40Z</time>
      </trkpt>
      <trkpt lat="50.179003039374948" lon="8.615088975057006">
        <ele>157.31</ele>
        <time>2019-05-09T13:02:41Z</time>
      </trkpt>
      <trkpt lat="50.17877203412354" lon="8.614960983395577">
        <ele>154.91</ele>
        <time>2019-05-09T13:02:48Z</time>
      </trkpt>
      <trkpt lat="50.178423011675477" lon="8.614768031984568">
        <ele>153.47</ele>
        <time>2019-05-09T13:02:58Z</time>
      </trkpt>
      <trkpt lat="50.177868967875838" lon="8.614462008699775">
        <ele>153.47</ele>
        <time>2019-05-09T13:03:06Z</time>
      </trkpt>
      <trkpt lat="50.176502969115973" lon="8.613706966862083">
        <ele>152.03</ele>
        <time>2019-05-09T13:03:21Z</time>
      </trkpt>
      <trkpt lat="50.175478029996157" lon="8.61314102075994">
        <ele>151.06</ele>
        <time>2019-05-09T13:03:32Z</time>
      </trkpt>
      <trkpt lat="50.17406802624464" lon="8.612374998629093">
        <ele>152.50999999999999</ele>
        <time>2019-05-09T13:03:43Z</time>
      </trkpt>
      <trkpt lat="50.172483008354902" lon="8.611485008150339">
        <ele>152.50999999999999</ele>
        <time>2019-05-09T13:03:54Z</time>
      </trkpt>
      <trkpt lat="50.17149000428617" lon="8.610929036512971">
        <ele>150.09999999999999</ele>
        <time>2019-05-09T13:04:04Z</time>
      </trkpt>
      <trkpt lat="50.171046014875174" lon="8.610701970756054">
        <ele>144.34</ele>
        <time>2019-05-09T13:04:12Z</time>
      </trkpt>
      <trkpt lat="50.170819032937288" lon="8.610584959387779">
        <ele>142.41</ele>
        <time>2019-05-09T13:04:16Z</time>
      </trkpt>
      <trkpt lat="50.170758012682199" lon="8.610554030165076">
        <ele>141.93000000000001</ele>
        <time>2019-05-09T13:04:17Z</time>
      </trkpt>
      <trkpt lat="50.170687017962337" lon="8.610515976324678">
        <ele>141.44999999999999</ele>
        <time>2019-05-09T13:04:18Z</time>
      </trkpt>
      <trkpt lat="50.16977297142148" lon="8.610010966658592">
        <ele>139.05000000000001</ele>
        <time>2019-05-09T13:04:29Z</time>
      </trkpt>
      <trkpt lat="50.168574023991823" lon="8.609347958117724">
        <ele>139.53</ele>
        <time>2019-05-09T13:04:40Z</time>
      </trkpt>
      <trkpt lat="50.167647991329432" lon="8.608836997300386">
        <ele>137.61000000000001</ele>
        <time>2019-05-09T13:04:50Z</time>
      </trkpt>
      <trkpt lat="50.167435007169843" lon="8.608717974275351">
        <ele>137.61000000000001</ele>
        <time>2019-05-09T13:04:54Z</time>
      </trkpt>
      <trkpt lat="50.167383039370179" lon="8.608689978718758">
        <ele>137.61000000000001</ele>
        <time>2019-05-09T13:04:55Z</time>
      </trkpt>
      <trkpt lat="50.167325958609581" lon="8.608657959848642">
        <ele>137.61000000000001</ele>
        <time>2019-05-09T13:04:56Z</time>
      </trkpt>
      <trkpt lat="50.16680602915585" lon="8.608370963484049">
        <ele>137.61000000000001</ele>
        <time>2019-05-09T13:05:05Z</time>
      </trkpt>
      <trkpt lat="50.166128017008305" lon="8.607996962964535">
        <ele>135.19999999999999</ele>
        <time>2019-05-09T13:05:12Z</time>
      </trkpt>
      <trkpt lat="50.164661016315222" lon="8.607199005782604">
        <ele>130.40000000000001</ele>
        <time>2019-05-09T13:05:25Z</time>
      </trkpt>
      <trkpt lat="50.163317983970046" lon="8.606443963944912">
        <ele>129.43000000000001</ele>
        <time>2019-05-09T13:05:37Z</time>
      </trkpt>
      <trkpt lat="50.161977969110012" lon="8.605697974562645">
        <ele>128.94999999999999</ele>
        <time>2019-05-09T13:05:48Z</time>
      </trkpt>
      <trkpt lat="50.160783967003226" lon="8.605032032355666">
        <ele>128.47</ele>
        <time>2019-05-09T13:06:00Z</time>
      </trkpt>
      <trkpt lat="50.159827005118132" lon="8.604499027132988">
        <ele>127.51000000000001</ele>
        <time>2019-05-09T13:06:11Z</time>
      </trkpt>
      <trkpt lat="50.159008009359241" lon="8.604042967781425">
        <ele>126.55</ele>
        <time>2019-05-09T13:06:21Z</time>
      </trkpt>
      <trkpt lat="50.158933997154236" lon="8.604000974446535">
        <ele>126.55</ele>
        <time>2019-05-09T13:06:22Z</time>
      </trkpt>
      <trkpt lat="50.158264031633735" lon="8.603635020554066">
        <ele>126.06999999999999</ele>
        <time>2019-05-09T13:06:32Z</time>
      </trkpt>
      <trkpt lat="50.157629018649459" lon="8.603293960914016">
        <ele>126.55</ele>
        <time>2019-05-09T13:06:40Z</time>
      </trkpt>
      <trkpt lat="50.156559990718961" lon="8.602701025083661">
        <ele>127.51000000000001</ele>
        <time>2019-05-09T13:06:50Z</time>
      </trkpt>
      <trkpt lat="50.1556979957968" lon="8.602234991267324">
        <ele>129.91999999999999</ele>
        <time>2019-05-09T13:06:58Z</time>
      </trkpt>
      <trkpt lat="50.154205011203885" lon="8.601409960538149">
        <ele>130.88</ele>
        <time>2019-05-09T13:07:10Z</time>
      </trkpt>
      <trkpt lat="50.153202032670379" lon="8.60085197724402">
        <ele>129.43000000000001</ele>
        <time>2019-05-09T13:07:19Z</time>
      </trkpt>
      <trkpt lat="50.153029030188918" lon="8.600756004452705">
        <ele>129.91999999999999</ele>
        <time>2019-05-09T13:07:21Z</time>
      </trkpt>
      <trkpt lat="50.152947977185249" lon="8.600715016946197">
        <ele>129.43000000000001</ele>
        <time>2019-05-09T13:07:22Z</time>
      </trkpt>
      <trkpt lat="50.152669027447701" lon="8.600561963394284">
        <ele>129.91999999999999</ele>
        <time>2019-05-09T13:07:27Z</time>
      </trkpt>
      <trkpt lat="50.152627034112811" lon="8.600536985322833">
        <ele>129.91999999999999</ele>
        <time>2019-05-09T13:07:28Z</time>
      </trkpt>
      <trkpt lat="50.152006018906832" lon="8.600210007280111">
        <ele>129.91999999999999</ele>
        <time>2019-05-09T13:07:37Z</time>
      </trkpt>
      <trkpt lat="50.151178976520896" lon="8.599730981513858">
        <ele>130.40000000000001</ele>
        <time>2019-05-09T13:07:47Z</time>
      </trkpt>
      <trkpt lat="50.150383030995727" lon="8.599291015416384">
        <ele>128.47</ele>
        <time>2019-05-09T13:07:56Z</time>
      </trkpt>
      <trkpt lat="50.149419028311968" lon="8.598761027678847">
        <ele>127.03</ele>
        <time>2019-05-09T13:08:06Z</time>
      </trkpt>
      <trkpt lat="50.14852300286293" lon="8.598265992477536">
        <ele>124.63</ele>
        <time>2019-05-09T13:08:14Z</time>
      </trkpt>
      <trkpt lat="50.148423006758094" lon="8.598211007192731">
        <ele>124.63</ele>
        <time>2019-05-09T13:08:16Z</time>
      </trkpt>
      <trkpt lat="50.14820097014308" lon="8.598087960854173">
        <ele>124.15000000000001</ele>
        <time>2019-05-09T13:08:21Z</time>
      </trkpt>
      <trkpt lat="50.147438971325755" lon="8.597667021676898">
        <ele>123.67</ele>
        <time>2019-05-09T13:08:28Z</time>
      </trkpt>
      <trkpt lat="50.146216973662376" lon="8.596995966508985">
        <ele>121.73999999999999</ele>
        <time>2019-05-09T13:08:37Z</time>
      </trkpt>
      <trkpt lat="50.145087009295821" lon="8.596377968788147">
        <ele>119.34</ele>
        <time>2019-05-09T13:08:47Z</time>
      </trkpt>
      <trkpt lat="50.144229037687182" lon="8.595903972163796">
        <ele>116.94</ele>
        <time>2019-05-09T13:08:55Z</time>
      </trkpt>
      <trkpt lat="50.144090987741947" lon="8.595828032121062">
        <ele>115.5</ele>
        <time>2019-05-09T13:08:57Z</time>
      </trkpt>
      <trkpt lat="50.144034996628761" lon="8.595798024907708">
        <ele>114.53</ele>
        <time>2019-05-09T13:08:58Z</time>
      </trkpt>
      <trkpt lat="50.143836010247469" lon="8.595686964690685">
        <ele>112.13</ele>
        <time>2019-05-09T13:09:01Z</time>
      </trkpt>
      <trkpt lat="50.143769038841128" lon="8.595650000497699">
        <ele>112.13</ele>
        <time>2019-05-09T13:09:02Z</time>
      </trkpt>
      <trkpt lat="50.143584972247481" lon="8.595548998564482">
        <ele>111.65000000000001</ele>
        <time>2019-05-09T13:09:05Z</time>
      </trkpt>
      <trkpt lat="50.143049033358693" lon="8.595254039391875">
        <ele>109.73</ele>
        <time>2019-05-09T13:09:13Z</time>
      </trkpt>
      <trkpt lat="50.143005028367043" lon="8.595229983329773">
        <ele>109.73</ele>
        <time>2019-05-09T13:09:14Z</time>
      </trkpt>
      <trkpt lat="50.142969992011786" lon="8.595211040228605">
        <ele>109.73</ele>
        <time>2019-05-09T13:09:15Z</time>
      </trkpt>
      <trkpt lat="50.142945013940334" lon="8.595197964459658">
        <ele>110.20999999999999</ele>
        <time>2019-05-09T13:09:16Z</time>
      </trkpt>
      <trkpt lat="50.142931016162038" lon="8.595190001651645">
        <ele>109.73</ele>
        <time>2019-05-09T13:09:17Z</time>
      </trkpt>
      <trkpt lat="50.142910983413458" lon="8.59517902135849">
        <ele>109.73</ele>
        <time>2019-05-09T13:09:18Z</time>
      </trkpt>
      <trkpt lat="50.14267897233367" lon="8.595055975019932">
        <ele>110.69</ele>
        <time>2019-05-09T13:09:24Z</time>
      </trkpt>
      <trkpt lat="50.142637984827161" lon="8.595034014433622">
        <ele>110.69</ele>
        <time>2019-05-09T13:09:25Z</time>
      </trkpt>
      <trkpt lat="50.142603032290936" lon="8.595014987513423">
        <ele>111.17</ele>
        <time>2019-05-09T13:09:26Z</time>
      </trkpt>
      <trkpt lat="50.142573025077581" lon="8.594998978078365">
        <ele>111.17</ele>
        <time>2019-05-09T13:09:27Z</time>
      </trkpt>
      <trkpt lat="50.142546035349369" lon="8.594984980300069">
        <ele>111.65000000000001</ele>
        <time>2019-05-09T13:09:28Z</time>
      </trkpt>
      <trkpt lat="50.142519967630506" lon="8.594969976693392">
        <ele>112.13</ele>
        <time>2019-05-09T13:09:29Z</time>
      </trkpt>
      <trkpt lat="50.142173962667584" lon="8.594785993918777">
        <ele>114.53</ele>
        <time>2019-05-09T13:09:37Z</time>
      </trkpt>
      <trkpt lat="50.14164699241519" lon="8.594501009210944">
        <ele>115.5</ele>
        <time>2019-05-09T13:09:45Z</time>
      </trkpt>
      <trkpt lat="50.141573986038566" lon="8.594459015876055">
        <ele>115.01000000000001</ele>
        <time>2019-05-09T13:09:46Z</time>
      </trkpt>
      <trkpt lat="50.140479980036616" lon="8.593835989013314">
        <ele>114.05</ele>
        <time>2019-05-09T13:09:59Z</time>
      </trkpt>
      <trkpt lat="50.139383040368557" lon="8.593210028484464">
        <ele>114.05</ele>
        <time>2019-05-09T13:10:10Z</time>
      </trkpt>
      <trkpt lat="50.138246035203338" lon="8.592584989964962">
        <ele>114.05</ele>
        <time>2019-05-09T13:10:17Z</time>
      </trkpt>
      <trkpt lat="50.136987995356321" lon="8.59157295897603">
        <ele>114.53</ele>
        <time>2019-05-09T13:10:25Z</time>
      </trkpt>
      <trkpt lat="50.136767970398068" lon="8.591211028397083">
        <ele>114.53</ele>
        <time>2019-05-09T13:10:27Z</time>
      </trkpt>
      <trkpt lat="50.136664034798741" lon="8.591036014258862">
        <ele>114.53</ele>
        <time>2019-05-09T13:10:28Z</time>
      </trkpt>
      <trkpt lat="50.136567978188396" lon="8.590867035090923">
        <ele>114.53</ele>
        <time>2019-05-09T13:10:29Z</time>
      </trkpt>
      <trkpt lat="50.136497989296913" lon="8.59069000929594">
        <ele>114.05</ele>
        <time>2019-05-09T13:10:30Z</time>
      </trkpt>
      <trkpt lat="50.136433029547334" lon="8.590491022914648">
        <ele>114.05</ele>
        <time>2019-05-09T13:10:31Z</time>
      </trkpt>
      <trkpt lat="50.136367985978723" lon="8.590290024876595">
        <ele>113.56999999999999</ele>
        <time>2019-05-09T13:10:32Z</time>
      </trkpt>
      <trkpt lat="50.136009994894266" lon="8.5893589630723">
        <ele>112.61</ele>
        <time>2019-05-09T13:10:37Z</time>
      </trkpt>
      <trkpt lat="50.135861970484257" lon="8.588997032493353">
        <ele>112.13</ele>
        <time>2019-05-09T13:10:39Z</time>
      </trkpt>
      <trkpt lat="50.13576096855104" lon="8.58884003944695">
        <ele>112.13</ele>
        <time>2019-05-09T13:10:40Z</time>
      </trkpt>
      <trkpt lat="50.134739968925714" lon="8.58727396465838">
        <ele>112.61</ele>
        <time>2019-05-09T13:10:50Z</time>
      </trkpt>
      <trkpt lat="50.134648019447923" lon="8.58707900159061">
        <ele>112.61</ele>
        <time>2019-05-09T13:10:51Z</time>
      </trkpt>
      <trkpt lat="50.134551962837577" lon="8.586874986067414">
        <ele>112.61</ele>
        <time>2019-05-09T13:10:52Z</time>
      </trkpt>
      <trkpt lat="50.133859030902386" lon="8.584986040368676">
        <ele>112.13</ele>
        <time>2019-05-09T13:11:00Z</time>
      </trkpt>
      <trkpt lat="50.133076999336481" lon="8.583131963387132">
        <ele>113.09</ele>
        <time>2019-05-09T13:11:07Z</time>
      </trkpt>
      <trkpt lat="50.131608992815018" lon="8.57996603474021">
        <ele>113.09</ele>
        <time>2019-05-09T13:11:20Z</time>
      </trkpt>
      <trkpt lat="50.130486991256475" lon="8.577361023053527">
        <ele>112.13</ele>
        <time>2019-05-09T13:11:29Z</time>
      </trkpt>
      <trkpt lat="50.129531035199761" lon="8.574224011972547">
        <ele>109.73</ele>
        <time>2019-05-09T13:11:38Z</time>
      </trkpt>
      <trkpt lat="50.129197016358376" lon="8.5715670324862">
        <ele>109.25</ele>
        <time>2019-05-09T13:11:45Z</time>
      </trkpt>
      <trkpt lat="50.128825027495623" lon="8.56823799200356">
        <ele>111.17</ele>
        <time>2019-05-09T13:11:54Z</time>
      </trkpt>
      <trkpt lat="50.12815497815609" lon="8.565818974748254">
        <ele>113.09</ele>
        <time>2019-05-09T13:12:01Z</time>
      </trkpt>
      <trkpt lat="50.126977991312742" lon="8.563008019700646">
        <ele>115.98</ele>
        <time>2019-05-09T13:12:10Z</time>
      </trkpt>
      <trkpt lat="50.125542003661394" lon="8.559543024748564">
        <ele>115.01000000000001</ele>
        <time>2019-05-09T13:12:20Z</time>
      </trkpt>
      <trkpt lat="50.12364299967885" lon="8.555192984640598">
        <ele>108.29000000000001</ele>
        <time>2019-05-09T13:12:33Z</time>
      </trkpt>
      <trkpt lat="50.122755020856857" lon="8.553137993440032">
        <ele>106.36</ele>
        <time>2019-05-09T13:12:40Z</time>
      </trkpt>
      <trkpt lat="50.122414967045188" lon="8.552287984639406">
        <ele>106.36</ele>
        <time>2019-05-09T13:12:45Z</time>
      </trkpt>
      <trkpt lat="50.122105004265904" lon="8.551512993872166">
        <ele>106.84</ele>
        <time>2019-05-09T13:12:51Z</time>
      </trkpt>
      <trkpt lat="50.122055970132351" lon="8.55139103718102">
        <ele>107.31999999999999</ele>
        <time>2019-05-09T13:12:52Z</time>
      </trkpt>
      <trkpt lat="50.122006013989449" lon="8.5512659791857">
        <ele>107.81</ele>
        <time>2019-05-09T13:12:53Z</time>
      </trkpt>
      <trkpt lat="50.121611980721354" lon="8.550239028409123">
        <ele>111.17</ele>
        <time>2019-05-09T13:13:05Z</time>
      </trkpt>
      <trkpt lat="50.121487006545067" lon="8.549906015396118">
        <ele>111.17</ele>
        <time>2019-05-09T13:13:11Z</time>
      </trkpt>
      <trkpt lat="50.121441995725036" lon="8.549786992371082">
        <ele>111.65000000000001</ele>
        <time>2019-05-09T13:13:13Z</time>
      </trkpt>
      <trkpt lat="50.121219037100673" lon="8.549234038218856">
        <ele>111.65000000000001</ele>
        <time>2019-05-09T13:13:19Z</time>
      </trkpt>
      <trkpt lat="50.121187018230557" lon="8.549144016578794">
        <ele>111.65000000000001</ele>
        <time>2019-05-09T13:13:20Z</time>
      </trkpt>
      <trkpt lat="50.121135972440243" lon="8.549003032967448">
        <ele>112.13</ele>
        <time>2019-05-09T13:13:22Z</time>
      </trkpt>
      <trkpt lat="50.121044022962451" lon="8.548746965825558">
        <ele>112.61</ele>
        <time>2019-05-09T13:13:26Z</time>
      </trkpt>
      <trkpt lat="50.120971016585827" lon="8.548543034121394">
        <ele>113.56999999999999</ele>
        <time>2019-05-09T13:13:29Z</time>
      </trkpt>
      <trkpt lat="50.120944026857615" lon="8.548468016088009">
        <ele>113.56999999999999</ele>
        <time>2019-05-09T13:13:30Z</time>
      </trkpt>
      <trkpt lat="50.120917959138751" lon="8.548392998054624">
        <ele>114.05</ele>
        <time>2019-05-09T13:13:31Z</time>
      </trkpt>
      <trkpt lat="50.120891975238919" lon="8.54832099750638">
        <ele>114.05</ele>
        <time>2019-05-09T13:13:32Z</time>
      </trkpt>
      <trkpt lat="50.120863979682326" lon="8.548243967816234">
        <ele>114.05</ele>
        <time>2019-05-09T13:13:33Z</time>
      </trkpt>
      <trkpt lat="50.120743028819561" lon="8.547907015308738">
        <ele>115.01000000000001</ele>
        <time>2019-05-09T13:13:39Z</time>
      </trkpt>
      <trkpt lat="50.120696006342769" lon="8.547775000333786">
        <ele>115.5</ele>
        <time>2019-05-09T13:13:41Z</time>
      </trkpt>
      <trkpt lat="50.120599027723074" lon="8.547517005354166">
        <ele>116.45999999999999</ele>
        <time>2019-05-09T13:13:45Z</time>
      </trkpt>
      <trkpt lat="50.120573965832591" lon="8.547449028119445">
        <ele>116.94</ele>
        <time>2019-05-09T13:13:46Z</time>
      </trkpt>
      <trkpt lat="50.120555022731423" lon="8.547395970672369">
        <ele>117.42</ele>
        <time>2019-05-09T13:13:47Z</time>
      </trkpt>
      <trkpt lat="50.120395012199879" lon="8.546937983483076">
        <ele>119.34</ele>
        <time>2019-05-09T13:13:55Z</time>
      </trkpt>
      <trkpt lat="50.120353018864989" lon="8.546818038448691">
        <ele>119.81999999999999</ele>
        <time>2019-05-09T13:13:57Z</time>
      </trkpt>
      <trkpt lat="50.120232990011573" lon="8.5464739613235">
        <ele>120.78</ele>
        <time>2019-05-09T13:14:06Z</time>
      </trkpt>
      <trkpt lat="50.12011899612844" lon="8.546146983280778">
        <ele>120.3</ele>
        <time>2019-05-09T13:14:16Z</time>
      </trkpt>
      <trkpt lat="50.119996033608913" lon="8.545792009681463">
        <ele>120.3</ele>
        <time>2019-05-09T13:14:25Z</time>
      </trkpt>
      <trkpt lat="50.119929984211922" lon="8.545604003593326">
        <ele>121.26000000000001</ele>
        <time>2019-05-09T13:14:30Z</time>
      </trkpt>
      <trkpt lat="50.119916992262006" lon="8.545566033571959">
        <ele>121.26000000000001</ele>
        <time>2019-05-09T13:14:31Z</time>
      </trkpt>
      <trkpt lat="50.119768967851996" lon="8.545146016404033">
        <ele>123.19</ele>
        <time>2019-05-09T13:14:42Z</time>
      </trkpt>
      <trkpt lat="50.119628990069032" lon="8.544746031984687">
        <ele>125.11</ele>
        <time>2019-05-09T13:14:52Z</time>
      </trkpt>
      <trkpt lat="50.119589008390903" lon="8.544632038101554">
        <ele>126.55</ele>
        <time>2019-05-09T13:15:04Z</time>
      </trkpt>
      <trkpt lat="50.119498986750841" lon="8.544374965131283">
        <ele>127.03</ele>
        <time>2019-05-09T13:15:16Z</time>
      </trkpt>
      <trkpt lat="50.119283990934491" lon="8.543763002380729">
        <ele>127.98999999999999</ele>
        <time>2019-05-09T13:15:28Z</time>
      </trkpt>
      <trkpt lat="50.119142001494765" lon="8.543356982991099">
        <ele>126.06999999999999</ele>
        <time>2019-05-09T13:15:38Z</time>
      </trkpt>
      <trkpt lat="50.118982996791601" lon="8.542903019115329">
        <ele>124.15000000000001</ele>
        <time>2019-05-09T13:15:48Z</time>
      </trkpt>
      <trkpt lat="50.118906972929835" lon="8.542694980278611">
        <ele>123.19</ele>
        <time>2019-05-09T13:15:51Z</time>
      </trkpt>
      <trkpt lat="50.118814017623663" lon="8.542471015825868">
        <ele>122.70999999999999</ele>
        <time>2019-05-09T13:15:54Z</time>
      </trkpt>
      <trkpt lat="50.118784010410309" lon="8.542380994185805">
        <ele>122.22</ele>
        <time>2019-05-09T13:15:55Z</time>
      </trkpt>
      <trkpt lat="50.118693988770247" lon="8.542119981721044">
        <ele>120.78</ele>
        <time>2019-05-09T13:15:58Z</time>
      </trkpt>
      <trkpt lat="50.118602039292455" lon="8.541861986741424">
        <ele>119.34</ele>
        <time>2019-05-09T13:16:02Z</time>
      </trkpt>
      <trkpt lat="50.118587035685778" lon="8.541820999234915">
        <ele>119.34</ele>
        <time>2019-05-09T13:16:03Z</time>
      </trkpt>
      <trkpt lat="50.11857395991683" lon="8.541785962879658">
        <ele>118.86</ele>
        <time>2019-05-09T13:16:04Z</time>
      </trkpt>
      <trkpt lat="50.118562979623675" lon="8.541755033656955">
        <ele>118.38</ele>
        <time>2019-05-09T13:16:05Z</time>
      </trkpt>
      <trkpt lat="50.118551999330521" lon="8.541726032271981">
        <ele>117.90000000000001</ele>
        <time>2019-05-09T13:16:06Z</time>
      </trkpt>
      <trkpt lat="50.118544958531857" lon="8.541704993695021">
        <ele>117.90000000000001</ele>
        <time>2019-05-09T13:16:07Z</time>
      </trkpt>
      <trkpt lat="50.118533978238702" lon="8.541673980653286">
        <ele>116.94</ele>
        <time>2019-05-09T13:16:14Z</time>
      </trkpt>
      <trkpt lat="50.118524003773928" lon="8.541647996753454">
        <ele>116.94</ele>
        <time>2019-05-09T13:16:15Z</time>
      </trkpt>
      <trkpt lat="50.118298027664423" lon="8.541022036224604">
        <ele>117.90000000000001</ele>
        <time>2019-05-09T13:16:27Z</time>
      </trkpt>
      <trkpt lat="50.118214040994644" lon="8.540788013488054">
        <ele>117.90000000000001</ele>
        <time>2019-05-09T13:16:30Z</time>
      </trkpt>
      <trkpt lat="50.118095017969608" lon="8.540459023788571">
        <ele>117.90000000000001</ele>
        <time>2019-05-09T13:16:36Z</time>
      </trkpt>
      <trkpt lat="50.117954034358263" lon="8.540069013834">
        <ele>116.94</ele>
        <time>2019-05-09T13:16:43Z</time>
      </trkpt>
      <trkpt lat="50.117929978296161" lon="8.54000598192215">
        <ele>116.45999999999999</ele>
        <time>2019-05-09T13:16:44Z</time>
      </trkpt>
      <trkpt lat="50.117902988567948" lon="8.539934987202287">
        <ele>116.45999999999999</ele>
        <time>2019-05-09T13:16:45Z</time>
      </trkpt>
      <trkpt lat="50.117874993011355" lon="8.539858041331172">
        <ele>116.45999999999999</ele>
        <time>2019-05-09T13:16:46Z</time>
      </trkpt>
      <trkpt lat="50.117849009111524" lon="8.539789980277419">
        <ele>115.98</ele>
        <time>2019-05-09T13:16:47Z</time>
      </trkpt>
      <trkpt lat="50.117825958877802" lon="8.53972602635622">
        <ele>115.5</ele>
        <time>2019-05-09T13:16:48Z</time>
      </trkpt>
      <trkpt lat="50.117803998291492" lon="8.539668023586273">
        <ele>115.01000000000001</ele>
        <time>2019-05-09T13:16:49Z</time>
      </trkpt>
      <trkpt lat="50.117782959714532" lon="8.539613038301468">
        <ele>114.53</ele>
        <time>2019-05-09T13:16:50Z</time>
      </trkpt>
      <trkpt lat="50.117760999128222" lon="8.539552018046379">
        <ele>114.05</ele>
        <time>2019-05-09T13:16:51Z</time>
      </trkpt>
      <trkpt lat="50.117736021056771" lon="8.539485968649387">
        <ele>114.05</ele>
        <time>2019-05-09T13:16:52Z</time>
      </trkpt>
      <trkpt lat="50.117711964994669" lon="8.539423020556569">
        <ele>113.56999999999999</ele>
        <time>2019-05-09T13:16:53Z</time>
      </trkpt>
      <trkpt lat="50.117608029395342" lon="8.539144992828369">
        <ele>112.13</ele>
        <time>2019-05-09T13:17:02Z</time>
      </trkpt>
      <trkpt lat="50.117488000541925" lon="8.538822960108519">
        <ele>114.53</ele>
        <time>2019-05-09T13:17:19Z</time>
      </trkpt>
      <trkpt lat="50.117408959195018" lon="8.53861098177731">
        <ele>115.98</ele>
        <time>2019-05-09T13:17:33Z</time>
      </trkpt>
      <trkpt lat="50.117228999733925" lon="8.538129022344947">
        <ele>116.94</ele>
        <time>2019-05-09T13:17:41Z</time>
      </trkpt>
      <trkpt lat="50.117207039147615" lon="8.538068002089858">
        <ele>116.94</ele>
        <time>2019-05-09T13:17:42Z</time>
      </trkpt>
      <trkpt lat="50.117186000570655" lon="8.538013016805053">
        <ele>116.45999999999999</ele>
        <time>2019-05-09T13:17:44Z</time>
      </trkpt>
      <trkpt lat="50.117177031934261" lon="8.53798602707684">
        <ele>116.45999999999999</ele>
        <time>2019-05-09T13:17:45Z</time>
      </trkpt>
      <trkpt lat="50.117167979478836" lon="8.537963982671499">
        <ele>116.94</ele>
        <time>2019-05-09T13:17:46Z</time>
      </trkpt>
      <trkpt lat="50.117158005014062" lon="8.537935987114906">
        <ele>117.42</ele>
        <time>2019-05-09T13:17:47Z</time>
      </trkpt>
      <trkpt lat="50.117146018892527" lon="8.537902040407062">
        <ele>117.90000000000001</ele>
        <time>2019-05-09T13:17:48Z</time>
      </trkpt>
      <trkpt lat="50.117134032770991" lon="8.537870021536946">
        <ele>117.90000000000001</ele>
        <time>2019-05-09T13:17:49Z</time>
      </trkpt>
      <trkpt lat="50.117121962830424" lon="8.53783699683845">
        <ele>117.90000000000001</ele>
        <time>2019-05-09T13:17:50Z</time>
      </trkpt>
      <trkpt lat="50.117106959223747" lon="8.537797015160322">
        <ele>117.90000000000001</ele>
        <time>2019-05-09T13:17:51Z</time>
      </trkpt>
      <trkpt lat="50.117091033607721" lon="8.537753010168672">
        <ele>118.38</ele>
        <time>2019-05-09T13:17:52Z</time>
      </trkpt>
      <trkpt lat="50.117074018344283" lon="8.53770699352026">
        <ele>118.38</ele>
        <time>2019-05-09T13:17:53Z</time>
      </trkpt>
      <trkpt lat="50.117053985595703" lon="8.537654019892216">
        <ele>118.38</ele>
        <time>2019-05-09T13:17:54Z</time>
      </trkpt>
      <trkpt lat="50.117034036666155" lon="8.53759903460741">
        <ele>118.38</ele>
        <time>2019-05-09T13:17:55Z</time>
      </trkpt>
      <trkpt lat="50.116993971168995" lon="8.537488980218768">
        <ele>118.86</ele>
        <time>2019-05-09T13:17:57Z</time>
      </trkpt>
      <trkpt lat="50.116776963695884" lon="8.536900989711285">
        <ele>119.81999999999999</ele>
        <time>2019-05-09T13:18:04Z</time>
      </trkpt>
      <trkpt lat="50.11674796231091" lon="8.536820020526648">
        <ele>119.81999999999999</ele>
        <time>2019-05-09T13:18:05Z</time>
      </trkpt>
      <trkpt lat="50.116720972582698" lon="8.536747014150024">
        <ele>119.81999999999999</ele>
        <time>2019-05-09T13:18:06Z</time>
      </trkpt>
      <trkpt lat="50.11670102365315" lon="8.536692028865218">
        <ele>120.3</ele>
        <time>2019-05-09T13:18:07Z</time>
      </trkpt>
      <trkpt lat="50.116687025874853" lon="8.536653975024819">
        <ele>120.3</ele>
        <time>2019-05-09T13:18:08Z</time>
      </trkpt>
      <trkpt lat="50.116675961762667" lon="8.536623967811465">
        <ele>120.78</ele>
        <time>2019-05-09T13:18:09Z</time>
      </trkpt>
      <trkpt lat="50.116665987297893" lon="8.536596978083253">
        <ele>120.78</ele>
        <time>2019-05-09T13:18:10Z</time>
      </trkpt>
      <trkpt lat="50.116589963436127" lon="8.536392962560058">
        <ele>121.26000000000001</ele>
        <time>2019-05-09T13:18:15Z</time>
      </trkpt>
      <trkpt lat="50.116566997021437" lon="8.536328002810478">
        <ele>121.26000000000001</ele>
        <time>2019-05-09T13:18:16Z</time>
      </trkpt>
      <trkpt lat="50.116478987038136" lon="8.536086017265916">
        <ele>120.78</ele>
        <time>2019-05-09T13:18:19Z</time>
      </trkpt>
      <trkpt lat="50.116455014795065" lon="8.536018040031195">
        <ele>119.81999999999999</ele>
        <time>2019-05-09T13:18:20Z</time>
      </trkpt>
      <trkpt lat="50.116427019238472" lon="8.535940004512668">
        <ele>119.34</ele>
        <time>2019-05-09T13:18:21Z</time>
      </trkpt>
      <trkpt lat="50.11638100259006" lon="8.535813018679619">
        <ele>117.90000000000001</ele>
        <time>2019-05-09T13:18:23Z</time>
      </trkpt>
      <trkpt lat="50.116361975669861" lon="8.535761972889304">
        <ele>117.42</ele>
        <time>2019-05-09T13:18:24Z</time>
      </trkpt>
      <trkpt lat="50.116344038397074" lon="8.535712016746402">
        <ele>116.94</ele>
        <time>2019-05-09T13:18:25Z</time>
      </trkpt>
      <trkpt lat="50.116327023133636" lon="8.535663988441229">
        <ele>116.45999999999999</ele>
        <time>2019-05-09T13:18:26Z</time>
      </trkpt>
      <trkpt lat="50.116312019526958" lon="8.53562199510634">
        <ele>115.98</ele>
        <time>2019-05-09T13:18:27Z</time>
      </trkpt>
      <trkpt lat="50.116298021748662" lon="8.535583019256592">
        <ele>115.5</ele>
        <time>2019-05-09T13:18:28Z</time>
      </trkpt>
      <trkpt lat="50.116284023970366" lon="8.535544965416193">
        <ele>115.01000000000001</ele>
        <time>2019-05-09T13:18:29Z</time>
      </trkpt>
      <trkpt lat="50.116267008706927" lon="8.535500038415194">
        <ele>114.53</ele>
        <time>2019-05-09T13:18:30Z</time>
      </trkpt>
      <trkpt lat="50.116245970129967" lon="8.535446980968118">
        <ele>114.05</ele>
        <time>2019-05-09T13:18:31Z</time>
      </trkpt>
      <trkpt lat="50.115898037329316" lon="8.534542992711067">
        <ele>113.56999999999999</ele>
        <time>2019-05-09T13:18:41Z</time>
      </trkpt>
      <trkpt lat="50.115850009024143" lon="8.534411983564496">
        <ele>113.56999999999999</ele>
        <time>2019-05-09T13:18:42Z</time>
      </trkpt>
      <trkpt lat="50.115759987384081" lon="8.534172009676695">
        <ele>113.56999999999999</ele>
        <time>2019-05-09T13:18:44Z</time>
      </trkpt>
      <trkpt lat="50.115721011534333" lon="8.534066984429956">
        <ele>113.09</ele>
        <time>2019-05-09T13:18:45Z</time>
      </trkpt>
      <trkpt lat="50.115645993500948" lon="8.533858023583889">
        <ele>112.61</ele>
        <time>2019-05-09T13:18:47Z</time>
      </trkpt>
      <trkpt lat="50.11560601182282" lon="8.533746963366866">
        <ele>112.13</ele>
        <time>2019-05-09T13:18:48Z</time>
      </trkpt>
      <trkpt lat="50.115270987153053" lon="8.532827971503139">
        <ele>110.20999999999999</ele>
        <time>2019-05-09T13:18:54Z</time>
      </trkpt>
      <trkpt lat="50.11519898660481" lon="8.532641977071762">
        <ele>110.69</ele>
        <time>2019-05-09T13:18:55Z</time>
      </trkpt>
      <trkpt lat="50.114842001348734" lon="8.531608991324902">
        <ele>111.65000000000001</ele>
        <time>2019-05-09T13:19:02Z</time>
      </trkpt>
      <trkpt lat="50.114893969148397" lon="8.531453004106879">
        <ele>111.65000000000001</ele>
        <time>2019-05-09T13:19:03Z</time>
      </trkpt>
      <trkpt lat="50.114774024114013" lon="8.531432971358299">
        <ele>111.65000000000001</ele>
        <time>2019-05-09T13:19:04Z</time>
      </trkpt>
      <trkpt lat="50.11474896222353" lon="8.5313690174371">
        <ele>111.65000000000001</ele>
        <time>2019-05-09T13:19:05Z</time>
      </trkpt>
      <trkpt lat="50.114981979131699" lon="8.531101970002055">
        <ele>111.65000000000001</ele>
        <time>2019-05-09T13:19:06Z</time>
      </trkpt>
      <trkpt lat="50.115034030750394" lon="8.530999040231109">
        <ele>111.17</ele>
        <time>2019-05-09T13:19:07Z</time>
      </trkpt>
      <trkpt lat="50.115122040733695" lon="8.530966015532613">
        <ele>111.17</ele>
        <time>2019-05-09T13:19:08Z</time>
      </trkpt>
      <trkpt lat="50.115203009918332" lon="8.530941037461162">
        <ele>111.17</ele>
        <time>2019-05-09T13:19:09Z</time>
      </trkpt>
      <trkpt lat="50.115288002416492" lon="8.530952017754316">
        <ele>111.17</ele>
        <time>2019-05-09T13:19:10Z</time>
      </trkpt>
      <trkpt lat="50.115376012399793" lon="8.531013038009405">
        <ele>110.69</ele>
        <time>2019-05-09T13:19:11Z</time>
      </trkpt>
      <trkpt lat="50.115481037646532" lon="8.531105993315578">
        <ele>110.20999999999999</ele>
        <time>2019-05-09T13:19:12Z</time>
      </trkpt>
      <trkpt lat="50.115548009052873" lon="8.531255023553968">
        <ele>110.20999999999999</ele>
        <time>2019-05-09T13:19:13Z</time>
      </trkpt>
      <trkpt lat="50.115605005994439" lon="8.531417967751622">
        <ele>110.20999999999999</ele>
        <time>2019-05-09T13:19:14Z</time>
      </trkpt>
      <trkpt lat="50.115662002936006" lon="8.531579989939928">
        <ele>110.20999999999999</ele>
        <time>2019-05-09T13:19:15Z</time>
      </trkpt>
      <trkpt lat="50.115835005417466" lon="8.532108971849084">
        <ele>110.20999999999999</ele>
        <time>2019-05-09T13:19:19Z</time>
      </trkpt>
      <trkpt lat="50.115845985710621" lon="8.532238975167275">
        <ele>109.73</ele>
        <time>2019-05-09T13:19:20Z</time>
      </trkpt>
      <trkpt lat="50.11584397405386" lon="8.532388005405664">
        <ele>109.73</ele>
        <time>2019-05-09T13:19:21Z</time>
      </trkpt>
      <trkpt lat="50.115799969062209" lon="8.532527983188629">
        <ele>109.73</ele>
        <time>2019-05-09T13:19:22Z</time>
      </trkpt>
      <trkpt lat="50.11573601514101" lon="8.532640971243382">
        <ele>110.20999999999999</ele>
        <time>2019-05-09T13:19:23Z</time>
      </trkpt>
      <trkpt lat="50.115663008764386" lon="8.532769968733192">
        <ele>110.20999999999999</ele>
        <time>2019-05-09T13:19:24Z</time>
      </trkpt>
      <trkpt lat="50.115582961589098" lon="8.532911958172917">
        <ele>110.69</ele>
        <time>2019-05-09T13:19:25Z</time>
      </trkpt>
      <trkpt lat="50.115136038511992" lon="8.53343197144568">
        <ele>110.69</ele>
        <time>2019-05-09T13:19:29Z</time>
      </trkpt>
      <trkpt lat="50.115068983286619" lon="8.533515958115459">
        <ele>110.20999999999999</ele>
        <time>2019-05-09T13:19:30Z</time>
      </trkpt>
      <trkpt lat="50.114932022988796" lon="8.53368703275919">
        <ele>108.77</ele>
        <time>2019-05-09T13:19:37Z</time>
      </trkpt>
    </trkseg>
  </trk>

  <trk>
    <name>Track vom: 2019-05-09 15:19</name>
    <extensions>
      <gpxx:TrackExtension>
        <gpxx:DisplayColor>DarkGray</gpxx:DisplayColor>
      </gpxx:TrackExtension>
    </extensions>
    <trkseg>
      <trkpt lat="50.114932022988796" lon="8.53368703275919">
        <ele>108.77</ele>
        <time>2019-05-09T13:19:42Z</time>
      </trkpt>
      <trkpt lat="50.114932022988796" lon="8.53368703275919">
        <ele>108.77</ele>
        <time>2019-05-09T13:20:16Z</time>
      </trkpt>
      <trkpt lat="50.114902015775442" lon="8.533727014437318">
        <ele>109.25</ele>
        <time>2019-05-09T13:20:18Z</time>
      </trkpt>
      <trkpt lat="50.114865973591805" lon="8.533787028864026">
        <ele>109.25</ele>
        <time>2019-05-09T13:20:19Z</time>
      </trkpt>
      <trkpt lat="50.114325005561113" lon="8.534459006041288">
        <ele>110.69</ele>
        <time>2019-05-09T13:20:27Z</time>
      </trkpt>
      <trkpt lat="50.114166000857949" lon="8.534643994644284">
        <ele>111.17</ele>
        <time>2019-05-09T13:20:30Z</time>
      </trkpt>
      <trkpt lat="50.114134987816215" lon="8.534680036827922">
        <ele>111.65000000000001</ele>
        <time>2019-05-09T13:20:31Z</time>
      </trkpt>
      <trkpt lat="50.114059969782829" lon="8.534549027681351">
        <ele>111.65000000000001</ele>
        <time>2019-05-09T13:20:32Z</time>
      </trkpt>
      <trkpt lat="50.114035997539759" lon="8.534482978284359">
        <ele>111.65000000000001</ele>
        <time>2019-05-09T13:20:33Z</time>
      </trkpt>
      <trkpt lat="50.114003978669643" lon="8.534393040463328">
        <ele>111.65000000000001</ele>
        <time>2019-05-09T13:20:34Z</time>
      </trkpt>
      <trkpt lat="50.113959973677993" lon="8.534272005781531">
        <ele>111.65000000000001</ele>
        <time>2019-05-09T13:20:35Z</time>
      </trkpt>
      <trkpt lat="50.113573987036943" lon="8.533204989507794">
        <ele>111.65000000000001</ele>
        <time>2019-05-09T13:20:43Z</time>
      </trkpt>
      <trkpt lat="50.113527970388532" lon="8.533081021159887">
        <ele>112.13</ele>
        <time>2019-05-09T13:20:44Z</time>
      </trkpt>
      <trkpt lat="50.113295959308743" lon="8.532454976812005">
        <ele>112.61</ele>
        <time>2019-05-09T13:20:49Z</time>
      </trkpt>
      <trkpt lat="50.113251032307744" lon="8.53233402594924">
        <ele>112.13</ele>
        <time>2019-05-09T13:20:50Z</time>
      </trkpt>
      <trkpt lat="50.113204009830952" lon="8.532210979610682">
        <ele>111.65000000000001</ele>
        <time>2019-05-09T13:20:51Z</time>
      </trkpt>
      <trkpt lat="50.112719032913446" lon="8.530881023034453">
        <ele>112.13</ele>
        <time>2019-05-09T13:21:01Z</time>
      </trkpt>
      <trkpt lat="50.112407980486751" lon="8.530280040577054">
        <ele>114.53</ele>
        <time>2019-05-09T13:21:06Z</time>
      </trkpt>
      <trkpt lat="50.112332040444016" lon="8.53016403503716">
        <ele>115.01000000000001</ele>
        <time>2019-05-09T13:21:07Z</time>
      </trkpt>
      <trkpt lat="50.112131964415312" lon="8.529858011752367">
        <ele>116.45999999999999</ele>
        <time>2019-05-09T13:21:10Z</time>
      </trkpt>
      <trkpt lat="50.112078990787268" lon="8.529776958748698">
        <ele>116.94</ele>
        <time>2019-05-09T13:21:11Z</time>
      </trkpt>
      <trkpt lat="50.11199701577425" lon="8.52965097874403">
        <ele>117.90000000000001</ele>
        <time>2019-05-09T13:21:13Z</time>
      </trkpt>
      <trkpt lat="50.111861983314157" lon="8.529681991785765">
        <ele>118.38</ele>
        <time>2019-05-09T13:21:14Z</time>
      </trkpt>
      <trkpt lat="50.111655034124851" lon="8.529719039797783">
        <ele>118.86</ele>
        <time>2019-05-09T13:21:20Z</time>
      </trkpt>
      <trkpt lat="50.111612034961581" lon="8.529905034229159">
        <ele>118.86</ele>
        <time>2019-05-09T13:21:22Z</time>
      </trkpt>
      <trkpt lat="50.111585967242718" lon="8.530027996748686">
        <ele>118.38</ele>
        <time>2019-05-09T13:21:23Z</time>
      </trkpt>
      <trkpt lat="50.111496029421687" lon="8.530447008088231">
        <ele>116.94</ele>
        <time>2019-05-09T13:21:26Z</time>
      </trkpt>
      <trkpt lat="50.111441966146231" lon="8.53059696033597">
        <ele>115.98</ele>
        <time>2019-05-09T13:21:27Z</time>
      </trkpt>
      <trkpt lat="50.110893035307527" lon="8.531631035730243">
        <ele>112.13</ele>
        <time>2019-05-09T13:21:35Z</time>
      </trkpt>
      <trkpt lat="50.110832015052438" lon="8.531748969107866">
        <ele>112.13</ele>
        <time>2019-05-09T13:21:36Z</time>
      </trkpt>
      <trkpt lat="50.110775018110871" lon="8.531860029324889">
        <ele>111.65000000000001</ele>
        <time>2019-05-09T13:21:37Z</time>
      </trkpt>
      <trkpt lat="50.110523980110884" lon="8.53235799819231">
        <ele>112.13</ele>
        <time>2019-05-09T13:21:42Z</time>
      </trkpt>
      <trkpt lat="50.11047201231122" lon="8.532461011782289">
        <ele>112.13</ele>
        <time>2019-05-09T13:21:43Z</time>
      </trkpt>
      <trkpt lat="50.110404035076499" lon="8.532541980966926">
        <ele>112.13</ele>
        <time>2019-05-09T13:21:44Z</time>
      </trkpt>
      <trkpt lat="50.11032298207283" lon="8.532630996778607">
        <ele>112.13</ele>
        <time>2019-05-09T13:21:45Z</time>
      </trkpt>
      <trkpt lat="50.110238995403051" lon="8.532725041732192">
        <ele>112.13</ele>
        <time>2019-05-09T13:21:46Z</time>
      </trkpt>
      <trkpt lat="50.109887039288878" lon="8.533115973696113">
        <ele>111.65000000000001</ele>
        <time>2019-05-09T13:21:51Z</time>
      </trkpt>
      <trkpt lat="50.109836999326944" lon="8.533171964809299">
        <ele>111.65000000000001</ele>
        <time>2019-05-09T13:21:52Z</time>
      </trkpt>
      <trkpt lat="50.109760975465178" lon="8.533256035298109">
        <ele>111.17</ele>
        <time>2019-05-09T13:21:54Z</time>
      </trkpt>
      <trkpt lat="50.109734991565347" lon="8.533285036683083">
        <ele>111.17</ele>
        <time>2019-05-09T13:21:55Z</time>
      </trkpt>
      <trkpt lat="50.109717976301908" lon="8.53330297395587">
        <ele>110.69</ele>
        <time>2019-05-09T13:21:56Z</time>
      </trkpt>
      <trkpt lat="50.109695009887218" lon="8.533329963684082">
        <ele>110.20999999999999</ele>
        <time>2019-05-09T13:21:57Z</time>
      </trkpt>
      <trkpt lat="50.109652010723948" lon="8.533372962847352">
        <ele>110.20999999999999</ele>
        <time>2019-05-09T13:21:58Z</time>
      </trkpt>
      <trkpt lat="50.109623009338975" lon="8.533405987545848">
        <ele>109.73</ele>
        <time>2019-05-09T13:21:59Z</time>
      </trkpt>
      <trkpt lat="50.1093540340662" lon="8.533719973638654">
        <ele>107.81</ele>
        <time>2019-05-09T13:22:03Z</time>
      </trkpt>
      <trkpt lat="50.109277004376054" lon="8.533809995278716">
        <ele>107.31999999999999</ele>
        <time>2019-05-09T13:22:04Z</time>
      </trkpt>
      <trkpt lat="50.109209027141333" lon="8.533887024968863">
        <ele>106.36</ele>
        <time>2019-05-09T13:22:05Z</time>
      </trkpt>
      <trkpt lat="50.109143983572721" lon="8.533961959183216">
        <ele>105.88</ele>
        <time>2019-05-09T13:22:06Z</time>
      </trkpt>
      <trkpt lat="50.10907500050962" lon="8.534042006358504">
        <ele>104.92</ele>
        <time>2019-05-09T13:22:07Z</time>
      </trkpt>
      <trkpt lat="50.10883997194469" lon="8.534316010773182">
        <ele>103</ele>
        <time>2019-05-09T13:22:10Z</time>
      </trkpt>
      <trkpt lat="50.108755985274911" lon="8.534409971907735">
        <ele>103</ele>
        <time>2019-05-09T13:22:11Z</time>
      </trkpt>
      <trkpt lat="50.108399000018835" lon="8.534839963540435">
        <ele>101.56</ele>
        <time>2019-05-09T13:22:15Z</time>
      </trkpt>
      <trkpt lat="50.108320964500308" lon="8.534917999058962">
        <ele>101.08</ele>
        <time>2019-05-09T13:22:16Z</time>
      </trkpt>
      <trkpt lat="50.108247036114335" lon="8.534993017092347">
        <ele>100.59999999999999</ele>
        <time>2019-05-09T13:22:17Z</time>
      </trkpt>
      <trkpt lat="50.108170006424189" lon="8.535069962963462">
        <ele>100.11</ele>
        <time>2019-05-09T13:22:18Z</time>
      </trkpt>
      <trkpt lat="50.108088031411171" lon="8.53515001013875">
        <ele>99.150000000000006</ele>
        <time>2019-05-09T13:22:19Z</time>
      </trkpt>
      <trkpt lat="50.107802962884307" lon="8.535410016775131">
        <ele>96.75</ele>
        <time>2019-05-09T13:22:22Z</time>
      </trkpt>
      <trkpt lat="50.106889000162482" lon="8.536209985613823">
        <ele>94.349999999999994</ele>
        <time>2019-05-09T13:22:31Z</time>
      </trkpt>
      <trkpt lat="50.105901025235653" lon="8.536969972774386">
        <ele>91.459999999999994</ele>
        <time>2019-05-09T13:22:40Z</time>
      </trkpt>
      <trkpt lat="50.105457035824656" lon="8.537281025201082">
        <ele>90.5</ele>
        <time>2019-05-09T13:22:44Z</time>
      </trkpt>
      <trkpt lat="50.104927970096469" lon="8.5376220010221">
        <ele>89.540000000000006</ele>
        <time>2019-05-09T13:22:51Z</time>
      </trkpt>
      <trkpt lat="50.104834008961916" lon="8.537682015448809">
        <ele>90.5</ele>
        <time>2019-05-09T13:22:59Z</time>
      </trkpt>
      <trkpt lat="50.104791009798646" lon="8.53770799934864">
        <ele>90.5</ele>
        <time>2019-05-09T13:23:05Z</time>
      </trkpt>
      <trkpt lat="50.104492027312517" lon="8.537886030972004">
        <ele>90.019999999999996</ele>
        <time>2019-05-09T13:23:09Z</time>
      </trkpt>
      <trkpt lat="50.104395970702171" lon="8.537935987114906">
        <ele>89.540000000000006</ele>
        <time>2019-05-09T13:23:10Z</time>
      </trkpt>
      <trkpt lat="50.104188015684485" lon="8.538044029846788">
        <ele>88.579999999999998</ele>
        <time>2019-05-09T13:23:12Z</time>
      </trkpt>
      <trkpt lat="50.104079972952604" lon="8.538100020959973">
        <ele>88.099999999999994</ele>
        <time>2019-05-09T13:23:13Z</time>
      </trkpt>
      <trkpt lat="50.103409001603723" lon="8.53841501288116">
        <ele>83.769999999999996</ele>
        <time>2019-05-09T13:23:21Z</time>
      </trkpt>
      <trkpt lat="50.103215966373682" lon="8.538510985672474">
        <ele>79.930000000000007</ele>
        <time>2019-05-09T13:23:28Z</time>
      </trkpt>
      <trkpt lat="50.103185037150979" lon="8.538526995107532">
        <ele>79.930000000000007</ele>
        <time>2019-05-09T13:23:29Z</time>
      </trkpt>
      <trkpt lat="50.10314698331058" lon="8.53854501619935">
        <ele>79.930000000000007</ele>
        <time>2019-05-09T13:23:30Z</time>
      </trkpt>
      <trkpt lat="50.103062996640801" lon="8.538584997877479">
        <ele>79.450000000000003</ele>
        <time>2019-05-09T13:23:32Z</time>
      </trkpt>
      <trkpt lat="50.103014968335629" lon="8.538605030626059">
        <ele>78.969999999999999</ele>
        <time>2019-05-09T13:23:33Z</time>
      </trkpt>
      <trkpt lat="50.102967023849487" lon="8.538625985383987">
        <ele>78.480000000000004</ele>
        <time>2019-05-09T13:23:34Z</time>
      </trkpt>
      <trkpt lat="50.102916983887553" lon="8.538647023960948">
        <ele>78</ele>
        <time>2019-05-09T13:23:35Z</time>
      </trkpt>
      <trkpt lat="50.102868033573031" lon="8.538667978718877">
        <ele>78</ele>
        <time>2019-05-09T13:23:36Z</time>
      </trkpt>
      <trkpt lat="50.102807013317943" lon="8.538693962618709">
        <ele>77.519999999999996</ele>
        <time>2019-05-09T13:23:37Z</time>
      </trkpt>
      <trkpt lat="50.102729983627796" lon="8.538744002580643">
        <ele>77.040000000000006</ele>
        <time>2019-05-09T13:23:38Z</time>
      </trkpt>
      <trkpt lat="50.102648008614779" lon="8.538776021450758">
        <ele>76.560000000000002</ele>
        <time>2019-05-09T13:23:39Z</time>
      </trkpt>
      <trkpt lat="50.101658022031188" lon="8.539058994501829">
        <ele>81.849999999999994</ele>
        <time>2019-05-09T13:23:57Z</time>
      </trkpt>
      <trkpt lat="50.101561965420842" lon="8.538972996175289">
        <ele>82.810000000000002</ele>
        <time>2019-05-09T13:23:58Z</time>
      </trkpt>
      <trkpt lat="50.101533969864249" lon="8.538894038647413">
        <ele>83.769999999999996</ele>
        <time>2019-05-09T13:23:59Z</time>
      </trkpt>
      <trkpt lat="50.101499017328024" lon="8.538794964551926">
        <ele>85.209999999999994</ele>
        <time>2019-05-09T13:24:00Z</time>
      </trkpt>
      <trkpt lat="50.101432967931032" lon="8.538608970120549">
        <ele>86.180000000000007</ele>
        <time>2019-05-09T13:24:01Z</time>
      </trkpt>
      <trkpt lat="50.101432967931032" lon="8.538469998165965">
        <ele>86.659999999999997</ele>
        <time>2019-05-09T13:24:02Z</time>
      </trkpt>
      <trkpt lat="50.101432967931032" lon="8.538279980421066">
        <ele>87.140000000000001</ele>
        <time>2019-05-09T13:24:03Z</time>
      </trkpt>
      <trkpt lat="50.101216966286302" lon="8.536513997241855">
        <ele>91.939999999999998</ele>
        <time>2019-05-09T13:24:11Z</time>
      </trkpt>
      <trkpt lat="50.100522022694349" lon="8.534237975254655">
        <ele>95.790000000000006</ele>
        <time>2019-05-09T13:24:22Z</time>
      </trkpt>
      <trkpt lat="50.099766980856657" lon="8.532203016802669">
        <ele>98.189999999999998</ele>
        <time>2019-05-09T13:24:34Z</time>
      </trkpt>
      <trkpt lat="50.098799960687757" lon="8.530145008116961">
        <ele>98.670000000000002</ele>
        <time>2019-05-09T13:24:47Z</time>
      </trkpt>
      <trkpt lat="50.09788197465241" lon="8.528138967230916">
        <ele>99.629999999999995</ele>
        <time>2019-05-09T13:25:00Z</time>
      </trkpt>
      <trkpt lat="50.097764041274786" lon="8.527879966422916">
        <ele>99.150000000000006</ele>
        <time>2019-05-09T13:25:06Z</time>
      </trkpt>
      <trkpt lat="50.097643006592989" lon="8.527595987543464">
        <ele>100.11</ele>
        <time>2019-05-09T13:25:15Z</time>
      </trkpt>
      <trkpt lat="50.097229024395347" lon="8.526658974587917">
        <ele>99.629999999999995</ele>
        <time>2019-05-09T13:25:22Z</time>
      </trkpt>
      <trkpt lat="50.096568027511239" lon="8.525232039391995">
        <ele>98.189999999999998</ele>
        <time>2019-05-09T13:25:31Z</time>
      </trkpt>
      <trkpt lat="50.0956030189991" lon="8.523176964372397">
        <ele>100.11</ele>
        <time>2019-05-09T13:25:44Z</time>
      </trkpt>
      <trkpt lat="50.09474596939981" lon="8.521370999515057">
        <ele>99.629999999999995</ele>
        <time>2019-05-09T13:25:54Z</time>
      </trkpt>
      <trkpt lat="50.094197038561106" lon="8.520247992128134">
        <ele>102.04000000000001</ele>
        <time>2019-05-09T13:26:00Z</time>
      </trkpt>
      <trkpt lat="50.093967039138079" lon="8.51994096301496">
        <ele>102.04000000000001</ele>
        <time>2019-05-09T13:26:02Z</time>
      </trkpt>
      <trkpt lat="50.093206968158484" lon="8.519062958657742">
        <ele>103.48</ele>
        <time>2019-05-09T13:26:08Z</time>
      </trkpt>
      <trkpt lat="50.093084005638957" lon="8.518919041380286">
        <ele>103.95999999999999</ele>
        <time>2019-05-09T13:26:09Z</time>
      </trkpt>
      <trkpt lat="50.091591021046042" lon="8.517185999080539">
        <ele>105.40000000000001</ele>
        <time>2019-05-09T13:26:21Z</time>
      </trkpt>
      <trkpt lat="50.090356031432748" lon="8.515752023085952">
        <ele>103.48</ele>
        <time>2019-05-09T13:26:31Z</time>
      </trkpt>
      <trkpt lat="50.088979974389076" lon="8.514187037944794">
        <ele>103.48</ele>
        <time>2019-05-09T13:26:42Z</time>
      </trkpt>
      <trkpt lat="50.088494997471571" lon="8.513760985806584">
        <ele>105.88</ele>
        <time>2019-05-09T13:26:46Z</time>
      </trkpt>
      <trkpt lat="50.088370023295283" lon="8.51370700635016">
        <ele>106.36</ele>
        <time>2019-05-09T13:26:47Z</time>
      </trkpt>
      <trkpt lat="50.088247982785106" lon="8.513655038550496">
        <ele>106.36</ele>
        <time>2019-05-09T13:26:48Z</time>
      </trkpt>
      <trkpt lat="50.088132983073592" lon="8.513623019680381">
        <ele>106.84</ele>
        <time>2019-05-09T13:26:49Z</time>
      </trkpt>
      <trkpt lat="50.088015971705317" lon="8.513617990538478">
        <ele>107.31999999999999</ele>
        <time>2019-05-09T13:26:50Z</time>
      </trkpt>
      <trkpt lat="50.08789200335741" lon="8.513652021065354">
        <ele>107.31999999999999</ele>
        <time>2019-05-09T13:26:51Z</time>
      </trkpt>
      <trkpt lat="50.087766023352742" lon="8.513685967773199">
        <ele>107.81</ele>
        <time>2019-05-09T13:26:52Z</time>
      </trkpt>
      <trkpt lat="50.087644988670945" lon="8.513718992471695">
        <ele>107.81</ele>
        <time>2019-05-09T13:26:53Z</time>
      </trkpt>
      <trkpt lat="50.087534012272954" lon="8.513760985806584">
        <ele>107.81</ele>
        <time>2019-05-09T13:26:54Z</time>
      </trkpt>
      <trkpt lat="50.087189013138413" lon="8.513960978016257">
        <ele>106.36</ele>
        <time>2019-05-09T13:26:57Z</time>
      </trkpt>
      <trkpt lat="50.087081976234913" lon="8.514023004099727">
        <ele>106.36</ele>
        <time>2019-05-09T13:26:58Z</time>
      </trkpt>
      <trkpt lat="50.086979968473315" lon="8.514082012698054">
        <ele>105.88</ele>
        <time>2019-05-09T13:26:59Z</time>
      </trkpt>
      <trkpt lat="50.086791962385178" lon="8.514189971610904">
        <ele>105.88</ele>
        <time>2019-05-09T13:27:01Z</time>
      </trkpt>
      <trkpt lat="50.086061982437968" lon="8.51461099460721">
        <ele>107.31999999999999</ele>
        <time>2019-05-09T13:27:09Z</time>
      </trkpt>
      <trkpt lat="50.08599903434515" lon="8.514644019305706">
        <ele>107.81</ele>
        <time>2019-05-09T13:27:10Z</time>
      </trkpt>
      <trkpt lat="50.085951006039977" lon="8.514666985720396">
        <ele>108.29000000000001</ele>
        <time>2019-05-09T13:27:11Z</time>
      </trkpt>
      <trkpt lat="50.085918987169862" lon="8.514682995155454">
        <ele>109.25</ele>
        <time>2019-05-09T13:27:19Z</time>
      </trkpt>
      <trkpt lat="50.085918987169862" lon="8.514682995155454">
        <ele>109.73</ele>
        <time>2019-05-09T13:28:03Z</time>
      </trkpt>
      <trkpt lat="50.085796024650335" lon="8.514629015699029">
        <ele>110.20999999999999</ele>
        <time>2019-05-09T13:28:19Z</time>
      </trkpt>
      <trkpt lat="50.085739027708769" lon="8.514603031799197">
        <ele>110.69</ele>
        <time>2019-05-09T13:28:20Z</time>
      </trkpt>
      <trkpt lat="50.085027990862727" lon="8.51422400213778">
        <ele>109.25</ele>
        <time>2019-05-09T13:28:29Z</time>
      </trkpt>
      <trkpt lat="50.084942998364568" lon="8.514177985489368">
        <ele>108.77</ele>
        <time>2019-05-09T13:28:30Z</time>
      </trkpt>
      <trkpt lat="50.084853982552886" lon="8.514130963012576">
        <ele>108.77</ele>
        <time>2019-05-09T13:28:31Z</time>
      </trkpt>
      <trkpt lat="50.084766978397965" lon="8.514062985777855">
        <ele>108.29000000000001</ele>
        <time>2019-05-09T13:28:32Z</time>
      </trkpt>
      <trkpt lat="50.083760982379317" lon="8.512904020026326">
        <ele>105.88</ele>
        <time>2019-05-09T13:28:43Z</time>
      </trkpt>
      <trkpt lat="50.082918014377356" lon="8.51194798015058">
        <ele>103.48</ele>
        <time>2019-05-09T13:28:53Z</time>
      </trkpt>
      <trkpt lat="50.082580978050828" lon="8.511535003781319">
        <ele>102.04000000000001</ele>
        <time>2019-05-09T13:29:00Z</time>
      </trkpt>
      <trkpt lat="50.082492968067527" lon="8.511425033211708">
        <ele>101.56</ele>
        <time>2019-05-09T13:29:02Z</time>
      </trkpt>
      <trkpt lat="50.082447035238147" lon="8.511368036270142">
        <ele>101.56</ele>
        <time>2019-05-09T13:29:03Z</time>
      </trkpt>
      <trkpt lat="50.08234896697104" lon="8.511243984103203">
        <ele>101.08</ele>
        <time>2019-05-09T13:29:05Z</time>
      </trkpt>
      <trkpt lat="50.082288030534983" lon="8.511168966069818">
        <ele>100.59999999999999</ele>
        <time>2019-05-09T13:29:06Z</time>
      </trkpt>
      <trkpt lat="50.081641031429172" lon="8.510433034971356">
        <ele>99.150000000000006</ele>
        <time>2019-05-09T13:29:14Z</time>
      </trkpt>
      <trkpt lat="50.080382991582155" lon="8.509020013734698">
        <ele>98.670000000000002</ele>
        <time>2019-05-09T13:29:27Z</time>
      </trkpt>
      <trkpt lat="50.079879993572831" lon="8.508387012407184">
        <ele>98.670000000000002</ele>
        <time>2019-05-09T13:29:34Z</time>
      </trkpt>
      <trkpt lat="50.079697016626596" lon="8.507973030209541">
        <ele>98.189999999999998</ele>
        <time>2019-05-09T13:29:44Z</time>
      </trkpt>
      <trkpt lat="50.079681007191539" lon="8.507898012176156">
        <ele>98.189999999999998</ele>
        <time>2019-05-09T13:29:51Z</time>
      </trkpt>
      <trkpt lat="50.079664997756481" lon="8.507819976657629">
        <ele>98.189999999999998</ele>
        <time>2019-05-09T13:29:52Z</time>
      </trkpt>
      <trkpt lat="50.079643037170172" lon="8.507714029401541">
        <ele>98.189999999999998</ele>
        <time>2019-05-09T13:29:53Z</time>
      </trkpt>
      <trkpt lat="50.079600038006902" lon="8.507439019158483">
        <ele>97.709999999999994</ele>
        <time>2019-05-09T13:29:55Z</time>
      </trkpt>
      <trkpt lat="50.079585034400225" lon="8.507266016677022">
        <ele>98.189999999999998</ele>
        <time>2019-05-09T13:29:56Z</time>
      </trkpt>
      <trkpt lat="50.079570030793548" lon="8.507084967568517">
        <ele>97.709999999999994</ele>
        <time>2019-05-09T13:29:57Z</time>
      </trkpt>
      <trkpt lat="50.079512028023601" lon="8.506915988400579">
        <ele>97.709999999999994</ele>
        <time>2019-05-09T13:29:58Z</time>
      </trkpt>
      <trkpt lat="50.079448996111751" lon="8.506728988140822">
        <ele>97.709999999999994</ele>
        <time>2019-05-09T13:29:59Z</time>
      </trkpt>
      <trkpt lat="50.078779030591249" lon="8.504969039931893">
        <ele>99.150000000000006</ele>
        <time>2019-05-09T13:30:08Z</time>
      </trkpt>
      <trkpt lat="50.077811004593968" lon="8.503603041172028">
        <ele>98.670000000000002</ele>
        <time>2019-05-09T13:30:17Z</time>
      </trkpt>
      <trkpt lat="50.07661197334528" lon="8.502738028764725">
        <ele>95.790000000000006</ele>
        <time>2019-05-09T13:30:26Z</time>
      </trkpt>
      <trkpt lat="50.075765987858176" lon="8.501895982772112">
        <ele>94.349999999999994</ele>
        <time>2019-05-09T13:30:33Z</time>
      </trkpt>
      <trkpt lat="50.075655011460185" lon="8.501750975847244">
        <ele>94.349999999999994</ele>
        <time>2019-05-09T13:30:34Z</time>
      </trkpt>
      <trkpt lat="50.075544035062194" lon="8.501605968922377">
        <ele>94.829999999999998</ele>
        <time>2019-05-09T13:30:35Z</time>
      </trkpt>
      <trkpt lat="50.075439009815454" lon="8.501437995582819">
        <ele>95.310000000000002</ele>
        <time>2019-05-09T13:30:36Z</time>
      </trkpt>
      <trkpt lat="50.075347982347012" lon="8.501257030293346">
        <ele>95.310000000000002</ele>
        <time>2019-05-09T13:30:37Z</time>
      </trkpt>
      <trkpt lat="50.075262989848852" lon="8.501065000891686">
        <ele>95.790000000000006</ele>
        <time>2019-05-09T13:30:38Z</time>
      </trkpt>
      <trkpt lat="50.074374005198479" lon="8.498799037188292">
        <ele>98.189999999999998</ele>
        <time>2019-05-09T13:30:50Z</time>
      </trkpt>
      <trkpt lat="50.073784003034234" lon="8.497367994859815">
        <ele>103</ele>
        <time>2019-05-09T13:30:58Z</time>
      </trkpt>
      <trkpt lat="50.073253009468317" lon="8.495931001380086">
        <ele>108.77</ele>
        <time>2019-05-09T13:31:07Z</time>
      </trkpt>
      <trkpt lat="50.073028039187193" lon="8.495259024202824">
        <ele>111.65000000000001</ele>
        <time>2019-05-09T13:31:11Z</time>
      </trkpt>
      <trkpt lat="50.072952015325427" lon="8.495114017277956">
        <ele>112.13</ele>
        <time>2019-05-09T13:31:12Z</time>
      </trkpt>
      <trkpt lat="50.072852019220591" lon="8.494942020624876">
        <ele>112.13</ele>
        <time>2019-05-09T13:31:13Z</time>
      </trkpt>
      <trkpt lat="50.072562005370855" lon="8.494643960148096">
        <ele>112.61</ele>
        <time>2019-05-09T13:31:16Z</time>
      </trkpt>
      <trkpt lat="50.072459997609258" lon="8.494539018720388">
        <ele>112.61</ele>
        <time>2019-05-09T13:31:17Z</time>
      </trkpt>
      <trkpt lat="50.07235798984766" lon="8.494433993473649">
        <ele>112.61</ele>
        <time>2019-05-09T13:31:18Z</time>
      </trkpt>
      <trkpt lat="50.07225195877254" lon="8.494324022904038">
        <ele>112.13</ele>
        <time>2019-05-09T13:31:19Z</time>
      </trkpt>
      <trkpt lat="50.072152968496084" lon="8.494223020970821">
        <ele>111.65000000000001</ele>
        <time>2019-05-09T13:31:20Z</time>
      </trkpt>
      <trkpt lat="50.07205598987639" lon="8.494125036522746">
        <ele>111.65000000000001</ele>
        <time>2019-05-09T13:31:21Z</time>
      </trkpt>
      <trkpt lat="50.07188499905169" lon="8.493847008794546">
        <ele>111.17</ele>
        <time>2019-05-09T13:31:23Z</time>
      </trkpt>
      <trkpt lat="50.071832025423646" lon="8.493696972727776">
        <ele>111.17</ele>
        <time>2019-05-09T13:31:24Z</time>
      </trkpt>
      <trkpt lat="50.071791959926486" lon="8.493565963581204">
        <ele>111.65000000000001</ele>
        <time>2019-05-09T13:31:25Z</time>
      </trkpt>
      <trkpt lat="50.071757007390261" lon="8.493451969698072">
        <ele>112.13</ele>
        <time>2019-05-09T13:31:26Z</time>
      </trkpt>
      <trkpt lat="50.071730017662048" lon="8.49336102604866">
        <ele>112.13</ele>
        <time>2019-05-09T13:31:27Z</time>
      </trkpt>
      <trkpt lat="50.071704033762217" lon="8.493282990530133">
        <ele>112.13</ele>
        <time>2019-05-09T13:31:28Z</time>
      </trkpt>
      <trkpt lat="50.071677966043353" lon="8.493213001638651">
        <ele>112.13</ele>
        <time>2019-05-09T13:31:29Z</time>
      </trkpt>
      <trkpt lat="50.071652987971902" lon="8.49314502440393">
        <ele>112.13</ele>
        <time>2019-05-09T13:31:30Z</time>
      </trkpt>
      <trkpt lat="50.071628009900451" lon="8.493076041340828">
        <ele>112.13</ele>
        <time>2019-05-09T13:31:31Z</time>
      </trkpt>
      <trkpt lat="50.071599008515477" lon="8.492998005822301">
        <ele>112.13</ele>
        <time>2019-05-09T13:31:32Z</time>
      </trkpt>
      <trkpt lat="50.071567995473742" lon="8.492913013324142">
        <ele>111.65000000000001</ele>
        <time>2019-05-09T13:31:33Z</time>
      </trkpt>
      <trkpt lat="50.071514016017318" lon="8.492764988914132">
        <ele>111.17</ele>
        <time>2019-05-09T13:31:35Z</time>
      </trkpt>
      <trkpt lat="50.071489959955215" lon="8.492699023336172">
        <ele>111.17</ele>
        <time>2019-05-09T13:31:36Z</time>
      </trkpt>
      <trkpt lat="50.071460958570242" lon="8.492619981989265">
        <ele>110.69</ele>
        <time>2019-05-09T13:31:37Z</time>
      </trkpt>
      <trkpt lat="50.0714320410043" lon="8.49254303611815">
        <ele>110.69</ele>
        <time>2019-05-09T13:31:38Z</time>
      </trkpt>
      <trkpt lat="50.071403961628675" lon="8.492466006428003">
        <ele>110.20999999999999</ele>
        <time>2019-05-09T13:31:39Z</time>
      </trkpt>
      <trkpt lat="50.07119600661099" lon="8.491911962628365">
        <ele>108.77</ele>
        <time>2019-05-09T13:31:46Z</time>
      </trkpt>
      <trkpt lat="50.071157030761242" lon="8.491809032857418">
        <ele>108.77</ele>
        <time>2019-05-09T13:31:47Z</time>
      </trkpt>
      <trkpt lat="50.071152001619339" lon="8.491767961531878">
        <ele>108.77</ele>
        <time>2019-05-09T13:31:48Z</time>
      </trkpt>
      <trkpt lat="50.071142027154565" lon="8.491679029539228">
        <ele>108.77</ele>
        <time>2019-05-09T13:31:49Z</time>
      </trkpt>
      <trkpt lat="50.071134986355901" lon="8.491615997627378">
        <ele>108.77</ele>
        <time>2019-05-09T13:31:50Z</time>
      </trkpt>
      <trkpt lat="50.071171028539538" lon="8.491487000137568">
        <ele>108.77</ele>
        <time>2019-05-09T13:31:51Z</time>
      </trkpt>
      <trkpt lat="50.071198018267751" lon="8.491392033174634">
        <ele>108.77</ele>
        <time>2019-05-09T13:31:52Z</time>
      </trkpt>
      <trkpt lat="50.071224002167583" lon="8.491296982392669">
        <ele>108.77</ele>
        <time>2019-05-09T13:31:53Z</time>
      </trkpt>
      <trkpt lat="50.071253003552556" lon="8.491216013208032">
        <ele>109.25</ele>
        <time>2019-05-09T13:31:54Z</time>
      </trkpt>
      <trkpt lat="50.071302959695458" lon="8.491151975467801">
        <ele>108.77</ele>
        <time>2019-05-09T13:31:55Z</time>
      </trkpt>
      <trkpt lat="50.071354005485773" lon="8.491086009889841">
        <ele>108.77</ele>
        <time>2019-05-09T13:31:56Z</time>
      </trkpt>
      <trkpt lat="50.071402033790946" lon="8.491021972149611">
        <ele>108.77</ele>
        <time>2019-05-09T13:31:57Z</time>
      </trkpt>
      <trkpt lat="50.071703027933836" lon="8.49063104018569">
        <ele>106.84</ele>
        <time>2019-05-09T13:32:05Z</time>
      </trkpt>
      <trkpt lat="50.071736974641681" lon="8.490585023537278">
        <ele>106.84</ele>
        <time>2019-05-09T13:32:06Z</time>
      </trkpt>
      <trkpt lat="50.071820039302111" lon="8.490473963320255">
        <ele>106.84</ele>
        <time>2019-05-09T13:32:08Z</time>
      </trkpt>
      <trkpt lat="50.072304010391235" lon="8.489811960607767">
        <ele>106.84</ele>
        <time>2019-05-09T13:32:15Z</time>
      </trkpt>
      <trkpt lat="50.072687985375524" lon="8.489276021718979">
        <ele>107.81</ele>
        <time>2019-05-09T13:32:20Z</time>
      </trkpt>
      <trkpt lat="50.073044970631599" lon="8.488761959597468">
        <ele>108.29000000000001</ele>
        <time>2019-05-09T13:32:25Z</time>
      </trkpt>
      <trkpt lat="50.073084030300379" lon="8.488604966551065">
        <ele>108.77</ele>
        <time>2019-05-09T13:32:26Z</time>
      </trkpt>
      <trkpt lat="50.073117977008224" lon="8.488469012081623">
        <ele>108.77</ele>
        <time>2019-05-09T13:32:27Z</time>
      </trkpt>
      <trkpt lat="50.0731520075351" lon="8.488332973793149">
        <ele>108.77</ele>
        <time>2019-05-09T13:32:28Z</time>
      </trkpt>
      <trkpt lat="50.073147984221578" lon="8.488256027922034">
        <ele>108.77</ele>
        <time>2019-05-09T13:32:29Z</time>
      </trkpt>
      <trkpt lat="50.073140021413565" lon="8.488116972148418">
        <ele>109.25</ele>
        <time>2019-05-09T13:32:30Z</time>
      </trkpt>
      <trkpt lat="50.073130968958139" lon="8.487969031557441">
        <ele>109.25</ele>
        <time>2019-05-09T13:32:31Z</time>
      </trkpt>
      <trkpt lat="50.073087969794869" lon="8.487886972725391">
        <ele>109.25</ele>
        <time>2019-05-09T13:32:32Z</time>
      </trkpt>
      <trkpt lat="50.073041031137109" lon="8.487798040732741">
        <ele>108.77</ele>
        <time>2019-05-09T13:32:33Z</time>
      </trkpt>
      <trkpt lat="50.072932988405228" lon="8.487592013552785">
        <ele>107.31999999999999</ele>
        <time>2019-05-09T13:32:36Z</time>
      </trkpt>
      <trkpt lat="50.072899041697383" lon="8.487534010782838">
        <ele>106.84</ele>
        <time>2019-05-09T13:32:37Z</time>
      </trkpt>
      <trkpt lat="50.072865011170506" lon="8.487478019669652">
        <ele>106.36</ele>
        <time>2019-05-09T13:32:38Z</time>
      </trkpt>
      <trkpt lat="50.072837015613914" lon="8.487433008849621">
        <ele>105.88</ele>
        <time>2019-05-09T13:32:39Z</time>
      </trkpt>
      <trkpt lat="50.072812959551811" lon="8.487394032999873">
        <ele>105.40000000000001</ele>
        <time>2019-05-09T13:32:40Z</time>
      </trkpt>
      <trkpt lat="50.07278798148036" lon="8.487352961674333">
        <ele>104.92</ele>
        <time>2019-05-09T13:32:41Z</time>
      </trkpt>
      <trkpt lat="50.072763003408909" lon="8.487312979996204">
        <ele>103.95999999999999</ele>
        <time>2019-05-09T13:32:42Z</time>
      </trkpt>
      <trkpt lat="50.072740959003568" lon="8.487277021631599">
        <ele>103.48</ele>
        <time>2019-05-09T13:32:43Z</time>
      </trkpt>
      <trkpt lat="50.072714975103736" lon="8.48723603412509">
        <ele>102.52</ele>
        <time>2019-05-09T13:32:44Z</time>
      </trkpt>
      <trkpt lat="50.072680022567511" lon="8.487179959192872">
        <ele>102.04000000000001</ele>
        <time>2019-05-09T13:32:45Z</time>
      </trkpt>
      <trkpt lat="50.072637023404241" lon="8.487108964473009">
        <ele>101.56</ele>
        <time>2019-05-09T13:32:46Z</time>
      </trkpt>
      <trkpt lat="50.072591006755829" lon="8.48702497780323">
        <ele>101.08</ele>
        <time>2019-05-09T13:32:47Z</time>
      </trkpt>
      <trkpt lat="50.072545995935798" lon="8.486941996961832">
        <ele>100.59999999999999</ele>
        <time>2019-05-09T13:32:48Z</time>
      </trkpt>
      <trkpt lat="50.072497967630625" lon="8.486854992806912">
        <ele>99.629999999999995</ele>
        <time>2019-05-09T13:32:49Z</time>
      </trkpt>
      <trkpt lat="50.071924980729818" lon="8.485750006511807">
        <ele>99.629999999999995</ele>
        <time>2019-05-09T13:33:00Z</time>
      </trkpt>
      <trkpt lat="50.071330033242702" lon="8.484622975811362">
        <ele>100.59999999999999</ele>
        <time>2019-05-09T13:33:10Z</time>
      </trkpt>
      <trkpt lat="50.071259960532188" lon="8.484508981928229">
        <ele>100.11</ele>
        <time>2019-05-09T13:33:11Z</time>
      </trkpt>
      <trkpt lat="50.071193994954228" lon="8.48440102301538">
        <ele>100.11</ele>
        <time>2019-05-09T13:33:12Z</time>
      </trkpt>
      <trkpt lat="50.071131968870759" lon="8.484300021082163">
        <ele>100.11</ele>
        <time>2019-05-09T13:33:13Z</time>
      </trkpt>
      <trkpt lat="50.071072038263083" lon="8.484200024977326">
        <ele>100.59999999999999</ele>
        <time>2019-05-09T13:33:14Z</time>
      </trkpt>
      <trkpt lat="50.07093901745975" lon="8.483986034989357">
        <ele>101.08</ele>
        <time>2019-05-09T13:33:16Z</time>
      </trkpt>
      <trkpt lat="50.070834998041391" lon="8.483831975609064">
        <ele>102.04000000000001</ele>
        <time>2019-05-09T13:33:18Z</time>
      </trkpt>
      <trkpt lat="50.070803984999657" lon="8.483786964789033">
        <ele>102.52</ele>
        <time>2019-05-09T13:33:19Z</time>
      </trkpt>
      <trkpt lat="50.070780012756586" lon="8.483751006424427">
        <ele>103</ele>
        <time>2019-05-09T13:33:20Z</time>
      </trkpt>
      <trkpt lat="50.070757968351245" lon="8.483718987554312">
        <ele>103.95999999999999</ele>
        <time>2019-05-09T13:33:29Z</time>
      </trkpt>
      <trkpt lat="50.070634000003338" lon="8.483536010608077">
        <ele>106.36</ele>
        <time>2019-05-09T13:33:55Z</time>
      </trkpt>
      <trkpt lat="50.070342980325222" lon="8.482995964586735">
        <ele>109.73</ele>
        <time>2019-05-09T13:34:03Z</time>
      </trkpt>
      <trkpt lat="50.070112980902195" lon="8.482558010146022">
        <ele>109.73</ele>
        <time>2019-05-09T13:34:07Z</time>
      </trkpt>
      <trkpt lat="50.069975014775991" lon="8.482300015166402">
        <ele>110.20999999999999</ele>
        <time>2019-05-09T13:34:09Z</time>
      </trkpt>
      <trkpt lat="50.069291973486543" lon="8.480922030285001">
        <ele>110.20999999999999</ele>
        <time>2019-05-09T13:34:19Z</time>
      </trkpt>
      <trkpt lat="50.068762991577387" lon="8.479870017617941">
        <ele>111.65000000000001</ele>
        <time>2019-05-09T13:34:26Z</time>
      </trkpt>
      <trkpt lat="50.068688979372382" lon="8.479715958237648">
        <ele>112.13</ele>
        <time>2019-05-09T13:34:27Z</time>
      </trkpt>
      <trkpt lat="50.068272985517979" lon="8.478906014934182">
        <ele>114.53</ele>
        <time>2019-05-09T13:34:33Z</time>
      </trkpt>
      <trkpt lat="50.068191010504961" lon="8.47875002771616">
        <ele>115.01000000000001</ele>
        <time>2019-05-09T13:34:35Z</time>
      </trkpt>
      <trkpt lat="50.068195033818483" lon="8.478608960285783">
        <ele>115.5</ele>
        <time>2019-05-09T13:34:36Z</time>
      </trkpt>
      <trkpt lat="50.068225041031837" lon="8.478562021628022">
        <ele>115.5</ele>
        <time>2019-05-09T13:34:37Z</time>
      </trkpt>
      <trkpt lat="50.068259993568063" lon="8.478506030514836">
        <ele>115.98</ele>
        <time>2019-05-09T13:34:38Z</time>
      </trkpt>
      <trkpt lat="50.068292012438178" lon="8.478453978896141">
        <ele>115.98</ele>
        <time>2019-05-09T13:34:39Z</time>
      </trkpt>
      <trkpt lat="50.068323025479913" lon="8.478405028581619">
        <ele>116.45999999999999</ele>
        <time>2019-05-09T13:34:40Z</time>
      </trkpt>
      <trkpt lat="50.068353032693267" lon="8.478357000276446">
        <ele>116.45999999999999</ele>
        <time>2019-05-09T13:34:41Z</time>
      </trkpt>
      <trkpt lat="50.068473983556032" lon="8.478162037208676">
        <ele>117.42</ele>
        <time>2019-05-09T13:34:46Z</time>
      </trkpt>
      <trkpt lat="50.068473983556032" lon="8.478162037208676">
        <ele>117.42</ele>
        <time>2019-05-09T13:34:47Z</time>
      </trkpt>
      <trkpt lat="50.068473983556032" lon="8.478162037208676">
        <ele>117.90000000000001</ele>
        <time>2019-05-09T13:34:48Z</time>
      </trkpt>
      <trkpt lat="50.068473983556032" lon="8.478162037208676">
        <ele>117.90000000000001</ele>
        <time>2019-05-09T13:35:00Z</time>
      </trkpt>
    </trkseg>
  </trk>

</gpx>